<?xml version="1.0" encoding="UTF-8" standalone="no" ?>
<gpx xmlns="http://www.topografix.com/GPX/1/1" xmlns:xsi="http://www.w3.org/2001/XMLSchema-instance" xsi:schemaLocation="http://www.topografix.com/GPX/1/1 http://www.topografix.com/GPX/1/1/gpx.xsd" version="1.1" creator="VisuGPX - https://www.visugpx.com">
  <metadata>
    <name>LA 6000 D</name>
    <desc><![CDATA[La course des géants]]></desc>
  </metadata>
  <trk>
    <name><![CDATA[LA 6000 D_1]]></name>
    <trkseg>
      <trkpt lat="45.55584" lon="6.65122">
        <ele>672.0258179</ele>
        <time>2009-07-25T06:00:31Z</time>
      </trkpt>
      <trkpt lat="45.55585" lon="6.65125">
        <ele>672.1494141</ele>
        <time>2009-07-25T06:00:40Z</time>
      </trkpt>
      <trkpt lat="45.55587" lon="6.65137">
        <ele>672.4378052</ele>
        <time>2009-07-25T06:00:50Z</time>
      </trkpt>
      <trkpt lat="45.55589" lon="6.65142">
        <ele>672.6026001</ele>
        <time>2009-07-25T06:00:54Z</time>
      </trkpt>
      <trkpt lat="45.55593" lon="6.65159">
        <ele>673.0145874</ele>
        <time>2009-07-25T06:01:01Z</time>
      </trkpt>
      <trkpt lat="45.55597" lon="6.65167">
        <ele>673.4127197</ele>
        <time>2009-07-25T06:01:06Z</time>
      </trkpt>
      <trkpt lat="45.55597" lon="6.6517">
        <ele>673.4555054</ele>
        <time>2009-07-25T06:01:07Z</time>
      </trkpt>
      <trkpt lat="45.55599" lon="6.65174">
        <ele>673.5167236</ele>
        <time>2009-07-25T06:01:09Z</time>
      </trkpt>
      <trkpt lat="45.55607" lon="6.65187">
        <ele>673.9055786</ele>
        <time>2009-07-25T06:01:15Z</time>
      </trkpt>
      <trkpt lat="45.55611" lon="6.65198">
        <ele>673.994751</ele>
        <time>2009-07-25T06:01:19Z</time>
      </trkpt>
      <trkpt lat="45.55618" lon="6.65216">
        <ele>674.6925049</ele>
        <time>2009-07-25T06:01:26Z</time>
      </trkpt>
      <trkpt lat="45.55626" lon="6.65232">
        <ele>675.3839722</ele>
        <time>2009-07-25T06:01:33Z</time>
      </trkpt>
      <trkpt lat="45.55633" lon="6.65245">
        <ele>675.7344971</ele>
        <time>2009-07-25T06:01:39Z</time>
      </trkpt>
      <trkpt lat="45.55645" lon="6.65262">
        <ele>676.5629272</ele>
        <time>2009-07-25T06:01:47Z</time>
      </trkpt>
      <trkpt lat="45.55656" lon="6.65276">
        <ele>677.2478638</ele>
        <time>2009-07-25T06:01:54Z</time>
      </trkpt>
      <trkpt lat="45.55664" lon="6.65289">
        <ele>677.8125</ele>
        <time>2009-07-25T06:02:00Z</time>
      </trkpt>
      <trkpt lat="45.55674" lon="6.65302">
        <ele>678.7561035</ele>
        <time>2009-07-25T06:02:06Z</time>
      </trkpt>
      <trkpt lat="45.55684" lon="6.65313">
        <ele>679.8275757</ele>
        <time>2009-07-25T06:02:12Z</time>
      </trkpt>
      <trkpt lat="45.55692" lon="6.65326">
        <ele>680.1390381</ele>
        <time>2009-07-25T06:02:17Z</time>
      </trkpt>
      <trkpt lat="45.55703" lon="6.65343">
        <ele>680.2049561</ele>
        <time>2009-07-25T06:02:24Z</time>
      </trkpt>
      <trkpt lat="45.55715" lon="6.65364">
        <ele>679.4186401</ele>
        <time>2009-07-25T06:02:32Z</time>
      </trkpt>
      <trkpt lat="45.55722" lon="6.65382">
        <ele>675.5018921</ele>
        <time>2009-07-25T06:02:38Z</time>
      </trkpt>
      <trkpt lat="45.55727" lon="6.65401">
        <ele>672.6270752</ele>
        <time>2009-07-25T06:02:44Z</time>
      </trkpt>
      <trkpt lat="45.55733" lon="6.65424">
        <ele>672.0588379</ele>
        <time>2009-07-25T06:02:51Z</time>
      </trkpt>
      <trkpt lat="45.55735" lon="6.65442">
        <ele>673.6690063</ele>
        <time>2009-07-25T06:02:56Z</time>
      </trkpt>
      <trkpt lat="45.55738" lon="6.65466">
        <ele>674.7874756</ele>
        <time>2009-07-25T06:03:03Z</time>
      </trkpt>
      <trkpt lat="45.5574" lon="6.65488">
        <ele>674.0797729</ele>
        <time>2009-07-25T06:03:09Z</time>
      </trkpt>
      <trkpt lat="45.55741" lon="6.65508">
        <ele>673.3328247</ele>
        <time>2009-07-25T06:03:15Z</time>
      </trkpt>
      <trkpt lat="45.55739" lon="6.6553">
        <ele>673.015686</ele>
        <time>2009-07-25T06:03:21Z</time>
      </trkpt>
      <trkpt lat="45.55737" lon="6.6554">
        <ele>672.7961426</ele>
        <time>2009-07-25T06:03:24Z</time>
      </trkpt>
      <trkpt lat="45.55734" lon="6.65558">
        <ele>672.732666</ele>
        <time>2009-07-25T06:03:29Z</time>
      </trkpt>
      <trkpt lat="45.55726" lon="6.65583">
        <ele>672.3762817</ele>
        <time>2009-07-25T06:03:36Z</time>
      </trkpt>
      <trkpt lat="45.55723" lon="6.65596">
        <ele>672.1045532</ele>
        <time>2009-07-25T06:03:41Z</time>
      </trkpt>
      <trkpt lat="45.5572" lon="6.6561">
        <ele>671.7749634</ele>
        <time>2009-07-25T06:03:45Z</time>
      </trkpt>
      <trkpt lat="45.55714" lon="6.65628">
        <ele>671.1157837</ele>
        <time>2009-07-25T06:03:51Z</time>
      </trkpt>
      <trkpt lat="45.55711" lon="6.65636">
        <ele>670.7449951</ele>
        <time>2009-07-25T06:03:54Z</time>
      </trkpt>
      <trkpt lat="45.55703" lon="6.65646">
        <ele>669.7524414</ele>
        <time>2009-07-25T06:03:59Z</time>
      </trkpt>
      <trkpt lat="45.55692" lon="6.65652">
        <ele>668.0760498</ele>
        <time>2009-07-25T06:04:04Z</time>
      </trkpt>
      <trkpt lat="45.5568" lon="6.65663">
        <ele>665.5509644</ele>
        <time>2009-07-25T06:04:09Z</time>
      </trkpt>
      <trkpt lat="45.55672" lon="6.6568">
        <ele>663.6010742</ele>
        <time>2009-07-25T06:04:14Z</time>
      </trkpt>
      <trkpt lat="45.5567" lon="6.65694">
        <ele>662.7593994</ele>
        <time>2009-07-25T06:04:18Z</time>
      </trkpt>
      <trkpt lat="45.55668" lon="6.65716">
        <ele>661.5845337</ele>
        <time>2009-07-25T06:04:24Z</time>
      </trkpt>
      <trkpt lat="45.55667" lon="6.65735">
        <ele>660.6939087</ele>
        <time>2009-07-25T06:04:29Z</time>
      </trkpt>
      <trkpt lat="45.55667" lon="6.65738">
        <ele>660.5773315</ele>
        <time>2009-07-25T06:04:30Z</time>
      </trkpt>
      <trkpt lat="45.55665" lon="6.65756">
        <ele>659.7208252</ele>
        <time>2009-07-25T06:04:35Z</time>
      </trkpt>
      <trkpt lat="45.55662" lon="6.65771">
        <ele>659.2280884</ele>
        <time>2009-07-25T06:04:39Z</time>
      </trkpt>
      <trkpt lat="45.55659" lon="6.65788">
        <ele>659.5512085</ele>
        <time>2009-07-25T06:04:44Z</time>
      </trkpt>
      <trkpt lat="45.55656" lon="6.65807">
        <ele>659.8223267</ele>
        <time>2009-07-25T06:04:49Z</time>
      </trkpt>
      <trkpt lat="45.55655" lon="6.65825">
        <ele>657.8196411</ele>
        <time>2009-07-25T06:04:54Z</time>
      </trkpt>
      <trkpt lat="45.55653" lon="6.65846">
        <ele>655.8677979</ele>
        <time>2009-07-25T06:05:00Z</time>
      </trkpt>
      <trkpt lat="45.55653" lon="6.65851">
        <ele>655.494751</ele>
        <time>2009-07-25T06:05:01Z</time>
      </trkpt>
      <trkpt lat="45.55652" lon="6.6587">
        <ele>654.1982422</ele>
        <time>2009-07-25T06:05:06Z</time>
      </trkpt>
      <trkpt lat="45.55652" lon="6.65874">
        <ele>654.0011597</ele>
        <time>2009-07-25T06:05:07Z</time>
      </trkpt>
      <trkpt lat="45.55651" lon="6.65893">
        <ele>652.7756958</ele>
        <time>2009-07-25T06:05:12Z</time>
      </trkpt>
      <trkpt lat="45.55652" lon="6.65906">
        <ele>652.4558716</ele>
        <time>2009-07-25T06:05:16Z</time>
      </trkpt>
      <trkpt lat="45.55655" lon="6.65929">
        <ele>651.7601929</ele>
        <time>2009-07-25T06:05:22Z</time>
      </trkpt>
      <trkpt lat="45.55653" lon="6.65944">
        <ele>650.987854</ele>
        <time>2009-07-25T06:05:27Z</time>
      </trkpt>
      <trkpt lat="45.55653" lon="6.65964">
        <ele>650.6499634</ele>
        <time>2009-07-25T06:05:33Z</time>
      </trkpt>
      <trkpt lat="45.55648" lon="6.65988">
        <ele>650.5377197</ele>
        <time>2009-07-25T06:05:39Z</time>
      </trkpt>
      <trkpt lat="45.55641" lon="6.65998">
        <ele>650.1578979</ele>
        <time>2009-07-25T06:05:43Z</time>
      </trkpt>
      <trkpt lat="45.55629" lon="6.66006">
        <ele>651.0715332</ele>
        <time>2009-07-25T06:05:48Z</time>
      </trkpt>
      <trkpt lat="45.55617" lon="6.66014">
        <ele>652.3898926</ele>
        <time>2009-07-25T06:05:53Z</time>
      </trkpt>
      <trkpt lat="45.55614" lon="6.66016">
        <ele>652.637085</ele>
        <time>2009-07-25T06:05:54Z</time>
      </trkpt>
      <trkpt lat="45.55602" lon="6.66027">
        <ele>654.0284424</ele>
        <time>2009-07-25T06:06:00Z</time>
      </trkpt>
      <trkpt lat="45.55593" lon="6.66041">
        <ele>655.1416626</ele>
        <time>2009-07-25T06:06:05Z</time>
      </trkpt>
      <trkpt lat="45.55586" lon="6.66057">
        <ele>655.8807983</ele>
        <time>2009-07-25T06:06:10Z</time>
      </trkpt>
      <trkpt lat="45.55582" lon="6.66074">
        <ele>656.7636719</ele>
        <time>2009-07-25T06:06:15Z</time>
      </trkpt>
      <trkpt lat="45.55577" lon="6.66089">
        <ele>657.6248779</ele>
        <time>2009-07-25T06:06:19Z</time>
      </trkpt>
      <trkpt lat="45.55573" lon="6.66103">
        <ele>658.4557495</ele>
        <time>2009-07-25T06:06:23Z</time>
      </trkpt>
      <trkpt lat="45.55567" lon="6.66119">
        <ele>659.6078491</ele>
        <time>2009-07-25T06:06:28Z</time>
      </trkpt>
      <trkpt lat="45.55559" lon="6.66134">
        <ele>661.2961426</ele>
        <time>2009-07-25T06:06:33Z</time>
      </trkpt>
      <trkpt lat="45.55554" lon="6.66143">
        <ele>662.5068359</ele>
        <time>2009-07-25T06:06:36Z</time>
      </trkpt>
      <trkpt lat="45.55543" lon="6.66153">
        <ele>664.3676758</ele>
        <time>2009-07-25T06:06:41Z</time>
      </trkpt>
      <trkpt lat="45.55534" lon="6.66157">
        <ele>665.6448364</ele>
        <time>2009-07-25T06:06:45Z</time>
      </trkpt>
      <trkpt lat="45.55523" lon="6.66159">
        <ele>666.6843872</ele>
        <time>2009-07-25T06:06:50Z</time>
      </trkpt>
      <trkpt lat="45.55513" lon="6.66155">
        <ele>667.1642456</ele>
        <time>2009-07-25T06:06:55Z</time>
      </trkpt>
      <trkpt lat="45.55503" lon="6.66143">
        <ele>667.7399902</ele>
        <time>2009-07-25T06:07:01Z</time>
      </trkpt>
      <trkpt lat="45.55495" lon="6.66127">
        <ele>667.8916626</ele>
        <time>2009-07-25T06:07:07Z</time>
      </trkpt>
      <trkpt lat="45.55489" lon="6.66112">
        <ele>668.1564941</ele>
        <time>2009-07-25T06:07:12Z</time>
      </trkpt>
      <trkpt lat="45.5549" lon="6.66098">
        <ele>667.5020752</ele>
        <time>2009-07-25T06:07:17Z</time>
      </trkpt>
      <trkpt lat="45.55495" lon="6.66079">
        <ele>665.7841797</ele>
        <time>2009-07-25T06:07:23Z</time>
      </trkpt>
      <trkpt lat="45.55497" lon="6.66062">
        <ele>664.6855469</ele>
        <time>2009-07-25T06:07:28Z</time>
      </trkpt>
      <trkpt lat="45.55497" lon="6.66043">
        <ele>664.0326538</ele>
        <time>2009-07-25T06:07:34Z</time>
      </trkpt>
      <trkpt lat="45.55493" lon="6.66022">
        <ele>663.7865601</ele>
        <time>2009-07-25T06:07:40Z</time>
      </trkpt>
      <trkpt lat="45.55489" lon="6.66005">
        <ele>663.4569092</ele>
        <time>2009-07-25T06:07:45Z</time>
      </trkpt>
      <trkpt lat="45.55482" lon="6.65989">
        <ele>663.5428467</ele>
        <time>2009-07-25T06:07:50Z</time>
      </trkpt>
      <trkpt lat="45.55478" lon="6.65977">
        <ele>663.5908813</ele>
        <time>2009-07-25T06:07:54Z</time>
      </trkpt>
      <trkpt lat="45.55472" lon="6.65961">
        <ele>663.6071777</ele>
        <time>2009-07-25T06:07:59Z</time>
      </trkpt>
      <trkpt lat="45.55466" lon="6.65941">
        <ele>663.6633911</ele>
        <time>2009-07-25T06:08:05Z</time>
      </trkpt>
      <trkpt lat="45.55462" lon="6.65924">
        <ele>664.1165771</ele>
        <time>2009-07-25T06:08:10Z</time>
      </trkpt>
      <trkpt lat="45.55457" lon="6.65904">
        <ele>664.3950195</ele>
        <time>2009-07-25T06:08:16Z</time>
      </trkpt>
      <trkpt lat="45.55455" lon="6.65888">
        <ele>664.40271</ele>
        <time>2009-07-25T06:08:21Z</time>
      </trkpt>
      <trkpt lat="45.55452" lon="6.65864">
        <ele>664.2330322</ele>
        <time>2009-07-25T06:08:28Z</time>
      </trkpt>
      <trkpt lat="45.55451" lon="6.65849">
        <ele>664.1613159</ele>
        <time>2009-07-25T06:08:33Z</time>
      </trkpt>
      <trkpt lat="45.5545" lon="6.65828">
        <ele>663.9899292</ele>
        <time>2009-07-25T06:08:39Z</time>
      </trkpt>
      <trkpt lat="45.55449" lon="6.65812">
        <ele>663.6581421</ele>
        <time>2009-07-25T06:08:44Z</time>
      </trkpt>
      <trkpt lat="45.55448" lon="6.65793">
        <ele>663.538208</ele>
        <time>2009-07-25T06:08:50Z</time>
      </trkpt>
      <trkpt lat="45.55446" lon="6.65777">
        <ele>663.7600708</ele>
        <time>2009-07-25T06:08:55Z</time>
      </trkpt>
      <trkpt lat="45.55439" lon="6.65752">
        <ele>663.6289673</ele>
        <time>2009-07-25T06:09:03Z</time>
      </trkpt>
      <trkpt lat="45.55432" lon="6.65736">
        <ele>663.3602905</ele>
        <time>2009-07-25T06:09:09Z</time>
      </trkpt>
      <trkpt lat="45.5542" lon="6.65727">
        <ele>663.3067017</ele>
        <time>2009-07-25T06:09:15Z</time>
      </trkpt>
      <trkpt lat="45.5541" lon="6.65723">
        <ele>663.8282471</ele>
        <time>2009-07-25T06:09:20Z</time>
      </trkpt>
      <trkpt lat="45.55394" lon="6.65715">
        <ele>664.9215698</ele>
        <time>2009-07-25T06:09:27Z</time>
      </trkpt>
      <trkpt lat="45.55384" lon="6.65706">
        <ele>665.2147827</ele>
        <time>2009-07-25T06:09:32Z</time>
      </trkpt>
      <trkpt lat="45.55376" lon="6.65694">
        <ele>665.3404541</ele>
        <time>2009-07-25T06:09:37Z</time>
      </trkpt>
      <trkpt lat="45.55367" lon="6.65678">
        <ele>665.2168579</ele>
        <time>2009-07-25T06:09:43Z</time>
      </trkpt>
      <trkpt lat="45.55356" lon="6.6566">
        <ele>664.6469116</ele>
        <time>2009-07-25T06:09:50Z</time>
      </trkpt>
      <trkpt lat="45.55346" lon="6.65645">
        <ele>664.7203369</ele>
        <time>2009-07-25T06:09:56Z</time>
      </trkpt>
      <trkpt lat="45.55337" lon="6.65629">
        <ele>664.9749756</ele>
        <time>2009-07-25T06:10:02Z</time>
      </trkpt>
      <trkpt lat="45.55328" lon="6.65616">
        <ele>664.7301636</ele>
        <time>2009-07-25T06:10:07Z</time>
      </trkpt>
      <trkpt lat="45.55316" lon="6.65603">
        <ele>664.6570435</ele>
        <time>2009-07-25T06:10:13Z</time>
      </trkpt>
      <trkpt lat="45.55304" lon="6.65591">
        <ele>664.6277466</ele>
        <time>2009-07-25T06:10:19Z</time>
      </trkpt>
      <trkpt lat="45.55292" lon="6.65576">
        <ele>664.7243042</ele>
        <time>2009-07-25T06:10:26Z</time>
      </trkpt>
      <trkpt lat="45.55285" lon="6.65565">
        <ele>664.8101196</ele>
        <time>2009-07-25T06:10:30Z</time>
      </trkpt>
      <trkpt lat="45.55276" lon="6.65548">
        <ele>665.1969604</ele>
        <time>2009-07-25T06:10:36Z</time>
      </trkpt>
      <trkpt lat="45.55269" lon="6.65529">
        <ele>666.2192993</ele>
        <time>2009-07-25T06:10:42Z</time>
      </trkpt>
      <trkpt lat="45.55267" lon="6.65512">
        <ele>666.6137695</ele>
        <time>2009-07-25T06:10:47Z</time>
      </trkpt>
      <trkpt lat="45.55262" lon="6.65492">
        <ele>666.7442017</ele>
        <time>2009-07-25T06:10:53Z</time>
      </trkpt>
      <trkpt lat="45.55257" lon="6.65472">
        <ele>666.2462158</ele>
        <time>2009-07-25T06:10:59Z</time>
      </trkpt>
      <trkpt lat="45.55252" lon="6.65453">
        <ele>666.1321411</ele>
        <time>2009-07-25T06:11:05Z</time>
      </trkpt>
      <trkpt lat="45.55246" lon="6.65435">
        <ele>665.7399292</ele>
        <time>2009-07-25T06:11:11Z</time>
      </trkpt>
      <trkpt lat="45.55234" lon="6.65421">
        <ele>666.0454712</ele>
        <time>2009-07-25T06:11:17Z</time>
      </trkpt>
      <trkpt lat="45.55221" lon="6.65406">
        <ele>665.8673096</ele>
        <time>2009-07-25T06:11:24Z</time>
      </trkpt>
      <trkpt lat="45.55211" lon="6.65393">
        <ele>665.1901855</ele>
        <time>2009-07-25T06:11:29Z</time>
      </trkpt>
      <trkpt lat="45.55202" lon="6.65376">
        <ele>664.1958008</ele>
        <time>2009-07-25T06:11:35Z</time>
      </trkpt>
      <trkpt lat="45.55194" lon="6.6536">
        <ele>663.0036621</ele>
        <time>2009-07-25T06:11:40Z</time>
      </trkpt>
      <trkpt lat="45.55185" lon="6.6534">
        <ele>663.0511475</ele>
        <time>2009-07-25T06:11:47Z</time>
      </trkpt>
      <trkpt lat="45.55176" lon="6.65321">
        <ele>662.4812622</ele>
        <time>2009-07-25T06:11:53Z</time>
      </trkpt>
      <trkpt lat="45.55168" lon="6.65302">
        <ele>661.5120239</ele>
        <time>2009-07-25T06:11:59Z</time>
      </trkpt>
      <trkpt lat="45.55161" lon="6.65287">
        <ele>660.9356689</ele>
        <time>2009-07-25T06:12:04Z</time>
      </trkpt>
      <trkpt lat="45.5515" lon="6.6526">
        <ele>662.1611328</ele>
        <time>2009-07-25T06:12:12Z</time>
      </trkpt>
      <trkpt lat="45.55144" lon="6.65246">
        <ele>663.9011841</ele>
        <time>2009-07-25T06:12:17Z</time>
      </trkpt>
      <trkpt lat="45.5514" lon="6.65233">
        <ele>666.0145264</ele>
        <time>2009-07-25T06:12:21Z</time>
      </trkpt>
      <trkpt lat="45.55138" lon="6.65219">
        <ele>667.6053467</ele>
        <time>2009-07-25T06:12:25Z</time>
      </trkpt>
      <trkpt lat="45.55141" lon="6.65196">
        <ele>668.2686157</ele>
        <time>2009-07-25T06:12:32Z</time>
      </trkpt>
      <trkpt lat="45.55144" lon="6.65177">
        <ele>665.5021973</ele>
        <time>2009-07-25T06:12:38Z</time>
      </trkpt>
      <trkpt lat="45.55143" lon="6.65168">
        <ele>665.0360718</ele>
        <time>2009-07-25T06:12:41Z</time>
      </trkpt>
      <trkpt lat="45.5513" lon="6.65152">
        <ele>668.3721924</ele>
        <time>2009-07-25T06:12:48Z</time>
      </trkpt>
      <trkpt lat="45.55121" lon="6.65144">
        <ele>671.7503052</ele>
        <time>2009-07-25T06:12:52Z</time>
      </trkpt>
      <trkpt lat="45.55111" lon="6.65132">
        <ele>675.3064575</ele>
        <time>2009-07-25T06:12:57Z</time>
      </trkpt>
      <trkpt lat="45.55101" lon="6.65113">
        <ele>679.9030151</ele>
        <time>2009-07-25T06:13:03Z</time>
      </trkpt>
      <trkpt lat="45.55095" lon="6.65095">
        <ele>681.6712646</ele>
        <time>2009-07-25T06:13:09Z</time>
      </trkpt>
      <trkpt lat="45.55091" lon="6.65079">
        <ele>681.479187</ele>
        <time>2009-07-25T06:13:14Z</time>
      </trkpt>
      <trkpt lat="45.55091" lon="6.65076">
        <ele>681.3146973</ele>
        <time>2009-07-25T06:13:15Z</time>
      </trkpt>
      <trkpt lat="45.55087" lon="6.65057">
        <ele>680.9193726</ele>
        <time>2009-07-25T06:13:21Z</time>
      </trkpt>
      <trkpt lat="45.55085" lon="6.65036">
        <ele>680.052002</ele>
        <time>2009-07-25T06:13:27Z</time>
      </trkpt>
      <trkpt lat="45.55083" lon="6.65019">
        <ele>677.3476563</ele>
        <time>2009-07-25T06:13:32Z</time>
      </trkpt>
      <trkpt lat="45.55082" lon="6.65007">
        <ele>674.2700195</ele>
        <time>2009-07-25T06:13:36Z</time>
      </trkpt>
      <trkpt lat="45.55077" lon="6.64987">
        <ele>668.6838989</ele>
        <time>2009-07-25T06:13:42Z</time>
      </trkpt>
      <trkpt lat="45.55075" lon="6.64981">
        <ele>667.0269165</ele>
        <time>2009-07-25T06:13:44Z</time>
      </trkpt>
      <trkpt lat="45.55065" lon="6.64968">
        <ele>665.8254395</ele>
        <time>2009-07-25T06:13:49Z</time>
      </trkpt>
      <trkpt lat="45.55051" lon="6.64957">
        <ele>665.4742432</ele>
        <time>2009-07-25T06:13:55Z</time>
      </trkpt>
      <trkpt lat="45.55042" lon="6.64946">
        <ele>664.2320557</ele>
        <time>2009-07-25T06:13:59Z</time>
      </trkpt>
      <trkpt lat="45.55035" lon="6.6493">
        <ele>663.9284668</ele>
        <time>2009-07-25T06:14:04Z</time>
      </trkpt>
      <trkpt lat="45.55031" lon="6.64916">
        <ele>663.2620239</ele>
        <time>2009-07-25T06:14:09Z</time>
      </trkpt>
      <trkpt lat="45.55026" lon="6.64899">
        <ele>662.491394</ele>
        <time>2009-07-25T06:14:15Z</time>
      </trkpt>
      <trkpt lat="45.5502" lon="6.6488">
        <ele>662.4572144</ele>
        <time>2009-07-25T06:14:21Z</time>
      </trkpt>
      <trkpt lat="45.55015" lon="6.64864">
        <ele>663.3122559</ele>
        <time>2009-07-25T06:14:26Z</time>
      </trkpt>
      <trkpt lat="45.55009" lon="6.64849">
        <ele>665.2247314</ele>
        <time>2009-07-25T06:14:31Z</time>
      </trkpt>
      <trkpt lat="45.55003" lon="6.64826">
        <ele>668.1359253</ele>
        <time>2009-07-25T06:14:38Z</time>
      </trkpt>
      <trkpt lat="45.54998" lon="6.64806">
        <ele>671.0076904</ele>
        <time>2009-07-25T06:14:44Z</time>
      </trkpt>
      <trkpt lat="45.54995" lon="6.64789">
        <ele>672.6164551</ele>
        <time>2009-07-25T06:14:49Z</time>
      </trkpt>
      <trkpt lat="45.54991" lon="6.64764">
        <ele>675.4694824</ele>
        <time>2009-07-25T06:14:56Z</time>
      </trkpt>
      <trkpt lat="45.54989" lon="6.64749">
        <ele>676.7710571</ele>
        <time>2009-07-25T06:15:01Z</time>
      </trkpt>
      <trkpt lat="45.54988" lon="6.64734">
        <ele>676.2111206</ele>
        <time>2009-07-25T06:15:06Z</time>
      </trkpt>
      <trkpt lat="45.54984" lon="6.64718">
        <ele>677.145874</ele>
        <time>2009-07-25T06:15:11Z</time>
      </trkpt>
      <trkpt lat="45.54982" lon="6.647">
        <ele>676.3744507</ele>
        <time>2009-07-25T06:15:16Z</time>
      </trkpt>
      <trkpt lat="45.54979" lon="6.64681">
        <ele>675.8118896</ele>
        <time>2009-07-25T06:15:22Z</time>
      </trkpt>
      <trkpt lat="45.54977" lon="6.64658">
        <ele>674.8939819</ele>
        <time>2009-07-25T06:15:28Z</time>
      </trkpt>
      <trkpt lat="45.54974" lon="6.64637">
        <ele>675.0252075</ele>
        <time>2009-07-25T06:15:34Z</time>
      </trkpt>
      <trkpt lat="45.54975" lon="6.64619">
        <ele>672.604126</ele>
        <time>2009-07-25T06:15:39Z</time>
      </trkpt>
      <trkpt lat="45.54977" lon="6.646">
        <ele>670.1675415</ele>
        <time>2009-07-25T06:15:45Z</time>
      </trkpt>
      <trkpt lat="45.54976" lon="6.64584">
        <ele>669.8344116</ele>
        <time>2009-07-25T06:15:50Z</time>
      </trkpt>
      <trkpt lat="45.54974" lon="6.64567">
        <ele>671.4334717</ele>
        <time>2009-07-25T06:15:55Z</time>
      </trkpt>
      <trkpt lat="45.54972" lon="6.64547">
        <ele>673.5903931</ele>
        <time>2009-07-25T06:16:01Z</time>
      </trkpt>
      <trkpt lat="45.54969" lon="6.64526">
        <ele>675.4761353</ele>
        <time>2009-07-25T06:16:07Z</time>
      </trkpt>
      <trkpt lat="45.54969" lon="6.64505">
        <ele>676.1404419</ele>
        <time>2009-07-25T06:16:13Z</time>
      </trkpt>
      <trkpt lat="45.54967" lon="6.64488">
        <ele>676.5012207</ele>
        <time>2009-07-25T06:16:18Z</time>
      </trkpt>
      <trkpt lat="45.54966" lon="6.64472">
        <ele>676.2058105</ele>
        <time>2009-07-25T06:16:23Z</time>
      </trkpt>
      <trkpt lat="45.54968" lon="6.6445">
        <ele>673.9328613</ele>
        <time>2009-07-25T06:16:29Z</time>
      </trkpt>
      <trkpt lat="45.54974" lon="6.6443">
        <ele>670.5234985</ele>
        <time>2009-07-25T06:16:35Z</time>
      </trkpt>
      <trkpt lat="45.54975" lon="6.64415">
        <ele>669.8657837</ele>
        <time>2009-07-25T06:16:40Z</time>
      </trkpt>
      <trkpt lat="45.5497" lon="6.64393">
        <ele>670.6566772</ele>
        <time>2009-07-25T06:16:46Z</time>
      </trkpt>
      <trkpt lat="45.54968" lon="6.64373">
        <ele>670.3619995</ele>
        <time>2009-07-25T06:16:51Z</time>
      </trkpt>
      <trkpt lat="45.54968" lon="6.64357">
        <ele>669.5391235</ele>
        <time>2009-07-25T06:16:56Z</time>
      </trkpt>
      <trkpt lat="45.54967" lon="6.64344">
        <ele>669.7225342</ele>
        <time>2009-07-25T06:17:00Z</time>
      </trkpt>
      <trkpt lat="45.54963" lon="6.64316">
        <ele>670.921875</ele>
        <time>2009-07-25T06:17:07Z</time>
      </trkpt>
      <trkpt lat="45.54961" lon="6.64305">
        <ele>671.3571167</ele>
        <time>2009-07-25T06:17:11Z</time>
      </trkpt>
      <trkpt lat="45.54959" lon="6.64285">
        <ele>672.2615967</ele>
        <time>2009-07-25T06:17:16Z</time>
      </trkpt>
      <trkpt lat="45.54958" lon="6.64266">
        <ele>671.8770752</ele>
        <time>2009-07-25T06:17:21Z</time>
      </trkpt>
      <trkpt lat="45.5496" lon="6.64247">
        <ele>669.9202881</ele>
        <time>2009-07-25T06:17:27Z</time>
      </trkpt>
      <trkpt lat="45.54964" lon="6.64227">
        <ele>667.7419434</ele>
        <time>2009-07-25T06:17:33Z</time>
      </trkpt>
      <trkpt lat="45.54965" lon="6.64217">
        <ele>666.8839722</ele>
        <time>2009-07-25T06:17:36Z</time>
      </trkpt>
      <trkpt lat="45.54961" lon="6.64188">
        <ele>667.6315308</ele>
        <time>2009-07-25T06:17:44Z</time>
      </trkpt>
      <trkpt lat="45.54957" lon="6.64163">
        <ele>669.0696411</ele>
        <time>2009-07-25T06:17:51Z</time>
      </trkpt>
      <trkpt lat="45.54955" lon="6.64149">
        <ele>670.0119019</ele>
        <time>2009-07-25T06:17:56Z</time>
      </trkpt>
      <trkpt lat="45.54952" lon="6.64128">
        <ele>671.9207153</ele>
        <time>2009-07-25T06:18:02Z</time>
      </trkpt>
      <trkpt lat="45.5495" lon="6.64114">
        <ele>673.2713013</ele>
        <time>2009-07-25T06:18:06Z</time>
      </trkpt>
      <trkpt lat="45.54952" lon="6.64093">
        <ele>674.3685913</ele>
        <time>2009-07-25T06:18:12Z</time>
      </trkpt>
      <trkpt lat="45.54952" lon="6.6409">
        <ele>674.5105591</ele>
        <time>2009-07-25T06:18:13Z</time>
      </trkpt>
      <trkpt lat="45.54956" lon="6.64069">
        <ele>674.5907593</ele>
        <time>2009-07-25T06:18:19Z</time>
      </trkpt>
      <trkpt lat="45.54966" lon="6.64055">
        <ele>672.6486816</ele>
        <time>2009-07-25T06:18:24Z</time>
      </trkpt>
      <trkpt lat="45.54974" lon="6.64042">
        <ele>669.4100952</ele>
        <time>2009-07-25T06:18:29Z</time>
      </trkpt>
      <trkpt lat="45.54979" lon="6.6403">
        <ele>667.2495728</ele>
        <time>2009-07-25T06:18:33Z</time>
      </trkpt>
      <trkpt lat="45.54985" lon="6.64014">
        <ele>666.6694946</ele>
        <time>2009-07-25T06:18:38Z</time>
      </trkpt>
      <trkpt lat="45.54988" lon="6.63998">
        <ele>667.444458</ele>
        <time>2009-07-25T06:18:43Z</time>
      </trkpt>
      <trkpt lat="45.54991" lon="6.63986">
        <ele>668.5032959</ele>
        <time>2009-07-25T06:18:47Z</time>
      </trkpt>
      <trkpt lat="45.5499" lon="6.63972">
        <ele>670.437561</ele>
        <time>2009-07-25T06:18:51Z</time>
      </trkpt>
      <trkpt lat="45.54985" lon="6.63952">
        <ele>673.7409058</ele>
        <time>2009-07-25T06:18:57Z</time>
      </trkpt>
      <trkpt lat="45.54982" lon="6.63931">
        <ele>676.2245483</ele>
        <time>2009-07-25T06:19:03Z</time>
      </trkpt>
      <trkpt lat="45.54979" lon="6.63924">
        <ele>677.477478</ele>
        <time>2009-07-25T06:19:05Z</time>
      </trkpt>
      <trkpt lat="45.54979" lon="6.63903">
        <ele>678.4455566</ele>
        <time>2009-07-25T06:19:11Z</time>
      </trkpt>
      <trkpt lat="45.54979" lon="6.63899">
        <ele>678.5276489</ele>
        <time>2009-07-25T06:19:12Z</time>
      </trkpt>
      <trkpt lat="45.54977" lon="6.63888">
        <ele>679.3522339</ele>
        <time>2009-07-25T06:19:15Z</time>
      </trkpt>
      <trkpt lat="45.54974" lon="6.63866">
        <ele>679.6046753</ele>
        <time>2009-07-25T06:19:21Z</time>
      </trkpt>
      <trkpt lat="45.54974" lon="6.6385">
        <ele>678.9700928</ele>
        <time>2009-07-25T06:19:26Z</time>
      </trkpt>
      <trkpt lat="45.54972" lon="6.63835">
        <ele>680.0159912</ele>
        <time>2009-07-25T06:19:31Z</time>
      </trkpt>
      <trkpt lat="45.54972" lon="6.63828">
        <ele>678.7521973</ele>
        <time>2009-07-25T06:19:34Z</time>
      </trkpt>
      <trkpt lat="45.54966" lon="6.63802">
        <ele>676.1537476</ele>
        <time>2009-07-25T06:19:41Z</time>
      </trkpt>
      <trkpt lat="45.54958" lon="6.63785">
        <ele>676.4212036</ele>
        <time>2009-07-25T06:19:47Z</time>
      </trkpt>
      <trkpt lat="45.54949" lon="6.6377">
        <ele>677.3161621</ele>
        <time>2009-07-25T06:19:52Z</time>
      </trkpt>
      <trkpt lat="45.54942" lon="6.63755">
        <ele>676.8079224</ele>
        <time>2009-07-25T06:19:57Z</time>
      </trkpt>
      <trkpt lat="45.54935" lon="6.63738">
        <ele>675.5076294</ele>
        <time>2009-07-25T06:20:02Z</time>
      </trkpt>
      <trkpt lat="45.54927" lon="6.63722">
        <ele>675.5861816</ele>
        <time>2009-07-25T06:20:08Z</time>
      </trkpt>
      <trkpt lat="45.54921" lon="6.63707">
        <ele>673.7095337</ele>
        <time>2009-07-25T06:20:13Z</time>
      </trkpt>
      <trkpt lat="45.54915" lon="6.63698">
        <ele>673.9960327</ele>
        <time>2009-07-25T06:20:17Z</time>
      </trkpt>
      <trkpt lat="45.5491" lon="6.63688">
        <ele>673.097229</ele>
        <time>2009-07-25T06:20:21Z</time>
      </trkpt>
      <trkpt lat="45.54899" lon="6.6368">
        <ele>676.0804443</ele>
        <time>2009-07-25T06:20:26Z</time>
      </trkpt>
      <trkpt lat="45.54892" lon="6.6367">
        <ele>677.4056396</ele>
        <time>2009-07-25T06:20:30Z</time>
      </trkpt>
      <trkpt lat="45.54884" lon="6.63657">
        <ele>676.196167</ele>
        <time>2009-07-25T06:20:35Z</time>
      </trkpt>
      <trkpt lat="45.54875" lon="6.63642">
        <ele>674.4990234</ele>
        <time>2009-07-25T06:20:40Z</time>
      </trkpt>
      <trkpt lat="45.54868" lon="6.63627">
        <ele>674.6706543</ele>
        <time>2009-07-25T06:20:45Z</time>
      </trkpt>
      <trkpt lat="45.54863" lon="6.63615">
        <ele>674.1522217</ele>
        <time>2009-07-25T06:20:49Z</time>
      </trkpt>
      <trkpt lat="45.54856" lon="6.63599">
        <ele>671.180542</ele>
        <time>2009-07-25T06:20:55Z</time>
      </trkpt>
      <trkpt lat="45.54851" lon="6.6359">
        <ele>670.8479004</ele>
        <time>2009-07-25T06:20:59Z</time>
      </trkpt>
      <trkpt lat="45.54847" lon="6.6358">
        <ele>669.4584961</ele>
        <time>2009-07-25T06:21:03Z</time>
      </trkpt>
      <trkpt lat="45.54837" lon="6.63556">
        <ele>667.3279419</ele>
        <time>2009-07-25T06:21:11Z</time>
      </trkpt>
      <trkpt lat="45.54837" lon="6.63553">
        <ele>667.3311768</ele>
        <time>2009-07-25T06:21:12Z</time>
      </trkpt>
      <trkpt lat="45.54836" lon="6.63531">
        <ele>665.5981445</ele>
        <time>2009-07-25T06:21:19Z</time>
      </trkpt>
      <trkpt lat="45.54839" lon="6.63516">
        <ele>663.4834595</ele>
        <time>2009-07-25T06:21:24Z</time>
      </trkpt>
      <trkpt lat="45.54846" lon="6.63498">
        <ele>660.7679443</ele>
        <time>2009-07-25T06:21:30Z</time>
      </trkpt>
      <trkpt lat="45.5485" lon="6.63479">
        <ele>659.2833862</ele>
        <time>2009-07-25T06:21:35Z</time>
      </trkpt>
      <trkpt lat="45.54848" lon="6.63465">
        <ele>658.4750366</ele>
        <time>2009-07-25T06:21:40Z</time>
      </trkpt>
      <trkpt lat="45.54838" lon="6.6345">
        <ele>658.6732788</ele>
        <time>2009-07-25T06:21:46Z</time>
      </trkpt>
      <trkpt lat="45.54837" lon="6.63447">
        <ele>658.5372925</ele>
        <time>2009-07-25T06:21:47Z</time>
      </trkpt>
      <trkpt lat="45.54827" lon="6.63432">
        <ele>658.5366821</ele>
        <time>2009-07-25T06:21:53Z</time>
      </trkpt>
      <trkpt lat="45.5482" lon="6.63422">
        <ele>658.8956299</ele>
        <time>2009-07-25T06:21:57Z</time>
      </trkpt>
      <trkpt lat="45.54808" lon="6.63411">
        <ele>661.026062</ele>
        <time>2009-07-25T06:22:03Z</time>
      </trkpt>
      <trkpt lat="45.54804" lon="6.63407">
        <ele>661.6925659</ele>
        <time>2009-07-25T06:22:05Z</time>
      </trkpt>
      <trkpt lat="45.54796" lon="6.63394">
        <ele>662.8741455</ele>
        <time>2009-07-25T06:22:11Z</time>
      </trkpt>
      <trkpt lat="45.54788" lon="6.63382">
        <ele>662.6390381</ele>
        <time>2009-07-25T06:22:16Z</time>
      </trkpt>
      <trkpt lat="45.54782" lon="6.63374">
        <ele>662.5491943</ele>
        <time>2009-07-25T06:22:20Z</time>
      </trkpt>
      <trkpt lat="45.5477" lon="6.63359">
        <ele>663.7670898</ele>
        <time>2009-07-25T06:22:26Z</time>
      </trkpt>
      <trkpt lat="45.54757" lon="6.63347">
        <ele>665.3760376</ele>
        <time>2009-07-25T06:22:32Z</time>
      </trkpt>
      <trkpt lat="45.54748" lon="6.63336">
        <ele>665.9740601</ele>
        <time>2009-07-25T06:22:37Z</time>
      </trkpt>
      <trkpt lat="45.54738" lon="6.63322">
        <ele>667.3613281</ele>
        <time>2009-07-25T06:22:43Z</time>
      </trkpt>
      <trkpt lat="45.54726" lon="6.63307">
        <ele>669.3560181</ele>
        <time>2009-07-25T06:22:49Z</time>
      </trkpt>
      <trkpt lat="45.5472" lon="6.633">
        <ele>669.6758423</ele>
        <time>2009-07-25T06:22:54Z</time>
      </trkpt>
      <trkpt lat="45.54715" lon="6.63293">
        <ele>668.5623169</ele>
        <time>2009-07-25T06:22:58Z</time>
      </trkpt>
      <trkpt lat="45.54715" lon="6.63292">
        <ele>668.369751</ele>
        <time>2009-07-25T06:22:59Z</time>
      </trkpt>
      <trkpt lat="45.5471" lon="6.63289">
        <ele>669.2562256</ele>
        <time>2009-07-25T06:23:02Z</time>
      </trkpt>
      <trkpt lat="45.547" lon="6.63277">
        <ele>669.5967407</ele>
        <time>2009-07-25T06:23:09Z</time>
      </trkpt>
      <trkpt lat="45.54697" lon="6.63271">
        <ele>669.2524414</ele>
        <time>2009-07-25T06:23:12Z</time>
      </trkpt>
      <trkpt lat="45.54689" lon="6.63264">
        <ele>671.7041626</ele>
        <time>2009-07-25T06:23:20Z</time>
      </trkpt>
      <trkpt lat="45.54684" lon="6.63263">
        <ele>674.6184692</ele>
        <time>2009-07-25T06:23:24Z</time>
      </trkpt>
      <trkpt lat="45.54679" lon="6.63263">
        <ele>677.6389771</ele>
        <time>2009-07-25T06:23:28Z</time>
      </trkpt>
      <trkpt lat="45.54677" lon="6.63263">
        <ele>679.0101929</ele>
        <time>2009-07-25T06:23:30Z</time>
      </trkpt>
      <trkpt lat="45.54673" lon="6.63263">
        <ele>682.0611572</ele>
        <time>2009-07-25T06:23:34Z</time>
      </trkpt>
      <trkpt lat="45.54667" lon="6.63263">
        <ele>686.2641602</ele>
        <time>2009-07-25T06:23:40Z</time>
      </trkpt>
      <trkpt lat="45.54663" lon="6.63261">
        <ele>687.2766113</ele>
        <time>2009-07-25T06:23:46Z</time>
      </trkpt>
      <trkpt lat="45.54655" lon="6.6325">
        <ele>686.0609741</ele>
        <time>2009-07-25T06:23:53Z</time>
      </trkpt>
      <trkpt lat="45.54651" lon="6.6324">
        <ele>686.5158081</ele>
        <time>2009-07-25T06:23:59Z</time>
      </trkpt>
      <trkpt lat="45.5465" lon="6.63238">
        <ele>686.7749634</ele>
        <time>2009-07-25T06:24:00Z</time>
      </trkpt>
      <trkpt lat="45.54642" lon="6.6322">
        <ele>687.7120361</ele>
        <time>2009-07-25T06:24:08Z</time>
      </trkpt>
      <trkpt lat="45.54639" lon="6.63217">
        <ele>689.1176147</ele>
        <time>2009-07-25T06:24:11Z</time>
      </trkpt>
      <trkpt lat="45.54633" lon="6.63202">
        <ele>695.9268799</ele>
        <time>2009-07-25T06:24:18Z</time>
      </trkpt>
      <trkpt lat="45.54628" lon="6.63193">
        <ele>701.7294922</ele>
        <time>2009-07-25T06:24:21Z</time>
      </trkpt>
      <trkpt lat="45.54626" lon="6.63187">
        <ele>704.1906738</ele>
        <time>2009-07-25T06:24:25Z</time>
      </trkpt>
      <trkpt lat="45.54622" lon="6.63181">
        <ele>708.9876099</ele>
        <time>2009-07-25T06:24:30Z</time>
      </trkpt>
      <trkpt lat="45.54616" lon="6.63175">
        <ele>714.3348389</ele>
        <time>2009-07-25T06:24:36Z</time>
      </trkpt>
      <trkpt lat="45.54612" lon="6.63166">
        <ele>717.6407471</ele>
        <time>2009-07-25T06:24:42Z</time>
      </trkpt>
      <trkpt lat="45.5461" lon="6.63155">
        <ele>718.5214844</ele>
        <time>2009-07-25T06:24:49Z</time>
      </trkpt>
      <trkpt lat="45.54609" lon="6.63146">
        <ele>718.9716797</ele>
        <time>2009-07-25T06:24:54Z</time>
      </trkpt>
      <trkpt lat="45.54607" lon="6.63136">
        <ele>720.8577271</ele>
        <time>2009-07-25T06:24:59Z</time>
      </trkpt>
      <trkpt lat="45.54607" lon="6.63134">
        <ele>720.284729</ele>
        <time>2009-07-25T06:25:00Z</time>
      </trkpt>
      <trkpt lat="45.54607" lon="6.63119">
        <ele>720.4207153</ele>
        <time>2009-07-25T06:25:07Z</time>
      </trkpt>
      <trkpt lat="45.54603" lon="6.63111">
        <ele>723.8535156</ele>
        <time>2009-07-25T06:25:10Z</time>
      </trkpt>
      <trkpt lat="45.54602" lon="6.63101">
        <ele>725.0511475</ele>
        <time>2009-07-25T06:25:15Z</time>
      </trkpt>
      <trkpt lat="45.54602" lon="6.63098">
        <ele>725.5712891</ele>
        <time>2009-07-25T06:25:16Z</time>
      </trkpt>
      <trkpt lat="45.54601" lon="6.63084">
        <ele>727.3513794</ele>
        <time>2009-07-25T06:25:21Z</time>
      </trkpt>
      <trkpt lat="45.54599" lon="6.63066">
        <ele>731.5977173</ele>
        <time>2009-07-25T06:25:29Z</time>
      </trkpt>
      <trkpt lat="45.54599" lon="6.63063">
        <ele>731.4320679</ele>
        <time>2009-07-25T06:25:30Z</time>
      </trkpt>
      <trkpt lat="45.54599" lon="6.63058">
        <ele>732.0377197</ele>
        <time>2009-07-25T06:25:33Z</time>
      </trkpt>
      <trkpt lat="45.54595" lon="6.63043">
        <ele>736.3661499</ele>
        <time>2009-07-25T06:25:41Z</time>
      </trkpt>
      <trkpt lat="45.54594" lon="6.63037">
        <ele>737.3192749</ele>
        <time>2009-07-25T06:25:45Z</time>
      </trkpt>
      <trkpt lat="45.54593" lon="6.63033">
        <ele>738.8551636</ele>
        <time>2009-07-25T06:25:47Z</time>
      </trkpt>
      <trkpt lat="45.54588" lon="6.63014">
        <ele>742.1950684</ele>
        <time>2009-07-25T06:25:54Z</time>
      </trkpt>
      <trkpt lat="45.54584" lon="6.63002">
        <ele>746.6912231</ele>
        <time>2009-07-25T06:26:01Z</time>
      </trkpt>
      <trkpt lat="45.54583" lon="6.63">
        <ele>747.8980103</ele>
        <time>2009-07-25T06:26:02Z</time>
      </trkpt>
      <trkpt lat="45.54582" lon="6.62996">
        <ele>747.9095459</ele>
        <time>2009-07-25T06:26:05Z</time>
      </trkpt>
      <trkpt lat="45.5458" lon="6.62985">
        <ele>748.2493896</ele>
        <time>2009-07-25T06:26:11Z</time>
      </trkpt>
      <trkpt lat="45.54578" lon="6.6298">
        <ele>748.9395142</ele>
        <time>2009-07-25T06:26:14Z</time>
      </trkpt>
      <trkpt lat="45.54577" lon="6.62974">
        <ele>749.0939941</ele>
        <time>2009-07-25T06:26:17Z</time>
      </trkpt>
      <trkpt lat="45.54577" lon="6.62969">
        <ele>747.7317505</ele>
        <time>2009-07-25T06:26:20Z</time>
      </trkpt>
      <trkpt lat="45.54573" lon="6.62956">
        <ele>750.9108887</ele>
        <time>2009-07-25T06:26:26Z</time>
      </trkpt>
      <trkpt lat="45.54572" lon="6.62952">
        <ele>752.1125488</ele>
        <time>2009-07-25T06:26:28Z</time>
      </trkpt>
      <trkpt lat="45.54568" lon="6.62941">
        <ele>754.1387939</ele>
        <time>2009-07-25T06:26:34Z</time>
      </trkpt>
      <trkpt lat="45.54565" lon="6.62928">
        <ele>754.4564819</ele>
        <time>2009-07-25T06:26:40Z</time>
      </trkpt>
      <trkpt lat="45.54562" lon="6.62915">
        <ele>754.7559204</ele>
        <time>2009-07-25T06:26:46Z</time>
      </trkpt>
      <trkpt lat="45.54558" lon="6.62902">
        <ele>756.3619385</ele>
        <time>2009-07-25T06:26:51Z</time>
      </trkpt>
      <trkpt lat="45.54557" lon="6.62898">
        <ele>756.7272339</ele>
        <time>2009-07-25T06:26:53Z</time>
      </trkpt>
      <trkpt lat="45.54552" lon="6.62884">
        <ele>759.7169189</ele>
        <time>2009-07-25T06:26:59Z</time>
      </trkpt>
      <trkpt lat="45.54552" lon="6.62881">
        <ele>759.7615356</ele>
        <time>2009-07-25T06:27:00Z</time>
      </trkpt>
      <trkpt lat="45.54551" lon="6.62877">
        <ele>759.9366455</ele>
        <time>2009-07-25T06:27:02Z</time>
      </trkpt>
      <trkpt lat="45.54546" lon="6.62864">
        <ele>764.8015137</ele>
        <time>2009-07-25T06:27:09Z</time>
      </trkpt>
      <trkpt lat="45.5454" lon="6.62852">
        <ele>769.4318848</ele>
        <time>2009-07-25T06:27:16Z</time>
      </trkpt>
      <trkpt lat="45.54535" lon="6.62841">
        <ele>773.4786377</ele>
        <time>2009-07-25T06:27:21Z</time>
      </trkpt>
      <trkpt lat="45.54534" lon="6.62831">
        <ele>771.2967529</ele>
        <time>2009-07-25T06:27:26Z</time>
      </trkpt>
      <trkpt lat="45.54533" lon="6.62815">
        <ele>767.545166</ele>
        <time>2009-07-25T06:27:33Z</time>
      </trkpt>
      <trkpt lat="45.5453" lon="6.62803">
        <ele>767.7727051</ele>
        <time>2009-07-25T06:27:39Z</time>
      </trkpt>
      <trkpt lat="45.54526" lon="6.62792">
        <ele>770.5856323</ele>
        <time>2009-07-25T06:27:45Z</time>
      </trkpt>
      <trkpt lat="45.54521" lon="6.62785">
        <ele>773.3603516</ele>
        <time>2009-07-25T06:27:50Z</time>
      </trkpt>
      <trkpt lat="45.5452" lon="6.6278">
        <ele>773.2537231</ele>
        <time>2009-07-25T06:27:54Z</time>
      </trkpt>
      <trkpt lat="45.54515" lon="6.6277">
        <ele>775.767334</ele>
        <time>2009-07-25T06:28:00Z</time>
      </trkpt>
      <trkpt lat="45.54513" lon="6.62762">
        <ele>775.7137451</ele>
        <time>2009-07-25T06:28:05Z</time>
      </trkpt>
      <trkpt lat="45.54509" lon="6.62751">
        <ele>777.8483887</ele>
        <time>2009-07-25T06:28:11Z</time>
      </trkpt>
      <trkpt lat="45.54507" lon="6.62744">
        <ele>777.1636963</ele>
        <time>2009-07-25T06:28:15Z</time>
      </trkpt>
      <trkpt lat="45.54505" lon="6.62733">
        <ele>775.6691895</ele>
        <time>2009-07-25T06:28:21Z</time>
      </trkpt>
      <trkpt lat="45.54504" lon="6.62731">
        <ele>776.0529175</ele>
        <time>2009-07-25T06:28:22Z</time>
      </trkpt>
      <trkpt lat="45.54502" lon="6.62722">
        <ele>775.050293</ele>
        <time>2009-07-25T06:28:27Z</time>
      </trkpt>
      <trkpt lat="45.54499" lon="6.62709">
        <ele>774.5410156</ele>
        <time>2009-07-25T06:28:33Z</time>
      </trkpt>
      <trkpt lat="45.54494" lon="6.627">
        <ele>777.1678467</ele>
        <time>2009-07-25T06:28:37Z</time>
      </trkpt>
      <trkpt lat="45.54494" lon="6.62694">
        <ele>775.529541</ele>
        <time>2009-07-25T06:28:40Z</time>
      </trkpt>
      <trkpt lat="45.54492" lon="6.62688">
        <ele>776.4455566</ele>
        <time>2009-07-25T06:28:44Z</time>
      </trkpt>
      <trkpt lat="45.54486" lon="6.62674">
        <ele>778.9001465</ele>
        <time>2009-07-25T06:28:51Z</time>
      </trkpt>
      <trkpt lat="45.54484" lon="6.62662">
        <ele>779.213562</ele>
        <time>2009-07-25T06:28:57Z</time>
      </trkpt>
      <trkpt lat="45.54482" lon="6.62652">
        <ele>780.1472168</ele>
        <time>2009-07-25T06:29:03Z</time>
      </trkpt>
      <trkpt lat="45.54473" lon="6.62637">
        <ele>787.2105103</ele>
        <time>2009-07-25T06:29:09Z</time>
      </trkpt>
      <trkpt lat="45.54465" lon="6.62623">
        <ele>789.9647217</ele>
        <time>2009-07-25T06:29:16Z</time>
      </trkpt>
      <trkpt lat="45.54462" lon="6.62618">
        <ele>791.2650757</ele>
        <time>2009-07-25T06:29:19Z</time>
      </trkpt>
      <trkpt lat="45.54459" lon="6.62598">
        <ele>789.9006348</ele>
        <time>2009-07-25T06:29:28Z</time>
      </trkpt>
      <trkpt lat="45.54459" lon="6.62592">
        <ele>789.6123047</ele>
        <time>2009-07-25T06:29:32Z</time>
      </trkpt>
      <trkpt lat="45.54455" lon="6.62581">
        <ele>790.1556396</ele>
        <time>2009-07-25T06:29:39Z</time>
      </trkpt>
      <trkpt lat="45.54451" lon="6.62572">
        <ele>790.3853149</ele>
        <time>2009-07-25T06:29:45Z</time>
      </trkpt>
      <trkpt lat="45.54448" lon="6.62568">
        <ele>791.5151367</ele>
        <time>2009-07-25T06:29:48Z</time>
      </trkpt>
      <trkpt lat="45.54443" lon="6.62559">
        <ele>793.2905273</ele>
        <time>2009-07-25T06:29:54Z</time>
      </trkpt>
      <trkpt lat="45.54437" lon="6.62549">
        <ele>794.5943604</ele>
        <time>2009-07-25T06:30:01Z</time>
      </trkpt>
      <trkpt lat="45.54432" lon="6.62543">
        <ele>795.8277588</ele>
        <time>2009-07-25T06:30:06Z</time>
      </trkpt>
      <trkpt lat="45.54429" lon="6.62532">
        <ele>795.2583008</ele>
        <time>2009-07-25T06:30:13Z</time>
      </trkpt>
      <trkpt lat="45.54425" lon="6.62521">
        <ele>794.7150269</ele>
        <time>2009-07-25T06:30:19Z</time>
      </trkpt>
      <trkpt lat="45.54422" lon="6.62514">
        <ele>794.9373169</ele>
        <time>2009-07-25T06:30:23Z</time>
      </trkpt>
      <trkpt lat="45.54417" lon="6.62497">
        <ele>796.3894043</ele>
        <time>2009-07-25T06:30:32Z</time>
      </trkpt>
      <trkpt lat="45.54412" lon="6.62487">
        <ele>797.8399048</ele>
        <time>2009-07-25T06:30:39Z</time>
      </trkpt>
      <trkpt lat="45.54408" lon="6.62474">
        <ele>797.9581909</ele>
        <time>2009-07-25T06:30:45Z</time>
      </trkpt>
      <trkpt lat="45.54403" lon="6.62463">
        <ele>800.0889282</ele>
        <time>2009-07-25T06:30:52Z</time>
      </trkpt>
      <trkpt lat="45.544" lon="6.62451">
        <ele>800.590332</ele>
        <time>2009-07-25T06:31:00Z</time>
      </trkpt>
      <trkpt lat="45.54397" lon="6.62441">
        <ele>801.5878906</ele>
        <time>2009-07-25T06:31:06Z</time>
      </trkpt>
      <trkpt lat="45.54396" lon="6.62437">
        <ele>801.7788696</ele>
        <time>2009-07-25T06:31:08Z</time>
      </trkpt>
      <trkpt lat="45.54393" lon="6.62421">
        <ele>800.4622803</ele>
        <time>2009-07-25T06:31:17Z</time>
      </trkpt>
      <trkpt lat="45.54389" lon="6.62409">
        <ele>801.2348022</ele>
        <time>2009-07-25T06:31:24Z</time>
      </trkpt>
      <trkpt lat="45.54385" lon="6.62402">
        <ele>802.088562</ele>
        <time>2009-07-25T06:31:29Z</time>
      </trkpt>
      <trkpt lat="45.54383" lon="6.62395">
        <ele>801.4074707</ele>
        <time>2009-07-25T06:31:33Z</time>
      </trkpt>
      <trkpt lat="45.5438" lon="6.62382">
        <ele>799.7227783</ele>
        <time>2009-07-25T06:31:40Z</time>
      </trkpt>
      <trkpt lat="45.54377" lon="6.6237">
        <ele>799.4867554</ele>
        <time>2009-07-25T06:31:47Z</time>
      </trkpt>
      <trkpt lat="45.54374" lon="6.62358">
        <ele>798.9420166</ele>
        <time>2009-07-25T06:31:54Z</time>
      </trkpt>
      <trkpt lat="45.54372" lon="6.62352">
        <ele>797.9222412</ele>
        <time>2009-07-25T06:31:57Z</time>
      </trkpt>
      <trkpt lat="45.54367" lon="6.62342">
        <ele>796.9346313</ele>
        <time>2009-07-25T06:32:02Z</time>
      </trkpt>
      <trkpt lat="45.54363" lon="6.62328">
        <ele>794.4196777</ele>
        <time>2009-07-25T06:32:09Z</time>
      </trkpt>
      <trkpt lat="45.54361" lon="6.62315">
        <ele>793.1478271</ele>
        <time>2009-07-25T06:32:15Z</time>
      </trkpt>
      <trkpt lat="45.54353" lon="6.62304">
        <ele>799.2054443</ele>
        <time>2009-07-25T06:32:22Z</time>
      </trkpt>
      <trkpt lat="45.54348" lon="6.62293">
        <ele>799.5680542</ele>
        <time>2009-07-25T06:32:28Z</time>
      </trkpt>
      <trkpt lat="45.54344" lon="6.62275">
        <ele>795.2075195</ele>
        <time>2009-07-25T06:32:37Z</time>
      </trkpt>
      <trkpt lat="45.54342" lon="6.62262">
        <ele>792.2905273</ele>
        <time>2009-07-25T06:32:43Z</time>
      </trkpt>
      <trkpt lat="45.54337" lon="6.62249">
        <ele>793.4647217</ele>
        <time>2009-07-25T06:32:50Z</time>
      </trkpt>
      <trkpt lat="45.54334" lon="6.6224">
        <ele>794.1027222</ele>
        <time>2009-07-25T06:32:55Z</time>
      </trkpt>
      <trkpt lat="45.5433" lon="6.62229">
        <ele>795.8346558</ele>
        <time>2009-07-25T06:33:01Z</time>
      </trkpt>
      <trkpt lat="45.54325" lon="6.62216">
        <ele>796.7294312</ele>
        <time>2009-07-25T06:33:08Z</time>
      </trkpt>
      <trkpt lat="45.54323" lon="6.62213">
        <ele>797.1913452</ele>
        <time>2009-07-25T06:33:10Z</time>
      </trkpt>
      <trkpt lat="45.54321" lon="6.62209">
        <ele>797.9954834</ele>
        <time>2009-07-25T06:33:13Z</time>
      </trkpt>
      <trkpt lat="45.54316" lon="6.622">
        <ele>799.0918579</ele>
        <time>2009-07-25T06:33:19Z</time>
      </trkpt>
      <trkpt lat="45.54312" lon="6.62194">
        <ele>799.7409058</ele>
        <time>2009-07-25T06:33:23Z</time>
      </trkpt>
      <trkpt lat="45.54308" lon="6.62188">
        <ele>801.3846436</ele>
        <time>2009-07-25T06:33:26Z</time>
      </trkpt>
      <trkpt lat="45.54305" lon="6.62183">
        <ele>801.7978516</ele>
        <time>2009-07-25T06:33:29Z</time>
      </trkpt>
      <trkpt lat="45.54303" lon="6.62174">
        <ele>800.4846191</ele>
        <time>2009-07-25T06:33:34Z</time>
      </trkpt>
      <trkpt lat="45.54299" lon="6.62167">
        <ele>801.2983398</ele>
        <time>2009-07-25T06:33:38Z</time>
      </trkpt>
      <trkpt lat="45.54293" lon="6.62159">
        <ele>803.1000977</ele>
        <time>2009-07-25T06:33:43Z</time>
      </trkpt>
      <trkpt lat="45.5429" lon="6.62147">
        <ele>802.8724976</ele>
        <time>2009-07-25T06:33:50Z</time>
      </trkpt>
      <trkpt lat="45.54285" lon="6.62136">
        <ele>803.2897949</ele>
        <time>2009-07-25T06:33:56Z</time>
      </trkpt>
      <trkpt lat="45.54281" lon="6.62129">
        <ele>805.3278198</ele>
        <time>2009-07-25T06:34:01Z</time>
      </trkpt>
      <trkpt lat="45.54275" lon="6.62116">
        <ele>807.6228027</ele>
        <time>2009-07-25T06:34:09Z</time>
      </trkpt>
      <trkpt lat="45.54268" lon="6.62106">
        <ele>809.6071777</ele>
        <time>2009-07-25T06:34:16Z</time>
      </trkpt>
      <trkpt lat="45.54264" lon="6.62099">
        <ele>810.7976685</ele>
        <time>2009-07-25T06:34:20Z</time>
      </trkpt>
      <trkpt lat="45.54255" lon="6.62085">
        <ele>812.1818237</ele>
        <time>2009-07-25T06:34:29Z</time>
      </trkpt>
      <trkpt lat="45.5425" lon="6.62076">
        <ele>812.2752686</ele>
        <time>2009-07-25T06:34:35Z</time>
      </trkpt>
      <trkpt lat="45.54247" lon="6.62065">
        <ele>811.3791504</ele>
        <time>2009-07-25T06:34:41Z</time>
      </trkpt>
      <trkpt lat="45.54245" lon="6.62054">
        <ele>809.8136597</ele>
        <time>2009-07-25T06:34:47Z</time>
      </trkpt>
      <trkpt lat="45.54239" lon="6.62038">
        <ele>809.4626465</ele>
        <time>2009-07-25T06:34:55Z</time>
      </trkpt>
      <trkpt lat="45.54238" lon="6.62035">
        <ele>809.2972412</ele>
        <time>2009-07-25T06:34:57Z</time>
      </trkpt>
      <trkpt lat="45.54231" lon="6.62019">
        <ele>809.2536011</ele>
        <time>2009-07-25T06:35:05Z</time>
      </trkpt>
      <trkpt lat="45.54225" lon="6.62009">
        <ele>810.3174438</ele>
        <time>2009-07-25T06:35:11Z</time>
      </trkpt>
      <trkpt lat="45.54219" lon="6.61996">
        <ele>810.5057373</ele>
        <time>2009-07-25T06:35:18Z</time>
      </trkpt>
      <trkpt lat="45.54215" lon="6.61986">
        <ele>809.7434082</ele>
        <time>2009-07-25T06:35:24Z</time>
      </trkpt>
      <trkpt lat="45.54211" lon="6.61977">
        <ele>809.4880371</ele>
        <time>2009-07-25T06:35:30Z</time>
      </trkpt>
      <trkpt lat="45.54206" lon="6.61967">
        <ele>809.2090454</ele>
        <time>2009-07-25T06:35:37Z</time>
      </trkpt>
      <trkpt lat="45.54203" lon="6.61958">
        <ele>808.1363525</ele>
        <time>2009-07-25T06:35:42Z</time>
      </trkpt>
      <trkpt lat="45.54198" lon="6.61949">
        <ele>807.7806396</ele>
        <time>2009-07-25T06:35:48Z</time>
      </trkpt>
      <trkpt lat="45.54193" lon="6.61938">
        <ele>806.184021</ele>
        <time>2009-07-25T06:35:55Z</time>
      </trkpt>
      <trkpt lat="45.54187" lon="6.61926">
        <ele>805.6951904</ele>
        <time>2009-07-25T06:36:02Z</time>
      </trkpt>
      <trkpt lat="45.54181" lon="6.61913">
        <ele>804.965271</ele>
        <time>2009-07-25T06:36:10Z</time>
      </trkpt>
      <trkpt lat="45.54176" lon="6.61901">
        <ele>803.7598877</ele>
        <time>2009-07-25T06:36:17Z</time>
      </trkpt>
      <trkpt lat="45.54168" lon="6.61887">
        <ele>803.4806519</ele>
        <time>2009-07-25T06:36:26Z</time>
      </trkpt>
      <trkpt lat="45.5416" lon="6.61874">
        <ele>804.6430664</ele>
        <time>2009-07-25T06:36:35Z</time>
      </trkpt>
      <trkpt lat="45.54152" lon="6.61862">
        <ele>805.6608887</ele>
        <time>2009-07-25T06:36:44Z</time>
      </trkpt>
      <trkpt lat="45.54148" lon="6.61853">
        <ele>805.6283569</ele>
        <time>2009-07-25T06:36:49Z</time>
      </trkpt>
      <trkpt lat="45.54147" lon="6.6185">
        <ele>805.5111084</ele>
        <time>2009-07-25T06:36:51Z</time>
      </trkpt>
      <trkpt lat="45.54144" lon="6.61838">
        <ele>803.7720947</ele>
        <time>2009-07-25T06:36:58Z</time>
      </trkpt>
      <trkpt lat="45.54143" lon="6.61836">
        <ele>803.3557739</ele>
        <time>2009-07-25T06:36:59Z</time>
      </trkpt>
      <trkpt lat="45.5414" lon="6.61821">
        <ele>801.8759155</ele>
        <time>2009-07-25T06:37:07Z</time>
      </trkpt>
      <trkpt lat="45.54139" lon="6.6182">
        <ele>801.8170166</ele>
        <time>2009-07-25T06:37:08Z</time>
      </trkpt>
      <trkpt lat="45.54136" lon="6.61816">
        <ele>803.5143433</ele>
        <time>2009-07-25T06:37:12Z</time>
      </trkpt>
      <trkpt lat="45.54134" lon="6.61824">
        <ele>805.9750977</ele>
        <time>2009-07-25T06:37:17Z</time>
      </trkpt>
      <trkpt lat="45.54134" lon="6.6184">
        <ele>810.4284058</ele>
        <time>2009-07-25T06:37:25Z</time>
      </trkpt>
      <trkpt lat="45.54134" lon="6.61855">
        <ele>815.7478027</ele>
        <time>2009-07-25T06:37:32Z</time>
      </trkpt>
      <trkpt lat="45.54135" lon="6.61865">
        <ele>818.8560791</ele>
        <time>2009-07-25T06:37:37Z</time>
      </trkpt>
      <trkpt lat="45.54137" lon="6.61876">
        <ele>822.3726807</ele>
        <time>2009-07-25T06:37:43Z</time>
      </trkpt>
      <trkpt lat="45.54141" lon="6.61888">
        <ele>824.0441284</ele>
        <time>2009-07-25T06:37:50Z</time>
      </trkpt>
      <trkpt lat="45.54148" lon="6.61898">
        <ele>822.3622437</ele>
        <time>2009-07-25T06:37:57Z</time>
      </trkpt>
      <trkpt lat="45.54154" lon="6.6191">
        <ele>822.5664673</ele>
        <time>2009-07-25T06:38:04Z</time>
      </trkpt>
      <trkpt lat="45.54155" lon="6.61912">
        <ele>822.7616577</ele>
        <time>2009-07-25T06:38:05Z</time>
      </trkpt>
      <trkpt lat="45.54151" lon="6.61919">
        <ele>827.1619263</ele>
        <time>2009-07-25T06:38:11Z</time>
      </trkpt>
      <trkpt lat="45.54148" lon="6.61916">
        <ele>827.9089966</ele>
        <time>2009-07-25T06:38:14Z</time>
      </trkpt>
      <trkpt lat="45.54143" lon="6.61902">
        <ele>826.9937134</ele>
        <time>2009-07-25T06:38:22Z</time>
      </trkpt>
      <trkpt lat="45.54136" lon="6.61893">
        <ele>829.0117798</ele>
        <time>2009-07-25T06:38:29Z</time>
      </trkpt>
      <trkpt lat="45.54135" lon="6.61891">
        <ele>828.8111572</ele>
        <time>2009-07-25T06:38:30Z</time>
      </trkpt>
      <trkpt lat="45.54128" lon="6.61881">
        <ele>829.0011597</ele>
        <time>2009-07-25T06:38:38Z</time>
      </trkpt>
      <trkpt lat="45.54124" lon="6.61873">
        <ele>828.9588623</ele>
        <time>2009-07-25T06:38:43Z</time>
      </trkpt>
      <trkpt lat="45.54117" lon="6.61864">
        <ele>829.4204712</ele>
        <time>2009-07-25T06:38:49Z</time>
      </trkpt>
      <trkpt lat="45.54112" lon="6.61852">
        <ele>828.4431152</ele>
        <time>2009-07-25T06:38:56Z</time>
      </trkpt>
      <trkpt lat="45.54106" lon="6.61839">
        <ele>828.0753174</ele>
        <time>2009-07-25T06:39:04Z</time>
      </trkpt>
      <trkpt lat="45.54099" lon="6.61825">
        <ele>828.4920044</ele>
        <time>2009-07-25T06:39:12Z</time>
      </trkpt>
      <trkpt lat="45.54091" lon="6.61812">
        <ele>828.5601807</ele>
        <time>2009-07-25T06:39:20Z</time>
      </trkpt>
      <trkpt lat="45.54084" lon="6.61799">
        <ele>828.1546021</ele>
        <time>2009-07-25T06:39:28Z</time>
      </trkpt>
      <trkpt lat="45.5408" lon="6.6179">
        <ele>827.8430176</ele>
        <time>2009-07-25T06:39:34Z</time>
      </trkpt>
      <trkpt lat="45.54074" lon="6.61778">
        <ele>827.6555786</ele>
        <time>2009-07-25T06:39:40Z</time>
      </trkpt>
      <trkpt lat="45.5407" lon="6.61763">
        <ele>827.8138428</ele>
        <time>2009-07-25T06:39:47Z</time>
      </trkpt>
      <trkpt lat="45.54067" lon="6.61754">
        <ele>827.9100342</ele>
        <time>2009-07-25T06:39:51Z</time>
      </trkpt>
      <trkpt lat="45.54064" lon="6.61746">
        <ele>828.4647827</ele>
        <time>2009-07-25T06:39:55Z</time>
      </trkpt>
      <trkpt lat="45.54059" lon="6.6173">
        <ele>829.1696167</ele>
        <time>2009-07-25T06:40:03Z</time>
      </trkpt>
      <trkpt lat="45.54054" lon="6.61708">
        <ele>828.9941406</ele>
        <time>2009-07-25T06:40:14Z</time>
      </trkpt>
      <trkpt lat="45.54047" lon="6.61685">
        <ele>829.1231079</ele>
        <time>2009-07-25T06:40:25Z</time>
      </trkpt>
      <trkpt lat="45.54042" lon="6.61665">
        <ele>829.3410645</ele>
        <time>2009-07-25T06:40:35Z</time>
      </trkpt>
      <trkpt lat="45.54037" lon="6.61648">
        <ele>828.9289551</ele>
        <time>2009-07-25T06:40:44Z</time>
      </trkpt>
      <trkpt lat="45.54031" lon="6.61627">
        <ele>828.1586914</ele>
        <time>2009-07-25T06:40:55Z</time>
      </trkpt>
      <trkpt lat="45.54025" lon="6.61611">
        <ele>827.7976685</ele>
        <time>2009-07-25T06:41:04Z</time>
      </trkpt>
      <trkpt lat="45.54016" lon="6.61598">
        <ele>829.3427124</ele>
        <time>2009-07-25T06:41:13Z</time>
      </trkpt>
      <trkpt lat="45.54006" lon="6.61591">
        <ele>831.2626343</ele>
        <time>2009-07-25T06:41:21Z</time>
      </trkpt>
      <trkpt lat="45.53998" lon="6.61586">
        <ele>833.0427856</ele>
        <time>2009-07-25T06:41:27Z</time>
      </trkpt>
      <trkpt lat="45.5399" lon="6.61578">
        <ele>834.8344116</ele>
        <time>2009-07-25T06:41:34Z</time>
      </trkpt>
      <trkpt lat="45.5398" lon="6.61571">
        <ele>836.9562378</ele>
        <time>2009-07-25T06:41:41Z</time>
      </trkpt>
      <trkpt lat="45.53971" lon="6.61564">
        <ele>838.9874878</ele>
        <time>2009-07-25T06:41:48Z</time>
      </trkpt>
      <trkpt lat="45.53962" lon="6.61558">
        <ele>840.1066284</ele>
        <time>2009-07-25T06:41:54Z</time>
      </trkpt>
      <trkpt lat="45.53955" lon="6.61549">
        <ele>839.9530029</ele>
        <time>2009-07-25T06:42:00Z</time>
      </trkpt>
      <trkpt lat="45.53952" lon="6.61548">
        <ele>840.0737305</ele>
        <time>2009-07-25T06:42:02Z</time>
      </trkpt>
      <trkpt lat="45.53947" lon="6.61541">
        <ele>839.734375</ele>
        <time>2009-07-25T06:42:07Z</time>
      </trkpt>
      <trkpt lat="45.53946" lon="6.6154">
        <ele>839.7161865</ele>
        <time>2009-07-25T06:42:08Z</time>
      </trkpt>
      <trkpt lat="45.53938" lon="6.61531">
        <ele>839.4063721</ele>
        <time>2009-07-25T06:42:16Z</time>
      </trkpt>
      <trkpt lat="45.53928" lon="6.61523">
        <ele>839.6896973</ele>
        <time>2009-07-25T06:42:22Z</time>
      </trkpt>
      <trkpt lat="45.53919" lon="6.61513">
        <ele>839.9042969</ele>
        <time>2009-07-25T06:42:30Z</time>
      </trkpt>
      <trkpt lat="45.53912" lon="6.61509">
        <ele>840.0999146</ele>
        <time>2009-07-25T06:42:35Z</time>
      </trkpt>
      <trkpt lat="45.53904" lon="6.61501">
        <ele>839.6154785</ele>
        <time>2009-07-25T06:42:42Z</time>
      </trkpt>
      <trkpt lat="45.53901" lon="6.61499">
        <ele>839.5114136</ele>
        <time>2009-07-25T06:42:44Z</time>
      </trkpt>
      <trkpt lat="45.53889" lon="6.61495">
        <ele>839.9096069</ele>
        <time>2009-07-25T06:42:52Z</time>
      </trkpt>
      <trkpt lat="45.53883" lon="6.61496">
        <ele>842.677063</ele>
        <time>2009-07-25T06:42:56Z</time>
      </trkpt>
      <trkpt lat="45.53875" lon="6.61493">
        <ele>845.5675049</ele>
        <time>2009-07-25T06:43:01Z</time>
      </trkpt>
      <trkpt lat="45.53868" lon="6.61488">
        <ele>847.8198242</ele>
        <time>2009-07-25T06:43:06Z</time>
      </trkpt>
      <trkpt lat="45.53858" lon="6.61478">
        <ele>850.461853</ele>
        <time>2009-07-25T06:43:14Z</time>
      </trkpt>
      <trkpt lat="45.53846" lon="6.61464">
        <ele>850.6601563</ele>
        <time>2009-07-25T06:43:24Z</time>
      </trkpt>
      <trkpt lat="45.53838" lon="6.61453">
        <ele>850.4197998</ele>
        <time>2009-07-25T06:43:32Z</time>
      </trkpt>
      <trkpt lat="45.53829" lon="6.61443">
        <ele>850.6639404</ele>
        <time>2009-07-25T06:43:40Z</time>
      </trkpt>
      <trkpt lat="45.53825" lon="6.61438">
        <ele>851.0075684</ele>
        <time>2009-07-25T06:43:44Z</time>
      </trkpt>
      <trkpt lat="45.53819" lon="6.61429">
        <ele>851.2787476</ele>
        <time>2009-07-25T06:43:50Z</time>
      </trkpt>
      <trkpt lat="45.53815" lon="6.61434">
        <ele>852.3170166</ele>
        <time>2009-07-25T06:43:55Z</time>
      </trkpt>
      <trkpt lat="45.53814" lon="6.61436">
        <ele>852.6425171</ele>
        <time>2009-07-25T06:43:57Z</time>
      </trkpt>
      <trkpt lat="45.53814" lon="6.61446">
        <ele>853.6676025</ele>
        <time>2009-07-25T06:44:04Z</time>
      </trkpt>
      <trkpt lat="45.53816" lon="6.61454">
        <ele>854.4984741</ele>
        <time>2009-07-25T06:44:12Z</time>
      </trkpt>
      <trkpt lat="45.5382" lon="6.61459">
        <ele>854.5053711</ele>
        <time>2009-07-25T06:44:18Z</time>
      </trkpt>
      <trkpt lat="45.53822" lon="6.61464">
        <ele>854.9035645</ele>
        <time>2009-07-25T06:44:23Z</time>
      </trkpt>
      <trkpt lat="45.53822" lon="6.61475">
        <ele>857.3236084</ele>
        <time>2009-07-25T06:44:31Z</time>
      </trkpt>
      <trkpt lat="45.53822" lon="6.61481">
        <ele>859.2000122</ele>
        <time>2009-07-25T06:44:36Z</time>
      </trkpt>
      <trkpt lat="45.53824" lon="6.61488">
        <ele>860.5410156</ele>
        <time>2009-07-25T06:44:42Z</time>
      </trkpt>
      <trkpt lat="45.53827" lon="6.61494">
        <ele>861.144104</ele>
        <time>2009-07-25T06:44:48Z</time>
      </trkpt>
      <trkpt lat="45.53823" lon="6.61505">
        <ele>867.7848511</ele>
        <time>2009-07-25T06:44:54Z</time>
      </trkpt>
      <trkpt lat="45.53823" lon="6.61513">
        <ele>872.4899292</ele>
        <time>2009-07-25T06:44:58Z</time>
      </trkpt>
      <trkpt lat="45.53827" lon="6.61523">
        <ele>873.788269</ele>
        <time>2009-07-25T06:45:03Z</time>
      </trkpt>
      <trkpt lat="45.53834" lon="6.6153">
        <ele>871.2060547</ele>
        <time>2009-07-25T06:45:11Z</time>
      </trkpt>
      <trkpt lat="45.53837" lon="6.61533">
        <ele>872.5093994</ele>
        <time>2009-07-25T06:45:15Z</time>
      </trkpt>
      <trkpt lat="45.53843" lon="6.61537">
        <ele>872.2207031</ele>
        <time>2009-07-25T06:45:22Z</time>
      </trkpt>
      <trkpt lat="45.53846" lon="6.61542">
        <ele>873.4900513</ele>
        <time>2009-07-25T06:45:27Z</time>
      </trkpt>
      <trkpt lat="45.53848" lon="6.61553">
        <ele>879.256958</ele>
        <time>2009-07-25T06:45:33Z</time>
      </trkpt>
      <trkpt lat="45.53848" lon="6.61559">
        <ele>882.7260132</ele>
        <time>2009-07-25T06:45:37Z</time>
      </trkpt>
      <trkpt lat="45.53849" lon="6.6156">
        <ele>882.8215332</ele>
        <time>2009-07-25T06:45:38Z</time>
      </trkpt>
      <trkpt lat="45.53851" lon="6.61569">
        <ele>887.5232544</ele>
        <time>2009-07-25T06:45:42Z</time>
      </trkpt>
      <trkpt lat="45.53851" lon="6.61577">
        <ele>893.3878784</ele>
        <time>2009-07-25T06:45:46Z</time>
      </trkpt>
      <trkpt lat="45.53855" lon="6.61589">
        <ele>897.5037842</ele>
        <time>2009-07-25T06:45:54Z</time>
      </trkpt>
      <trkpt lat="45.53857" lon="6.61596">
        <ele>900.2471313</ele>
        <time>2009-07-25T06:45:59Z</time>
      </trkpt>
      <trkpt lat="45.53863" lon="6.61607">
        <ele>902.1207275</ele>
        <time>2009-07-25T06:46:08Z</time>
      </trkpt>
      <trkpt lat="45.53869" lon="6.61619">
        <ele>901.3807983</ele>
        <time>2009-07-25T06:46:16Z</time>
      </trkpt>
      <trkpt lat="45.53873" lon="6.61628">
        <ele>901.5025635</ele>
        <time>2009-07-25T06:46:22Z</time>
      </trkpt>
      <trkpt lat="45.53876" lon="6.61633">
        <ele>900.901123</ele>
        <time>2009-07-25T06:46:28Z</time>
      </trkpt>
      <trkpt lat="45.53879" lon="6.61639">
        <ele>901.5930176</ele>
        <time>2009-07-25T06:46:33Z</time>
      </trkpt>
      <trkpt lat="45.53882" lon="6.61647">
        <ele>901.4325562</ele>
        <time>2009-07-25T06:46:40Z</time>
      </trkpt>
      <trkpt lat="45.53889" lon="6.61654">
        <ele>899.3920898</ele>
        <time>2009-07-25T06:46:47Z</time>
      </trkpt>
      <trkpt lat="45.53891" lon="6.61659">
        <ele>899.8635254</ele>
        <time>2009-07-25T06:46:53Z</time>
      </trkpt>
      <trkpt lat="45.53884" lon="6.61665">
        <ele>905.4241943</ele>
        <time>2009-07-25T06:46:58Z</time>
      </trkpt>
      <trkpt lat="45.53878" lon="6.61662">
        <ele>907.8546753</ele>
        <time>2009-07-25T06:47:05Z</time>
      </trkpt>
      <trkpt lat="45.53872" lon="6.61661">
        <ele>910.6397705</ele>
        <time>2009-07-25T06:47:12Z</time>
      </trkpt>
      <trkpt lat="45.53865" lon="6.61653">
        <ele>913.4558105</ele>
        <time>2009-07-25T06:47:22Z</time>
      </trkpt>
      <trkpt lat="45.53861" lon="6.61649">
        <ele>914.8018188</ele>
        <time>2009-07-25T06:47:28Z</time>
      </trkpt>
      <trkpt lat="45.53859" lon="6.61645">
        <ele>914.8998413</ele>
        <time>2009-07-25T06:47:32Z</time>
      </trkpt>
      <trkpt lat="45.53855" lon="6.6164">
        <ele>915.4094849</ele>
        <time>2009-07-25T06:47:38Z</time>
      </trkpt>
      <trkpt lat="45.53852" lon="6.61635">
        <ele>915.473999</ele>
        <time>2009-07-25T06:47:43Z</time>
      </trkpt>
      <trkpt lat="45.53848" lon="6.61631">
        <ele>916.3880005</ele>
        <time>2009-07-25T06:47:49Z</time>
      </trkpt>
      <trkpt lat="45.53842" lon="6.61624">
        <ele>918.1020508</ele>
        <time>2009-07-25T06:47:56Z</time>
      </trkpt>
      <trkpt lat="45.53837" lon="6.61621">
        <ele>920.0512695</ele>
        <time>2009-07-25T06:48:01Z</time>
      </trkpt>
      <trkpt lat="45.53836" lon="6.6162">
        <ele>920.3331299</ele>
        <time>2009-07-25T06:48:03Z</time>
      </trkpt>
      <trkpt lat="45.5383" lon="6.61618">
        <ele>922.0692749</ele>
        <time>2009-07-25T06:48:10Z</time>
      </trkpt>
      <trkpt lat="45.53826" lon="6.61616">
        <ele>922.6980591</ele>
        <time>2009-07-25T06:48:15Z</time>
      </trkpt>
      <trkpt lat="45.53823" lon="6.61611">
        <ele>922.7768555</ele>
        <time>2009-07-25T06:48:21Z</time>
      </trkpt>
      <trkpt lat="45.53819" lon="6.61606">
        <ele>922.0372925</ele>
        <time>2009-07-25T06:48:26Z</time>
      </trkpt>
      <trkpt lat="45.53817" lon="6.61601">
        <ele>921.4414673</ele>
        <time>2009-07-25T06:48:31Z</time>
      </trkpt>
      <trkpt lat="45.53811" lon="6.61594">
        <ele>921.6895142</ele>
        <time>2009-07-25T06:48:37Z</time>
      </trkpt>
      <trkpt lat="45.53808" lon="6.61589">
        <ele>921.8798218</ele>
        <time>2009-07-25T06:48:42Z</time>
      </trkpt>
      <trkpt lat="45.53802" lon="6.61585">
        <ele>923.6742554</ele>
        <time>2009-07-25T06:48:49Z</time>
      </trkpt>
      <trkpt lat="45.53798" lon="6.61583">
        <ele>925.5961914</ele>
        <time>2009-07-25T06:48:55Z</time>
      </trkpt>
      <trkpt lat="45.53792" lon="6.61581">
        <ele>928.0281982</ele>
        <time>2009-07-25T06:49:01Z</time>
      </trkpt>
      <trkpt lat="45.53787" lon="6.61581">
        <ele>930.2821045</ele>
        <time>2009-07-25T06:49:07Z</time>
      </trkpt>
      <trkpt lat="45.53782" lon="6.61584">
        <ele>933.3660278</ele>
        <time>2009-07-25T06:49:12Z</time>
      </trkpt>
      <trkpt lat="45.53774" lon="6.61587">
        <ele>936.5150146</ele>
        <time>2009-07-25T06:49:20Z</time>
      </trkpt>
      <trkpt lat="45.53767" lon="6.61589">
        <ele>938.4134521</ele>
        <time>2009-07-25T06:49:26Z</time>
      </trkpt>
      <trkpt lat="45.53762" lon="6.61587">
        <ele>939.4793091</ele>
        <time>2009-07-25T06:49:32Z</time>
      </trkpt>
      <trkpt lat="45.53758" lon="6.61588">
        <ele>940.6963501</ele>
        <time>2009-07-25T06:49:36Z</time>
      </trkpt>
      <trkpt lat="45.53748" lon="6.61593">
        <ele>944.2906494</ele>
        <time>2009-07-25T06:49:48Z</time>
      </trkpt>
      <trkpt lat="45.5374" lon="6.61588">
        <ele>945.1224976</ele>
        <time>2009-07-25T06:49:55Z</time>
      </trkpt>
      <trkpt lat="45.53739" lon="6.61587">
        <ele>945.2006836</ele>
        <time>2009-07-25T06:49:56Z</time>
      </trkpt>
      <trkpt lat="45.53733" lon="6.61583">
        <ele>945.7133179</ele>
        <time>2009-07-25T06:50:03Z</time>
      </trkpt>
      <trkpt lat="45.53727" lon="6.61582">
        <ele>946.791748</ele>
        <time>2009-07-25T06:50:10Z</time>
      </trkpt>
      <trkpt lat="45.53721" lon="6.61579">
        <ele>947.6340942</ele>
        <time>2009-07-25T06:50:16Z</time>
      </trkpt>
      <trkpt lat="45.53714" lon="6.61576">
        <ele>947.9851685</ele>
        <time>2009-07-25T06:50:22Z</time>
      </trkpt>
      <trkpt lat="45.5371" lon="6.61575">
        <ele>948.2528076</ele>
        <time>2009-07-25T06:50:27Z</time>
      </trkpt>
      <trkpt lat="45.53704" lon="6.61575">
        <ele>948.8621216</ele>
        <time>2009-07-25T06:50:33Z</time>
      </trkpt>
      <trkpt lat="45.537" lon="6.61575">
        <ele>949.2764282</ele>
        <time>2009-07-25T06:50:38Z</time>
      </trkpt>
      <trkpt lat="45.53696" lon="6.61574">
        <ele>949.5255737</ele>
        <time>2009-07-25T06:50:42Z</time>
      </trkpt>
      <trkpt lat="45.53693" lon="6.61574">
        <ele>949.8939819</ele>
        <time>2009-07-25T06:50:46Z</time>
      </trkpt>
      <trkpt lat="45.53688" lon="6.61572">
        <ele>950.4726563</ele>
        <time>2009-07-25T06:50:51Z</time>
      </trkpt>
      <trkpt lat="45.53683" lon="6.61571">
        <ele>950.9171143</ele>
        <time>2009-07-25T06:50:56Z</time>
      </trkpt>
      <trkpt lat="45.53678" lon="6.61571">
        <ele>951.7796021</ele>
        <time>2009-07-25T06:51:01Z</time>
      </trkpt>
      <trkpt lat="45.53673" lon="6.61573">
        <ele>952.9139404</ele>
        <time>2009-07-25T06:51:07Z</time>
      </trkpt>
      <trkpt lat="45.53666" lon="6.61578">
        <ele>955.635437</ele>
        <time>2009-07-25T06:51:17Z</time>
      </trkpt>
      <trkpt lat="45.53662" lon="6.61578">
        <ele>956.9204712</ele>
        <time>2009-07-25T06:51:22Z</time>
      </trkpt>
      <trkpt lat="45.53655" lon="6.61576">
        <ele>958.4279785</ele>
        <time>2009-07-25T06:51:28Z</time>
      </trkpt>
      <trkpt lat="45.53648" lon="6.61577">
        <ele>961.1122437</ele>
        <time>2009-07-25T06:51:34Z</time>
      </trkpt>
      <trkpt lat="45.53643" lon="6.61578">
        <ele>962.7374878</ele>
        <time>2009-07-25T06:51:39Z</time>
      </trkpt>
      <trkpt lat="45.53635" lon="6.61573">
        <ele>963.5880127</ele>
        <time>2009-07-25T06:51:47Z</time>
      </trkpt>
      <trkpt lat="45.53633" lon="6.6157">
        <ele>963.6619873</ele>
        <time>2009-07-25T06:51:50Z</time>
      </trkpt>
      <trkpt lat="45.53624" lon="6.61563">
        <ele>964.0983276</ele>
        <time>2009-07-25T06:51:56Z</time>
      </trkpt>
      <trkpt lat="45.5362" lon="6.6156">
        <ele>964.5985107</ele>
        <time>2009-07-25T06:52:01Z</time>
      </trkpt>
      <trkpt lat="45.53615" lon="6.61557">
        <ele>965.2295532</ele>
        <time>2009-07-25T06:52:07Z</time>
      </trkpt>
      <trkpt lat="45.53615" lon="6.61567">
        <ele>969.1359253</ele>
        <time>2009-07-25T06:52:16Z</time>
      </trkpt>
      <trkpt lat="45.53619" lon="6.61572">
        <ele>969.6954346</ele>
        <time>2009-07-25T06:52:21Z</time>
      </trkpt>
      <trkpt lat="45.53622" lon="6.61577">
        <ele>970.2585449</ele>
        <time>2009-07-25T06:52:26Z</time>
      </trkpt>
      <trkpt lat="45.53627" lon="6.61584">
        <ele>971.0327759</ele>
        <time>2009-07-25T06:52:31Z</time>
      </trkpt>
      <trkpt lat="45.53628" lon="6.61592">
        <ele>973.7454224</ele>
        <time>2009-07-25T06:52:36Z</time>
      </trkpt>
      <trkpt lat="45.5363" lon="6.61603">
        <ele>977.1570435</ele>
        <time>2009-07-25T06:52:41Z</time>
      </trkpt>
      <trkpt lat="45.53636" lon="6.61611">
        <ele>978.0668335</ele>
        <time>2009-07-25T06:52:47Z</time>
      </trkpt>
      <trkpt lat="45.53641" lon="6.61616">
        <ele>978.3445435</ele>
        <time>2009-07-25T06:52:51Z</time>
      </trkpt>
      <trkpt lat="45.53649" lon="6.61621">
        <ele>977.635498</ele>
        <time>2009-07-25T06:52:59Z</time>
      </trkpt>
      <trkpt lat="45.53654" lon="6.61625">
        <ele>977.3045044</ele>
        <time>2009-07-25T06:53:05Z</time>
      </trkpt>
      <trkpt lat="45.53655" lon="6.61626">
        <ele>977.6419678</ele>
        <time>2009-07-25T06:53:06Z</time>
      </trkpt>
      <trkpt lat="45.53661" lon="6.61631">
        <ele>978.0194092</ele>
        <time>2009-07-25T06:53:12Z</time>
      </trkpt>
      <trkpt lat="45.53666" lon="6.61635">
        <ele>978.6784058</ele>
        <time>2009-07-25T06:53:16Z</time>
      </trkpt>
      <trkpt lat="45.53674" lon="6.61644">
        <ele>979.7926025</ele>
        <time>2009-07-25T06:53:24Z</time>
      </trkpt>
      <trkpt lat="45.53674" lon="6.61648">
        <ele>982.2348022</ele>
        <time>2009-07-25T06:53:29Z</time>
      </trkpt>
      <trkpt lat="45.53673" lon="6.61653">
        <ele>984.6160889</ele>
        <time>2009-07-25T06:53:34Z</time>
      </trkpt>
      <trkpt lat="45.53679" lon="6.61657">
        <ele>985.2905273</ele>
        <time>2009-07-25T06:53:41Z</time>
      </trkpt>
      <trkpt lat="45.53684" lon="6.6166">
        <ele>985.0505981</ele>
        <time>2009-07-25T06:53:47Z</time>
      </trkpt>
      <trkpt lat="45.53692" lon="6.61666">
        <ele>986.1716919</ele>
        <time>2009-07-25T06:53:55Z</time>
      </trkpt>
      <trkpt lat="45.53698" lon="6.61673">
        <ele>986.8967896</ele>
        <time>2009-07-25T06:54:01Z</time>
      </trkpt>
      <trkpt lat="45.537" lon="6.61676">
        <ele>987.4100342</ele>
        <time>2009-07-25T06:54:03Z</time>
      </trkpt>
      <trkpt lat="45.53702" lon="6.61679">
        <ele>987.7600708</ele>
        <time>2009-07-25T06:54:06Z</time>
      </trkpt>
      <trkpt lat="45.53702" lon="6.61686">
        <ele>990.2124634</ele>
        <time>2009-07-25T06:54:11Z</time>
      </trkpt>
      <trkpt lat="45.53696" lon="6.61694">
        <ele>995.3308716</ele>
        <time>2009-07-25T06:54:18Z</time>
      </trkpt>
      <trkpt lat="45.5369" lon="6.61703">
        <ele>1000.6119995</ele>
        <time>2009-07-25T06:54:25Z</time>
      </trkpt>
      <trkpt lat="45.53689" lon="6.61704">
        <ele>1001.2514038</ele>
        <time>2009-07-25T06:54:26Z</time>
      </trkpt>
      <trkpt lat="45.53684" lon="6.6171">
        <ele>1005.1143188</ele>
        <time>2009-07-25T06:54:33Z</time>
      </trkpt>
      <trkpt lat="45.53687" lon="6.61715">
        <ele>1006.531189</ele>
        <time>2009-07-25T06:54:38Z</time>
      </trkpt>
      <trkpt lat="45.5369" lon="6.61716">
        <ele>1006.0092163</ele>
        <time>2009-07-25T06:54:41Z</time>
      </trkpt>
      <trkpt lat="45.53696" lon="6.61722">
        <ele>1006.5772095</ele>
        <time>2009-07-25T06:54:48Z</time>
      </trkpt>
      <trkpt lat="45.537" lon="6.61725">
        <ele>1006.7409668</ele>
        <time>2009-07-25T06:54:52Z</time>
      </trkpt>
      <trkpt lat="45.53706" lon="6.61732">
        <ele>1008.7390137</ele>
        <time>2009-07-25T06:55:01Z</time>
      </trkpt>
      <trkpt lat="45.5371" lon="6.61738">
        <ele>1010.0293579</ele>
        <time>2009-07-25T06:55:07Z</time>
      </trkpt>
      <trkpt lat="45.53715" lon="6.61743">
        <ele>1010.7633667</ele>
        <time>2009-07-25T06:55:12Z</time>
      </trkpt>
      <trkpt lat="45.53721" lon="6.61751">
        <ele>1011.6729736</ele>
        <time>2009-07-25T06:55:20Z</time>
      </trkpt>
      <trkpt lat="45.53724" lon="6.61757">
        <ele>1013.3922119</ele>
        <time>2009-07-25T06:55:26Z</time>
      </trkpt>
      <trkpt lat="45.53725" lon="6.61764">
        <ele>1015.7758789</ele>
        <time>2009-07-25T06:55:32Z</time>
      </trkpt>
      <trkpt lat="45.53725" lon="6.61772">
        <ele>1019.4128418</ele>
        <time>2009-07-25T06:55:38Z</time>
      </trkpt>
      <trkpt lat="45.53717" lon="6.61775">
        <ele>1023.0307617</ele>
        <time>2009-07-25T06:55:45Z</time>
      </trkpt>
      <trkpt lat="45.53714" lon="6.61774">
        <ele>1023.0931396</ele>
        <time>2009-07-25T06:55:47Z</time>
      </trkpt>
      <trkpt lat="45.53711" lon="6.6177">
        <ele>1022.6253052</ele>
        <time>2009-07-25T06:55:52Z</time>
      </trkpt>
      <trkpt lat="45.53707" lon="6.61771">
        <ele>1023.749939</ele>
        <time>2009-07-25T06:55:57Z</time>
      </trkpt>
      <trkpt lat="45.53701" lon="6.61773">
        <ele>1026.0147705</ele>
        <time>2009-07-25T06:56:03Z</time>
      </trkpt>
      <trkpt lat="45.53698" lon="6.61773">
        <ele>1027.0169678</ele>
        <time>2009-07-25T06:56:07Z</time>
      </trkpt>
      <trkpt lat="45.53692" lon="6.61772">
        <ele>1027.7629395</ele>
        <time>2009-07-25T06:56:13Z</time>
      </trkpt>
      <trkpt lat="45.53685" lon="6.61773">
        <ele>1029.7857666</ele>
        <time>2009-07-25T06:56:19Z</time>
      </trkpt>
      <trkpt lat="45.53683" lon="6.61781">
        <ele>1033.0368652</ele>
        <time>2009-07-25T06:56:26Z</time>
      </trkpt>
      <trkpt lat="45.53688" lon="6.6179">
        <ele>1034.293457</ele>
        <time>2009-07-25T06:56:33Z</time>
      </trkpt>
      <trkpt lat="45.53692" lon="6.61794">
        <ele>1034.3309326</ele>
        <time>2009-07-25T06:56:38Z</time>
      </trkpt>
      <trkpt lat="45.53699" lon="6.618">
        <ele>1034.5300293</ele>
        <time>2009-07-25T06:56:47Z</time>
      </trkpt>
      <trkpt lat="45.53705" lon="6.61804">
        <ele>1034.3515625</ele>
        <time>2009-07-25T06:56:54Z</time>
      </trkpt>
      <trkpt lat="45.53707" lon="6.61807">
        <ele>1034.6965332</ele>
        <time>2009-07-25T06:56:58Z</time>
      </trkpt>
      <trkpt lat="45.53709" lon="6.61812">
        <ele>1036.0705566</ele>
        <time>2009-07-25T06:57:02Z</time>
      </trkpt>
      <trkpt lat="45.53716" lon="6.61822">
        <ele>1037.9034424</ele>
        <time>2009-07-25T06:57:10Z</time>
      </trkpt>
      <trkpt lat="45.53716" lon="6.61825">
        <ele>1038.7302246</ele>
        <time>2009-07-25T06:57:12Z</time>
      </trkpt>
      <trkpt lat="45.53721" lon="6.61833">
        <ele>1040.1425781</ele>
        <time>2009-07-25T06:57:20Z</time>
      </trkpt>
      <trkpt lat="45.53723" lon="6.61839">
        <ele>1042.1162109</ele>
        <time>2009-07-25T06:57:27Z</time>
      </trkpt>
      <trkpt lat="45.53725" lon="6.61844">
        <ele>1044.1829834</ele>
        <time>2009-07-25T06:57:32Z</time>
      </trkpt>
      <trkpt lat="45.5373" lon="6.61846">
        <ele>1043.7023926</ele>
        <time>2009-07-25T06:57:37Z</time>
      </trkpt>
      <trkpt lat="45.53734" lon="6.61853">
        <ele>1045.3571777</ele>
        <time>2009-07-25T06:57:45Z</time>
      </trkpt>
      <trkpt lat="45.53735" lon="6.61859">
        <ele>1047.760376</ele>
        <time>2009-07-25T06:57:49Z</time>
      </trkpt>
      <trkpt lat="45.53737" lon="6.61863">
        <ele>1049.1218262</ele>
        <time>2009-07-25T06:57:53Z</time>
      </trkpt>
      <trkpt lat="45.53736" lon="6.61873">
        <ele>1052.6958008</ele>
        <time>2009-07-25T06:57:59Z</time>
      </trkpt>
      <trkpt lat="45.53741" lon="6.61883">
        <ele>1055.2912598</ele>
        <time>2009-07-25T06:58:08Z</time>
      </trkpt>
      <trkpt lat="45.53741" lon="6.6189">
        <ele>1057.3291016</ele>
        <time>2009-07-25T06:58:12Z</time>
      </trkpt>
      <trkpt lat="45.53743" lon="6.61898">
        <ele>1059.5550537</ele>
        <time>2009-07-25T06:58:18Z</time>
      </trkpt>
      <trkpt lat="45.53744" lon="6.61907">
        <ele>1061.7011719</ele>
        <time>2009-07-25T06:58:24Z</time>
      </trkpt>
      <trkpt lat="45.53748" lon="6.6191">
        <ele>1060.9733887</ele>
        <time>2009-07-25T06:58:29Z</time>
      </trkpt>
      <trkpt lat="45.53753" lon="6.61912">
        <ele>1060.046875</ele>
        <time>2009-07-25T06:58:34Z</time>
      </trkpt>
      <trkpt lat="45.53755" lon="6.61916">
        <ele>1060.5070801</ele>
        <time>2009-07-25T06:58:39Z</time>
      </trkpt>
      <trkpt lat="45.53754" lon="6.61923">
        <ele>1062.7650146</ele>
        <time>2009-07-25T06:58:43Z</time>
      </trkpt>
      <trkpt lat="45.53759" lon="6.61931">
        <ele>1063.8487549</ele>
        <time>2009-07-25T06:58:50Z</time>
      </trkpt>
      <trkpt lat="45.53762" lon="6.61933">
        <ele>1063.6218262</ele>
        <time>2009-07-25T06:58:54Z</time>
      </trkpt>
      <trkpt lat="45.53767" lon="6.61937">
        <ele>1063.3447266</ele>
        <time>2009-07-25T06:58:59Z</time>
      </trkpt>
      <trkpt lat="45.53767" lon="6.61943">
        <ele>1065.0743408</ele>
        <time>2009-07-25T06:59:03Z</time>
      </trkpt>
      <trkpt lat="45.53771" lon="6.61957">
        <ele>1067.9008789</ele>
        <time>2009-07-25T06:59:13Z</time>
      </trkpt>
      <trkpt lat="45.53771" lon="6.6196">
        <ele>1068.7351074</ele>
        <time>2009-07-25T06:59:16Z</time>
      </trkpt>
      <trkpt lat="45.53772" lon="6.61969">
        <ele>1070.9016113</ele>
        <time>2009-07-25T06:59:24Z</time>
      </trkpt>
      <trkpt lat="45.53774" lon="6.61976">
        <ele>1072.6179199</ele>
        <time>2009-07-25T06:59:30Z</time>
      </trkpt>
      <trkpt lat="45.53777" lon="6.61981">
        <ele>1073.2081299</ele>
        <time>2009-07-25T06:59:35Z</time>
      </trkpt>
      <trkpt lat="45.53778" lon="6.61987">
        <ele>1074.6346436</ele>
        <time>2009-07-25T06:59:41Z</time>
      </trkpt>
      <trkpt lat="45.53779" lon="6.61991">
        <ele>1075.7607422</ele>
        <time>2009-07-25T06:59:44Z</time>
      </trkpt>
      <trkpt lat="45.53782" lon="6.61999">
        <ele>1077.2142334</ele>
        <time>2009-07-25T06:59:49Z</time>
      </trkpt>
      <trkpt lat="45.53783" lon="6.62007">
        <ele>1079.7695313</ele>
        <time>2009-07-25T06:59:54Z</time>
      </trkpt>
      <trkpt lat="45.53785" lon="6.62013">
        <ele>1081.6715088</ele>
        <time>2009-07-25T06:59:59Z</time>
      </trkpt>
      <trkpt lat="45.53787" lon="6.62018">
        <ele>1083.2302246</ele>
        <time>2009-07-25T07:00:03Z</time>
      </trkpt>
      <trkpt lat="45.53789" lon="6.62024">
        <ele>1085.0704346</ele>
        <time>2009-07-25T07:00:09Z</time>
      </trkpt>
      <trkpt lat="45.5379" lon="6.6203">
        <ele>1087.8757324</ele>
        <time>2009-07-25T07:00:16Z</time>
      </trkpt>
      <trkpt lat="45.53794" lon="6.6204">
        <ele>1092.0891113</ele>
        <time>2009-07-25T07:00:24Z</time>
      </trkpt>
      <trkpt lat="45.53798" lon="6.62045">
        <ele>1093.3756104</ele>
        <time>2009-07-25T07:00:29Z</time>
      </trkpt>
      <trkpt lat="45.53801" lon="6.6205">
        <ele>1094.793457</ele>
        <time>2009-07-25T07:00:35Z</time>
      </trkpt>
      <trkpt lat="45.53805" lon="6.62053">
        <ele>1094.6755371</ele>
        <time>2009-07-25T07:00:40Z</time>
      </trkpt>
      <trkpt lat="45.53811" lon="6.62058">
        <ele>1094.7495117</ele>
        <time>2009-07-25T07:00:46Z</time>
      </trkpt>
      <trkpt lat="45.53814" lon="6.62063">
        <ele>1095.9241943</ele>
        <time>2009-07-25T07:00:52Z</time>
      </trkpt>
      <trkpt lat="45.53817" lon="6.62068">
        <ele>1097.9119873</ele>
        <time>2009-07-25T07:00:59Z</time>
      </trkpt>
      <trkpt lat="45.53819" lon="6.62073">
        <ele>1100.3435059</ele>
        <time>2009-07-25T07:01:04Z</time>
      </trkpt>
      <trkpt lat="45.5382" lon="6.62077">
        <ele>1101.9547119</ele>
        <time>2009-07-25T07:01:08Z</time>
      </trkpt>
      <trkpt lat="45.53822" lon="6.62078">
        <ele>1101.9401855</ele>
        <time>2009-07-25T07:01:12Z</time>
      </trkpt>
      <trkpt lat="45.53824" lon="6.62084">
        <ele>1104.9110107</ele>
        <time>2009-07-25T07:01:18Z</time>
      </trkpt>
      <trkpt lat="45.53827" lon="6.62092">
        <ele>1108.7200928</ele>
        <time>2009-07-25T07:01:26Z</time>
      </trkpt>
      <trkpt lat="45.53829" lon="6.62097">
        <ele>1111.5389404</ele>
        <time>2009-07-25T07:01:31Z</time>
      </trkpt>
      <trkpt lat="45.5383" lon="6.62098">
        <ele>1112.1347656</ele>
        <time>2009-07-25T07:01:32Z</time>
      </trkpt>
      <trkpt lat="45.53834" lon="6.62105">
        <ele>1115.4128418</ele>
        <time>2009-07-25T07:01:39Z</time>
      </trkpt>
      <trkpt lat="45.53836" lon="6.62109">
        <ele>1117.6495361</ele>
        <time>2009-07-25T07:01:44Z</time>
      </trkpt>
      <trkpt lat="45.53839" lon="6.62118">
        <ele>1118.5206299</ele>
        <time>2009-07-25T07:01:52Z</time>
      </trkpt>
      <trkpt lat="45.53841" lon="6.62123">
        <ele>1117.9630127</ele>
        <time>2009-07-25T07:01:57Z</time>
      </trkpt>
      <trkpt lat="45.53841" lon="6.62129">
        <ele>1119.5083008</ele>
        <time>2009-07-25T07:02:00Z</time>
      </trkpt>
      <trkpt lat="45.53843" lon="6.62143">
        <ele>1122.1467285</ele>
        <time>2009-07-25T07:02:09Z</time>
      </trkpt>
      <trkpt lat="45.53845" lon="6.62149">
        <ele>1121.998291</ele>
        <time>2009-07-25T07:02:14Z</time>
      </trkpt>
      <trkpt lat="45.53847" lon="6.62156">
        <ele>1122.5090332</ele>
        <time>2009-07-25T07:02:20Z</time>
      </trkpt>
      <trkpt lat="45.53848" lon="6.6216">
        <ele>1123.1496582</ele>
        <time>2009-07-25T07:02:23Z</time>
      </trkpt>
      <trkpt lat="45.53848" lon="6.62166">
        <ele>1124.1467285</ele>
        <time>2009-07-25T07:02:27Z</time>
      </trkpt>
      <trkpt lat="45.53849" lon="6.62175">
        <ele>1124.8502197</ele>
        <time>2009-07-25T07:02:33Z</time>
      </trkpt>
      <trkpt lat="45.53851" lon="6.62182">
        <ele>1125.2939453</ele>
        <time>2009-07-25T07:02:38Z</time>
      </trkpt>
      <trkpt lat="45.53849" lon="6.62188">
        <ele>1126.8168945</ele>
        <time>2009-07-25T07:02:42Z</time>
      </trkpt>
      <trkpt lat="45.53849" lon="6.62193">
        <ele>1127.4213867</ele>
        <time>2009-07-25T07:02:45Z</time>
      </trkpt>
      <trkpt lat="45.53851" lon="6.622">
        <ele>1127.4981689</ele>
        <time>2009-07-25T07:02:51Z</time>
      </trkpt>
      <trkpt lat="45.53849" lon="6.62209">
        <ele>1129.5333252</ele>
        <time>2009-07-25T07:02:59Z</time>
      </trkpt>
      <trkpt lat="45.53848" lon="6.62217">
        <ele>1131.6335449</ele>
        <time>2009-07-25T07:03:06Z</time>
      </trkpt>
      <trkpt lat="45.53849" lon="6.62223">
        <ele>1131.489502</ele>
        <time>2009-07-25T07:03:13Z</time>
      </trkpt>
      <trkpt lat="45.53851" lon="6.62228">
        <ele>1131.4188232</ele>
        <time>2009-07-25T07:03:17Z</time>
      </trkpt>
      <trkpt lat="45.53852" lon="6.62234">
        <ele>1131.4893799</ele>
        <time>2009-07-25T07:03:21Z</time>
      </trkpt>
      <trkpt lat="45.53851" lon="6.62242">
        <ele>1133.1329346</ele>
        <time>2009-07-25T07:03:26Z</time>
      </trkpt>
      <trkpt lat="45.53854" lon="6.6225">
        <ele>1132.5822754</ele>
        <time>2009-07-25T07:03:32Z</time>
      </trkpt>
      <trkpt lat="45.53854" lon="6.62261">
        <ele>1134.6074219</ele>
        <time>2009-07-25T07:03:40Z</time>
      </trkpt>
      <trkpt lat="45.53854" lon="6.62269">
        <ele>1135.9558105</ele>
        <time>2009-07-25T07:03:46Z</time>
      </trkpt>
      <trkpt lat="45.53857" lon="6.6228">
        <ele>1135.5762939</ele>
        <time>2009-07-25T07:03:53Z</time>
      </trkpt>
      <trkpt lat="45.53864" lon="6.62291">
        <ele>1134.5955811</ele>
        <time>2009-07-25T07:04:00Z</time>
      </trkpt>
      <trkpt lat="45.53864" lon="6.62292">
        <ele>1134.9542236</ele>
        <time>2009-07-25T07:04:01Z</time>
      </trkpt>
      <trkpt lat="45.53865" lon="6.62304">
        <ele>1137.5823975</ele>
        <time>2009-07-25T07:04:07Z</time>
      </trkpt>
      <trkpt lat="45.53868" lon="6.62314">
        <ele>1139.8139648</ele>
        <time>2009-07-25T07:04:13Z</time>
      </trkpt>
      <trkpt lat="45.53869" lon="6.62326">
        <ele>1142.9508057</ele>
        <time>2009-07-25T07:04:20Z</time>
      </trkpt>
      <trkpt lat="45.53874" lon="6.62334">
        <ele>1142.6053467</ele>
        <time>2009-07-25T07:04:25Z</time>
      </trkpt>
      <trkpt lat="45.53876" lon="6.62337">
        <ele>1141.9819336</ele>
        <time>2009-07-25T07:04:27Z</time>
      </trkpt>
      <trkpt lat="45.5388" lon="6.62344">
        <ele>1141.3808594</ele>
        <time>2009-07-25T07:04:32Z</time>
      </trkpt>
      <trkpt lat="45.53883" lon="6.62351">
        <ele>1141.6651611</ele>
        <time>2009-07-25T07:04:36Z</time>
      </trkpt>
      <trkpt lat="45.53887" lon="6.62366">
        <ele>1142.8208008</ele>
        <time>2009-07-25T07:04:44Z</time>
      </trkpt>
      <trkpt lat="45.53891" lon="6.62374">
        <ele>1142.2879639</ele>
        <time>2009-07-25T07:04:49Z</time>
      </trkpt>
      <trkpt lat="45.53894" lon="6.62385">
        <ele>1144.4165039</ele>
        <time>2009-07-25T07:04:55Z</time>
      </trkpt>
      <trkpt lat="45.53895" lon="6.62392">
        <ele>1145.6804199</ele>
        <time>2009-07-25T07:04:59Z</time>
      </trkpt>
      <trkpt lat="45.53896" lon="6.62395">
        <ele>1146.3270264</ele>
        <time>2009-07-25T07:05:01Z</time>
      </trkpt>
      <trkpt lat="45.53897" lon="6.62402">
        <ele>1147.6832275</ele>
        <time>2009-07-25T07:05:05Z</time>
      </trkpt>
      <trkpt lat="45.539" lon="6.6241">
        <ele>1148.6243896</ele>
        <time>2009-07-25T07:05:10Z</time>
      </trkpt>
      <trkpt lat="45.53901" lon="6.62428">
        <ele>1151.8839111</ele>
        <time>2009-07-25T07:05:20Z</time>
      </trkpt>
      <trkpt lat="45.53902" lon="6.62441">
        <ele>1153.8951416</ele>
        <time>2009-07-25T07:05:27Z</time>
      </trkpt>
      <trkpt lat="45.53902" lon="6.62454">
        <ele>1156.3190918</ele>
        <time>2009-07-25T07:05:35Z</time>
      </trkpt>
      <trkpt lat="45.53901" lon="6.62471">
        <ele>1160.1917725</ele>
        <time>2009-07-25T07:05:45Z</time>
      </trkpt>
      <trkpt lat="45.539" lon="6.62485">
        <ele>1162.7423096</ele>
        <time>2009-07-25T07:05:53Z</time>
      </trkpt>
      <trkpt lat="45.539" lon="6.62493">
        <ele>1163.8052979</ele>
        <time>2009-07-25T07:05:58Z</time>
      </trkpt>
      <trkpt lat="45.53899" lon="6.62499">
        <ele>1165.18396</ele>
        <time>2009-07-25T07:06:02Z</time>
      </trkpt>
      <trkpt lat="45.53898" lon="6.62518">
        <ele>1164.5397949</ele>
        <time>2009-07-25T07:06:13Z</time>
      </trkpt>
      <trkpt lat="45.539" lon="6.62538">
        <ele>1162.7600098</ele>
        <time>2009-07-25T07:06:23Z</time>
      </trkpt>
      <trkpt lat="45.53899" lon="6.62549">
        <ele>1162.3425293</ele>
        <time>2009-07-25T07:06:29Z</time>
      </trkpt>
      <trkpt lat="45.53895" lon="6.62561">
        <ele>1162.9433594</ele>
        <time>2009-07-25T07:06:37Z</time>
      </trkpt>
      <trkpt lat="45.53891" lon="6.6257">
        <ele>1163.4071045</ele>
        <time>2009-07-25T07:06:43Z</time>
      </trkpt>
      <trkpt lat="45.53885" lon="6.62583">
        <ele>1164.4257813</ele>
        <time>2009-07-25T07:06:53Z</time>
      </trkpt>
      <trkpt lat="45.5388" lon="6.62593">
        <ele>1166.3913574</ele>
        <time>2009-07-25T07:07:01Z</time>
      </trkpt>
      <trkpt lat="45.53879" lon="6.62595">
        <ele>1166.5526123</ele>
        <time>2009-07-25T07:07:02Z</time>
      </trkpt>
      <trkpt lat="45.53874" lon="6.62599">
        <ele>1168.4289551</ele>
        <time>2009-07-25T07:07:09Z</time>
      </trkpt>
      <trkpt lat="45.53873" lon="6.62597">
        <ele>1168.6229248</ele>
        <time>2009-07-25T07:07:10Z</time>
      </trkpt>
      <trkpt lat="45.5387" lon="6.6258">
        <ele>1169.3209229</ele>
        <time>2009-07-25T07:07:19Z</time>
      </trkpt>
      <trkpt lat="45.53868" lon="6.62567">
        <ele>1170.0367432</ele>
        <time>2009-07-25T07:07:26Z</time>
      </trkpt>
      <trkpt lat="45.53863" lon="6.62556">
        <ele>1171.5822754</ele>
        <time>2009-07-25T07:07:34Z</time>
      </trkpt>
      <trkpt lat="45.53855" lon="6.62556">
        <ele>1173.7216797</ele>
        <time>2009-07-25T07:07:40Z</time>
      </trkpt>
      <trkpt lat="45.53851" lon="6.62567">
        <ele>1175.0400391</ele>
        <time>2009-07-25T07:07:47Z</time>
      </trkpt>
      <trkpt lat="45.53849" lon="6.62586">
        <ele>1175.5998535</ele>
        <time>2009-07-25T07:07:56Z</time>
      </trkpt>
      <trkpt lat="45.53849" lon="6.6259">
        <ele>1175.6153564</ele>
        <time>2009-07-25T07:07:58Z</time>
      </trkpt>
      <trkpt lat="45.53849" lon="6.62605">
        <ele>1175.5787354</ele>
        <time>2009-07-25T07:08:05Z</time>
      </trkpt>
      <trkpt lat="45.53849" lon="6.62618">
        <ele>1175.1254883</ele>
        <time>2009-07-25T07:08:12Z</time>
      </trkpt>
      <trkpt lat="45.53845" lon="6.62633">
        <ele>1174.7333984</ele>
        <time>2009-07-25T07:08:19Z</time>
      </trkpt>
      <trkpt lat="45.53839" lon="6.62647">
        <ele>1174.7573242</ele>
        <time>2009-07-25T07:08:27Z</time>
      </trkpt>
      <trkpt lat="45.53835" lon="6.62651">
        <ele>1174.9423828</ele>
        <time>2009-07-25T07:08:31Z</time>
      </trkpt>
      <trkpt lat="45.53828" lon="6.62657">
        <ele>1175.2994385</ele>
        <time>2009-07-25T07:08:38Z</time>
      </trkpt>
      <trkpt lat="45.53827" lon="6.62658">
        <ele>1175.3886719</ele>
        <time>2009-07-25T07:08:39Z</time>
      </trkpt>
      <trkpt lat="45.53817" lon="6.62663">
        <ele>1176.0135498</ele>
        <time>2009-07-25T07:08:47Z</time>
      </trkpt>
      <trkpt lat="45.53811" lon="6.62667">
        <ele>1176.4208984</ele>
        <time>2009-07-25T07:08:52Z</time>
      </trkpt>
      <trkpt lat="45.53802" lon="6.62674">
        <ele>1177.1048584</ele>
        <time>2009-07-25T07:08:57Z</time>
      </trkpt>
      <trkpt lat="45.53796" lon="6.62675">
        <ele>1177.7263184</ele>
        <time>2009-07-25T07:09:01Z</time>
      </trkpt>
      <trkpt lat="45.53785" lon="6.62676">
        <ele>1178.8660889</ele>
        <time>2009-07-25T07:09:09Z</time>
      </trkpt>
      <trkpt lat="45.53775" lon="6.6268">
        <ele>1179.463623</ele>
        <time>2009-07-25T07:09:15Z</time>
      </trkpt>
      <trkpt lat="45.53763" lon="6.62687">
        <ele>1179.1202393</ele>
        <time>2009-07-25T07:09:20Z</time>
      </trkpt>
      <trkpt lat="45.53754" lon="6.62692">
        <ele>1179.0119629</ele>
        <time>2009-07-25T07:09:24Z</time>
      </trkpt>
      <trkpt lat="45.53745" lon="6.62699">
        <ele>1178.8812256</ele>
        <time>2009-07-25T07:09:29Z</time>
      </trkpt>
      <trkpt lat="45.53735" lon="6.62708">
        <ele>1178.7758789</ele>
        <time>2009-07-25T07:09:34Z</time>
      </trkpt>
      <trkpt lat="45.53728" lon="6.62719">
        <ele>1178.8234863</ele>
        <time>2009-07-25T07:09:38Z</time>
      </trkpt>
      <trkpt lat="45.53716" lon="6.62736">
        <ele>1179</ele>
        <time>2009-07-25T07:09:43Z</time>
      </trkpt>
      <trkpt lat="45.53714" lon="6.62742">
        <ele>1179</ele>
        <time>2009-07-25T07:09:47Z</time>
      </trkpt>
      <trkpt lat="45.53712" lon="6.62747">
        <ele>1179</ele>
        <time>2009-07-25T07:09:50Z</time>
      </trkpt>
      <trkpt lat="45.53715" lon="6.62758">
        <ele>1179</ele>
        <time>2009-07-25T07:09:55Z</time>
      </trkpt>
      <trkpt lat="45.53717" lon="6.62767">
        <ele>1179</ele>
        <time>2009-07-25T07:09:58Z</time>
      </trkpt>
      <trkpt lat="45.53721" lon="6.62782">
        <ele>1178.8537598</ele>
        <time>2009-07-25T07:10:03Z</time>
      </trkpt>
      <trkpt lat="45.53724" lon="6.62788">
        <ele>1178.5665283</ele>
        <time>2009-07-25T07:10:06Z</time>
      </trkpt>
      <trkpt lat="45.53722" lon="6.62795">
        <ele>1178.3723145</ele>
        <time>2009-07-25T07:10:10Z</time>
      </trkpt>
      <trkpt lat="45.53711" lon="6.62806">
        <ele>1178.3935547</ele>
        <time>2009-07-25T07:10:18Z</time>
      </trkpt>
      <trkpt lat="45.53703" lon="6.62811">
        <ele>1178.708374</ele>
        <time>2009-07-25T07:10:25Z</time>
      </trkpt>
      <trkpt lat="45.53697" lon="6.62816">
        <ele>1178.9143066</ele>
        <time>2009-07-25T07:10:31Z</time>
      </trkpt>
      <trkpt lat="45.53691" lon="6.62821">
        <ele>1179.859375</ele>
        <time>2009-07-25T07:10:37Z</time>
      </trkpt>
      <trkpt lat="45.53686" lon="6.6283">
        <ele>1181.4360352</ele>
        <time>2009-07-25T07:10:43Z</time>
      </trkpt>
      <trkpt lat="45.5368" lon="6.62839">
        <ele>1183.3374023</ele>
        <time>2009-07-25T07:10:49Z</time>
      </trkpt>
      <trkpt lat="45.53671" lon="6.62847">
        <ele>1186.7919922</ele>
        <time>2009-07-25T07:10:57Z</time>
      </trkpt>
      <trkpt lat="45.53663" lon="6.62852">
        <ele>1189.3045654</ele>
        <time>2009-07-25T07:11:05Z</time>
      </trkpt>
      <trkpt lat="45.53658" lon="6.62857">
        <ele>1191.5339355</ele>
        <time>2009-07-25T07:11:12Z</time>
      </trkpt>
      <trkpt lat="45.53654" lon="6.6286">
        <ele>1193.0319824</ele>
        <time>2009-07-25T07:11:16Z</time>
      </trkpt>
      <trkpt lat="45.53646" lon="6.62866">
        <ele>1196.470459</ele>
        <time>2009-07-25T07:11:25Z</time>
      </trkpt>
      <trkpt lat="45.53642" lon="6.62871">
        <ele>1199.1414795</ele>
        <time>2009-07-25T07:11:32Z</time>
      </trkpt>
      <trkpt lat="45.53642" lon="6.62875">
        <ele>1199.8181152</ele>
        <time>2009-07-25T07:11:34Z</time>
      </trkpt>
      <trkpt lat="45.53643" lon="6.62891">
        <ele>1202.6417236</ele>
        <time>2009-07-25T07:11:43Z</time>
      </trkpt>
      <trkpt lat="45.53646" lon="6.62907">
        <ele>1204.6693115</ele>
        <time>2009-07-25T07:11:53Z</time>
      </trkpt>
      <trkpt lat="45.53649" lon="6.62923">
        <ele>1206.9237061</ele>
        <time>2009-07-25T07:12:03Z</time>
      </trkpt>
      <trkpt lat="45.53651" lon="6.62939">
        <ele>1209.0773926</ele>
        <time>2009-07-25T07:12:12Z</time>
      </trkpt>
      <trkpt lat="45.53654" lon="6.62957">
        <ele>1211.3463135</ele>
        <time>2009-07-25T07:12:22Z</time>
      </trkpt>
      <trkpt lat="45.53656" lon="6.62976">
        <ele>1213.8864746</ele>
        <time>2009-07-25T07:12:32Z</time>
      </trkpt>
      <trkpt lat="45.53656" lon="6.62993">
        <ele>1217.3712158</ele>
        <time>2009-07-25T07:12:42Z</time>
      </trkpt>
      <trkpt lat="45.53659" lon="6.63006">
        <ele>1218.6546631</ele>
        <time>2009-07-25T07:12:49Z</time>
      </trkpt>
      <trkpt lat="45.53662" lon="6.63026">
        <ele>1221.4122314</ele>
        <time>2009-07-25T07:12:59Z</time>
      </trkpt>
      <trkpt lat="45.53665" lon="6.63045">
        <ele>1223.2939453</ele>
        <time>2009-07-25T07:13:09Z</time>
      </trkpt>
      <trkpt lat="45.53668" lon="6.63059">
        <ele>1224.1877441</ele>
        <time>2009-07-25T07:13:17Z</time>
      </trkpt>
      <trkpt lat="45.53672" lon="6.63071">
        <ele>1225.0700684</ele>
        <time>2009-07-25T07:13:24Z</time>
      </trkpt>
      <trkpt lat="45.53676" lon="6.63088">
        <ele>1226.5327148</ele>
        <time>2009-07-25T07:13:33Z</time>
      </trkpt>
      <trkpt lat="45.5368" lon="6.63104">
        <ele>1228.1566162</ele>
        <time>2009-07-25T07:13:42Z</time>
      </trkpt>
      <trkpt lat="45.53681" lon="6.63118">
        <ele>1230.71875</ele>
        <time>2009-07-25T07:13:50Z</time>
      </trkpt>
      <trkpt lat="45.53685" lon="6.6313">
        <ele>1232.175415</ele>
        <time>2009-07-25T07:13:57Z</time>
      </trkpt>
      <trkpt lat="45.53686" lon="6.63134">
        <ele>1232.3044434</ele>
        <time>2009-07-25T07:13:59Z</time>
      </trkpt>
      <trkpt lat="45.5369" lon="6.63151">
        <ele>1234.310791</ele>
        <time>2009-07-25T07:14:08Z</time>
      </trkpt>
      <trkpt lat="45.53694" lon="6.63163">
        <ele>1235.2722168</ele>
        <time>2009-07-25T07:14:15Z</time>
      </trkpt>
      <trkpt lat="45.53696" lon="6.63178">
        <ele>1236.8579102</ele>
        <time>2009-07-25T07:14:23Z</time>
      </trkpt>
      <trkpt lat="45.53697" lon="6.63179">
        <ele>1236.6330566</ele>
        <time>2009-07-25T07:14:24Z</time>
      </trkpt>
      <trkpt lat="45.53699" lon="6.63194">
        <ele>1238.0269775</ele>
        <time>2009-07-25T07:14:32Z</time>
      </trkpt>
      <trkpt lat="45.53703" lon="6.63207">
        <ele>1237.7161865</ele>
        <time>2009-07-25T07:14:39Z</time>
      </trkpt>
      <trkpt lat="45.53705" lon="6.63219">
        <ele>1238.0717773</ele>
        <time>2009-07-25T07:14:46Z</time>
      </trkpt>
      <trkpt lat="45.53707" lon="6.63228">
        <ele>1238.5655518</ele>
        <time>2009-07-25T07:14:51Z</time>
      </trkpt>
      <trkpt lat="45.53709" lon="6.63237">
        <ele>1239.0871582</ele>
        <time>2009-07-25T07:14:56Z</time>
      </trkpt>
      <trkpt lat="45.53709" lon="6.6325">
        <ele>1240.9436035</ele>
        <time>2009-07-25T07:15:02Z</time>
      </trkpt>
      <trkpt lat="45.53712" lon="6.63265">
        <ele>1241.8327637</ele>
        <time>2009-07-25T07:15:10Z</time>
      </trkpt>
      <trkpt lat="45.53714" lon="6.63282">
        <ele>1243.0089111</ele>
        <time>2009-07-25T07:15:19Z</time>
      </trkpt>
      <trkpt lat="45.53715" lon="6.63293">
        <ele>1243.2194824</ele>
        <time>2009-07-25T07:15:25Z</time>
      </trkpt>
      <trkpt lat="45.53719" lon="6.63306">
        <ele>1242.1724854</ele>
        <time>2009-07-25T07:15:33Z</time>
      </trkpt>
      <trkpt lat="45.5372" lon="6.63313">
        <ele>1241.9700928</ele>
        <time>2009-07-25T07:15:36Z</time>
      </trkpt>
      <trkpt lat="45.53719" lon="6.63327">
        <ele>1243.1470947</ele>
        <time>2009-07-25T07:15:42Z</time>
      </trkpt>
      <trkpt lat="45.53718" lon="6.63334">
        <ele>1243.9521484</ele>
        <time>2009-07-25T07:15:46Z</time>
      </trkpt>
      <trkpt lat="45.53711" lon="6.63338">
        <ele>1247.2885742</ele>
        <time>2009-07-25T07:15:53Z</time>
      </trkpt>
      <trkpt lat="45.53709" lon="6.63334">
        <ele>1247.8786621</ele>
        <time>2009-07-25T07:15:56Z</time>
      </trkpt>
      <trkpt lat="45.53705" lon="6.63316">
        <ele>1248.4949951</ele>
        <time>2009-07-25T07:16:06Z</time>
      </trkpt>
      <trkpt lat="45.53701" lon="6.63303">
        <ele>1249.1140137</ele>
        <time>2009-07-25T07:16:13Z</time>
      </trkpt>
      <trkpt lat="45.53698" lon="6.6329">
        <ele>1249.5220947</ele>
        <time>2009-07-25T07:16:22Z</time>
      </trkpt>
      <trkpt lat="45.53691" lon="6.63265">
        <ele>1250.0820313</ele>
        <time>2009-07-25T07:16:36Z</time>
      </trkpt>
      <trkpt lat="45.53685" lon="6.6325">
        <ele>1251.0505371</ele>
        <time>2009-07-25T07:16:45Z</time>
      </trkpt>
      <trkpt lat="45.53678" lon="6.63241">
        <ele>1252.3376465</ele>
        <time>2009-07-25T07:16:52Z</time>
      </trkpt>
      <trkpt lat="45.5367" lon="6.63232">
        <ele>1254.0255127</ele>
        <time>2009-07-25T07:17:00Z</time>
      </trkpt>
      <trkpt lat="45.5366" lon="6.63227">
        <ele>1256.4726563</ele>
        <time>2009-07-25T07:17:09Z</time>
      </trkpt>
      <trkpt lat="45.53653" lon="6.6322">
        <ele>1257.8297119</ele>
        <time>2009-07-25T07:17:16Z</time>
      </trkpt>
      <trkpt lat="45.53643" lon="6.63213">
        <ele>1259.3778076</ele>
        <time>2009-07-25T07:17:25Z</time>
      </trkpt>
      <trkpt lat="45.53637" lon="6.63207">
        <ele>1260.6987305</ele>
        <time>2009-07-25T07:17:32Z</time>
      </trkpt>
      <trkpt lat="45.53633" lon="6.63214">
        <ele>1262.8479004</ele>
        <time>2009-07-25T07:17:39Z</time>
      </trkpt>
      <trkpt lat="45.5363" lon="6.63224">
        <ele>1265.3048096</ele>
        <time>2009-07-25T07:17:48Z</time>
      </trkpt>
      <trkpt lat="45.53625" lon="6.63227">
        <ele>1267.4093018</ele>
        <time>2009-07-25T07:17:55Z</time>
      </trkpt>
      <trkpt lat="45.53624" lon="6.63233">
        <ele>1268.7757568</ele>
        <time>2009-07-25T07:18:00Z</time>
      </trkpt>
      <trkpt lat="45.53621" lon="6.63244">
        <ele>1270.9578857</ele>
        <time>2009-07-25T07:18:09Z</time>
      </trkpt>
      <trkpt lat="45.53619" lon="6.63254">
        <ele>1272.8436279</ele>
        <time>2009-07-25T07:18:16Z</time>
      </trkpt>
      <trkpt lat="45.53618" lon="6.63263">
        <ele>1274.5603027</ele>
        <time>2009-07-25T07:18:24Z</time>
      </trkpt>
      <trkpt lat="45.53617" lon="6.63273">
        <ele>1276.3112793</ele>
        <time>2009-07-25T07:18:33Z</time>
      </trkpt>
      <trkpt lat="45.53616" lon="6.63282">
        <ele>1277.8015137</ele>
        <time>2009-07-25T07:18:40Z</time>
      </trkpt>
      <trkpt lat="45.53615" lon="6.63292">
        <ele>1279.3208008</ele>
        <time>2009-07-25T07:18:48Z</time>
      </trkpt>
      <trkpt lat="45.53612" lon="6.63301">
        <ele>1281.3292236</ele>
        <time>2009-07-25T07:18:57Z</time>
      </trkpt>
      <trkpt lat="45.53608" lon="6.63308">
        <ele>1283.409668</ele>
        <time>2009-07-25T07:19:04Z</time>
      </trkpt>
      <trkpt lat="45.53606" lon="6.63317">
        <ele>1285.1022949</ele>
        <time>2009-07-25T07:19:13Z</time>
      </trkpt>
      <trkpt lat="45.53603" lon="6.63331">
        <ele>1287.8299561</ele>
        <time>2009-07-25T07:19:23Z</time>
      </trkpt>
      <trkpt lat="45.53601" lon="6.63341">
        <ele>1289.979126</ele>
        <time>2009-07-25T07:19:32Z</time>
      </trkpt>
      <trkpt lat="45.53598" lon="6.6335">
        <ele>1292.0837402</ele>
        <time>2009-07-25T07:19:40Z</time>
      </trkpt>
      <trkpt lat="45.53595" lon="6.63356">
        <ele>1293.8570557</ele>
        <time>2009-07-25T07:19:47Z</time>
      </trkpt>
      <trkpt lat="45.53592" lon="6.63365">
        <ele>1296.0285645</ele>
        <time>2009-07-25T07:19:54Z</time>
      </trkpt>
      <trkpt lat="45.53592" lon="6.63369">
        <ele>1296.5709229</ele>
        <time>2009-07-25T07:19:56Z</time>
      </trkpt>
      <trkpt lat="45.53591" lon="6.63376">
        <ele>1297.5151367</ele>
        <time>2009-07-25T07:20:00Z</time>
      </trkpt>
      <trkpt lat="45.53592" lon="6.63384">
        <ele>1298.1828613</ele>
        <time>2009-07-25T07:20:04Z</time>
      </trkpt>
      <trkpt lat="45.53593" lon="6.63398">
        <ele>1299.6685791</ele>
        <time>2009-07-25T07:20:12Z</time>
      </trkpt>
      <trkpt lat="45.53594" lon="6.63409">
        <ele>1300.9898682</ele>
        <time>2009-07-25T07:20:18Z</time>
      </trkpt>
      <trkpt lat="45.53595" lon="6.6342">
        <ele>1302.2344971</ele>
        <time>2009-07-25T07:20:24Z</time>
      </trkpt>
      <trkpt lat="45.53597" lon="6.63433">
        <ele>1303.4846191</ele>
        <time>2009-07-25T07:20:32Z</time>
      </trkpt>
      <trkpt lat="45.536" lon="6.63453">
        <ele>1305.1434326</ele>
        <time>2009-07-25T07:20:43Z</time>
      </trkpt>
      <trkpt lat="45.53602" lon="6.63471">
        <ele>1306.8890381</ele>
        <time>2009-07-25T07:20:53Z</time>
      </trkpt>
      <trkpt lat="45.53603" lon="6.63488">
        <ele>1308.2344971</ele>
        <time>2009-07-25T07:21:02Z</time>
      </trkpt>
      <trkpt lat="45.53605" lon="6.63502">
        <ele>1309.1940918</ele>
        <time>2009-07-25T07:21:10Z</time>
      </trkpt>
      <trkpt lat="45.53606" lon="6.63507">
        <ele>1309.6621094</ele>
        <time>2009-07-25T07:21:13Z</time>
      </trkpt>
      <trkpt lat="45.53612" lon="6.63517">
        <ele>1308.1306152</ele>
        <time>2009-07-25T07:21:20Z</time>
      </trkpt>
      <trkpt lat="45.53614" lon="6.63529">
        <ele>1308.8768311</ele>
        <time>2009-07-25T07:21:27Z</time>
      </trkpt>
      <trkpt lat="45.53614" lon="6.63538">
        <ele>1309.9891357</ele>
        <time>2009-07-25T07:21:31Z</time>
      </trkpt>
      <trkpt lat="45.53614" lon="6.6355">
        <ele>1310.9727783</ele>
        <time>2009-07-25T07:21:37Z</time>
      </trkpt>
      <trkpt lat="45.53615" lon="6.63557">
        <ele>1311.6213379</ele>
        <time>2009-07-25T07:21:40Z</time>
      </trkpt>
      <trkpt lat="45.53616" lon="6.63574">
        <ele>1314.2340088</ele>
        <time>2009-07-25T07:21:47Z</time>
      </trkpt>
      <trkpt lat="45.53618" lon="6.63577">
        <ele>1313.7172852</ele>
        <time>2009-07-25T07:21:49Z</time>
      </trkpt>
      <trkpt lat="45.53622" lon="6.63587">
        <ele>1313.6791992</ele>
        <time>2009-07-25T07:21:54Z</time>
      </trkpt>
      <trkpt lat="45.53622" lon="6.63589">
        <ele>1313.8553467</ele>
        <time>2009-07-25T07:21:55Z</time>
      </trkpt>
      <trkpt lat="45.53624" lon="6.63601">
        <ele>1314.5144043</ele>
        <time>2009-07-25T07:22:00Z</time>
      </trkpt>
      <trkpt lat="45.53629" lon="6.63612">
        <ele>1314.1608887</ele>
        <time>2009-07-25T07:22:06Z</time>
      </trkpt>
      <trkpt lat="45.5363" lon="6.63627">
        <ele>1314.8438721</ele>
        <time>2009-07-25T07:22:12Z</time>
      </trkpt>
      <trkpt lat="45.53631" lon="6.6363">
        <ele>1314.9029541</ele>
        <time>2009-07-25T07:22:13Z</time>
      </trkpt>
      <trkpt lat="45.53634" lon="6.63648">
        <ele>1315.3981934</ele>
        <time>2009-07-25T07:22:21Z</time>
      </trkpt>
      <trkpt lat="45.53634" lon="6.63649">
        <ele>1315.3884277</ele>
        <time>2009-07-25T07:22:22Z</time>
      </trkpt>
      <trkpt lat="45.53635" lon="6.63663">
        <ele>1316.4129639</ele>
        <time>2009-07-25T07:22:28Z</time>
      </trkpt>
      <trkpt lat="45.53638" lon="6.63673">
        <ele>1316.2518311</ele>
        <time>2009-07-25T07:22:33Z</time>
      </trkpt>
      <trkpt lat="45.53641" lon="6.63679">
        <ele>1315.1564941</ele>
        <time>2009-07-25T07:22:37Z</time>
      </trkpt>
      <trkpt lat="45.53641" lon="6.63689">
        <ele>1316.3924561</ele>
        <time>2009-07-25T07:22:41Z</time>
      </trkpt>
      <trkpt lat="45.5364" lon="6.63705">
        <ele>1318.1524658</ele>
        <time>2009-07-25T07:22:49Z</time>
      </trkpt>
      <trkpt lat="45.53639" lon="6.63722">
        <ele>1319.807373</ele>
        <time>2009-07-25T07:22:57Z</time>
      </trkpt>
      <trkpt lat="45.53639" lon="6.63728">
        <ele>1320.4384766</ele>
        <time>2009-07-25T07:23:00Z</time>
      </trkpt>
      <trkpt lat="45.53639" lon="6.63736">
        <ele>1320.8537598</ele>
        <time>2009-07-25T07:23:04Z</time>
      </trkpt>
      <trkpt lat="45.53638" lon="6.63751">
        <ele>1322.5177002</ele>
        <time>2009-07-25T07:23:11Z</time>
      </trkpt>
      <trkpt lat="45.53637" lon="6.63755">
        <ele>1323.0655518</ele>
        <time>2009-07-25T07:23:13Z</time>
      </trkpt>
      <trkpt lat="45.53639" lon="6.63767">
        <ele>1323.6616211</ele>
        <time>2009-07-25T07:23:18Z</time>
      </trkpt>
      <trkpt lat="45.53641" lon="6.63782">
        <ele>1324.1209717</ele>
        <time>2009-07-25T07:23:25Z</time>
      </trkpt>
      <trkpt lat="45.53643" lon="6.63791">
        <ele>1324.0506592</ele>
        <time>2009-07-25T07:23:29Z</time>
      </trkpt>
      <trkpt lat="45.53647" lon="6.63805">
        <ele>1323.0084229</ele>
        <time>2009-07-25T07:23:36Z</time>
      </trkpt>
      <trkpt lat="45.53647" lon="6.63806">
        <ele>1323.1209717</ele>
        <time>2009-07-25T07:23:37Z</time>
      </trkpt>
      <trkpt lat="45.53649" lon="6.63821">
        <ele>1322.8232422</ele>
        <time>2009-07-25T07:23:44Z</time>
      </trkpt>
      <trkpt lat="45.5365" lon="6.63823">
        <ele>1322.592041</ele>
        <time>2009-07-25T07:23:45Z</time>
      </trkpt>
      <trkpt lat="45.53651" lon="6.63832">
        <ele>1322.4346924</ele>
        <time>2009-07-25T07:23:50Z</time>
      </trkpt>
      <trkpt lat="45.53651" lon="6.63843">
        <ele>1322.2956543</ele>
        <time>2009-07-25T07:23:55Z</time>
      </trkpt>
      <trkpt lat="45.53651" lon="6.63846">
        <ele>1322.3760986</ele>
        <time>2009-07-25T07:23:56Z</time>
      </trkpt>
      <trkpt lat="45.5365" lon="6.63868">
        <ele>1322.3360596</ele>
        <time>2009-07-25T07:24:05Z</time>
      </trkpt>
      <trkpt lat="45.5365" lon="6.63879">
        <ele>1322.3099365</ele>
        <time>2009-07-25T07:24:10Z</time>
      </trkpt>
      <trkpt lat="45.53649" lon="6.63895">
        <ele>1322.3752441</ele>
        <time>2009-07-25T07:24:17Z</time>
      </trkpt>
      <trkpt lat="45.5365" lon="6.63903">
        <ele>1321.9760742</ele>
        <time>2009-07-25T07:24:21Z</time>
      </trkpt>
      <trkpt lat="45.5365" lon="6.63917">
        <ele>1321.8028564</ele>
        <time>2009-07-25T07:24:27Z</time>
      </trkpt>
      <trkpt lat="45.5365" lon="6.6393">
        <ele>1321.9343262</ele>
        <time>2009-07-25T07:24:33Z</time>
      </trkpt>
      <trkpt lat="45.53646" lon="6.63944">
        <ele>1323.701416</ele>
        <time>2009-07-25T07:24:40Z</time>
      </trkpt>
      <trkpt lat="45.53642" lon="6.63951">
        <ele>1325.9655762</ele>
        <time>2009-07-25T07:24:47Z</time>
      </trkpt>
      <trkpt lat="45.5364" lon="6.63951">
        <ele>1326.7969971</ele>
        <time>2009-07-25T07:24:49Z</time>
      </trkpt>
      <trkpt lat="45.53635" lon="6.63938">
        <ele>1328.5605469</ele>
        <time>2009-07-25T07:24:59Z</time>
      </trkpt>
      <trkpt lat="45.53629" lon="6.63921">
        <ele>1330.3322754</ele>
        <time>2009-07-25T07:25:10Z</time>
      </trkpt>
      <trkpt lat="45.53622" lon="6.63909">
        <ele>1332.6463623</ele>
        <time>2009-07-25T07:25:19Z</time>
      </trkpt>
      <trkpt lat="45.53617" lon="6.63897">
        <ele>1334.0782471</ele>
        <time>2009-07-25T07:25:27Z</time>
      </trkpt>
      <trkpt lat="45.53612" lon="6.63878">
        <ele>1335.4006348</ele>
        <time>2009-07-25T07:25:38Z</time>
      </trkpt>
      <trkpt lat="45.53605" lon="6.6386">
        <ele>1337.4388428</ele>
        <time>2009-07-25T07:25:50Z</time>
      </trkpt>
      <trkpt lat="45.53601" lon="6.63849">
        <ele>1338.3143311</ele>
        <time>2009-07-25T07:25:57Z</time>
      </trkpt>
      <trkpt lat="45.53599" lon="6.63841">
        <ele>1338.6920166</ele>
        <time>2009-07-25T07:26:02Z</time>
      </trkpt>
      <trkpt lat="45.53595" lon="6.63826">
        <ele>1340.0856934</ele>
        <time>2009-07-25T07:26:11Z</time>
      </trkpt>
      <trkpt lat="45.53594" lon="6.63812">
        <ele>1340.2819824</ele>
        <time>2009-07-25T07:26:18Z</time>
      </trkpt>
      <trkpt lat="45.53591" lon="6.63796">
        <ele>1340.8431396</ele>
        <time>2009-07-25T07:26:26Z</time>
      </trkpt>
      <trkpt lat="45.53589" lon="6.63787">
        <ele>1341.3511963</ele>
        <time>2009-07-25T07:26:31Z</time>
      </trkpt>
      <trkpt lat="45.53588" lon="6.63784">
        <ele>1341.6275635</ele>
        <time>2009-07-25T07:26:33Z</time>
      </trkpt>
      <trkpt lat="45.53585" lon="6.63771">
        <ele>1341.9255371</ele>
        <time>2009-07-25T07:26:39Z</time>
      </trkpt>
      <trkpt lat="45.53582" lon="6.63757">
        <ele>1342.0003662</ele>
        <time>2009-07-25T07:26:46Z</time>
      </trkpt>
      <trkpt lat="45.53578" lon="6.6374">
        <ele>1342.1818848</ele>
        <time>2009-07-25T07:26:54Z</time>
      </trkpt>
      <trkpt lat="45.53576" lon="6.63725">
        <ele>1342.0178223</ele>
        <time>2009-07-25T07:27:00Z</time>
      </trkpt>
      <trkpt lat="45.53575" lon="6.63707">
        <ele>1341.067627</ele>
        <time>2009-07-25T07:27:06Z</time>
      </trkpt>
      <trkpt lat="45.53574" lon="6.63689">
        <ele>1340.0308838</ele>
        <time>2009-07-25T07:27:12Z</time>
      </trkpt>
      <trkpt lat="45.53574" lon="6.63674">
        <ele>1339.2489014</ele>
        <time>2009-07-25T07:27:17Z</time>
      </trkpt>
      <trkpt lat="45.53572" lon="6.63663">
        <ele>1338.8564453</ele>
        <time>2009-07-25T07:27:22Z</time>
      </trkpt>
      <trkpt lat="45.53571" lon="6.6365">
        <ele>1338.4822998</ele>
        <time>2009-07-25T07:27:28Z</time>
      </trkpt>
      <trkpt lat="45.53565" lon="6.63636">
        <ele>1339.0822754</ele>
        <time>2009-07-25T07:27:36Z</time>
      </trkpt>
      <trkpt lat="45.5356" lon="6.63624">
        <ele>1339.7324219</ele>
        <time>2009-07-25T07:27:43Z</time>
      </trkpt>
      <trkpt lat="45.53554" lon="6.63614">
        <ele>1340.538208</ele>
        <time>2009-07-25T07:27:49Z</time>
      </trkpt>
      <trkpt lat="45.53549" lon="6.63606">
        <ele>1341.0588379</ele>
        <time>2009-07-25T07:27:54Z</time>
      </trkpt>
      <trkpt lat="45.53542" lon="6.63597">
        <ele>1342.1809082</ele>
        <time>2009-07-25T07:28:01Z</time>
      </trkpt>
      <trkpt lat="45.5354" lon="6.63596">
        <ele>1342.6381836</ele>
        <time>2009-07-25T07:28:03Z</time>
      </trkpt>
      <trkpt lat="45.53537" lon="6.63603">
        <ele>1343.6934814</ele>
        <time>2009-07-25T07:28:08Z</time>
      </trkpt>
      <trkpt lat="45.53534" lon="6.63619">
        <ele>1345.0992432</ele>
        <time>2009-07-25T07:28:16Z</time>
      </trkpt>
      <trkpt lat="45.53533" lon="6.63623">
        <ele>1345.3581543</ele>
        <time>2009-07-25T07:28:18Z</time>
      </trkpt>
      <trkpt lat="45.53531" lon="6.63627">
        <ele>1346.0567627</ele>
        <time>2009-07-25T07:28:23Z</time>
      </trkpt>
      <trkpt lat="45.53529" lon="6.63625">
        <ele>1346.2698975</ele>
        <time>2009-07-25T07:28:25Z</time>
      </trkpt>
      <trkpt lat="45.53523" lon="6.63615">
        <ele>1347.1114502</ele>
        <time>2009-07-25T07:28:32Z</time>
      </trkpt>
      <trkpt lat="45.53519" lon="6.63601">
        <ele>1347.604126</ele>
        <time>2009-07-25T07:28:40Z</time>
      </trkpt>
      <trkpt lat="45.53511" lon="6.63587">
        <ele>1348.819458</ele>
        <time>2009-07-25T07:28:49Z</time>
      </trkpt>
      <trkpt lat="45.53504" lon="6.63577">
        <ele>1349.9117432</ele>
        <time>2009-07-25T07:28:56Z</time>
      </trkpt>
      <trkpt lat="45.53502" lon="6.63575">
        <ele>1350.2884521</ele>
        <time>2009-07-25T07:28:58Z</time>
      </trkpt>
      <trkpt lat="45.53498" lon="6.63576">
        <ele>1351.1484375</ele>
        <time>2009-07-25T07:29:03Z</time>
      </trkpt>
      <trkpt lat="45.53492" lon="6.63577">
        <ele>1352.2196045</ele>
        <time>2009-07-25T07:29:09Z</time>
      </trkpt>
      <trkpt lat="45.53492" lon="6.63579">
        <ele>1352.3552246</ele>
        <time>2009-07-25T07:29:10Z</time>
      </trkpt>
      <trkpt lat="45.53492" lon="6.63592">
        <ele>1352.6984863</ele>
        <time>2009-07-25T07:29:15Z</time>
      </trkpt>
      <trkpt lat="45.53497" lon="6.63603">
        <ele>1352.3156738</ele>
        <time>2009-07-25T07:29:19Z</time>
      </trkpt>
      <trkpt lat="45.53501" lon="6.63615">
        <ele>1351.9763184</ele>
        <time>2009-07-25T07:29:23Z</time>
      </trkpt>
      <trkpt lat="45.53503" lon="6.63621">
        <ele>1351.6896973</ele>
        <time>2009-07-25T07:29:25Z</time>
      </trkpt>
      <trkpt lat="45.53507" lon="6.63632">
        <ele>1351.274292</ele>
        <time>2009-07-25T07:29:29Z</time>
      </trkpt>
      <trkpt lat="45.53511" lon="6.63649">
        <ele>1351.3339844</ele>
        <time>2009-07-25T07:29:34Z</time>
      </trkpt>
      <trkpt lat="45.5351" lon="6.63665">
        <ele>1352.6248779</ele>
        <time>2009-07-25T07:29:39Z</time>
      </trkpt>
      <trkpt lat="45.53511" lon="6.63666">
        <ele>1352.6798096</ele>
        <time>2009-07-25T07:29:40Z</time>
      </trkpt>
      <trkpt lat="45.5351" lon="6.63673">
        <ele>1353.1702881</ele>
        <time>2009-07-25T07:29:44Z</time>
      </trkpt>
      <trkpt lat="45.53507" lon="6.63677">
        <ele>1353.8140869</ele>
        <time>2009-07-25T07:29:49Z</time>
      </trkpt>
      <trkpt lat="45.53502" lon="6.63687">
        <ele>1355.2491455</ele>
        <time>2009-07-25T07:29:55Z</time>
      </trkpt>
      <trkpt lat="45.53497" lon="6.63697">
        <ele>1356.5921631</ele>
        <time>2009-07-25T07:30:01Z</time>
      </trkpt>
      <trkpt lat="45.53487" lon="6.63714">
        <ele>1358.5697021</ele>
        <time>2009-07-25T07:30:12Z</time>
      </trkpt>
      <trkpt lat="45.53479" lon="6.63726">
        <ele>1360.3188477</ele>
        <time>2009-07-25T07:30:21Z</time>
      </trkpt>
      <trkpt lat="45.53473" lon="6.63737">
        <ele>1362.4836426</ele>
        <time>2009-07-25T07:30:29Z</time>
      </trkpt>
      <trkpt lat="45.53468" lon="6.63744">
        <ele>1364.2188721</ele>
        <time>2009-07-25T07:30:35Z</time>
      </trkpt>
      <trkpt lat="45.53463" lon="6.63753">
        <ele>1365.9020996</ele>
        <time>2009-07-25T07:30:42Z</time>
      </trkpt>
      <trkpt lat="45.53457" lon="6.63762">
        <ele>1367.6015625</ele>
        <time>2009-07-25T07:30:49Z</time>
      </trkpt>
      <trkpt lat="45.53452" lon="6.6377">
        <ele>1369.0744629</ele>
        <time>2009-07-25T07:30:56Z</time>
      </trkpt>
      <trkpt lat="45.53447" lon="6.63778">
        <ele>1370.598877</ele>
        <time>2009-07-25T07:31:03Z</time>
      </trkpt>
      <trkpt lat="45.53441" lon="6.63788">
        <ele>1372.84021</ele>
        <time>2009-07-25T07:31:11Z</time>
      </trkpt>
      <trkpt lat="45.53432" lon="6.63799">
        <ele>1376.0906982</ele>
        <time>2009-07-25T07:31:20Z</time>
      </trkpt>
      <trkpt lat="45.53427" lon="6.63804">
        <ele>1377.9304199</ele>
        <time>2009-07-25T07:31:27Z</time>
      </trkpt>
      <trkpt lat="45.5342" lon="6.63811">
        <ele>1380.223999</ele>
        <time>2009-07-25T07:31:36Z</time>
      </trkpt>
      <trkpt lat="45.53413" lon="6.6382">
        <ele>1382.5421143</ele>
        <time>2009-07-25T07:31:46Z</time>
      </trkpt>
      <trkpt lat="45.53407" lon="6.63828">
        <ele>1384.3686523</ele>
        <time>2009-07-25T07:31:54Z</time>
      </trkpt>
      <trkpt lat="45.53399" lon="6.63835">
        <ele>1386.5646973</ele>
        <time>2009-07-25T07:32:04Z</time>
      </trkpt>
      <trkpt lat="45.53391" lon="6.63842">
        <ele>1388.7233887</ele>
        <time>2009-07-25T07:32:13Z</time>
      </trkpt>
      <trkpt lat="45.53382" lon="6.63847">
        <ele>1390.979248</ele>
        <time>2009-07-25T07:32:23Z</time>
      </trkpt>
      <trkpt lat="45.53374" lon="6.63852">
        <ele>1393.0390625</ele>
        <time>2009-07-25T07:32:32Z</time>
      </trkpt>
      <trkpt lat="45.53365" lon="6.6386">
        <ele>1395.1676025</ele>
        <time>2009-07-25T07:32:42Z</time>
      </trkpt>
      <trkpt lat="45.53358" lon="6.63871">
        <ele>1397.2429199</ele>
        <time>2009-07-25T07:32:50Z</time>
      </trkpt>
      <trkpt lat="45.53351" lon="6.63885">
        <ele>1399.0982666</ele>
        <time>2009-07-25T07:32:59Z</time>
      </trkpt>
      <trkpt lat="45.53347" lon="6.63895">
        <ele>1400.1270752</ele>
        <time>2009-07-25T07:33:06Z</time>
      </trkpt>
      <trkpt lat="45.53342" lon="6.63904">
        <ele>1401.0334473</ele>
        <time>2009-07-25T07:33:12Z</time>
      </trkpt>
      <trkpt lat="45.53338" lon="6.6392">
        <ele>1402.0410156</ele>
        <time>2009-07-25T07:33:21Z</time>
      </trkpt>
      <trkpt lat="45.53333" lon="6.63934">
        <ele>1403.1303711</ele>
        <time>2009-07-25T07:33:29Z</time>
      </trkpt>
      <trkpt lat="45.53329" lon="6.63946">
        <ele>1404.1601563</ele>
        <time>2009-07-25T07:33:36Z</time>
      </trkpt>
      <trkpt lat="45.53325" lon="6.63958">
        <ele>1405.526123</ele>
        <time>2009-07-25T07:33:43Z</time>
      </trkpt>
      <trkpt lat="45.53321" lon="6.63971">
        <ele>1406.7275391</ele>
        <time>2009-07-25T07:33:51Z</time>
      </trkpt>
      <trkpt lat="45.53316" lon="6.63985">
        <ele>1407.5391846</ele>
        <time>2009-07-25T07:33:59Z</time>
      </trkpt>
      <trkpt lat="45.53311" lon="6.63999">
        <ele>1408.5968018</ele>
        <time>2009-07-25T07:34:06Z</time>
      </trkpt>
      <trkpt lat="45.53307" lon="6.64011">
        <ele>1409.1416016</ele>
        <time>2009-07-25T07:34:13Z</time>
      </trkpt>
      <trkpt lat="45.53303" lon="6.6402">
        <ele>1410.1999512</ele>
        <time>2009-07-25T07:34:20Z</time>
      </trkpt>
      <trkpt lat="45.53297" lon="6.64026">
        <ele>1412.0697021</ele>
        <time>2009-07-25T07:34:26Z</time>
      </trkpt>
      <trkpt lat="45.53293" lon="6.64034">
        <ele>1413.6782227</ele>
        <time>2009-07-25T07:34:31Z</time>
      </trkpt>
      <trkpt lat="45.53291" lon="6.6405">
        <ele>1414.8358154</ele>
        <time>2009-07-25T07:34:39Z</time>
      </trkpt>
      <trkpt lat="45.53289" lon="6.64067">
        <ele>1415.8608398</ele>
        <time>2009-07-25T07:34:47Z</time>
      </trkpt>
      <trkpt lat="45.53287" lon="6.6408">
        <ele>1416.7298584</ele>
        <time>2009-07-25T07:34:52Z</time>
      </trkpt>
      <trkpt lat="45.53286" lon="6.64089">
        <ele>1416.9954834</ele>
        <time>2009-07-25T07:34:56Z</time>
      </trkpt>
      <trkpt lat="45.53285" lon="6.64103">
        <ele>1416.755127</ele>
        <time>2009-07-25T07:35:03Z</time>
      </trkpt>
      <trkpt lat="45.53283" lon="6.64119">
        <ele>1416.3137207</ele>
        <time>2009-07-25T07:35:11Z</time>
      </trkpt>
      <trkpt lat="45.53281" lon="6.6413">
        <ele>1415.9492188</ele>
        <time>2009-07-25T07:35:17Z</time>
      </trkpt>
      <trkpt lat="45.53278" lon="6.64142">
        <ele>1415.829834</ele>
        <time>2009-07-25T07:35:24Z</time>
      </trkpt>
      <trkpt lat="45.53276" lon="6.64156">
        <ele>1415.8597412</ele>
        <time>2009-07-25T07:35:31Z</time>
      </trkpt>
      <trkpt lat="45.53275" lon="6.64169">
        <ele>1416.2913818</ele>
        <time>2009-07-25T07:35:36Z</time>
      </trkpt>
      <trkpt lat="45.5327" lon="6.64184">
        <ele>1418.1119385</ele>
        <time>2009-07-25T07:35:43Z</time>
      </trkpt>
      <trkpt lat="45.53267" lon="6.64199">
        <ele>1420.0924072</ele>
        <time>2009-07-25T07:35:50Z</time>
      </trkpt>
      <trkpt lat="45.53265" lon="6.64215">
        <ele>1421.5977783</ele>
        <time>2009-07-25T07:35:57Z</time>
      </trkpt>
      <trkpt lat="45.53265" lon="6.64233">
        <ele>1421.8140869</ele>
        <time>2009-07-25T07:36:03Z</time>
      </trkpt>
      <trkpt lat="45.53265" lon="6.64245">
        <ele>1421.439209</ele>
        <time>2009-07-25T07:36:07Z</time>
      </trkpt>
      <trkpt lat="45.53265" lon="6.64258">
        <ele>1420.4102783</ele>
        <time>2009-07-25T07:36:13Z</time>
      </trkpt>
      <trkpt lat="45.5326" lon="6.64269">
        <ele>1420.8487549</ele>
        <time>2009-07-25T07:36:20Z</time>
      </trkpt>
      <trkpt lat="45.53256" lon="6.64282">
        <ele>1420.8466797</ele>
        <time>2009-07-25T07:36:27Z</time>
      </trkpt>
      <trkpt lat="45.5325" lon="6.64294">
        <ele>1421.1762695</ele>
        <time>2009-07-25T07:36:34Z</time>
      </trkpt>
      <trkpt lat="45.53245" lon="6.64305">
        <ele>1421.5765381</ele>
        <time>2009-07-25T07:36:41Z</time>
      </trkpt>
      <trkpt lat="45.53242" lon="6.64308">
        <ele>1422.1556396</ele>
        <time>2009-07-25T07:36:45Z</time>
      </trkpt>
      <trkpt lat="45.53235" lon="6.64317">
        <ele>1423.2207031</ele>
        <time>2009-07-25T07:36:52Z</time>
      </trkpt>
      <trkpt lat="45.53226" lon="6.64327">
        <ele>1425.1141357</ele>
        <time>2009-07-25T07:37:00Z</time>
      </trkpt>
      <trkpt lat="45.53222" lon="6.64332">
        <ele>1426.2838135</ele>
        <time>2009-07-25T07:37:05Z</time>
      </trkpt>
      <trkpt lat="45.53217" lon="6.64338">
        <ele>1428.163208</ele>
        <time>2009-07-25T07:37:09Z</time>
      </trkpt>
      <trkpt lat="45.53212" lon="6.64343">
        <ele>1430.2883301</ele>
        <time>2009-07-25T07:37:14Z</time>
      </trkpt>
      <trkpt lat="45.53207" lon="6.64351">
        <ele>1432.5679932</ele>
        <time>2009-07-25T07:37:21Z</time>
      </trkpt>
      <trkpt lat="45.53203" lon="6.64357">
        <ele>1434.0683594</ele>
        <time>2009-07-25T07:37:25Z</time>
      </trkpt>
      <trkpt lat="45.53199" lon="6.64366">
        <ele>1435.3522949</ele>
        <time>2009-07-25T07:37:32Z</time>
      </trkpt>
      <trkpt lat="45.53193" lon="6.6438">
        <ele>1436.5927734</ele>
        <time>2009-07-25T07:37:39Z</time>
      </trkpt>
      <trkpt lat="45.53191" lon="6.64393">
        <ele>1436.1860352</ele>
        <time>2009-07-25T07:37:46Z</time>
      </trkpt>
      <trkpt lat="45.53187" lon="6.64403">
        <ele>1436.7473145</ele>
        <time>2009-07-25T07:37:52Z</time>
      </trkpt>
      <trkpt lat="45.53181" lon="6.64419">
        <ele>1437.3343506</ele>
        <time>2009-07-25T07:38:01Z</time>
      </trkpt>
      <trkpt lat="45.53176" lon="6.64432">
        <ele>1438.2871094</ele>
        <time>2009-07-25T07:38:07Z</time>
      </trkpt>
      <trkpt lat="45.53171" lon="6.64447">
        <ele>1438.6486816</ele>
        <time>2009-07-25T07:38:15Z</time>
      </trkpt>
      <trkpt lat="45.53164" lon="6.64461">
        <ele>1437.5554199</ele>
        <time>2009-07-25T07:38:24Z</time>
      </trkpt>
      <trkpt lat="45.53156" lon="6.64473">
        <ele>1437.8540039</ele>
        <time>2009-07-25T07:38:33Z</time>
      </trkpt>
      <trkpt lat="45.53145" lon="6.64481">
        <ele>1439.8109131</ele>
        <time>2009-07-25T07:38:41Z</time>
      </trkpt>
      <trkpt lat="45.53137" lon="6.64486">
        <ele>1441.7927246</ele>
        <time>2009-07-25T07:38:48Z</time>
      </trkpt>
      <trkpt lat="45.53127" lon="6.64492">
        <ele>1443.3359375</ele>
        <time>2009-07-25T07:38:56Z</time>
      </trkpt>
      <trkpt lat="45.53116" lon="6.64505">
        <ele>1443.5249023</ele>
        <time>2009-07-25T07:39:05Z</time>
      </trkpt>
      <trkpt lat="45.53109" lon="6.6451">
        <ele>1444.8419189</ele>
        <time>2009-07-25T07:39:11Z</time>
      </trkpt>
      <trkpt lat="45.53099" lon="6.64519">
        <ele>1449.2247314</ele>
        <time>2009-07-25T07:39:19Z</time>
      </trkpt>
      <trkpt lat="45.53091" lon="6.64527">
        <ele>1454.7230225</ele>
        <time>2009-07-25T07:39:27Z</time>
      </trkpt>
      <trkpt lat="45.53085" lon="6.64536">
        <ele>1457.6916504</ele>
        <time>2009-07-25T07:39:34Z</time>
      </trkpt>
      <trkpt lat="45.53082" lon="6.64548">
        <ele>1458.2410889</ele>
        <time>2009-07-25T07:39:41Z</time>
      </trkpt>
      <trkpt lat="45.53081" lon="6.6456">
        <ele>1456.7724609</ele>
        <time>2009-07-25T07:39:48Z</time>
      </trkpt>
      <trkpt lat="45.5308" lon="6.64573">
        <ele>1455.5438232</ele>
        <time>2009-07-25T07:39:54Z</time>
      </trkpt>
      <trkpt lat="45.53076" lon="6.64585">
        <ele>1455.6959229</ele>
        <time>2009-07-25T07:40:01Z</time>
      </trkpt>
      <trkpt lat="45.53072" lon="6.64594">
        <ele>1456.7763672</ele>
        <time>2009-07-25T07:40:07Z</time>
      </trkpt>
      <trkpt lat="45.53066" lon="6.64604">
        <ele>1457.6032715</ele>
        <time>2009-07-25T07:40:13Z</time>
      </trkpt>
      <trkpt lat="45.5306" lon="6.64613">
        <ele>1458.262207</ele>
        <time>2009-07-25T07:40:20Z</time>
      </trkpt>
      <trkpt lat="45.53058" lon="6.64622">
        <ele>1458.7960205</ele>
        <time>2009-07-25T07:40:25Z</time>
      </trkpt>
      <trkpt lat="45.53055" lon="6.64638">
        <ele>1459.2355957</ele>
        <time>2009-07-25T07:40:32Z</time>
      </trkpt>
      <trkpt lat="45.53054" lon="6.64654">
        <ele>1458.4539795</ele>
        <time>2009-07-25T07:40:38Z</time>
      </trkpt>
      <trkpt lat="45.53056" lon="6.6466">
        <ele>1457.3553467</ele>
        <time>2009-07-25T07:40:40Z</time>
      </trkpt>
      <trkpt lat="45.53054" lon="6.64668">
        <ele>1457.4324951</ele>
        <time>2009-07-25T07:40:44Z</time>
      </trkpt>
      <trkpt lat="45.53052" lon="6.64681">
        <ele>1457.5457764</ele>
        <time>2009-07-25T07:40:51Z</time>
      </trkpt>
      <trkpt lat="45.53051" lon="6.64686">
        <ele>1457.7724609</ele>
        <time>2009-07-25T07:40:53Z</time>
      </trkpt>
      <trkpt lat="45.53049" lon="6.64694">
        <ele>1458.0882568</ele>
        <time>2009-07-25T07:40:58Z</time>
      </trkpt>
      <trkpt lat="45.53043" lon="6.64708">
        <ele>1459.2415771</ele>
        <time>2009-07-25T07:41:06Z</time>
      </trkpt>
      <trkpt lat="45.53037" lon="6.64717">
        <ele>1461.4456787</ele>
        <time>2009-07-25T07:41:12Z</time>
      </trkpt>
      <trkpt lat="45.53029" lon="6.64727">
        <ele>1463.7711182</ele>
        <time>2009-07-25T07:41:19Z</time>
      </trkpt>
      <trkpt lat="45.53024" lon="6.64737">
        <ele>1465.5939941</ele>
        <time>2009-07-25T07:41:25Z</time>
      </trkpt>
      <trkpt lat="45.53019" lon="6.64747">
        <ele>1466.8746338</ele>
        <time>2009-07-25T07:41:30Z</time>
      </trkpt>
      <trkpt lat="45.53018" lon="6.64759">
        <ele>1466.7659912</ele>
        <time>2009-07-25T07:41:36Z</time>
      </trkpt>
      <trkpt lat="45.53016" lon="6.6477">
        <ele>1466.7351074</ele>
        <time>2009-07-25T07:41:42Z</time>
      </trkpt>
      <trkpt lat="45.53016" lon="6.64779">
        <ele>1466.5299072</ele>
        <time>2009-07-25T07:41:46Z</time>
      </trkpt>
      <trkpt lat="45.53011" lon="6.64793">
        <ele>1467.487793</ele>
        <time>2009-07-25T07:41:52Z</time>
      </trkpt>
      <trkpt lat="45.53009" lon="6.648">
        <ele>1467.5391846</ele>
        <time>2009-07-25T07:41:55Z</time>
      </trkpt>
      <trkpt lat="45.53008" lon="6.64811">
        <ele>1467.2375488</ele>
        <time>2009-07-25T07:41:59Z</time>
      </trkpt>
      <trkpt lat="45.53009" lon="6.64822">
        <ele>1465.8197021</ele>
        <time>2009-07-25T07:42:03Z</time>
      </trkpt>
      <trkpt lat="45.53008" lon="6.6484">
        <ele>1464.6358643</ele>
        <time>2009-07-25T07:42:09Z</time>
      </trkpt>
      <trkpt lat="45.53007" lon="6.64853">
        <ele>1463.5509033</ele>
        <time>2009-07-25T07:42:13Z</time>
      </trkpt>
      <trkpt lat="45.53003" lon="6.64877">
        <ele>1462.4350586</ele>
        <time>2009-07-25T07:42:19Z</time>
      </trkpt>
      <trkpt lat="45.53" lon="6.64886">
        <ele>1462.3271484</ele>
        <time>2009-07-25T07:42:22Z</time>
      </trkpt>
      <trkpt lat="45.52998" lon="6.64895">
        <ele>1460.5888672</ele>
        <time>2009-07-25T07:42:25Z</time>
      </trkpt>
      <trkpt lat="45.52996" lon="6.64908">
        <ele>1456.4935303</ele>
        <time>2009-07-25T07:42:30Z</time>
      </trkpt>
      <trkpt lat="45.52995" lon="6.64913">
        <ele>1455.2462158</ele>
        <time>2009-07-25T07:42:32Z</time>
      </trkpt>
      <trkpt lat="45.52989" lon="6.64924">
        <ele>1450.6328125</ele>
        <time>2009-07-25T07:42:39Z</time>
      </trkpt>
      <trkpt lat="45.52981" lon="6.64933">
        <ele>1446.5129395</ele>
        <time>2009-07-25T07:42:45Z</time>
      </trkpt>
      <trkpt lat="45.5297" lon="6.64939">
        <ele>1445.1274414</ele>
        <time>2009-07-25T07:42:52Z</time>
      </trkpt>
      <trkpt lat="45.52957" lon="6.64947">
        <ele>1447.5484619</ele>
        <time>2009-07-25T07:42:59Z</time>
      </trkpt>
      <trkpt lat="45.5295" lon="6.64949">
        <ele>1450.4084473</ele>
        <time>2009-07-25T07:43:05Z</time>
      </trkpt>
      <trkpt lat="45.52943" lon="6.64951">
        <ele>1452.8172607</ele>
        <time>2009-07-25T07:43:11Z</time>
      </trkpt>
      <trkpt lat="45.52935" lon="6.64957">
        <ele>1455.7272949</ele>
        <time>2009-07-25T07:43:16Z</time>
      </trkpt>
      <trkpt lat="45.52926" lon="6.64968">
        <ele>1460.4187012</ele>
        <time>2009-07-25T07:43:22Z</time>
      </trkpt>
      <trkpt lat="45.52926" lon="6.64981">
        <ele>1462.8847656</ele>
        <time>2009-07-25T07:43:27Z</time>
      </trkpt>
      <trkpt lat="45.52932" lon="6.64989">
        <ele>1461.9401855</ele>
        <time>2009-07-25T07:43:32Z</time>
      </trkpt>
      <trkpt lat="45.52936" lon="6.64991">
        <ele>1460.1201172</ele>
        <time>2009-07-25T07:43:34Z</time>
      </trkpt>
      <trkpt lat="45.52946" lon="6.64999">
        <ele>1457.0386963</ele>
        <time>2009-07-25T07:43:40Z</time>
      </trkpt>
      <trkpt lat="45.52951" lon="6.65003">
        <ele>1457.0479736</ele>
        <time>2009-07-25T07:43:45Z</time>
      </trkpt>
      <trkpt lat="45.52957" lon="6.6501">
        <ele>1457.4675293</ele>
        <time>2009-07-25T07:43:51Z</time>
      </trkpt>
      <trkpt lat="45.52962" lon="6.65021">
        <ele>1459.5517578</ele>
        <time>2009-07-25T07:43:58Z</time>
      </trkpt>
      <trkpt lat="45.52966" lon="6.65034">
        <ele>1460.0526123</ele>
        <time>2009-07-25T07:44:05Z</time>
      </trkpt>
      <trkpt lat="45.52966" lon="6.65048">
        <ele>1458.9632568</ele>
        <time>2009-07-25T07:44:11Z</time>
      </trkpt>
      <trkpt lat="45.52963" lon="6.65064">
        <ele>1457.9277344</ele>
        <time>2009-07-25T07:44:17Z</time>
      </trkpt>
      <trkpt lat="45.52955" lon="6.65074">
        <ele>1458.5245361</ele>
        <time>2009-07-25T07:44:23Z</time>
      </trkpt>
      <trkpt lat="45.52948" lon="6.65079">
        <ele>1460.3238525</ele>
        <time>2009-07-25T07:44:29Z</time>
      </trkpt>
      <trkpt lat="45.5294" lon="6.65084">
        <ele>1462.6522217</ele>
        <time>2009-07-25T07:44:35Z</time>
      </trkpt>
      <trkpt lat="45.52932" lon="6.65095">
        <ele>1462.7694092</ele>
        <time>2009-07-25T07:44:42Z</time>
      </trkpt>
      <trkpt lat="45.52925" lon="6.65105">
        <ele>1462.0880127</ele>
        <time>2009-07-25T07:44:49Z</time>
      </trkpt>
      <trkpt lat="45.5292" lon="6.65113">
        <ele>1461.4580078</ele>
        <time>2009-07-25T07:44:54Z</time>
      </trkpt>
      <trkpt lat="45.52914" lon="6.65121">
        <ele>1461.2429199</ele>
        <time>2009-07-25T07:45:00Z</time>
      </trkpt>
      <trkpt lat="45.52906" lon="6.65132">
        <ele>1461.4372559</ele>
        <time>2009-07-25T07:45:08Z</time>
      </trkpt>
      <trkpt lat="45.529" lon="6.6514">
        <ele>1461.3197021</ele>
        <time>2009-07-25T07:45:14Z</time>
      </trkpt>
      <trkpt lat="45.52889" lon="6.65148">
        <ele>1464.0539551</ele>
        <time>2009-07-25T07:45:22Z</time>
      </trkpt>
      <trkpt lat="45.52879" lon="6.6516">
        <ele>1466.8435059</ele>
        <time>2009-07-25T07:45:30Z</time>
      </trkpt>
      <trkpt lat="45.52877" lon="6.65174">
        <ele>1468.0780029</ele>
        <time>2009-07-25T07:45:36Z</time>
      </trkpt>
      <trkpt lat="45.52877" lon="6.65184">
        <ele>1469.4407959</ele>
        <time>2009-07-25T07:45:40Z</time>
      </trkpt>
      <trkpt lat="45.52884" lon="6.65195">
        <ele>1469.5021973</ele>
        <time>2009-07-25T07:45:46Z</time>
      </trkpt>
      <trkpt lat="45.52891" lon="6.65205">
        <ele>1470.7042236</ele>
        <time>2009-07-25T07:45:52Z</time>
      </trkpt>
      <trkpt lat="45.52891" lon="6.65208">
        <ele>1471.5272217</ele>
        <time>2009-07-25T07:45:54Z</time>
      </trkpt>
      <trkpt lat="45.52893" lon="6.65221">
        <ele>1474.7753906</ele>
        <time>2009-07-25T07:46:03Z</time>
      </trkpt>
      <trkpt lat="45.52897" lon="6.65233">
        <ele>1478.1436768</ele>
        <time>2009-07-25T07:46:10Z</time>
      </trkpt>
      <trkpt lat="45.52899" lon="6.65241">
        <ele>1480.2679443</ele>
        <time>2009-07-25T07:46:15Z</time>
      </trkpt>
      <trkpt lat="45.52904" lon="6.65251">
        <ele>1481.7902832</ele>
        <time>2009-07-25T07:46:22Z</time>
      </trkpt>
      <trkpt lat="45.52906" lon="6.65257">
        <ele>1482.3807373</ele>
        <time>2009-07-25T07:46:27Z</time>
      </trkpt>
      <trkpt lat="45.52909" lon="6.65263">
        <ele>1483.3626709</ele>
        <time>2009-07-25T07:46:31Z</time>
      </trkpt>
      <trkpt lat="45.5291" lon="6.6527">
        <ele>1485.1066895</ele>
        <time>2009-07-25T07:46:35Z</time>
      </trkpt>
      <trkpt lat="45.52916" lon="6.65284">
        <ele>1485.8648682</ele>
        <time>2009-07-25T07:46:43Z</time>
      </trkpt>
      <trkpt lat="45.5292" lon="6.65297">
        <ele>1487.4450684</ele>
        <time>2009-07-25T07:46:51Z</time>
      </trkpt>
      <trkpt lat="45.52925" lon="6.65309">
        <ele>1486.9932861</ele>
        <time>2009-07-25T07:46:59Z</time>
      </trkpt>
      <trkpt lat="45.52925" lon="6.65326">
        <ele>1483.4249268</ele>
        <time>2009-07-25T07:47:07Z</time>
      </trkpt>
      <trkpt lat="45.52924" lon="6.65328">
        <ele>1483.1401367</ele>
        <time>2009-07-25T07:47:08Z</time>
      </trkpt>
      <trkpt lat="45.52921" lon="6.65344">
        <ele>1482.692749</ele>
        <time>2009-07-25T07:47:17Z</time>
      </trkpt>
      <trkpt lat="45.52917" lon="6.65347">
        <ele>1483.7364502</ele>
        <time>2009-07-25T07:47:22Z</time>
      </trkpt>
      <trkpt lat="45.52913" lon="6.65351">
        <ele>1484.9788818</ele>
        <time>2009-07-25T07:47:28Z</time>
      </trkpt>
      <trkpt lat="45.52902" lon="6.65362">
        <ele>1488.0072021</ele>
        <time>2009-07-25T07:47:32Z</time>
      </trkpt>
      <trkpt lat="45.52898" lon="6.65364">
        <ele>1489.4840088</ele>
        <time>2009-07-25T07:47:37Z</time>
      </trkpt>
      <trkpt lat="45.52885" lon="6.65371">
        <ele>1494.3100586</ele>
        <time>2009-07-25T07:47:43Z</time>
      </trkpt>
      <trkpt lat="45.52883" lon="6.65372">
        <ele>1495.2889404</ele>
        <time>2009-07-25T07:47:50Z</time>
      </trkpt>
      <trkpt lat="45.52885" lon="6.65376">
        <ele>1495.6231689</ele>
        <time>2009-07-25T07:47:55Z</time>
      </trkpt>
      <trkpt lat="45.52888" lon="6.65378">
        <ele>1495.4002686</ele>
        <time>2009-07-25T07:47:57Z</time>
      </trkpt>
      <trkpt lat="45.5289" lon="6.65384">
        <ele>1496.3928223</ele>
        <time>2009-07-25T07:48:06Z</time>
      </trkpt>
      <trkpt lat="45.5289" lon="6.65386">
        <ele>1496.9650879</ele>
        <time>2009-07-25T07:48:10Z</time>
      </trkpt>
      <trkpt lat="45.52893" lon="6.65392">
        <ele>1497.5880127</ele>
        <time>2009-07-25T07:48:16Z</time>
      </trkpt>
      <trkpt lat="45.52897" lon="6.65398">
        <ele>1498.4394531</ele>
        <time>2009-07-25T07:48:21Z</time>
      </trkpt>
      <trkpt lat="45.52899" lon="6.65412">
        <ele>1501.6804199</ele>
        <time>2009-07-25T07:48:29Z</time>
      </trkpt>
      <trkpt lat="45.529" lon="6.65421">
        <ele>1502.479126</ele>
        <time>2009-07-25T07:48:35Z</time>
      </trkpt>
      <trkpt lat="45.52901" lon="6.65423">
        <ele>1502.1512451</ele>
        <time>2009-07-25T07:48:36Z</time>
      </trkpt>
      <trkpt lat="45.529" lon="6.65436">
        <ele>1501.8306885</ele>
        <time>2009-07-25T07:48:44Z</time>
      </trkpt>
      <trkpt lat="45.52892" lon="6.65442">
        <ele>1504.2244873</ele>
        <time>2009-07-25T07:48:53Z</time>
      </trkpt>
      <trkpt lat="45.52885" lon="6.65447">
        <ele>1506.746582</ele>
        <time>2009-07-25T07:48:59Z</time>
      </trkpt>
      <trkpt lat="45.52878" lon="6.65456">
        <ele>1509.0537109</ele>
        <time>2009-07-25T07:49:05Z</time>
      </trkpt>
      <trkpt lat="45.52872" lon="6.65466">
        <ele>1511.3157959</ele>
        <time>2009-07-25T07:49:11Z</time>
      </trkpt>
      <trkpt lat="45.52871" lon="6.6548">
        <ele>1510.7642822</ele>
        <time>2009-07-25T07:49:18Z</time>
      </trkpt>
      <trkpt lat="45.52871" lon="6.65502">
        <ele>1510.0030518</ele>
        <time>2009-07-25T07:49:24Z</time>
      </trkpt>
      <trkpt lat="45.52871" lon="6.65516">
        <ele>1509.8557129</ele>
        <time>2009-07-25T07:49:28Z</time>
      </trkpt>
      <trkpt lat="45.52877" lon="6.65538">
        <ele>1507.0802002</ele>
        <time>2009-07-25T07:49:34Z</time>
      </trkpt>
      <trkpt lat="45.5288" lon="6.65554">
        <ele>1505.8820801</ele>
        <time>2009-07-25T07:49:39Z</time>
      </trkpt>
      <trkpt lat="45.5288" lon="6.65562">
        <ele>1506.1652832</ele>
        <time>2009-07-25T07:49:42Z</time>
      </trkpt>
      <trkpt lat="45.52887" lon="6.65577">
        <ele>1503.8513184</ele>
        <time>2009-07-25T07:49:48Z</time>
      </trkpt>
      <trkpt lat="45.52891" lon="6.65591">
        <ele>1502.3880615</ele>
        <time>2009-07-25T07:49:53Z</time>
      </trkpt>
      <trkpt lat="45.52896" lon="6.65608">
        <ele>1500.6577148</ele>
        <time>2009-07-25T07:50:00Z</time>
      </trkpt>
      <trkpt lat="45.52899" lon="6.65619">
        <ele>1499.7924805</ele>
        <time>2009-07-25T07:50:04Z</time>
      </trkpt>
      <trkpt lat="45.52902" lon="6.65635">
        <ele>1498.6801758</ele>
        <time>2009-07-25T07:50:09Z</time>
      </trkpt>
      <trkpt lat="45.52904" lon="6.65649">
        <ele>1498.0622559</ele>
        <time>2009-07-25T07:50:14Z</time>
      </trkpt>
      <trkpt lat="45.52903" lon="6.65654">
        <ele>1498.4329834</ele>
        <time>2009-07-25T07:50:17Z</time>
      </trkpt>
      <trkpt lat="45.52902" lon="6.65657">
        <ele>1498.6801758</ele>
        <time>2009-07-25T07:50:19Z</time>
      </trkpt>
      <trkpt lat="45.52905" lon="6.6567">
        <ele>1497.8858643</ele>
        <time>2009-07-25T07:50:26Z</time>
      </trkpt>
      <trkpt lat="45.52908" lon="6.6568">
        <ele>1496.7888184</ele>
        <time>2009-07-25T07:50:31Z</time>
      </trkpt>
      <trkpt lat="45.5291" lon="6.65691">
        <ele>1495.9949951</ele>
        <time>2009-07-25T07:50:37Z</time>
      </trkpt>
      <trkpt lat="45.52909" lon="6.65707">
        <ele>1495.8453369</ele>
        <time>2009-07-25T07:50:43Z</time>
      </trkpt>
      <trkpt lat="45.52908" lon="6.65715">
        <ele>1495.958374</ele>
        <time>2009-07-25T07:50:45Z</time>
      </trkpt>
      <trkpt lat="45.52908" lon="6.65732">
        <ele>1495.611084</ele>
        <time>2009-07-25T07:50:50Z</time>
      </trkpt>
      <trkpt lat="45.52902" lon="6.65746">
        <ele>1496.2633057</ele>
        <time>2009-07-25T07:50:55Z</time>
      </trkpt>
      <trkpt lat="45.52899" lon="6.65761">
        <ele>1496.0495605</ele>
        <time>2009-07-25T07:51:00Z</time>
      </trkpt>
      <trkpt lat="45.52899" lon="6.65766">
        <ele>1495.6512451</ele>
        <time>2009-07-25T07:51:02Z</time>
      </trkpt>
      <trkpt lat="45.52897" lon="6.65781">
        <ele>1495.1427002</ele>
        <time>2009-07-25T07:51:07Z</time>
      </trkpt>
      <trkpt lat="45.52893" lon="6.65796">
        <ele>1494.859375</ele>
        <time>2009-07-25T07:51:12Z</time>
      </trkpt>
      <trkpt lat="45.52892" lon="6.65812">
        <ele>1493.8978271</ele>
        <time>2009-07-25T07:51:17Z</time>
      </trkpt>
      <trkpt lat="45.52891" lon="6.65832">
        <ele>1492.4949951</ele>
        <time>2009-07-25T07:51:24Z</time>
      </trkpt>
      <trkpt lat="45.52889" lon="6.65852">
        <ele>1491.5524902</ele>
        <time>2009-07-25T07:51:33Z</time>
      </trkpt>
      <trkpt lat="45.5289" lon="6.65861">
        <ele>1490.7075195</ele>
        <time>2009-07-25T07:51:36Z</time>
      </trkpt>
      <trkpt lat="45.5289" lon="6.65871">
        <ele>1489.9558105</ele>
        <time>2009-07-25T07:51:40Z</time>
      </trkpt>
      <trkpt lat="45.52889" lon="6.65881">
        <ele>1489.592041</ele>
        <time>2009-07-25T07:51:43Z</time>
      </trkpt>
      <trkpt lat="45.52882" lon="6.65904">
        <ele>1490.5826416</ele>
        <time>2009-07-25T07:51:50Z</time>
      </trkpt>
      <trkpt lat="45.52877" lon="6.65916">
        <ele>1491.4541016</ele>
        <time>2009-07-25T07:51:54Z</time>
      </trkpt>
      <trkpt lat="45.52875" lon="6.65928">
        <ele>1490.0772705</ele>
        <time>2009-07-25T07:51:58Z</time>
      </trkpt>
      <trkpt lat="45.5288" lon="6.65949">
        <ele>1485.7873535</ele>
        <time>2009-07-25T07:52:05Z</time>
      </trkpt>
      <trkpt lat="45.52879" lon="6.65966">
        <ele>1484.8603516</ele>
        <time>2009-07-25T07:52:11Z</time>
      </trkpt>
      <trkpt lat="45.52878" lon="6.65971">
        <ele>1484.8535156</ele>
        <time>2009-07-25T07:52:14Z</time>
      </trkpt>
      <trkpt lat="45.52875" lon="6.65982">
        <ele>1484.791748</ele>
        <time>2009-07-25T07:52:19Z</time>
      </trkpt>
      <trkpt lat="45.52873" lon="6.65995">
        <ele>1484.2939453</ele>
        <time>2009-07-25T07:52:25Z</time>
      </trkpt>
      <trkpt lat="45.52868" lon="6.66008">
        <ele>1484.6972656</ele>
        <time>2009-07-25T07:52:32Z</time>
      </trkpt>
      <trkpt lat="45.52865" lon="6.66018">
        <ele>1484.7799072</ele>
        <time>2009-07-25T07:52:37Z</time>
      </trkpt>
      <trkpt lat="45.5286" lon="6.66027">
        <ele>1485.4814453</ele>
        <time>2009-07-25T07:52:43Z</time>
      </trkpt>
      <trkpt lat="45.52857" lon="6.66031">
        <ele>1486.7015381</ele>
        <time>2009-07-25T07:52:48Z</time>
      </trkpt>
      <trkpt lat="45.52853" lon="6.66035">
        <ele>1488.31604</ele>
        <time>2009-07-25T07:52:52Z</time>
      </trkpt>
      <trkpt lat="45.52847" lon="6.66039">
        <ele>1490.6635742</ele>
        <time>2009-07-25T07:52:58Z</time>
      </trkpt>
      <trkpt lat="45.52843" lon="6.66043">
        <ele>1492.1278076</ele>
        <time>2009-07-25T07:53:02Z</time>
      </trkpt>
      <trkpt lat="45.52838" lon="6.66047">
        <ele>1494.4372559</ele>
        <time>2009-07-25T07:53:07Z</time>
      </trkpt>
      <trkpt lat="45.52829" lon="6.66055">
        <ele>1497.7839355</ele>
        <time>2009-07-25T07:53:15Z</time>
      </trkpt>
      <trkpt lat="45.52826" lon="6.66059">
        <ele>1499.0070801</ele>
        <time>2009-07-25T07:53:19Z</time>
      </trkpt>
      <trkpt lat="45.52825" lon="6.66064">
        <ele>1499.0594482</ele>
        <time>2009-07-25T07:53:23Z</time>
      </trkpt>
      <trkpt lat="45.52823" lon="6.6607">
        <ele>1499.7474365</ele>
        <time>2009-07-25T07:53:27Z</time>
      </trkpt>
      <trkpt lat="45.5282" lon="6.66077">
        <ele>1500.4609375</ele>
        <time>2009-07-25T07:53:32Z</time>
      </trkpt>
      <trkpt lat="45.52815" lon="6.66087">
        <ele>1501.5921631</ele>
        <time>2009-07-25T07:53:40Z</time>
      </trkpt>
      <trkpt lat="45.52814" lon="6.66096">
        <ele>1501.2110596</ele>
        <time>2009-07-25T07:53:46Z</time>
      </trkpt>
      <trkpt lat="45.52818" lon="6.66106">
        <ele>1499.4772949</ele>
        <time>2009-07-25T07:53:52Z</time>
      </trkpt>
      <trkpt lat="45.5281" lon="6.6612">
        <ele>1501.8968506</ele>
        <time>2009-07-25T07:53:57Z</time>
      </trkpt>
      <trkpt lat="45.52808" lon="6.66128">
        <ele>1502.9268799</ele>
        <time>2009-07-25T07:54:02Z</time>
      </trkpt>
      <trkpt lat="45.52803" lon="6.66139">
        <ele>1505.1473389</ele>
        <time>2009-07-25T07:54:08Z</time>
      </trkpt>
      <trkpt lat="45.52798" lon="6.66149">
        <ele>1506.2495117</ele>
        <time>2009-07-25T07:54:15Z</time>
      </trkpt>
      <trkpt lat="45.52792" lon="6.66161">
        <ele>1507.7602539</ele>
        <time>2009-07-25T07:54:24Z</time>
      </trkpt>
      <trkpt lat="45.52789" lon="6.66169">
        <ele>1508.4158936</ele>
        <time>2009-07-25T07:54:30Z</time>
      </trkpt>
      <trkpt lat="45.52787" lon="6.66172">
        <ele>1508.8312988</ele>
        <time>2009-07-25T07:54:32Z</time>
      </trkpt>
      <trkpt lat="45.52783" lon="6.66179">
        <ele>1510.1257324</ele>
        <time>2009-07-25T07:54:39Z</time>
      </trkpt>
      <trkpt lat="45.52778" lon="6.66187">
        <ele>1511.3616943</ele>
        <time>2009-07-25T07:54:45Z</time>
      </trkpt>
      <trkpt lat="45.52771" lon="6.662">
        <ele>1513.47229</ele>
        <time>2009-07-25T07:54:55Z</time>
      </trkpt>
      <trkpt lat="45.52765" lon="6.66208">
        <ele>1515.3162842</ele>
        <time>2009-07-25T07:55:02Z</time>
      </trkpt>
      <trkpt lat="45.52763" lon="6.66211">
        <ele>1516.1943359</ele>
        <time>2009-07-25T07:55:06Z</time>
      </trkpt>
      <trkpt lat="45.52758" lon="6.66216">
        <ele>1517.5144043</ele>
        <time>2009-07-25T07:55:11Z</time>
      </trkpt>
      <trkpt lat="45.52755" lon="6.6622">
        <ele>1518.5531006</ele>
        <time>2009-07-25T07:55:15Z</time>
      </trkpt>
      <trkpt lat="45.52752" lon="6.66228">
        <ele>1519.2363281</ele>
        <time>2009-07-25T07:55:21Z</time>
      </trkpt>
      <trkpt lat="45.52744" lon="6.66245">
        <ele>1520.9882813</ele>
        <time>2009-07-25T07:55:31Z</time>
      </trkpt>
      <trkpt lat="45.5274" lon="6.66256">
        <ele>1521.4099121</ele>
        <time>2009-07-25T07:55:38Z</time>
      </trkpt>
      <trkpt lat="45.52738" lon="6.66259">
        <ele>1522.005249</ele>
        <time>2009-07-25T07:55:42Z</time>
      </trkpt>
      <trkpt lat="45.52737" lon="6.6626">
        <ele>1522.3012695</ele>
        <time>2009-07-25T07:55:43Z</time>
      </trkpt>
      <trkpt lat="45.52732" lon="6.66264">
        <ele>1523.4897461</ele>
        <time>2009-07-25T07:55:49Z</time>
      </trkpt>
      <trkpt lat="45.52728" lon="6.66267">
        <ele>1524.7485352</ele>
        <time>2009-07-25T07:55:54Z</time>
      </trkpt>
      <trkpt lat="45.5272" lon="6.66278">
        <ele>1526.9068604</ele>
        <time>2009-07-25T07:56:03Z</time>
      </trkpt>
      <trkpt lat="45.52716" lon="6.66282">
        <ele>1528.7607422</ele>
        <time>2009-07-25T07:56:09Z</time>
      </trkpt>
      <trkpt lat="45.52711" lon="6.66286">
        <ele>1530.3984375</ele>
        <time>2009-07-25T07:56:16Z</time>
      </trkpt>
      <trkpt lat="45.52709" lon="6.66292">
        <ele>1531.0678711</ele>
        <time>2009-07-25T07:56:22Z</time>
      </trkpt>
      <trkpt lat="45.52705" lon="6.66297">
        <ele>1532.8635254</ele>
        <time>2009-07-25T07:56:27Z</time>
      </trkpt>
      <trkpt lat="45.527" lon="6.66303">
        <ele>1534.3707275</ele>
        <time>2009-07-25T07:56:33Z</time>
      </trkpt>
      <trkpt lat="45.52699" lon="6.66308">
        <ele>1534.4619141</ele>
        <time>2009-07-25T07:56:38Z</time>
      </trkpt>
      <trkpt lat="45.52693" lon="6.66314">
        <ele>1536.854126</ele>
        <time>2009-07-25T07:56:44Z</time>
      </trkpt>
      <trkpt lat="45.52688" lon="6.66318">
        <ele>1538.3115234</ele>
        <time>2009-07-25T07:56:50Z</time>
      </trkpt>
      <trkpt lat="45.52686" lon="6.66323">
        <ele>1538.8110352</ele>
        <time>2009-07-25T07:56:54Z</time>
      </trkpt>
      <trkpt lat="45.52682" lon="6.66328">
        <ele>1539.9490967</ele>
        <time>2009-07-25T07:56:59Z</time>
      </trkpt>
      <trkpt lat="45.52676" lon="6.66334">
        <ele>1541.8896484</ele>
        <time>2009-07-25T07:57:04Z</time>
      </trkpt>
      <trkpt lat="45.52671" lon="6.66339">
        <ele>1543.3188477</ele>
        <time>2009-07-25T07:57:09Z</time>
      </trkpt>
      <trkpt lat="45.52668" lon="6.66343">
        <ele>1544.4353027</ele>
        <time>2009-07-25T07:57:13Z</time>
      </trkpt>
      <trkpt lat="45.52662" lon="6.66348">
        <ele>1547.0251465</ele>
        <time>2009-07-25T07:57:19Z</time>
      </trkpt>
      <trkpt lat="45.52659" lon="6.66353">
        <ele>1547.6534424</ele>
        <time>2009-07-25T07:57:23Z</time>
      </trkpt>
      <trkpt lat="45.52658" lon="6.66356">
        <ele>1548.0620117</ele>
        <time>2009-07-25T07:57:28Z</time>
      </trkpt>
      <trkpt lat="45.52654" lon="6.66363">
        <ele>1549.2022705</ele>
        <time>2009-07-25T07:57:33Z</time>
      </trkpt>
      <trkpt lat="45.52652" lon="6.66369">
        <ele>1549.1939697</ele>
        <time>2009-07-25T07:57:36Z</time>
      </trkpt>
      <trkpt lat="45.52645" lon="6.66381">
        <ele>1550.4281006</ele>
        <time>2009-07-25T07:57:45Z</time>
      </trkpt>
      <trkpt lat="45.52644" lon="6.66386">
        <ele>1550.4266357</ele>
        <time>2009-07-25T07:57:50Z</time>
      </trkpt>
      <trkpt lat="45.52636" lon="6.66399">
        <ele>1551.7994385</ele>
        <time>2009-07-25T07:58:01Z</time>
      </trkpt>
      <trkpt lat="45.52621" lon="6.66417">
        <ele>1556.0856934</ele>
        <time>2009-07-25T07:58:22Z</time>
      </trkpt>
      <trkpt lat="45.52609" lon="6.6643">
        <ele>1559.0893555</ele>
        <time>2009-07-25T07:58:34Z</time>
      </trkpt>
      <trkpt lat="45.52605" lon="6.66432">
        <ele>1560.6202393</ele>
        <time>2009-07-25T07:58:38Z</time>
      </trkpt>
      <trkpt lat="45.52603" lon="6.66439">
        <ele>1560.6402588</ele>
        <time>2009-07-25T07:58:43Z</time>
      </trkpt>
      <trkpt lat="45.526" lon="6.6644">
        <ele>1561.6765137</ele>
        <time>2009-07-25T07:58:47Z</time>
      </trkpt>
      <trkpt lat="45.52593" lon="6.66444">
        <ele>1564.7562256</ele>
        <time>2009-07-25T07:58:55Z</time>
      </trkpt>
      <trkpt lat="45.52587" lon="6.66443">
        <ele>1568.1450195</ele>
        <time>2009-07-25T07:59:03Z</time>
      </trkpt>
      <trkpt lat="45.52585" lon="6.66445">
        <ele>1568.8039551</ele>
        <time>2009-07-25T07:59:08Z</time>
      </trkpt>
      <trkpt lat="45.52583" lon="6.66447">
        <ele>1569.1401367</ele>
        <time>2009-07-25T07:59:12Z</time>
      </trkpt>
      <trkpt lat="45.52579" lon="6.66451">
        <ele>1569.1693115</ele>
        <time>2009-07-25T07:59:18Z</time>
      </trkpt>
      <trkpt lat="45.52577" lon="6.66453">
        <ele>1569.4846191</ele>
        <time>2009-07-25T07:59:24Z</time>
      </trkpt>
      <trkpt lat="45.52574" lon="6.66455">
        <ele>1569.7050781</ele>
        <time>2009-07-25T07:59:29Z</time>
      </trkpt>
      <trkpt lat="45.52565" lon="6.66459">
        <ele>1571.3808594</ele>
        <time>2009-07-25T07:59:39Z</time>
      </trkpt>
      <trkpt lat="45.52558" lon="6.66461">
        <ele>1573.1328125</ele>
        <time>2009-07-25T07:59:45Z</time>
      </trkpt>
      <trkpt lat="45.52544" lon="6.66457">
        <ele>1577.7176514</ele>
        <time>2009-07-25T08:00:03Z</time>
      </trkpt>
      <trkpt lat="45.52541" lon="6.66463">
        <ele>1577.3631592</ele>
        <time>2009-07-25T08:00:11Z</time>
      </trkpt>
      <trkpt lat="45.52537" lon="6.66472">
        <ele>1576.7772217</ele>
        <time>2009-07-25T08:00:17Z</time>
      </trkpt>
      <trkpt lat="45.52534" lon="6.66472">
        <ele>1577.5968018</ele>
        <time>2009-07-25T08:00:21Z</time>
      </trkpt>
      <trkpt lat="45.52528" lon="6.66469">
        <ele>1579.7415771</ele>
        <time>2009-07-25T08:00:31Z</time>
      </trkpt>
      <trkpt lat="45.52522" lon="6.66469">
        <ele>1581.0545654</ele>
        <time>2009-07-25T08:00:35Z</time>
      </trkpt>
      <trkpt lat="45.52518" lon="6.66464">
        <ele>1583.1376953</ele>
        <time>2009-07-25T08:00:42Z</time>
      </trkpt>
      <trkpt lat="45.52515" lon="6.6646">
        <ele>1584.5758057</ele>
        <time>2009-07-25T08:00:46Z</time>
      </trkpt>
      <trkpt lat="45.52517" lon="6.66451">
        <ele>1586.244873</ele>
        <time>2009-07-25T08:00:54Z</time>
      </trkpt>
      <trkpt lat="45.52513" lon="6.66451">
        <ele>1587.3070068</ele>
        <time>2009-07-25T08:01:02Z</time>
      </trkpt>
      <trkpt lat="45.52511" lon="6.6645">
        <ele>1587.9195557</ele>
        <time>2009-07-25T08:01:07Z</time>
      </trkpt>
      <trkpt lat="45.52508" lon="6.66439">
        <ele>1590.8394775</ele>
        <time>2009-07-25T08:01:14Z</time>
      </trkpt>
      <trkpt lat="45.52505" lon="6.66432">
        <ele>1592.6420898</ele>
        <time>2009-07-25T08:01:19Z</time>
      </trkpt>
      <trkpt lat="45.52499" lon="6.66431">
        <ele>1594.4321289</ele>
        <time>2009-07-25T08:01:24Z</time>
      </trkpt>
      <trkpt lat="45.52495" lon="6.66432">
        <ele>1595.560791</ele>
        <time>2009-07-25T08:01:29Z</time>
      </trkpt>
      <trkpt lat="45.52492" lon="6.66432">
        <ele>1596.6478271</ele>
        <time>2009-07-25T08:01:35Z</time>
      </trkpt>
      <trkpt lat="45.52487" lon="6.66422">
        <ele>1599.9615479</ele>
        <time>2009-07-25T08:01:55Z</time>
      </trkpt>
      <trkpt lat="45.52481" lon="6.66423">
        <ele>1602.1547852</ele>
        <time>2009-07-25T08:02:00Z</time>
      </trkpt>
      <trkpt lat="45.52459" lon="6.6642">
        <ele>1608.5368652</ele>
        <time>2009-07-25T08:02:33Z</time>
      </trkpt>
      <trkpt lat="45.52448" lon="6.66421">
        <ele>1610.1418457</ele>
        <time>2009-07-25T08:02:43Z</time>
      </trkpt>
      <trkpt lat="45.52424" lon="6.66402">
        <ele>1621.4967041</ele>
        <time>2009-07-25T08:03:08Z</time>
      </trkpt>
      <trkpt lat="45.52417" lon="6.66406">
        <ele>1622.7783203</ele>
        <time>2009-07-25T08:03:43Z</time>
      </trkpt>
      <trkpt lat="45.52392" lon="6.66384">
        <ele>1631.527832</ele>
        <time>2009-07-25T08:04:33Z</time>
      </trkpt>
      <trkpt lat="45.52382" lon="6.6638">
        <ele>1635.1673584</ele>
        <time>2009-07-25T08:04:43Z</time>
      </trkpt>
      <trkpt lat="45.52373" lon="6.6639">
        <ele>1635.2633057</ele>
        <time>2009-07-25T08:04:49Z</time>
      </trkpt>
      <trkpt lat="45.52369" lon="6.66391">
        <ele>1636.1373291</ele>
        <time>2009-07-25T08:04:54Z</time>
      </trkpt>
      <trkpt lat="45.52366" lon="6.66392">
        <ele>1636.6630859</ele>
        <time>2009-07-25T08:04:58Z</time>
      </trkpt>
      <trkpt lat="45.5235" lon="6.66392">
        <ele>1640.8840332</ele>
        <time>2009-07-25T08:05:18Z</time>
      </trkpt>
      <trkpt lat="45.52341" lon="6.66388">
        <ele>1644.3538818</ele>
        <time>2009-07-25T08:05:26Z</time>
      </trkpt>
      <trkpt lat="45.52332" lon="6.66388">
        <ele>1646.762085</ele>
        <time>2009-07-25T08:05:32Z</time>
      </trkpt>
      <trkpt lat="45.5232" lon="6.66394">
        <ele>1648.3348389</ele>
        <time>2009-07-25T08:05:44Z</time>
      </trkpt>
      <trkpt lat="45.52311" lon="6.66397">
        <ele>1649.2521973</ele>
        <time>2009-07-25T08:05:54Z</time>
      </trkpt>
      <trkpt lat="45.52302" lon="6.66397">
        <ele>1651.5874023</ele>
        <time>2009-07-25T08:06:03Z</time>
      </trkpt>
      <trkpt lat="45.52294" lon="6.664">
        <ele>1650.916626</ele>
        <time>2009-07-25T08:06:09Z</time>
      </trkpt>
      <trkpt lat="45.52287" lon="6.66404">
        <ele>1650.4287109</ele>
        <time>2009-07-25T08:06:15Z</time>
      </trkpt>
      <trkpt lat="45.52281" lon="6.66405">
        <ele>1651.2912598</ele>
        <time>2009-07-25T08:06:21Z</time>
      </trkpt>
      <trkpt lat="45.52277" lon="6.66403">
        <ele>1652.6164551</ele>
        <time>2009-07-25T08:06:25Z</time>
      </trkpt>
      <trkpt lat="45.52266" lon="6.6641">
        <ele>1654.7678223</ele>
        <time>2009-07-25T08:06:33Z</time>
      </trkpt>
      <trkpt lat="45.52262" lon="6.66406">
        <ele>1657.3624268</ele>
        <time>2009-07-25T08:06:38Z</time>
      </trkpt>
      <trkpt lat="45.52259" lon="6.66403">
        <ele>1659.2197266</ele>
        <time>2009-07-25T08:06:42Z</time>
      </trkpt>
      <trkpt lat="45.52256" lon="6.66401">
        <ele>1660.9377441</ele>
        <time>2009-07-25T08:06:47Z</time>
      </trkpt>
      <trkpt lat="45.52253" lon="6.66398">
        <ele>1662.6004639</ele>
        <time>2009-07-25T08:06:51Z</time>
      </trkpt>
      <trkpt lat="45.52244" lon="6.66391">
        <ele>1666.8825684</ele>
        <time>2009-07-25T08:07:06Z</time>
      </trkpt>
      <trkpt lat="45.52242" lon="6.66391">
        <ele>1667.5499268</ele>
        <time>2009-07-25T08:07:10Z</time>
      </trkpt>
      <trkpt lat="45.52228" lon="6.66387">
        <ele>1672.1809082</ele>
        <time>2009-07-25T08:07:29Z</time>
      </trkpt>
      <trkpt lat="45.52228" lon="6.66388">
        <ele>1671.8289795</ele>
        <time>2009-07-25T08:07:39Z</time>
      </trkpt>
      <trkpt lat="45.52216" lon="6.66387">
        <ele>1673.0859375</ele>
        <time>2009-07-25T08:07:54Z</time>
      </trkpt>
      <trkpt lat="45.52195" lon="6.66372">
        <ele>1679.1351318</ele>
        <time>2009-07-25T08:08:43Z</time>
      </trkpt>
      <trkpt lat="45.52188" lon="6.66373">
        <ele>1678.9526367</ele>
        <time>2009-07-25T08:08:47Z</time>
      </trkpt>
      <trkpt lat="45.52181" lon="6.66371">
        <ele>1680.0683594</ele>
        <time>2009-07-25T08:08:52Z</time>
      </trkpt>
      <trkpt lat="45.52172" lon="6.66368">
        <ele>1680.7937012</ele>
        <time>2009-07-25T08:08:58Z</time>
      </trkpt>
      <trkpt lat="45.52168" lon="6.66368">
        <ele>1680.8269043</ele>
        <time>2009-07-25T08:09:01Z</time>
      </trkpt>
      <trkpt lat="45.52158" lon="6.66364">
        <ele>1683.12854</ele>
        <time>2009-07-25T08:09:09Z</time>
      </trkpt>
      <trkpt lat="45.5215" lon="6.66366">
        <ele>1684.7956543</ele>
        <time>2009-07-25T08:09:15Z</time>
      </trkpt>
      <trkpt lat="45.52147" lon="6.66368">
        <ele>1685.6610107</ele>
        <time>2009-07-25T08:09:20Z</time>
      </trkpt>
      <trkpt lat="45.52141" lon="6.66373">
        <ele>1688.368042</ele>
        <time>2009-07-25T08:09:25Z</time>
      </trkpt>
      <trkpt lat="45.5214" lon="6.66375">
        <ele>1689.2022705</ele>
        <time>2009-07-25T08:09:30Z</time>
      </trkpt>
      <trkpt lat="45.52138" lon="6.66376">
        <ele>1690.1308594</ele>
        <time>2009-07-25T08:09:38Z</time>
      </trkpt>
      <trkpt lat="45.52125" lon="6.66369">
        <ele>1691.9899902</ele>
        <time>2009-07-25T08:10:14Z</time>
      </trkpt>
      <trkpt lat="45.52092" lon="6.66368">
        <ele>1700.876709</ele>
        <time>2009-07-25T08:10:47Z</time>
      </trkpt>
      <trkpt lat="45.52084" lon="6.66371">
        <ele>1703.4455566</ele>
        <time>2009-07-25T08:10:51Z</time>
      </trkpt>
      <trkpt lat="45.52073" lon="6.66368">
        <ele>1705.5244141</ele>
        <time>2009-07-25T08:10:58Z</time>
      </trkpt>
      <trkpt lat="45.52069" lon="6.66364">
        <ele>1705.5484619</ele>
        <time>2009-07-25T08:11:02Z</time>
      </trkpt>
      <trkpt lat="45.52057" lon="6.66357">
        <ele>1707.8765869</ele>
        <time>2009-07-25T08:11:12Z</time>
      </trkpt>
      <trkpt lat="45.52036" lon="6.66348">
        <ele>1714.9936523</ele>
        <time>2009-07-25T08:11:47Z</time>
      </trkpt>
      <trkpt lat="45.52029" lon="6.66348">
        <ele>1717.2154541</ele>
        <time>2009-07-25T08:11:52Z</time>
      </trkpt>
      <trkpt lat="45.52022" lon="6.66347">
        <ele>1720.510498</ele>
        <time>2009-07-25T08:11:56Z</time>
      </trkpt>
      <trkpt lat="45.52019" lon="6.66342">
        <ele>1721.6964111</ele>
        <time>2009-07-25T08:12:01Z</time>
      </trkpt>
      <trkpt lat="45.5202" lon="6.66334">
        <ele>1720.998291</ele>
        <time>2009-07-25T08:12:06Z</time>
      </trkpt>
      <trkpt lat="45.52014" lon="6.66318">
        <ele>1722.8741455</ele>
        <time>2009-07-25T08:12:24Z</time>
      </trkpt>
      <trkpt lat="45.51995" lon="6.66312">
        <ele>1727.5380859</ele>
        <time>2009-07-25T08:12:49Z</time>
      </trkpt>
      <trkpt lat="45.51987" lon="6.66312">
        <ele>1729.6872559</ele>
        <time>2009-07-25T08:12:55Z</time>
      </trkpt>
      <trkpt lat="45.51983" lon="6.6631">
        <ele>1730.7814941</ele>
        <time>2009-07-25T08:13:02Z</time>
      </trkpt>
      <trkpt lat="45.51981" lon="6.6631">
        <ele>1731.4211426</ele>
        <time>2009-07-25T08:13:06Z</time>
      </trkpt>
      <trkpt lat="45.51974" lon="6.6631">
        <ele>1733.2901611</ele>
        <time>2009-07-25T08:13:16Z</time>
      </trkpt>
      <trkpt lat="45.51965" lon="6.66311">
        <ele>1736.375</ele>
        <time>2009-07-25T08:13:23Z</time>
      </trkpt>
      <trkpt lat="45.51961" lon="6.6631">
        <ele>1737.6623535</ele>
        <time>2009-07-25T08:13:27Z</time>
      </trkpt>
      <trkpt lat="45.51954" lon="6.66309">
        <ele>1739.503418</ele>
        <time>2009-07-25T08:13:34Z</time>
      </trkpt>
      <trkpt lat="45.51947" lon="6.66309">
        <ele>1741.8793945</ele>
        <time>2009-07-25T08:13:39Z</time>
      </trkpt>
      <trkpt lat="45.51943" lon="6.66309">
        <ele>1742.8839111</ele>
        <time>2009-07-25T08:13:44Z</time>
      </trkpt>
      <trkpt lat="45.51933" lon="6.66306">
        <ele>1744.5114746</ele>
        <time>2009-07-25T08:13:54Z</time>
      </trkpt>
      <trkpt lat="45.51933" lon="6.66305">
        <ele>1744.5028076</ele>
        <time>2009-07-25T08:13:55Z</time>
      </trkpt>
      <trkpt lat="45.51925" lon="6.66301">
        <ele>1745.9350586</ele>
        <time>2009-07-25T08:14:02Z</time>
      </trkpt>
      <trkpt lat="45.51918" lon="6.66293">
        <ele>1747.6162109</ele>
        <time>2009-07-25T08:14:09Z</time>
      </trkpt>
      <trkpt lat="45.51914" lon="6.66284">
        <ele>1749.223877</ele>
        <time>2009-07-25T08:14:17Z</time>
      </trkpt>
      <trkpt lat="45.51911" lon="6.66278">
        <ele>1750.5422363</ele>
        <time>2009-07-25T08:14:22Z</time>
      </trkpt>
      <trkpt lat="45.51907" lon="6.66266">
        <ele>1752.5787354</ele>
        <time>2009-07-25T08:14:32Z</time>
      </trkpt>
      <trkpt lat="45.51901" lon="6.66253">
        <ele>1754.4689941</ele>
        <time>2009-07-25T08:14:45Z</time>
      </trkpt>
      <trkpt lat="45.51897" lon="6.66245">
        <ele>1755.4373779</ele>
        <time>2009-07-25T08:14:54Z</time>
      </trkpt>
      <trkpt lat="45.51891" lon="6.66233">
        <ele>1756.3248291</ele>
        <time>2009-07-25T08:15:06Z</time>
      </trkpt>
      <trkpt lat="45.51883" lon="6.66224">
        <ele>1758.9490967</ele>
        <time>2009-07-25T08:15:17Z</time>
      </trkpt>
      <trkpt lat="45.51881" lon="6.66218">
        <ele>1759.4316406</ele>
        <time>2009-07-25T08:15:21Z</time>
      </trkpt>
      <trkpt lat="45.51878" lon="6.66206">
        <ele>1760.1785889</ele>
        <time>2009-07-25T08:15:29Z</time>
      </trkpt>
      <trkpt lat="45.51874" lon="6.66201">
        <ele>1761.2957764</ele>
        <time>2009-07-25T08:15:34Z</time>
      </trkpt>
      <trkpt lat="45.5187" lon="6.66197">
        <ele>1762.2924805</ele>
        <time>2009-07-25T08:15:39Z</time>
      </trkpt>
      <trkpt lat="45.51867" lon="6.66193">
        <ele>1763.1483154</ele>
        <time>2009-07-25T08:15:43Z</time>
      </trkpt>
      <trkpt lat="45.51862" lon="6.66189">
        <ele>1764.7454834</ele>
        <time>2009-07-25T08:15:49Z</time>
      </trkpt>
      <trkpt lat="45.51861" lon="6.66185">
        <ele>1764.9769287</ele>
        <time>2009-07-25T08:15:51Z</time>
      </trkpt>
      <trkpt lat="45.51855" lon="6.66175">
        <ele>1767.0063477</ele>
        <time>2009-07-25T08:16:00Z</time>
      </trkpt>
      <trkpt lat="45.51852" lon="6.6617">
        <ele>1768.1876221</ele>
        <time>2009-07-25T08:16:05Z</time>
      </trkpt>
      <trkpt lat="45.51847" lon="6.66166">
        <ele>1769.3482666</ele>
        <time>2009-07-25T08:16:10Z</time>
      </trkpt>
      <trkpt lat="45.51843" lon="6.6616">
        <ele>1769.8666992</ele>
        <time>2009-07-25T08:16:16Z</time>
      </trkpt>
      <trkpt lat="45.51839" lon="6.66156">
        <ele>1770.8377686</ele>
        <time>2009-07-25T08:16:20Z</time>
      </trkpt>
      <trkpt lat="45.5183" lon="6.66151">
        <ele>1772.6983643</ele>
        <time>2009-07-25T08:16:27Z</time>
      </trkpt>
      <trkpt lat="45.51822" lon="6.66141">
        <ele>1773.3494873</ele>
        <time>2009-07-25T08:16:35Z</time>
      </trkpt>
      <trkpt lat="45.51815" lon="6.66136">
        <ele>1774.3825684</ele>
        <time>2009-07-25T08:16:41Z</time>
      </trkpt>
      <trkpt lat="45.51812" lon="6.66133">
        <ele>1775.1356201</ele>
        <time>2009-07-25T08:16:47Z</time>
      </trkpt>
      <trkpt lat="45.51807" lon="6.66132">
        <ele>1776.2678223</ele>
        <time>2009-07-25T08:16:51Z</time>
      </trkpt>
      <trkpt lat="45.51804" lon="6.66124">
        <ele>1776.5200195</ele>
        <time>2009-07-25T08:16:57Z</time>
      </trkpt>
      <trkpt lat="45.51801" lon="6.66118">
        <ele>1777.1962891</ele>
        <time>2009-07-25T08:17:04Z</time>
      </trkpt>
      <trkpt lat="45.51799" lon="6.66114">
        <ele>1777.6976318</ele>
        <time>2009-07-25T08:17:08Z</time>
      </trkpt>
      <trkpt lat="45.51795" lon="6.66112">
        <ele>1778.7756348</ele>
        <time>2009-07-25T08:17:12Z</time>
      </trkpt>
      <trkpt lat="45.5179" lon="6.66108">
        <ele>1780.4813232</ele>
        <time>2009-07-25T08:17:19Z</time>
      </trkpt>
      <trkpt lat="45.51783" lon="6.66103">
        <ele>1782.5839844</ele>
        <time>2009-07-25T08:17:25Z</time>
      </trkpt>
      <trkpt lat="45.51777" lon="6.66098">
        <ele>1784.489624</ele>
        <time>2009-07-25T08:17:31Z</time>
      </trkpt>
      <trkpt lat="45.5177" lon="6.66093">
        <ele>1786.9780273</ele>
        <time>2009-07-25T08:17:37Z</time>
      </trkpt>
      <trkpt lat="45.51763" lon="6.66085">
        <ele>1789.017334</ele>
        <time>2009-07-25T08:17:46Z</time>
      </trkpt>
      <trkpt lat="45.5176" lon="6.66081">
        <ele>1789.4063721</ele>
        <time>2009-07-25T08:17:50Z</time>
      </trkpt>
      <trkpt lat="45.51757" lon="6.66078">
        <ele>1790.0406494</ele>
        <time>2009-07-25T08:17:54Z</time>
      </trkpt>
      <trkpt lat="45.51753" lon="6.66074">
        <ele>1790.9056396</ele>
        <time>2009-07-25T08:17:59Z</time>
      </trkpt>
      <trkpt lat="45.51746" lon="6.66067">
        <ele>1792.3681641</ele>
        <time>2009-07-25T08:18:08Z</time>
      </trkpt>
      <trkpt lat="45.5174" lon="6.6606">
        <ele>1792.9194336</ele>
        <time>2009-07-25T08:18:16Z</time>
      </trkpt>
      <trkpt lat="45.51733" lon="6.66046">
        <ele>1793.8303223</ele>
        <time>2009-07-25T08:18:28Z</time>
      </trkpt>
      <trkpt lat="45.51733" lon="6.6604">
        <ele>1793.4569092</ele>
        <time>2009-07-25T08:18:33Z</time>
      </trkpt>
      <trkpt lat="45.51732" lon="6.66034">
        <ele>1793.2194824</ele>
        <time>2009-07-25T08:18:37Z</time>
      </trkpt>
      <trkpt lat="45.51729" lon="6.6602">
        <ele>1793.2420654</ele>
        <time>2009-07-25T08:18:45Z</time>
      </trkpt>
      <trkpt lat="45.51726" lon="6.66013">
        <ele>1793.6149902</ele>
        <time>2009-07-25T08:18:49Z</time>
      </trkpt>
      <trkpt lat="45.51723" lon="6.6601">
        <ele>1793.8480225</ele>
        <time>2009-07-25T08:18:52Z</time>
      </trkpt>
      <trkpt lat="45.51718" lon="6.66006">
        <ele>1795.5941162</ele>
        <time>2009-07-25T08:18:58Z</time>
      </trkpt>
      <trkpt lat="45.51713" lon="6.66001">
        <ele>1796.9669189</ele>
        <time>2009-07-25T08:19:02Z</time>
      </trkpt>
      <trkpt lat="45.51705" lon="6.65993">
        <ele>1799.644043</ele>
        <time>2009-07-25T08:19:10Z</time>
      </trkpt>
      <trkpt lat="45.51699" lon="6.65989">
        <ele>1801.935791</ele>
        <time>2009-07-25T08:19:18Z</time>
      </trkpt>
      <trkpt lat="45.51695" lon="6.65986">
        <ele>1803.1098633</ele>
        <time>2009-07-25T08:19:23Z</time>
      </trkpt>
      <trkpt lat="45.51692" lon="6.65979">
        <ele>1803.9820557</ele>
        <time>2009-07-25T08:19:30Z</time>
      </trkpt>
      <trkpt lat="45.51689" lon="6.65974">
        <ele>1804.8798828</ele>
        <time>2009-07-25T08:19:35Z</time>
      </trkpt>
      <trkpt lat="45.51686" lon="6.65971">
        <ele>1805.5491943</ele>
        <time>2009-07-25T08:19:39Z</time>
      </trkpt>
      <trkpt lat="45.51683" lon="6.65965">
        <ele>1806.651001</ele>
        <time>2009-07-25T08:19:45Z</time>
      </trkpt>
      <trkpt lat="45.51678" lon="6.65958">
        <ele>1807.6192627</ele>
        <time>2009-07-25T08:19:52Z</time>
      </trkpt>
      <trkpt lat="45.51674" lon="6.6595">
        <ele>1808.6744385</ele>
        <time>2009-07-25T08:20:00Z</time>
      </trkpt>
      <trkpt lat="45.51669" lon="6.65946">
        <ele>1810.3879395</ele>
        <time>2009-07-25T08:20:07Z</time>
      </trkpt>
      <trkpt lat="45.51661" lon="6.65946">
        <ele>1812.3741455</ele>
        <time>2009-07-25T08:20:17Z</time>
      </trkpt>
      <trkpt lat="45.51655" lon="6.65949">
        <ele>1813.6234131</ele>
        <time>2009-07-25T08:20:24Z</time>
      </trkpt>
      <trkpt lat="45.51649" lon="6.65951">
        <ele>1814.9405518</ele>
        <time>2009-07-25T08:20:33Z</time>
      </trkpt>
      <trkpt lat="45.51643" lon="6.65955">
        <ele>1816.4060059</ele>
        <time>2009-07-25T08:20:43Z</time>
      </trkpt>
      <trkpt lat="45.51637" lon="6.65958">
        <ele>1817.9659424</ele>
        <time>2009-07-25T08:20:53Z</time>
      </trkpt>
      <trkpt lat="45.51632" lon="6.65963">
        <ele>1820.3220215</ele>
        <time>2009-07-25T08:21:02Z</time>
      </trkpt>
      <trkpt lat="45.51627" lon="6.65967">
        <ele>1822.5390625</ele>
        <time>2009-07-25T08:21:10Z</time>
      </trkpt>
      <trkpt lat="45.51621" lon="6.65972">
        <ele>1824.788208</ele>
        <time>2009-07-25T08:21:18Z</time>
      </trkpt>
      <trkpt lat="45.51617" lon="6.65979">
        <ele>1827.0352783</ele>
        <time>2009-07-25T08:21:26Z</time>
      </trkpt>
      <trkpt lat="45.51615" lon="6.65988">
        <ele>1828.6276855</ele>
        <time>2009-07-25T08:21:34Z</time>
      </trkpt>
      <trkpt lat="45.51614" lon="6.65997">
        <ele>1829.9346924</ele>
        <time>2009-07-25T08:21:43Z</time>
      </trkpt>
      <trkpt lat="45.51614" lon="6.66007">
        <ele>1831.8616943</ele>
        <time>2009-07-25T08:21:54Z</time>
      </trkpt>
      <trkpt lat="45.51614" lon="6.66017">
        <ele>1834.1706543</ele>
        <time>2009-07-25T08:22:05Z</time>
      </trkpt>
      <trkpt lat="45.51614" lon="6.66025">
        <ele>1835.6862793</ele>
        <time>2009-07-25T08:22:13Z</time>
      </trkpt>
      <trkpt lat="45.51613" lon="6.66033">
        <ele>1837.3920898</ele>
        <time>2009-07-25T08:22:22Z</time>
      </trkpt>
      <trkpt lat="45.51614" lon="6.66044">
        <ele>1839.3181152</ele>
        <time>2009-07-25T08:22:34Z</time>
      </trkpt>
      <trkpt lat="45.51614" lon="6.66051">
        <ele>1840.6398926</ele>
        <time>2009-07-25T08:22:42Z</time>
      </trkpt>
      <trkpt lat="45.51613" lon="6.66062">
        <ele>1842.7252197</ele>
        <time>2009-07-25T08:22:53Z</time>
      </trkpt>
      <trkpt lat="45.51612" lon="6.66074">
        <ele>1845.0194092</ele>
        <time>2009-07-25T08:23:03Z</time>
      </trkpt>
      <trkpt lat="45.51611" lon="6.66086">
        <ele>1847.4667969</ele>
        <time>2009-07-25T08:23:13Z</time>
      </trkpt>
      <trkpt lat="45.51611" lon="6.66097">
        <ele>1849.1881104</ele>
        <time>2009-07-25T08:23:21Z</time>
      </trkpt>
      <trkpt lat="45.5161" lon="6.66105">
        <ele>1850.4912109</ele>
        <time>2009-07-25T08:23:27Z</time>
      </trkpt>
      <trkpt lat="45.51608" lon="6.66113">
        <ele>1852.6887207</ele>
        <time>2009-07-25T08:23:34Z</time>
      </trkpt>
      <trkpt lat="45.51609" lon="6.66118">
        <ele>1853.1014404</ele>
        <time>2009-07-25T08:23:41Z</time>
      </trkpt>
      <trkpt lat="45.51609" lon="6.66123">
        <ele>1853.717041</ele>
        <time>2009-07-25T08:23:46Z</time>
      </trkpt>
      <trkpt lat="45.5161" lon="6.66133">
        <ele>1855.3400879</ele>
        <time>2009-07-25T08:23:53Z</time>
      </trkpt>
      <trkpt lat="45.51609" lon="6.66139">
        <ele>1856.7286377</ele>
        <time>2009-07-25T08:23:59Z</time>
      </trkpt>
      <trkpt lat="45.51608" lon="6.66141">
        <ele>1857.5076904</ele>
        <time>2009-07-25T08:24:00Z</time>
      </trkpt>
      <trkpt lat="45.51608" lon="6.66149">
        <ele>1859.3959961</ele>
        <time>2009-07-25T08:24:09Z</time>
      </trkpt>
      <trkpt lat="45.51608" lon="6.66153">
        <ele>1860.02771</ele>
        <time>2009-07-25T08:24:16Z</time>
      </trkpt>
      <trkpt lat="45.51609" lon="6.6616">
        <ele>1861.4112549</ele>
        <time>2009-07-25T08:24:24Z</time>
      </trkpt>
      <trkpt lat="45.5161" lon="6.66169">
        <ele>1863.067627</ele>
        <time>2009-07-25T08:24:33Z</time>
      </trkpt>
      <trkpt lat="45.51611" lon="6.66178">
        <ele>1865.3098145</ele>
        <time>2009-07-25T08:24:43Z</time>
      </trkpt>
      <trkpt lat="45.51613" lon="6.66184">
        <ele>1866.6694336</ele>
        <time>2009-07-25T08:24:50Z</time>
      </trkpt>
      <trkpt lat="45.51614" lon="6.66189">
        <ele>1867.8503418</ele>
        <time>2009-07-25T08:24:56Z</time>
      </trkpt>
      <trkpt lat="45.51615" lon="6.66193">
        <ele>1868.8666992</ele>
        <time>2009-07-25T08:25:01Z</time>
      </trkpt>
      <trkpt lat="45.51616" lon="6.66197">
        <ele>1869.7496338</ele>
        <time>2009-07-25T08:25:07Z</time>
      </trkpt>
      <trkpt lat="45.51619" lon="6.66203">
        <ele>1871.0021973</ele>
        <time>2009-07-25T08:25:15Z</time>
      </trkpt>
      <trkpt lat="45.51619" lon="6.66208">
        <ele>1872.1756592</ele>
        <time>2009-07-25T08:25:21Z</time>
      </trkpt>
      <trkpt lat="45.5162" lon="6.6621">
        <ele>1872.65979</ele>
        <time>2009-07-25T08:25:29Z</time>
      </trkpt>
      <trkpt lat="45.51622" lon="6.66211">
        <ele>1872.2108154</ele>
        <time>2009-07-25T08:25:34Z</time>
      </trkpt>
      <trkpt lat="45.51626" lon="6.66209">
        <ele>1870.6220703</ele>
        <time>2009-07-25T08:25:37Z</time>
      </trkpt>
      <trkpt lat="45.51624" lon="6.66218">
        <ele>1873.5484619</ele>
        <time>2009-07-25T08:25:45Z</time>
      </trkpt>
      <trkpt lat="45.51623" lon="6.66223">
        <ele>1875.5561523</ele>
        <time>2009-07-25T08:25:52Z</time>
      </trkpt>
      <trkpt lat="45.51628" lon="6.66226">
        <ele>1874.842041</ele>
        <time>2009-07-25T08:26:00Z</time>
      </trkpt>
      <trkpt lat="45.51627" lon="6.66236">
        <ele>1877.8769531</ele>
        <time>2009-07-25T08:26:06Z</time>
      </trkpt>
      <trkpt lat="45.51628" lon="6.66242">
        <ele>1879.0991211</ele>
        <time>2009-07-25T08:26:11Z</time>
      </trkpt>
      <trkpt lat="45.51627" lon="6.66258">
        <ele>1883.2335205</ele>
        <time>2009-07-25T08:26:19Z</time>
      </trkpt>
      <trkpt lat="45.51628" lon="6.66268">
        <ele>1884.9362793</ele>
        <time>2009-07-25T08:26:27Z</time>
      </trkpt>
      <trkpt lat="45.51631" lon="6.66279">
        <ele>1886.1165771</ele>
        <time>2009-07-25T08:26:36Z</time>
      </trkpt>
      <trkpt lat="45.51635" lon="6.66292">
        <ele>1887.3570557</ele>
        <time>2009-07-25T08:26:47Z</time>
      </trkpt>
      <trkpt lat="45.51638" lon="6.66305">
        <ele>1889.3270264</ele>
        <time>2009-07-25T08:26:57Z</time>
      </trkpt>
      <trkpt lat="45.51639" lon="6.66317">
        <ele>1891.7072754</ele>
        <time>2009-07-25T08:27:05Z</time>
      </trkpt>
      <trkpt lat="45.51641" lon="6.66329">
        <ele>1894.1640625</ele>
        <time>2009-07-25T08:27:13Z</time>
      </trkpt>
      <trkpt lat="45.51641" lon="6.66343">
        <ele>1896.5678711</ele>
        <time>2009-07-25T08:27:22Z</time>
      </trkpt>
      <trkpt lat="45.51642" lon="6.66356">
        <ele>1898.2421875</ele>
        <time>2009-07-25T08:27:30Z</time>
      </trkpt>
      <trkpt lat="45.51643" lon="6.66369">
        <ele>1898.8157959</ele>
        <time>2009-07-25T08:27:38Z</time>
      </trkpt>
      <trkpt lat="45.51646" lon="6.66382">
        <ele>1898.765625</ele>
        <time>2009-07-25T08:27:46Z</time>
      </trkpt>
      <trkpt lat="45.51648" lon="6.66397">
        <ele>1900.8271484</ele>
        <time>2009-07-25T08:27:55Z</time>
      </trkpt>
      <trkpt lat="45.5165" lon="6.66414">
        <ele>1904.2113037</ele>
        <time>2009-07-25T08:28:05Z</time>
      </trkpt>
      <trkpt lat="45.51651" lon="6.66428">
        <ele>1906.1677246</ele>
        <time>2009-07-25T08:28:14Z</time>
      </trkpt>
      <trkpt lat="45.51652" lon="6.66438">
        <ele>1907.479248</ele>
        <time>2009-07-25T08:28:20Z</time>
      </trkpt>
      <trkpt lat="45.5165" lon="6.66454">
        <ele>1910.1254883</ele>
        <time>2009-07-25T08:28:30Z</time>
      </trkpt>
      <trkpt lat="45.51649" lon="6.66469">
        <ele>1912.3148193</ele>
        <time>2009-07-25T08:28:40Z</time>
      </trkpt>
      <trkpt lat="45.51649" lon="6.66476">
        <ele>1913.2213135</ele>
        <time>2009-07-25T08:28:46Z</time>
      </trkpt>
      <trkpt lat="45.51649" lon="6.66483">
        <ele>1914.0246582</ele>
        <time>2009-07-25T08:28:54Z</time>
      </trkpt>
      <trkpt lat="45.51649" lon="6.6649">
        <ele>1914.4572754</ele>
        <time>2009-07-25T08:29:01Z</time>
      </trkpt>
      <trkpt lat="45.51649" lon="6.66501">
        <ele>1915.9764404</ele>
        <time>2009-07-25T08:29:11Z</time>
      </trkpt>
      <trkpt lat="45.51649" lon="6.66512">
        <ele>1916.970459</ele>
        <time>2009-07-25T08:29:20Z</time>
      </trkpt>
      <trkpt lat="45.51648" lon="6.66518">
        <ele>1917.8613281</ele>
        <time>2009-07-25T08:29:25Z</time>
      </trkpt>
      <trkpt lat="45.51649" lon="6.66526">
        <ele>1918.6337891</ele>
        <time>2009-07-25T08:29:31Z</time>
      </trkpt>
      <trkpt lat="45.51649" lon="6.66539">
        <ele>1919.7641602</ele>
        <time>2009-07-25T08:29:41Z</time>
      </trkpt>
      <trkpt lat="45.51648" lon="6.66551">
        <ele>1921.0830078</ele>
        <time>2009-07-25T08:29:50Z</time>
      </trkpt>
      <trkpt lat="45.51646" lon="6.66561">
        <ele>1922.6628418</ele>
        <time>2009-07-25T08:29:58Z</time>
      </trkpt>
      <trkpt lat="45.51646" lon="6.66573">
        <ele>1924.2435303</ele>
        <time>2009-07-25T08:30:06Z</time>
      </trkpt>
      <trkpt lat="45.51644" lon="6.66583">
        <ele>1926.2193604</ele>
        <time>2009-07-25T08:30:14Z</time>
      </trkpt>
      <trkpt lat="45.51642" lon="6.66594">
        <ele>1927.6218262</ele>
        <time>2009-07-25T08:30:22Z</time>
      </trkpt>
      <trkpt lat="45.51638" lon="6.66603">
        <ele>1929.7730713</ele>
        <time>2009-07-25T08:30:30Z</time>
      </trkpt>
      <trkpt lat="45.51634" lon="6.66603">
        <ele>1931.7052002</ele>
        <time>2009-07-25T08:30:37Z</time>
      </trkpt>
      <trkpt lat="45.51632" lon="6.66604">
        <ele>1932.868042</ele>
        <time>2009-07-25T08:30:43Z</time>
      </trkpt>
      <trkpt lat="45.51628" lon="6.66607">
        <ele>1934.8702393</ele>
        <time>2009-07-25T08:30:51Z</time>
      </trkpt>
      <trkpt lat="45.51623" lon="6.66613">
        <ele>1937.4471436</ele>
        <time>2009-07-25T08:31:01Z</time>
      </trkpt>
      <trkpt lat="45.5162" lon="6.66617">
        <ele>1939.2355957</ele>
        <time>2009-07-25T08:31:10Z</time>
      </trkpt>
      <trkpt lat="45.51616" lon="6.66622">
        <ele>1941.2246094</ele>
        <time>2009-07-25T08:31:18Z</time>
      </trkpt>
      <trkpt lat="45.51612" lon="6.66626">
        <ele>1942.9368896</ele>
        <time>2009-07-25T08:31:26Z</time>
      </trkpt>
      <trkpt lat="45.51609" lon="6.6663">
        <ele>1944.6982422</ele>
        <time>2009-07-25T08:31:34Z</time>
      </trkpt>
      <trkpt lat="45.51606" lon="6.66635">
        <ele>1946.4926758</ele>
        <time>2009-07-25T08:31:43Z</time>
      </trkpt>
      <trkpt lat="45.51602" lon="6.6664">
        <ele>1948.2020264</ele>
        <time>2009-07-25T08:31:50Z</time>
      </trkpt>
      <trkpt lat="45.51598" lon="6.66644">
        <ele>1950.0744629</ele>
        <time>2009-07-25T08:31:58Z</time>
      </trkpt>
      <trkpt lat="45.51595" lon="6.66651">
        <ele>1951.5817871</ele>
        <time>2009-07-25T08:32:08Z</time>
      </trkpt>
      <trkpt lat="45.51592" lon="6.66653">
        <ele>1952.9936523</ele>
        <time>2009-07-25T08:32:15Z</time>
      </trkpt>
      <trkpt lat="45.5159" lon="6.66658">
        <ele>1954.0637207</ele>
        <time>2009-07-25T08:32:24Z</time>
      </trkpt>
      <trkpt lat="45.51588" lon="6.66662">
        <ele>1954.9309082</ele>
        <time>2009-07-25T08:32:32Z</time>
      </trkpt>
      <trkpt lat="45.51585" lon="6.66666">
        <ele>1956.2758789</ele>
        <time>2009-07-25T08:32:41Z</time>
      </trkpt>
      <trkpt lat="45.51582" lon="6.66671">
        <ele>1958.1599121</ele>
        <time>2009-07-25T08:32:50Z</time>
      </trkpt>
      <trkpt lat="45.51578" lon="6.66676">
        <ele>1960.4855957</ele>
        <time>2009-07-25T08:32:58Z</time>
      </trkpt>
      <trkpt lat="45.51577" lon="6.6668">
        <ele>1961.3327637</ele>
        <time>2009-07-25T08:33:07Z</time>
      </trkpt>
      <trkpt lat="45.51574" lon="6.66684">
        <ele>1963.7669678</ele>
        <time>2009-07-25T08:33:15Z</time>
      </trkpt>
      <trkpt lat="45.5157" lon="6.66689">
        <ele>1966.3046875</ele>
        <time>2009-07-25T08:33:22Z</time>
      </trkpt>
      <trkpt lat="45.51568" lon="6.6669">
        <ele>1967.9769287</ele>
        <time>2009-07-25T08:33:27Z</time>
      </trkpt>
      <trkpt lat="45.51565" lon="6.66695">
        <ele>1970.1268311</ele>
        <time>2009-07-25T08:33:34Z</time>
      </trkpt>
      <trkpt lat="45.51562" lon="6.667">
        <ele>1972.9046631</ele>
        <time>2009-07-25T08:33:43Z</time>
      </trkpt>
      <trkpt lat="45.5156" lon="6.66704">
        <ele>1974.1873779</ele>
        <time>2009-07-25T08:33:51Z</time>
      </trkpt>
      <trkpt lat="45.51558" lon="6.6671">
        <ele>1975.9815674</ele>
        <time>2009-07-25T08:33:59Z</time>
      </trkpt>
      <trkpt lat="45.51555" lon="6.66714">
        <ele>1977.8575439</ele>
        <time>2009-07-25T08:34:07Z</time>
      </trkpt>
      <trkpt lat="45.51553" lon="6.66717">
        <ele>1979.2562256</ele>
        <time>2009-07-25T08:34:14Z</time>
      </trkpt>
      <trkpt lat="45.5155" lon="6.66723">
        <ele>1980.6678467</ele>
        <time>2009-07-25T08:34:24Z</time>
      </trkpt>
      <trkpt lat="45.51546" lon="6.66729">
        <ele>1982.6864014</ele>
        <time>2009-07-25T08:34:34Z</time>
      </trkpt>
      <trkpt lat="45.51543" lon="6.66735">
        <ele>1984.3891602</ele>
        <time>2009-07-25T08:34:43Z</time>
      </trkpt>
      <trkpt lat="45.5154" lon="6.6674">
        <ele>1986.0142822</ele>
        <time>2009-07-25T08:34:51Z</time>
      </trkpt>
      <trkpt lat="45.51538" lon="6.66744">
        <ele>1987.4064941</ele>
        <time>2009-07-25T08:34:59Z</time>
      </trkpt>
      <trkpt lat="45.51536" lon="6.66749">
        <ele>1988.5003662</ele>
        <time>2009-07-25T08:35:07Z</time>
      </trkpt>
      <trkpt lat="45.51534" lon="6.66755">
        <ele>1989.8205566</ele>
        <time>2009-07-25T08:35:16Z</time>
      </trkpt>
      <trkpt lat="45.51531" lon="6.66759">
        <ele>1991.3833008</ele>
        <time>2009-07-25T08:35:24Z</time>
      </trkpt>
      <trkpt lat="45.51527" lon="6.66761">
        <ele>1992.930542</ele>
        <time>2009-07-25T08:35:32Z</time>
      </trkpt>
      <trkpt lat="45.51525" lon="6.66762">
        <ele>1993.6292725</ele>
        <time>2009-07-25T08:35:37Z</time>
      </trkpt>
      <trkpt lat="45.51522" lon="6.66764">
        <ele>1994.7601318</ele>
        <time>2009-07-25T08:35:45Z</time>
      </trkpt>
      <trkpt lat="45.51519" lon="6.66766">
        <ele>1995.7580566</ele>
        <time>2009-07-25T08:35:52Z</time>
      </trkpt>
      <trkpt lat="45.51514" lon="6.66769">
        <ele>1997.237793</ele>
        <time>2009-07-25T08:36:00Z</time>
      </trkpt>
      <trkpt lat="45.51508" lon="6.66766">
        <ele>1998.6507568</ele>
        <time>2009-07-25T08:36:06Z</time>
      </trkpt>
      <trkpt lat="45.51506" lon="6.66761">
        <ele>1999.3288574</ele>
        <time>2009-07-25T08:36:12Z</time>
      </trkpt>
      <trkpt lat="45.51503" lon="6.66756">
        <ele>2000.079834</ele>
        <time>2009-07-25T08:36:18Z</time>
      </trkpt>
      <trkpt lat="45.515" lon="6.66751">
        <ele>2001.1582031</ele>
        <time>2009-07-25T08:36:25Z</time>
      </trkpt>
      <trkpt lat="45.51495" lon="6.66744">
        <ele>2002.9855957</ele>
        <time>2009-07-25T08:36:34Z</time>
      </trkpt>
      <trkpt lat="45.5149" lon="6.66738">
        <ele>2004.6010742</ele>
        <time>2009-07-25T08:36:42Z</time>
      </trkpt>
      <trkpt lat="45.51485" lon="6.6673">
        <ele>2006.9174805</ele>
        <time>2009-07-25T08:36:52Z</time>
      </trkpt>
      <trkpt lat="45.5148" lon="6.66724">
        <ele>2008.6829834</ele>
        <time>2009-07-25T08:37:01Z</time>
      </trkpt>
      <trkpt lat="45.51476" lon="6.66718">
        <ele>2010.7342529</ele>
        <time>2009-07-25T08:37:10Z</time>
      </trkpt>
      <trkpt lat="45.51473" lon="6.66713">
        <ele>2012.4350586</ele>
        <time>2009-07-25T08:37:17Z</time>
      </trkpt>
      <trkpt lat="45.51469" lon="6.66707">
        <ele>2013.9287109</ele>
        <time>2009-07-25T08:37:25Z</time>
      </trkpt>
      <trkpt lat="45.51465" lon="6.66702">
        <ele>2015.4155273</ele>
        <time>2009-07-25T08:37:34Z</time>
      </trkpt>
      <trkpt lat="45.51462" lon="6.66697">
        <ele>2016.6705322</ele>
        <time>2009-07-25T08:37:40Z</time>
      </trkpt>
      <trkpt lat="45.51458" lon="6.66691">
        <ele>2018.3267822</ele>
        <time>2009-07-25T08:37:48Z</time>
      </trkpt>
      <trkpt lat="45.51455" lon="6.66685">
        <ele>2019.8272705</ele>
        <time>2009-07-25T08:37:55Z</time>
      </trkpt>
      <trkpt lat="45.51451" lon="6.66679">
        <ele>2021.4876709</ele>
        <time>2009-07-25T08:38:03Z</time>
      </trkpt>
      <trkpt lat="45.51447" lon="6.66672">
        <ele>2023.7575684</ele>
        <time>2009-07-25T08:38:12Z</time>
      </trkpt>
      <trkpt lat="45.51441" lon="6.66664">
        <ele>2026.1147461</ele>
        <time>2009-07-25T08:38:23Z</time>
      </trkpt>
      <trkpt lat="45.51437" lon="6.66658">
        <ele>2027.7506104</ele>
        <time>2009-07-25T08:38:31Z</time>
      </trkpt>
      <trkpt lat="45.51433" lon="6.66652">
        <ele>2029.4724121</ele>
        <time>2009-07-25T08:38:40Z</time>
      </trkpt>
      <trkpt lat="45.5143" lon="6.66646">
        <ele>2030.9143066</ele>
        <time>2009-07-25T08:38:48Z</time>
      </trkpt>
      <trkpt lat="45.51426" lon="6.6664">
        <ele>2032.550293</ele>
        <time>2009-07-25T08:38:57Z</time>
      </trkpt>
      <trkpt lat="45.51422" lon="6.66635">
        <ele>2034.1757813</ele>
        <time>2009-07-25T08:39:05Z</time>
      </trkpt>
      <trkpt lat="45.51417" lon="6.66627">
        <ele>2036.5551758</ele>
        <time>2009-07-25T08:39:15Z</time>
      </trkpt>
      <trkpt lat="45.51413" lon="6.66622">
        <ele>2038.020874</ele>
        <time>2009-07-25T08:39:23Z</time>
      </trkpt>
      <trkpt lat="45.5141" lon="6.66617">
        <ele>2039.2503662</ele>
        <time>2009-07-25T08:39:29Z</time>
      </trkpt>
      <trkpt lat="45.51406" lon="6.6661">
        <ele>2040.6468506</ele>
        <time>2009-07-25T08:39:37Z</time>
      </trkpt>
      <trkpt lat="45.51401" lon="6.66602">
        <ele>2041.8046875</ele>
        <time>2009-07-25T08:39:45Z</time>
      </trkpt>
      <trkpt lat="45.51395" lon="6.66594">
        <ele>2043.2424316</ele>
        <time>2009-07-25T08:39:54Z</time>
      </trkpt>
      <trkpt lat="45.5139" lon="6.66587">
        <ele>2044.4331055</ele>
        <time>2009-07-25T08:40:00Z</time>
      </trkpt>
      <trkpt lat="45.51383" lon="6.66577">
        <ele>2046.0064697</ele>
        <time>2009-07-25T08:40:10Z</time>
      </trkpt>
      <trkpt lat="45.51377" lon="6.66568">
        <ele>2047.3562012</ele>
        <time>2009-07-25T08:40:19Z</time>
      </trkpt>
      <trkpt lat="45.51371" lon="6.6656">
        <ele>2048.7519531</ele>
        <time>2009-07-25T08:40:27Z</time>
      </trkpt>
      <trkpt lat="45.51366" lon="6.66552">
        <ele>2050.4543457</ele>
        <time>2009-07-25T08:40:36Z</time>
      </trkpt>
      <trkpt lat="45.51361" lon="6.66547">
        <ele>2052.2497559</ele>
        <time>2009-07-25T08:40:44Z</time>
      </trkpt>
      <trkpt lat="45.51353" lon="6.66546">
        <ele>2054.0488281</ele>
        <time>2009-07-25T08:40:53Z</time>
      </trkpt>
      <trkpt lat="45.51349" lon="6.66544">
        <ele>2055.291748</ele>
        <time>2009-07-25T08:41:00Z</time>
      </trkpt>
      <trkpt lat="45.51343" lon="6.66539">
        <ele>2057.3310547</ele>
        <time>2009-07-25T08:41:09Z</time>
      </trkpt>
      <trkpt lat="45.51337" lon="6.66536">
        <ele>2058.972168</ele>
        <time>2009-07-25T08:41:16Z</time>
      </trkpt>
      <trkpt lat="45.51332" lon="6.66532">
        <ele>2060.8215332</ele>
        <time>2009-07-25T08:41:24Z</time>
      </trkpt>
      <trkpt lat="45.51327" lon="6.6653">
        <ele>2062.5239258</ele>
        <time>2009-07-25T08:41:31Z</time>
      </trkpt>
      <trkpt lat="45.51323" lon="6.66528">
        <ele>2063.8649902</ele>
        <time>2009-07-25T08:41:36Z</time>
      </trkpt>
      <trkpt lat="45.5132" lon="6.66526">
        <ele>2065.1154785</ele>
        <time>2009-07-25T08:41:43Z</time>
      </trkpt>
      <trkpt lat="45.51316" lon="6.66525">
        <ele>2066.0698242</ele>
        <time>2009-07-25T08:41:50Z</time>
      </trkpt>
      <trkpt lat="45.51314" lon="6.66523">
        <ele>2066.9831543</ele>
        <time>2009-07-25T08:41:57Z</time>
      </trkpt>
      <trkpt lat="45.51312" lon="6.6652">
        <ele>2067.7075195</ele>
        <time>2009-07-25T08:42:03Z</time>
      </trkpt>
      <trkpt lat="45.51309" lon="6.66517">
        <ele>2068.8129883</ele>
        <time>2009-07-25T08:42:12Z</time>
      </trkpt>
      <trkpt lat="45.51305" lon="6.66515">
        <ele>2069.9667969</ele>
        <time>2009-07-25T08:42:20Z</time>
      </trkpt>
      <trkpt lat="45.51303" lon="6.66513">
        <ele>2070.7958984</ele>
        <time>2009-07-25T08:42:25Z</time>
      </trkpt>
      <trkpt lat="45.513" lon="6.6651">
        <ele>2071.90625</ele>
        <time>2009-07-25T08:42:33Z</time>
      </trkpt>
      <trkpt lat="45.51296" lon="6.66506">
        <ele>2073.2624512</ele>
        <time>2009-07-25T08:42:41Z</time>
      </trkpt>
      <trkpt lat="45.51292" lon="6.66503">
        <ele>2074.4777832</ele>
        <time>2009-07-25T08:42:48Z</time>
      </trkpt>
      <trkpt lat="45.51288" lon="6.665">
        <ele>2075.9785156</ele>
        <time>2009-07-25T08:42:56Z</time>
      </trkpt>
      <trkpt lat="45.51284" lon="6.66497">
        <ele>2077.4599609</ele>
        <time>2009-07-25T08:43:04Z</time>
      </trkpt>
      <trkpt lat="45.51278" lon="6.66493">
        <ele>2079.2871094</ele>
        <time>2009-07-25T08:43:12Z</time>
      </trkpt>
      <trkpt lat="45.51271" lon="6.66491">
        <ele>2080.1352539</ele>
        <time>2009-07-25T08:43:19Z</time>
      </trkpt>
      <trkpt lat="45.51264" lon="6.66487">
        <ele>2081.2209473</ele>
        <time>2009-07-25T08:43:27Z</time>
      </trkpt>
      <trkpt lat="45.5126" lon="6.66481">
        <ele>2082.0778809</ele>
        <time>2009-07-25T08:43:34Z</time>
      </trkpt>
      <trkpt lat="45.51254" lon="6.66476">
        <ele>2083.1518555</ele>
        <time>2009-07-25T08:43:41Z</time>
      </trkpt>
      <trkpt lat="45.51246" lon="6.66472">
        <ele>2084.8952637</ele>
        <time>2009-07-25T08:43:50Z</time>
      </trkpt>
      <trkpt lat="45.51243" lon="6.6647">
        <ele>2085.581543</ele>
        <time>2009-07-25T08:43:53Z</time>
      </trkpt>
      <trkpt lat="45.51237" lon="6.66466">
        <ele>2087.0026855</ele>
        <time>2009-07-25T08:44:01Z</time>
      </trkpt>
      <trkpt lat="45.51231" lon="6.66461">
        <ele>2088.6799316</ele>
        <time>2009-07-25T08:44:10Z</time>
      </trkpt>
      <trkpt lat="45.51223" lon="6.66454">
        <ele>2091.0773926</ele>
        <time>2009-07-25T08:44:19Z</time>
      </trkpt>
      <trkpt lat="45.51218" lon="6.66451">
        <ele>2092.5720215</ele>
        <time>2009-07-25T08:44:25Z</time>
      </trkpt>
      <trkpt lat="45.5121" lon="6.66443">
        <ele>2094.9448242</ele>
        <time>2009-07-25T08:44:35Z</time>
      </trkpt>
      <trkpt lat="45.51205" lon="6.6644">
        <ele>2096.1955566</ele>
        <time>2009-07-25T08:44:43Z</time>
      </trkpt>
      <trkpt lat="45.51201" lon="6.66436">
        <ele>2097.4746094</ele>
        <time>2009-07-25T08:44:50Z</time>
      </trkpt>
      <trkpt lat="45.51194" lon="6.66432">
        <ele>2099.5217285</ele>
        <time>2009-07-25T08:44:58Z</time>
      </trkpt>
      <trkpt lat="45.51189" lon="6.6643">
        <ele>2100.5778809</ele>
        <time>2009-07-25T08:45:03Z</time>
      </trkpt>
      <trkpt lat="45.51183" lon="6.66428">
        <ele>2101.8354492</ele>
        <time>2009-07-25T08:45:09Z</time>
      </trkpt>
      <trkpt lat="45.51175" lon="6.66427">
        <ele>2103.4714355</ele>
        <time>2009-07-25T08:45:19Z</time>
      </trkpt>
      <trkpt lat="45.51167" lon="6.6643">
        <ele>2104.8752441</ele>
        <time>2009-07-25T08:45:27Z</time>
      </trkpt>
      <trkpt lat="45.51163" lon="6.66433">
        <ele>2105.6208496</ele>
        <time>2009-07-25T08:45:31Z</time>
      </trkpt>
      <trkpt lat="45.51154" lon="6.66444">
        <ele>2107.3007813</ele>
        <time>2009-07-25T08:45:42Z</time>
      </trkpt>
      <trkpt lat="45.51147" lon="6.66455">
        <ele>2107.3464355</ele>
        <time>2009-07-25T08:45:50Z</time>
      </trkpt>
      <trkpt lat="45.51137" lon="6.66465">
        <ele>2107.9824219</ele>
        <time>2009-07-25T08:46:00Z</time>
      </trkpt>
      <trkpt lat="45.51132" lon="6.6647">
        <ele>2107.9926758</ele>
        <time>2009-07-25T08:46:05Z</time>
      </trkpt>
      <trkpt lat="45.51127" lon="6.66473">
        <ele>2108.1789551</ele>
        <time>2009-07-25T08:46:10Z</time>
      </trkpt>
      <trkpt lat="45.51119" lon="6.66477">
        <ele>2108.3850098</ele>
        <time>2009-07-25T08:46:17Z</time>
      </trkpt>
      <trkpt lat="45.51114" lon="6.66479">
        <ele>2108.7763672</ele>
        <time>2009-07-25T08:46:22Z</time>
      </trkpt>
      <trkpt lat="45.51101" lon="6.66483">
        <ele>2109.4836426</ele>
        <time>2009-07-25T08:46:30Z</time>
      </trkpt>
      <trkpt lat="45.51087" lon="6.66488">
        <ele>2110.348877</ele>
        <time>2009-07-25T08:46:39Z</time>
      </trkpt>
      <trkpt lat="45.51076" lon="6.66496">
        <ele>2110.8815918</ele>
        <time>2009-07-25T08:46:47Z</time>
      </trkpt>
      <trkpt lat="45.51065" lon="6.66506">
        <ele>2111.5004883</ele>
        <time>2009-07-25T08:46:56Z</time>
      </trkpt>
      <trkpt lat="45.51056" lon="6.66514">
        <ele>2111.8015137</ele>
        <time>2009-07-25T08:47:03Z</time>
      </trkpt>
      <trkpt lat="45.51048" lon="6.66529">
        <ele>2110.291748</ele>
        <time>2009-07-25T08:47:12Z</time>
      </trkpt>
      <trkpt lat="45.51039" lon="6.66548">
        <ele>2107.767334</ele>
        <time>2009-07-25T08:47:20Z</time>
      </trkpt>
      <trkpt lat="45.51033" lon="6.66566">
        <ele>2104.979248</ele>
        <time>2009-07-25T08:47:26Z</time>
      </trkpt>
      <trkpt lat="45.51025" lon="6.66582">
        <ele>2102.4443359</ele>
        <time>2009-07-25T08:47:32Z</time>
      </trkpt>
      <trkpt lat="45.51013" lon="6.66592">
        <ele>2101.3081055</ele>
        <time>2009-07-25T08:47:38Z</time>
      </trkpt>
      <trkpt lat="45.51002" lon="6.66607">
        <ele>2099.529541</ele>
        <time>2009-07-25T08:47:45Z</time>
      </trkpt>
      <trkpt lat="45.50992" lon="6.66617">
        <ele>2098.6743164</ele>
        <time>2009-07-25T08:47:51Z</time>
      </trkpt>
      <trkpt lat="45.50983" lon="6.66625">
        <ele>2098.1147461</ele>
        <time>2009-07-25T08:47:56Z</time>
      </trkpt>
      <trkpt lat="45.50974" lon="6.66635">
        <ele>2097.3508301</ele>
        <time>2009-07-25T08:48:02Z</time>
      </trkpt>
      <trkpt lat="45.50964" lon="6.6665">
        <ele>2096.1474609</ele>
        <time>2009-07-25T08:48:09Z</time>
      </trkpt>
      <trkpt lat="45.50957" lon="6.66663">
        <ele>2094.9509277</ele>
        <time>2009-07-25T08:48:15Z</time>
      </trkpt>
      <trkpt lat="45.50948" lon="6.66675">
        <ele>2093.7351074</ele>
        <time>2009-07-25T08:48:21Z</time>
      </trkpt>
      <trkpt lat="45.50937" lon="6.66684">
        <ele>2092.3562012</ele>
        <time>2009-07-25T08:48:27Z</time>
      </trkpt>
      <trkpt lat="45.50929" lon="6.66688">
        <ele>2091.4748535</ele>
        <time>2009-07-25T08:48:31Z</time>
      </trkpt>
      <trkpt lat="45.5092" lon="6.66692">
        <ele>2090.5622559</ele>
        <time>2009-07-25T08:48:36Z</time>
      </trkpt>
      <trkpt lat="45.50905" lon="6.66701">
        <ele>2089.8356934</ele>
        <time>2009-07-25T08:48:44Z</time>
      </trkpt>
      <trkpt lat="45.50893" lon="6.66708">
        <ele>2089.4829102</ele>
        <time>2009-07-25T08:48:50Z</time>
      </trkpt>
      <trkpt lat="45.5088" lon="6.66716">
        <ele>2088.6633301</ele>
        <time>2009-07-25T08:48:57Z</time>
      </trkpt>
      <trkpt lat="45.50873" lon="6.66729">
        <ele>2086.4997559</ele>
        <time>2009-07-25T08:49:02Z</time>
      </trkpt>
      <trkpt lat="45.50867" lon="6.6675">
        <ele>2082.7805176</ele>
        <time>2009-07-25T08:49:09Z</time>
      </trkpt>
      <trkpt lat="45.50863" lon="6.66768">
        <ele>2080.3215332</ele>
        <time>2009-07-25T08:49:15Z</time>
      </trkpt>
      <trkpt lat="45.50859" lon="6.66782">
        <ele>2078.6433105</ele>
        <time>2009-07-25T08:49:20Z</time>
      </trkpt>
      <trkpt lat="45.50853" lon="6.66793">
        <ele>2077.6166992</ele>
        <time>2009-07-25T08:49:25Z</time>
      </trkpt>
      <trkpt lat="45.50844" lon="6.66802">
        <ele>2076.6381836</ele>
        <time>2009-07-25T08:49:30Z</time>
      </trkpt>
      <trkpt lat="45.50834" lon="6.66805">
        <ele>2076.0478516</ele>
        <time>2009-07-25T08:49:35Z</time>
      </trkpt>
      <trkpt lat="45.50824" lon="6.6681">
        <ele>2076.3383789</ele>
        <time>2009-07-25T08:49:40Z</time>
      </trkpt>
      <trkpt lat="45.50814" lon="6.6682">
        <ele>2075.9804688</ele>
        <time>2009-07-25T08:49:46Z</time>
      </trkpt>
      <trkpt lat="45.50805" lon="6.66836">
        <ele>2074.9936523</ele>
        <time>2009-07-25T08:49:53Z</time>
      </trkpt>
      <trkpt lat="45.50798" lon="6.66848">
        <ele>2075.7250977</ele>
        <time>2009-07-25T08:49:58Z</time>
      </trkpt>
      <trkpt lat="45.50793" lon="6.66853">
        <ele>2076.4763184</ele>
        <time>2009-07-25T08:50:04Z</time>
      </trkpt>
      <trkpt lat="45.50795" lon="6.66856">
        <ele>2075.7414551</ele>
        <time>2009-07-25T08:50:31Z</time>
      </trkpt>
      <trkpt lat="45.50799" lon="6.66868">
        <ele>2073.5705566</ele>
        <time>2009-07-25T08:50:36Z</time>
      </trkpt>
      <trkpt lat="45.50798" lon="6.66874">
        <ele>2072.9680176</ele>
        <time>2009-07-25T08:50:38Z</time>
      </trkpt>
      <trkpt lat="45.50793" lon="6.66892">
        <ele>2070.5290527</ele>
        <time>2009-07-25T08:50:45Z</time>
      </trkpt>
      <trkpt lat="45.50793" lon="6.66895">
        <ele>2069.8989258</ele>
        <time>2009-07-25T08:50:46Z</time>
      </trkpt>
      <trkpt lat="45.50785" lon="6.66911">
        <ele>2066.3059082</ele>
        <time>2009-07-25T08:50:52Z</time>
      </trkpt>
      <trkpt lat="45.50774" lon="6.66923">
        <ele>2063.8486328</ele>
        <time>2009-07-25T08:50:58Z</time>
      </trkpt>
      <trkpt lat="45.50763" lon="6.66934">
        <ele>2063.1540527</ele>
        <time>2009-07-25T08:51:04Z</time>
      </trkpt>
      <trkpt lat="45.50753" lon="6.66947">
        <ele>2060.3691406</ele>
        <time>2009-07-25T08:51:10Z</time>
      </trkpt>
      <trkpt lat="45.50744" lon="6.66956">
        <ele>2056.9914551</ele>
        <time>2009-07-25T08:51:15Z</time>
      </trkpt>
      <trkpt lat="45.50734" lon="6.6696">
        <ele>2055.2114258</ele>
        <time>2009-07-25T08:51:20Z</time>
      </trkpt>
      <trkpt lat="45.50718" lon="6.66961">
        <ele>2053.3327637</ele>
        <time>2009-07-25T08:51:27Z</time>
      </trkpt>
      <trkpt lat="45.50706" lon="6.6696">
        <ele>2051.869873</ele>
        <time>2009-07-25T08:51:32Z</time>
      </trkpt>
      <trkpt lat="45.50694" lon="6.66958">
        <ele>2050.0563965</ele>
        <time>2009-07-25T08:51:38Z</time>
      </trkpt>
      <trkpt lat="45.50678" lon="6.66957">
        <ele>2052.5585938</ele>
        <time>2009-07-25T08:51:45Z</time>
      </trkpt>
      <trkpt lat="45.50663" lon="6.6696">
        <ele>2053.0949707</ele>
        <time>2009-07-25T08:51:52Z</time>
      </trkpt>
      <trkpt lat="45.50649" lon="6.6697">
        <ele>2051.4121094</ele>
        <time>2009-07-25T08:51:59Z</time>
      </trkpt>
      <trkpt lat="45.50637" lon="6.66981">
        <ele>2049.1572266</ele>
        <time>2009-07-25T08:52:05Z</time>
      </trkpt>
      <trkpt lat="45.50626" lon="6.66989">
        <ele>2043.7209473</ele>
        <time>2009-07-25T08:52:11Z</time>
      </trkpt>
      <trkpt lat="45.50614" lon="6.66995">
        <ele>2039.1104736</ele>
        <time>2009-07-25T08:52:17Z</time>
      </trkpt>
      <trkpt lat="45.50603" lon="6.66998">
        <ele>2038.682373</ele>
        <time>2009-07-25T08:52:23Z</time>
      </trkpt>
      <trkpt lat="45.50597" lon="6.67011">
        <ele>2036.2999268</ele>
        <time>2009-07-25T08:52:28Z</time>
      </trkpt>
      <trkpt lat="45.50593" lon="6.6702">
        <ele>2034.4710693</ele>
        <time>2009-07-25T08:52:32Z</time>
      </trkpt>
      <trkpt lat="45.50589" lon="6.67035">
        <ele>2031.272583</ele>
        <time>2009-07-25T08:52:38Z</time>
      </trkpt>
      <trkpt lat="45.50585" lon="6.67054">
        <ele>2028.1929932</ele>
        <time>2009-07-25T08:52:44Z</time>
      </trkpt>
      <trkpt lat="45.50581" lon="6.67072">
        <ele>2025.4425049</ele>
        <time>2009-07-25T08:52:50Z</time>
      </trkpt>
      <trkpt lat="45.50578" lon="6.67087">
        <ele>2023.4116211</ele>
        <time>2009-07-25T08:52:55Z</time>
      </trkpt>
      <trkpt lat="45.50576" lon="6.67102">
        <ele>2021.3284912</ele>
        <time>2009-07-25T08:53:00Z</time>
      </trkpt>
      <trkpt lat="45.50576" lon="6.67115">
        <ele>2019.2874756</ele>
        <time>2009-07-25T08:53:05Z</time>
      </trkpt>
      <trkpt lat="45.50569" lon="6.67134">
        <ele>2017.2021484</ele>
        <time>2009-07-25T08:53:12Z</time>
      </trkpt>
      <trkpt lat="45.50561" lon="6.6715">
        <ele>2015.0146484</ele>
        <time>2009-07-25T08:53:18Z</time>
      </trkpt>
      <trkpt lat="45.50552" lon="6.67164">
        <ele>2013.4277344</ele>
        <time>2009-07-25T08:53:24Z</time>
      </trkpt>
      <trkpt lat="45.50541" lon="6.6718">
        <ele>2012.3404541</ele>
        <time>2009-07-25T08:53:31Z</time>
      </trkpt>
      <trkpt lat="45.50531" lon="6.67197">
        <ele>2010.1640625</ele>
        <time>2009-07-25T08:53:38Z</time>
      </trkpt>
      <trkpt lat="45.50524" lon="6.67207">
        <ele>2009.282959</ele>
        <time>2009-07-25T08:53:43Z</time>
      </trkpt>
      <trkpt lat="45.50521" lon="6.67212">
        <ele>2008.7310791</ele>
        <time>2009-07-25T08:53:45Z</time>
      </trkpt>
      <trkpt lat="45.50511" lon="6.67224">
        <ele>2007.487915</ele>
        <time>2009-07-25T08:53:51Z</time>
      </trkpt>
      <trkpt lat="45.50504" lon="6.67239">
        <ele>2005.0609131</ele>
        <time>2009-07-25T08:53:57Z</time>
      </trkpt>
      <trkpt lat="45.50497" lon="6.67256">
        <ele>2002.4073486</ele>
        <time>2009-07-25T08:54:03Z</time>
      </trkpt>
      <trkpt lat="45.50495" lon="6.67269">
        <ele>1999.9659424</ele>
        <time>2009-07-25T08:54:08Z</time>
      </trkpt>
      <trkpt lat="45.50492" lon="6.67292">
        <ele>1995.7943115</ele>
        <time>2009-07-25T08:54:15Z</time>
      </trkpt>
      <trkpt lat="45.5049" lon="6.67312">
        <ele>1992.5980225</ele>
        <time>2009-07-25T08:54:21Z</time>
      </trkpt>
      <trkpt lat="45.5049" lon="6.67328">
        <ele>1990.6812744</ele>
        <time>2009-07-25T08:54:26Z</time>
      </trkpt>
      <trkpt lat="45.50492" lon="6.67346">
        <ele>1989.8101807</ele>
        <time>2009-07-25T08:54:32Z</time>
      </trkpt>
      <trkpt lat="45.50495" lon="6.67359">
        <ele>1989.4195557</ele>
        <time>2009-07-25T08:54:37Z</time>
      </trkpt>
      <trkpt lat="45.50496" lon="6.67373">
        <ele>1989.1671143</ele>
        <time>2009-07-25T08:54:42Z</time>
      </trkpt>
      <trkpt lat="45.50495" lon="6.67393">
        <ele>1989.0958252</ele>
        <time>2009-07-25T08:54:48Z</time>
      </trkpt>
      <trkpt lat="45.50497" lon="6.6741">
        <ele>1988.7943115</ele>
        <time>2009-07-25T08:54:53Z</time>
      </trkpt>
      <trkpt lat="45.505" lon="6.67433">
        <ele>1988.6655273</ele>
        <time>2009-07-25T08:55:00Z</time>
      </trkpt>
      <trkpt lat="45.50503" lon="6.67451">
        <ele>1988.4001465</ele>
        <time>2009-07-25T08:55:06Z</time>
      </trkpt>
      <trkpt lat="45.50507" lon="6.67478">
        <ele>1987.4686279</ele>
        <time>2009-07-25T08:55:15Z</time>
      </trkpt>
      <trkpt lat="45.50512" lon="6.6749">
        <ele>1986.7740479</ele>
        <time>2009-07-25T08:55:20Z</time>
      </trkpt>
      <trkpt lat="45.50517" lon="6.67508">
        <ele>1985.9594727</ele>
        <time>2009-07-25T08:55:26Z</time>
      </trkpt>
      <trkpt lat="45.50525" lon="6.67526">
        <ele>1984.5175781</ele>
        <time>2009-07-25T08:55:32Z</time>
      </trkpt>
      <trkpt lat="45.50531" lon="6.67542">
        <ele>1983.9984131</ele>
        <time>2009-07-25T08:55:38Z</time>
      </trkpt>
      <trkpt lat="45.50537" lon="6.67559">
        <ele>1983.65625</ele>
        <time>2009-07-25T08:55:44Z</time>
      </trkpt>
      <trkpt lat="45.50542" lon="6.67577">
        <ele>1982.9970703</ele>
        <time>2009-07-25T08:55:50Z</time>
      </trkpt>
      <trkpt lat="45.50547" lon="6.67595">
        <ele>1982.6379395</ele>
        <time>2009-07-25T08:55:56Z</time>
      </trkpt>
      <trkpt lat="45.50549" lon="6.67602">
        <ele>1982.6722412</ele>
        <time>2009-07-25T08:55:58Z</time>
      </trkpt>
      <trkpt lat="45.50554" lon="6.67606">
        <ele>1982.0541992</ele>
        <time>2009-07-25T08:56:02Z</time>
      </trkpt>
      <trkpt lat="45.50564" lon="6.67603">
        <ele>1981.2103271</ele>
        <time>2009-07-25T08:56:10Z</time>
      </trkpt>
      <trkpt lat="45.50568" lon="6.67601">
        <ele>1980.911377</ele>
        <time>2009-07-25T08:56:15Z</time>
      </trkpt>
      <trkpt lat="45.50575" lon="6.676">
        <ele>1980.4899902</ele>
        <time>2009-07-25T08:56:21Z</time>
      </trkpt>
      <trkpt lat="45.50585" lon="6.67599">
        <ele>1979.9711914</ele>
        <time>2009-07-25T08:56:27Z</time>
      </trkpt>
      <trkpt lat="45.50589" lon="6.67597">
        <ele>1979.8966064</ele>
        <time>2009-07-25T08:56:33Z</time>
      </trkpt>
      <trkpt lat="45.5059" lon="6.67599">
        <ele>1979.8703613</ele>
        <time>2009-07-25T08:56:51Z</time>
      </trkpt>
      <trkpt lat="45.5059" lon="6.676">
        <ele>1979.8513184</ele>
        <time>2009-07-25T08:56:59Z</time>
      </trkpt>
      <trkpt lat="45.50591" lon="6.67602">
        <ele>1979.8226318</ele>
        <time>2009-07-25T08:57:04Z</time>
      </trkpt>
      <trkpt lat="45.50588" lon="6.67602">
        <ele>1979.8922119</ele>
        <time>2009-07-25T08:57:27Z</time>
      </trkpt>
      <trkpt lat="45.5059" lon="6.676">
        <ele>1979.8612061</ele>
        <time>2009-07-25T08:57:31Z</time>
      </trkpt>
      <trkpt lat="45.50589" lon="6.67604">
        <ele>1979.8508301</ele>
        <time>2009-07-25T08:57:37Z</time>
      </trkpt>
      <trkpt lat="45.5059" lon="6.67613">
        <ele>1979.755127</ele>
        <time>2009-07-25T08:57:44Z</time>
      </trkpt>
      <trkpt lat="45.50591" lon="6.67617">
        <ele>1979.7277832</ele>
        <time>2009-07-25T08:57:49Z</time>
      </trkpt>
      <trkpt lat="45.50587" lon="6.67625">
        <ele>1979.8787842</ele>
        <time>2009-07-25T08:57:55Z</time>
      </trkpt>
      <trkpt lat="45.50586" lon="6.67627">
        <ele>1979.90625</ele>
        <time>2009-07-25T08:57:56Z</time>
      </trkpt>
      <trkpt lat="45.50584" lon="6.67632">
        <ele>1979.9611816</ele>
        <time>2009-07-25T08:57:59Z</time>
      </trkpt>
      <trkpt lat="45.50582" lon="6.67639">
        <ele>1980.1724854</ele>
        <time>2009-07-25T08:58:03Z</time>
      </trkpt>
      <trkpt lat="45.50578" lon="6.67655">
        <ele>1980.6983643</ele>
        <time>2009-07-25T08:58:11Z</time>
      </trkpt>
      <trkpt lat="45.50576" lon="6.67661">
        <ele>1981.0491943</ele>
        <time>2009-07-25T08:58:14Z</time>
      </trkpt>
      <trkpt lat="45.50575" lon="6.67672">
        <ele>1981.276123</ele>
        <time>2009-07-25T08:58:20Z</time>
      </trkpt>
      <trkpt lat="45.50574" lon="6.67688">
        <ele>1981.5821533</ele>
        <time>2009-07-25T08:58:28Z</time>
      </trkpt>
      <trkpt lat="45.50571" lon="6.67701">
        <ele>1982.416626</ele>
        <time>2009-07-25T08:58:35Z</time>
      </trkpt>
      <trkpt lat="45.5057" lon="6.67705">
        <ele>1982.8511963</ele>
        <time>2009-07-25T08:58:38Z</time>
      </trkpt>
      <trkpt lat="45.50564" lon="6.67711">
        <ele>1983.8572998</ele>
        <time>2009-07-25T08:58:45Z</time>
      </trkpt>
      <trkpt lat="45.50557" lon="6.67714">
        <ele>1984.8215332</ele>
        <time>2009-07-25T08:58:51Z</time>
      </trkpt>
      <trkpt lat="45.50554" lon="6.6772">
        <ele>1985.1807861</ele>
        <time>2009-07-25T08:58:55Z</time>
      </trkpt>
      <trkpt lat="45.50551" lon="6.67729">
        <ele>1985.819458</ele>
        <time>2009-07-25T08:59:01Z</time>
      </trkpt>
      <trkpt lat="45.50551" lon="6.6773">
        <ele>1985.9182129</ele>
        <time>2009-07-25T08:59:02Z</time>
      </trkpt>
      <trkpt lat="45.50548" lon="6.6774">
        <ele>1986.5758057</ele>
        <time>2009-07-25T08:59:08Z</time>
      </trkpt>
      <trkpt lat="45.50547" lon="6.67741">
        <ele>1986.6967773</ele>
        <time>2009-07-25T08:59:09Z</time>
      </trkpt>
      <trkpt lat="45.50542" lon="6.67749">
        <ele>1987.3913574</ele>
        <time>2009-07-25T08:59:15Z</time>
      </trkpt>
      <trkpt lat="45.50541" lon="6.6775">
        <ele>1987.5394287</ele>
        <time>2009-07-25T08:59:16Z</time>
      </trkpt>
      <trkpt lat="45.50538" lon="6.67756">
        <ele>1988.0556641</ele>
        <time>2009-07-25T08:59:20Z</time>
      </trkpt>
      <trkpt lat="45.5053" lon="6.67768">
        <ele>1989.3759766</ele>
        <time>2009-07-25T08:59:28Z</time>
      </trkpt>
      <trkpt lat="45.50529" lon="6.67769">
        <ele>1989.5727539</ele>
        <time>2009-07-25T08:59:29Z</time>
      </trkpt>
      <trkpt lat="45.50522" lon="6.67775">
        <ele>1990.5604248</ele>
        <time>2009-07-25T08:59:34Z</time>
      </trkpt>
      <trkpt lat="45.50513" lon="6.67779">
        <ele>1991.6289063</ele>
        <time>2009-07-25T08:59:41Z</time>
      </trkpt>
      <trkpt lat="45.505" lon="6.67786">
        <ele>1992.9472656</ele>
        <time>2009-07-25T08:59:51Z</time>
      </trkpt>
      <trkpt lat="45.50491" lon="6.67794">
        <ele>1994.3029785</ele>
        <time>2009-07-25T09:00:00Z</time>
      </trkpt>
      <trkpt lat="45.50483" lon="6.67803">
        <ele>1995.5114746</ele>
        <time>2009-07-25T09:00:08Z</time>
      </trkpt>
      <trkpt lat="45.50472" lon="6.6781">
        <ele>1996.9265137</ele>
        <time>2009-07-25T09:00:18Z</time>
      </trkpt>
      <trkpt lat="45.5046" lon="6.67814">
        <ele>1997.9857178</ele>
        <time>2009-07-25T09:00:27Z</time>
      </trkpt>
      <trkpt lat="45.50449" lon="6.6782">
        <ele>1998.9487305</ele>
        <time>2009-07-25T09:00:36Z</time>
      </trkpt>
      <trkpt lat="45.5044" lon="6.67826">
        <ele>1999.8768311</ele>
        <time>2009-07-25T09:00:44Z</time>
      </trkpt>
      <trkpt lat="45.5043" lon="6.67829">
        <ele>2001.3188477</ele>
        <time>2009-07-25T09:00:53Z</time>
      </trkpt>
      <trkpt lat="45.50416" lon="6.67833">
        <ele>2003.1520996</ele>
        <time>2009-07-25T09:01:03Z</time>
      </trkpt>
      <trkpt lat="45.50407" lon="6.67838">
        <ele>2004.4920654</ele>
        <time>2009-07-25T09:01:10Z</time>
      </trkpt>
      <trkpt lat="45.50398" lon="6.67845">
        <ele>2005.8372803</ele>
        <time>2009-07-25T09:01:19Z</time>
      </trkpt>
      <trkpt lat="45.5039" lon="6.67857">
        <ele>2006.8895264</ele>
        <time>2009-07-25T09:01:29Z</time>
      </trkpt>
      <trkpt lat="45.50385" lon="6.67867">
        <ele>2008.3829346</ele>
        <time>2009-07-25T09:01:37Z</time>
      </trkpt>
      <trkpt lat="45.50383" lon="6.67873">
        <ele>2009.4812012</ele>
        <time>2009-07-25T09:01:42Z</time>
      </trkpt>
      <trkpt lat="45.50384" lon="6.67886">
        <ele>2010.4499512</ele>
        <time>2009-07-25T09:01:50Z</time>
      </trkpt>
      <trkpt lat="45.50384" lon="6.67894">
        <ele>2011.8393555</ele>
        <time>2009-07-25T09:01:55Z</time>
      </trkpt>
      <trkpt lat="45.50384" lon="6.67903">
        <ele>2013.7213135</ele>
        <time>2009-07-25T09:02:02Z</time>
      </trkpt>
      <trkpt lat="45.50386" lon="6.6791">
        <ele>2015.043457</ele>
        <time>2009-07-25T09:02:09Z</time>
      </trkpt>
      <trkpt lat="45.50389" lon="6.67919">
        <ele>2016.3682861</ele>
        <time>2009-07-25T09:02:17Z</time>
      </trkpt>
      <trkpt lat="45.50391" lon="6.67924">
        <ele>2017.2813721</ele>
        <time>2009-07-25T09:02:20Z</time>
      </trkpt>
      <trkpt lat="45.50394" lon="6.6793">
        <ele>2018.2037354</ele>
        <time>2009-07-25T09:02:24Z</time>
      </trkpt>
      <trkpt lat="45.50399" lon="6.67939">
        <ele>2019.215332</ele>
        <time>2009-07-25T09:02:32Z</time>
      </trkpt>
      <trkpt lat="45.50404" lon="6.67945">
        <ele>2019.5319824</ele>
        <time>2009-07-25T09:02:39Z</time>
      </trkpt>
      <trkpt lat="45.50412" lon="6.67952">
        <ele>2020.5678711</ele>
        <time>2009-07-25T09:02:47Z</time>
      </trkpt>
      <trkpt lat="45.50421" lon="6.67956">
        <ele>2020.7857666</ele>
        <time>2009-07-25T09:02:53Z</time>
      </trkpt>
      <trkpt lat="45.50425" lon="6.6796">
        <ele>2021.8236084</ele>
        <time>2009-07-25T09:02:58Z</time>
      </trkpt>
      <trkpt lat="45.50431" lon="6.67966">
        <ele>2023.1004639</ele>
        <time>2009-07-25T09:03:05Z</time>
      </trkpt>
      <trkpt lat="45.5044" lon="6.67974">
        <ele>2024.1918945</ele>
        <time>2009-07-25T09:03:13Z</time>
      </trkpt>
      <trkpt lat="45.50445" lon="6.67982">
        <ele>2026.0395508</ele>
        <time>2009-07-25T09:03:21Z</time>
      </trkpt>
      <trkpt lat="45.50452" lon="6.6799">
        <ele>2028.0479736</ele>
        <time>2009-07-25T09:03:29Z</time>
      </trkpt>
      <trkpt lat="45.50456" lon="6.67996">
        <ele>2029.5157471</ele>
        <time>2009-07-25T09:03:35Z</time>
      </trkpt>
      <trkpt lat="45.50459" lon="6.68004">
        <ele>2031.3093262</ele>
        <time>2009-07-25T09:03:41Z</time>
      </trkpt>
      <trkpt lat="45.50461" lon="6.68012">
        <ele>2032.8223877</ele>
        <time>2009-07-25T09:03:48Z</time>
      </trkpt>
      <trkpt lat="45.50463" lon="6.68016">
        <ele>2033.3985596</ele>
        <time>2009-07-25T09:03:53Z</time>
      </trkpt>
      <trkpt lat="45.50467" lon="6.68026">
        <ele>2034.7791748</ele>
        <time>2009-07-25T09:04:00Z</time>
      </trkpt>
      <trkpt lat="45.50468" lon="6.68028">
        <ele>2034.9910889</ele>
        <time>2009-07-25T09:04:01Z</time>
      </trkpt>
      <trkpt lat="45.50468" lon="6.68031">
        <ele>2035.6625977</ele>
        <time>2009-07-25T09:04:03Z</time>
      </trkpt>
      <trkpt lat="45.50472" lon="6.6805">
        <ele>2038.8234863</ele>
        <time>2009-07-25T09:04:14Z</time>
      </trkpt>
      <trkpt lat="45.50476" lon="6.68064">
        <ele>2040.9962158</ele>
        <time>2009-07-25T09:04:23Z</time>
      </trkpt>
      <trkpt lat="45.50481" lon="6.68077">
        <ele>2042.854248</ele>
        <time>2009-07-25T09:04:32Z</time>
      </trkpt>
      <trkpt lat="45.50484" lon="6.6809">
        <ele>2044.953125</ele>
        <time>2009-07-25T09:04:39Z</time>
      </trkpt>
      <trkpt lat="45.50485" lon="6.68097">
        <ele>2046.1513672</ele>
        <time>2009-07-25T09:04:44Z</time>
      </trkpt>
      <trkpt lat="45.50486" lon="6.68107">
        <ele>2047.7358398</ele>
        <time>2009-07-25T09:04:49Z</time>
      </trkpt>
      <trkpt lat="45.50488" lon="6.68115">
        <ele>2049.0949707</ele>
        <time>2009-07-25T09:04:55Z</time>
      </trkpt>
      <trkpt lat="45.50489" lon="6.68123">
        <ele>2050.4655762</ele>
        <time>2009-07-25T09:05:01Z</time>
      </trkpt>
      <trkpt lat="45.50489" lon="6.68131">
        <ele>2051.9887695</ele>
        <time>2009-07-25T09:05:06Z</time>
      </trkpt>
      <trkpt lat="45.50496" lon="6.68142">
        <ele>2053.3623047</ele>
        <time>2009-07-25T09:05:14Z</time>
      </trkpt>
      <trkpt lat="45.50504" lon="6.68148">
        <ele>2053.0480957</ele>
        <time>2009-07-25T09:05:20Z</time>
      </trkpt>
      <trkpt lat="45.50509" lon="6.68156">
        <ele>2053.2480469</ele>
        <time>2009-07-25T09:05:27Z</time>
      </trkpt>
      <trkpt lat="45.5051" lon="6.68157">
        <ele>2053.2775879</ele>
        <time>2009-07-25T09:05:28Z</time>
      </trkpt>
      <trkpt lat="45.50516" lon="6.68169">
        <ele>2054.6176758</ele>
        <time>2009-07-25T09:05:38Z</time>
      </trkpt>
      <trkpt lat="45.5052" lon="6.68186">
        <ele>2055.5922852</ele>
        <time>2009-07-25T09:05:48Z</time>
      </trkpt>
      <trkpt lat="45.50527" lon="6.68202">
        <ele>2056.2766113</ele>
        <time>2009-07-25T09:05:58Z</time>
      </trkpt>
      <trkpt lat="45.5053" lon="6.68212">
        <ele>2057.0561523</ele>
        <time>2009-07-25T09:06:04Z</time>
      </trkpt>
      <trkpt lat="45.50533" lon="6.68221">
        <ele>2057.6862793</ele>
        <time>2009-07-25T09:06:10Z</time>
      </trkpt>
      <trkpt lat="45.50536" lon="6.68233">
        <ele>2058.4633789</ele>
        <time>2009-07-25T09:06:17Z</time>
      </trkpt>
      <trkpt lat="45.50533" lon="6.68247">
        <ele>2061.0446777</ele>
        <time>2009-07-25T09:06:27Z</time>
      </trkpt>
      <trkpt lat="45.50528" lon="6.68258">
        <ele>2064.2460938</ele>
        <time>2009-07-25T09:06:37Z</time>
      </trkpt>
      <trkpt lat="45.50525" lon="6.68272">
        <ele>2066.6999512</ele>
        <time>2009-07-25T09:06:47Z</time>
      </trkpt>
      <trkpt lat="45.50525" lon="6.68283">
        <ele>2068.2299805</ele>
        <time>2009-07-25T09:06:55Z</time>
      </trkpt>
      <trkpt lat="45.50524" lon="6.68296">
        <ele>2069.8881836</ele>
        <time>2009-07-25T09:07:03Z</time>
      </trkpt>
      <trkpt lat="45.50522" lon="6.68299">
        <ele>2070.5678711</ele>
        <time>2009-07-25T09:07:06Z</time>
      </trkpt>
      <trkpt lat="45.50514" lon="6.68302">
        <ele>2072.5041504</ele>
        <time>2009-07-25T09:07:17Z</time>
      </trkpt>
      <trkpt lat="45.5051" lon="6.68304">
        <ele>2073.5908203</ele>
        <time>2009-07-25T09:07:23Z</time>
      </trkpt>
      <trkpt lat="45.50503" lon="6.68305">
        <ele>2075.3005371</ele>
        <time>2009-07-25T09:07:32Z</time>
      </trkpt>
      <trkpt lat="45.50496" lon="6.68304">
        <ele>2076.3649902</ele>
        <time>2009-07-25T09:07:39Z</time>
      </trkpt>
      <trkpt lat="45.50489" lon="6.68306">
        <ele>2077.6311035</ele>
        <time>2009-07-25T09:07:47Z</time>
      </trkpt>
      <trkpt lat="45.50482" lon="6.68313">
        <ele>2078.8066406</ele>
        <time>2009-07-25T09:07:55Z</time>
      </trkpt>
      <trkpt lat="45.50473" lon="6.68322">
        <ele>2080.5275879</ele>
        <time>2009-07-25T09:08:06Z</time>
      </trkpt>
      <trkpt lat="45.50466" lon="6.6833">
        <ele>2081.7302246</ele>
        <time>2009-07-25T09:08:15Z</time>
      </trkpt>
      <trkpt lat="45.50463" lon="6.6834">
        <ele>2083.9423828</ele>
        <time>2009-07-25T09:08:22Z</time>
      </trkpt>
      <trkpt lat="45.50462" lon="6.68348">
        <ele>2086.425293</ele>
        <time>2009-07-25T09:08:31Z</time>
      </trkpt>
      <trkpt lat="45.50459" lon="6.68353">
        <ele>2088.3505859</ele>
        <time>2009-07-25T09:08:38Z</time>
      </trkpt>
      <trkpt lat="45.50455" lon="6.68361">
        <ele>2090.934082</ele>
        <time>2009-07-25T09:08:48Z</time>
      </trkpt>
      <trkpt lat="45.50451" lon="6.68369">
        <ele>2093.4282227</ele>
        <time>2009-07-25T09:09:00Z</time>
      </trkpt>
      <trkpt lat="45.5045" lon="6.68374">
        <ele>2094.876709</ele>
        <time>2009-07-25T09:09:08Z</time>
      </trkpt>
      <trkpt lat="45.50446" lon="6.6838">
        <ele>2097.4318848</ele>
        <time>2009-07-25T09:09:17Z</time>
      </trkpt>
      <trkpt lat="45.50442" lon="6.68386">
        <ele>2099.5305176</ele>
        <time>2009-07-25T09:09:26Z</time>
      </trkpt>
      <trkpt lat="45.50438" lon="6.68393">
        <ele>2100.6374512</ele>
        <time>2009-07-25T09:09:34Z</time>
      </trkpt>
      <trkpt lat="45.50435" lon="6.68396">
        <ele>2101.1181641</ele>
        <time>2009-07-25T09:09:40Z</time>
      </trkpt>
      <trkpt lat="45.50433" lon="6.68399">
        <ele>2101.5</ele>
        <time>2009-07-25T09:09:45Z</time>
      </trkpt>
      <trkpt lat="45.50429" lon="6.68403">
        <ele>2102.1687012</ele>
        <time>2009-07-25T09:09:52Z</time>
      </trkpt>
      <trkpt lat="45.50426" lon="6.68407">
        <ele>2102.7854004</ele>
        <time>2009-07-25T09:09:57Z</time>
      </trkpt>
      <trkpt lat="45.50424" lon="6.68418">
        <ele>2103.9680176</ele>
        <time>2009-07-25T09:10:04Z</time>
      </trkpt>
      <trkpt lat="45.50421" lon="6.68433">
        <ele>2105.5029297</ele>
        <time>2009-07-25T09:10:13Z</time>
      </trkpt>
      <trkpt lat="45.50417" lon="6.68452">
        <ele>2105.079834</ele>
        <time>2009-07-25T09:10:24Z</time>
      </trkpt>
      <trkpt lat="45.50415" lon="6.68466">
        <ele>2102.1000977</ele>
        <time>2009-07-25T09:10:32Z</time>
      </trkpt>
      <trkpt lat="45.5041" lon="6.68483">
        <ele>2102.3330078</ele>
        <time>2009-07-25T09:10:42Z</time>
      </trkpt>
      <trkpt lat="45.50405" lon="6.68499">
        <ele>2103.9030762</ele>
        <time>2009-07-25T09:10:52Z</time>
      </trkpt>
      <trkpt lat="45.50399" lon="6.68515">
        <ele>2106.326416</ele>
        <time>2009-07-25T09:11:03Z</time>
      </trkpt>
      <trkpt lat="45.50395" lon="6.68531">
        <ele>2107.8161621</ele>
        <time>2009-07-25T09:11:13Z</time>
      </trkpt>
      <trkpt lat="45.50393" lon="6.68541">
        <ele>2109.6472168</ele>
        <time>2009-07-25T09:11:20Z</time>
      </trkpt>
      <trkpt lat="45.5039" lon="6.6855">
        <ele>2111.137207</ele>
        <time>2009-07-25T09:11:27Z</time>
      </trkpt>
      <trkpt lat="45.50387" lon="6.68561">
        <ele>2112.4345703</ele>
        <time>2009-07-25T09:11:35Z</time>
      </trkpt>
      <trkpt lat="45.50382" lon="6.68572">
        <ele>2113.0527344</ele>
        <time>2009-07-25T09:11:43Z</time>
      </trkpt>
      <trkpt lat="45.50374" lon="6.68583">
        <ele>2113.3664551</ele>
        <time>2009-07-25T09:11:52Z</time>
      </trkpt>
      <trkpt lat="45.50367" lon="6.68596">
        <ele>2113.3681641</ele>
        <time>2009-07-25T09:12:02Z</time>
      </trkpt>
      <trkpt lat="45.50362" lon="6.6861">
        <ele>2113.9431152</ele>
        <time>2009-07-25T09:12:12Z</time>
      </trkpt>
      <trkpt lat="45.5036" lon="6.68622">
        <ele>2114.9926758</ele>
        <time>2009-07-25T09:12:19Z</time>
      </trkpt>
      <trkpt lat="45.50359" lon="6.68632">
        <ele>2116.0029297</ele>
        <time>2009-07-25T09:12:25Z</time>
      </trkpt>
      <trkpt lat="45.50359" lon="6.68644">
        <ele>2117.3674316</ele>
        <time>2009-07-25T09:12:32Z</time>
      </trkpt>
      <trkpt lat="45.50359" lon="6.68663">
        <ele>2119.354248</ele>
        <time>2009-07-25T09:12:43Z</time>
      </trkpt>
      <trkpt lat="45.50359" lon="6.68676">
        <ele>2121.5571289</ele>
        <time>2009-07-25T09:12:52Z</time>
      </trkpt>
      <trkpt lat="45.50357" lon="6.68695">
        <ele>2124.7705078</ele>
        <time>2009-07-25T09:13:03Z</time>
      </trkpt>
      <trkpt lat="45.50356" lon="6.68706">
        <ele>2126.7893066</ele>
        <time>2009-07-25T09:13:11Z</time>
      </trkpt>
      <trkpt lat="45.50352" lon="6.68717">
        <ele>2128.3874512</ele>
        <time>2009-07-25T09:13:19Z</time>
      </trkpt>
      <trkpt lat="45.50348" lon="6.68726">
        <ele>2129.3552246</ele>
        <time>2009-07-25T09:13:26Z</time>
      </trkpt>
      <trkpt lat="45.50346" lon="6.68737">
        <ele>2130.2866211</ele>
        <time>2009-07-25T09:13:34Z</time>
      </trkpt>
      <trkpt lat="45.50343" lon="6.68751">
        <ele>2131.6948242</ele>
        <time>2009-07-25T09:13:43Z</time>
      </trkpt>
      <trkpt lat="45.50342" lon="6.68763">
        <ele>2132.9770508</ele>
        <time>2009-07-25T09:13:52Z</time>
      </trkpt>
      <trkpt lat="45.5034" lon="6.68776">
        <ele>2134.3071289</ele>
        <time>2009-07-25T09:13:59Z</time>
      </trkpt>
      <trkpt lat="45.50333" lon="6.68788">
        <ele>2136.5991211</ele>
        <time>2009-07-25T09:14:09Z</time>
      </trkpt>
      <trkpt lat="45.50323" lon="6.68801">
        <ele>2139.4812012</ele>
        <time>2009-07-25T09:14:20Z</time>
      </trkpt>
      <trkpt lat="45.50315" lon="6.68812">
        <ele>2140.942627</ele>
        <time>2009-07-25T09:14:30Z</time>
      </trkpt>
      <trkpt lat="45.50308" lon="6.68825">
        <ele>2142.2172852</ele>
        <time>2009-07-25T09:14:39Z</time>
      </trkpt>
      <trkpt lat="45.50303" lon="6.68842">
        <ele>2143.4147949</ele>
        <time>2009-07-25T09:14:49Z</time>
      </trkpt>
      <trkpt lat="45.50302" lon="6.68853">
        <ele>2143.6479492</ele>
        <time>2009-07-25T09:14:55Z</time>
      </trkpt>
      <trkpt lat="45.50298" lon="6.68874">
        <ele>2144.0834961</ele>
        <time>2009-07-25T09:15:06Z</time>
      </trkpt>
      <trkpt lat="45.50297" lon="6.68894">
        <ele>2144.2729492</ele>
        <time>2009-07-25T09:15:16Z</time>
      </trkpt>
      <trkpt lat="45.50296" lon="6.68909">
        <ele>2144.7565918</ele>
        <time>2009-07-25T09:15:23Z</time>
      </trkpt>
      <trkpt lat="45.50293" lon="6.6893">
        <ele>2145.723877</ele>
        <time>2009-07-25T09:15:33Z</time>
      </trkpt>
      <trkpt lat="45.50288" lon="6.68947">
        <ele>2147.6176758</ele>
        <time>2009-07-25T09:15:42Z</time>
      </trkpt>
      <trkpt lat="45.50282" lon="6.68968">
        <ele>2150.2624512</ele>
        <time>2009-07-25T09:15:53Z</time>
      </trkpt>
      <trkpt lat="45.5028" lon="6.68989">
        <ele>2151.1210938</ele>
        <time>2009-07-25T09:16:03Z</time>
      </trkpt>
      <trkpt lat="45.5028" lon="6.68992">
        <ele>2151.1281738</ele>
        <time>2009-07-25T09:16:04Z</time>
      </trkpt>
      <trkpt lat="45.50282" lon="6.69">
        <ele>2150.7856445</ele>
        <time>2009-07-25T09:16:08Z</time>
      </trkpt>
      <trkpt lat="45.50286" lon="6.69022">
        <ele>2150.9753418</ele>
        <time>2009-07-25T09:16:18Z</time>
      </trkpt>
      <trkpt lat="45.50288" lon="6.69039">
        <ele>2151.1989746</ele>
        <time>2009-07-25T09:16:26Z</time>
      </trkpt>
      <trkpt lat="45.50291" lon="6.69058">
        <ele>2151.2797852</ele>
        <time>2009-07-25T09:16:35Z</time>
      </trkpt>
      <trkpt lat="45.50291" lon="6.69077">
        <ele>2152.7836914</ele>
        <time>2009-07-25T09:16:44Z</time>
      </trkpt>
      <trkpt lat="45.50292" lon="6.69099">
        <ele>2152.8276367</ele>
        <time>2009-07-25T09:16:54Z</time>
      </trkpt>
      <trkpt lat="45.50295" lon="6.69117">
        <ele>2152.1213379</ele>
        <time>2009-07-25T09:17:02Z</time>
      </trkpt>
      <trkpt lat="45.503" lon="6.69138">
        <ele>2151.2087402</ele>
        <time>2009-07-25T09:17:12Z</time>
      </trkpt>
      <trkpt lat="45.50306" lon="6.69156">
        <ele>2150.3691406</ele>
        <time>2009-07-25T09:17:21Z</time>
      </trkpt>
      <trkpt lat="45.50309" lon="6.69175">
        <ele>2149.5046387</ele>
        <time>2009-07-25T09:17:30Z</time>
      </trkpt>
      <trkpt lat="45.50311" lon="6.69181">
        <ele>2148.9599609</ele>
        <time>2009-07-25T09:17:33Z</time>
      </trkpt>
      <trkpt lat="45.50314" lon="6.69194">
        <ele>2147.6037598</ele>
        <time>2009-07-25T09:17:39Z</time>
      </trkpt>
      <trkpt lat="45.50315" lon="6.69209">
        <ele>2146.135498</ele>
        <time>2009-07-25T09:17:46Z</time>
      </trkpt>
      <trkpt lat="45.50317" lon="6.69219">
        <ele>2145.1220703</ele>
        <time>2009-07-25T09:17:51Z</time>
      </trkpt>
      <trkpt lat="45.50325" lon="6.69235">
        <ele>2144.8305664</ele>
        <time>2009-07-25T09:17:59Z</time>
      </trkpt>
      <trkpt lat="45.50331" lon="6.69243">
        <ele>2144.7172852</ele>
        <time>2009-07-25T09:18:05Z</time>
      </trkpt>
      <trkpt lat="45.50338" lon="6.69255">
        <ele>2144.5004883</ele>
        <time>2009-07-25T09:18:13Z</time>
      </trkpt>
      <trkpt lat="45.50345" lon="6.69268">
        <ele>2144.2429199</ele>
        <time>2009-07-25T09:18:21Z</time>
      </trkpt>
      <trkpt lat="45.50349" lon="6.69278">
        <ele>2144.2792969</ele>
        <time>2009-07-25T09:18:26Z</time>
      </trkpt>
      <trkpt lat="45.50352" lon="6.69295">
        <ele>2145.0378418</ele>
        <time>2009-07-25T09:18:33Z</time>
      </trkpt>
      <trkpt lat="45.50355" lon="6.69315">
        <ele>2146.3483887</ele>
        <time>2009-07-25T09:18:40Z</time>
      </trkpt>
      <trkpt lat="45.50354" lon="6.69333">
        <ele>2147.7524414</ele>
        <time>2009-07-25T09:18:46Z</time>
      </trkpt>
      <trkpt lat="45.5035" lon="6.69359">
        <ele>2147.0449219</ele>
        <time>2009-07-25T09:18:55Z</time>
      </trkpt>
      <trkpt lat="45.50344" lon="6.69377">
        <ele>2146.1945801</ele>
        <time>2009-07-25T09:19:02Z</time>
      </trkpt>
      <trkpt lat="45.50336" lon="6.69388">
        <ele>2145.847168</ele>
        <time>2009-07-25T09:19:08Z</time>
      </trkpt>
      <trkpt lat="45.50324" lon="6.69393">
        <ele>2146.9558105</ele>
        <time>2009-07-25T09:19:17Z</time>
      </trkpt>
      <trkpt lat="45.50317" lon="6.69396">
        <ele>2147.7290039</ele>
        <time>2009-07-25T09:19:22Z</time>
      </trkpt>
      <trkpt lat="45.50309" lon="6.69402">
        <ele>2148.8469238</ele>
        <time>2009-07-25T09:19:29Z</time>
      </trkpt>
      <trkpt lat="45.50304" lon="6.69407">
        <ele>2149.4494629</ele>
        <time>2009-07-25T09:19:33Z</time>
      </trkpt>
      <trkpt lat="45.50298" lon="6.69422">
        <ele>2148.9650879</ele>
        <time>2009-07-25T09:19:40Z</time>
      </trkpt>
      <trkpt lat="45.50293" lon="6.69437">
        <ele>2147.4194336</ele>
        <time>2009-07-25T09:19:48Z</time>
      </trkpt>
      <trkpt lat="45.50285" lon="6.69449">
        <ele>2146.5554199</ele>
        <time>2009-07-25T09:19:56Z</time>
      </trkpt>
      <trkpt lat="45.5027" lon="6.69453">
        <ele>2147.4440918</ele>
        <time>2009-07-25T09:20:06Z</time>
      </trkpt>
      <trkpt lat="45.50257" lon="6.69459">
        <ele>2147.4487305</ele>
        <time>2009-07-25T09:20:15Z</time>
      </trkpt>
      <trkpt lat="45.50245" lon="6.69464">
        <ele>2148.197998</ele>
        <time>2009-07-25T09:20:24Z</time>
      </trkpt>
      <trkpt lat="45.50229" lon="6.69469">
        <ele>2151.1235352</ele>
        <time>2009-07-25T09:20:35Z</time>
      </trkpt>
      <trkpt lat="45.50215" lon="6.69476">
        <ele>2153.3220215</ele>
        <time>2009-07-25T09:20:44Z</time>
      </trkpt>
      <trkpt lat="45.50201" lon="6.69483">
        <ele>2155.1481934</ele>
        <time>2009-07-25T09:20:53Z</time>
      </trkpt>
      <trkpt lat="45.50192" lon="6.69492">
        <ele>2154.1967773</ele>
        <time>2009-07-25T09:21:00Z</time>
      </trkpt>
      <trkpt lat="45.5018" lon="6.69508">
        <ele>2152.5336914</ele>
        <time>2009-07-25T09:21:11Z</time>
      </trkpt>
      <trkpt lat="45.50165" lon="6.69527">
        <ele>2151.2607422</ele>
        <time>2009-07-25T09:21:24Z</time>
      </trkpt>
      <trkpt lat="45.50154" lon="6.69536">
        <ele>2155.3830566</ele>
        <time>2009-07-25T09:21:32Z</time>
      </trkpt>
      <trkpt lat="45.50145" lon="6.6955">
        <ele>2157.6865234</ele>
        <time>2009-07-25T09:21:41Z</time>
      </trkpt>
      <trkpt lat="45.50137" lon="6.69566">
        <ele>2156.4960938</ele>
        <time>2009-07-25T09:21:50Z</time>
      </trkpt>
      <trkpt lat="45.50127" lon="6.69587">
        <ele>2155.5883789</ele>
        <time>2009-07-25T09:22:02Z</time>
      </trkpt>
      <trkpt lat="45.50118" lon="6.69609">
        <ele>2158.8981934</ele>
        <time>2009-07-25T09:22:14Z</time>
      </trkpt>
      <trkpt lat="45.50109" lon="6.69635">
        <ele>2160.458252</ele>
        <time>2009-07-25T09:22:27Z</time>
      </trkpt>
      <trkpt lat="45.50106" lon="6.69654">
        <ele>2157.949707</ele>
        <time>2009-07-25T09:22:36Z</time>
      </trkpt>
      <trkpt lat="45.50106" lon="6.69669">
        <ele>2154.9179688</ele>
        <time>2009-07-25T09:22:43Z</time>
      </trkpt>
      <trkpt lat="45.50105" lon="6.69682">
        <ele>2152.7521973</ele>
        <time>2009-07-25T09:22:49Z</time>
      </trkpt>
      <trkpt lat="45.50106" lon="6.69697">
        <ele>2150.364502</ele>
        <time>2009-07-25T09:22:56Z</time>
      </trkpt>
      <trkpt lat="45.50106" lon="6.6971">
        <ele>2150.3369141</ele>
        <time>2009-07-25T09:23:02Z</time>
      </trkpt>
      <trkpt lat="45.50107" lon="6.69724">
        <ele>2150.298584</ele>
        <time>2009-07-25T09:23:09Z</time>
      </trkpt>
      <trkpt lat="45.50106" lon="6.69745">
        <ele>2150.1975098</ele>
        <time>2009-07-25T09:23:19Z</time>
      </trkpt>
      <trkpt lat="45.50101" lon="6.69765">
        <ele>2149.7597656</ele>
        <time>2009-07-25T09:23:29Z</time>
      </trkpt>
      <trkpt lat="45.50094" lon="6.69788">
        <ele>2148.5761719</ele>
        <time>2009-07-25T09:23:41Z</time>
      </trkpt>
      <trkpt lat="45.50089" lon="6.69809">
        <ele>2147.7189941</ele>
        <time>2009-07-25T09:23:52Z</time>
      </trkpt>
      <trkpt lat="45.50084" lon="6.6983">
        <ele>2149.5881348</ele>
        <time>2009-07-25T09:24:03Z</time>
      </trkpt>
      <trkpt lat="45.5008" lon="6.69853">
        <ele>2152.1589355</ele>
        <time>2009-07-25T09:24:15Z</time>
      </trkpt>
      <trkpt lat="45.50077" lon="6.69873">
        <ele>2155.2724609</ele>
        <time>2009-07-25T09:24:25Z</time>
      </trkpt>
      <trkpt lat="45.50077" lon="6.69889">
        <ele>2157.8867188</ele>
        <time>2009-07-25T09:24:33Z</time>
      </trkpt>
      <trkpt lat="45.50075" lon="6.69907">
        <ele>2159.9880371</ele>
        <time>2009-07-25T09:24:42Z</time>
      </trkpt>
      <trkpt lat="45.50066" lon="6.69921">
        <ele>2162.3115234</ele>
        <time>2009-07-25T09:24:52Z</time>
      </trkpt>
      <trkpt lat="45.50057" lon="6.69929">
        <ele>2164.1396484</ele>
        <time>2009-07-25T09:25:01Z</time>
      </trkpt>
      <trkpt lat="45.50048" lon="6.69935">
        <ele>2166.0664063</ele>
        <time>2009-07-25T09:25:10Z</time>
      </trkpt>
      <trkpt lat="45.50037" lon="6.69945">
        <ele>2168.7265625</ele>
        <time>2009-07-25T09:25:21Z</time>
      </trkpt>
      <trkpt lat="45.5003" lon="6.69952">
        <ele>2170.4260254</ele>
        <time>2009-07-25T09:25:29Z</time>
      </trkpt>
      <trkpt lat="45.50024" lon="6.69959">
        <ele>2171.527832</ele>
        <time>2009-07-25T09:25:38Z</time>
      </trkpt>
      <trkpt lat="45.50018" lon="6.69965">
        <ele>2172.1870117</ele>
        <time>2009-07-25T09:25:46Z</time>
      </trkpt>
      <trkpt lat="45.5001" lon="6.69973">
        <ele>2173.1191406</ele>
        <time>2009-07-25T09:25:55Z</time>
      </trkpt>
      <trkpt lat="45.50001" lon="6.69986">
        <ele>2174.4528809</ele>
        <time>2009-07-25T09:26:05Z</time>
      </trkpt>
      <trkpt lat="45.49995" lon="6.69993">
        <ele>2175.7182617</ele>
        <time>2009-07-25T09:26:12Z</time>
      </trkpt>
      <trkpt lat="45.49988" lon="6.70001">
        <ele>2176.9125977</ele>
        <time>2009-07-25T09:26:20Z</time>
      </trkpt>
      <trkpt lat="45.49982" lon="6.70011">
        <ele>2178.0041504</ele>
        <time>2009-07-25T09:26:29Z</time>
      </trkpt>
      <trkpt lat="45.49976" lon="6.70019">
        <ele>2178.6079102</ele>
        <time>2009-07-25T09:26:37Z</time>
      </trkpt>
      <trkpt lat="45.49969" lon="6.70027">
        <ele>2179.1010742</ele>
        <time>2009-07-25T09:26:46Z</time>
      </trkpt>
      <trkpt lat="45.49964" lon="6.70037">
        <ele>2181.2651367</ele>
        <time>2009-07-25T09:26:56Z</time>
      </trkpt>
      <trkpt lat="45.49957" lon="6.70045">
        <ele>2182.534668</ele>
        <time>2009-07-25T09:27:06Z</time>
      </trkpt>
      <trkpt lat="45.49949" lon="6.70051">
        <ele>2182.972168</ele>
        <time>2009-07-25T09:27:14Z</time>
      </trkpt>
      <trkpt lat="45.4994" lon="6.7006">
        <ele>2184.8479004</ele>
        <time>2009-07-25T09:27:24Z</time>
      </trkpt>
      <trkpt lat="45.49931" lon="6.7007">
        <ele>2187.5488281</ele>
        <time>2009-07-25T09:27:34Z</time>
      </trkpt>
      <trkpt lat="45.49923" lon="6.70079">
        <ele>2188.869873</ele>
        <time>2009-07-25T09:27:43Z</time>
      </trkpt>
      <trkpt lat="45.49916" lon="6.70087">
        <ele>2189.5681152</ele>
        <time>2009-07-25T09:27:52Z</time>
      </trkpt>
      <trkpt lat="45.4991" lon="6.70097">
        <ele>2191.4057617</ele>
        <time>2009-07-25T09:28:01Z</time>
      </trkpt>
      <trkpt lat="45.49905" lon="6.7011">
        <ele>2193.3378906</ele>
        <time>2009-07-25T09:28:10Z</time>
      </trkpt>
      <trkpt lat="45.499" lon="6.70125">
        <ele>2195.800293</ele>
        <time>2009-07-25T09:28:20Z</time>
      </trkpt>
      <trkpt lat="45.49895" lon="6.7014">
        <ele>2198.0883789</ele>
        <time>2009-07-25T09:28:30Z</time>
      </trkpt>
      <trkpt lat="45.4989" lon="6.70153">
        <ele>2199.9699707</ele>
        <time>2009-07-25T09:28:39Z</time>
      </trkpt>
      <trkpt lat="45.49885" lon="6.70165">
        <ele>2202.3708496</ele>
        <time>2009-07-25T09:28:48Z</time>
      </trkpt>
      <trkpt lat="45.4988" lon="6.70176">
        <ele>2204.8061523</ele>
        <time>2009-07-25T09:28:57Z</time>
      </trkpt>
      <trkpt lat="45.49878" lon="6.70186">
        <ele>2206.6660156</ele>
        <time>2009-07-25T09:29:05Z</time>
      </trkpt>
      <trkpt lat="45.49881" lon="6.702">
        <ele>2208.7468262</ele>
        <time>2009-07-25T09:29:15Z</time>
      </trkpt>
      <trkpt lat="45.49881" lon="6.70211">
        <ele>2211.1481934</ele>
        <time>2009-07-25T09:29:23Z</time>
      </trkpt>
      <trkpt lat="45.49884" lon="6.70221">
        <ele>2213.0270996</ele>
        <time>2009-07-25T09:29:31Z</time>
      </trkpt>
      <trkpt lat="45.49883" lon="6.70228">
        <ele>2214.8129883</ele>
        <time>2009-07-25T09:29:37Z</time>
      </trkpt>
      <trkpt lat="45.49881" lon="6.70237">
        <ele>2217.7568359</ele>
        <time>2009-07-25T09:29:46Z</time>
      </trkpt>
      <trkpt lat="45.49879" lon="6.70244">
        <ele>2219.9318848</ele>
        <time>2009-07-25T09:29:52Z</time>
      </trkpt>
      <trkpt lat="45.49876" lon="6.70252">
        <ele>2222.3168945</ele>
        <time>2009-07-25T09:30:00Z</time>
      </trkpt>
      <trkpt lat="45.49874" lon="6.70263">
        <ele>2223.628418</ele>
        <time>2009-07-25T09:30:09Z</time>
      </trkpt>
      <trkpt lat="45.49871" lon="6.70273">
        <ele>2225.2282715</ele>
        <time>2009-07-25T09:30:17Z</time>
      </trkpt>
      <trkpt lat="45.49871" lon="6.70284">
        <ele>2226.8022461</ele>
        <time>2009-07-25T09:30:25Z</time>
      </trkpt>
      <trkpt lat="45.49872" lon="6.70295">
        <ele>2228.4819336</ele>
        <time>2009-07-25T09:30:33Z</time>
      </trkpt>
      <trkpt lat="45.49874" lon="6.70302">
        <ele>2229.0634766</ele>
        <time>2009-07-25T09:30:40Z</time>
      </trkpt>
      <trkpt lat="45.49875" lon="6.70309">
        <ele>2230.145752</ele>
        <time>2009-07-25T09:30:47Z</time>
      </trkpt>
      <trkpt lat="45.49873" lon="6.70313">
        <ele>2231.6940918</ele>
        <time>2009-07-25T09:30:52Z</time>
      </trkpt>
      <trkpt lat="45.49869" lon="6.70322">
        <ele>2234.5266113</ele>
        <time>2009-07-25T09:30:59Z</time>
      </trkpt>
      <trkpt lat="45.49866" lon="6.70328">
        <ele>2236.3840332</ele>
        <time>2009-07-25T09:31:06Z</time>
      </trkpt>
      <trkpt lat="45.49864" lon="6.70333">
        <ele>2237.9067383</ele>
        <time>2009-07-25T09:31:12Z</time>
      </trkpt>
      <trkpt lat="45.49863" lon="6.70341">
        <ele>2238.7590332</ele>
        <time>2009-07-25T09:31:20Z</time>
      </trkpt>
      <trkpt lat="45.49863" lon="6.70348">
        <ele>2239.0234375</ele>
        <time>2009-07-25T09:31:27Z</time>
      </trkpt>
      <trkpt lat="45.49863" lon="6.70356">
        <ele>2239.0493164</ele>
        <time>2009-07-25T09:31:35Z</time>
      </trkpt>
      <trkpt lat="45.49863" lon="6.70364">
        <ele>2239.3259277</ele>
        <time>2009-07-25T09:31:41Z</time>
      </trkpt>
      <trkpt lat="45.4986" lon="6.7037">
        <ele>2239.529541</ele>
        <time>2009-07-25T09:31:46Z</time>
      </trkpt>
      <trkpt lat="45.49855" lon="6.70382">
        <ele>2239.9140625</ele>
        <time>2009-07-25T09:31:54Z</time>
      </trkpt>
      <trkpt lat="45.49852" lon="6.7039">
        <ele>2240.1293945</ele>
        <time>2009-07-25T09:32:00Z</time>
      </trkpt>
      <trkpt lat="45.4985" lon="6.70394">
        <ele>2240.2871094</ele>
        <time>2009-07-25T09:32:03Z</time>
      </trkpt>
      <trkpt lat="45.49845" lon="6.70401">
        <ele>2240.4562988</ele>
        <time>2009-07-25T09:32:09Z</time>
      </trkpt>
      <trkpt lat="45.49837" lon="6.70412">
        <ele>2240.2148438</ele>
        <time>2009-07-25T09:32:19Z</time>
      </trkpt>
      <trkpt lat="45.49828" lon="6.70424">
        <ele>2241.0383301</ele>
        <time>2009-07-25T09:32:29Z</time>
      </trkpt>
      <trkpt lat="45.49823" lon="6.70432">
        <ele>2241.9182129</ele>
        <time>2009-07-25T09:32:36Z</time>
      </trkpt>
      <trkpt lat="45.49815" lon="6.70442">
        <ele>2242.5065918</ele>
        <time>2009-07-25T09:32:45Z</time>
      </trkpt>
      <trkpt lat="45.49806" lon="6.70453">
        <ele>2242.4660645</ele>
        <time>2009-07-25T09:32:55Z</time>
      </trkpt>
      <trkpt lat="45.49799" lon="6.7046">
        <ele>2240.7150879</ele>
        <time>2009-07-25T09:33:03Z</time>
      </trkpt>
      <trkpt lat="45.4979" lon="6.70467">
        <ele>2239.5341797</ele>
        <time>2009-07-25T09:33:12Z</time>
      </trkpt>
      <trkpt lat="45.49776" lon="6.70472">
        <ele>2239.1564941</ele>
        <time>2009-07-25T09:33:24Z</time>
      </trkpt>
      <trkpt lat="45.49763" lon="6.70474">
        <ele>2240.0898438</ele>
        <time>2009-07-25T09:33:34Z</time>
      </trkpt>
      <trkpt lat="45.49757" lon="6.70478">
        <ele>2240.5688477</ele>
        <time>2009-07-25T09:33:39Z</time>
      </trkpt>
      <trkpt lat="45.49748" lon="6.70483">
        <ele>2241.3186035</ele>
        <time>2009-07-25T09:33:46Z</time>
      </trkpt>
      <trkpt lat="45.49741" lon="6.70487">
        <ele>2242.6918945</ele>
        <time>2009-07-25T09:33:52Z</time>
      </trkpt>
      <trkpt lat="45.4973" lon="6.70494">
        <ele>2244.5458984</ele>
        <time>2009-07-25T09:34:01Z</time>
      </trkpt>
      <trkpt lat="45.49719" lon="6.70503">
        <ele>2246.4521484</ele>
        <time>2009-07-25T09:34:11Z</time>
      </trkpt>
      <trkpt lat="45.49708" lon="6.70513">
        <ele>2247.7807617</ele>
        <time>2009-07-25T09:34:22Z</time>
      </trkpt>
      <trkpt lat="45.49698" lon="6.70521">
        <ele>2248.6938477</ele>
        <time>2009-07-25T09:34:31Z</time>
      </trkpt>
      <trkpt lat="45.49691" lon="6.70528">
        <ele>2249.1235352</ele>
        <time>2009-07-25T09:34:38Z</time>
      </trkpt>
      <trkpt lat="45.4968" lon="6.70534">
        <ele>2249.7231445</ele>
        <time>2009-07-25T09:34:48Z</time>
      </trkpt>
      <trkpt lat="45.49669" lon="6.7054">
        <ele>2250.3481445</ele>
        <time>2009-07-25T09:34:58Z</time>
      </trkpt>
      <trkpt lat="45.49657" lon="6.70545">
        <ele>2251.652832</ele>
        <time>2009-07-25T09:35:08Z</time>
      </trkpt>
      <trkpt lat="45.49646" lon="6.7055">
        <ele>2253.027832</ele>
        <time>2009-07-25T09:35:17Z</time>
      </trkpt>
      <trkpt lat="45.49631" lon="6.70554">
        <ele>2254.7976074</ele>
        <time>2009-07-25T09:35:28Z</time>
      </trkpt>
      <trkpt lat="45.4962" lon="6.70556">
        <ele>2256.0310059</ele>
        <time>2009-07-25T09:35:36Z</time>
      </trkpt>
      <trkpt lat="45.49607" lon="6.70557">
        <ele>2257.4445801</ele>
        <time>2009-07-25T09:35:46Z</time>
      </trkpt>
      <trkpt lat="45.49596" lon="6.70556">
        <ele>2258.5788574</ele>
        <time>2009-07-25T09:35:55Z</time>
      </trkpt>
      <trkpt lat="45.49586" lon="6.70561">
        <ele>2259.7263184</ele>
        <time>2009-07-25T09:36:04Z</time>
      </trkpt>
      <trkpt lat="45.49577" lon="6.70571">
        <ele>2260.3283691</ele>
        <time>2009-07-25T09:36:12Z</time>
      </trkpt>
      <trkpt lat="45.49568" lon="6.70585">
        <ele>2260.4453125</ele>
        <time>2009-07-25T09:36:21Z</time>
      </trkpt>
      <trkpt lat="45.4956" lon="6.706">
        <ele>2260.1330566</ele>
        <time>2009-07-25T09:36:30Z</time>
      </trkpt>
      <trkpt lat="45.49548" lon="6.70615">
        <ele>2261.8798828</ele>
        <time>2009-07-25T09:36:41Z</time>
      </trkpt>
      <trkpt lat="45.49534" lon="6.70627">
        <ele>2265.1364746</ele>
        <time>2009-07-25T09:36:53Z</time>
      </trkpt>
      <trkpt lat="45.49524" lon="6.70635">
        <ele>2267.621582</ele>
        <time>2009-07-25T09:37:03Z</time>
      </trkpt>
      <trkpt lat="45.49516" lon="6.70642">
        <ele>2269.3796387</ele>
        <time>2009-07-25T09:37:11Z</time>
      </trkpt>
      <trkpt lat="45.49508" lon="6.70649">
        <ele>2270.3864746</ele>
        <time>2009-07-25T09:37:19Z</time>
      </trkpt>
      <trkpt lat="45.49501" lon="6.70656">
        <ele>2270.9733887</ele>
        <time>2009-07-25T09:37:27Z</time>
      </trkpt>
      <trkpt lat="45.49491" lon="6.70666">
        <ele>2273.3164063</ele>
        <time>2009-07-25T09:37:38Z</time>
      </trkpt>
      <trkpt lat="45.49483" lon="6.70673">
        <ele>2275.9345703</ele>
        <time>2009-07-25T09:37:48Z</time>
      </trkpt>
      <trkpt lat="45.49478" lon="6.70678">
        <ele>2277.0861816</ele>
        <time>2009-07-25T09:37:54Z</time>
      </trkpt>
      <trkpt lat="45.49472" lon="6.70683">
        <ele>2278.5283203</ele>
        <time>2009-07-25T09:38:01Z</time>
      </trkpt>
      <trkpt lat="45.49465" lon="6.70689">
        <ele>2280.0219727</ele>
        <time>2009-07-25T09:38:10Z</time>
      </trkpt>
      <trkpt lat="45.49459" lon="6.70695">
        <ele>2281.1762695</ele>
        <time>2009-07-25T09:38:18Z</time>
      </trkpt>
      <trkpt lat="45.49453" lon="6.70699">
        <ele>2282.7299805</ele>
        <time>2009-07-25T09:38:25Z</time>
      </trkpt>
      <trkpt lat="45.49445" lon="6.70706">
        <ele>2284.6918945</ele>
        <time>2009-07-25T09:38:35Z</time>
      </trkpt>
      <trkpt lat="45.49442" lon="6.70711">
        <ele>2284.9863281</ele>
        <time>2009-07-25T09:38:41Z</time>
      </trkpt>
      <trkpt lat="45.49437" lon="6.70719">
        <ele>2285.2878418</ele>
        <time>2009-07-25T09:38:49Z</time>
      </trkpt>
      <trkpt lat="45.4943" lon="6.70723">
        <ele>2286.9211426</ele>
        <time>2009-07-25T09:38:58Z</time>
      </trkpt>
      <trkpt lat="45.49427" lon="6.70724">
        <ele>2288.0224609</ele>
        <time>2009-07-25T09:39:03Z</time>
      </trkpt>
      <trkpt lat="45.49422" lon="6.70728">
        <ele>2289.3615723</ele>
        <time>2009-07-25T09:39:11Z</time>
      </trkpt>
      <trkpt lat="45.49419" lon="6.70729">
        <ele>2290.3486328</ele>
        <time>2009-07-25T09:39:16Z</time>
      </trkpt>
      <trkpt lat="45.49413" lon="6.70728">
        <ele>2291.9868164</ele>
        <time>2009-07-25T09:39:24Z</time>
      </trkpt>
      <trkpt lat="45.49407" lon="6.70729">
        <ele>2293.4492188</ele>
        <time>2009-07-25T09:39:32Z</time>
      </trkpt>
      <trkpt lat="45.49402" lon="6.70729">
        <ele>2294.6645508</ele>
        <time>2009-07-25T09:39:39Z</time>
      </trkpt>
      <trkpt lat="45.49397" lon="6.7073">
        <ele>2295.9555664</ele>
        <time>2009-07-25T09:39:47Z</time>
      </trkpt>
      <trkpt lat="45.49391" lon="6.70731">
        <ele>2297.253418</ele>
        <time>2009-07-25T09:39:54Z</time>
      </trkpt>
      <trkpt lat="45.49385" lon="6.70732">
        <ele>2297.9418945</ele>
        <time>2009-07-25T09:40:02Z</time>
      </trkpt>
      <trkpt lat="45.49379" lon="6.70731">
        <ele>2298.4711914</ele>
        <time>2009-07-25T09:40:09Z</time>
      </trkpt>
      <trkpt lat="45.49373" lon="6.70731">
        <ele>2299.0524902</ele>
        <time>2009-07-25T09:40:17Z</time>
      </trkpt>
      <trkpt lat="45.49366" lon="6.70731">
        <ele>2299.5583496</ele>
        <time>2009-07-25T09:40:25Z</time>
      </trkpt>
      <trkpt lat="45.49359" lon="6.70733">
        <ele>2300.644043</ele>
        <time>2009-07-25T09:40:33Z</time>
      </trkpt>
      <trkpt lat="45.49351" lon="6.70735">
        <ele>2302.9033203</ele>
        <time>2009-07-25T09:40:42Z</time>
      </trkpt>
      <trkpt lat="45.49343" lon="6.70738">
        <ele>2305.3190918</ele>
        <time>2009-07-25T09:40:50Z</time>
      </trkpt>
      <trkpt lat="45.49335" lon="6.70738">
        <ele>2307.6748047</ele>
        <time>2009-07-25T09:40:58Z</time>
      </trkpt>
      <trkpt lat="45.4933" lon="6.70738">
        <ele>2308.8049316</ele>
        <time>2009-07-25T09:41:05Z</time>
      </trkpt>
      <trkpt lat="45.49322" lon="6.7074">
        <ele>2310.2192383</ele>
        <time>2009-07-25T09:41:13Z</time>
      </trkpt>
      <trkpt lat="45.49316" lon="6.70742">
        <ele>2311.3041992</ele>
        <time>2009-07-25T09:41:21Z</time>
      </trkpt>
      <trkpt lat="45.49308" lon="6.70742">
        <ele>2312.4645996</ele>
        <time>2009-07-25T09:41:31Z</time>
      </trkpt>
      <trkpt lat="45.49299" lon="6.70742">
        <ele>2314.1479492</ele>
        <time>2009-07-25T09:41:41Z</time>
      </trkpt>
      <trkpt lat="45.49291" lon="6.70744">
        <ele>2316.0041504</ele>
        <time>2009-07-25T09:41:51Z</time>
      </trkpt>
      <trkpt lat="45.49283" lon="6.70743">
        <ele>2317.5524902</ele>
        <time>2009-07-25T09:42:00Z</time>
      </trkpt>
      <trkpt lat="45.49272" lon="6.70746">
        <ele>2320.0859375</ele>
        <time>2009-07-25T09:42:10Z</time>
      </trkpt>
      <trkpt lat="45.49264" lon="6.70751">
        <ele>2322.6391602</ele>
        <time>2009-07-25T09:42:18Z</time>
      </trkpt>
      <trkpt lat="45.4926" lon="6.70755">
        <ele>2323.8681641</ele>
        <time>2009-07-25T09:42:25Z</time>
      </trkpt>
      <trkpt lat="45.49257" lon="6.70757">
        <ele>2324.8842773</ele>
        <time>2009-07-25T09:42:30Z</time>
      </trkpt>
      <trkpt lat="45.49253" lon="6.7076">
        <ele>2325.9211426</ele>
        <time>2009-07-25T09:42:35Z</time>
      </trkpt>
      <trkpt lat="45.49249" lon="6.70765">
        <ele>2327.2392578</ele>
        <time>2009-07-25T09:42:42Z</time>
      </trkpt>
      <trkpt lat="45.49247" lon="6.70766">
        <ele>2327.6748047</ele>
        <time>2009-07-25T09:42:48Z</time>
      </trkpt>
      <trkpt lat="45.49244" lon="6.70771">
        <ele>2328.5751953</ele>
        <time>2009-07-25T09:42:56Z</time>
      </trkpt>
      <trkpt lat="45.49241" lon="6.70775">
        <ele>2329.3395996</ele>
        <time>2009-07-25T09:43:03Z</time>
      </trkpt>
      <trkpt lat="45.49237" lon="6.70778">
        <ele>2329.9934082</ele>
        <time>2009-07-25T09:43:09Z</time>
      </trkpt>
      <trkpt lat="45.49234" lon="6.70782">
        <ele>2330.762207</ele>
        <time>2009-07-25T09:43:16Z</time>
      </trkpt>
      <trkpt lat="45.49231" lon="6.70784">
        <ele>2331.3793945</ele>
        <time>2009-07-25T09:43:21Z</time>
      </trkpt>
      <trkpt lat="45.49229" lon="6.70788">
        <ele>2331.9829102</ele>
        <time>2009-07-25T09:43:26Z</time>
      </trkpt>
      <trkpt lat="45.49228" lon="6.7079">
        <ele>2332.4628906</ele>
        <time>2009-07-25T09:43:31Z</time>
      </trkpt>
      <trkpt lat="45.49226" lon="6.70794">
        <ele>2333.2282715</ele>
        <time>2009-07-25T09:43:36Z</time>
      </trkpt>
      <trkpt lat="45.49223" lon="6.708">
        <ele>2334.2404785</ele>
        <time>2009-07-25T09:43:44Z</time>
      </trkpt>
      <trkpt lat="45.49221" lon="6.70804">
        <ele>2334.8745117</ele>
        <time>2009-07-25T09:43:49Z</time>
      </trkpt>
      <trkpt lat="45.49221" lon="6.70811">
        <ele>2335.7861328</ele>
        <time>2009-07-25T09:43:57Z</time>
      </trkpt>
      <trkpt lat="45.4922" lon="6.70816">
        <ele>2336.4436035</ele>
        <time>2009-07-25T09:44:03Z</time>
      </trkpt>
      <trkpt lat="45.4922" lon="6.70821">
        <ele>2336.973877</ele>
        <time>2009-07-25T09:44:08Z</time>
      </trkpt>
      <trkpt lat="45.49221" lon="6.70827">
        <ele>2337.4975586</ele>
        <time>2009-07-25T09:44:16Z</time>
      </trkpt>
      <trkpt lat="45.49221" lon="6.70833">
        <ele>2338.029541</ele>
        <time>2009-07-25T09:44:24Z</time>
      </trkpt>
      <trkpt lat="45.49222" lon="6.70837">
        <ele>2338.78125</ele>
        <time>2009-07-25T09:44:31Z</time>
      </trkpt>
      <trkpt lat="45.49223" lon="6.70841">
        <ele>2339.6965332</ele>
        <time>2009-07-25T09:44:38Z</time>
      </trkpt>
      <trkpt lat="45.49224" lon="6.70846">
        <ele>2340.8391113</ele>
        <time>2009-07-25T09:44:47Z</time>
      </trkpt>
      <trkpt lat="45.49224" lon="6.7085">
        <ele>2341.9072266</ele>
        <time>2009-07-25T09:44:55Z</time>
      </trkpt>
      <trkpt lat="45.49226" lon="6.70855">
        <ele>2343.3081055</ele>
        <time>2009-07-25T09:45:06Z</time>
      </trkpt>
      <trkpt lat="45.49227" lon="6.70859">
        <ele>2344.4135742</ele>
        <time>2009-07-25T09:45:13Z</time>
      </trkpt>
      <trkpt lat="45.49228" lon="6.70863">
        <ele>2345.4685059</ele>
        <time>2009-07-25T09:45:20Z</time>
      </trkpt>
      <trkpt lat="45.49229" lon="6.70867">
        <ele>2346.7077637</ele>
        <time>2009-07-25T09:45:28Z</time>
      </trkpt>
      <trkpt lat="45.4923" lon="6.70873">
        <ele>2348.3283691</ele>
        <time>2009-07-25T09:45:35Z</time>
      </trkpt>
      <trkpt lat="45.49231" lon="6.70876">
        <ele>2349.5075684</ele>
        <time>2009-07-25T09:45:41Z</time>
      </trkpt>
      <trkpt lat="45.49233" lon="6.70881">
        <ele>2351.1005859</ele>
        <time>2009-07-25T09:45:49Z</time>
      </trkpt>
      <trkpt lat="45.49236" lon="6.70887">
        <ele>2353.0473633</ele>
        <time>2009-07-25T09:45:57Z</time>
      </trkpt>
      <trkpt lat="45.49237" lon="6.70895">
        <ele>2356.0310059</ele>
        <time>2009-07-25T09:46:04Z</time>
      </trkpt>
      <trkpt lat="45.49239" lon="6.70904">
        <ele>2360.3774414</ele>
        <time>2009-07-25T09:46:12Z</time>
      </trkpt>
      <trkpt lat="45.49238" lon="6.7091">
        <ele>2362.4716797</ele>
        <time>2009-07-25T09:46:17Z</time>
      </trkpt>
      <trkpt lat="45.49237" lon="6.70917">
        <ele>2365.0759277</ele>
        <time>2009-07-25T09:46:23Z</time>
      </trkpt>
      <trkpt lat="45.49229" lon="6.70922">
        <ele>2365.2836914</ele>
        <time>2009-07-25T09:46:30Z</time>
      </trkpt>
      <trkpt lat="45.49225" lon="6.70926">
        <ele>2365.5270996</ele>
        <time>2009-07-25T09:46:35Z</time>
      </trkpt>
      <trkpt lat="45.4922" lon="6.70929">
        <ele>2366.1906738</ele>
        <time>2009-07-25T09:46:41Z</time>
      </trkpt>
      <trkpt lat="45.49212" lon="6.70932">
        <ele>2367.3657227</ele>
        <time>2009-07-25T09:46:49Z</time>
      </trkpt>
      <trkpt lat="45.49207" lon="6.70935">
        <ele>2368.2888184</ele>
        <time>2009-07-25T09:46:55Z</time>
      </trkpt>
      <trkpt lat="45.49199" lon="6.7094">
        <ele>2369.2246094</ele>
        <time>2009-07-25T09:47:03Z</time>
      </trkpt>
      <trkpt lat="45.49194" lon="6.70951">
        <ele>2368.1086426</ele>
        <time>2009-07-25T09:47:11Z</time>
      </trkpt>
      <trkpt lat="45.49187" lon="6.7096">
        <ele>2364.8149414</ele>
        <time>2009-07-25T09:47:18Z</time>
      </trkpt>
      <trkpt lat="45.49183" lon="6.70966">
        <ele>2362.8786621</ele>
        <time>2009-07-25T09:47:23Z</time>
      </trkpt>
      <trkpt lat="45.49177" lon="6.70971">
        <ele>2361.0495605</ele>
        <time>2009-07-25T09:47:28Z</time>
      </trkpt>
      <trkpt lat="45.4916" lon="6.70979">
        <ele>2361.0422363</ele>
        <time>2009-07-25T09:47:38Z</time>
      </trkpt>
      <trkpt lat="45.49149" lon="6.70982">
        <ele>2362.654541</ele>
        <time>2009-07-25T09:47:44Z</time>
      </trkpt>
      <trkpt lat="45.49138" lon="6.7099">
        <ele>2362.4411621</ele>
        <time>2009-07-25T09:47:51Z</time>
      </trkpt>
      <trkpt lat="45.49128" lon="6.70997">
        <ele>2360.0490723</ele>
        <time>2009-07-25T09:47:57Z</time>
      </trkpt>
      <trkpt lat="45.49118" lon="6.71003">
        <ele>2359.2358398</ele>
        <time>2009-07-25T09:48:04Z</time>
      </trkpt>
      <trkpt lat="45.4911" lon="6.7101">
        <ele>2358.4367676</ele>
        <time>2009-07-25T09:48:11Z</time>
      </trkpt>
      <trkpt lat="45.49104" lon="6.71021">
        <ele>2355.8134766</ele>
        <time>2009-07-25T09:48:18Z</time>
      </trkpt>
      <trkpt lat="45.491" lon="6.71034">
        <ele>2355.1008301</ele>
        <time>2009-07-25T09:48:26Z</time>
      </trkpt>
      <trkpt lat="45.49097" lon="6.71046">
        <ele>2355.1650391</ele>
        <time>2009-07-25T09:48:34Z</time>
      </trkpt>
      <trkpt lat="45.49097" lon="6.71065">
        <ele>2357.6989746</ele>
        <time>2009-07-25T09:48:44Z</time>
      </trkpt>
      <trkpt lat="45.49096" lon="6.7108">
        <ele>2359.9482422</ele>
        <time>2009-07-25T09:48:52Z</time>
      </trkpt>
      <trkpt lat="45.49093" lon="6.71095">
        <ele>2363.1005859</ele>
        <time>2009-07-25T09:48:59Z</time>
      </trkpt>
      <trkpt lat="45.49092" lon="6.71098">
        <ele>2364.1430664</ele>
        <time>2009-07-25T09:49:01Z</time>
      </trkpt>
      <trkpt lat="45.49088" lon="6.71106">
        <ele>2367.1611328</ele>
        <time>2009-07-25T09:49:06Z</time>
      </trkpt>
      <trkpt lat="45.49084" lon="6.71113">
        <ele>2369.6113281</ele>
        <time>2009-07-25T09:49:10Z</time>
      </trkpt>
      <trkpt lat="45.49084" lon="6.71124">
        <ele>2369.1914063</ele>
        <time>2009-07-25T09:49:16Z</time>
      </trkpt>
      <trkpt lat="45.49085" lon="6.7114">
        <ele>2368.3574219</ele>
        <time>2009-07-25T09:49:24Z</time>
      </trkpt>
      <trkpt lat="45.49085" lon="6.71144">
        <ele>2368.3459473</ele>
        <time>2009-07-25T09:49:26Z</time>
      </trkpt>
      <trkpt lat="45.49083" lon="6.71155">
        <ele>2368.4091797</ele>
        <time>2009-07-25T09:49:32Z</time>
      </trkpt>
      <trkpt lat="45.49081" lon="6.71175">
        <ele>2368.192627</ele>
        <time>2009-07-25T09:49:42Z</time>
      </trkpt>
      <trkpt lat="45.4908" lon="6.7119">
        <ele>2368.2475586</ele>
        <time>2009-07-25T09:49:50Z</time>
      </trkpt>
      <trkpt lat="45.4908" lon="6.71207">
        <ele>2367.7783203</ele>
        <time>2009-07-25T09:49:59Z</time>
      </trkpt>
      <trkpt lat="45.49081" lon="6.71212">
        <ele>2367.5209961</ele>
        <time>2009-07-25T09:50:02Z</time>
      </trkpt>
      <trkpt lat="45.49081" lon="6.71221">
        <ele>2367.1862793</ele>
        <time>2009-07-25T09:50:07Z</time>
      </trkpt>
      <trkpt lat="45.49084" lon="6.71241">
        <ele>2366.1972656</ele>
        <time>2009-07-25T09:50:19Z</time>
      </trkpt>
      <trkpt lat="45.49088" lon="6.71259">
        <ele>2366.1547852</ele>
        <time>2009-07-25T09:50:30Z</time>
      </trkpt>
      <trkpt lat="45.49091" lon="6.71276">
        <ele>2367.8259277</ele>
        <time>2009-07-25T09:50:40Z</time>
      </trkpt>
      <trkpt lat="45.49091" lon="6.71285">
        <ele>2369.5385742</ele>
        <time>2009-07-25T09:50:46Z</time>
      </trkpt>
      <trkpt lat="45.49091" lon="6.71293">
        <ele>2371.4926758</ele>
        <time>2009-07-25T09:50:54Z</time>
      </trkpt>
      <trkpt lat="45.49091" lon="6.713">
        <ele>2373.0270996</ele>
        <time>2009-07-25T09:51:02Z</time>
      </trkpt>
      <trkpt lat="45.49091" lon="6.71309">
        <ele>2374.7617188</ele>
        <time>2009-07-25T09:51:11Z</time>
      </trkpt>
      <trkpt lat="45.49091" lon="6.71315">
        <ele>2376.0419922</ele>
        <time>2009-07-25T09:51:17Z</time>
      </trkpt>
      <trkpt lat="45.49091" lon="6.71321">
        <ele>2377.4558105</ele>
        <time>2009-07-25T09:51:24Z</time>
      </trkpt>
      <trkpt lat="45.49091" lon="6.71329">
        <ele>2378.9157715</ele>
        <time>2009-07-25T09:51:31Z</time>
      </trkpt>
      <trkpt lat="45.49091" lon="6.71337">
        <ele>2380.5019531</ele>
        <time>2009-07-25T09:51:40Z</time>
      </trkpt>
      <trkpt lat="45.4909" lon="6.71345">
        <ele>2381.8452148</ele>
        <time>2009-07-25T09:51:47Z</time>
      </trkpt>
      <trkpt lat="45.49088" lon="6.71353">
        <ele>2383.2678223</ele>
        <time>2009-07-25T09:51:54Z</time>
      </trkpt>
      <trkpt lat="45.49086" lon="6.7136">
        <ele>2384.7307129</ele>
        <time>2009-07-25T09:52:00Z</time>
      </trkpt>
      <trkpt lat="45.49086" lon="6.7137">
        <ele>2386.7143555</ele>
        <time>2009-07-25T09:52:08Z</time>
      </trkpt>
      <trkpt lat="45.49086" lon="6.7138">
        <ele>2388.6665039</ele>
        <time>2009-07-25T09:52:16Z</time>
      </trkpt>
      <trkpt lat="45.49086" lon="6.71391">
        <ele>2391.0803223</ele>
        <time>2009-07-25T09:52:25Z</time>
      </trkpt>
      <trkpt lat="45.49086" lon="6.71397">
        <ele>2393.3391113</ele>
        <time>2009-07-25T09:52:32Z</time>
      </trkpt>
      <trkpt lat="45.49086" lon="6.71407">
        <ele>2397.4038086</ele>
        <time>2009-07-25T09:52:41Z</time>
      </trkpt>
      <trkpt lat="45.49085" lon="6.71418">
        <ele>2401.361084</ele>
        <time>2009-07-25T09:52:50Z</time>
      </trkpt>
      <trkpt lat="45.49086" lon="6.71426">
        <ele>2404.2229004</ele>
        <time>2009-07-25T09:52:58Z</time>
      </trkpt>
      <trkpt lat="45.49087" lon="6.71438">
        <ele>2407.4887695</ele>
        <time>2009-07-25T09:53:07Z</time>
      </trkpt>
      <trkpt lat="45.49088" lon="6.71448">
        <ele>2410.8898926</ele>
        <time>2009-07-25T09:53:15Z</time>
      </trkpt>
      <trkpt lat="45.4909" lon="6.71458">
        <ele>2413.3598633</ele>
        <time>2009-07-25T09:53:23Z</time>
      </trkpt>
      <trkpt lat="45.49093" lon="6.71467">
        <ele>2413.7929688</ele>
        <time>2009-07-25T09:53:31Z</time>
      </trkpt>
      <trkpt lat="45.49096" lon="6.71474">
        <ele>2413.092041</ele>
        <time>2009-07-25T09:53:38Z</time>
      </trkpt>
      <trkpt lat="45.49097" lon="6.71479">
        <ele>2412.7097168</ele>
        <time>2009-07-25T09:53:45Z</time>
      </trkpt>
      <trkpt lat="45.49101" lon="6.71488">
        <ele>2411.0532227</ele>
        <time>2009-07-25T09:53:54Z</time>
      </trkpt>
      <trkpt lat="45.49106" lon="6.71496">
        <ele>2409.5991211</ele>
        <time>2009-07-25T09:54:03Z</time>
      </trkpt>
      <trkpt lat="45.4911" lon="6.71502">
        <ele>2409.4018555</ele>
        <time>2009-07-25T09:54:10Z</time>
      </trkpt>
      <trkpt lat="45.49112" lon="6.71508">
        <ele>2410.8422852</ele>
        <time>2009-07-25T09:54:17Z</time>
      </trkpt>
      <trkpt lat="45.49115" lon="6.71515">
        <ele>2412.3552246</ele>
        <time>2009-07-25T09:54:25Z</time>
      </trkpt>
      <trkpt lat="45.4912" lon="6.71523">
        <ele>2412.9572754</ele>
        <time>2009-07-25T09:54:33Z</time>
      </trkpt>
      <trkpt lat="45.49125" lon="6.71529">
        <ele>2413.560791</ele>
        <time>2009-07-25T09:54:41Z</time>
      </trkpt>
      <trkpt lat="45.49123" lon="6.7153">
        <ele>2414.416748</ele>
        <time>2009-07-25T09:54:46Z</time>
      </trkpt>
      <trkpt lat="45.49118" lon="6.71525">
        <ele>2415.5810547</ele>
        <time>2009-07-25T09:54:54Z</time>
      </trkpt>
      <trkpt lat="45.49112" lon="6.71523">
        <ele>2417.6020508</ele>
        <time>2009-07-25T09:55:02Z</time>
      </trkpt>
      <trkpt lat="45.49107" lon="6.71523">
        <ele>2418.1608887</ele>
        <time>2009-07-25T09:55:09Z</time>
      </trkpt>
      <trkpt lat="45.49102" lon="6.71519">
        <ele>2417.7028809</ele>
        <time>2009-07-25T09:55:17Z</time>
      </trkpt>
      <trkpt lat="45.49099" lon="6.71517">
        <ele>2417.9931641</ele>
        <time>2009-07-25T09:55:23Z</time>
      </trkpt>
      <trkpt lat="45.49096" lon="6.71513">
        <ele>2418.5917969</ele>
        <time>2009-07-25T09:55:30Z</time>
      </trkpt>
      <trkpt lat="45.49092" lon="6.71513">
        <ele>2419.7355957</ele>
        <time>2009-07-25T09:55:37Z</time>
      </trkpt>
      <trkpt lat="45.49089" lon="6.71512">
        <ele>2421.0856934</ele>
        <time>2009-07-25T09:55:44Z</time>
      </trkpt>
      <trkpt lat="45.49084" lon="6.7151">
        <ele>2423.2753906</ele>
        <time>2009-07-25T09:55:52Z</time>
      </trkpt>
      <trkpt lat="45.49084" lon="6.71515">
        <ele>2421.9052734</ele>
        <time>2009-07-25T09:55:57Z</time>
      </trkpt>
      <trkpt lat="45.49089" lon="6.71525">
        <ele>2419.5786133</ele>
        <time>2009-07-25T09:56:04Z</time>
      </trkpt>
      <trkpt lat="45.49095" lon="6.71534">
        <ele>2418.2597656</ele>
        <time>2009-07-25T09:56:12Z</time>
      </trkpt>
      <trkpt lat="45.49105" lon="6.71546">
        <ele>2418.5270996</ele>
        <time>2009-07-25T09:56:22Z</time>
      </trkpt>
      <trkpt lat="45.49113" lon="6.71555">
        <ele>2419.9960938</ele>
        <time>2009-07-25T09:56:31Z</time>
      </trkpt>
      <trkpt lat="45.4912" lon="6.71562">
        <ele>2419.0952148</ele>
        <time>2009-07-25T09:56:38Z</time>
      </trkpt>
      <trkpt lat="45.49127" lon="6.71571">
        <ele>2418.8701172</ele>
        <time>2009-07-25T09:56:45Z</time>
      </trkpt>
      <trkpt lat="45.49134" lon="6.71581">
        <ele>2419.7094727</ele>
        <time>2009-07-25T09:56:53Z</time>
      </trkpt>
      <trkpt lat="45.49138" lon="6.71596">
        <ele>2420.2224121</ele>
        <time>2009-07-25T09:57:02Z</time>
      </trkpt>
      <trkpt lat="45.49142" lon="6.71612">
        <ele>2421.5559082</ele>
        <time>2009-07-25T09:57:12Z</time>
      </trkpt>
      <trkpt lat="45.49147" lon="6.71624">
        <ele>2421.8391113</ele>
        <time>2009-07-25T09:57:20Z</time>
      </trkpt>
      <trkpt lat="45.49155" lon="6.71639">
        <ele>2423.802002</ele>
        <time>2009-07-25T09:57:30Z</time>
      </trkpt>
      <trkpt lat="45.49166" lon="6.71658">
        <ele>2422.4116211</ele>
        <time>2009-07-25T09:57:42Z</time>
      </trkpt>
      <trkpt lat="45.49174" lon="6.71671">
        <ele>2424.0090332</ele>
        <time>2009-07-25T09:57:51Z</time>
      </trkpt>
      <trkpt lat="45.49179" lon="6.71685">
        <ele>2425.7802734</ele>
        <time>2009-07-25T09:57:59Z</time>
      </trkpt>
      <trkpt lat="45.49181" lon="6.71701">
        <ele>2425.2316895</ele>
        <time>2009-07-25T09:58:07Z</time>
      </trkpt>
      <trkpt lat="45.49182" lon="6.71706">
        <ele>2425.2712402</ele>
        <time>2009-07-25T09:58:10Z</time>
      </trkpt>
      <trkpt lat="45.49184" lon="6.71714">
        <ele>2425.2224121</ele>
        <time>2009-07-25T09:58:14Z</time>
      </trkpt>
      <trkpt lat="45.49185" lon="6.71735">
        <ele>2425.3640137</ele>
        <time>2009-07-25T09:58:24Z</time>
      </trkpt>
      <trkpt lat="45.49186" lon="6.71749">
        <ele>2426.0224609</ele>
        <time>2009-07-25T09:58:31Z</time>
      </trkpt>
      <trkpt lat="45.49184" lon="6.71765">
        <ele>2427.7644043</ele>
        <time>2009-07-25T09:58:39Z</time>
      </trkpt>
      <trkpt lat="45.49183" lon="6.71782">
        <ele>2429.8444824</ele>
        <time>2009-07-25T09:58:48Z</time>
      </trkpt>
      <trkpt lat="45.49185" lon="6.71796">
        <ele>2431.3293457</ele>
        <time>2009-07-25T09:58:56Z</time>
      </trkpt>
      <trkpt lat="45.49192" lon="6.71807">
        <ele>2432.2609863</ele>
        <time>2009-07-25T09:59:03Z</time>
      </trkpt>
      <trkpt lat="45.49198" lon="6.71815">
        <ele>2433.8522949</ele>
        <time>2009-07-25T09:59:09Z</time>
      </trkpt>
      <trkpt lat="45.492" lon="6.71822">
        <ele>2435.0480957</ele>
        <time>2009-07-25T09:59:13Z</time>
      </trkpt>
      <trkpt lat="45.49199" lon="6.71826">
        <ele>2435.251709</ele>
        <time>2009-07-25T09:59:15Z</time>
      </trkpt>
      <trkpt lat="45.49193" lon="6.71841">
        <ele>2435.543457</ele>
        <time>2009-07-25T09:59:23Z</time>
      </trkpt>
      <trkpt lat="45.49189" lon="6.71853">
        <ele>2436.565918</ele>
        <time>2009-07-25T09:59:31Z</time>
      </trkpt>
      <trkpt lat="45.49189" lon="6.71864">
        <ele>2437.6606445</ele>
        <time>2009-07-25T09:59:38Z</time>
      </trkpt>
      <trkpt lat="45.49188" lon="6.71877">
        <ele>2439.4035645</ele>
        <time>2009-07-25T09:59:48Z</time>
      </trkpt>
      <trkpt lat="45.49189" lon="6.71882">
        <ele>2440.0839844</ele>
        <time>2009-07-25T09:59:51Z</time>
      </trkpt>
      <trkpt lat="45.49194" lon="6.71898">
        <ele>2442.9658203</ele>
        <time>2009-07-25T10:00:01Z</time>
      </trkpt>
      <trkpt lat="45.49202" lon="6.71912">
        <ele>2444.5559082</ele>
        <time>2009-07-25T10:00:12Z</time>
      </trkpt>
      <trkpt lat="45.4921" lon="6.71924">
        <ele>2444.8051758</ele>
        <time>2009-07-25T10:00:21Z</time>
      </trkpt>
      <trkpt lat="45.49213" lon="6.7193">
        <ele>2445.1655273</ele>
        <time>2009-07-25T10:00:25Z</time>
      </trkpt>
      <trkpt lat="45.49221" lon="6.71947">
        <ele>2445.6843262</ele>
        <time>2009-07-25T10:00:37Z</time>
      </trkpt>
      <trkpt lat="45.49225" lon="6.71957">
        <ele>2446.7263184</ele>
        <time>2009-07-25T10:00:44Z</time>
      </trkpt>
      <trkpt lat="45.49229" lon="6.71969">
        <ele>2448.0385742</ele>
        <time>2009-07-25T10:00:52Z</time>
      </trkpt>
      <trkpt lat="45.49235" lon="6.71984">
        <ele>2450.3012695</ele>
        <time>2009-07-25T10:01:02Z</time>
      </trkpt>
      <trkpt lat="45.4924" lon="6.71998">
        <ele>2451.8818359</ele>
        <time>2009-07-25T10:01:11Z</time>
      </trkpt>
      <trkpt lat="45.49247" lon="6.72014">
        <ele>2451.8469238</ele>
        <time>2009-07-25T10:01:21Z</time>
      </trkpt>
      <trkpt lat="45.49251" lon="6.72028">
        <ele>2451.9360352</ele>
        <time>2009-07-25T10:01:30Z</time>
      </trkpt>
      <trkpt lat="45.4925" lon="6.72042">
        <ele>2453.5783691</ele>
        <time>2009-07-25T10:01:39Z</time>
      </trkpt>
      <trkpt lat="45.49247" lon="6.72056">
        <ele>2455.7045898</ele>
        <time>2009-07-25T10:01:47Z</time>
      </trkpt>
      <trkpt lat="45.49245" lon="6.72071">
        <ele>2457.362793</ele>
        <time>2009-07-25T10:01:56Z</time>
      </trkpt>
      <trkpt lat="45.49242" lon="6.72087">
        <ele>2459.1606445</ele>
        <time>2009-07-25T10:02:05Z</time>
      </trkpt>
      <trkpt lat="45.4924" lon="6.72095">
        <ele>2460.1828613</ele>
        <time>2009-07-25T10:02:11Z</time>
      </trkpt>
      <trkpt lat="45.49235" lon="6.72109">
        <ele>2462.1730957</ele>
        <time>2009-07-25T10:02:20Z</time>
      </trkpt>
      <trkpt lat="45.49234" lon="6.72117">
        <ele>2463.0637207</ele>
        <time>2009-07-25T10:02:28Z</time>
      </trkpt>
      <trkpt lat="45.49233" lon="6.72127">
        <ele>2464.0568848</ele>
        <time>2009-07-25T10:02:37Z</time>
      </trkpt>
      <trkpt lat="45.49232" lon="6.72136">
        <ele>2464.9663086</ele>
        <time>2009-07-25T10:02:45Z</time>
      </trkpt>
      <trkpt lat="45.49231" lon="6.72144">
        <ele>2465.7580566</ele>
        <time>2009-07-25T10:02:52Z</time>
      </trkpt>
      <trkpt lat="45.49229" lon="6.72154">
        <ele>2467.0153809</ele>
        <time>2009-07-25T10:03:00Z</time>
      </trkpt>
      <trkpt lat="45.49228" lon="6.7216">
        <ele>2467.6833496</ele>
        <time>2009-07-25T10:03:06Z</time>
      </trkpt>
      <trkpt lat="45.49228" lon="6.7217">
        <ele>2468.512207</ele>
        <time>2009-07-25T10:03:13Z</time>
      </trkpt>
      <trkpt lat="45.49225" lon="6.72183">
        <ele>2469.8088379</ele>
        <time>2009-07-25T10:03:21Z</time>
      </trkpt>
      <trkpt lat="45.49224" lon="6.72195">
        <ele>2470.8588867</ele>
        <time>2009-07-25T10:03:29Z</time>
      </trkpt>
      <trkpt lat="45.49219" lon="6.72208">
        <ele>2472.755127</ele>
        <time>2009-07-25T10:03:38Z</time>
      </trkpt>
      <trkpt lat="45.49218" lon="6.72219">
        <ele>2473.9807129</ele>
        <time>2009-07-25T10:03:47Z</time>
      </trkpt>
      <trkpt lat="45.49215" lon="6.72232">
        <ele>2475.2602539</ele>
        <time>2009-07-25T10:03:57Z</time>
      </trkpt>
      <trkpt lat="45.49212" lon="6.72245">
        <ele>2476.4343262</ele>
        <time>2009-07-25T10:04:06Z</time>
      </trkpt>
      <trkpt lat="45.4921" lon="6.72254">
        <ele>2477.1787109</ele>
        <time>2009-07-25T10:04:14Z</time>
      </trkpt>
      <trkpt lat="45.49208" lon="6.72267">
        <ele>2478.2353516</ele>
        <time>2009-07-25T10:04:24Z</time>
      </trkpt>
      <trkpt lat="45.49207" lon="6.72276">
        <ele>2478.8977051</ele>
        <time>2009-07-25T10:04:32Z</time>
      </trkpt>
      <trkpt lat="45.49205" lon="6.72286">
        <ele>2479.6149902</ele>
        <time>2009-07-25T10:04:40Z</time>
      </trkpt>
      <trkpt lat="45.49201" lon="6.72294">
        <ele>2480.1437988</ele>
        <time>2009-07-25T10:04:45Z</time>
      </trkpt>
      <trkpt lat="45.49197" lon="6.72298">
        <ele>2480.4389648</ele>
        <time>2009-07-25T10:04:51Z</time>
      </trkpt>
      <trkpt lat="45.49191" lon="6.72303">
        <ele>2480.0581055</ele>
        <time>2009-07-25T10:04:58Z</time>
      </trkpt>
      <trkpt lat="45.49185" lon="6.72309">
        <ele>2479.1970215</ele>
        <time>2009-07-25T10:05:04Z</time>
      </trkpt>
      <trkpt lat="45.49179" lon="6.72319">
        <ele>2478.8654785</ele>
        <time>2009-07-25T10:05:12Z</time>
      </trkpt>
      <trkpt lat="45.49178" lon="6.72332">
        <ele>2479.9389648</ele>
        <time>2009-07-25T10:05:20Z</time>
      </trkpt>
      <trkpt lat="45.49176" lon="6.72346">
        <ele>2480.9587402</ele>
        <time>2009-07-25T10:05:27Z</time>
      </trkpt>
      <trkpt lat="45.49178" lon="6.72364">
        <ele>2482.9187012</ele>
        <time>2009-07-25T10:05:37Z</time>
      </trkpt>
      <trkpt lat="45.49179" lon="6.72374">
        <ele>2483.9995117</ele>
        <time>2009-07-25T10:05:43Z</time>
      </trkpt>
      <trkpt lat="45.4918" lon="6.72393">
        <ele>2485.8432617</ele>
        <time>2009-07-25T10:05:54Z</time>
      </trkpt>
      <trkpt lat="45.4918" lon="6.72405">
        <ele>2486.9343262</ele>
        <time>2009-07-25T10:06:01Z</time>
      </trkpt>
      <trkpt lat="45.49178" lon="6.72416">
        <ele>2487.7773438</ele>
        <time>2009-07-25T10:06:08Z</time>
      </trkpt>
      <trkpt lat="45.49174" lon="6.72429">
        <ele>2488.7248535</ele>
        <time>2009-07-25T10:06:16Z</time>
      </trkpt>
      <trkpt lat="45.49167" lon="6.72443">
        <ele>2489.862793</ele>
        <time>2009-07-25T10:06:26Z</time>
      </trkpt>
      <trkpt lat="45.4916" lon="6.72454">
        <ele>2489.6098633</ele>
        <time>2009-07-25T10:06:34Z</time>
      </trkpt>
      <trkpt lat="45.49152" lon="6.72469">
        <ele>2490.1755371</ele>
        <time>2009-07-25T10:06:44Z</time>
      </trkpt>
      <trkpt lat="45.49143" lon="6.72484">
        <ele>2490.2036133</ele>
        <time>2009-07-25T10:06:54Z</time>
      </trkpt>
      <trkpt lat="45.49138" lon="6.72496">
        <ele>2489.8117676</ele>
        <time>2009-07-25T10:07:02Z</time>
      </trkpt>
      <trkpt lat="45.49131" lon="6.72512">
        <ele>2490.0786133</ele>
        <time>2009-07-25T10:07:11Z</time>
      </trkpt>
      <trkpt lat="45.4913" lon="6.72522">
        <ele>2490.876709</ele>
        <time>2009-07-25T10:07:17Z</time>
      </trkpt>
      <trkpt lat="45.49131" lon="6.72542">
        <ele>2492.9345703</ele>
        <time>2009-07-25T10:07:28Z</time>
      </trkpt>
      <trkpt lat="45.49132" lon="6.72559">
        <ele>2494.8171387</ele>
        <time>2009-07-25T10:07:38Z</time>
      </trkpt>
      <trkpt lat="45.49134" lon="6.72574">
        <ele>2495.9106445</ele>
        <time>2009-07-25T10:07:47Z</time>
      </trkpt>
      <trkpt lat="45.49139" lon="6.72586">
        <ele>2496.3498535</ele>
        <time>2009-07-25T10:07:56Z</time>
      </trkpt>
      <trkpt lat="45.49142" lon="6.72597">
        <ele>2497.7958984</ele>
        <time>2009-07-25T10:08:04Z</time>
      </trkpt>
      <trkpt lat="45.49145" lon="6.72607">
        <ele>2498.9899902</ele>
        <time>2009-07-25T10:08:12Z</time>
      </trkpt>
      <trkpt lat="45.49148" lon="6.72614">
        <ele>2500.1193848</ele>
        <time>2009-07-25T10:08:19Z</time>
      </trkpt>
      <trkpt lat="45.49152" lon="6.72623">
        <ele>2501.7263184</ele>
        <time>2009-07-25T10:08:27Z</time>
      </trkpt>
      <trkpt lat="45.49155" lon="6.72632">
        <ele>2503.1337891</ele>
        <time>2009-07-25T10:08:34Z</time>
      </trkpt>
      <trkpt lat="45.49155" lon="6.72641">
        <ele>2504.579834</ele>
        <time>2009-07-25T10:08:42Z</time>
      </trkpt>
      <trkpt lat="45.49157" lon="6.72648">
        <ele>2505.6679688</ele>
        <time>2009-07-25T10:08:48Z</time>
      </trkpt>
      <trkpt lat="45.49159" lon="6.72656">
        <ele>2506.9589844</ele>
        <time>2009-07-25T10:08:55Z</time>
      </trkpt>
      <trkpt lat="45.4916" lon="6.72665">
        <ele>2508.2319336</ele>
        <time>2009-07-25T10:09:03Z</time>
      </trkpt>
      <trkpt lat="45.49162" lon="6.72674">
        <ele>2509.3913574</ele>
        <time>2009-07-25T10:09:10Z</time>
      </trkpt>
      <trkpt lat="45.49163" lon="6.72684">
        <ele>2510.6396484</ele>
        <time>2009-07-25T10:09:18Z</time>
      </trkpt>
      <trkpt lat="45.49163" lon="6.72691">
        <ele>2511.5554199</ele>
        <time>2009-07-25T10:09:25Z</time>
      </trkpt>
      <trkpt lat="45.49163" lon="6.72697">
        <ele>2512.567627</ele>
        <time>2009-07-25T10:09:31Z</time>
      </trkpt>
      <trkpt lat="45.49162" lon="6.72705">
        <ele>2513.979248</ele>
        <time>2009-07-25T10:09:38Z</time>
      </trkpt>
      <trkpt lat="45.4916" lon="6.72711">
        <ele>2515.2980957</ele>
        <time>2009-07-25T10:09:45Z</time>
      </trkpt>
      <trkpt lat="45.49161" lon="6.72719">
        <ele>2516.0478516</ele>
        <time>2009-07-25T10:09:53Z</time>
      </trkpt>
      <trkpt lat="45.49163" lon="6.72724">
        <ele>2516.0268555</ele>
        <time>2009-07-25T10:10:00Z</time>
      </trkpt>
      <trkpt lat="45.49166" lon="6.7273">
        <ele>2515.9150391</ele>
        <time>2009-07-25T10:10:07Z</time>
      </trkpt>
      <trkpt lat="45.49167" lon="6.72737">
        <ele>2516.6196289</ele>
        <time>2009-07-25T10:10:13Z</time>
      </trkpt>
      <trkpt lat="45.49168" lon="6.72746">
        <ele>2518.0310059</ele>
        <time>2009-07-25T10:10:21Z</time>
      </trkpt>
      <trkpt lat="45.4917" lon="6.72754">
        <ele>2519.7924805</ele>
        <time>2009-07-25T10:10:29Z</time>
      </trkpt>
      <trkpt lat="45.49171" lon="6.72762">
        <ele>2522.1784668</ele>
        <time>2009-07-25T10:10:38Z</time>
      </trkpt>
      <trkpt lat="45.49172" lon="6.72773">
        <ele>2524.8054199</ele>
        <time>2009-07-25T10:10:46Z</time>
      </trkpt>
      <trkpt lat="45.49173" lon="6.72781">
        <ele>2526.6728516</ele>
        <time>2009-07-25T10:10:53Z</time>
      </trkpt>
      <trkpt lat="45.49171" lon="6.7279">
        <ele>2528.3225098</ele>
        <time>2009-07-25T10:11:00Z</time>
      </trkpt>
      <trkpt lat="45.49169" lon="6.72798">
        <ele>2529.7587891</ele>
        <time>2009-07-25T10:11:09Z</time>
      </trkpt>
      <trkpt lat="45.4917" lon="6.72804">
        <ele>2531.1152344</ele>
        <time>2009-07-25T10:11:16Z</time>
      </trkpt>
      <trkpt lat="45.49173" lon="6.72813">
        <ele>2532.8464355</ele>
        <time>2009-07-25T10:11:26Z</time>
      </trkpt>
      <trkpt lat="45.49173" lon="6.72817">
        <ele>2533.6105957</ele>
        <time>2009-07-25T10:11:31Z</time>
      </trkpt>
      <trkpt lat="45.49171" lon="6.72825">
        <ele>2534.871582</ele>
        <time>2009-07-25T10:11:38Z</time>
      </trkpt>
      <trkpt lat="45.49172" lon="6.72833">
        <ele>2536.3327637</ele>
        <time>2009-07-25T10:11:46Z</time>
      </trkpt>
      <trkpt lat="45.49171" lon="6.72839">
        <ele>2537.6176758</ele>
        <time>2009-07-25T10:11:53Z</time>
      </trkpt>
      <trkpt lat="45.49169" lon="6.72846">
        <ele>2538.9428711</ele>
        <time>2009-07-25T10:12:00Z</time>
      </trkpt>
      <trkpt lat="45.49168" lon="6.72854">
        <ele>2540.5529785</ele>
        <time>2009-07-25T10:12:07Z</time>
      </trkpt>
      <trkpt lat="45.49165" lon="6.7286">
        <ele>2541.4870605</ele>
        <time>2009-07-25T10:12:12Z</time>
      </trkpt>
      <trkpt lat="45.49163" lon="6.72866">
        <ele>2542.6804199</ele>
        <time>2009-07-25T10:12:19Z</time>
      </trkpt>
      <trkpt lat="45.49158" lon="6.72873">
        <ele>2543.5119629</ele>
        <time>2009-07-25T10:12:25Z</time>
      </trkpt>
      <trkpt lat="45.49153" lon="6.72877">
        <ele>2543.4128418</ele>
        <time>2009-07-25T10:12:31Z</time>
      </trkpt>
      <trkpt lat="45.49145" lon="6.72886">
        <ele>2543.7224121</ele>
        <time>2009-07-25T10:12:41Z</time>
      </trkpt>
      <trkpt lat="45.4914" lon="6.72902">
        <ele>2545.5576172</ele>
        <time>2009-07-25T10:12:52Z</time>
      </trkpt>
      <trkpt lat="45.49138" lon="6.72913">
        <ele>2547.1748047</ele>
        <time>2009-07-25T10:12:59Z</time>
      </trkpt>
      <trkpt lat="45.49137" lon="6.72923">
        <ele>2548.541748</ele>
        <time>2009-07-25T10:13:06Z</time>
      </trkpt>
      <trkpt lat="45.49134" lon="6.72932">
        <ele>2549.4677734</ele>
        <time>2009-07-25T10:13:12Z</time>
      </trkpt>
      <trkpt lat="45.49132" lon="6.72943">
        <ele>2550.880127</ele>
        <time>2009-07-25T10:13:20Z</time>
      </trkpt>
      <trkpt lat="45.4913" lon="6.72956">
        <ele>2551.958252</ele>
        <time>2009-07-25T10:13:28Z</time>
      </trkpt>
      <trkpt lat="45.49128" lon="6.72969">
        <ele>2553.0793457</ele>
        <time>2009-07-25T10:13:37Z</time>
      </trkpt>
      <trkpt lat="45.49128" lon="6.7298">
        <ele>2554.3752441</ele>
        <time>2009-07-25T10:13:45Z</time>
      </trkpt>
      <trkpt lat="45.49131" lon="6.7299">
        <ele>2555.3947754</ele>
        <time>2009-07-25T10:13:51Z</time>
      </trkpt>
      <trkpt lat="45.49134" lon="6.73002">
        <ele>2556.5078125</ele>
        <time>2009-07-25T10:13:59Z</time>
      </trkpt>
      <trkpt lat="45.49139" lon="6.7301">
        <ele>2556.7346191</ele>
        <time>2009-07-25T10:14:05Z</time>
      </trkpt>
      <trkpt lat="45.49144" lon="6.7302">
        <ele>2558.6040039</ele>
        <time>2009-07-25T10:14:13Z</time>
      </trkpt>
      <trkpt lat="45.49151" lon="6.73032">
        <ele>2561.0654297</ele>
        <time>2009-07-25T10:14:23Z</time>
      </trkpt>
      <trkpt lat="45.49155" lon="6.73044">
        <ele>2563.1137695</ele>
        <time>2009-07-25T10:14:31Z</time>
      </trkpt>
      <trkpt lat="45.49156" lon="6.73056">
        <ele>2564.5275879</ele>
        <time>2009-07-25T10:14:39Z</time>
      </trkpt>
      <trkpt lat="45.49154" lon="6.73065">
        <ele>2565.8613281</ele>
        <time>2009-07-25T10:14:45Z</time>
      </trkpt>
      <trkpt lat="45.49155" lon="6.73078">
        <ele>2567.9213867</ele>
        <time>2009-07-25T10:14:53Z</time>
      </trkpt>
      <trkpt lat="45.49154" lon="6.73089">
        <ele>2569.9968262</ele>
        <time>2009-07-25T10:15:01Z</time>
      </trkpt>
      <trkpt lat="45.49155" lon="6.73097">
        <ele>2571.1618652</ele>
        <time>2009-07-25T10:15:07Z</time>
      </trkpt>
      <trkpt lat="45.49158" lon="6.73104">
        <ele>2571.6184082</ele>
        <time>2009-07-25T10:15:13Z</time>
      </trkpt>
      <trkpt lat="45.49163" lon="6.73114">
        <ele>2571.9033203</ele>
        <time>2009-07-25T10:15:21Z</time>
      </trkpt>
      <trkpt lat="45.49171" lon="6.73121">
        <ele>2572.6643066</ele>
        <time>2009-07-25T10:15:29Z</time>
      </trkpt>
      <trkpt lat="45.49178" lon="6.73128">
        <ele>2573.7978516</ele>
        <time>2009-07-25T10:15:37Z</time>
      </trkpt>
      <trkpt lat="45.49187" lon="6.73135">
        <ele>2574.2392578</ele>
        <time>2009-07-25T10:15:47Z</time>
      </trkpt>
      <trkpt lat="45.49199" lon="6.73141">
        <ele>2574.8205566</ele>
        <time>2009-07-25T10:15:58Z</time>
      </trkpt>
      <trkpt lat="45.49209" lon="6.73146">
        <ele>2576.4116211</ele>
        <time>2009-07-25T10:16:07Z</time>
      </trkpt>
      <trkpt lat="45.49218" lon="6.73151">
        <ele>2577.324707</ele>
        <time>2009-07-25T10:16:16Z</time>
      </trkpt>
      <trkpt lat="45.49226" lon="6.73153">
        <ele>2577.5605469</ele>
        <time>2009-07-25T10:16:23Z</time>
      </trkpt>
      <trkpt lat="45.49238" lon="6.7315">
        <ele>2577.0541992</ele>
        <time>2009-07-25T10:16:32Z</time>
      </trkpt>
      <trkpt lat="45.4925" lon="6.73148">
        <ele>2576.6203613</ele>
        <time>2009-07-25T10:16:42Z</time>
      </trkpt>
      <trkpt lat="45.49263" lon="6.73149">
        <ele>2578.486084</ele>
        <time>2009-07-25T10:16:52Z</time>
      </trkpt>
      <trkpt lat="45.49275" lon="6.73151">
        <ele>2580.6911621</ele>
        <time>2009-07-25T10:17:02Z</time>
      </trkpt>
      <trkpt lat="45.49285" lon="6.73153">
        <ele>2581.829834</ele>
        <time>2009-07-25T10:17:11Z</time>
      </trkpt>
      <trkpt lat="45.49297" lon="6.73154">
        <ele>2582.4641113</ele>
        <time>2009-07-25T10:17:20Z</time>
      </trkpt>
      <trkpt lat="45.49306" lon="6.73151">
        <ele>2582.0275879</ele>
        <time>2009-07-25T10:17:29Z</time>
      </trkpt>
      <trkpt lat="45.49315" lon="6.73149">
        <ele>2582.6164551</ele>
        <time>2009-07-25T10:17:38Z</time>
      </trkpt>
      <trkpt lat="45.49327" lon="6.73147">
        <ele>2583.2724609</ele>
        <time>2009-07-25T10:17:49Z</time>
      </trkpt>
      <trkpt lat="45.49342" lon="6.73148">
        <ele>2585.5097656</ele>
        <time>2009-07-25T10:18:01Z</time>
      </trkpt>
      <trkpt lat="45.49352" lon="6.73149">
        <ele>2587.4682617</ele>
        <time>2009-07-25T10:18:09Z</time>
      </trkpt>
      <trkpt lat="45.4936" lon="6.73152">
        <ele>2589.6452637</ele>
        <time>2009-07-25T10:18:18Z</time>
      </trkpt>
      <trkpt lat="45.49371" lon="6.73152">
        <ele>2590.8164063</ele>
        <time>2009-07-25T10:18:27Z</time>
      </trkpt>
      <trkpt lat="45.49373" lon="6.73152">
        <ele>2590.9543457</ele>
        <time>2009-07-25T10:18:28Z</time>
      </trkpt>
      <trkpt lat="45.49376" lon="6.73153">
        <ele>2591.4914551</ele>
        <time>2009-07-25T10:18:30Z</time>
      </trkpt>
      <trkpt lat="45.49391" lon="6.73151">
        <ele>2592.4401855</ele>
        <time>2009-07-25T10:18:42Z</time>
      </trkpt>
      <trkpt lat="45.49401" lon="6.73152">
        <ele>2594.3708496</ele>
        <time>2009-07-25T10:18:51Z</time>
      </trkpt>
      <trkpt lat="45.49413" lon="6.73155">
        <ele>2596.8276367</ele>
        <time>2009-07-25T10:19:02Z</time>
      </trkpt>
      <trkpt lat="45.49421" lon="6.73161">
        <ele>2598.5356445</ele>
        <time>2009-07-25T10:19:11Z</time>
      </trkpt>
      <trkpt lat="45.4943" lon="6.73169">
        <ele>2600.1621094</ele>
        <time>2009-07-25T10:19:21Z</time>
      </trkpt>
      <trkpt lat="45.4944" lon="6.73175">
        <ele>2601.4440918</ele>
        <time>2009-07-25T10:19:31Z</time>
      </trkpt>
      <trkpt lat="45.49448" lon="6.73183">
        <ele>2602.7202148</ele>
        <time>2009-07-25T10:19:40Z</time>
      </trkpt>
      <trkpt lat="45.49456" lon="6.73189">
        <ele>2603.6972656</ele>
        <time>2009-07-25T10:19:49Z</time>
      </trkpt>
      <trkpt lat="45.49463" lon="6.73191">
        <ele>2603.7832031</ele>
        <time>2009-07-25T10:19:56Z</time>
      </trkpt>
      <trkpt lat="45.49471" lon="6.73194">
        <ele>2604.0163574</ele>
        <time>2009-07-25T10:20:04Z</time>
      </trkpt>
      <trkpt lat="45.4948" lon="6.73196">
        <ele>2605.105957</ele>
        <time>2009-07-25T10:20:12Z</time>
      </trkpt>
      <trkpt lat="45.49493" lon="6.73197">
        <ele>2606.4396973</ele>
        <time>2009-07-25T10:20:22Z</time>
      </trkpt>
      <trkpt lat="45.49505" lon="6.73199">
        <ele>2607.5495605</ele>
        <time>2009-07-25T10:20:32Z</time>
      </trkpt>
      <trkpt lat="45.49515" lon="6.73202">
        <ele>2608.5603027</ele>
        <time>2009-07-25T10:20:42Z</time>
      </trkpt>
      <trkpt lat="45.49526" lon="6.73204">
        <ele>2609.2814941</ele>
        <time>2009-07-25T10:20:54Z</time>
      </trkpt>
      <trkpt lat="45.49534" lon="6.73206">
        <ele>2610.3532715</ele>
        <time>2009-07-25T10:21:02Z</time>
      </trkpt>
      <trkpt lat="45.49543" lon="6.73208">
        <ele>2611.6708984</ele>
        <time>2009-07-25T10:21:11Z</time>
      </trkpt>
      <trkpt lat="45.49556" lon="6.73211">
        <ele>2613.5212402</ele>
        <time>2009-07-25T10:21:22Z</time>
      </trkpt>
      <trkpt lat="45.49567" lon="6.73216">
        <ele>2615.4523926</ele>
        <time>2009-07-25T10:21:32Z</time>
      </trkpt>
      <trkpt lat="45.49576" lon="6.7322">
        <ele>2617.029541</ele>
        <time>2009-07-25T10:21:41Z</time>
      </trkpt>
      <trkpt lat="45.49581" lon="6.73222">
        <ele>2618.0026855</ele>
        <time>2009-07-25T10:21:47Z</time>
      </trkpt>
      <trkpt lat="45.49588" lon="6.73225">
        <ele>2619.0419922</ele>
        <time>2009-07-25T10:21:53Z</time>
      </trkpt>
      <trkpt lat="45.49594" lon="6.73231">
        <ele>2621.1191406</ele>
        <time>2009-07-25T10:22:00Z</time>
      </trkpt>
      <trkpt lat="45.49599" lon="6.73234">
        <ele>2622.2348633</ele>
        <time>2009-07-25T10:22:05Z</time>
      </trkpt>
      <trkpt lat="45.49608" lon="6.73241">
        <ele>2624.7583008</ele>
        <time>2009-07-25T10:22:15Z</time>
      </trkpt>
      <trkpt lat="45.49614" lon="6.73247">
        <ele>2626.6708984</ele>
        <time>2009-07-25T10:22:23Z</time>
      </trkpt>
      <trkpt lat="45.49621" lon="6.73251">
        <ele>2627.6872559</ele>
        <time>2009-07-25T10:22:30Z</time>
      </trkpt>
      <trkpt lat="45.49626" lon="6.73252">
        <ele>2627.6367188</ele>
        <time>2009-07-25T10:22:35Z</time>
      </trkpt>
      <trkpt lat="45.4963" lon="6.73259">
        <ele>2628.8996582</ele>
        <time>2009-07-25T10:22:42Z</time>
      </trkpt>
      <trkpt lat="45.49632" lon="6.73267">
        <ele>2630.7416992</ele>
        <time>2009-07-25T10:22:49Z</time>
      </trkpt>
      <trkpt lat="45.4963" lon="6.7327">
        <ele>2631.8076172</ele>
        <time>2009-07-25T10:22:52Z</time>
      </trkpt>
      <trkpt lat="45.4962" lon="6.73275">
        <ele>2635.043457</ele>
        <time>2009-07-25T10:23:02Z</time>
      </trkpt>
      <trkpt lat="45.49613" lon="6.73272">
        <ele>2635.6628418</ele>
        <time>2009-07-25T10:23:09Z</time>
      </trkpt>
      <trkpt lat="45.49605" lon="6.7327">
        <ele>2636.0979004</ele>
        <time>2009-07-25T10:23:17Z</time>
      </trkpt>
      <trkpt lat="45.49598" lon="6.73269">
        <ele>2636.8776855</ele>
        <time>2009-07-25T10:23:24Z</time>
      </trkpt>
      <trkpt lat="45.49592" lon="6.7327">
        <ele>2638.2055664</ele>
        <time>2009-07-25T10:23:30Z</time>
      </trkpt>
      <trkpt lat="45.49585" lon="6.73272">
        <ele>2640.3339844</ele>
        <time>2009-07-25T10:23:36Z</time>
      </trkpt>
      <trkpt lat="45.49577" lon="6.73271">
        <ele>2640.2185059</ele>
        <time>2009-07-25T10:23:44Z</time>
      </trkpt>
      <trkpt lat="45.49572" lon="6.73269">
        <ele>2639.7827148</ele>
        <time>2009-07-25T10:23:50Z</time>
      </trkpt>
      <trkpt lat="45.49563" lon="6.73267">
        <ele>2638.6376953</ele>
        <time>2009-07-25T10:24:00Z</time>
      </trkpt>
      <trkpt lat="45.49555" lon="6.73267">
        <ele>2639.2666016</ele>
        <time>2009-07-25T10:24:09Z</time>
      </trkpt>
      <trkpt lat="45.49547" lon="6.73268">
        <ele>2639.4501953</ele>
        <time>2009-07-25T10:24:17Z</time>
      </trkpt>
      <trkpt lat="45.49538" lon="6.73269">
        <ele>2639.9816895</ele>
        <time>2009-07-25T10:24:26Z</time>
      </trkpt>
      <trkpt lat="45.49527" lon="6.7327">
        <ele>2640.3146973</ele>
        <time>2009-07-25T10:24:36Z</time>
      </trkpt>
      <trkpt lat="45.49517" lon="6.73273">
        <ele>2641.748291</ele>
        <time>2009-07-25T10:24:45Z</time>
      </trkpt>
      <trkpt lat="45.49505" lon="6.73276">
        <ele>2643.4287109</ele>
        <time>2009-07-25T10:24:56Z</time>
      </trkpt>
      <trkpt lat="45.49497" lon="6.7328">
        <ele>2644.7407227</ele>
        <time>2009-07-25T10:25:04Z</time>
      </trkpt>
      <trkpt lat="45.49487" lon="6.73283">
        <ele>2645.5046387</ele>
        <time>2009-07-25T10:25:14Z</time>
      </trkpt>
      <trkpt lat="45.49479" lon="6.73285">
        <ele>2646.0783691</ele>
        <time>2009-07-25T10:25:22Z</time>
      </trkpt>
      <trkpt lat="45.49467" lon="6.73291">
        <ele>2647.8776855</ele>
        <time>2009-07-25T10:25:33Z</time>
      </trkpt>
      <trkpt lat="45.49461" lon="6.73295">
        <ele>2649.2885742</ele>
        <time>2009-07-25T10:25:40Z</time>
      </trkpt>
      <trkpt lat="45.49453" lon="6.73301">
        <ele>2650.9089355</ele>
        <time>2009-07-25T10:25:49Z</time>
      </trkpt>
      <trkpt lat="45.49443" lon="6.73305">
        <ele>2651.8078613</ele>
        <time>2009-07-25T10:25:59Z</time>
      </trkpt>
      <trkpt lat="45.49434" lon="6.73307">
        <ele>2653.7800293</ele>
        <time>2009-07-25T10:26:08Z</time>
      </trkpt>
      <trkpt lat="45.49423" lon="6.73309">
        <ele>2655.2700195</ele>
        <time>2009-07-25T10:26:18Z</time>
      </trkpt>
      <trkpt lat="45.49414" lon="6.73311">
        <ele>2656.6108398</ele>
        <time>2009-07-25T10:26:26Z</time>
      </trkpt>
      <trkpt lat="45.49404" lon="6.73314">
        <ele>2658.2685547</ele>
        <time>2009-07-25T10:26:35Z</time>
      </trkpt>
      <trkpt lat="45.49394" lon="6.73317">
        <ele>2660.2424316</ele>
        <time>2009-07-25T10:26:44Z</time>
      </trkpt>
      <trkpt lat="45.49385" lon="6.73321">
        <ele>2662.1621094</ele>
        <time>2009-07-25T10:26:53Z</time>
      </trkpt>
      <trkpt lat="45.49377" lon="6.73324">
        <ele>2662.8840332</ele>
        <time>2009-07-25T10:27:02Z</time>
      </trkpt>
      <trkpt lat="45.49371" lon="6.73325">
        <ele>2662.6091309</ele>
        <time>2009-07-25T10:27:08Z</time>
      </trkpt>
      <trkpt lat="45.49364" lon="6.73329">
        <ele>2663.7919922</ele>
        <time>2009-07-25T10:27:15Z</time>
      </trkpt>
      <trkpt lat="45.49354" lon="6.73334">
        <ele>2665.3461914</ele>
        <time>2009-07-25T10:27:25Z</time>
      </trkpt>
      <trkpt lat="45.49349" lon="6.73335">
        <ele>2665.7563477</ele>
        <time>2009-07-25T10:27:30Z</time>
      </trkpt>
      <trkpt lat="45.49344" lon="6.73336">
        <ele>2665.6203613</ele>
        <time>2009-07-25T10:27:35Z</time>
      </trkpt>
      <trkpt lat="45.49336" lon="6.73339">
        <ele>2666.4213867</ele>
        <time>2009-07-25T10:27:44Z</time>
      </trkpt>
      <trkpt lat="45.49328" lon="6.73343">
        <ele>2667.5075684</ele>
        <time>2009-07-25T10:27:52Z</time>
      </trkpt>
      <trkpt lat="45.4932" lon="6.73347">
        <ele>2669.1452637</ele>
        <time>2009-07-25T10:28:01Z</time>
      </trkpt>
      <trkpt lat="45.49313" lon="6.73351">
        <ele>2670.2832031</ele>
        <time>2009-07-25T10:28:09Z</time>
      </trkpt>
      <trkpt lat="45.49303" lon="6.73357">
        <ele>2671.269043</ele>
        <time>2009-07-25T10:28:19Z</time>
      </trkpt>
      <trkpt lat="45.49294" lon="6.7336">
        <ele>2671.0456543</ele>
        <time>2009-07-25T10:28:28Z</time>
      </trkpt>
      <trkpt lat="45.49289" lon="6.73363">
        <ele>2671.2150879</ele>
        <time>2009-07-25T10:28:33Z</time>
      </trkpt>
      <trkpt lat="45.4928" lon="6.73368">
        <ele>2672.0539551</ele>
        <time>2009-07-25T10:28:42Z</time>
      </trkpt>
      <trkpt lat="45.49272" lon="6.73373">
        <ele>2673.3786621</ele>
        <time>2009-07-25T10:28:51Z</time>
      </trkpt>
      <trkpt lat="45.49265" lon="6.73378">
        <ele>2674.5063477</ele>
        <time>2009-07-25T10:29:00Z</time>
      </trkpt>
      <trkpt lat="45.49258" lon="6.73382">
        <ele>2675.222168</ele>
        <time>2009-07-25T10:29:08Z</time>
      </trkpt>
      <trkpt lat="45.49252" lon="6.73388">
        <ele>2676.9187012</ele>
        <time>2009-07-25T10:29:17Z</time>
      </trkpt>
      <trkpt lat="45.49244" lon="6.73396">
        <ele>2682.7199707</ele>
        <time>2009-07-25T10:29:27Z</time>
      </trkpt>
      <trkpt lat="45.4924" lon="6.734">
        <ele>2685.1755371</ele>
        <time>2009-07-25T10:29:32Z</time>
      </trkpt>
      <trkpt lat="45.49235" lon="6.73408">
        <ele>2688.5827637</ele>
        <time>2009-07-25T10:29:41Z</time>
      </trkpt>
      <trkpt lat="45.49232" lon="6.73415">
        <ele>2690.6782227</ele>
        <time>2009-07-25T10:29:48Z</time>
      </trkpt>
      <trkpt lat="45.49231" lon="6.73424">
        <ele>2690.8803711</ele>
        <time>2009-07-25T10:29:56Z</time>
      </trkpt>
      <trkpt lat="45.49233" lon="6.73435">
        <ele>2691.1923828</ele>
        <time>2009-07-25T10:30:04Z</time>
      </trkpt>
      <trkpt lat="45.49235" lon="6.73444">
        <ele>2692.0986328</ele>
        <time>2009-07-25T10:30:11Z</time>
      </trkpt>
      <trkpt lat="45.49237" lon="6.73453">
        <ele>2691.1572266</ele>
        <time>2009-07-25T10:30:19Z</time>
      </trkpt>
      <trkpt lat="45.49239" lon="6.73457">
        <ele>2690.9597168</ele>
        <time>2009-07-25T10:30:24Z</time>
      </trkpt>
      <trkpt lat="45.49243" lon="6.73463">
        <ele>2691.2492676</ele>
        <time>2009-07-25T10:30:30Z</time>
      </trkpt>
      <trkpt lat="45.49245" lon="6.73468">
        <ele>2691.5488281</ele>
        <time>2009-07-25T10:30:35Z</time>
      </trkpt>
      <trkpt lat="45.4925" lon="6.73477">
        <ele>2692.2878418</ele>
        <time>2009-07-25T10:30:43Z</time>
      </trkpt>
      <trkpt lat="45.49251" lon="6.73478">
        <ele>2692.1918945</ele>
        <time>2009-07-25T10:30:44Z</time>
      </trkpt>
      <trkpt lat="45.49257" lon="6.73487">
        <ele>2692.5273438</ele>
        <time>2009-07-25T10:30:50Z</time>
      </trkpt>
      <trkpt lat="45.49262" lon="6.735">
        <ele>2692.4423828</ele>
        <time>2009-07-25T10:30:57Z</time>
      </trkpt>
      <trkpt lat="45.49263" lon="6.73516">
        <ele>2689.5817871</ele>
        <time>2009-07-25T10:31:04Z</time>
      </trkpt>
      <trkpt lat="45.49259" lon="6.7352">
        <ele>2687.1279297</ele>
        <time>2009-07-25T10:31:07Z</time>
      </trkpt>
      <trkpt lat="45.49249" lon="6.73514">
        <ele>2684.6616211</ele>
        <time>2009-07-25T10:31:13Z</time>
      </trkpt>
      <trkpt lat="45.49248" lon="6.73512">
        <ele>2684.373291</ele>
        <time>2009-07-25T10:31:14Z</time>
      </trkpt>
      <trkpt lat="45.49239" lon="6.73498">
        <ele>2682.8237305</ele>
        <time>2009-07-25T10:31:23Z</time>
      </trkpt>
      <trkpt lat="45.49231" lon="6.73482">
        <ele>2681.7851563</ele>
        <time>2009-07-25T10:31:32Z</time>
      </trkpt>
      <trkpt lat="45.49221" lon="6.73463">
        <ele>2680.3874512</ele>
        <time>2009-07-25T10:31:43Z</time>
      </trkpt>
      <trkpt lat="45.49216" lon="6.73453">
        <ele>2679.5498047</ele>
        <time>2009-07-25T10:31:49Z</time>
      </trkpt>
      <trkpt lat="45.49208" lon="6.73439">
        <ele>2677.9765625</ele>
        <time>2009-07-25T10:31:57Z</time>
      </trkpt>
      <trkpt lat="45.49198" lon="6.7342">
        <ele>2679.0876465</ele>
        <time>2009-07-25T10:32:05Z</time>
      </trkpt>
      <trkpt lat="45.49186" lon="6.73402">
        <ele>2679.8024902</ele>
        <time>2009-07-25T10:32:13Z</time>
      </trkpt>
      <trkpt lat="45.49175" lon="6.73392">
        <ele>2676.9233398</ele>
        <time>2009-07-25T10:32:20Z</time>
      </trkpt>
      <trkpt lat="45.49165" lon="6.73382">
        <ele>2674.001709</ele>
        <time>2009-07-25T10:32:26Z</time>
      </trkpt>
      <trkpt lat="45.4915" lon="6.73368">
        <ele>2673.2507324</ele>
        <time>2009-07-25T10:32:35Z</time>
      </trkpt>
      <trkpt lat="45.49136" lon="6.73358">
        <ele>2672.6948242</ele>
        <time>2009-07-25T10:32:43Z</time>
      </trkpt>
      <trkpt lat="45.49118" lon="6.73348">
        <ele>2669.0085449</ele>
        <time>2009-07-25T10:32:52Z</time>
      </trkpt>
      <trkpt lat="45.49103" lon="6.73338">
        <ele>2666.6740723</ele>
        <time>2009-07-25T10:33:00Z</time>
      </trkpt>
      <trkpt lat="45.49091" lon="6.73329">
        <ele>2665.0302734</ele>
        <time>2009-07-25T10:33:07Z</time>
      </trkpt>
      <trkpt lat="45.49081" lon="6.7332">
        <ele>2664.4970703</ele>
        <time>2009-07-25T10:33:13Z</time>
      </trkpt>
      <trkpt lat="45.49071" lon="6.7331">
        <ele>2664.3596191</ele>
        <time>2009-07-25T10:33:19Z</time>
      </trkpt>
      <trkpt lat="45.49054" lon="6.73296">
        <ele>2664.064209</ele>
        <time>2009-07-25T10:33:29Z</time>
      </trkpt>
      <trkpt lat="45.49038" lon="6.73286">
        <ele>2662.8237305</ele>
        <time>2009-07-25T10:33:38Z</time>
      </trkpt>
      <trkpt lat="45.49023" lon="6.73277">
        <ele>2662.9892578</ele>
        <time>2009-07-25T10:33:46Z</time>
      </trkpt>
      <trkpt lat="45.49007" lon="6.7327">
        <ele>2659.6113281</ele>
        <time>2009-07-25T10:33:54Z</time>
      </trkpt>
      <trkpt lat="45.48992" lon="6.73265">
        <ele>2658.4711914</ele>
        <time>2009-07-25T10:34:01Z</time>
      </trkpt>
      <trkpt lat="45.48979" lon="6.73262">
        <ele>2657.6689453</ele>
        <time>2009-07-25T10:34:07Z</time>
      </trkpt>
      <trkpt lat="45.48973" lon="6.73262">
        <ele>2656.597168</ele>
        <time>2009-07-25T10:34:10Z</time>
      </trkpt>
      <trkpt lat="45.48973" lon="6.73268">
        <ele>2652.6845703</ele>
        <time>2009-07-25T10:34:14Z</time>
      </trkpt>
      <trkpt lat="45.48983" lon="6.73278">
        <ele>2649.0952148</ele>
        <time>2009-07-25T10:34:20Z</time>
      </trkpt>
      <trkpt lat="45.48993" lon="6.73286">
        <ele>2647.2197266</ele>
        <time>2009-07-25T10:34:26Z</time>
      </trkpt>
      <trkpt lat="45.49004" lon="6.73294">
        <ele>2646.9467773</ele>
        <time>2009-07-25T10:34:32Z</time>
      </trkpt>
      <trkpt lat="45.49016" lon="6.73304">
        <ele>2645.1938477</ele>
        <time>2009-07-25T10:34:39Z</time>
      </trkpt>
      <trkpt lat="45.49022" lon="6.73313">
        <ele>2642.973877</ele>
        <time>2009-07-25T10:34:44Z</time>
      </trkpt>
      <trkpt lat="45.49017" lon="6.73321">
        <ele>2639.1162109</ele>
        <time>2009-07-25T10:34:49Z</time>
      </trkpt>
      <trkpt lat="45.49007" lon="6.73319">
        <ele>2637.8999023</ele>
        <time>2009-07-25T10:34:54Z</time>
      </trkpt>
      <trkpt lat="45.48991" lon="6.73315">
        <ele>2634.28125</ele>
        <time>2009-07-25T10:35:02Z</time>
      </trkpt>
      <trkpt lat="45.48983" lon="6.73313">
        <ele>2631.6303711</ele>
        <time>2009-07-25T10:35:07Z</time>
      </trkpt>
      <trkpt lat="45.48977" lon="6.73323">
        <ele>2622.5803223</ele>
        <time>2009-07-25T10:35:13Z</time>
      </trkpt>
      <trkpt lat="45.48981" lon="6.73329">
        <ele>2621.619873</ele>
        <time>2009-07-25T10:35:16Z</time>
      </trkpt>
      <trkpt lat="45.4899" lon="6.73334">
        <ele>2624.9750977</ele>
        <time>2009-07-25T10:35:21Z</time>
      </trkpt>
      <trkpt lat="45.48994" lon="6.73338">
        <ele>2625.8681641</ele>
        <time>2009-07-25T10:35:24Z</time>
      </trkpt>
      <trkpt lat="45.49006" lon="6.73349">
        <ele>2625.3571777</ele>
        <time>2009-07-25T10:35:31Z</time>
      </trkpt>
      <trkpt lat="45.49014" lon="6.73357">
        <ele>2623.3012695</ele>
        <time>2009-07-25T10:35:36Z</time>
      </trkpt>
      <trkpt lat="45.49019" lon="6.73361">
        <ele>2622.706543</ele>
        <time>2009-07-25T10:35:39Z</time>
      </trkpt>
      <trkpt lat="45.49023" lon="6.73367">
        <ele>2621.0151367</ele>
        <time>2009-07-25T10:35:42Z</time>
      </trkpt>
      <trkpt lat="45.4903" lon="6.73373">
        <ele>2620.7922363</ele>
        <time>2009-07-25T10:35:46Z</time>
      </trkpt>
      <trkpt lat="45.49032" lon="6.73374">
        <ele>2620.7888184</ele>
        <time>2009-07-25T10:35:47Z</time>
      </trkpt>
      <trkpt lat="45.49043" lon="6.73386">
        <ele>2618.6867676</ele>
        <time>2009-07-25T10:35:55Z</time>
      </trkpt>
      <trkpt lat="45.49053" lon="6.73393">
        <ele>2618.6901855</ele>
        <time>2009-07-25T10:36:01Z</time>
      </trkpt>
      <trkpt lat="45.4906" lon="6.73399">
        <ele>2618.2416992</ele>
        <time>2009-07-25T10:36:05Z</time>
      </trkpt>
      <trkpt lat="45.4907" lon="6.73408">
        <ele>2616.3999023</ele>
        <time>2009-07-25T10:36:11Z</time>
      </trkpt>
      <trkpt lat="45.49072" lon="6.73412">
        <ele>2614.6369629</ele>
        <time>2009-07-25T10:36:13Z</time>
      </trkpt>
      <trkpt lat="45.49076" lon="6.73418">
        <ele>2612.2988281</ele>
        <time>2009-07-25T10:36:16Z</time>
      </trkpt>
      <trkpt lat="45.49084" lon="6.73425">
        <ele>2609.3320313</ele>
        <time>2009-07-25T10:36:22Z</time>
      </trkpt>
      <trkpt lat="45.49097" lon="6.73439">
        <ele>2608.1650391</ele>
        <time>2009-07-25T10:36:33Z</time>
      </trkpt>
      <trkpt lat="45.49105" lon="6.73451">
        <ele>2605.8725586</ele>
        <time>2009-07-25T10:36:41Z</time>
      </trkpt>
      <trkpt lat="45.49114" lon="6.73466">
        <ele>2604.503418</ele>
        <time>2009-07-25T10:36:50Z</time>
      </trkpt>
      <trkpt lat="45.49123" lon="6.73484">
        <ele>2604.0102539</ele>
        <time>2009-07-25T10:37:00Z</time>
      </trkpt>
      <trkpt lat="45.49128" lon="6.73502">
        <ele>2602.9880371</ele>
        <time>2009-07-25T10:37:09Z</time>
      </trkpt>
      <trkpt lat="45.49131" lon="6.73516">
        <ele>2601.4370117</ele>
        <time>2009-07-25T10:37:16Z</time>
      </trkpt>
      <trkpt lat="45.49133" lon="6.73531">
        <ele>2599.8427734</ele>
        <time>2009-07-25T10:37:23Z</time>
      </trkpt>
      <trkpt lat="45.49134" lon="6.73545">
        <ele>2598.5644531</ele>
        <time>2009-07-25T10:37:30Z</time>
      </trkpt>
      <trkpt lat="45.49136" lon="6.73558">
        <ele>2598.2009277</ele>
        <time>2009-07-25T10:37:36Z</time>
      </trkpt>
      <trkpt lat="45.49138" lon="6.73578">
        <ele>2597.2041016</ele>
        <time>2009-07-25T10:37:45Z</time>
      </trkpt>
      <trkpt lat="45.49139" lon="6.73598">
        <ele>2595.7817383</ele>
        <time>2009-07-25T10:37:52Z</time>
      </trkpt>
      <trkpt lat="45.49138" lon="6.73616">
        <ele>2594.5964355</ele>
        <time>2009-07-25T10:37:58Z</time>
      </trkpt>
      <trkpt lat="45.49135" lon="6.73637">
        <ele>2593.3320313</ele>
        <time>2009-07-25T10:38:05Z</time>
      </trkpt>
      <trkpt lat="45.4913" lon="6.73652">
        <ele>2591.1887207</ele>
        <time>2009-07-25T10:38:10Z</time>
      </trkpt>
      <trkpt lat="45.49125" lon="6.73677">
        <ele>2588.5456543</ele>
        <time>2009-07-25T10:38:19Z</time>
      </trkpt>
      <trkpt lat="45.4912" lon="6.73694">
        <ele>2586.0495605</ele>
        <time>2009-07-25T10:38:25Z</time>
      </trkpt>
      <trkpt lat="45.49113" lon="6.7371">
        <ele>2584.8754883</ele>
        <time>2009-07-25T10:38:31Z</time>
      </trkpt>
      <trkpt lat="45.49107" lon="6.73722">
        <ele>2584.7131348</ele>
        <time>2009-07-25T10:38:36Z</time>
      </trkpt>
      <trkpt lat="45.49097" lon="6.73733">
        <ele>2582.489502</ele>
        <time>2009-07-25T10:38:42Z</time>
      </trkpt>
      <trkpt lat="45.49084" lon="6.73745">
        <ele>2579.3894043</ele>
        <time>2009-07-25T10:38:49Z</time>
      </trkpt>
      <trkpt lat="45.49077" lon="6.73754">
        <ele>2578.6450195</ele>
        <time>2009-07-25T10:38:54Z</time>
      </trkpt>
      <trkpt lat="45.49064" lon="6.73769">
        <ele>2578.1220703</ele>
        <time>2009-07-25T10:39:02Z</time>
      </trkpt>
      <trkpt lat="45.49051" lon="6.73781">
        <ele>2577.7382813</ele>
        <time>2009-07-25T10:39:09Z</time>
      </trkpt>
      <trkpt lat="45.49043" lon="6.73788">
        <ele>2576.5383301</ele>
        <time>2009-07-25T10:39:14Z</time>
      </trkpt>
      <trkpt lat="45.49032" lon="6.73792">
        <ele>2573.7937012</ele>
        <time>2009-07-25T10:39:19Z</time>
      </trkpt>
      <trkpt lat="45.49021" lon="6.73803">
        <ele>2574.9797363</ele>
        <time>2009-07-25T10:39:25Z</time>
      </trkpt>
      <trkpt lat="45.49013" lon="6.73811">
        <ele>2577.2365723</ele>
        <time>2009-07-25T10:39:30Z</time>
      </trkpt>
      <trkpt lat="45.48999" lon="6.73817">
        <ele>2578.536377</ele>
        <time>2009-07-25T10:39:37Z</time>
      </trkpt>
      <trkpt lat="45.48985" lon="6.7382">
        <ele>2580.9648438</ele>
        <time>2009-07-25T10:39:44Z</time>
      </trkpt>
      <trkpt lat="45.48969" lon="6.73816">
        <ele>2580.4069824</ele>
        <time>2009-07-25T10:39:52Z</time>
      </trkpt>
      <trkpt lat="45.48962" lon="6.73814">
        <ele>2578.6923828</ele>
        <time>2009-07-25T10:39:55Z</time>
      </trkpt>
      <trkpt lat="45.48952" lon="6.73812">
        <ele>2576.621582</ele>
        <time>2009-07-25T10:40:00Z</time>
      </trkpt>
      <trkpt lat="45.48949" lon="6.73813">
        <ele>2576.3115234</ele>
        <time>2009-07-25T10:40:01Z</time>
      </trkpt>
      <trkpt lat="45.48938" lon="6.73821">
        <ele>2574.6318359</ele>
        <time>2009-07-25T10:40:07Z</time>
      </trkpt>
      <trkpt lat="45.48928" lon="6.73832">
        <ele>2572.8408203</ele>
        <time>2009-07-25T10:40:13Z</time>
      </trkpt>
      <trkpt lat="45.4892" lon="6.73847">
        <ele>2568.2319336</ele>
        <time>2009-07-25T10:40:20Z</time>
      </trkpt>
      <trkpt lat="45.48917" lon="6.73862">
        <ele>2564.2385254</ele>
        <time>2009-07-25T10:40:25Z</time>
      </trkpt>
      <trkpt lat="45.48915" lon="6.73881">
        <ele>2558.7199707</ele>
        <time>2009-07-25T10:40:31Z</time>
      </trkpt>
      <trkpt lat="45.48913" lon="6.739">
        <ele>2555.0227051</ele>
        <time>2009-07-25T10:40:37Z</time>
      </trkpt>
      <trkpt lat="45.4891" lon="6.73914">
        <ele>2552.3618164</ele>
        <time>2009-07-25T10:40:42Z</time>
      </trkpt>
      <trkpt lat="45.48907" lon="6.73929">
        <ele>2550.8151855</ele>
        <time>2009-07-25T10:40:47Z</time>
      </trkpt>
      <trkpt lat="45.48906" lon="6.73942">
        <ele>2550.2058105</ele>
        <time>2009-07-25T10:40:52Z</time>
      </trkpt>
      <trkpt lat="45.48903" lon="6.73959">
        <ele>2548.0830078</ele>
        <time>2009-07-25T10:40:58Z</time>
      </trkpt>
      <trkpt lat="45.48899" lon="6.73981">
        <ele>2545.9099121</ele>
        <time>2009-07-25T10:41:05Z</time>
      </trkpt>
      <trkpt lat="45.48898" lon="6.73999">
        <ele>2545.2128906</ele>
        <time>2009-07-25T10:41:11Z</time>
      </trkpt>
      <trkpt lat="45.48895" lon="6.74023">
        <ele>2544.5390625</ele>
        <time>2009-07-25T10:41:19Z</time>
      </trkpt>
      <trkpt lat="45.48889" lon="6.74038">
        <ele>2542.9943848</ele>
        <time>2009-07-25T10:41:25Z</time>
      </trkpt>
      <trkpt lat="45.4888" lon="6.74053">
        <ele>2539.2946777</ele>
        <time>2009-07-25T10:41:31Z</time>
      </trkpt>
      <trkpt lat="45.4887" lon="6.74066">
        <ele>2536.1152344</ele>
        <time>2009-07-25T10:41:37Z</time>
      </trkpt>
      <trkpt lat="45.48861" lon="6.74076">
        <ele>2532.9807129</ele>
        <time>2009-07-25T10:41:42Z</time>
      </trkpt>
      <trkpt lat="45.48847" lon="6.74086">
        <ele>2531.5493164</ele>
        <time>2009-07-25T10:41:48Z</time>
      </trkpt>
      <trkpt lat="45.48834" lon="6.74096">
        <ele>2530.8249512</ele>
        <time>2009-07-25T10:41:55Z</time>
      </trkpt>
      <trkpt lat="45.48822" lon="6.74104">
        <ele>2529.8520508</ele>
        <time>2009-07-25T10:42:01Z</time>
      </trkpt>
      <trkpt lat="45.48808" lon="6.74109">
        <ele>2526.6899414</ele>
        <time>2009-07-25T10:42:08Z</time>
      </trkpt>
      <trkpt lat="45.488" lon="6.74112">
        <ele>2525.6079102</ele>
        <time>2009-07-25T10:42:12Z</time>
      </trkpt>
      <trkpt lat="45.48788" lon="6.74122">
        <ele>2524.7631836</ele>
        <time>2009-07-25T10:42:19Z</time>
      </trkpt>
      <trkpt lat="45.48776" lon="6.74134">
        <ele>2523.7290039</ele>
        <time>2009-07-25T10:42:25Z</time>
      </trkpt>
      <trkpt lat="45.48764" lon="6.74148">
        <ele>2523.8208008</ele>
        <time>2009-07-25T10:42:32Z</time>
      </trkpt>
      <trkpt lat="45.48753" lon="6.74158">
        <ele>2523.1101074</ele>
        <time>2009-07-25T10:42:38Z</time>
      </trkpt>
      <trkpt lat="45.48742" lon="6.74165">
        <ele>2520.7817383</ele>
        <time>2009-07-25T10:42:44Z</time>
      </trkpt>
      <trkpt lat="45.48729" lon="6.74173">
        <ele>2518.7211914</ele>
        <time>2009-07-25T10:42:51Z</time>
      </trkpt>
      <trkpt lat="45.4872" lon="6.74183">
        <ele>2518.9633789</ele>
        <time>2009-07-25T10:42:57Z</time>
      </trkpt>
      <trkpt lat="45.48709" lon="6.74192">
        <ele>2521.0969238</ele>
        <time>2009-07-25T10:43:03Z</time>
      </trkpt>
      <trkpt lat="45.48698" lon="6.74199">
        <ele>2521.5031738</ele>
        <time>2009-07-25T10:43:09Z</time>
      </trkpt>
      <trkpt lat="45.48686" lon="6.74203">
        <ele>2517.7856445</ele>
        <time>2009-07-25T10:43:15Z</time>
      </trkpt>
      <trkpt lat="45.48674" lon="6.74213">
        <ele>2513.9785156</ele>
        <time>2009-07-25T10:43:22Z</time>
      </trkpt>
      <trkpt lat="45.48661" lon="6.74225">
        <ele>2512.2817383</ele>
        <time>2009-07-25T10:43:29Z</time>
      </trkpt>
      <trkpt lat="45.48648" lon="6.74238">
        <ele>2512.7207031</ele>
        <time>2009-07-25T10:43:36Z</time>
      </trkpt>
      <trkpt lat="45.48637" lon="6.74246">
        <ele>2511.8317871</ele>
        <time>2009-07-25T10:43:42Z</time>
      </trkpt>
      <trkpt lat="45.48623" lon="6.74253">
        <ele>2510.4709473</ele>
        <time>2009-07-25T10:43:49Z</time>
      </trkpt>
      <trkpt lat="45.4861" lon="6.74256">
        <ele>2508.0917969</ele>
        <time>2009-07-25T10:43:55Z</time>
      </trkpt>
      <trkpt lat="45.48596" lon="6.74262">
        <ele>2505.2910156</ele>
        <time>2009-07-25T10:44:02Z</time>
      </trkpt>
      <trkpt lat="45.48594" lon="6.74263">
        <ele>2504.9953613</ele>
        <time>2009-07-25T10:44:03Z</time>
      </trkpt>
      <trkpt lat="45.48589" lon="6.74281">
        <ele>2507.0041504</ele>
        <time>2009-07-25T10:44:10Z</time>
      </trkpt>
      <trkpt lat="45.48591" lon="6.74295">
        <ele>2506.7189941</ele>
        <time>2009-07-25T10:44:15Z</time>
      </trkpt>
      <trkpt lat="45.48596" lon="6.74301">
        <ele>2508.6257324</ele>
        <time>2009-07-25T10:44:18Z</time>
      </trkpt>
      <trkpt lat="45.48605" lon="6.74305">
        <ele>2513.2648926</ele>
        <time>2009-07-25T10:44:23Z</time>
      </trkpt>
      <trkpt lat="45.48613" lon="6.74307">
        <ele>2516.2958984</ele>
        <time>2009-07-25T10:44:27Z</time>
      </trkpt>
      <trkpt lat="45.48627" lon="6.74311">
        <ele>2515.3579102</ele>
        <time>2009-07-25T10:44:34Z</time>
      </trkpt>
      <trkpt lat="45.48639" lon="6.74315">
        <ele>2514.1804199</ele>
        <time>2009-07-25T10:44:40Z</time>
      </trkpt>
      <trkpt lat="45.48647" lon="6.74317">
        <ele>2513.621582</ele>
        <time>2009-07-25T10:44:45Z</time>
      </trkpt>
      <trkpt lat="45.4866" lon="6.74315">
        <ele>2515.4753418</ele>
        <time>2009-07-25T10:44:53Z</time>
      </trkpt>
      <trkpt lat="45.48672" lon="6.74314">
        <ele>2515.9626465</ele>
        <time>2009-07-25T10:45:00Z</time>
      </trkpt>
      <trkpt lat="45.48685" lon="6.74316">
        <ele>2513.9614258</ele>
        <time>2009-07-25T10:45:08Z</time>
      </trkpt>
      <trkpt lat="45.48697" lon="6.74317">
        <ele>2512.170166</ele>
        <time>2009-07-25T10:45:17Z</time>
      </trkpt>
      <trkpt lat="45.48711" lon="6.74312">
        <ele>2513.2907715</ele>
        <time>2009-07-25T10:45:26Z</time>
      </trkpt>
      <trkpt lat="45.48723" lon="6.74306">
        <ele>2513.1950684</ele>
        <time>2009-07-25T10:45:34Z</time>
      </trkpt>
      <trkpt lat="45.48735" lon="6.743">
        <ele>2515.0627441</ele>
        <time>2009-07-25T10:45:41Z</time>
      </trkpt>
      <trkpt lat="45.48747" lon="6.74297">
        <ele>2512.8852539</ele>
        <time>2009-07-25T10:45:48Z</time>
      </trkpt>
      <trkpt lat="45.48756" lon="6.74298">
        <ele>2509.0566406</ele>
        <time>2009-07-25T10:45:56Z</time>
      </trkpt>
      <trkpt lat="45.48764" lon="6.74295">
        <ele>2509.2087402</ele>
        <time>2009-07-25T10:46:01Z</time>
      </trkpt>
      <trkpt lat="45.48772" lon="6.74289">
        <ele>2510.0161133</ele>
        <time>2009-07-25T10:46:07Z</time>
      </trkpt>
      <trkpt lat="45.48781" lon="6.74284">
        <ele>2509.1728516</ele>
        <time>2009-07-25T10:46:13Z</time>
      </trkpt>
      <trkpt lat="45.48788" lon="6.74281">
        <ele>2508.4609375</ele>
        <time>2009-07-25T10:46:19Z</time>
      </trkpt>
      <trkpt lat="45.48799" lon="6.74276">
        <ele>2506.9968262</ele>
        <time>2009-07-25T10:46:25Z</time>
      </trkpt>
      <trkpt lat="45.48809" lon="6.74271">
        <ele>2506.4536133</ele>
        <time>2009-07-25T10:46:31Z</time>
      </trkpt>
      <trkpt lat="45.48819" lon="6.74264">
        <ele>2507.0688477</ele>
        <time>2009-07-25T10:46:38Z</time>
      </trkpt>
      <trkpt lat="45.48829" lon="6.74258">
        <ele>2506.4555664</ele>
        <time>2009-07-25T10:46:46Z</time>
      </trkpt>
      <trkpt lat="45.48838" lon="6.74258">
        <ele>2504.9594727</ele>
        <time>2009-07-25T10:46:52Z</time>
      </trkpt>
      <trkpt lat="45.48846" lon="6.7426">
        <ele>2503.8103027</ele>
        <time>2009-07-25T10:46:57Z</time>
      </trkpt>
      <trkpt lat="45.4886" lon="6.74263">
        <ele>2502.177002</ele>
        <time>2009-07-25T10:47:06Z</time>
      </trkpt>
      <trkpt lat="45.48869" lon="6.74265">
        <ele>2501.7543945</ele>
        <time>2009-07-25T10:47:12Z</time>
      </trkpt>
      <trkpt lat="45.4888" lon="6.74268">
        <ele>2501.168457</ele>
        <time>2009-07-25T10:47:19Z</time>
      </trkpt>
      <trkpt lat="45.48882" lon="6.74269">
        <ele>2501.0083008</ele>
        <time>2009-07-25T10:47:20Z</time>
      </trkpt>
      <trkpt lat="45.48884" lon="6.74275">
        <ele>2500.3491211</ele>
        <time>2009-07-25T10:47:23Z</time>
      </trkpt>
      <trkpt lat="45.48885" lon="6.74292">
        <ele>2498.9628906</ele>
        <time>2009-07-25T10:47:31Z</time>
      </trkpt>
      <trkpt lat="45.48883" lon="6.74305">
        <ele>2498.0324707</ele>
        <time>2009-07-25T10:47:37Z</time>
      </trkpt>
      <trkpt lat="45.48883" lon="6.7432">
        <ele>2497.3911133</ele>
        <time>2009-07-25T10:47:44Z</time>
      </trkpt>
      <trkpt lat="45.4889" lon="6.74329">
        <ele>2497.2780762</ele>
        <time>2009-07-25T10:47:50Z</time>
      </trkpt>
      <trkpt lat="45.48898" lon="6.74333">
        <ele>2497.9870605</ele>
        <time>2009-07-25T10:47:56Z</time>
      </trkpt>
      <trkpt lat="45.48908" lon="6.74338">
        <ele>2498.8444824</ele>
        <time>2009-07-25T10:48:03Z</time>
      </trkpt>
      <trkpt lat="45.48917" lon="6.74342">
        <ele>2499.6999512</ele>
        <time>2009-07-25T10:48:09Z</time>
      </trkpt>
      <trkpt lat="45.48927" lon="6.74343">
        <ele>2499.6652832</ele>
        <time>2009-07-25T10:48:16Z</time>
      </trkpt>
      <trkpt lat="45.48937" lon="6.74342">
        <ele>2499.685791</ele>
        <time>2009-07-25T10:48:22Z</time>
      </trkpt>
      <trkpt lat="45.48951" lon="6.74346">
        <ele>2500.4431152</ele>
        <time>2009-07-25T10:48:30Z</time>
      </trkpt>
      <trkpt lat="45.48956" lon="6.74359">
        <ele>2500.4038086</ele>
        <time>2009-07-25T10:48:37Z</time>
      </trkpt>
      <trkpt lat="45.4896" lon="6.74371">
        <ele>2499.6237793</ele>
        <time>2009-07-25T10:48:43Z</time>
      </trkpt>
      <trkpt lat="45.48965" lon="6.74384">
        <ele>2498.753418</ele>
        <time>2009-07-25T10:48:50Z</time>
      </trkpt>
      <trkpt lat="45.48972" lon="6.744">
        <ele>2497.472168</ele>
        <time>2009-07-25T10:48:59Z</time>
      </trkpt>
      <trkpt lat="45.4898" lon="6.7441">
        <ele>2498.3168945</ele>
        <time>2009-07-25T10:49:06Z</time>
      </trkpt>
      <trkpt lat="45.48988" lon="6.74418">
        <ele>2499.1374512</ele>
        <time>2009-07-25T10:49:13Z</time>
      </trkpt>
      <trkpt lat="45.48997" lon="6.74427">
        <ele>2499.6589355</ele>
        <time>2009-07-25T10:49:21Z</time>
      </trkpt>
      <trkpt lat="45.49004" lon="6.74432">
        <ele>2499.6716309</ele>
        <time>2009-07-25T10:49:27Z</time>
      </trkpt>
      <trkpt lat="45.49012" lon="6.74437">
        <ele>2499.3146973</ele>
        <time>2009-07-25T10:49:33Z</time>
      </trkpt>
      <trkpt lat="45.49018" lon="6.74444">
        <ele>2498.6074219</ele>
        <time>2009-07-25T10:49:38Z</time>
      </trkpt>
      <trkpt lat="45.49028" lon="6.74456">
        <ele>2498.3757324</ele>
        <time>2009-07-25T10:49:46Z</time>
      </trkpt>
      <trkpt lat="45.49036" lon="6.74466">
        <ele>2497.7370605</ele>
        <time>2009-07-25T10:49:53Z</time>
      </trkpt>
      <trkpt lat="45.49048" lon="6.7448">
        <ele>2497.206543</ele>
        <time>2009-07-25T10:50:01Z</time>
      </trkpt>
      <trkpt lat="45.4906" lon="6.7449">
        <ele>2496.9313965</ele>
        <time>2009-07-25T10:50:09Z</time>
      </trkpt>
      <trkpt lat="45.49075" lon="6.74499">
        <ele>2497.3208008</ele>
        <time>2009-07-25T10:50:18Z</time>
      </trkpt>
      <trkpt lat="45.49086" lon="6.7451">
        <ele>2496.6633301</ele>
        <time>2009-07-25T10:50:26Z</time>
      </trkpt>
      <trkpt lat="45.49093" lon="6.74526">
        <ele>2495.847168</ele>
        <time>2009-07-25T10:50:34Z</time>
      </trkpt>
      <trkpt lat="45.491" lon="6.74544">
        <ele>2494.9953613</ele>
        <time>2009-07-25T10:50:43Z</time>
      </trkpt>
      <trkpt lat="45.49107" lon="6.74564">
        <ele>2493.5876465</ele>
        <time>2009-07-25T10:50:53Z</time>
      </trkpt>
      <trkpt lat="45.49112" lon="6.74579">
        <ele>2493.012207</ele>
        <time>2009-07-25T10:51:00Z</time>
      </trkpt>
      <trkpt lat="45.4912" lon="6.74596">
        <ele>2492.0734863</ele>
        <time>2009-07-25T10:51:09Z</time>
      </trkpt>
      <trkpt lat="45.49128" lon="6.74611">
        <ele>2491.2836914</ele>
        <time>2009-07-25T10:51:17Z</time>
      </trkpt>
      <trkpt lat="45.49134" lon="6.74622">
        <ele>2490.2922363</ele>
        <time>2009-07-25T10:51:23Z</time>
      </trkpt>
      <trkpt lat="45.49141" lon="6.74637">
        <ele>2488.7526855</ele>
        <time>2009-07-25T10:51:31Z</time>
      </trkpt>
      <trkpt lat="45.49144" lon="6.74646">
        <ele>2487.6889648</ele>
        <time>2009-07-25T10:51:36Z</time>
      </trkpt>
      <trkpt lat="45.49147" lon="6.74652">
        <ele>2487.3449707</ele>
        <time>2009-07-25T10:51:39Z</time>
      </trkpt>
      <trkpt lat="45.49146" lon="6.74654">
        <ele>2486.9541016</ele>
        <time>2009-07-25T10:51:44Z</time>
      </trkpt>
      <trkpt lat="45.49146" lon="6.74654">
        <ele>2486.8972168</ele>
        <time>2009-07-25T10:51:51Z</time>
      </trkpt>
      <trkpt lat="45.49146" lon="6.74654">
        <ele>2486.9040527</ele>
        <time>2009-07-25T10:52:00Z</time>
      </trkpt>
      <trkpt lat="45.49147" lon="6.74652">
        <ele>2487.3789063</ele>
        <time>2009-07-25T10:52:13Z</time>
      </trkpt>
      <trkpt lat="45.49147" lon="6.74652">
        <ele>2487.4316406</ele>
        <time>2009-07-25T10:52:26Z</time>
      </trkpt>
      <trkpt lat="45.49146" lon="6.74651">
        <ele>2487.3122559</ele>
        <time>2009-07-25T10:53:05Z</time>
      </trkpt>
      <trkpt lat="45.49147" lon="6.74651">
        <ele>2487.3781738</ele>
        <time>2009-07-25T10:53:13Z</time>
      </trkpt>
      <trkpt lat="45.49147" lon="6.74652">
        <ele>2487.3330078</ele>
        <time>2009-07-25T10:53:25Z</time>
      </trkpt>
      <trkpt lat="45.49146" lon="6.74654">
        <ele>2486.9675293</ele>
        <time>2009-07-25T10:53:35Z</time>
      </trkpt>
      <trkpt lat="45.49148" lon="6.74654">
        <ele>2487.3168945</ele>
        <time>2009-07-25T10:53:45Z</time>
      </trkpt>
      <trkpt lat="45.49148" lon="6.74654">
        <ele>2487.3632813</ele>
        <time>2009-07-25T10:53:53Z</time>
      </trkpt>
      <trkpt lat="45.49147" lon="6.74655">
        <ele>2486.9804688</ele>
        <time>2009-07-25T10:54:03Z</time>
      </trkpt>
      <trkpt lat="45.49146" lon="6.74656">
        <ele>2486.6364746</ele>
        <time>2009-07-25T10:54:11Z</time>
      </trkpt>
      <trkpt lat="45.49145" lon="6.74657">
        <ele>2486.222168</ele>
        <time>2009-07-25T10:54:17Z</time>
      </trkpt>
      <trkpt lat="45.49145" lon="6.74658">
        <ele>2486.0461426</ele>
        <time>2009-07-25T10:54:31Z</time>
      </trkpt>
      <trkpt lat="45.49145" lon="6.74656">
        <ele>2486.3771973</ele>
        <time>2009-07-25T10:54:51Z</time>
      </trkpt>
      <trkpt lat="45.49147" lon="6.74656">
        <ele>2486.7651367</ele>
        <time>2009-07-25T10:54:57Z</time>
      </trkpt>
      <trkpt lat="45.49148" lon="6.74657">
        <ele>2486.9023438</ele>
        <time>2009-07-25T10:55:03Z</time>
      </trkpt>
      <trkpt lat="45.49147" lon="6.7466">
        <ele>2486.229248</ele>
        <time>2009-07-25T10:55:09Z</time>
      </trkpt>
      <trkpt lat="45.49148" lon="6.74661">
        <ele>2486.3151855</ele>
        <time>2009-07-25T10:55:14Z</time>
      </trkpt>
      <trkpt lat="45.49147" lon="6.7466">
        <ele>2486.1520996</ele>
        <time>2009-07-25T10:55:27Z</time>
      </trkpt>
      <trkpt lat="45.49146" lon="6.74661">
        <ele>2485.9672852</ele>
        <time>2009-07-25T10:55:37Z</time>
      </trkpt>
      <trkpt lat="45.49146" lon="6.74667">
        <ele>2485.0263672</ele>
        <time>2009-07-25T10:55:44Z</time>
      </trkpt>
      <trkpt lat="45.49143" lon="6.74676">
        <ele>2485.8007813</ele>
        <time>2009-07-25T10:55:52Z</time>
      </trkpt>
      <trkpt lat="45.49138" lon="6.7469">
        <ele>2486.8713379</ele>
        <time>2009-07-25T10:56:01Z</time>
      </trkpt>
      <trkpt lat="45.49134" lon="6.74703">
        <ele>2488.0876465</ele>
        <time>2009-07-25T10:56:10Z</time>
      </trkpt>
      <trkpt lat="45.49129" lon="6.74719">
        <ele>2488.9350586</ele>
        <time>2009-07-25T10:56:20Z</time>
      </trkpt>
      <trkpt lat="45.49126" lon="6.74732">
        <ele>2489.2722168</ele>
        <time>2009-07-25T10:56:27Z</time>
      </trkpt>
      <trkpt lat="45.49125" lon="6.74745">
        <ele>2490.1188965</ele>
        <time>2009-07-25T10:56:34Z</time>
      </trkpt>
      <trkpt lat="45.49126" lon="6.7476">
        <ele>2492.9230957</ele>
        <time>2009-07-25T10:56:42Z</time>
      </trkpt>
      <trkpt lat="45.49126" lon="6.74775">
        <ele>2496.1420898</ele>
        <time>2009-07-25T10:56:51Z</time>
      </trkpt>
      <trkpt lat="45.49123" lon="6.74787">
        <ele>2498.4284668</ele>
        <time>2009-07-25T10:56:59Z</time>
      </trkpt>
      <trkpt lat="45.4912" lon="6.74797">
        <ele>2500.2531738</ele>
        <time>2009-07-25T10:57:06Z</time>
      </trkpt>
      <trkpt lat="45.49117" lon="6.74807">
        <ele>2502.0195313</ele>
        <time>2009-07-25T10:57:12Z</time>
      </trkpt>
      <trkpt lat="45.49113" lon="6.74821">
        <ele>2503.5812988</ele>
        <time>2009-07-25T10:57:22Z</time>
      </trkpt>
      <trkpt lat="45.49112" lon="6.74827">
        <ele>2504.2268066</ele>
        <time>2009-07-25T10:57:26Z</time>
      </trkpt>
      <trkpt lat="45.49109" lon="6.74838">
        <ele>2505.1696777</ele>
        <time>2009-07-25T10:57:33Z</time>
      </trkpt>
      <trkpt lat="45.49109" lon="6.74839">
        <ele>2505.3041992</ele>
        <time>2009-07-25T10:57:34Z</time>
      </trkpt>
      <trkpt lat="45.49105" lon="6.74853">
        <ele>2506.138916</ele>
        <time>2009-07-25T10:57:42Z</time>
      </trkpt>
      <trkpt lat="45.49103" lon="6.7487">
        <ele>2506.4238281</ele>
        <time>2009-07-25T10:57:51Z</time>
      </trkpt>
      <trkpt lat="45.49103" lon="6.74884">
        <ele>2506.776123</ele>
        <time>2009-07-25T10:57:59Z</time>
      </trkpt>
      <trkpt lat="45.49106" lon="6.74898">
        <ele>2508.4824219</ele>
        <time>2009-07-25T10:58:07Z</time>
      </trkpt>
      <trkpt lat="45.4911" lon="6.74912">
        <ele>2510.480957</ele>
        <time>2009-07-25T10:58:16Z</time>
      </trkpt>
      <trkpt lat="45.49114" lon="6.74927">
        <ele>2511.9892578</ele>
        <time>2009-07-25T10:58:25Z</time>
      </trkpt>
      <trkpt lat="45.49118" lon="6.7494">
        <ele>2513.0947266</ele>
        <time>2009-07-25T10:58:33Z</time>
      </trkpt>
      <trkpt lat="45.49121" lon="6.74952">
        <ele>2513.2575684</ele>
        <time>2009-07-25T10:58:40Z</time>
      </trkpt>
      <trkpt lat="45.49125" lon="6.74961">
        <ele>2513.3398438</ele>
        <time>2009-07-25T10:58:46Z</time>
      </trkpt>
      <trkpt lat="45.49131" lon="6.74973">
        <ele>2513.6413574</ele>
        <time>2009-07-25T10:58:55Z</time>
      </trkpt>
      <trkpt lat="45.49138" lon="6.74983">
        <ele>2514.8044434</ele>
        <time>2009-07-25T10:59:03Z</time>
      </trkpt>
      <trkpt lat="45.49145" lon="6.7499">
        <ele>2516.5068359</ele>
        <time>2009-07-25T10:59:10Z</time>
      </trkpt>
      <trkpt lat="45.49152" lon="6.75">
        <ele>2517.7575684</ele>
        <time>2009-07-25T10:59:17Z</time>
      </trkpt>
      <trkpt lat="45.49154" lon="6.75005">
        <ele>2518.9587402</ele>
        <time>2009-07-25T10:59:21Z</time>
      </trkpt>
      <trkpt lat="45.49156" lon="6.7501">
        <ele>2520.244873</ele>
        <time>2009-07-25T10:59:25Z</time>
      </trkpt>
      <trkpt lat="45.49156" lon="6.75019">
        <ele>2521.75</ele>
        <time>2009-07-25T10:59:33Z</time>
      </trkpt>
      <trkpt lat="45.49157" lon="6.7503">
        <ele>2523.5795898</ele>
        <time>2009-07-25T10:59:42Z</time>
      </trkpt>
      <trkpt lat="45.49157" lon="6.7504">
        <ele>2525.2475586</ele>
        <time>2009-07-25T10:59:50Z</time>
      </trkpt>
      <trkpt lat="45.49157" lon="6.75051">
        <ele>2526.8129883</ele>
        <time>2009-07-25T10:59:58Z</time>
      </trkpt>
      <trkpt lat="45.49157" lon="6.75066">
        <ele>2528.6689453</ele>
        <time>2009-07-25T11:00:08Z</time>
      </trkpt>
      <trkpt lat="45.49158" lon="6.75079">
        <ele>2530.4799805</ele>
        <time>2009-07-25T11:00:17Z</time>
      </trkpt>
      <trkpt lat="45.49159" lon="6.75091">
        <ele>2531.6518555</ele>
        <time>2009-07-25T11:00:25Z</time>
      </trkpt>
      <trkpt lat="45.49161" lon="6.75101">
        <ele>2532.777832</ele>
        <time>2009-07-25T11:00:32Z</time>
      </trkpt>
      <trkpt lat="45.49162" lon="6.75113">
        <ele>2533.9125977</ele>
        <time>2009-07-25T11:00:40Z</time>
      </trkpt>
      <trkpt lat="45.49162" lon="6.75119">
        <ele>2534.7958984</ele>
        <time>2009-07-25T11:00:44Z</time>
      </trkpt>
      <trkpt lat="45.49162" lon="6.75134">
        <ele>2536.4694824</ele>
        <time>2009-07-25T11:00:54Z</time>
      </trkpt>
      <trkpt lat="45.49161" lon="6.75142">
        <ele>2537.6115723</ele>
        <time>2009-07-25T11:01:00Z</time>
      </trkpt>
      <trkpt lat="45.4916" lon="6.75153">
        <ele>2539.536377</ele>
        <time>2009-07-25T11:01:08Z</time>
      </trkpt>
      <trkpt lat="45.4916" lon="6.75162">
        <ele>2541.0183105</ele>
        <time>2009-07-25T11:01:16Z</time>
      </trkpt>
      <trkpt lat="45.49159" lon="6.7517">
        <ele>2542.8339844</ele>
        <time>2009-07-25T11:01:24Z</time>
      </trkpt>
      <trkpt lat="45.49156" lon="6.75178">
        <ele>2544.4440918</ele>
        <time>2009-07-25T11:01:32Z</time>
      </trkpt>
      <trkpt lat="45.49154" lon="6.75188">
        <ele>2546.5178223</ele>
        <time>2009-07-25T11:01:41Z</time>
      </trkpt>
      <trkpt lat="45.49152" lon="6.75197">
        <ele>2548.7612305</ele>
        <time>2009-07-25T11:01:51Z</time>
      </trkpt>
      <trkpt lat="45.4915" lon="6.75204">
        <ele>2550.7294922</ele>
        <time>2009-07-25T11:01:59Z</time>
      </trkpt>
      <trkpt lat="45.49149" lon="6.75213">
        <ele>2553.157959</ele>
        <time>2009-07-25T11:02:08Z</time>
      </trkpt>
      <trkpt lat="45.49147" lon="6.75221">
        <ele>2555.3781738</ele>
        <time>2009-07-25T11:02:17Z</time>
      </trkpt>
      <trkpt lat="45.49147" lon="6.75228">
        <ele>2557.0993652</ele>
        <time>2009-07-25T11:02:24Z</time>
      </trkpt>
      <trkpt lat="45.49146" lon="6.75238">
        <ele>2559.1213379</ele>
        <time>2009-07-25T11:02:32Z</time>
      </trkpt>
      <trkpt lat="45.49145" lon="6.75249">
        <ele>2561.6184082</ele>
        <time>2009-07-25T11:02:41Z</time>
      </trkpt>
      <trkpt lat="45.49144" lon="6.7526">
        <ele>2563.5058594</ele>
        <time>2009-07-25T11:02:49Z</time>
      </trkpt>
      <trkpt lat="45.49143" lon="6.75272">
        <ele>2565.6328125</ele>
        <time>2009-07-25T11:02:58Z</time>
      </trkpt>
      <trkpt lat="45.49142" lon="6.75282">
        <ele>2567.0358887</ele>
        <time>2009-07-25T11:03:05Z</time>
      </trkpt>
      <trkpt lat="45.49142" lon="6.75295">
        <ele>2568.7836914</ele>
        <time>2009-07-25T11:03:15Z</time>
      </trkpt>
      <trkpt lat="45.49141" lon="6.75312">
        <ele>2570.4311523</ele>
        <time>2009-07-25T11:03:25Z</time>
      </trkpt>
      <trkpt lat="45.4914" lon="6.75326">
        <ele>2570.8974609</ele>
        <time>2009-07-25T11:03:33Z</time>
      </trkpt>
      <trkpt lat="45.49141" lon="6.75341">
        <ele>2571.0666504</ele>
        <time>2009-07-25T11:03:41Z</time>
      </trkpt>
      <trkpt lat="45.49142" lon="6.75352">
        <ele>2570.9697266</ele>
        <time>2009-07-25T11:03:49Z</time>
      </trkpt>
      <trkpt lat="45.49142" lon="6.75362">
        <ele>2570.9055176</ele>
        <time>2009-07-25T11:03:57Z</time>
      </trkpt>
      <trkpt lat="45.49142" lon="6.75371">
        <ele>2572.2856445</ele>
        <time>2009-07-25T11:04:03Z</time>
      </trkpt>
      <trkpt lat="45.49141" lon="6.75386">
        <ele>2574.201416</ele>
        <time>2009-07-25T11:04:12Z</time>
      </trkpt>
      <trkpt lat="45.49142" lon="6.75398">
        <ele>2576.2182617</ele>
        <time>2009-07-25T11:04:20Z</time>
      </trkpt>
      <trkpt lat="45.49145" lon="6.75415">
        <ele>2579.5488281</ele>
        <time>2009-07-25T11:04:31Z</time>
      </trkpt>
      <trkpt lat="45.49149" lon="6.75427">
        <ele>2580.25</ele>
        <time>2009-07-25T11:04:39Z</time>
      </trkpt>
      <trkpt lat="45.49154" lon="6.7544">
        <ele>2580.7822266</ele>
        <time>2009-07-25T11:04:48Z</time>
      </trkpt>
      <trkpt lat="45.49158" lon="6.75449">
        <ele>2581.262207</ele>
        <time>2009-07-25T11:04:55Z</time>
      </trkpt>
      <trkpt lat="45.49162" lon="6.75462">
        <ele>2581.1333008</ele>
        <time>2009-07-25T11:05:04Z</time>
      </trkpt>
      <trkpt lat="45.49165" lon="6.75479">
        <ele>2580.7514648</ele>
        <time>2009-07-25T11:05:15Z</time>
      </trkpt>
      <trkpt lat="45.49165" lon="6.75491">
        <ele>2580.1608887</ele>
        <time>2009-07-25T11:05:22Z</time>
      </trkpt>
      <trkpt lat="45.49166" lon="6.75499">
        <ele>2579.8781738</ele>
        <time>2009-07-25T11:05:27Z</time>
      </trkpt>
      <trkpt lat="45.49166" lon="6.75509">
        <ele>2580.8962402</ele>
        <time>2009-07-25T11:05:34Z</time>
      </trkpt>
      <trkpt lat="45.49165" lon="6.75523">
        <ele>2582.6105957</ele>
        <time>2009-07-25T11:05:44Z</time>
      </trkpt>
      <trkpt lat="45.49165" lon="6.75525">
        <ele>2582.8134766</ele>
        <time>2009-07-25T11:05:45Z</time>
      </trkpt>
      <trkpt lat="45.49168" lon="6.75536">
        <ele>2586.1364746</ele>
        <time>2009-07-25T11:05:54Z</time>
      </trkpt>
      <trkpt lat="45.49169" lon="6.75543">
        <ele>2587.9816895</ele>
        <time>2009-07-25T11:06:01Z</time>
      </trkpt>
      <trkpt lat="45.49171" lon="6.75546">
        <ele>2589.1882324</ele>
        <time>2009-07-25T11:06:05Z</time>
      </trkpt>
      <trkpt lat="45.49171" lon="6.75555">
        <ele>2591.2329102</ele>
        <time>2009-07-25T11:06:13Z</time>
      </trkpt>
      <trkpt lat="45.49172" lon="6.75559">
        <ele>2592.4516602</ele>
        <time>2009-07-25T11:06:17Z</time>
      </trkpt>
      <trkpt lat="45.49175" lon="6.75566">
        <ele>2594.9304199</ele>
        <time>2009-07-25T11:06:25Z</time>
      </trkpt>
      <trkpt lat="45.49176" lon="6.75571">
        <ele>2596.2832031</ele>
        <time>2009-07-25T11:06:30Z</time>
      </trkpt>
      <trkpt lat="45.49177" lon="6.75577">
        <ele>2597.9819336</ele>
        <time>2009-07-25T11:06:37Z</time>
      </trkpt>
      <trkpt lat="45.49178" lon="6.75585">
        <ele>2599.9150391</ele>
        <time>2009-07-25T11:06:45Z</time>
      </trkpt>
      <trkpt lat="45.49179" lon="6.75591">
        <ele>2601.7404785</ele>
        <time>2009-07-25T11:06:52Z</time>
      </trkpt>
      <trkpt lat="45.49179" lon="6.75595">
        <ele>2603.0107422</ele>
        <time>2009-07-25T11:06:57Z</time>
      </trkpt>
      <trkpt lat="45.49179" lon="6.75602">
        <ele>2604.9233398</ele>
        <time>2009-07-25T11:07:03Z</time>
      </trkpt>
      <trkpt lat="45.49181" lon="6.75606">
        <ele>2606.2446289</ele>
        <time>2009-07-25T11:07:09Z</time>
      </trkpt>
      <trkpt lat="45.49182" lon="6.7561">
        <ele>2607.4025879</ele>
        <time>2009-07-25T11:07:16Z</time>
      </trkpt>
      <trkpt lat="45.49183" lon="6.75614">
        <ele>2608.9775391</ele>
        <time>2009-07-25T11:07:23Z</time>
      </trkpt>
      <trkpt lat="45.49184" lon="6.7562">
        <ele>2611.2727051</ele>
        <time>2009-07-25T11:07:31Z</time>
      </trkpt>
      <trkpt lat="45.49184" lon="6.75624">
        <ele>2612.8278809</ele>
        <time>2009-07-25T11:07:38Z</time>
      </trkpt>
      <trkpt lat="45.49184" lon="6.75628">
        <ele>2614.5463867</ele>
        <time>2009-07-25T11:07:45Z</time>
      </trkpt>
      <trkpt lat="45.49184" lon="6.75633">
        <ele>2616.4345703</ele>
        <time>2009-07-25T11:07:51Z</time>
      </trkpt>
      <trkpt lat="45.49184" lon="6.7564">
        <ele>2619.2243652</ele>
        <time>2009-07-25T11:07:59Z</time>
      </trkpt>
      <trkpt lat="45.49184" lon="6.75647">
        <ele>2621.1225586</ele>
        <time>2009-07-25T11:08:06Z</time>
      </trkpt>
      <trkpt lat="45.49186" lon="6.75653">
        <ele>2622.7414551</ele>
        <time>2009-07-25T11:08:11Z</time>
      </trkpt>
      <trkpt lat="45.49187" lon="6.75663">
        <ele>2625.4147949</ele>
        <time>2009-07-25T11:08:19Z</time>
      </trkpt>
      <trkpt lat="45.49189" lon="6.75674">
        <ele>2627.4724121</ele>
        <time>2009-07-25T11:08:27Z</time>
      </trkpt>
      <trkpt lat="45.49189" lon="6.75682">
        <ele>2628.4938965</ele>
        <time>2009-07-25T11:08:33Z</time>
      </trkpt>
      <trkpt lat="45.49187" lon="6.75698">
        <ele>2629.8112793</ele>
        <time>2009-07-25T11:08:42Z</time>
      </trkpt>
      <trkpt lat="45.49186" lon="6.75711">
        <ele>2629.1801758</ele>
        <time>2009-07-25T11:08:49Z</time>
      </trkpt>
      <trkpt lat="45.49184" lon="6.75725">
        <ele>2628.7495117</ele>
        <time>2009-07-25T11:08:57Z</time>
      </trkpt>
      <trkpt lat="45.49182" lon="6.7574">
        <ele>2628.9140625</ele>
        <time>2009-07-25T11:09:05Z</time>
      </trkpt>
      <trkpt lat="45.49179" lon="6.75753">
        <ele>2629.2280273</ele>
        <time>2009-07-25T11:09:12Z</time>
      </trkpt>
      <trkpt lat="45.49176" lon="6.75761">
        <ele>2629.5810547</ele>
        <time>2009-07-25T11:09:17Z</time>
      </trkpt>
      <trkpt lat="45.49171" lon="6.75778">
        <ele>2629.9978027</ele>
        <time>2009-07-25T11:09:27Z</time>
      </trkpt>
      <trkpt lat="45.49163" lon="6.75796">
        <ele>2629.4311523</ele>
        <time>2009-07-25T11:09:37Z</time>
      </trkpt>
      <trkpt lat="45.49158" lon="6.7581">
        <ele>2629.1130371</ele>
        <time>2009-07-25T11:09:44Z</time>
      </trkpt>
      <trkpt lat="45.49155" lon="6.75823">
        <ele>2628.3647461</ele>
        <time>2009-07-25T11:09:51Z</time>
      </trkpt>
      <trkpt lat="45.49157" lon="6.75836">
        <ele>2627.8376465</ele>
        <time>2009-07-25T11:09:58Z</time>
      </trkpt>
      <trkpt lat="45.4916" lon="6.75849">
        <ele>2628.0178223</ele>
        <time>2009-07-25T11:10:05Z</time>
      </trkpt>
      <trkpt lat="45.49164" lon="6.75862">
        <ele>2628.5258789</ele>
        <time>2009-07-25T11:10:13Z</time>
      </trkpt>
      <trkpt lat="45.49167" lon="6.75872">
        <ele>2628.7141113</ele>
        <time>2009-07-25T11:10:19Z</time>
      </trkpt>
      <trkpt lat="45.49172" lon="6.75887">
        <ele>2628.998291</ele>
        <time>2009-07-25T11:10:29Z</time>
      </trkpt>
      <trkpt lat="45.49176" lon="6.75897">
        <ele>2629.8117676</ele>
        <time>2009-07-25T11:10:36Z</time>
      </trkpt>
      <trkpt lat="45.49179" lon="6.75907">
        <ele>2630.6633301</ele>
        <time>2009-07-25T11:10:43Z</time>
      </trkpt>
      <trkpt lat="45.49185" lon="6.75924">
        <ele>2632.0393066</ele>
        <time>2009-07-25T11:10:54Z</time>
      </trkpt>
      <trkpt lat="45.4919" lon="6.75939">
        <ele>2633.2602539</ele>
        <time>2009-07-25T11:11:03Z</time>
      </trkpt>
      <trkpt lat="45.49194" lon="6.75956">
        <ele>2634.8500977</ele>
        <time>2009-07-25T11:11:13Z</time>
      </trkpt>
      <trkpt lat="45.49197" lon="6.75972">
        <ele>2636.2736816</ele>
        <time>2009-07-25T11:11:22Z</time>
      </trkpt>
      <trkpt lat="45.49198" lon="6.75992">
        <ele>2637.8911133</ele>
        <time>2009-07-25T11:11:33Z</time>
      </trkpt>
      <trkpt lat="45.49199" lon="6.76002">
        <ele>2638.8735352</ele>
        <time>2009-07-25T11:11:39Z</time>
      </trkpt>
      <trkpt lat="45.49199" lon="6.76002">
        <ele>2639.03125</ele>
        <time>2009-07-25T11:11:40Z</time>
      </trkpt>
      <trkpt lat="45.49202" lon="6.7601">
        <ele>2640.4321289</ele>
        <time>2009-07-25T11:11:48Z</time>
      </trkpt>
      <trkpt lat="45.49203" lon="6.7602">
        <ele>2642.2036133</ele>
        <time>2009-07-25T11:11:58Z</time>
      </trkpt>
      <trkpt lat="45.49205" lon="6.76025">
        <ele>2643.0688477</ele>
        <time>2009-07-25T11:12:03Z</time>
      </trkpt>
      <trkpt lat="45.49205" lon="6.76033">
        <ele>2644.567627</ele>
        <time>2009-07-25T11:12:10Z</time>
      </trkpt>
      <trkpt lat="45.49205" lon="6.7604">
        <ele>2646.1264648</ele>
        <time>2009-07-25T11:12:17Z</time>
      </trkpt>
      <trkpt lat="45.49205" lon="6.76048">
        <ele>2647.7910156</ele>
        <time>2009-07-25T11:12:25Z</time>
      </trkpt>
      <trkpt lat="45.49203" lon="6.76055">
        <ele>2649.0974121</ele>
        <time>2009-07-25T11:12:33Z</time>
      </trkpt>
      <trkpt lat="45.49202" lon="6.7606">
        <ele>2651.9257813</ele>
        <time>2009-07-25T11:12:43Z</time>
      </trkpt>
      <trkpt lat="45.49201" lon="6.76067">
        <ele>2655.7138672</ele>
        <time>2009-07-25T11:12:52Z</time>
      </trkpt>
      <trkpt lat="45.49199" lon="6.76076">
        <ele>2660.8071289</ele>
        <time>2009-07-25T11:13:01Z</time>
      </trkpt>
      <trkpt lat="45.49197" lon="6.76081">
        <ele>2664.2717285</ele>
        <time>2009-07-25T11:13:09Z</time>
      </trkpt>
      <trkpt lat="45.49197" lon="6.76084">
        <ele>2665.784668</ele>
        <time>2009-07-25T11:13:17Z</time>
      </trkpt>
      <trkpt lat="45.49196" lon="6.76087">
        <ele>2666.9785156</ele>
        <time>2009-07-25T11:13:25Z</time>
      </trkpt>
      <trkpt lat="45.49194" lon="6.7609">
        <ele>2667.9951172</ele>
        <time>2009-07-25T11:13:33Z</time>
      </trkpt>
      <trkpt lat="45.49192" lon="6.76095">
        <ele>2668.9101563</ele>
        <time>2009-07-25T11:13:41Z</time>
      </trkpt>
      <trkpt lat="45.49189" lon="6.76099">
        <ele>2669.5908203</ele>
        <time>2009-07-25T11:13:50Z</time>
      </trkpt>
      <trkpt lat="45.49187" lon="6.76102">
        <ele>2670.2905273</ele>
        <time>2009-07-25T11:13:57Z</time>
      </trkpt>
      <trkpt lat="45.49186" lon="6.76106">
        <ele>2671.4780273</ele>
        <time>2009-07-25T11:14:05Z</time>
      </trkpt>
      <trkpt lat="45.49183" lon="6.7611">
        <ele>2672.6911621</ele>
        <time>2009-07-25T11:14:12Z</time>
      </trkpt>
      <trkpt lat="45.49182" lon="6.76116">
        <ele>2674.2019043</ele>
        <time>2009-07-25T11:14:17Z</time>
      </trkpt>
      <trkpt lat="45.4918" lon="6.7612">
        <ele>2674.8793945</ele>
        <time>2009-07-25T11:14:23Z</time>
      </trkpt>
      <trkpt lat="45.49179" lon="6.76125">
        <ele>2676.3139648</ele>
        <time>2009-07-25T11:14:30Z</time>
      </trkpt>
      <trkpt lat="45.49178" lon="6.76127">
        <ele>2676.7924805</ele>
        <time>2009-07-25T11:14:35Z</time>
      </trkpt>
      <trkpt lat="45.49177" lon="6.76132">
        <ele>2678.189209</ele>
        <time>2009-07-25T11:14:42Z</time>
      </trkpt>
      <trkpt lat="45.49174" lon="6.76137">
        <ele>2679.5290527</ele>
        <time>2009-07-25T11:14:50Z</time>
      </trkpt>
      <trkpt lat="45.49174" lon="6.76147">
        <ele>2681.848877</ele>
        <time>2009-07-25T11:15:02Z</time>
      </trkpt>
      <trkpt lat="45.49171" lon="6.7615">
        <ele>2682.1855469</ele>
        <time>2009-07-25T11:15:08Z</time>
      </trkpt>
      <trkpt lat="45.49167" lon="6.76151">
        <ele>2682.2773438</ele>
        <time>2009-07-25T11:15:16Z</time>
      </trkpt>
      <trkpt lat="45.49165" lon="6.76158">
        <ele>2683.7929688</ele>
        <time>2009-07-25T11:15:24Z</time>
      </trkpt>
      <trkpt lat="45.49161" lon="6.76167">
        <ele>2686.5058594</ele>
        <time>2009-07-25T11:15:33Z</time>
      </trkpt>
      <trkpt lat="45.49158" lon="6.76176">
        <ele>2688.8781738</ele>
        <time>2009-07-25T11:15:42Z</time>
      </trkpt>
      <trkpt lat="45.49156" lon="6.76185">
        <ele>2690.9914551</ele>
        <time>2009-07-25T11:15:51Z</time>
      </trkpt>
      <trkpt lat="45.49153" lon="6.76193">
        <ele>2693.0634766</ele>
        <time>2009-07-25T11:16:00Z</time>
      </trkpt>
      <trkpt lat="45.49152" lon="6.76201">
        <ele>2695.333252</ele>
        <time>2009-07-25T11:16:10Z</time>
      </trkpt>
      <trkpt lat="45.49151" lon="6.7621">
        <ele>2697.5036621</ele>
        <time>2009-07-25T11:16:21Z</time>
      </trkpt>
      <trkpt lat="45.4915" lon="6.76216">
        <ele>2699.0996094</ele>
        <time>2009-07-25T11:16:29Z</time>
      </trkpt>
      <trkpt lat="45.49149" lon="6.76222">
        <ele>2700.494873</ele>
        <time>2009-07-25T11:16:35Z</time>
      </trkpt>
      <trkpt lat="45.49146" lon="6.76229">
        <ele>2702.0622559</ele>
        <time>2009-07-25T11:16:43Z</time>
      </trkpt>
      <trkpt lat="45.49142" lon="6.76232">
        <ele>2702.9633789</ele>
        <time>2009-07-25T11:16:49Z</time>
      </trkpt>
      <trkpt lat="45.49139" lon="6.76236">
        <ele>2704.0258789</ele>
        <time>2009-07-25T11:16:56Z</time>
      </trkpt>
      <trkpt lat="45.49135" lon="6.76241">
        <ele>2705.3134766</ele>
        <time>2009-07-25T11:17:04Z</time>
      </trkpt>
      <trkpt lat="45.49129" lon="6.76246">
        <ele>2707.1279297</ele>
        <time>2009-07-25T11:17:13Z</time>
      </trkpt>
      <trkpt lat="45.49123" lon="6.76252">
        <ele>2709.2485352</ele>
        <time>2009-07-25T11:17:22Z</time>
      </trkpt>
      <trkpt lat="45.49116" lon="6.76258">
        <ele>2711.3518066</ele>
        <time>2009-07-25T11:17:31Z</time>
      </trkpt>
      <trkpt lat="45.49109" lon="6.76262">
        <ele>2712.6474609</ele>
        <time>2009-07-25T11:17:41Z</time>
      </trkpt>
      <trkpt lat="45.49105" lon="6.76265">
        <ele>2712.8671875</ele>
        <time>2009-07-25T11:17:48Z</time>
      </trkpt>
      <trkpt lat="45.49099" lon="6.76265">
        <ele>2712.7299805</ele>
        <time>2009-07-25T11:17:56Z</time>
      </trkpt>
      <trkpt lat="45.49091" lon="6.76269">
        <ele>2713.0527344</ele>
        <time>2009-07-25T11:18:06Z</time>
      </trkpt>
      <trkpt lat="45.49084" lon="6.76273">
        <ele>2713.3547363</ele>
        <time>2009-07-25T11:18:15Z</time>
      </trkpt>
      <trkpt lat="45.49076" lon="6.76282">
        <ele>2714.0661621</ele>
        <time>2009-07-25T11:18:25Z</time>
      </trkpt>
      <trkpt lat="45.49071" lon="6.76291">
        <ele>2714.7800293</ele>
        <time>2009-07-25T11:18:36Z</time>
      </trkpt>
      <trkpt lat="45.49068" lon="6.76298">
        <ele>2715.4543457</ele>
        <time>2009-07-25T11:18:46Z</time>
      </trkpt>
      <trkpt lat="45.49067" lon="6.76305">
        <ele>2716.2485352</ele>
        <time>2009-07-25T11:18:55Z</time>
      </trkpt>
      <trkpt lat="45.49066" lon="6.76313">
        <ele>2716.9975586</ele>
        <time>2009-07-25T11:19:04Z</time>
      </trkpt>
      <trkpt lat="45.49065" lon="6.76321">
        <ele>2717.7712402</ele>
        <time>2009-07-25T11:19:12Z</time>
      </trkpt>
      <trkpt lat="45.49063" lon="6.76329">
        <ele>2718.5126953</ele>
        <time>2009-07-25T11:19:20Z</time>
      </trkpt>
      <trkpt lat="45.49062" lon="6.76337">
        <ele>2719.4616699</ele>
        <time>2009-07-25T11:19:27Z</time>
      </trkpt>
      <trkpt lat="45.49062" lon="6.76348">
        <ele>2721.090332</ele>
        <time>2009-07-25T11:19:35Z</time>
      </trkpt>
      <trkpt lat="45.4906" lon="6.76358">
        <ele>2722.3320313</ele>
        <time>2009-07-25T11:19:42Z</time>
      </trkpt>
      <trkpt lat="45.49057" lon="6.76367">
        <ele>2723.7871094</ele>
        <time>2009-07-25T11:19:49Z</time>
      </trkpt>
      <trkpt lat="45.49047" lon="6.76375">
        <ele>2723.9511719</ele>
        <time>2009-07-25T11:19:59Z</time>
      </trkpt>
      <trkpt lat="45.49037" lon="6.76384">
        <ele>2724.2819824</ele>
        <time>2009-07-25T11:20:09Z</time>
      </trkpt>
      <trkpt lat="45.49029" lon="6.7639">
        <ele>2724.4990234</ele>
        <time>2009-07-25T11:20:18Z</time>
      </trkpt>
      <trkpt lat="45.4902" lon="6.76396">
        <ele>2725.309082</ele>
        <time>2009-07-25T11:20:27Z</time>
      </trkpt>
      <trkpt lat="45.4901" lon="6.76406">
        <ele>2726.861084</ele>
        <time>2009-07-25T11:20:38Z</time>
      </trkpt>
      <trkpt lat="45.49002" lon="6.76412">
        <ele>2727.8000488</ele>
        <time>2009-07-25T11:20:48Z</time>
      </trkpt>
      <trkpt lat="45.48996" lon="6.76419">
        <ele>2728.0541992</ele>
        <time>2009-07-25T11:20:57Z</time>
      </trkpt>
      <trkpt lat="45.4899" lon="6.76425">
        <ele>2728.0766602</ele>
        <time>2009-07-25T11:21:05Z</time>
      </trkpt>
      <trkpt lat="45.48982" lon="6.76436">
        <ele>2729.4973145</ele>
        <time>2009-07-25T11:21:17Z</time>
      </trkpt>
      <trkpt lat="45.48977" lon="6.76443">
        <ele>2730.8061523</ele>
        <time>2009-07-25T11:21:25Z</time>
      </trkpt>
      <trkpt lat="45.48972" lon="6.76451">
        <ele>2731.8110352</ele>
        <time>2009-07-25T11:21:33Z</time>
      </trkpt>
      <trkpt lat="45.48969" lon="6.7646">
        <ele>2733.7661133</ele>
        <time>2009-07-25T11:21:42Z</time>
      </trkpt>
      <trkpt lat="45.48967" lon="6.76464">
        <ele>2734.9584961</ele>
        <time>2009-07-25T11:21:48Z</time>
      </trkpt>
      <trkpt lat="45.48962" lon="6.76468">
        <ele>2735.4335938</ele>
        <time>2009-07-25T11:21:55Z</time>
      </trkpt>
      <trkpt lat="45.48956" lon="6.76476">
        <ele>2737.8100586</ele>
        <time>2009-07-25T11:22:05Z</time>
      </trkpt>
      <trkpt lat="45.4895" lon="6.76485">
        <ele>2741.105957</ele>
        <time>2009-07-25T11:22:15Z</time>
      </trkpt>
      <trkpt lat="45.48944" lon="6.76492">
        <ele>2743.5129395</ele>
        <time>2009-07-25T11:22:23Z</time>
      </trkpt>
      <trkpt lat="45.48936" lon="6.76499">
        <ele>2746.4174805</ele>
        <time>2009-07-25T11:22:33Z</time>
      </trkpt>
      <trkpt lat="45.48928" lon="6.76503">
        <ele>2748.0080566</ele>
        <time>2009-07-25T11:22:43Z</time>
      </trkpt>
      <trkpt lat="45.48919" lon="6.76507">
        <ele>2749.5358887</ele>
        <time>2009-07-25T11:22:54Z</time>
      </trkpt>
      <trkpt lat="45.48909" lon="6.76513">
        <ele>2751.4055176</ele>
        <time>2009-07-25T11:23:07Z</time>
      </trkpt>
      <trkpt lat="45.48903" lon="6.76517">
        <ele>2752.4936523</ele>
        <time>2009-07-25T11:23:16Z</time>
      </trkpt>
      <trkpt lat="45.48896" lon="6.76519">
        <ele>2753.0808105</ele>
        <time>2009-07-25T11:23:24Z</time>
      </trkpt>
      <trkpt lat="45.4889" lon="6.76524">
        <ele>2754.5810547</ele>
        <time>2009-07-25T11:23:34Z</time>
      </trkpt>
      <trkpt lat="45.48884" lon="6.76529">
        <ele>2755.4223633</ele>
        <time>2009-07-25T11:23:44Z</time>
      </trkpt>
      <trkpt lat="45.48878" lon="6.76535">
        <ele>2756.1477051</ele>
        <time>2009-07-25T11:23:53Z</time>
      </trkpt>
      <trkpt lat="45.48873" lon="6.7654">
        <ele>2757.1066895</ele>
        <time>2009-07-25T11:24:03Z</time>
      </trkpt>
      <trkpt lat="45.48869" lon="6.76544">
        <ele>2757.9772949</ele>
        <time>2009-07-25T11:24:12Z</time>
      </trkpt>
      <trkpt lat="45.48866" lon="6.76548">
        <ele>2758.9377441</ele>
        <time>2009-07-25T11:24:20Z</time>
      </trkpt>
      <trkpt lat="45.48861" lon="6.76554">
        <ele>2760.4257813</ele>
        <time>2009-07-25T11:24:31Z</time>
      </trkpt>
      <trkpt lat="45.48856" lon="6.76558">
        <ele>2761.1401367</ele>
        <time>2009-07-25T11:24:40Z</time>
      </trkpt>
      <trkpt lat="45.48849" lon="6.76564">
        <ele>2761.9343262</ele>
        <time>2009-07-25T11:24:51Z</time>
      </trkpt>
      <trkpt lat="45.48847" lon="6.7657">
        <ele>2763.7019043</ele>
        <time>2009-07-25T11:24:59Z</time>
      </trkpt>
      <trkpt lat="45.4885" lon="6.76577">
        <ele>2767.4020996</ele>
        <time>2009-07-25T11:25:08Z</time>
      </trkpt>
      <trkpt lat="45.48849" lon="6.76581">
        <ele>2768.8447266</ele>
        <time>2009-07-25T11:25:14Z</time>
      </trkpt>
      <trkpt lat="45.48845" lon="6.76585">
        <ele>2769.6872559</ele>
        <time>2009-07-25T11:25:23Z</time>
      </trkpt>
      <trkpt lat="45.48843" lon="6.76587">
        <ele>2770.0849609</ele>
        <time>2009-07-25T11:25:31Z</time>
      </trkpt>
      <trkpt lat="45.48839" lon="6.76589">
        <ele>2769.7475586</ele>
        <time>2009-07-25T11:25:41Z</time>
      </trkpt>
      <trkpt lat="45.48837" lon="6.76592">
        <ele>2770.4365234</ele>
        <time>2009-07-25T11:25:50Z</time>
      </trkpt>
      <trkpt lat="45.48838" lon="6.76596">
        <ele>2772.6115723</ele>
        <time>2009-07-25T11:25:56Z</time>
      </trkpt>
      <trkpt lat="45.4884" lon="6.766">
        <ele>2774.5895996</ele>
        <time>2009-07-25T11:26:03Z</time>
      </trkpt>
      <trkpt lat="45.48841" lon="6.76606">
        <ele>2777.3037109</ele>
        <time>2009-07-25T11:26:12Z</time>
      </trkpt>
      <trkpt lat="45.48843" lon="6.76609">
        <ele>2779.5429688</ele>
        <time>2009-07-25T11:26:19Z</time>
      </trkpt>
      <trkpt lat="45.48845" lon="6.76612">
        <ele>2781.1564941</ele>
        <time>2009-07-25T11:26:25Z</time>
      </trkpt>
      <trkpt lat="45.48848" lon="6.76616">
        <ele>2783.2458496</ele>
        <time>2009-07-25T11:26:33Z</time>
      </trkpt>
      <trkpt lat="45.48849" lon="6.76618">
        <ele>2784.4838867</ele>
        <time>2009-07-25T11:26:39Z</time>
      </trkpt>
      <trkpt lat="45.4885" lon="6.76623">
        <ele>2786.5559082</ele>
        <time>2009-07-25T11:26:46Z</time>
      </trkpt>
      <trkpt lat="45.48853" lon="6.76625">
        <ele>2788.3393555</ele>
        <time>2009-07-25T11:26:52Z</time>
      </trkpt>
      <trkpt lat="45.48853" lon="6.76627">
        <ele>2789.3117676</ele>
        <time>2009-07-25T11:26:59Z</time>
      </trkpt>
      <trkpt lat="45.48849" lon="6.76628">
        <ele>2788.2651367</ele>
        <time>2009-07-25T11:27:05Z</time>
      </trkpt>
      <trkpt lat="45.48846" lon="6.7663">
        <ele>2787.5507813</ele>
        <time>2009-07-25T11:27:12Z</time>
      </trkpt>
      <trkpt lat="45.48843" lon="6.76632">
        <ele>2786.770752</ele>
        <time>2009-07-25T11:27:19Z</time>
      </trkpt>
      <trkpt lat="45.4884" lon="6.76633">
        <ele>2785.8029785</ele>
        <time>2009-07-25T11:27:27Z</time>
      </trkpt>
      <trkpt lat="45.48839" lon="6.76634">
        <ele>2785.9929199</ele>
        <time>2009-07-25T11:27:35Z</time>
      </trkpt>
      <trkpt lat="45.48841" lon="6.76636">
        <ele>2787.3879395</ele>
        <time>2009-07-25T11:27:37Z</time>
      </trkpt>
      <trkpt lat="45.48848" lon="6.76642">
        <ele>2792.4541016</ele>
        <time>2009-07-25T11:27:46Z</time>
      </trkpt>
      <trkpt lat="45.4885" lon="6.76646">
        <ele>2794.6867676</ele>
        <time>2009-07-25T11:27:53Z</time>
      </trkpt>
      <trkpt lat="45.48846" lon="6.76648">
        <ele>2793.4387207</ele>
        <time>2009-07-25T11:28:01Z</time>
      </trkpt>
      <trkpt lat="45.48843" lon="6.7665">
        <ele>2792.5668945</ele>
        <time>2009-07-25T11:28:07Z</time>
      </trkpt>
      <trkpt lat="45.48839" lon="6.76652">
        <ele>2791.5378418</ele>
        <time>2009-07-25T11:28:14Z</time>
      </trkpt>
      <trkpt lat="45.48835" lon="6.76654">
        <ele>2790.1196289</ele>
        <time>2009-07-25T11:28:21Z</time>
      </trkpt>
      <trkpt lat="45.48835" lon="6.76658">
        <ele>2791.4870605</ele>
        <time>2009-07-25T11:28:28Z</time>
      </trkpt>
      <trkpt lat="45.48838" lon="6.76663">
        <ele>2794.4108887</ele>
        <time>2009-07-25T11:28:35Z</time>
      </trkpt>
      <trkpt lat="45.48843" lon="6.76666">
        <ele>2797.9296875</ele>
        <time>2009-07-25T11:28:42Z</time>
      </trkpt>
      <trkpt lat="45.48848" lon="6.7667">
        <ele>2802.3327637</ele>
        <time>2009-07-25T11:28:51Z</time>
      </trkpt>
      <trkpt lat="45.48848" lon="6.76674">
        <ele>2803.9716797</ele>
        <time>2009-07-25T11:28:58Z</time>
      </trkpt>
      <trkpt lat="45.48848" lon="6.76679">
        <ele>2805.590332</ele>
        <time>2009-07-25T11:29:07Z</time>
      </trkpt>
      <trkpt lat="45.48847" lon="6.76682">
        <ele>2806.6381836</ele>
        <time>2009-07-25T11:29:15Z</time>
      </trkpt>
      <trkpt lat="45.48847" lon="6.76686">
        <ele>2808.4550781</ele>
        <time>2009-07-25T11:29:24Z</time>
      </trkpt>
      <trkpt lat="45.48847" lon="6.76688">
        <ele>2809.5214844</ele>
        <time>2009-07-25T11:29:30Z</time>
      </trkpt>
      <trkpt lat="45.48847" lon="6.76692">
        <ele>2810.9038086</ele>
        <time>2009-07-25T11:29:37Z</time>
      </trkpt>
      <trkpt lat="45.48847" lon="6.76696">
        <ele>2812.5129395</ele>
        <time>2009-07-25T11:29:45Z</time>
      </trkpt>
      <trkpt lat="45.48848" lon="6.767">
        <ele>2814.3308105</ele>
        <time>2009-07-25T11:29:54Z</time>
      </trkpt>
      <trkpt lat="45.48847" lon="6.76703">
        <ele>2815.1276855</ele>
        <time>2009-07-25T11:30:00Z</time>
      </trkpt>
      <trkpt lat="45.48847" lon="6.76708">
        <ele>2816.8439941</ele>
        <time>2009-07-25T11:30:09Z</time>
      </trkpt>
      <trkpt lat="45.48847" lon="6.76712">
        <ele>2818.5898438</ele>
        <time>2009-07-25T11:30:17Z</time>
      </trkpt>
      <trkpt lat="45.48848" lon="6.76717">
        <ele>2820.682373</ele>
        <time>2009-07-25T11:30:26Z</time>
      </trkpt>
      <trkpt lat="45.48848" lon="6.76721">
        <ele>2822.3371582</ele>
        <time>2009-07-25T11:30:34Z</time>
      </trkpt>
      <trkpt lat="45.48848" lon="6.76724">
        <ele>2823.3146973</ele>
        <time>2009-07-25T11:30:39Z</time>
      </trkpt>
      <trkpt lat="45.48848" lon="6.76729">
        <ele>2824.7583008</ele>
        <time>2009-07-25T11:30:46Z</time>
      </trkpt>
      <trkpt lat="45.48848" lon="6.76733">
        <ele>2826.0300293</ele>
        <time>2009-07-25T11:30:53Z</time>
      </trkpt>
      <trkpt lat="45.48848" lon="6.76737">
        <ele>2827.5458984</ele>
        <time>2009-07-25T11:31:00Z</time>
      </trkpt>
      <trkpt lat="45.48848" lon="6.76743">
        <ele>2829.4291992</ele>
        <time>2009-07-25T11:31:09Z</time>
      </trkpt>
      <trkpt lat="45.48849" lon="6.76747">
        <ele>2830.8183594</ele>
        <time>2009-07-25T11:31:15Z</time>
      </trkpt>
      <trkpt lat="45.48849" lon="6.76753">
        <ele>2832.5839844</ele>
        <time>2009-07-25T11:31:24Z</time>
      </trkpt>
      <trkpt lat="45.48849" lon="6.76757">
        <ele>2834.1943359</ele>
        <time>2009-07-25T11:31:31Z</time>
      </trkpt>
      <trkpt lat="45.48848" lon="6.7676">
        <ele>2835.1188965</ele>
        <time>2009-07-25T11:31:39Z</time>
      </trkpt>
      <trkpt lat="45.48847" lon="6.76764">
        <ele>2836.1430664</ele>
        <time>2009-07-25T11:31:44Z</time>
      </trkpt>
      <trkpt lat="45.48846" lon="6.76768">
        <ele>2837.4157715</ele>
        <time>2009-07-25T11:31:51Z</time>
      </trkpt>
      <trkpt lat="45.48846" lon="6.76772">
        <ele>2838.8544922</ele>
        <time>2009-07-25T11:31:58Z</time>
      </trkpt>
      <trkpt lat="45.48848" lon="6.76776">
        <ele>2840.3261719</ele>
        <time>2009-07-25T11:32:07Z</time>
      </trkpt>
      <trkpt lat="45.48849" lon="6.76779">
        <ele>2841.5991211</ele>
        <time>2009-07-25T11:32:14Z</time>
      </trkpt>
      <trkpt lat="45.4885" lon="6.76782">
        <ele>2842.8051758</ele>
        <time>2009-07-25T11:32:21Z</time>
      </trkpt>
      <trkpt lat="45.48851" lon="6.76786">
        <ele>2844.3823242</ele>
        <time>2009-07-25T11:32:28Z</time>
      </trkpt>
      <trkpt lat="45.48851" lon="6.76788">
        <ele>2844.9968262</ele>
        <time>2009-07-25T11:32:34Z</time>
      </trkpt>
      <trkpt lat="45.48854" lon="6.76788">
        <ele>2845.3886719</ele>
        <time>2009-07-25T11:32:41Z</time>
      </trkpt>
      <trkpt lat="45.48856" lon="6.7679">
        <ele>2846.2702637</ele>
        <time>2009-07-25T11:32:47Z</time>
      </trkpt>
      <trkpt lat="45.48856" lon="6.76793">
        <ele>2847.359375</ele>
        <time>2009-07-25T11:32:59Z</time>
      </trkpt>
      <trkpt lat="45.48853" lon="6.76796">
        <ele>2848.1347656</ele>
        <time>2009-07-25T11:33:05Z</time>
      </trkpt>
      <trkpt lat="45.48852" lon="6.76799">
        <ele>2849.204834</ele>
        <time>2009-07-25T11:33:11Z</time>
      </trkpt>
      <trkpt lat="45.48849" lon="6.76803">
        <ele>2850.5717773</ele>
        <time>2009-07-25T11:33:18Z</time>
      </trkpt>
      <trkpt lat="45.48849" lon="6.76807">
        <ele>2852.0012207</ele>
        <time>2009-07-25T11:33:25Z</time>
      </trkpt>
      <trkpt lat="45.48855" lon="6.7681">
        <ele>2853.8261719</ele>
        <time>2009-07-25T11:33:32Z</time>
      </trkpt>
      <trkpt lat="45.48859" lon="6.7681">
        <ele>2854.6569824</ele>
        <time>2009-07-25T11:33:38Z</time>
      </trkpt>
      <trkpt lat="45.48861" lon="6.76814">
        <ele>2856.0678711</ele>
        <time>2009-07-25T11:33:46Z</time>
      </trkpt>
      <trkpt lat="45.48858" lon="6.76816">
        <ele>2856.4765625</ele>
        <time>2009-07-25T11:33:53Z</time>
      </trkpt>
      <trkpt lat="45.48858" lon="6.76817">
        <ele>2857.177002</ele>
        <time>2009-07-25T11:33:59Z</time>
      </trkpt>
      <trkpt lat="45.48859" lon="6.76819">
        <ele>2858.0935059</ele>
        <time>2009-07-25T11:34:05Z</time>
      </trkpt>
      <trkpt lat="45.48861" lon="6.76822">
        <ele>2859.6638184</ele>
        <time>2009-07-25T11:34:09Z</time>
      </trkpt>
      <trkpt lat="45.48861" lon="6.76824">
        <ele>2860.373291</ele>
        <time>2009-07-25T11:34:14Z</time>
      </trkpt>
      <trkpt lat="45.48858" lon="6.76827">
        <ele>2861.0065918</ele>
        <time>2009-07-25T11:34:20Z</time>
      </trkpt>
      <trkpt lat="45.48856" lon="6.76829">
        <ele>2861.7329102</ele>
        <time>2009-07-25T11:34:27Z</time>
      </trkpt>
      <trkpt lat="45.48858" lon="6.76831">
        <ele>2862.8022461</ele>
        <time>2009-07-25T11:34:33Z</time>
      </trkpt>
      <trkpt lat="45.48862" lon="6.76836">
        <ele>2865.2312012</ele>
        <time>2009-07-25T11:34:42Z</time>
      </trkpt>
      <trkpt lat="45.48866" lon="6.76838">
        <ele>2867.0393066</ele>
        <time>2009-07-25T11:34:50Z</time>
      </trkpt>
      <trkpt lat="45.48865" lon="6.7684">
        <ele>2867.3083496</ele>
        <time>2009-07-25T11:34:55Z</time>
      </trkpt>
      <trkpt lat="45.48863" lon="6.76843">
        <ele>2868.1125488</ele>
        <time>2009-07-25T11:35:01Z</time>
      </trkpt>
      <trkpt lat="45.48861" lon="6.76846">
        <ele>2868.5327148</ele>
        <time>2009-07-25T11:35:07Z</time>
      </trkpt>
      <trkpt lat="45.48861" lon="6.76848">
        <ele>2869.375</ele>
        <time>2009-07-25T11:35:15Z</time>
      </trkpt>
      <trkpt lat="45.48863" lon="6.76852">
        <ele>2871.1621094</ele>
        <time>2009-07-25T11:35:22Z</time>
      </trkpt>
      <trkpt lat="45.48865" lon="6.76854">
        <ele>2872.3413086</ele>
        <time>2009-07-25T11:35:28Z</time>
      </trkpt>
      <trkpt lat="45.48866" lon="6.76858">
        <ele>2873.8457031</ele>
        <time>2009-07-25T11:35:34Z</time>
      </trkpt>
      <trkpt lat="45.48864" lon="6.76861">
        <ele>2874.4448242</ele>
        <time>2009-07-25T11:35:41Z</time>
      </trkpt>
      <trkpt lat="45.48862" lon="6.76863">
        <ele>2875.0668945</ele>
        <time>2009-07-25T11:35:47Z</time>
      </trkpt>
      <trkpt lat="45.48864" lon="6.76867">
        <ele>2877.1679688</ele>
        <time>2009-07-25T11:35:54Z</time>
      </trkpt>
      <trkpt lat="45.48867" lon="6.76871">
        <ele>2879.4133301</ele>
        <time>2009-07-25T11:36:02Z</time>
      </trkpt>
      <trkpt lat="45.48867" lon="6.76874">
        <ele>2880.7727051</ele>
        <time>2009-07-25T11:36:08Z</time>
      </trkpt>
      <trkpt lat="45.48865" lon="6.76876">
        <ele>2881.2260742</ele>
        <time>2009-07-25T11:36:15Z</time>
      </trkpt>
      <trkpt lat="45.4886" lon="6.76877">
        <ele>2880.9694824</ele>
        <time>2009-07-25T11:36:24Z</time>
      </trkpt>
      <trkpt lat="45.48858" lon="6.76879">
        <ele>2881.5185547</ele>
        <time>2009-07-25T11:36:29Z</time>
      </trkpt>
      <trkpt lat="45.48858" lon="6.76882">
        <ele>2882.9157715</ele>
        <time>2009-07-25T11:36:36Z</time>
      </trkpt>
      <trkpt lat="45.48861" lon="6.76886">
        <ele>2884.6000977</ele>
        <time>2009-07-25T11:36:43Z</time>
      </trkpt>
      <trkpt lat="45.48865" lon="6.76889">
        <ele>2886.9960938</ele>
        <time>2009-07-25T11:36:51Z</time>
      </trkpt>
      <trkpt lat="45.48864" lon="6.76892">
        <ele>2888.119873</ele>
        <time>2009-07-25T11:36:57Z</time>
      </trkpt>
      <trkpt lat="45.48864" lon="6.76895">
        <ele>2889.0310059</ele>
        <time>2009-07-25T11:37:03Z</time>
      </trkpt>
      <trkpt lat="45.48861" lon="6.76896">
        <ele>2889.1379395</ele>
        <time>2009-07-25T11:37:09Z</time>
      </trkpt>
      <trkpt lat="45.48859" lon="6.76898">
        <ele>2889.9990234</ele>
        <time>2009-07-25T11:37:15Z</time>
      </trkpt>
      <trkpt lat="45.48858" lon="6.76902">
        <ele>2891.5515137</ele>
        <time>2009-07-25T11:37:24Z</time>
      </trkpt>
      <trkpt lat="45.48859" lon="6.76904">
        <ele>2892.7807617</ele>
        <time>2009-07-25T11:37:30Z</time>
      </trkpt>
      <trkpt lat="45.48861" lon="6.76908">
        <ele>2894.0842285</ele>
        <time>2009-07-25T11:37:37Z</time>
      </trkpt>
      <trkpt lat="45.4886" lon="6.7691">
        <ele>2895.130127</ele>
        <time>2009-07-25T11:37:42Z</time>
      </trkpt>
      <trkpt lat="45.48858" lon="6.76912">
        <ele>2896.2099609</ele>
        <time>2009-07-25T11:37:50Z</time>
      </trkpt>
      <trkpt lat="45.48856" lon="6.76914">
        <ele>2897.0463867</ele>
        <time>2009-07-25T11:37:58Z</time>
      </trkpt>
      <trkpt lat="45.48853" lon="6.76916">
        <ele>2898.3327637</ele>
        <time>2009-07-25T11:38:07Z</time>
      </trkpt>
      <trkpt lat="45.4885" lon="6.76919">
        <ele>2899.8664551</ele>
        <time>2009-07-25T11:38:16Z</time>
      </trkpt>
      <trkpt lat="45.4885" lon="6.76922">
        <ele>2901.4929199</ele>
        <time>2009-07-25T11:38:23Z</time>
      </trkpt>
      <trkpt lat="45.48852" lon="6.76927">
        <ele>2903.9899902</ele>
        <time>2009-07-25T11:38:31Z</time>
      </trkpt>
      <trkpt lat="45.48854" lon="6.76931">
        <ele>2905.3891602</ele>
        <time>2009-07-25T11:38:39Z</time>
      </trkpt>
      <trkpt lat="45.48854" lon="6.76934">
        <ele>2906.8930664</ele>
        <time>2009-07-25T11:38:45Z</time>
      </trkpt>
      <trkpt lat="45.48853" lon="6.76935">
        <ele>2907.8408203</ele>
        <time>2009-07-25T11:38:51Z</time>
      </trkpt>
      <trkpt lat="45.4885" lon="6.76937">
        <ele>2908.6850586</ele>
        <time>2009-07-25T11:38:56Z</time>
      </trkpt>
      <trkpt lat="45.48848" lon="6.76937">
        <ele>2909.1594238</ele>
        <time>2009-07-25T11:39:02Z</time>
      </trkpt>
      <trkpt lat="45.48846" lon="6.76938">
        <ele>2910.0266113</ele>
        <time>2009-07-25T11:39:07Z</time>
      </trkpt>
      <trkpt lat="45.48843" lon="6.76938">
        <ele>2910.5395508</ele>
        <time>2009-07-25T11:39:14Z</time>
      </trkpt>
      <trkpt lat="45.48842" lon="6.7694">
        <ele>2911.2546387</ele>
        <time>2009-07-25T11:39:20Z</time>
      </trkpt>
      <trkpt lat="45.48843" lon="6.76945">
        <ele>2913.8789063</ele>
        <time>2009-07-25T11:39:28Z</time>
      </trkpt>
      <trkpt lat="45.48844" lon="6.76948">
        <ele>2915.6442871</ele>
        <time>2009-07-25T11:39:33Z</time>
      </trkpt>
      <trkpt lat="45.48847" lon="6.76952">
        <ele>2917.3505859</ele>
        <time>2009-07-25T11:39:40Z</time>
      </trkpt>
      <trkpt lat="45.48849" lon="6.76957">
        <ele>2919.1518555</ele>
        <time>2009-07-25T11:39:47Z</time>
      </trkpt>
      <trkpt lat="45.48848" lon="6.76959">
        <ele>2920.4367676</ele>
        <time>2009-07-25T11:39:52Z</time>
      </trkpt>
      <trkpt lat="45.48846" lon="6.76959">
        <ele>2921.1108398</ele>
        <time>2009-07-25T11:39:57Z</time>
      </trkpt>
      <trkpt lat="45.48844" lon="6.76959">
        <ele>2921.6662598</ele>
        <time>2009-07-25T11:40:02Z</time>
      </trkpt>
      <trkpt lat="45.48843" lon="6.76961">
        <ele>2923.1816406</ele>
        <time>2009-07-25T11:40:08Z</time>
      </trkpt>
      <trkpt lat="45.48843" lon="6.76965">
        <ele>2924.9152832</ele>
        <time>2009-07-25T11:40:14Z</time>
      </trkpt>
      <trkpt lat="45.48841" lon="6.76967">
        <ele>2926.8427734</ele>
        <time>2009-07-25T11:40:19Z</time>
      </trkpt>
      <trkpt lat="45.48837" lon="6.76968">
        <ele>2928.5080566</ele>
        <time>2009-07-25T11:40:26Z</time>
      </trkpt>
      <trkpt lat="45.48835" lon="6.7697">
        <ele>2930.0983887</ele>
        <time>2009-07-25T11:40:33Z</time>
      </trkpt>
      <trkpt lat="45.48837" lon="6.76974">
        <ele>2931.5400391</ele>
        <time>2009-07-25T11:40:39Z</time>
      </trkpt>
      <trkpt lat="45.48837" lon="6.76981">
        <ele>2932.9309082</ele>
        <time>2009-07-25T11:40:47Z</time>
      </trkpt>
      <trkpt lat="45.48836" lon="6.76987">
        <ele>2934.5705566</ele>
        <time>2009-07-25T11:40:55Z</time>
      </trkpt>
      <trkpt lat="45.48833" lon="6.76987">
        <ele>2935.2629395</ele>
        <time>2009-07-25T11:41:02Z</time>
      </trkpt>
      <trkpt lat="45.4883" lon="6.76988">
        <ele>2936.0595703</ele>
        <time>2009-07-25T11:41:07Z</time>
      </trkpt>
      <trkpt lat="45.48827" lon="6.76992">
        <ele>2937.5505371</ele>
        <time>2009-07-25T11:41:15Z</time>
      </trkpt>
      <trkpt lat="45.48824" lon="6.76994">
        <ele>2938.9348145</ele>
        <time>2009-07-25T11:41:23Z</time>
      </trkpt>
      <trkpt lat="45.48821" lon="6.76995">
        <ele>2940.0935059</ele>
        <time>2009-07-25T11:41:31Z</time>
      </trkpt>
      <trkpt lat="45.48821" lon="6.77">
        <ele>2941.0305176</ele>
        <time>2009-07-25T11:41:38Z</time>
      </trkpt>
      <trkpt lat="45.4882" lon="6.77003">
        <ele>2942.2080078</ele>
        <time>2009-07-25T11:41:42Z</time>
      </trkpt>
      <trkpt lat="45.48815" lon="6.77004">
        <ele>2943.6018066</ele>
        <time>2009-07-25T11:41:51Z</time>
      </trkpt>
      <trkpt lat="45.48816" lon="6.7701">
        <ele>2944.9716797</ele>
        <time>2009-07-25T11:42:00Z</time>
      </trkpt>
      <trkpt lat="45.48817" lon="6.77015">
        <ele>2946.0532227</ele>
        <time>2009-07-25T11:42:07Z</time>
      </trkpt>
      <trkpt lat="45.48815" lon="6.77018">
        <ele>2947.2788086</ele>
        <time>2009-07-25T11:42:14Z</time>
      </trkpt>
      <trkpt lat="45.48816" lon="6.77021">
        <ele>2947.7595215</ele>
        <time>2009-07-25T11:42:21Z</time>
      </trkpt>
      <trkpt lat="45.48816" lon="6.77026">
        <ele>2948.9489746</ele>
        <time>2009-07-25T11:42:28Z</time>
      </trkpt>
      <trkpt lat="45.48812" lon="6.7703">
        <ele>2950.6069336</ele>
        <time>2009-07-25T11:42:36Z</time>
      </trkpt>
      <trkpt lat="45.48809" lon="6.77033">
        <ele>2952.0332031</ele>
        <time>2009-07-25T11:42:45Z</time>
      </trkpt>
      <trkpt lat="45.48808" lon="6.77037">
        <ele>2953.0187988</ele>
        <time>2009-07-25T11:42:52Z</time>
      </trkpt>
      <trkpt lat="45.48812" lon="6.77042">
        <ele>2953.1882324</ele>
        <time>2009-07-25T11:43:00Z</time>
      </trkpt>
      <trkpt lat="45.48815" lon="6.77045">
        <ele>2953.2006836</ele>
        <time>2009-07-25T11:43:06Z</time>
      </trkpt>
      <trkpt lat="45.48816" lon="6.77049">
        <ele>2953.7919922</ele>
        <time>2009-07-25T11:43:12Z</time>
      </trkpt>
      <trkpt lat="45.48817" lon="6.77054">
        <ele>2954.5073242</ele>
        <time>2009-07-25T11:43:19Z</time>
      </trkpt>
      <trkpt lat="45.4882" lon="6.77057">
        <ele>2954.8415527</ele>
        <time>2009-07-25T11:43:26Z</time>
      </trkpt>
      <trkpt lat="45.48821" lon="6.77061">
        <ele>2956.0610352</ele>
        <time>2009-07-25T11:43:32Z</time>
      </trkpt>
      <trkpt lat="45.48819" lon="6.77063">
        <ele>2957.0878906</ele>
        <time>2009-07-25T11:43:39Z</time>
      </trkpt>
      <trkpt lat="45.48819" lon="6.77066">
        <ele>2958.1931152</ele>
        <time>2009-07-25T11:43:46Z</time>
      </trkpt>
      <trkpt lat="45.48819" lon="6.77069">
        <ele>2959.4724121</ele>
        <time>2009-07-25T11:43:54Z</time>
      </trkpt>
      <trkpt lat="45.48822" lon="6.77072">
        <ele>2959.9611816</ele>
        <time>2009-07-25T11:44:02Z</time>
      </trkpt>
      <trkpt lat="45.48824" lon="6.77074">
        <ele>2960.6223145</ele>
        <time>2009-07-25T11:44:08Z</time>
      </trkpt>
      <trkpt lat="45.48824" lon="6.77078">
        <ele>2962.2070313</ele>
        <time>2009-07-25T11:44:15Z</time>
      </trkpt>
      <trkpt lat="45.48824" lon="6.77084">
        <ele>2964.3327637</ele>
        <time>2009-07-25T11:44:24Z</time>
      </trkpt>
      <trkpt lat="45.48824" lon="6.77089">
        <ele>2965.894043</ele>
        <time>2009-07-25T11:44:33Z</time>
      </trkpt>
      <trkpt lat="45.48827" lon="6.77093">
        <ele>2966.8017578</ele>
        <time>2009-07-25T11:44:41Z</time>
      </trkpt>
      <trkpt lat="45.48829" lon="6.77097">
        <ele>2967.9123535</ele>
        <time>2009-07-25T11:44:48Z</time>
      </trkpt>
      <trkpt lat="45.48831" lon="6.77104">
        <ele>2969.7780762</ele>
        <time>2009-07-25T11:44:57Z</time>
      </trkpt>
      <trkpt lat="45.4883" lon="6.77111">
        <ele>2972.1706543</ele>
        <time>2009-07-25T11:45:05Z</time>
      </trkpt>
      <trkpt lat="45.48829" lon="6.77116">
        <ele>2973.4509277</ele>
        <time>2009-07-25T11:45:12Z</time>
      </trkpt>
      <trkpt lat="45.48829" lon="6.77121">
        <ele>2974.3984375</ele>
        <time>2009-07-25T11:45:18Z</time>
      </trkpt>
      <trkpt lat="45.48831" lon="6.77125">
        <ele>2975.25</ele>
        <time>2009-07-25T11:45:26Z</time>
      </trkpt>
      <trkpt lat="45.48835" lon="6.77128">
        <ele>2975.7133789</ele>
        <time>2009-07-25T11:45:35Z</time>
      </trkpt>
      <trkpt lat="45.48841" lon="6.7713">
        <ele>2976.2207031</ele>
        <time>2009-07-25T11:45:45Z</time>
      </trkpt>
      <trkpt lat="45.48844" lon="6.77131">
        <ele>2976.4228516</ele>
        <time>2009-07-25T11:45:53Z</time>
      </trkpt>
      <trkpt lat="45.48847" lon="6.77131">
        <ele>2976.4973145</ele>
        <time>2009-07-25T11:45:59Z</time>
      </trkpt>
      <trkpt lat="45.48851" lon="6.77131">
        <ele>2976.4924316</ele>
        <time>2009-07-25T11:46:08Z</time>
      </trkpt>
      <trkpt lat="45.48856" lon="6.77132">
        <ele>2976.6813965</ele>
        <time>2009-07-25T11:46:18Z</time>
      </trkpt>
      <trkpt lat="45.48861" lon="6.7713">
        <ele>2976.5317383</ele>
        <time>2009-07-25T11:46:27Z</time>
      </trkpt>
      <trkpt lat="45.48867" lon="6.7713">
        <ele>2979.5788574</ele>
        <time>2009-07-25T11:46:37Z</time>
      </trkpt>
      <trkpt lat="45.48873" lon="6.77125">
        <ele>2981.9306641</ele>
        <time>2009-07-25T11:46:46Z</time>
      </trkpt>
      <trkpt lat="45.4888" lon="6.7712">
        <ele>2984.8659668</ele>
        <time>2009-07-25T11:46:53Z</time>
      </trkpt>
      <trkpt lat="45.48885" lon="6.77118">
        <ele>2987.1491699</ele>
        <time>2009-07-25T11:46:58Z</time>
      </trkpt>
      <trkpt lat="45.48891" lon="6.77114">
        <ele>2988.9799805</ele>
        <time>2009-07-25T11:47:04Z</time>
      </trkpt>
      <trkpt lat="45.48901" lon="6.77106">
        <ele>2989.1774902</ele>
        <time>2009-07-25T11:47:12Z</time>
      </trkpt>
      <trkpt lat="45.48904" lon="6.77102">
        <ele>2989.2600098</ele>
        <time>2009-07-25T11:47:16Z</time>
      </trkpt>
      <trkpt lat="45.48909" lon="6.77101">
        <ele>2989.9064941</ele>
        <time>2009-07-25T11:47:20Z</time>
      </trkpt>
      <trkpt lat="45.48918" lon="6.77093">
        <ele>2990.4743652</ele>
        <time>2009-07-25T11:47:29Z</time>
      </trkpt>
      <trkpt lat="45.48924" lon="6.7709">
        <ele>2990.6789551</ele>
        <time>2009-07-25T11:47:36Z</time>
      </trkpt>
      <trkpt lat="45.48932" lon="6.77087">
        <ele>2991.0268555</ele>
        <time>2009-07-25T11:47:44Z</time>
      </trkpt>
      <trkpt lat="45.48941" lon="6.77086">
        <ele>2991.8967285</ele>
        <time>2009-07-25T11:47:54Z</time>
      </trkpt>
      <trkpt lat="45.48949" lon="6.77085">
        <ele>2992.3442383</ele>
        <time>2009-07-25T11:48:02Z</time>
      </trkpt>
      <trkpt lat="45.48951" lon="6.77085">
        <ele>2992.4301758</ele>
        <time>2009-07-25T11:48:09Z</time>
      </trkpt>
      <trkpt lat="45.48951" lon="6.77085">
        <ele>2992.4455566</ele>
        <time>2009-07-25T11:48:18Z</time>
      </trkpt>
      <trkpt lat="45.48954" lon="6.77086">
        <ele>2992.6154785</ele>
        <time>2009-07-25T11:48:26Z</time>
      </trkpt>
      <trkpt lat="45.48955" lon="6.77087">
        <ele>2992.7597656</ele>
        <time>2009-07-25T11:48:34Z</time>
      </trkpt>
      <trkpt lat="45.48956" lon="6.77087">
        <ele>2992.8525391</ele>
        <time>2009-07-25T11:48:41Z</time>
      </trkpt>
      <trkpt lat="45.48959" lon="6.77092">
        <ele>2993.465332</ele>
        <time>2009-07-25T11:48:47Z</time>
      </trkpt>
      <trkpt lat="45.48964" lon="6.77095">
        <ele>2993.9870605</ele>
        <time>2009-07-25T11:48:54Z</time>
      </trkpt>
      <trkpt lat="45.48966" lon="6.77098">
        <ele>2994.4042969</ele>
        <time>2009-07-25T11:49:00Z</time>
      </trkpt>
      <trkpt lat="45.48973" lon="6.77103">
        <ele>2995.0664063</ele>
        <time>2009-07-25T11:49:06Z</time>
      </trkpt>
      <trkpt lat="45.48981" lon="6.77111">
        <ele>2995.0200195</ele>
        <time>2009-07-25T11:49:13Z</time>
      </trkpt>
      <trkpt lat="45.48989" lon="6.77119">
        <ele>2994.7492676</ele>
        <time>2009-07-25T11:49:21Z</time>
      </trkpt>
      <trkpt lat="45.48999" lon="6.77126">
        <ele>2994.220459</ele>
        <time>2009-07-25T11:49:28Z</time>
      </trkpt>
      <trkpt lat="45.49007" lon="6.77132">
        <ele>2994.4672852</ele>
        <time>2009-07-25T11:49:35Z</time>
      </trkpt>
      <trkpt lat="45.49012" lon="6.77138">
        <ele>2994.9384766</ele>
        <time>2009-07-25T11:49:40Z</time>
      </trkpt>
      <trkpt lat="45.49015" lon="6.77143">
        <ele>2995.5324707</ele>
        <time>2009-07-25T11:49:44Z</time>
      </trkpt>
      <trkpt lat="45.49024" lon="6.77152">
        <ele>2996.888916</ele>
        <time>2009-07-25T11:49:53Z</time>
      </trkpt>
      <trkpt lat="45.49033" lon="6.77155">
        <ele>2997.2609863</ele>
        <time>2009-07-25T11:50:00Z</time>
      </trkpt>
      <trkpt lat="45.4904" lon="6.77161">
        <ele>2998.3017578</ele>
        <time>2009-07-25T11:50:06Z</time>
      </trkpt>
      <trkpt lat="45.49046" lon="6.77173">
        <ele>3001.0891113</ele>
        <time>2009-07-25T11:50:14Z</time>
      </trkpt>
      <trkpt lat="45.49051" lon="6.77182">
        <ele>3003.4272461</ele>
        <time>2009-07-25T11:50:22Z</time>
      </trkpt>
      <trkpt lat="45.49054" lon="6.77187">
        <ele>3005.0549316</ele>
        <time>2009-07-25T11:50:28Z</time>
      </trkpt>
      <trkpt lat="45.49061" lon="6.77196">
        <ele>3007.7055664</ele>
        <time>2009-07-25T11:50:35Z</time>
      </trkpt>
      <trkpt lat="45.4907" lon="6.77206">
        <ele>3010.984375</ele>
        <time>2009-07-25T11:50:43Z</time>
      </trkpt>
      <trkpt lat="45.49076" lon="6.77216">
        <ele>3013.8476563</ele>
        <time>2009-07-25T11:50:50Z</time>
      </trkpt>
      <trkpt lat="45.49081" lon="6.77223">
        <ele>3016.1462402</ele>
        <time>2009-07-25T11:50:56Z</time>
      </trkpt>
      <trkpt lat="45.4909" lon="6.77232">
        <ele>3018.097168</ele>
        <time>2009-07-25T11:51:05Z</time>
      </trkpt>
      <trkpt lat="45.49094" lon="6.77237">
        <ele>3019.0864258</ele>
        <time>2009-07-25T11:51:11Z</time>
      </trkpt>
      <trkpt lat="45.49099" lon="6.77241">
        <ele>3019.6872559</ele>
        <time>2009-07-25T11:51:17Z</time>
      </trkpt>
      <trkpt lat="45.49103" lon="6.77247">
        <ele>3020.8974609</ele>
        <time>2009-07-25T11:51:24Z</time>
      </trkpt>
      <trkpt lat="45.49108" lon="6.77251">
        <ele>3021.3757324</ele>
        <time>2009-07-25T11:51:30Z</time>
      </trkpt>
      <trkpt lat="45.49113" lon="6.77255">
        <ele>3022.2026367</ele>
        <time>2009-07-25T11:51:36Z</time>
      </trkpt>
      <trkpt lat="45.49123" lon="6.7726">
        <ele>3022.9606934</ele>
        <time>2009-07-25T11:51:46Z</time>
      </trkpt>
      <trkpt lat="45.49127" lon="6.77266">
        <ele>3024.026123</ele>
        <time>2009-07-25T11:51:52Z</time>
      </trkpt>
      <trkpt lat="45.49131" lon="6.77273">
        <ele>3025.5410156</ele>
        <time>2009-07-25T11:51:59Z</time>
      </trkpt>
      <trkpt lat="45.49134" lon="6.77279">
        <ele>3026.5898438</ele>
        <time>2009-07-25T11:52:05Z</time>
      </trkpt>
      <trkpt lat="45.49137" lon="6.77284">
        <ele>3027.472168</ele>
        <time>2009-07-25T11:52:11Z</time>
      </trkpt>
      <trkpt lat="45.4914" lon="6.7729">
        <ele>3028.6147461</ele>
        <time>2009-07-25T11:52:17Z</time>
      </trkpt>
      <trkpt lat="45.49143" lon="6.77296">
        <ele>3029.4455566</ele>
        <time>2009-07-25T11:52:23Z</time>
      </trkpt>
      <trkpt lat="45.49146" lon="6.77301">
        <ele>3030.2873535</ele>
        <time>2009-07-25T11:52:29Z</time>
      </trkpt>
      <trkpt lat="45.49147" lon="6.77307">
        <ele>3031.5529785</ele>
        <time>2009-07-25T11:52:35Z</time>
      </trkpt>
      <trkpt lat="45.49148" lon="6.77319">
        <ele>3033.9116211</ele>
        <time>2009-07-25T11:52:45Z</time>
      </trkpt>
      <trkpt lat="45.49149" lon="6.77325">
        <ele>3035.137207</ele>
        <time>2009-07-25T11:52:52Z</time>
      </trkpt>
      <trkpt lat="45.49151" lon="6.77329">
        <ele>3035.7346191</ele>
        <time>2009-07-25T11:53:00Z</time>
      </trkpt>
      <trkpt lat="45.49153" lon="6.77331">
        <ele>3036.0332031</ele>
        <time>2009-07-25T11:53:05Z</time>
      </trkpt>
      <trkpt lat="45.49155" lon="6.77334">
        <ele>3036.2907715</ele>
        <time>2009-07-25T11:53:11Z</time>
      </trkpt>
      <trkpt lat="45.49157" lon="6.77338">
        <ele>3036.9396973</ele>
        <time>2009-07-25T11:53:20Z</time>
      </trkpt>
      <trkpt lat="45.4916" lon="6.77344">
        <ele>3037.9902344</ele>
        <time>2009-07-25T11:53:27Z</time>
      </trkpt>
      <trkpt lat="45.49162" lon="6.77349">
        <ele>3038.8759766</ele>
        <time>2009-07-25T11:53:38Z</time>
      </trkpt>
      <trkpt lat="45.49164" lon="6.77351">
        <ele>3039.0612793</ele>
        <time>2009-07-25T11:53:46Z</time>
      </trkpt>
      <trkpt lat="45.49167" lon="6.77355">
        <ele>3039.6982422</ele>
        <time>2009-07-25T11:53:54Z</time>
      </trkpt>
      <trkpt lat="45.4917" lon="6.7736">
        <ele>3040.8381348</ele>
        <time>2009-07-25T11:54:02Z</time>
      </trkpt>
      <trkpt lat="45.49172" lon="6.77362">
        <ele>3041.3251953</ele>
        <time>2009-07-25T11:54:09Z</time>
      </trkpt>
      <trkpt lat="45.49175" lon="6.77364">
        <ele>3041.9057617</ele>
        <time>2009-07-25T11:54:18Z</time>
      </trkpt>
      <trkpt lat="45.49177" lon="6.77366">
        <ele>3042.5480957</ele>
        <time>2009-07-25T11:54:23Z</time>
      </trkpt>
      <trkpt lat="45.49178" lon="6.77368">
        <ele>3043.0695801</ele>
        <time>2009-07-25T11:54:29Z</time>
      </trkpt>
      <trkpt lat="45.4918" lon="6.77369">
        <ele>3043.2543945</ele>
        <time>2009-07-25T11:54:36Z</time>
      </trkpt>
      <trkpt lat="45.49182" lon="6.7737">
        <ele>3043.6479492</ele>
        <time>2009-07-25T11:54:42Z</time>
      </trkpt>
      <trkpt lat="45.49185" lon="6.77372">
        <ele>3044.2341309</ele>
        <time>2009-07-25T11:54:50Z</time>
      </trkpt>
      <trkpt lat="45.49187" lon="6.77372">
        <ele>3044.1862793</ele>
        <time>2009-07-25T11:54:56Z</time>
      </trkpt>
      <trkpt lat="45.49189" lon="6.77371">
        <ele>3043.9938965</ele>
        <time>2009-07-25T11:55:02Z</time>
      </trkpt>
      <trkpt lat="45.4919" lon="6.77372">
        <ele>3044.3376465</ele>
        <time>2009-07-25T11:55:10Z</time>
      </trkpt>
      <trkpt lat="45.49194" lon="6.77373">
        <ele>3044.4709473</ele>
        <time>2009-07-25T11:55:16Z</time>
      </trkpt>
      <trkpt lat="45.49196" lon="6.77374">
        <ele>3045.2302246</ele>
        <time>2009-07-25T11:55:23Z</time>
      </trkpt>
      <trkpt lat="45.49197" lon="6.77375">
        <ele>3045.6804199</ele>
        <time>2009-07-25T11:55:28Z</time>
      </trkpt>
      <trkpt lat="45.492" lon="6.77376">
        <ele>3046.3125</ele>
        <time>2009-07-25T11:55:35Z</time>
      </trkpt>
      <trkpt lat="45.49202" lon="6.7737">
        <ele>3045.4143066</ele>
        <time>2009-07-25T11:55:42Z</time>
      </trkpt>
      <trkpt lat="45.49203" lon="6.7737">
        <ele>3045.7648926</ele>
        <time>2009-07-25T11:55:48Z</time>
      </trkpt>
      <trkpt lat="45.49206" lon="6.7737">
        <ele>3046.2233887</ele>
        <time>2009-07-25T11:55:55Z</time>
      </trkpt>
      <trkpt lat="45.49208" lon="6.7737">
        <ele>3046.6916504</ele>
        <time>2009-07-25T11:56:01Z</time>
      </trkpt>
      <trkpt lat="45.4921" lon="6.77368">
        <ele>3046.5732422</ele>
        <time>2009-07-25T11:56:07Z</time>
      </trkpt>
      <trkpt lat="45.49212" lon="6.77367">
        <ele>3046.7282715</ele>
        <time>2009-07-25T11:56:13Z</time>
      </trkpt>
      <trkpt lat="45.49215" lon="6.77368">
        <ele>3047.723877</ele>
        <time>2009-07-25T11:56:22Z</time>
      </trkpt>
      <trkpt lat="45.49217" lon="6.77369">
        <ele>3048.4223633</ele>
        <time>2009-07-25T11:56:27Z</time>
      </trkpt>
      <trkpt lat="45.49219" lon="6.77377">
        <ele>3050.1171875</ele>
        <time>2009-07-25T11:56:33Z</time>
      </trkpt>
      <trkpt lat="45.49219" lon="6.77384">
        <ele>3051.4816895</ele>
        <time>2009-07-25T11:56:38Z</time>
      </trkpt>
      <trkpt lat="45.49219" lon="6.77388">
        <ele>3052.2363281</ele>
        <time>2009-07-25T11:56:41Z</time>
      </trkpt>
      <trkpt lat="45.4922" lon="6.77397">
        <ele>3053.5463867</ele>
        <time>2009-07-25T11:56:48Z</time>
      </trkpt>
      <trkpt lat="45.4922" lon="6.77405">
        <ele>3054.4208984</ele>
        <time>2009-07-25T11:56:55Z</time>
      </trkpt>
      <trkpt lat="45.49221" lon="6.77411">
        <ele>3055.2727051</ele>
        <time>2009-07-25T11:57:02Z</time>
      </trkpt>
      <trkpt lat="45.49223" lon="6.77415">
        <ele>3055.9130859</ele>
        <time>2009-07-25T11:57:07Z</time>
      </trkpt>
      <trkpt lat="45.49229" lon="6.77416">
        <ele>3056.6936035</ele>
        <time>2009-07-25T11:57:14Z</time>
      </trkpt>
      <trkpt lat="45.49231" lon="6.77415">
        <ele>3056.8310547</ele>
        <time>2009-07-25T11:57:18Z</time>
      </trkpt>
      <trkpt lat="45.49234" lon="6.77408">
        <ele>3056.6186523</ele>
        <time>2009-07-25T11:57:26Z</time>
      </trkpt>
      <trkpt lat="45.49235" lon="6.77403">
        <ele>3056.3696289</ele>
        <time>2009-07-25T11:57:32Z</time>
      </trkpt>
      <trkpt lat="45.49235" lon="6.77393">
        <ele>3055.5410156</ele>
        <time>2009-07-25T11:57:41Z</time>
      </trkpt>
      <trkpt lat="45.49236" lon="6.77388">
        <ele>3055.2990723</ele>
        <time>2009-07-25T11:57:46Z</time>
      </trkpt>
      <trkpt lat="45.49236" lon="6.77383">
        <ele>3055.0456543</ele>
        <time>2009-07-25T11:57:51Z</time>
      </trkpt>
      <trkpt lat="45.49237" lon="6.77376">
        <ele>3054.8586426</ele>
        <time>2009-07-25T11:57:58Z</time>
      </trkpt>
      <trkpt lat="45.49237" lon="6.77369">
        <ele>3054.2692871</ele>
        <time>2009-07-25T11:58:04Z</time>
      </trkpt>
      <trkpt lat="45.49237" lon="6.77361">
        <ele>3053.8737793</ele>
        <time>2009-07-25T11:58:11Z</time>
      </trkpt>
      <trkpt lat="45.49237" lon="6.77352">
        <ele>3053.578125</ele>
        <time>2009-07-25T11:58:18Z</time>
      </trkpt>
      <trkpt lat="45.49236" lon="6.7734">
        <ele>3053.0183105</ele>
        <time>2009-07-25T11:58:27Z</time>
      </trkpt>
      <trkpt lat="45.49236" lon="6.77327">
        <ele>3052.9321289</ele>
        <time>2009-07-25T11:58:36Z</time>
      </trkpt>
      <trkpt lat="45.49241" lon="6.77318">
        <ele>3055.7570801</ele>
        <time>2009-07-25T11:58:45Z</time>
      </trkpt>
      <trkpt lat="45.49247" lon="6.77317">
        <ele>3058.7810059</ele>
        <time>2009-07-25T11:58:52Z</time>
      </trkpt>
      <trkpt lat="45.49253" lon="6.77317">
        <ele>3060.1655273</ele>
        <time>2009-07-25T11:58:58Z</time>
      </trkpt>
      <trkpt lat="45.49257" lon="6.77321">
        <ele>3060.7724609</ele>
        <time>2009-07-25T11:59:04Z</time>
      </trkpt>
      <trkpt lat="45.49263" lon="6.77323">
        <ele>3061.9477539</ele>
        <time>2009-07-25T11:59:10Z</time>
      </trkpt>
      <trkpt lat="45.49276" lon="6.77326">
        <ele>3064.6955566</ele>
        <time>2009-07-25T11:59:20Z</time>
      </trkpt>
      <trkpt lat="45.49281" lon="6.77326">
        <ele>3064.7429199</ele>
        <time>2009-07-25T11:59:27Z</time>
      </trkpt>
      <trkpt lat="45.49287" lon="6.77328">
        <ele>3064.5432129</ele>
        <time>2009-07-25T11:59:32Z</time>
      </trkpt>
      <trkpt lat="45.49298" lon="6.7733">
        <ele>3064.1674805</ele>
        <time>2009-07-25T11:59:42Z</time>
      </trkpt>
      <trkpt lat="45.49307" lon="6.77331">
        <ele>3063.5908203</ele>
        <time>2009-07-25T11:59:49Z</time>
      </trkpt>
      <trkpt lat="45.49318" lon="6.77332">
        <ele>3062.114502</ele>
        <time>2009-07-25T11:59:58Z</time>
      </trkpt>
      <trkpt lat="45.49331" lon="6.77335">
        <ele>3061.595459</ele>
        <time>2009-07-25T12:00:06Z</time>
      </trkpt>
      <trkpt lat="45.49342" lon="6.77334">
        <ele>3058.8173828</ele>
        <time>2009-07-25T12:00:12Z</time>
      </trkpt>
      <trkpt lat="45.49353" lon="6.77335">
        <ele>3056.6625977</ele>
        <time>2009-07-25T12:00:18Z</time>
      </trkpt>
      <trkpt lat="45.49361" lon="6.77334">
        <ele>3054.2104492</ele>
        <time>2009-07-25T12:00:22Z</time>
      </trkpt>
      <trkpt lat="45.49369" lon="6.77333">
        <ele>3053.1240234</ele>
        <time>2009-07-25T12:00:26Z</time>
      </trkpt>
      <trkpt lat="45.49376" lon="6.77332">
        <ele>3052.1503906</ele>
        <time>2009-07-25T12:00:30Z</time>
      </trkpt>
      <trkpt lat="45.4938" lon="6.77322">
        <ele>3046.7875977</ele>
        <time>2009-07-25T12:00:34Z</time>
      </trkpt>
      <trkpt lat="45.49389" lon="6.7732">
        <ele>3044.5791016</ele>
        <time>2009-07-25T12:00:38Z</time>
      </trkpt>
      <trkpt lat="45.49405" lon="6.7731">
        <ele>3042.0605469</ele>
        <time>2009-07-25T12:00:47Z</time>
      </trkpt>
      <trkpt lat="45.49417" lon="6.77306">
        <ele>3041.1467285</ele>
        <time>2009-07-25T12:00:53Z</time>
      </trkpt>
      <trkpt lat="45.49429" lon="6.77299">
        <ele>3039.4421387</ele>
        <time>2009-07-25T12:00:59Z</time>
      </trkpt>
      <trkpt lat="45.49442" lon="6.77289">
        <ele>3036.7629395</ele>
        <time>2009-07-25T12:01:06Z</time>
      </trkpt>
      <trkpt lat="45.49443" lon="6.77287">
        <ele>3036.3259277</ele>
        <time>2009-07-25T12:01:07Z</time>
      </trkpt>
      <trkpt lat="45.49459" lon="6.7728">
        <ele>3035.4665527</ele>
        <time>2009-07-25T12:01:15Z</time>
      </trkpt>
      <trkpt lat="45.49475" lon="6.77273">
        <ele>3034.1433105</ele>
        <time>2009-07-25T12:01:23Z</time>
      </trkpt>
      <trkpt lat="45.49485" lon="6.77267">
        <ele>3030.8588867</ele>
        <time>2009-07-25T12:01:29Z</time>
      </trkpt>
      <trkpt lat="45.495" lon="6.77259">
        <ele>3027.3920898</ele>
        <time>2009-07-25T12:01:37Z</time>
      </trkpt>
      <trkpt lat="45.49515" lon="6.77251">
        <ele>3025.4147949</ele>
        <time>2009-07-25T12:01:45Z</time>
      </trkpt>
      <trkpt lat="45.49524" lon="6.77243">
        <ele>3024.4550781</ele>
        <time>2009-07-25T12:01:50Z</time>
      </trkpt>
      <trkpt lat="45.49533" lon="6.77233">
        <ele>3022.1166992</ele>
        <time>2009-07-25T12:01:56Z</time>
      </trkpt>
      <trkpt lat="45.49541" lon="6.77224">
        <ele>3020.3029785</ele>
        <time>2009-07-25T12:02:01Z</time>
      </trkpt>
      <trkpt lat="45.49553" lon="6.7721">
        <ele>3017.2058105</ele>
        <time>2009-07-25T12:02:08Z</time>
      </trkpt>
      <trkpt lat="45.49564" lon="6.77197">
        <ele>3013.5375977</ele>
        <time>2009-07-25T12:02:15Z</time>
      </trkpt>
      <trkpt lat="45.49575" lon="6.77185">
        <ele>3010.5991211</ele>
        <time>2009-07-25T12:02:22Z</time>
      </trkpt>
      <trkpt lat="45.49585" lon="6.77176">
        <ele>3009.5571289</ele>
        <time>2009-07-25T12:02:29Z</time>
      </trkpt>
      <trkpt lat="45.49593" lon="6.77168">
        <ele>3010.6164551</ele>
        <time>2009-07-25T12:02:35Z</time>
      </trkpt>
      <trkpt lat="45.49603" lon="6.77162">
        <ele>3012.8132324</ele>
        <time>2009-07-25T12:02:43Z</time>
      </trkpt>
      <trkpt lat="45.49611" lon="6.77156">
        <ele>3014.1479492</ele>
        <time>2009-07-25T12:02:49Z</time>
      </trkpt>
      <trkpt lat="45.4962" lon="6.77149">
        <ele>3014.9367676</ele>
        <time>2009-07-25T12:02:56Z</time>
      </trkpt>
      <trkpt lat="45.49633" lon="6.77141">
        <ele>3017.9321289</ele>
        <time>2009-07-25T12:03:05Z</time>
      </trkpt>
      <trkpt lat="45.49642" lon="6.77136">
        <ele>3018.7751465</ele>
        <time>2009-07-25T12:03:11Z</time>
      </trkpt>
      <trkpt lat="45.49654" lon="6.77125">
        <ele>3015.7155762</ele>
        <time>2009-07-25T12:03:20Z</time>
      </trkpt>
      <trkpt lat="45.49664" lon="6.77115">
        <ele>3014.4013672</ele>
        <time>2009-07-25T12:03:27Z</time>
      </trkpt>
      <trkpt lat="45.49674" lon="6.77102">
        <ele>3013.3115234</ele>
        <time>2009-07-25T12:03:34Z</time>
      </trkpt>
      <trkpt lat="45.49684" lon="6.77088">
        <ele>3012.6311035</ele>
        <time>2009-07-25T12:03:41Z</time>
      </trkpt>
      <trkpt lat="45.49693" lon="6.77073">
        <ele>3012.0266113</ele>
        <time>2009-07-25T12:03:48Z</time>
      </trkpt>
      <trkpt lat="45.49699" lon="6.77057">
        <ele>3010.4633789</ele>
        <time>2009-07-25T12:03:55Z</time>
      </trkpt>
      <trkpt lat="45.49704" lon="6.77041">
        <ele>3007.8874512</ele>
        <time>2009-07-25T12:04:02Z</time>
      </trkpt>
      <trkpt lat="45.49707" lon="6.77027">
        <ele>3005.8352051</ele>
        <time>2009-07-25T12:04:07Z</time>
      </trkpt>
      <trkpt lat="45.49708" lon="6.77007">
        <ele>3001.9831543</ele>
        <time>2009-07-25T12:04:14Z</time>
      </trkpt>
      <trkpt lat="45.49705" lon="6.76989">
        <ele>2996.6757813</ele>
        <time>2009-07-25T12:04:20Z</time>
      </trkpt>
      <trkpt lat="45.49697" lon="6.76977">
        <ele>2990.5620117</ele>
        <time>2009-07-25T12:04:25Z</time>
      </trkpt>
      <trkpt lat="45.49685" lon="6.76973">
        <ele>2981.2763672</ele>
        <time>2009-07-25T12:04:31Z</time>
      </trkpt>
      <trkpt lat="45.49677" lon="6.7698">
        <ele>2976.7995605</ele>
        <time>2009-07-25T12:04:36Z</time>
      </trkpt>
      <trkpt lat="45.4967" lon="6.76992">
        <ele>2974.8220215</ele>
        <time>2009-07-25T12:04:41Z</time>
      </trkpt>
      <trkpt lat="45.49663" lon="6.77007">
        <ele>2974.5969238</ele>
        <time>2009-07-25T12:04:47Z</time>
      </trkpt>
      <trkpt lat="45.49652" lon="6.77021">
        <ele>2972.7529297</ele>
        <time>2009-07-25T12:04:54Z</time>
      </trkpt>
      <trkpt lat="45.49644" lon="6.7703">
        <ele>2971.6281738</ele>
        <time>2009-07-25T12:04:59Z</time>
      </trkpt>
      <trkpt lat="45.49633" lon="6.77038">
        <ele>2970.651123</ele>
        <time>2009-07-25T12:05:05Z</time>
      </trkpt>
      <trkpt lat="45.4962" lon="6.77046">
        <ele>2969.1838379</ele>
        <time>2009-07-25T12:05:12Z</time>
      </trkpt>
      <trkpt lat="45.49607" lon="6.77051">
        <ele>2967.2106934</ele>
        <time>2009-07-25T12:05:18Z</time>
      </trkpt>
      <trkpt lat="45.49596" lon="6.77054">
        <ele>2965.9465332</ele>
        <time>2009-07-25T12:05:23Z</time>
      </trkpt>
      <trkpt lat="45.49584" lon="6.77057">
        <ele>2964.6308594</ele>
        <time>2009-07-25T12:05:30Z</time>
      </trkpt>
      <trkpt lat="45.49569" lon="6.77059">
        <ele>2960.5185547</ele>
        <time>2009-07-25T12:05:37Z</time>
      </trkpt>
      <trkpt lat="45.49558" lon="6.77061">
        <ele>2958.175293</ele>
        <time>2009-07-25T12:05:42Z</time>
      </trkpt>
      <trkpt lat="45.49546" lon="6.77067">
        <ele>2957.932373</ele>
        <time>2009-07-25T12:05:48Z</time>
      </trkpt>
      <trkpt lat="45.49532" lon="6.77072">
        <ele>2957.7539063</ele>
        <time>2009-07-25T12:05:55Z</time>
      </trkpt>
      <trkpt lat="45.49516" lon="6.77076">
        <ele>2956.0522461</ele>
        <time>2009-07-25T12:06:03Z</time>
      </trkpt>
      <trkpt lat="45.49503" lon="6.77078">
        <ele>2954.4592285</ele>
        <time>2009-07-25T12:06:09Z</time>
      </trkpt>
      <trkpt lat="45.49491" lon="6.77079">
        <ele>2952.2678223</ele>
        <time>2009-07-25T12:06:15Z</time>
      </trkpt>
      <trkpt lat="45.49479" lon="6.77082">
        <ele>2950.7880859</ele>
        <time>2009-07-25T12:06:21Z</time>
      </trkpt>
      <trkpt lat="45.49467" lon="6.77084">
        <ele>2948.4328613</ele>
        <time>2009-07-25T12:06:27Z</time>
      </trkpt>
      <trkpt lat="45.49455" lon="6.77089">
        <ele>2946.3591309</ele>
        <time>2009-07-25T12:06:33Z</time>
      </trkpt>
      <trkpt lat="45.49446" lon="6.77095">
        <ele>2945.3085938</ele>
        <time>2009-07-25T12:06:38Z</time>
      </trkpt>
      <trkpt lat="45.49436" lon="6.771">
        <ele>2943.3835449</ele>
        <time>2009-07-25T12:06:43Z</time>
      </trkpt>
      <trkpt lat="45.49422" lon="6.77107">
        <ele>2940.4846191</ele>
        <time>2009-07-25T12:06:51Z</time>
      </trkpt>
      <trkpt lat="45.4941" lon="6.77113">
        <ele>2938.0915527</ele>
        <time>2009-07-25T12:06:57Z</time>
      </trkpt>
      <trkpt lat="45.49396" lon="6.77123">
        <ele>2935.7875977</ele>
        <time>2009-07-25T12:07:05Z</time>
      </trkpt>
      <trkpt lat="45.49387" lon="6.7713">
        <ele>2935.0314941</ele>
        <time>2009-07-25T12:07:10Z</time>
      </trkpt>
      <trkpt lat="45.49377" lon="6.77138">
        <ele>2936.2229004</ele>
        <time>2009-07-25T12:07:16Z</time>
      </trkpt>
      <trkpt lat="45.49366" lon="6.77144">
        <ele>2936.1130371</ele>
        <time>2009-07-25T12:07:22Z</time>
      </trkpt>
      <trkpt lat="45.49355" lon="6.77147">
        <ele>2937.6027832</ele>
        <time>2009-07-25T12:07:28Z</time>
      </trkpt>
      <trkpt lat="45.49343" lon="6.77143">
        <ele>2939.1230469</ele>
        <time>2009-07-25T12:07:34Z</time>
      </trkpt>
      <trkpt lat="45.49342" lon="6.77143">
        <ele>2939.1999512</ele>
        <time>2009-07-25T12:07:35Z</time>
      </trkpt>
      <trkpt lat="45.49332" lon="6.77141">
        <ele>2941.3977051</ele>
        <time>2009-07-25T12:07:41Z</time>
      </trkpt>
      <trkpt lat="45.49323" lon="6.77136">
        <ele>2942.7578125</ele>
        <time>2009-07-25T12:07:46Z</time>
      </trkpt>
      <trkpt lat="45.4932" lon="6.77132">
        <ele>2942.6906738</ele>
        <time>2009-07-25T12:07:48Z</time>
      </trkpt>
      <trkpt lat="45.49311" lon="6.77121">
        <ele>2943</ele>
        <time>2009-07-25T12:07:55Z</time>
      </trkpt>
      <trkpt lat="45.49303" lon="6.77109">
        <ele>2943.90625</ele>
        <time>2009-07-25T12:08:01Z</time>
      </trkpt>
      <trkpt lat="45.49302" lon="6.77105">
        <ele>2943.8564453</ele>
        <time>2009-07-25T12:08:03Z</time>
      </trkpt>
      <trkpt lat="45.49304" lon="6.77101">
        <ele>2941.5546875</ele>
        <time>2009-07-25T12:08:06Z</time>
      </trkpt>
      <trkpt lat="45.49308" lon="6.77101">
        <ele>2939.0905762</ele>
        <time>2009-07-25T12:08:10Z</time>
      </trkpt>
      <trkpt lat="45.49312" lon="6.77101">
        <ele>2937.1489258</ele>
        <time>2009-07-25T12:08:15Z</time>
      </trkpt>
      <trkpt lat="45.49315" lon="6.77102">
        <ele>2936.104248</ele>
        <time>2009-07-25T12:08:20Z</time>
      </trkpt>
      <trkpt lat="45.49316" lon="6.77099">
        <ele>2934.6101074</ele>
        <time>2009-07-25T12:08:23Z</time>
      </trkpt>
      <trkpt lat="45.49318" lon="6.77096">
        <ele>2932.3666992</ele>
        <time>2009-07-25T12:08:26Z</time>
      </trkpt>
      <trkpt lat="45.49329" lon="6.77097">
        <ele>2927.2331543</ele>
        <time>2009-07-25T12:08:33Z</time>
      </trkpt>
      <trkpt lat="45.49332" lon="6.77099">
        <ele>2926.0686035</ele>
        <time>2009-07-25T12:08:38Z</time>
      </trkpt>
      <trkpt lat="45.49332" lon="6.77096">
        <ele>2925.5515137</ele>
        <time>2009-07-25T12:08:45Z</time>
      </trkpt>
      <trkpt lat="45.49333" lon="6.77094">
        <ele>2923.7385254</ele>
        <time>2009-07-25T12:08:51Z</time>
      </trkpt>
      <trkpt lat="45.49334" lon="6.77089">
        <ele>2921.9291992</ele>
        <time>2009-07-25T12:08:57Z</time>
      </trkpt>
      <trkpt lat="45.49336" lon="6.77088">
        <ele>2921.0986328</ele>
        <time>2009-07-25T12:09:04Z</time>
      </trkpt>
      <trkpt lat="45.49337" lon="6.77085">
        <ele>2919.939209</ele>
        <time>2009-07-25T12:09:09Z</time>
      </trkpt>
      <trkpt lat="45.49338" lon="6.77082">
        <ele>2918.628418</ele>
        <time>2009-07-25T12:09:14Z</time>
      </trkpt>
      <trkpt lat="45.49338" lon="6.77079">
        <ele>2917.708252</ele>
        <time>2009-07-25T12:09:19Z</time>
      </trkpt>
      <trkpt lat="45.4934" lon="6.77077">
        <ele>2916.7177734</ele>
        <time>2009-07-25T12:09:25Z</time>
      </trkpt>
      <trkpt lat="45.4934" lon="6.77074">
        <ele>2915.8215332</ele>
        <time>2009-07-25T12:09:31Z</time>
      </trkpt>
      <trkpt lat="45.4934" lon="6.77071">
        <ele>2914.8310547</ele>
        <time>2009-07-25T12:09:36Z</time>
      </trkpt>
      <trkpt lat="45.4934" lon="6.77068">
        <ele>2913.7497559</ele>
        <time>2009-07-25T12:09:43Z</time>
      </trkpt>
      <trkpt lat="45.49342" lon="6.77067">
        <ele>2913.2141113</ele>
        <time>2009-07-25T12:09:49Z</time>
      </trkpt>
      <trkpt lat="45.49342" lon="6.77064">
        <ele>2912.2185059</ele>
        <time>2009-07-25T12:09:55Z</time>
      </trkpt>
      <trkpt lat="45.49343" lon="6.77061">
        <ele>2911.1611328</ele>
        <time>2009-07-25T12:10:00Z</time>
      </trkpt>
      <trkpt lat="45.49342" lon="6.77058">
        <ele>2910.1174316</ele>
        <time>2009-07-25T12:10:05Z</time>
      </trkpt>
      <trkpt lat="45.49344" lon="6.77055">
        <ele>2908.7915039</ele>
        <time>2009-07-25T12:10:11Z</time>
      </trkpt>
      <trkpt lat="45.49347" lon="6.77048">
        <ele>2906.730957</ele>
        <time>2009-07-25T12:10:21Z</time>
      </trkpt>
      <trkpt lat="45.49347" lon="6.77042">
        <ele>2905.2128906</ele>
        <time>2009-07-25T12:10:27Z</time>
      </trkpt>
      <trkpt lat="45.4935" lon="6.77037">
        <ele>2903.5283203</ele>
        <time>2009-07-25T12:10:33Z</time>
      </trkpt>
      <trkpt lat="45.49352" lon="6.7703">
        <ele>2901.6174316</ele>
        <time>2009-07-25T12:10:40Z</time>
      </trkpt>
      <trkpt lat="45.49351" lon="6.7702">
        <ele>2899.3469238</ele>
        <time>2009-07-25T12:10:46Z</time>
      </trkpt>
      <trkpt lat="45.49352" lon="6.77016">
        <ele>2898.2207031</ele>
        <time>2009-07-25T12:10:52Z</time>
      </trkpt>
      <trkpt lat="45.49352" lon="6.77009">
        <ele>2896.3239746</ele>
        <time>2009-07-25T12:10:59Z</time>
      </trkpt>
      <trkpt lat="45.49352" lon="6.77003">
        <ele>2894.7636719</ele>
        <time>2009-07-25T12:11:05Z</time>
      </trkpt>
      <trkpt lat="45.49353" lon="6.76998">
        <ele>2893.3952637</ele>
        <time>2009-07-25T12:11:12Z</time>
      </trkpt>
      <trkpt lat="45.4935" lon="6.76991">
        <ele>2892.1733398</ele>
        <time>2009-07-25T12:11:19Z</time>
      </trkpt>
      <trkpt lat="45.4935" lon="6.76984">
        <ele>2890.6494141</ele>
        <time>2009-07-25T12:11:25Z</time>
      </trkpt>
      <trkpt lat="45.49347" lon="6.76976">
        <ele>2889.5463867</ele>
        <time>2009-07-25T12:11:32Z</time>
      </trkpt>
      <trkpt lat="45.49346" lon="6.76973">
        <ele>2888.8439941</ele>
        <time>2009-07-25T12:11:34Z</time>
      </trkpt>
      <trkpt lat="45.49345" lon="6.76961">
        <ele>2886.3095703</ele>
        <time>2009-07-25T12:11:40Z</time>
      </trkpt>
      <trkpt lat="45.49344" lon="6.76954">
        <ele>2884.9243164</ele>
        <time>2009-07-25T12:11:44Z</time>
      </trkpt>
      <trkpt lat="45.49344" lon="6.76949">
        <ele>2883.7753906</ele>
        <time>2009-07-25T12:11:49Z</time>
      </trkpt>
      <trkpt lat="45.49342" lon="6.76941">
        <ele>2882.1254883</ele>
        <time>2009-07-25T12:11:55Z</time>
      </trkpt>
      <trkpt lat="45.49341" lon="6.76935">
        <ele>2881.0986328</ele>
        <time>2009-07-25T12:11:58Z</time>
      </trkpt>
      <trkpt lat="45.49342" lon="6.76929">
        <ele>2879.4731445</ele>
        <time>2009-07-25T12:12:02Z</time>
      </trkpt>
      <trkpt lat="45.49343" lon="6.76915">
        <ele>2875.9230957</ele>
        <time>2009-07-25T12:12:11Z</time>
      </trkpt>
      <trkpt lat="45.49343" lon="6.76911">
        <ele>2875.1689453</ele>
        <time>2009-07-25T12:12:13Z</time>
      </trkpt>
      <trkpt lat="45.49343" lon="6.76906">
        <ele>2874.0429688</ele>
        <time>2009-07-25T12:12:16Z</time>
      </trkpt>
      <trkpt lat="45.49343" lon="6.76896">
        <ele>2871.8879395</ele>
        <time>2009-07-25T12:12:22Z</time>
      </trkpt>
      <trkpt lat="45.49345" lon="6.7688">
        <ele>2868.2685547</ele>
        <time>2009-07-25T12:12:31Z</time>
      </trkpt>
      <trkpt lat="45.49345" lon="6.7687">
        <ele>2866.0129395</ele>
        <time>2009-07-25T12:12:36Z</time>
      </trkpt>
      <trkpt lat="45.49344" lon="6.76866">
        <ele>2865.4121094</ele>
        <time>2009-07-25T12:12:38Z</time>
      </trkpt>
      <trkpt lat="45.49347" lon="6.76857">
        <ele>2862.6923828</ele>
        <time>2009-07-25T12:12:44Z</time>
      </trkpt>
      <trkpt lat="45.49348" lon="6.76853">
        <ele>2861.7438965</ele>
        <time>2009-07-25T12:12:46Z</time>
      </trkpt>
      <trkpt lat="45.4935" lon="6.7684">
        <ele>2858.7817383</ele>
        <time>2009-07-25T12:12:53Z</time>
      </trkpt>
      <trkpt lat="45.4935" lon="6.76825">
        <ele>2855.8364258</ele>
        <time>2009-07-25T12:12:59Z</time>
      </trkpt>
      <trkpt lat="45.49351" lon="6.7681">
        <ele>2853.0280762</ele>
        <time>2009-07-25T12:13:06Z</time>
      </trkpt>
      <trkpt lat="45.49351" lon="6.76799">
        <ele>2850.9782715</ele>
        <time>2009-07-25T12:13:12Z</time>
      </trkpt>
      <trkpt lat="45.49353" lon="6.76789">
        <ele>2848.6467285</ele>
        <time>2009-07-25T12:13:19Z</time>
      </trkpt>
      <trkpt lat="45.49355" lon="6.76781">
        <ele>2846.7241211</ele>
        <time>2009-07-25T12:13:25Z</time>
      </trkpt>
      <trkpt lat="45.49355" lon="6.76771">
        <ele>2844.4489746</ele>
        <time>2009-07-25T12:13:30Z</time>
      </trkpt>
      <trkpt lat="45.49355" lon="6.76759">
        <ele>2841.8840332</ele>
        <time>2009-07-25T12:13:34Z</time>
      </trkpt>
      <trkpt lat="45.49354" lon="6.76747">
        <ele>2839.4736328</ele>
        <time>2009-07-25T12:13:39Z</time>
      </trkpt>
      <trkpt lat="45.49353" lon="6.76731">
        <ele>2837.9624023</ele>
        <time>2009-07-25T12:13:44Z</time>
      </trkpt>
      <trkpt lat="45.49352" lon="6.76713">
        <ele>2835.8879395</ele>
        <time>2009-07-25T12:13:51Z</time>
      </trkpt>
      <trkpt lat="45.49352" lon="6.76701">
        <ele>2834.4624023</ele>
        <time>2009-07-25T12:13:55Z</time>
      </trkpt>
      <trkpt lat="45.4935" lon="6.76687">
        <ele>2832.8339844</ele>
        <time>2009-07-25T12:14:00Z</time>
      </trkpt>
      <trkpt lat="45.49346" lon="6.76664">
        <ele>2830.0419922</ele>
        <time>2009-07-25T12:14:08Z</time>
      </trkpt>
      <trkpt lat="45.4934" lon="6.76648">
        <ele>2827.2058105</ele>
        <time>2009-07-25T12:14:14Z</time>
      </trkpt>
      <trkpt lat="45.49342" lon="6.76635">
        <ele>2825.2365723</ele>
        <time>2009-07-25T12:14:19Z</time>
      </trkpt>
      <trkpt lat="45.49343" lon="6.76632">
        <ele>2824.7709961</ele>
        <time>2009-07-25T12:14:20Z</time>
      </trkpt>
      <trkpt lat="45.4935" lon="6.76635">
        <ele>2826.1557617</ele>
        <time>2009-07-25T12:14:24Z</time>
      </trkpt>
      <trkpt lat="45.49365" lon="6.76646">
        <ele>2828.6989746</ele>
        <time>2009-07-25T12:14:32Z</time>
      </trkpt>
      <trkpt lat="45.4938" lon="6.76645">
        <ele>2824.0524902</ele>
        <time>2009-07-25T12:14:39Z</time>
      </trkpt>
      <trkpt lat="45.49389" lon="6.76643">
        <ele>2821.2214355</ele>
        <time>2009-07-25T12:14:43Z</time>
      </trkpt>
      <trkpt lat="45.4939" lon="6.76643">
        <ele>2821.0603027</ele>
        <time>2009-07-25T12:14:44Z</time>
      </trkpt>
      <trkpt lat="45.49397" lon="6.76636">
        <ele>2819.4326172</ele>
        <time>2009-07-25T12:14:48Z</time>
      </trkpt>
      <trkpt lat="45.494" lon="6.7663">
        <ele>2817.9997559</ele>
        <time>2009-07-25T12:14:51Z</time>
      </trkpt>
      <trkpt lat="45.4941" lon="6.76614">
        <ele>2814.7438965</ele>
        <time>2009-07-25T12:14:58Z</time>
      </trkpt>
      <trkpt lat="45.49419" lon="6.76604">
        <ele>2813.7775879</ele>
        <time>2009-07-25T12:15:03Z</time>
      </trkpt>
      <trkpt lat="45.49429" lon="6.76598">
        <ele>2813.4274902</ele>
        <time>2009-07-25T12:15:08Z</time>
      </trkpt>
      <trkpt lat="45.49435" lon="6.76596">
        <ele>2813.1943359</ele>
        <time>2009-07-25T12:15:12Z</time>
      </trkpt>
      <trkpt lat="45.49442" lon="6.76592">
        <ele>2812.6479492</ele>
        <time>2009-07-25T12:15:16Z</time>
      </trkpt>
      <trkpt lat="45.49458" lon="6.76581">
        <ele>2809.7387695</ele>
        <time>2009-07-25T12:15:24Z</time>
      </trkpt>
      <trkpt lat="45.49463" lon="6.76573">
        <ele>2809.0698242</ele>
        <time>2009-07-25T12:15:28Z</time>
      </trkpt>
      <trkpt lat="45.49459" lon="6.76553">
        <ele>2807.0097656</ele>
        <time>2009-07-25T12:15:35Z</time>
      </trkpt>
      <trkpt lat="45.49448" lon="6.76537">
        <ele>2804.4348145</ele>
        <time>2009-07-25T12:15:42Z</time>
      </trkpt>
      <trkpt lat="45.49435" lon="6.76524">
        <ele>2801.4758301</ele>
        <time>2009-07-25T12:15:49Z</time>
      </trkpt>
      <trkpt lat="45.49425" lon="6.76513">
        <ele>2799.6818848</ele>
        <time>2009-07-25T12:15:55Z</time>
      </trkpt>
      <trkpt lat="45.49415" lon="6.76503">
        <ele>2797.6416016</ele>
        <time>2009-07-25T12:16:01Z</time>
      </trkpt>
      <trkpt lat="45.49408" lon="6.76494">
        <ele>2795.3210449</ele>
        <time>2009-07-25T12:16:06Z</time>
      </trkpt>
      <trkpt lat="45.49406" lon="6.76493">
        <ele>2794.8881836</ele>
        <time>2009-07-25T12:16:07Z</time>
      </trkpt>
      <trkpt lat="45.49395" lon="6.76501">
        <ele>2792.565918</ele>
        <time>2009-07-25T12:16:13Z</time>
      </trkpt>
      <trkpt lat="45.49389" lon="6.76521">
        <ele>2792.5878906</ele>
        <time>2009-07-25T12:16:20Z</time>
      </trkpt>
      <trkpt lat="45.49378" lon="6.7653">
        <ele>2791.8183594</ele>
        <time>2009-07-25T12:16:26Z</time>
      </trkpt>
      <trkpt lat="45.49364" lon="6.76532">
        <ele>2790.3710938</ele>
        <time>2009-07-25T12:16:33Z</time>
      </trkpt>
      <trkpt lat="45.49353" lon="6.76533">
        <ele>2789.1501465</ele>
        <time>2009-07-25T12:16:39Z</time>
      </trkpt>
      <trkpt lat="45.49343" lon="6.76534">
        <ele>2788.1691895</ele>
        <time>2009-07-25T12:16:44Z</time>
      </trkpt>
      <trkpt lat="45.49331" lon="6.76537">
        <ele>2787.4460449</ele>
        <time>2009-07-25T12:16:50Z</time>
      </trkpt>
      <trkpt lat="45.49315" lon="6.76535">
        <ele>2786.6584473</ele>
        <time>2009-07-25T12:16:57Z</time>
      </trkpt>
      <trkpt lat="45.49302" lon="6.76533">
        <ele>2785.5129395</ele>
        <time>2009-07-25T12:17:03Z</time>
      </trkpt>
      <trkpt lat="45.4929" lon="6.76527">
        <ele>2783.3190918</ele>
        <time>2009-07-25T12:17:09Z</time>
      </trkpt>
      <trkpt lat="45.4928" lon="6.76523">
        <ele>2781.9094238</ele>
        <time>2009-07-25T12:17:14Z</time>
      </trkpt>
      <trkpt lat="45.49267" lon="6.76517">
        <ele>2781.0253906</ele>
        <time>2009-07-25T12:17:20Z</time>
      </trkpt>
      <trkpt lat="45.49263" lon="6.76514">
        <ele>2780.4375</ele>
        <time>2009-07-25T12:17:22Z</time>
      </trkpt>
      <trkpt lat="45.49249" lon="6.76508">
        <ele>2778.8571777</ele>
        <time>2009-07-25T12:17:29Z</time>
      </trkpt>
      <trkpt lat="45.49237" lon="6.76501">
        <ele>2775.6230469</ele>
        <time>2009-07-25T12:17:35Z</time>
      </trkpt>
      <trkpt lat="45.49227" lon="6.76498">
        <ele>2773.6079102</ele>
        <time>2009-07-25T12:17:40Z</time>
      </trkpt>
      <trkpt lat="45.49214" lon="6.76492">
        <ele>2770.8505859</ele>
        <time>2009-07-25T12:17:47Z</time>
      </trkpt>
      <trkpt lat="45.49201" lon="6.76492">
        <ele>2770.1367188</ele>
        <time>2009-07-25T12:17:53Z</time>
      </trkpt>
      <trkpt lat="45.49196" lon="6.76492">
        <ele>2769.5327148</ele>
        <time>2009-07-25T12:17:55Z</time>
      </trkpt>
      <trkpt lat="45.49191" lon="6.76481">
        <ele>2764.8261719</ele>
        <time>2009-07-25T12:18:00Z</time>
      </trkpt>
      <trkpt lat="45.49198" lon="6.76474">
        <ele>2762.1235352</ele>
        <time>2009-07-25T12:18:04Z</time>
      </trkpt>
      <trkpt lat="45.49214" lon="6.76461">
        <ele>2761.1591797</ele>
        <time>2009-07-25T12:18:13Z</time>
      </trkpt>
      <trkpt lat="45.49229" lon="6.76448">
        <ele>2760.4047852</ele>
        <time>2009-07-25T12:18:21Z</time>
      </trkpt>
      <trkpt lat="45.49237" lon="6.76435">
        <ele>2758.6108398</ele>
        <time>2009-07-25T12:18:27Z</time>
      </trkpt>
      <trkpt lat="45.49238" lon="6.76432">
        <ele>2758.0129395</ele>
        <time>2009-07-25T12:18:28Z</time>
      </trkpt>
      <trkpt lat="45.49232" lon="6.76418">
        <ele>2754.6672363</ele>
        <time>2009-07-25T12:18:34Z</time>
      </trkpt>
      <trkpt lat="45.49223" lon="6.76415">
        <ele>2753.7089844</ele>
        <time>2009-07-25T12:18:39Z</time>
      </trkpt>
      <trkpt lat="45.49221" lon="6.76415">
        <ele>2753.3742676</ele>
        <time>2009-07-25T12:18:40Z</time>
      </trkpt>
      <trkpt lat="45.49219" lon="6.76408">
        <ele>2751.6223145</ele>
        <time>2009-07-25T12:18:45Z</time>
      </trkpt>
      <trkpt lat="45.49218" lon="6.76406">
        <ele>2751.1489258</ele>
        <time>2009-07-25T12:18:46Z</time>
      </trkpt>
      <trkpt lat="45.49218" lon="6.76396">
        <ele>2748.8527832</ele>
        <time>2009-07-25T12:18:52Z</time>
      </trkpt>
      <trkpt lat="45.49219" lon="6.76381">
        <ele>2746.2722168</ele>
        <time>2009-07-25T12:18:58Z</time>
      </trkpt>
      <trkpt lat="45.49217" lon="6.76369">
        <ele>2743.9428711</ele>
        <time>2009-07-25T12:19:03Z</time>
      </trkpt>
      <trkpt lat="45.49212" lon="6.76354">
        <ele>2741.0993652</ele>
        <time>2009-07-25T12:19:09Z</time>
      </trkpt>
      <trkpt lat="45.4921" lon="6.76339">
        <ele>2738.4121094</ele>
        <time>2009-07-25T12:19:15Z</time>
      </trkpt>
      <trkpt lat="45.49208" lon="6.76328">
        <ele>2736.4294434</ele>
        <time>2009-07-25T12:19:20Z</time>
      </trkpt>
      <trkpt lat="45.49207" lon="6.76321">
        <ele>2735.2226563</ele>
        <time>2009-07-25T12:19:23Z</time>
      </trkpt>
      <trkpt lat="45.49204" lon="6.76307">
        <ele>2732.5412598</ele>
        <time>2009-07-25T12:19:29Z</time>
      </trkpt>
      <trkpt lat="45.49198" lon="6.76295">
        <ele>2728.9145508</ele>
        <time>2009-07-25T12:19:35Z</time>
      </trkpt>
      <trkpt lat="45.49193" lon="6.76288">
        <ele>2725.7380371</ele>
        <time>2009-07-25T12:19:40Z</time>
      </trkpt>
      <trkpt lat="45.49195" lon="6.76279">
        <ele>2723.4448242</ele>
        <time>2009-07-25T12:19:45Z</time>
      </trkpt>
      <trkpt lat="45.49195" lon="6.76266">
        <ele>2718.5830078</ele>
        <time>2009-07-25T12:19:51Z</time>
      </trkpt>
      <trkpt lat="45.4919" lon="6.76257">
        <ele>2713.2834473</ele>
        <time>2009-07-25T12:19:56Z</time>
      </trkpt>
      <trkpt lat="45.49187" lon="6.76254">
        <ele>2711.3078613</ele>
        <time>2009-07-25T12:19:58Z</time>
      </trkpt>
      <trkpt lat="45.49179" lon="6.76243">
        <ele>2705.9138184</ele>
        <time>2009-07-25T12:20:05Z</time>
      </trkpt>
      <trkpt lat="45.49178" lon="6.76238">
        <ele>2704.5131836</ele>
        <time>2009-07-25T12:20:08Z</time>
      </trkpt>
      <trkpt lat="45.49182" lon="6.7623">
        <ele>2703.7451172</ele>
        <time>2009-07-25T12:20:14Z</time>
      </trkpt>
      <trkpt lat="45.49179" lon="6.76226">
        <ele>2701.8500977</ele>
        <time>2009-07-25T12:20:21Z</time>
      </trkpt>
      <trkpt lat="45.4918" lon="6.7622">
        <ele>2700.661377</ele>
        <time>2009-07-25T12:20:24Z</time>
      </trkpt>
      <trkpt lat="45.49178" lon="6.76217">
        <ele>2699.1621094</ele>
        <time>2009-07-25T12:20:30Z</time>
      </trkpt>
      <trkpt lat="45.49178" lon="6.76214">
        <ele>2698.0007324</ele>
        <time>2009-07-25T12:20:34Z</time>
      </trkpt>
      <trkpt lat="45.49176" lon="6.7621">
        <ele>2696.4052734</ele>
        <time>2009-07-25T12:20:41Z</time>
      </trkpt>
      <trkpt lat="45.49173" lon="6.76211">
        <ele>2696.0793457</ele>
        <time>2009-07-25T12:20:47Z</time>
      </trkpt>
      <trkpt lat="45.49171" lon="6.76209">
        <ele>2695.0703125</ele>
        <time>2009-07-25T12:20:53Z</time>
      </trkpt>
      <trkpt lat="45.49171" lon="6.76206">
        <ele>2694.4370117</ele>
        <time>2009-07-25T12:20:58Z</time>
      </trkpt>
      <trkpt lat="45.49175" lon="6.76204">
        <ele>2694.3601074</ele>
        <time>2009-07-25T12:21:05Z</time>
      </trkpt>
      <trkpt lat="45.49176" lon="6.76203">
        <ele>2694.2531738</ele>
        <time>2009-07-25T12:21:09Z</time>
      </trkpt>
      <trkpt lat="45.49177" lon="6.76199">
        <ele>2693.4055176</ele>
        <time>2009-07-25T12:21:16Z</time>
      </trkpt>
      <trkpt lat="45.49175" lon="6.76194">
        <ele>2691.3464355</ele>
        <time>2009-07-25T12:21:21Z</time>
      </trkpt>
      <trkpt lat="45.49172" lon="6.76187">
        <ele>2689.4284668</ele>
        <time>2009-07-25T12:21:28Z</time>
      </trkpt>
      <trkpt lat="45.49173" lon="6.76184">
        <ele>2688.8657227</ele>
        <time>2009-07-25T12:21:33Z</time>
      </trkpt>
      <trkpt lat="45.49177" lon="6.76177">
        <ele>2688.0844727</ele>
        <time>2009-07-25T12:21:41Z</time>
      </trkpt>
      <trkpt lat="45.49173" lon="6.76168">
        <ele>2685.7585449</ele>
        <time>2009-07-25T12:21:46Z</time>
      </trkpt>
      <trkpt lat="45.49172" lon="6.76162">
        <ele>2684.5622559</ele>
        <time>2009-07-25T12:21:49Z</time>
      </trkpt>
      <trkpt lat="45.49175" lon="6.76155">
        <ele>2683.2810059</ele>
        <time>2009-07-25T12:21:54Z</time>
      </trkpt>
      <trkpt lat="45.49176" lon="6.76153">
        <ele>2683.1315918</ele>
        <time>2009-07-25T12:21:56Z</time>
      </trkpt>
      <trkpt lat="45.49179" lon="6.76148">
        <ele>2682.1931152</ele>
        <time>2009-07-25T12:22:00Z</time>
      </trkpt>
      <trkpt lat="45.49183" lon="6.76134">
        <ele>2679.2365723</ele>
        <time>2009-07-25T12:22:08Z</time>
      </trkpt>
      <trkpt lat="45.49188" lon="6.7612">
        <ele>2675.9404297</ele>
        <time>2009-07-25T12:22:15Z</time>
      </trkpt>
      <trkpt lat="45.49192" lon="6.76114">
        <ele>2675.2797852</ele>
        <time>2009-07-25T12:22:19Z</time>
      </trkpt>
      <trkpt lat="45.49194" lon="6.7611">
        <ele>2674.3100586</ele>
        <time>2009-07-25T12:22:22Z</time>
      </trkpt>
      <trkpt lat="45.49197" lon="6.761">
        <ele>2671.1691895</ele>
        <time>2009-07-25T12:22:28Z</time>
      </trkpt>
      <trkpt lat="45.49199" lon="6.76095">
        <ele>2669.0344238</ele>
        <time>2009-07-25T12:22:31Z</time>
      </trkpt>
      <trkpt lat="45.49202" lon="6.76088">
        <ele>2666.2214355</ele>
        <time>2009-07-25T12:22:35Z</time>
      </trkpt>
      <trkpt lat="45.49208" lon="6.76075">
        <ele>2659.0551758</ele>
        <time>2009-07-25T12:22:43Z</time>
      </trkpt>
      <trkpt lat="45.4921" lon="6.76063">
        <ele>2653.2387695</ele>
        <time>2009-07-25T12:22:48Z</time>
      </trkpt>
      <trkpt lat="45.49212" lon="6.76042">
        <ele>2647.1894531</ele>
        <time>2009-07-25T12:22:55Z</time>
      </trkpt>
      <trkpt lat="45.49209" lon="6.76021">
        <ele>2643.1032715</ele>
        <time>2009-07-25T12:23:03Z</time>
      </trkpt>
      <trkpt lat="45.49205" lon="6.76006">
        <ele>2640.418457</ele>
        <time>2009-07-25T12:23:08Z</time>
      </trkpt>
      <trkpt lat="45.49201" lon="6.75989">
        <ele>2638.0551758</ele>
        <time>2009-07-25T12:23:14Z</time>
      </trkpt>
      <trkpt lat="45.49198" lon="6.75973">
        <ele>2636.3918457</ele>
        <time>2009-07-25T12:23:20Z</time>
      </trkpt>
      <trkpt lat="45.49193" lon="6.75953">
        <ele>2634.5090332</ele>
        <time>2009-07-25T12:23:27Z</time>
      </trkpt>
      <trkpt lat="45.49189" lon="6.75936">
        <ele>2633.1005859</ele>
        <time>2009-07-25T12:23:33Z</time>
      </trkpt>
      <trkpt lat="45.49184" lon="6.75917">
        <ele>2631.5773926</ele>
        <time>2009-07-25T12:23:40Z</time>
      </trkpt>
      <trkpt lat="45.49178" lon="6.75899">
        <ele>2630.1779785</ele>
        <time>2009-07-25T12:23:47Z</time>
      </trkpt>
      <trkpt lat="45.49173" lon="6.75882">
        <ele>2629.3972168</ele>
        <time>2009-07-25T12:23:53Z</time>
      </trkpt>
      <trkpt lat="45.49167" lon="6.75861">
        <ele>2629.0170898</ele>
        <time>2009-07-25T12:24:00Z</time>
      </trkpt>
      <trkpt lat="45.49162" lon="6.75844">
        <ele>2628.4104004</ele>
        <time>2009-07-25T12:24:06Z</time>
      </trkpt>
      <trkpt lat="45.4916" lon="6.75826">
        <ele>2628.5148926</ele>
        <time>2009-07-25T12:24:13Z</time>
      </trkpt>
      <trkpt lat="45.4916" lon="6.75815">
        <ele>2628.8967285</ele>
        <time>2009-07-25T12:24:17Z</time>
      </trkpt>
      <trkpt lat="45.49164" lon="6.75801">
        <ele>2629.2307129</ele>
        <time>2009-07-25T12:24:25Z</time>
      </trkpt>
      <trkpt lat="45.49169" lon="6.75793">
        <ele>2629.5065918</ele>
        <time>2009-07-25T12:24:31Z</time>
      </trkpt>
      <trkpt lat="45.49176" lon="6.75778">
        <ele>2629.9912109</ele>
        <time>2009-07-25T12:24:40Z</time>
      </trkpt>
      <trkpt lat="45.49181" lon="6.75763">
        <ele>2629.4472656</ele>
        <time>2009-07-25T12:24:48Z</time>
      </trkpt>
      <trkpt lat="45.49186" lon="6.75745">
        <ele>2628.5844727</ele>
        <time>2009-07-25T12:24:56Z</time>
      </trkpt>
      <trkpt lat="45.49189" lon="6.7573">
        <ele>2628.392334</ele>
        <time>2009-07-25T12:25:03Z</time>
      </trkpt>
      <trkpt lat="45.49193" lon="6.75704">
        <ele>2629.3198242</ele>
        <time>2009-07-25T12:25:15Z</time>
      </trkpt>
      <trkpt lat="45.49194" lon="6.75693">
        <ele>2629.8681641</ele>
        <time>2009-07-25T12:25:21Z</time>
      </trkpt>
      <trkpt lat="45.49193" lon="6.75673">
        <ele>2627.6206055</ele>
        <time>2009-07-25T12:25:32Z</time>
      </trkpt>
      <trkpt lat="45.49193" lon="6.75661">
        <ele>2625.4643555</ele>
        <time>2009-07-25T12:25:38Z</time>
      </trkpt>
      <trkpt lat="45.49192" lon="6.75652">
        <ele>2622.9711914</ele>
        <time>2009-07-25T12:25:41Z</time>
      </trkpt>
      <trkpt lat="45.4919" lon="6.75637">
        <ele>2618.7897949</ele>
        <time>2009-07-25T12:25:47Z</time>
      </trkpt>
      <trkpt lat="45.49189" lon="6.75623">
        <ele>2613.0769043</ele>
        <time>2009-07-25T12:25:53Z</time>
      </trkpt>
      <trkpt lat="45.49186" lon="6.75602">
        <ele>2605.75</ele>
        <time>2009-07-25T12:26:00Z</time>
      </trkpt>
      <trkpt lat="45.49184" lon="6.75589">
        <ele>2601.8745117</ele>
        <time>2009-07-25T12:26:05Z</time>
      </trkpt>
      <trkpt lat="45.49181" lon="6.75572">
        <ele>2597.5603027</ele>
        <time>2009-07-25T12:26:11Z</time>
      </trkpt>
      <trkpt lat="45.49176" lon="6.75556">
        <ele>2592.8635254</ele>
        <time>2009-07-25T12:26:17Z</time>
      </trkpt>
      <trkpt lat="45.49175" lon="6.75545">
        <ele>2590.1950684</ele>
        <time>2009-07-25T12:26:21Z</time>
      </trkpt>
      <trkpt lat="45.49173" lon="6.75536">
        <ele>2587.9431152</ele>
        <time>2009-07-25T12:26:24Z</time>
      </trkpt>
      <trkpt lat="45.49167" lon="6.75524">
        <ele>2583.6347656</ele>
        <time>2009-07-25T12:26:29Z</time>
      </trkpt>
      <trkpt lat="45.49167" lon="6.75506">
        <ele>2581.107666</ele>
        <time>2009-07-25T12:26:35Z</time>
      </trkpt>
      <trkpt lat="45.49167" lon="6.7549">
        <ele>2580.9589844</ele>
        <time>2009-07-25T12:26:40Z</time>
      </trkpt>
      <trkpt lat="45.49165" lon="6.75474">
        <ele>2581.2705078</ele>
        <time>2009-07-25T12:26:45Z</time>
      </trkpt>
      <trkpt lat="45.49158" lon="6.7545">
        <ele>2580.9641113</ele>
        <time>2009-07-25T12:26:52Z</time>
      </trkpt>
      <trkpt lat="45.49154" lon="6.75436">
        <ele>2580.9470215</ele>
        <time>2009-07-25T12:26:57Z</time>
      </trkpt>
      <trkpt lat="45.49149" lon="6.75421">
        <ele>2580.6791992</ele>
        <time>2009-07-25T12:27:02Z</time>
      </trkpt>
      <trkpt lat="45.49145" lon="6.75405">
        <ele>2577.9824219</ele>
        <time>2009-07-25T12:27:08Z</time>
      </trkpt>
      <trkpt lat="45.49144" lon="6.75389">
        <ele>2575.2189941</ele>
        <time>2009-07-25T12:27:13Z</time>
      </trkpt>
      <trkpt lat="45.49143" lon="6.75374">
        <ele>2572.8967285</ele>
        <time>2009-07-25T12:27:18Z</time>
      </trkpt>
      <trkpt lat="45.49142" lon="6.75353">
        <ele>2571.0356445</ele>
        <time>2009-07-25T12:27:25Z</time>
      </trkpt>
      <trkpt lat="45.49141" lon="6.75333">
        <ele>2571.3566895</ele>
        <time>2009-07-25T12:27:31Z</time>
      </trkpt>
      <trkpt lat="45.49141" lon="6.75316">
        <ele>2570.6674805</ele>
        <time>2009-07-25T12:27:37Z</time>
      </trkpt>
      <trkpt lat="45.49143" lon="6.75296">
        <ele>2569.0822754</ele>
        <time>2009-07-25T12:27:44Z</time>
      </trkpt>
      <trkpt lat="45.49144" lon="6.75278">
        <ele>2566.7504883</ele>
        <time>2009-07-25T12:27:50Z</time>
      </trkpt>
      <trkpt lat="45.49146" lon="6.75259">
        <ele>2563.5539551</ele>
        <time>2009-07-25T12:27:56Z</time>
      </trkpt>
      <trkpt lat="45.49147" lon="6.75243">
        <ele>2560.6547852</ele>
        <time>2009-07-25T12:28:01Z</time>
      </trkpt>
      <trkpt lat="45.49149" lon="6.75225">
        <ele>2556.7817383</ele>
        <time>2009-07-25T12:28:07Z</time>
      </trkpt>
      <trkpt lat="45.49153" lon="6.7521">
        <ele>2552.9509277</ele>
        <time>2009-07-25T12:28:13Z</time>
      </trkpt>
      <trkpt lat="45.49157" lon="6.75194">
        <ele>2548.5366211</ele>
        <time>2009-07-25T12:28:19Z</time>
      </trkpt>
      <trkpt lat="45.4916" lon="6.7518">
        <ele>2545.2509766</ele>
        <time>2009-07-25T12:28:25Z</time>
      </trkpt>
      <trkpt lat="45.49163" lon="6.75165">
        <ele>2542.157959</ele>
        <time>2009-07-25T12:28:31Z</time>
      </trkpt>
      <trkpt lat="45.49165" lon="6.75149">
        <ele>2539.395752</ele>
        <time>2009-07-25T12:28:37Z</time>
      </trkpt>
      <trkpt lat="45.49165" lon="6.75134">
        <ele>2537.2480469</ele>
        <time>2009-07-25T12:28:43Z</time>
      </trkpt>
      <trkpt lat="45.49165" lon="6.75115">
        <ele>2534.9655762</ele>
        <time>2009-07-25T12:28:49Z</time>
      </trkpt>
      <trkpt lat="45.49163" lon="6.751">
        <ele>2533.3820801</ele>
        <time>2009-07-25T12:28:54Z</time>
      </trkpt>
      <trkpt lat="45.4916" lon="6.75075">
        <ele>2530.5178223</ele>
        <time>2009-07-25T12:29:01Z</time>
      </trkpt>
      <trkpt lat="45.49158" lon="6.75057">
        <ele>2527.9633789</ele>
        <time>2009-07-25T12:29:07Z</time>
      </trkpt>
      <trkpt lat="45.49158" lon="6.75045">
        <ele>2526.1694336</ele>
        <time>2009-07-25T12:29:11Z</time>
      </trkpt>
      <trkpt lat="45.49159" lon="6.75028">
        <ele>2523.6594238</ele>
        <time>2009-07-25T12:29:17Z</time>
      </trkpt>
      <trkpt lat="45.49162" lon="6.75018">
        <ele>2522.6489258</ele>
        <time>2009-07-25T12:29:22Z</time>
      </trkpt>
      <trkpt lat="45.49159" lon="6.75005">
        <ele>2520.0412598</ele>
        <time>2009-07-25T12:29:26Z</time>
      </trkpt>
      <trkpt lat="45.49149" lon="6.74987">
        <ele>2517.423584</ele>
        <time>2009-07-25T12:29:33Z</time>
      </trkpt>
      <trkpt lat="45.49136" lon="6.74974">
        <ele>2514.4667969</ele>
        <time>2009-07-25T12:29:40Z</time>
      </trkpt>
      <trkpt lat="45.49126" lon="6.74956">
        <ele>2513.8447266</ele>
        <time>2009-07-25T12:29:47Z</time>
      </trkpt>
      <trkpt lat="45.49121" lon="6.74942">
        <ele>2513.7697754</ele>
        <time>2009-07-25T12:29:52Z</time>
      </trkpt>
      <trkpt lat="45.49114" lon="6.74922">
        <ele>2511.921875</ele>
        <time>2009-07-25T12:29:59Z</time>
      </trkpt>
      <trkpt lat="45.4911" lon="6.74904">
        <ele>2510.017334</ele>
        <time>2009-07-25T12:30:05Z</time>
      </trkpt>
      <trkpt lat="45.49105" lon="6.74882">
        <ele>2507.6142578</ele>
        <time>2009-07-25T12:30:12Z</time>
      </trkpt>
      <trkpt lat="45.49105" lon="6.74879">
        <ele>2507.265625</ele>
        <time>2009-07-25T12:30:13Z</time>
      </trkpt>
      <trkpt lat="45.49105" lon="6.74863">
        <ele>2506.9609375</ele>
        <time>2009-07-25T12:30:18Z</time>
      </trkpt>
      <trkpt lat="45.49112" lon="6.74835">
        <ele>2505.4484863</ele>
        <time>2009-07-25T12:30:28Z</time>
      </trkpt>
      <trkpt lat="45.49119" lon="6.74815">
        <ele>2503.5681152</ele>
        <time>2009-07-25T12:30:35Z</time>
      </trkpt>
      <trkpt lat="45.49125" lon="6.74793">
        <ele>2500.1672363</ele>
        <time>2009-07-25T12:30:42Z</time>
      </trkpt>
      <trkpt lat="45.49128" lon="6.7477">
        <ele>2495.144043</ele>
        <time>2009-07-25T12:30:49Z</time>
      </trkpt>
      <trkpt lat="45.49129" lon="6.74749">
        <ele>2491.2021484</ele>
        <time>2009-07-25T12:30:55Z</time>
      </trkpt>
      <trkpt lat="45.49134" lon="6.74725">
        <ele>2491.230957</ele>
        <time>2009-07-25T12:31:02Z</time>
      </trkpt>
      <trkpt lat="45.49139" lon="6.74707">
        <ele>2490.3095703</ele>
        <time>2009-07-25T12:31:08Z</time>
      </trkpt>
      <trkpt lat="45.49146" lon="6.74689">
        <ele>2488.7521973</ele>
        <time>2009-07-25T12:31:14Z</time>
      </trkpt>
      <trkpt lat="45.4915" lon="6.74674">
        <ele>2487.4870605</ele>
        <time>2009-07-25T12:31:19Z</time>
      </trkpt>
      <trkpt lat="45.49153" lon="6.7467">
        <ele>2487.5307617</ele>
        <time>2009-07-25T12:31:26Z</time>
      </trkpt>
      <trkpt lat="45.49152" lon="6.74667">
        <ele>2486.8012695</ele>
        <time>2009-07-25T12:31:35Z</time>
      </trkpt>
      <trkpt lat="45.49154" lon="6.74665">
        <ele>2487.6218262</ele>
        <time>2009-07-25T12:31:41Z</time>
      </trkpt>
      <trkpt lat="45.49154" lon="6.74665">
        <ele>2487.3549805</ele>
        <time>2009-07-25T12:31:48Z</time>
      </trkpt>
      <trkpt lat="45.49153" lon="6.74665">
        <ele>2487.2780762</ele>
        <time>2009-07-25T12:31:53Z</time>
      </trkpt>
      <trkpt lat="45.49154" lon="6.74663">
        <ele>2487.6281738</ele>
        <time>2009-07-25T12:32:05Z</time>
      </trkpt>
      <trkpt lat="45.49154" lon="6.74663">
        <ele>2487.7250977</ele>
        <time>2009-07-25T12:32:17Z</time>
      </trkpt>
      <trkpt lat="45.49154" lon="6.74658">
        <ele>2488.28125</ele>
        <time>2009-07-25T12:32:24Z</time>
      </trkpt>
      <trkpt lat="45.49163" lon="6.74648">
        <ele>2490.916748</ele>
        <time>2009-07-25T12:32:32Z</time>
      </trkpt>
      <trkpt lat="45.49173" lon="6.74639">
        <ele>2491.1398926</ele>
        <time>2009-07-25T12:32:38Z</time>
      </trkpt>
      <trkpt lat="45.49184" lon="6.74626">
        <ele>2491.4870605</ele>
        <time>2009-07-25T12:32:46Z</time>
      </trkpt>
      <trkpt lat="45.49191" lon="6.74613">
        <ele>2491.0229492</ele>
        <time>2009-07-25T12:32:52Z</time>
      </trkpt>
      <trkpt lat="45.49197" lon="6.74598">
        <ele>2489.3217773</ele>
        <time>2009-07-25T12:32:58Z</time>
      </trkpt>
      <trkpt lat="45.49203" lon="6.74586">
        <ele>2487.097168</ele>
        <time>2009-07-25T12:33:03Z</time>
      </trkpt>
      <trkpt lat="45.49207" lon="6.74579">
        <ele>2485.7126465</ele>
        <time>2009-07-25T12:33:06Z</time>
      </trkpt>
      <trkpt lat="45.49216" lon="6.74565">
        <ele>2482.1801758</ele>
        <time>2009-07-25T12:33:13Z</time>
      </trkpt>
      <trkpt lat="45.49223" lon="6.74549">
        <ele>2479.3686523</ele>
        <time>2009-07-25T12:33:20Z</time>
      </trkpt>
      <trkpt lat="45.49232" lon="6.74535">
        <ele>2476.9121094</ele>
        <time>2009-07-25T12:33:27Z</time>
      </trkpt>
      <trkpt lat="45.49241" lon="6.74527">
        <ele>2473.9924316</ele>
        <time>2009-07-25T12:33:32Z</time>
      </trkpt>
      <trkpt lat="45.4925" lon="6.74519">
        <ele>2471.5710449</ele>
        <time>2009-07-25T12:33:37Z</time>
      </trkpt>
      <trkpt lat="45.49259" lon="6.74508">
        <ele>2468.6223145</ele>
        <time>2009-07-25T12:33:43Z</time>
      </trkpt>
      <trkpt lat="45.49265" lon="6.745">
        <ele>2466.1140137</ele>
        <time>2009-07-25T12:33:47Z</time>
      </trkpt>
      <trkpt lat="45.49274" lon="6.7449">
        <ele>2460.7089844</ele>
        <time>2009-07-25T12:33:53Z</time>
      </trkpt>
      <trkpt lat="45.49284" lon="6.7448">
        <ele>2457.1064453</ele>
        <time>2009-07-25T12:33:59Z</time>
      </trkpt>
      <trkpt lat="45.49298" lon="6.74464">
        <ele>2453.567627</ele>
        <time>2009-07-25T12:34:07Z</time>
      </trkpt>
      <trkpt lat="45.49309" lon="6.74451">
        <ele>2449.8110352</ele>
        <time>2009-07-25T12:34:14Z</time>
      </trkpt>
      <trkpt lat="45.49318" lon="6.74438">
        <ele>2447.7370605</ele>
        <time>2009-07-25T12:34:20Z</time>
      </trkpt>
      <trkpt lat="45.49328" lon="6.74421">
        <ele>2445.2216797</ele>
        <time>2009-07-25T12:34:28Z</time>
      </trkpt>
      <trkpt lat="45.49339" lon="6.74411">
        <ele>2442.6804199</ele>
        <time>2009-07-25T12:34:34Z</time>
      </trkpt>
      <trkpt lat="45.49341" lon="6.74409">
        <ele>2442.1816406</ele>
        <time>2009-07-25T12:34:35Z</time>
      </trkpt>
      <trkpt lat="45.4935" lon="6.744">
        <ele>2439.2614746</ele>
        <time>2009-07-25T12:34:40Z</time>
      </trkpt>
      <trkpt lat="45.4936" lon="6.74395">
        <ele>2436.0322266</ele>
        <time>2009-07-25T12:34:45Z</time>
      </trkpt>
      <trkpt lat="45.49369" lon="6.74387">
        <ele>2433.5727539</ele>
        <time>2009-07-25T12:34:50Z</time>
      </trkpt>
      <trkpt lat="45.49381" lon="6.74377">
        <ele>2431.3691406</ele>
        <time>2009-07-25T12:34:56Z</time>
      </trkpt>
      <trkpt lat="45.49391" lon="6.74367">
        <ele>2430.2133789</ele>
        <time>2009-07-25T12:35:02Z</time>
      </trkpt>
      <trkpt lat="45.49401" lon="6.74357">
        <ele>2429.621582</ele>
        <time>2009-07-25T12:35:08Z</time>
      </trkpt>
      <trkpt lat="45.49408" lon="6.7435">
        <ele>2429.0939941</ele>
        <time>2009-07-25T12:35:12Z</time>
      </trkpt>
      <trkpt lat="45.49418" lon="6.7434">
        <ele>2428.1936035</ele>
        <time>2009-07-25T12:35:18Z</time>
      </trkpt>
      <trkpt lat="45.49429" lon="6.74333">
        <ele>2425.7387695</ele>
        <time>2009-07-25T12:35:24Z</time>
      </trkpt>
      <trkpt lat="45.49444" lon="6.74323">
        <ele>2421.9150391</ele>
        <time>2009-07-25T12:35:32Z</time>
      </trkpt>
      <trkpt lat="45.49459" lon="6.7431">
        <ele>2417.2390137</ele>
        <time>2009-07-25T12:35:40Z</time>
      </trkpt>
      <trkpt lat="45.49471" lon="6.74301">
        <ele>2413.4211426</ele>
        <time>2009-07-25T12:35:46Z</time>
      </trkpt>
      <trkpt lat="45.49482" lon="6.74295">
        <ele>2410.5021973</ele>
        <time>2009-07-25T12:35:52Z</time>
      </trkpt>
      <trkpt lat="45.49493" lon="6.74291">
        <ele>2408.6064453</ele>
        <time>2009-07-25T12:35:57Z</time>
      </trkpt>
      <trkpt lat="45.49496" lon="6.7429">
        <ele>2408.1181641</ele>
        <time>2009-07-25T12:35:59Z</time>
      </trkpt>
      <trkpt lat="45.49503" lon="6.74279">
        <ele>2405.6794434</ele>
        <time>2009-07-25T12:36:05Z</time>
      </trkpt>
      <trkpt lat="45.49505" lon="6.74273">
        <ele>2403.5561523</ele>
        <time>2009-07-25T12:36:10Z</time>
      </trkpt>
      <trkpt lat="45.49511" lon="6.74269">
        <ele>2401.3500977</ele>
        <time>2009-07-25T12:36:15Z</time>
      </trkpt>
      <trkpt lat="45.49519" lon="6.74265">
        <ele>2398.6896973</ele>
        <time>2009-07-25T12:36:22Z</time>
      </trkpt>
      <trkpt lat="45.49521" lon="6.74259">
        <ele>2396.5539551</ele>
        <time>2009-07-25T12:36:27Z</time>
      </trkpt>
      <trkpt lat="45.49517" lon="6.74246">
        <ele>2393.5964355</ele>
        <time>2009-07-25T12:36:33Z</time>
      </trkpt>
      <trkpt lat="45.4952" lon="6.74239">
        <ele>2390.8562012</ele>
        <time>2009-07-25T12:36:38Z</time>
      </trkpt>
      <trkpt lat="45.49525" lon="6.74236">
        <ele>2388.8818359</ele>
        <time>2009-07-25T12:36:42Z</time>
      </trkpt>
      <trkpt lat="45.49526" lon="6.7423">
        <ele>2386.8430176</ele>
        <time>2009-07-25T12:36:47Z</time>
      </trkpt>
      <trkpt lat="45.49527" lon="6.74222">
        <ele>2384.0932617</ele>
        <time>2009-07-25T12:36:51Z</time>
      </trkpt>
      <trkpt lat="45.49529" lon="6.74219">
        <ele>2383.0419922</ele>
        <time>2009-07-25T12:36:53Z</time>
      </trkpt>
      <trkpt lat="45.4953" lon="6.74215">
        <ele>2381.6430664</ele>
        <time>2009-07-25T12:36:56Z</time>
      </trkpt>
      <trkpt lat="45.49531" lon="6.74209">
        <ele>2380.0483398</ele>
        <time>2009-07-25T12:37:00Z</time>
      </trkpt>
      <trkpt lat="45.49533" lon="6.74203">
        <ele>2378.0244141</ele>
        <time>2009-07-25T12:37:04Z</time>
      </trkpt>
      <trkpt lat="45.49532" lon="6.74199">
        <ele>2377.2741699</ele>
        <time>2009-07-25T12:37:08Z</time>
      </trkpt>
      <trkpt lat="45.49536" lon="6.74186">
        <ele>2373.8791504</ele>
        <time>2009-07-25T12:37:14Z</time>
      </trkpt>
      <trkpt lat="45.49541" lon="6.74182">
        <ele>2372.0844727</ele>
        <time>2009-07-25T12:37:17Z</time>
      </trkpt>
      <trkpt lat="45.49556" lon="6.74175">
        <ele>2367.4355469</ele>
        <time>2009-07-25T12:37:25Z</time>
      </trkpt>
      <trkpt lat="45.49568" lon="6.74173">
        <ele>2363.7600098</ele>
        <time>2009-07-25T12:37:31Z</time>
      </trkpt>
      <trkpt lat="45.4958" lon="6.7417">
        <ele>2359.786377</ele>
        <time>2009-07-25T12:37:37Z</time>
      </trkpt>
      <trkpt lat="45.49588" lon="6.74169">
        <ele>2358.0986328</ele>
        <time>2009-07-25T12:37:42Z</time>
      </trkpt>
      <trkpt lat="45.49598" lon="6.7417">
        <ele>2357.159668</ele>
        <time>2009-07-25T12:37:48Z</time>
      </trkpt>
      <trkpt lat="45.49609" lon="6.7417">
        <ele>2356.0129395</ele>
        <time>2009-07-25T12:37:54Z</time>
      </trkpt>
      <trkpt lat="45.49622" lon="6.74168">
        <ele>2352.5664063</ele>
        <time>2009-07-25T12:38:00Z</time>
      </trkpt>
      <trkpt lat="45.49633" lon="6.74163">
        <ele>2349.0371094</ele>
        <time>2009-07-25T12:38:05Z</time>
      </trkpt>
      <trkpt lat="45.4965" lon="6.74161">
        <ele>2345.1325684</ele>
        <time>2009-07-25T12:38:12Z</time>
      </trkpt>
      <trkpt lat="45.49662" lon="6.74159">
        <ele>2342.284668</ele>
        <time>2009-07-25T12:38:17Z</time>
      </trkpt>
      <trkpt lat="45.49664" lon="6.74158">
        <ele>2341.7119141</ele>
        <time>2009-07-25T12:38:18Z</time>
      </trkpt>
      <trkpt lat="45.49677" lon="6.74156">
        <ele>2340.1132813</ele>
        <time>2009-07-25T12:38:24Z</time>
      </trkpt>
      <trkpt lat="45.49694" lon="6.74153">
        <ele>2339.020752</ele>
        <time>2009-07-25T12:38:32Z</time>
      </trkpt>
      <trkpt lat="45.49707" lon="6.74151">
        <ele>2336.3398438</ele>
        <time>2009-07-25T12:38:38Z</time>
      </trkpt>
      <trkpt lat="45.4972" lon="6.74154">
        <ele>2334.0109863</ele>
        <time>2009-07-25T12:38:44Z</time>
      </trkpt>
      <trkpt lat="45.49731" lon="6.74158">
        <ele>2332.7312012</ele>
        <time>2009-07-25T12:38:49Z</time>
      </trkpt>
      <trkpt lat="45.4974" lon="6.74162">
        <ele>2331.4921875</ele>
        <time>2009-07-25T12:38:54Z</time>
      </trkpt>
      <trkpt lat="45.49753" lon="6.74165">
        <ele>2328.8222656</ele>
        <time>2009-07-25T12:39:00Z</time>
      </trkpt>
      <trkpt lat="45.49765" lon="6.74169">
        <ele>2325.279541</ele>
        <time>2009-07-25T12:39:06Z</time>
      </trkpt>
      <trkpt lat="45.49766" lon="6.74169">
        <ele>2324.8540039</ele>
        <time>2009-07-25T12:39:07Z</time>
      </trkpt>
      <trkpt lat="45.49771" lon="6.74165">
        <ele>2322.545166</ele>
        <time>2009-07-25T12:39:12Z</time>
      </trkpt>
      <trkpt lat="45.49773" lon="6.74164">
        <ele>2322.0895996</ele>
        <time>2009-07-25T12:39:13Z</time>
      </trkpt>
      <trkpt lat="45.49778" lon="6.74166">
        <ele>2319.958252</ele>
        <time>2009-07-25T12:39:18Z</time>
      </trkpt>
      <trkpt lat="45.4979" lon="6.74171">
        <ele>2316.3759766</ele>
        <time>2009-07-25T12:39:25Z</time>
      </trkpt>
      <trkpt lat="45.49798" lon="6.74175">
        <ele>2313.8496094</ele>
        <time>2009-07-25T12:39:31Z</time>
      </trkpt>
      <trkpt lat="45.49806" lon="6.74177">
        <ele>2311.4091797</ele>
        <time>2009-07-25T12:39:37Z</time>
      </trkpt>
      <trkpt lat="45.49813" lon="6.74185">
        <ele>2309.9489746</ele>
        <time>2009-07-25T12:39:43Z</time>
      </trkpt>
      <trkpt lat="45.49822" lon="6.74193">
        <ele>2307.3745117</ele>
        <time>2009-07-25T12:39:50Z</time>
      </trkpt>
      <trkpt lat="45.49829" lon="6.74195">
        <ele>2304.831543</ele>
        <time>2009-07-25T12:39:55Z</time>
      </trkpt>
      <trkpt lat="45.49833" lon="6.74198">
        <ele>2303.2780762</ele>
        <time>2009-07-25T12:39:59Z</time>
      </trkpt>
      <trkpt lat="45.49839" lon="6.74199">
        <ele>2300.5791016</ele>
        <time>2009-07-25T12:40:05Z</time>
      </trkpt>
      <trkpt lat="45.4984" lon="6.74199">
        <ele>2300.0649414</ele>
        <time>2009-07-25T12:40:06Z</time>
      </trkpt>
      <trkpt lat="45.49847" lon="6.74201">
        <ele>2297.3237305</ele>
        <time>2009-07-25T12:40:11Z</time>
      </trkpt>
      <trkpt lat="45.49855" lon="6.742">
        <ele>2293.6525879</ele>
        <time>2009-07-25T12:40:16Z</time>
      </trkpt>
      <trkpt lat="45.49865" lon="6.74193">
        <ele>2289.4509277</ele>
        <time>2009-07-25T12:40:22Z</time>
      </trkpt>
      <trkpt lat="45.49877" lon="6.74185">
        <ele>2287.2419434</ele>
        <time>2009-07-25T12:40:28Z</time>
      </trkpt>
      <trkpt lat="45.49887" lon="6.74175">
        <ele>2284.1794434</ele>
        <time>2009-07-25T12:40:34Z</time>
      </trkpt>
      <trkpt lat="45.49897" lon="6.74164">
        <ele>2281.9868164</ele>
        <time>2009-07-25T12:40:40Z</time>
      </trkpt>
      <trkpt lat="45.49905" lon="6.74148">
        <ele>2280.8432617</ele>
        <time>2009-07-25T12:40:46Z</time>
      </trkpt>
      <trkpt lat="45.49906" lon="6.74144">
        <ele>2280.4238281</ele>
        <time>2009-07-25T12:40:48Z</time>
      </trkpt>
      <trkpt lat="45.4991" lon="6.74136">
        <ele>2279.5893555</ele>
        <time>2009-07-25T12:40:54Z</time>
      </trkpt>
      <trkpt lat="45.49912" lon="6.74131">
        <ele>2279.6164551</ele>
        <time>2009-07-25T12:40:57Z</time>
      </trkpt>
      <trkpt lat="45.49914" lon="6.74126">
        <ele>2279.753418</ele>
        <time>2009-07-25T12:41:00Z</time>
      </trkpt>
      <trkpt lat="45.49923" lon="6.74117">
        <ele>2278.9245605</ele>
        <time>2009-07-25T12:41:08Z</time>
      </trkpt>
      <trkpt lat="45.49934" lon="6.74114">
        <ele>2276.8239746</ele>
        <time>2009-07-25T12:41:16Z</time>
      </trkpt>
      <trkpt lat="45.49942" lon="6.74108">
        <ele>2276.0253906</ele>
        <time>2009-07-25T12:41:22Z</time>
      </trkpt>
      <trkpt lat="45.49952" lon="6.74103">
        <ele>2275.4221191</ele>
        <time>2009-07-25T12:41:29Z</time>
      </trkpt>
      <trkpt lat="45.49963" lon="6.74091">
        <ele>2274.6933594</ele>
        <time>2009-07-25T12:41:38Z</time>
      </trkpt>
      <trkpt lat="45.49974" lon="6.74086">
        <ele>2272.6298828</ele>
        <time>2009-07-25T12:41:43Z</time>
      </trkpt>
      <trkpt lat="45.49989" lon="6.74081">
        <ele>2271.3964844</ele>
        <time>2009-07-25T12:41:51Z</time>
      </trkpt>
      <trkpt lat="45.50002" lon="6.74071">
        <ele>2270.828125</ele>
        <time>2009-07-25T12:41:58Z</time>
      </trkpt>
      <trkpt lat="45.50012" lon="6.74063">
        <ele>2268.8100586</ele>
        <time>2009-07-25T12:42:04Z</time>
      </trkpt>
      <trkpt lat="45.50018" lon="6.74052">
        <ele>2268.2561035</ele>
        <time>2009-07-25T12:42:10Z</time>
      </trkpt>
      <trkpt lat="45.50018" lon="6.74051">
        <ele>2268.2038574</ele>
        <time>2009-07-25T12:42:11Z</time>
      </trkpt>
      <trkpt lat="45.50029" lon="6.74048">
        <ele>2265.6142578</ele>
        <time>2009-07-25T12:42:20Z</time>
      </trkpt>
      <trkpt lat="45.5004" lon="6.74046">
        <ele>2264.239502</ele>
        <time>2009-07-25T12:42:26Z</time>
      </trkpt>
      <trkpt lat="45.50048" lon="6.74043">
        <ele>2263.2792969</ele>
        <time>2009-07-25T12:42:30Z</time>
      </trkpt>
      <trkpt lat="45.50058" lon="6.74041">
        <ele>2262.0380859</ele>
        <time>2009-07-25T12:42:35Z</time>
      </trkpt>
      <trkpt lat="45.50069" lon="6.74039">
        <ele>2259.9182129</ele>
        <time>2009-07-25T12:42:41Z</time>
      </trkpt>
      <trkpt lat="45.50073" lon="6.7404">
        <ele>2259.0734863</ele>
        <time>2009-07-25T12:42:43Z</time>
      </trkpt>
      <trkpt lat="45.50083" lon="6.74038">
        <ele>2257.2058105</ele>
        <time>2009-07-25T12:42:49Z</time>
      </trkpt>
      <trkpt lat="45.50088" lon="6.74037">
        <ele>2256.0119629</ele>
        <time>2009-07-25T12:42:53Z</time>
      </trkpt>
      <trkpt lat="45.50092" lon="6.74036">
        <ele>2254.9555664</ele>
        <time>2009-07-25T12:42:58Z</time>
      </trkpt>
      <trkpt lat="45.50097" lon="6.74031">
        <ele>2254.1574707</ele>
        <time>2009-07-25T12:43:03Z</time>
      </trkpt>
      <trkpt lat="45.50103" lon="6.74027">
        <ele>2252.6557617</ele>
        <time>2009-07-25T12:43:08Z</time>
      </trkpt>
      <trkpt lat="45.50111" lon="6.74024">
        <ele>2250.9536133</ele>
        <time>2009-07-25T12:43:14Z</time>
      </trkpt>
      <trkpt lat="45.50119" lon="6.74021">
        <ele>2248.3178711</ele>
        <time>2009-07-25T12:43:19Z</time>
      </trkpt>
      <trkpt lat="45.50124" lon="6.74016">
        <ele>2247.0964355</ele>
        <time>2009-07-25T12:43:23Z</time>
      </trkpt>
      <trkpt lat="45.50128" lon="6.74013">
        <ele>2245.8410645</ele>
        <time>2009-07-25T12:43:26Z</time>
      </trkpt>
      <trkpt lat="45.50135" lon="6.74006">
        <ele>2243.4509277</ele>
        <time>2009-07-25T12:43:32Z</time>
      </trkpt>
      <trkpt lat="45.50135" lon="6.74005">
        <ele>2243.2805176</ele>
        <time>2009-07-25T12:43:33Z</time>
      </trkpt>
      <trkpt lat="45.50142" lon="6.73991">
        <ele>2243.0771484</ele>
        <time>2009-07-25T12:43:39Z</time>
      </trkpt>
      <trkpt lat="45.50151" lon="6.73975">
        <ele>2242.5935059</ele>
        <time>2009-07-25T12:43:46Z</time>
      </trkpt>
      <trkpt lat="45.50161" lon="6.73966">
        <ele>2239.5388184</ele>
        <time>2009-07-25T12:43:52Z</time>
      </trkpt>
      <trkpt lat="45.50163" lon="6.73965">
        <ele>2238.5288086</ele>
        <time>2009-07-25T12:43:53Z</time>
      </trkpt>
      <trkpt lat="45.50173" lon="6.73964">
        <ele>2234.5756836</ele>
        <time>2009-07-25T12:43:58Z</time>
      </trkpt>
      <trkpt lat="45.5018" lon="6.73962">
        <ele>2232.4023438</ele>
        <time>2009-07-25T12:44:02Z</time>
      </trkpt>
      <trkpt lat="45.50189" lon="6.73962">
        <ele>2228.2636719</ele>
        <time>2009-07-25T12:44:08Z</time>
      </trkpt>
      <trkpt lat="45.50201" lon="6.73961">
        <ele>2224.654541</ele>
        <time>2009-07-25T12:44:14Z</time>
      </trkpt>
      <trkpt lat="45.50203" lon="6.73961">
        <ele>2224.1071777</ele>
        <time>2009-07-25T12:44:15Z</time>
      </trkpt>
      <trkpt lat="45.5021" lon="6.73957">
        <ele>2223.4025879</ele>
        <time>2009-07-25T12:44:20Z</time>
      </trkpt>
      <trkpt lat="45.50214" lon="6.7396">
        <ele>2220.9365234</ele>
        <time>2009-07-25T12:44:25Z</time>
      </trkpt>
      <trkpt lat="45.50216" lon="6.73962">
        <ele>2219.8977051</ele>
        <time>2009-07-25T12:44:28Z</time>
      </trkpt>
      <trkpt lat="45.50225" lon="6.73958">
        <ele>2217.8154297</ele>
        <time>2009-07-25T12:44:33Z</time>
      </trkpt>
      <trkpt lat="45.50235" lon="6.73952">
        <ele>2215.6948242</ele>
        <time>2009-07-25T12:44:39Z</time>
      </trkpt>
      <trkpt lat="45.50242" lon="6.73952">
        <ele>2212.8786621</ele>
        <time>2009-07-25T12:44:43Z</time>
      </trkpt>
      <trkpt lat="45.50243" lon="6.73951">
        <ele>2212.4421387</ele>
        <time>2009-07-25T12:44:44Z</time>
      </trkpt>
      <trkpt lat="45.50253" lon="6.73941">
        <ele>2210.8408203</ele>
        <time>2009-07-25T12:44:51Z</time>
      </trkpt>
      <trkpt lat="45.50256" lon="6.73944">
        <ele>2208.5432129</ele>
        <time>2009-07-25T12:44:55Z</time>
      </trkpt>
      <trkpt lat="45.50257" lon="6.73949">
        <ele>2207.6279297</ele>
        <time>2009-07-25T12:44:57Z</time>
      </trkpt>
      <trkpt lat="45.50256" lon="6.7396">
        <ele>2205.9052734</ele>
        <time>2009-07-25T12:45:02Z</time>
      </trkpt>
      <trkpt lat="45.50261" lon="6.73971">
        <ele>2202.4020996</ele>
        <time>2009-07-25T12:45:08Z</time>
      </trkpt>
      <trkpt lat="45.50263" lon="6.73973">
        <ele>2201.0932617</ele>
        <time>2009-07-25T12:45:11Z</time>
      </trkpt>
      <trkpt lat="45.50267" lon="6.73972">
        <ele>2199.8549805</ele>
        <time>2009-07-25T12:45:14Z</time>
      </trkpt>
      <trkpt lat="45.50275" lon="6.73967">
        <ele>2197.9204102</ele>
        <time>2009-07-25T12:45:21Z</time>
      </trkpt>
      <trkpt lat="45.50279" lon="6.73962">
        <ele>2196.9804688</ele>
        <time>2009-07-25T12:45:25Z</time>
      </trkpt>
      <trkpt lat="45.50288" lon="6.73956">
        <ele>2193.8691406</ele>
        <time>2009-07-25T12:45:32Z</time>
      </trkpt>
      <trkpt lat="45.50291" lon="6.73956">
        <ele>2192.5366211</ele>
        <time>2009-07-25T12:45:35Z</time>
      </trkpt>
      <trkpt lat="45.50297" lon="6.73951">
        <ele>2190.3071289</ele>
        <time>2009-07-25T12:45:41Z</time>
      </trkpt>
      <trkpt lat="45.50298" lon="6.7395">
        <ele>2189.8691406</ele>
        <time>2009-07-25T12:45:42Z</time>
      </trkpt>
      <trkpt lat="45.50304" lon="6.73944">
        <ele>2187.7480469</ele>
        <time>2009-07-25T12:45:49Z</time>
      </trkpt>
      <trkpt lat="45.5031" lon="6.73938">
        <ele>2185.5185547</ele>
        <time>2009-07-25T12:45:55Z</time>
      </trkpt>
      <trkpt lat="45.50316" lon="6.73931">
        <ele>2182.7207031</ele>
        <time>2009-07-25T12:46:02Z</time>
      </trkpt>
      <trkpt lat="45.50317" lon="6.73931">
        <ele>2182.1069336</ele>
        <time>2009-07-25T12:46:03Z</time>
      </trkpt>
      <trkpt lat="45.50324" lon="6.73925">
        <ele>2178.2175293</ele>
        <time>2009-07-25T12:46:10Z</time>
      </trkpt>
      <trkpt lat="45.50328" lon="6.73917">
        <ele>2175.6567383</ele>
        <time>2009-07-25T12:46:16Z</time>
      </trkpt>
      <trkpt lat="45.5033" lon="6.73908">
        <ele>2173.6418457</ele>
        <time>2009-07-25T12:46:23Z</time>
      </trkpt>
      <trkpt lat="45.50332" lon="6.739">
        <ele>2171.5671387</ele>
        <time>2009-07-25T12:46:31Z</time>
      </trkpt>
      <trkpt lat="45.50335" lon="6.73896">
        <ele>2169.4436035</ele>
        <time>2009-07-25T12:46:37Z</time>
      </trkpt>
      <trkpt lat="45.50336" lon="6.73888">
        <ele>2168.2438965</ele>
        <time>2009-07-25T12:46:42Z</time>
      </trkpt>
      <trkpt lat="45.50336" lon="6.73887">
        <ele>2168.418457</ele>
        <time>2009-07-25T12:46:43Z</time>
      </trkpt>
      <trkpt lat="45.50338" lon="6.73876">
        <ele>2168.5505371</ele>
        <time>2009-07-25T12:46:48Z</time>
      </trkpt>
      <trkpt lat="45.50342" lon="6.7387">
        <ele>2167.7160645</ele>
        <time>2009-07-25T12:46:52Z</time>
      </trkpt>
      <trkpt lat="45.5035" lon="6.73866">
        <ele>2165.189209</ele>
        <time>2009-07-25T12:46:57Z</time>
      </trkpt>
      <trkpt lat="45.5036" lon="6.73864">
        <ele>2161.4106445</ele>
        <time>2009-07-25T12:47:03Z</time>
      </trkpt>
      <trkpt lat="45.50371" lon="6.7387">
        <ele>2158.0214844</ele>
        <time>2009-07-25T12:47:09Z</time>
      </trkpt>
      <trkpt lat="45.50381" lon="6.73874">
        <ele>2155.2434082</ele>
        <time>2009-07-25T12:47:14Z</time>
      </trkpt>
      <trkpt lat="45.50394" lon="6.73875">
        <ele>2152.5283203</ele>
        <time>2009-07-25T12:47:20Z</time>
      </trkpt>
      <trkpt lat="45.50405" lon="6.73872">
        <ele>2150.923584</ele>
        <time>2009-07-25T12:47:26Z</time>
      </trkpt>
      <trkpt lat="45.50414" lon="6.73867">
        <ele>2150.5024414</ele>
        <time>2009-07-25T12:47:31Z</time>
      </trkpt>
      <trkpt lat="45.50417" lon="6.73866">
        <ele>2149.526123</ele>
        <time>2009-07-25T12:47:33Z</time>
      </trkpt>
      <trkpt lat="45.50423" lon="6.73866">
        <ele>2146.8918457</ele>
        <time>2009-07-25T12:47:38Z</time>
      </trkpt>
      <trkpt lat="45.5042" lon="6.73877">
        <ele>2145.746582</ele>
        <time>2009-07-25T12:47:43Z</time>
      </trkpt>
      <trkpt lat="45.50415" lon="6.73889">
        <ele>2143.9265137</ele>
        <time>2009-07-25T12:47:49Z</time>
      </trkpt>
      <trkpt lat="45.50417" lon="6.7389">
        <ele>2143.2983398</ele>
        <time>2009-07-25T12:47:51Z</time>
      </trkpt>
      <trkpt lat="45.50425" lon="6.73885">
        <ele>2141.5910645</ele>
        <time>2009-07-25T12:47:57Z</time>
      </trkpt>
      <trkpt lat="45.50426" lon="6.73884">
        <ele>2141.3828125</ele>
        <time>2009-07-25T12:47:58Z</time>
      </trkpt>
      <trkpt lat="45.50435" lon="6.73884">
        <ele>2138.0678711</ele>
        <time>2009-07-25T12:48:03Z</time>
      </trkpt>
      <trkpt lat="45.50441" lon="6.73879">
        <ele>2136.5415039</ele>
        <time>2009-07-25T12:48:08Z</time>
      </trkpt>
      <trkpt lat="45.50448" lon="6.73867">
        <ele>2136.1020508</ele>
        <time>2009-07-25T12:48:15Z</time>
      </trkpt>
      <trkpt lat="45.50454" lon="6.73862">
        <ele>2134.3398438</ele>
        <time>2009-07-25T12:48:20Z</time>
      </trkpt>
      <trkpt lat="45.50455" lon="6.73861">
        <ele>2133.8774414</ele>
        <time>2009-07-25T12:48:21Z</time>
      </trkpt>
      <trkpt lat="45.5046" lon="6.73857">
        <ele>2132.2636719</ele>
        <time>2009-07-25T12:48:24Z</time>
      </trkpt>
      <trkpt lat="45.50466" lon="6.73855">
        <ele>2129.661377</ele>
        <time>2009-07-25T12:48:28Z</time>
      </trkpt>
      <trkpt lat="45.50474" lon="6.73853">
        <ele>2126.3503418</ele>
        <time>2009-07-25T12:48:34Z</time>
      </trkpt>
      <trkpt lat="45.5048" lon="6.7385">
        <ele>2123.7753906</ele>
        <time>2009-07-25T12:48:39Z</time>
      </trkpt>
      <trkpt lat="45.50488" lon="6.73849">
        <ele>2119.9921875</ele>
        <time>2009-07-25T12:48:46Z</time>
      </trkpt>
      <trkpt lat="45.50492" lon="6.73846">
        <ele>2118.1655273</ele>
        <time>2009-07-25T12:48:51Z</time>
      </trkpt>
      <trkpt lat="45.50496" lon="6.73842">
        <ele>2116.8129883</ele>
        <time>2009-07-25T12:48:56Z</time>
      </trkpt>
      <trkpt lat="45.505" lon="6.73837">
        <ele>2115.4311523</ele>
        <time>2009-07-25T12:49:02Z</time>
      </trkpt>
      <trkpt lat="45.50505" lon="6.73835">
        <ele>2113.713623</ele>
        <time>2009-07-25T12:49:07Z</time>
      </trkpt>
      <trkpt lat="45.5051" lon="6.73834">
        <ele>2112.0947266</ele>
        <time>2009-07-25T12:49:11Z</time>
      </trkpt>
      <trkpt lat="45.50515" lon="6.73836">
        <ele>2109.5910645</ele>
        <time>2009-07-25T12:49:15Z</time>
      </trkpt>
      <trkpt lat="45.50517" lon="6.73836">
        <ele>2108.7900391</ele>
        <time>2009-07-25T12:49:17Z</time>
      </trkpt>
      <trkpt lat="45.5052" lon="6.7384">
        <ele>2107.1166992</ele>
        <time>2009-07-25T12:49:21Z</time>
      </trkpt>
      <trkpt lat="45.50525" lon="6.7385">
        <ele>2104.4287109</ele>
        <time>2009-07-25T12:49:27Z</time>
      </trkpt>
      <trkpt lat="45.50529" lon="6.73852">
        <ele>2102.6777344</ele>
        <time>2009-07-25T12:49:30Z</time>
      </trkpt>
      <trkpt lat="45.50534" lon="6.73849">
        <ele>2101.5349121</ele>
        <time>2009-07-25T12:49:34Z</time>
      </trkpt>
      <trkpt lat="45.5054" lon="6.7384">
        <ele>2100.25</ele>
        <time>2009-07-25T12:49:41Z</time>
      </trkpt>
      <trkpt lat="45.5054" lon="6.73838">
        <ele>2100.2399902</ele>
        <time>2009-07-25T12:49:42Z</time>
      </trkpt>
      <trkpt lat="45.50544" lon="6.73832">
        <ele>2099.2827148</ele>
        <time>2009-07-25T12:49:48Z</time>
      </trkpt>
      <trkpt lat="45.5055" lon="6.73829">
        <ele>2097.3288574</ele>
        <time>2009-07-25T12:49:54Z</time>
      </trkpt>
      <trkpt lat="45.50553" lon="6.73825">
        <ele>2096.236084</ele>
        <time>2009-07-25T12:49:59Z</time>
      </trkpt>
      <trkpt lat="45.50555" lon="6.73827">
        <ele>2095.4072266</ele>
        <time>2009-07-25T12:50:02Z</time>
      </trkpt>
      <trkpt lat="45.50558" lon="6.73835">
        <ele>2093.6462402</ele>
        <time>2009-07-25T12:50:09Z</time>
      </trkpt>
      <trkpt lat="45.50563" lon="6.73836">
        <ele>2091.5529785</ele>
        <time>2009-07-25T12:50:13Z</time>
      </trkpt>
      <trkpt lat="45.50568" lon="6.73842">
        <ele>2089.2883301</ele>
        <time>2009-07-25T12:50:19Z</time>
      </trkpt>
      <trkpt lat="45.50571" lon="6.73848">
        <ele>2088.5126953</ele>
        <time>2009-07-25T12:50:23Z</time>
      </trkpt>
      <trkpt lat="45.50576" lon="6.73852">
        <ele>2086.2666016</ele>
        <time>2009-07-25T12:50:29Z</time>
      </trkpt>
      <trkpt lat="45.50584" lon="6.73845">
        <ele>2082.7023926</ele>
        <time>2009-07-25T12:50:35Z</time>
      </trkpt>
      <trkpt lat="45.50585" lon="6.73841">
        <ele>2081.597168</ele>
        <time>2009-07-25T12:50:37Z</time>
      </trkpt>
      <trkpt lat="45.50585" lon="6.73831">
        <ele>2080.814209</ele>
        <time>2009-07-25T12:50:42Z</time>
      </trkpt>
      <trkpt lat="45.50586" lon="6.73826">
        <ele>2079.9404297</ele>
        <time>2009-07-25T12:50:45Z</time>
      </trkpt>
      <trkpt lat="45.50592" lon="6.73823">
        <ele>2076.3054199</ele>
        <time>2009-07-25T12:50:51Z</time>
      </trkpt>
      <trkpt lat="45.50593" lon="6.73824">
        <ele>2075.706543</ele>
        <time>2009-07-25T12:50:52Z</time>
      </trkpt>
      <trkpt lat="45.50595" lon="6.73825">
        <ele>2074.5263672</ele>
        <time>2009-07-25T12:50:54Z</time>
      </trkpt>
      <trkpt lat="45.50597" lon="6.73834">
        <ele>2074.4472656</ele>
        <time>2009-07-25T12:51:00Z</time>
      </trkpt>
      <trkpt lat="45.50598" lon="6.73835">
        <ele>2074.3757324</ele>
        <time>2009-07-25T12:51:01Z</time>
      </trkpt>
      <trkpt lat="45.50599" lon="6.73841">
        <ele>2074.2834473</ele>
        <time>2009-07-25T12:51:05Z</time>
      </trkpt>
      <trkpt lat="45.50606" lon="6.73838">
        <ele>2070.197998</ele>
        <time>2009-07-25T12:51:11Z</time>
      </trkpt>
      <trkpt lat="45.5061" lon="6.73834">
        <ele>2067.4855957</ele>
        <time>2009-07-25T12:51:16Z</time>
      </trkpt>
      <trkpt lat="45.50613" lon="6.73825">
        <ele>2064.2399902</ele>
        <time>2009-07-25T12:51:22Z</time>
      </trkpt>
      <trkpt lat="45.50616" lon="6.73819">
        <ele>2061.65625</ele>
        <time>2009-07-25T12:51:27Z</time>
      </trkpt>
      <trkpt lat="45.50615" lon="6.73812">
        <ele>2060.3581543</ele>
        <time>2009-07-25T12:51:31Z</time>
      </trkpt>
      <trkpt lat="45.50618" lon="6.73812">
        <ele>2059.0126953</ele>
        <time>2009-07-25T12:51:34Z</time>
      </trkpt>
      <trkpt lat="45.50625" lon="6.73819">
        <ele>2057.309082</ele>
        <time>2009-07-25T12:51:40Z</time>
      </trkpt>
      <trkpt lat="45.50628" lon="6.73831">
        <ele>2059.2250977</ele>
        <time>2009-07-25T12:51:46Z</time>
      </trkpt>
      <trkpt lat="45.50634" lon="6.73833">
        <ele>2056.9299316</ele>
        <time>2009-07-25T12:51:50Z</time>
      </trkpt>
      <trkpt lat="45.50641" lon="6.73827">
        <ele>2051.814209</ele>
        <time>2009-07-25T12:51:55Z</time>
      </trkpt>
      <trkpt lat="45.50639" lon="6.73813">
        <ele>2048.7807617</ele>
        <time>2009-07-25T12:52:01Z</time>
      </trkpt>
      <trkpt lat="45.50636" lon="6.73799">
        <ele>2046.8653564</ele>
        <time>2009-07-25T12:52:07Z</time>
      </trkpt>
      <trkpt lat="45.50637" lon="6.73793">
        <ele>2044.479248</ele>
        <time>2009-07-25T12:52:10Z</time>
      </trkpt>
      <trkpt lat="45.50642" lon="6.73783">
        <ele>2039.3233643</ele>
        <time>2009-07-25T12:52:16Z</time>
      </trkpt>
      <trkpt lat="45.50642" lon="6.73781">
        <ele>2038.5546875</ele>
        <time>2009-07-25T12:52:17Z</time>
      </trkpt>
      <trkpt lat="45.50641" lon="6.73769">
        <ele>2035.8754883</ele>
        <time>2009-07-25T12:52:23Z</time>
      </trkpt>
      <trkpt lat="45.50631" lon="6.73758">
        <ele>2037.9454346</ele>
        <time>2009-07-25T12:52:30Z</time>
      </trkpt>
      <trkpt lat="45.50629" lon="6.73757">
        <ele>2038.2857666</ele>
        <time>2009-07-25T12:52:32Z</time>
      </trkpt>
      <trkpt lat="45.50626" lon="6.73756">
        <ele>2039.5401611</ele>
        <time>2009-07-25T12:52:41Z</time>
      </trkpt>
      <trkpt lat="45.50626" lon="6.73752">
        <ele>2038.4055176</ele>
        <time>2009-07-25T12:52:49Z</time>
      </trkpt>
      <trkpt lat="45.50625" lon="6.73738">
        <ele>2034.0093994</ele>
        <time>2009-07-25T12:52:56Z</time>
      </trkpt>
      <trkpt lat="45.50621" lon="6.73734">
        <ele>2034.208374</ele>
        <time>2009-07-25T12:53:00Z</time>
      </trkpt>
      <trkpt lat="45.50618" lon="6.73733">
        <ele>2035.0286865</ele>
        <time>2009-07-25T12:53:04Z</time>
      </trkpt>
      <trkpt lat="45.50613" lon="6.73724">
        <ele>2033.958374</ele>
        <time>2009-07-25T12:53:10Z</time>
      </trkpt>
      <trkpt lat="45.50612" lon="6.73722">
        <ele>2033.6563721</ele>
        <time>2009-07-25T12:53:12Z</time>
      </trkpt>
      <trkpt lat="45.50609" lon="6.73712">
        <ele>2039.7340088</ele>
        <time>2009-07-25T12:53:19Z</time>
      </trkpt>
      <trkpt lat="45.50616" lon="6.73709">
        <ele>2033.8215332</ele>
        <time>2009-07-25T12:53:25Z</time>
      </trkpt>
      <trkpt lat="45.50618" lon="6.73707">
        <ele>2032.8310547</ele>
        <time>2009-07-25T12:53:27Z</time>
      </trkpt>
      <trkpt lat="45.50615" lon="6.73701">
        <ele>2036.4737549</ele>
        <time>2009-07-25T12:53:33Z</time>
      </trkpt>
      <trkpt lat="45.50614" lon="6.73694">
        <ele>2038.979248</ele>
        <time>2009-07-25T12:53:38Z</time>
      </trkpt>
      <trkpt lat="45.50614" lon="6.73692">
        <ele>2038.7354736</ele>
        <time>2009-07-25T12:53:39Z</time>
      </trkpt>
      <trkpt lat="45.50616" lon="6.7368">
        <ele>2038.3269043</ele>
        <time>2009-07-25T12:53:46Z</time>
      </trkpt>
      <trkpt lat="45.50616" lon="6.7367">
        <ele>2038.8813477</ele>
        <time>2009-07-25T12:53:49Z</time>
      </trkpt>
      <trkpt lat="45.50619" lon="6.73656">
        <ele>2038.0612793</ele>
        <time>2009-07-25T12:53:57Z</time>
      </trkpt>
      <trkpt lat="45.5062" lon="6.73648">
        <ele>2038.6828613</ele>
        <time>2009-07-25T12:54:01Z</time>
      </trkpt>
      <trkpt lat="45.50626" lon="6.73638">
        <ele>2035.7457275</ele>
        <time>2009-07-25T12:54:06Z</time>
      </trkpt>
      <trkpt lat="45.50636" lon="6.7363">
        <ele>2028.944458</ele>
        <time>2009-07-25T12:54:13Z</time>
      </trkpt>
      <trkpt lat="45.50636" lon="6.73622">
        <ele>2029.9057617</ele>
        <time>2009-07-25T12:54:19Z</time>
      </trkpt>
      <trkpt lat="45.50639" lon="6.73599">
        <ele>2029.987915</ele>
        <time>2009-07-25T12:54:29Z</time>
      </trkpt>
      <trkpt lat="45.50641" lon="6.73583">
        <ele>2029.2922363</ele>
        <time>2009-07-25T12:54:35Z</time>
      </trkpt>
      <trkpt lat="45.50645" lon="6.73569">
        <ele>2026.6450195</ele>
        <time>2009-07-25T12:54:42Z</time>
      </trkpt>
      <trkpt lat="45.5065" lon="6.73554">
        <ele>2023.8994141</ele>
        <time>2009-07-25T12:54:51Z</time>
      </trkpt>
      <trkpt lat="45.50657" lon="6.7354">
        <ele>2022.3463135</ele>
        <time>2009-07-25T12:54:59Z</time>
      </trkpt>
      <trkpt lat="45.50661" lon="6.73527">
        <ele>2022.1619873</ele>
        <time>2009-07-25T12:55:05Z</time>
      </trkpt>
      <trkpt lat="45.50665" lon="6.73518">
        <ele>2021.3236084</ele>
        <time>2009-07-25T12:55:09Z</time>
      </trkpt>
      <trkpt lat="45.50673" lon="6.73503">
        <ele>2021.0141602</ele>
        <time>2009-07-25T12:55:17Z</time>
      </trkpt>
      <trkpt lat="45.50681" lon="6.73485">
        <ele>2019.7365723</ele>
        <time>2009-07-25T12:55:28Z</time>
      </trkpt>
      <trkpt lat="45.50687" lon="6.73478">
        <ele>2017.6851807</ele>
        <time>2009-07-25T12:55:33Z</time>
      </trkpt>
      <trkpt lat="45.50691" lon="6.73468">
        <ele>2017.3554688</ele>
        <time>2009-07-25T12:55:39Z</time>
      </trkpt>
      <trkpt lat="45.50696" lon="6.73451">
        <ele>2017.6373291</ele>
        <time>2009-07-25T12:55:47Z</time>
      </trkpt>
      <trkpt lat="45.50699" lon="6.73445">
        <ele>2017.9046631</ele>
        <time>2009-07-25T12:55:50Z</time>
      </trkpt>
      <trkpt lat="45.50704" lon="6.73443">
        <ele>2017.15625</ele>
        <time>2009-07-25T12:55:54Z</time>
      </trkpt>
      <trkpt lat="45.50713" lon="6.73441">
        <ele>2016.1202393</ele>
        <time>2009-07-25T12:56:01Z</time>
      </trkpt>
      <trkpt lat="45.50723" lon="6.73431">
        <ele>2017.0953369</ele>
        <time>2009-07-25T12:56:09Z</time>
      </trkpt>
      <trkpt lat="45.50732" lon="6.73425">
        <ele>2015.8404541</ele>
        <time>2009-07-25T12:56:16Z</time>
      </trkpt>
      <trkpt lat="45.5074" lon="6.73416">
        <ele>2016.0609131</ele>
        <time>2009-07-25T12:56:23Z</time>
      </trkpt>
      <trkpt lat="45.50746" lon="6.73408">
        <ele>2016.2720947</ele>
        <time>2009-07-25T12:56:28Z</time>
      </trkpt>
      <trkpt lat="45.50752" lon="6.734">
        <ele>2016.4976807</ele>
        <time>2009-07-25T12:56:34Z</time>
      </trkpt>
      <trkpt lat="45.50762" lon="6.73386">
        <ele>2017.1087646</ele>
        <time>2009-07-25T12:56:44Z</time>
      </trkpt>
      <trkpt lat="45.50771" lon="6.73372">
        <ele>2016.651123</ele>
        <time>2009-07-25T12:56:53Z</time>
      </trkpt>
      <trkpt lat="45.50777" lon="6.73363">
        <ele>2015.9580078</ele>
        <time>2009-07-25T12:56:58Z</time>
      </trkpt>
      <trkpt lat="45.50782" lon="6.73352">
        <ele>2016.5040283</ele>
        <time>2009-07-25T12:57:05Z</time>
      </trkpt>
      <trkpt lat="45.50786" lon="6.73344">
        <ele>2017.4180908</ele>
        <time>2009-07-25T12:57:12Z</time>
      </trkpt>
      <trkpt lat="45.50789" lon="6.73338">
        <ele>2017.7822266</ele>
        <time>2009-07-25T12:57:19Z</time>
      </trkpt>
      <trkpt lat="45.50797" lon="6.73332">
        <ele>2017.560791</ele>
        <time>2009-07-25T12:57:28Z</time>
      </trkpt>
      <trkpt lat="45.50798" lon="6.73329">
        <ele>2018.0827637</ele>
        <time>2009-07-25T12:57:31Z</time>
      </trkpt>
      <trkpt lat="45.50805" lon="6.7332">
        <ele>2018.9204102</ele>
        <time>2009-07-25T12:57:39Z</time>
      </trkpt>
      <trkpt lat="45.5081" lon="6.73313">
        <ele>2019.1557617</ele>
        <time>2009-07-25T12:57:45Z</time>
      </trkpt>
      <trkpt lat="45.50817" lon="6.73303">
        <ele>2018.977417</ele>
        <time>2009-07-25T12:57:53Z</time>
      </trkpt>
      <trkpt lat="45.50825" lon="6.73285">
        <ele>2018.9649658</ele>
        <time>2009-07-25T12:58:03Z</time>
      </trkpt>
      <trkpt lat="45.50826" lon="6.73278">
        <ele>2019.7645264</ele>
        <time>2009-07-25T12:58:07Z</time>
      </trkpt>
      <trkpt lat="45.50828" lon="6.73269">
        <ele>2019.7584229</ele>
        <time>2009-07-25T12:58:12Z</time>
      </trkpt>
      <trkpt lat="45.50834" lon="6.73265">
        <ele>2017.3909912</ele>
        <time>2009-07-25T12:58:16Z</time>
      </trkpt>
      <trkpt lat="45.50841" lon="6.73255">
        <ele>2017.2816162</ele>
        <time>2009-07-25T12:58:24Z</time>
      </trkpt>
      <trkpt lat="45.50845" lon="6.73251">
        <ele>2017.2886963</ele>
        <time>2009-07-25T12:58:28Z</time>
      </trkpt>
      <trkpt lat="45.50853" lon="6.73246">
        <ele>2017.3295898</ele>
        <time>2009-07-25T12:58:36Z</time>
      </trkpt>
      <trkpt lat="45.5086" lon="6.73241">
        <ele>2017.4932861</ele>
        <time>2009-07-25T12:58:43Z</time>
      </trkpt>
      <trkpt lat="45.50869" lon="6.73235">
        <ele>2018.8186035</ele>
        <time>2009-07-25T12:58:51Z</time>
      </trkpt>
      <trkpt lat="45.50874" lon="6.73235">
        <ele>2019.0894775</ele>
        <time>2009-07-25T12:58:55Z</time>
      </trkpt>
      <trkpt lat="45.50883" lon="6.7323">
        <ele>2020.6655273</ele>
        <time>2009-07-25T12:59:04Z</time>
      </trkpt>
      <trkpt lat="45.50893" lon="6.73225">
        <ele>2022.0529785</ele>
        <time>2009-07-25T12:59:12Z</time>
      </trkpt>
      <trkpt lat="45.50906" lon="6.73219">
        <ele>2023.9241943</ele>
        <time>2009-07-25T12:59:22Z</time>
      </trkpt>
      <trkpt lat="45.50917" lon="6.7321">
        <ele>2026.4586182</ele>
        <time>2009-07-25T12:59:31Z</time>
      </trkpt>
      <trkpt lat="45.50931" lon="6.73201">
        <ele>2026.3619385</ele>
        <time>2009-07-25T12:59:41Z</time>
      </trkpt>
      <trkpt lat="45.50942" lon="6.73197">
        <ele>2026.4508057</ele>
        <time>2009-07-25T12:59:49Z</time>
      </trkpt>
      <trkpt lat="45.50951" lon="6.73193">
        <ele>2026.4558105</ele>
        <time>2009-07-25T12:59:56Z</time>
      </trkpt>
      <trkpt lat="45.50962" lon="6.73189">
        <ele>2025.4549561</ele>
        <time>2009-07-25T13:00:04Z</time>
      </trkpt>
      <trkpt lat="45.50975" lon="6.73188">
        <ele>2023.9736328</ele>
        <time>2009-07-25T13:00:12Z</time>
      </trkpt>
      <trkpt lat="45.50984" lon="6.73184">
        <ele>2024.1744385</ele>
        <time>2009-07-25T13:00:19Z</time>
      </trkpt>
      <trkpt lat="45.50991" lon="6.7318">
        <ele>2024.5350342</ele>
        <time>2009-07-25T13:00:24Z</time>
      </trkpt>
      <trkpt lat="45.51003" lon="6.73176">
        <ele>2024.5440674</ele>
        <time>2009-07-25T13:00:33Z</time>
      </trkpt>
      <trkpt lat="45.51011" lon="6.73171">
        <ele>2025.7357178</ele>
        <time>2009-07-25T13:00:40Z</time>
      </trkpt>
      <trkpt lat="45.51018" lon="6.73169">
        <ele>2025.8687744</ele>
        <time>2009-07-25T13:00:46Z</time>
      </trkpt>
      <trkpt lat="45.51025" lon="6.73165">
        <ele>2026.9431152</ele>
        <time>2009-07-25T13:00:53Z</time>
      </trkpt>
      <trkpt lat="45.51031" lon="6.73163">
        <ele>2027.4887695</ele>
        <time>2009-07-25T13:00:58Z</time>
      </trkpt>
      <trkpt lat="45.51039" lon="6.73169">
        <ele>2025.3812256</ele>
        <time>2009-07-25T13:01:05Z</time>
      </trkpt>
      <trkpt lat="45.51046" lon="6.7317">
        <ele>2025.0699463</ele>
        <time>2009-07-25T13:01:11Z</time>
      </trkpt>
      <trkpt lat="45.51053" lon="6.73169">
        <ele>2025.8166504</ele>
        <time>2009-07-25T13:01:17Z</time>
      </trkpt>
      <trkpt lat="45.51059" lon="6.73166">
        <ele>2027.3081055</ele>
        <time>2009-07-25T13:01:23Z</time>
      </trkpt>
      <trkpt lat="45.51065" lon="6.73165">
        <ele>2027.9133301</ele>
        <time>2009-07-25T13:01:29Z</time>
      </trkpt>
      <trkpt lat="45.51067" lon="6.73169">
        <ele>2026.3338623</ele>
        <time>2009-07-25T13:01:33Z</time>
      </trkpt>
      <trkpt lat="45.51073" lon="6.7317">
        <ele>2026.1503906</ele>
        <time>2009-07-25T13:01:38Z</time>
      </trkpt>
      <trkpt lat="45.51084" lon="6.73173">
        <ele>2025.0352783</ele>
        <time>2009-07-25T13:01:46Z</time>
      </trkpt>
      <trkpt lat="45.51092" lon="6.73171">
        <ele>2027.529541</ele>
        <time>2009-07-25T13:01:53Z</time>
      </trkpt>
      <trkpt lat="45.51103" lon="6.73166">
        <ele>2031.0761719</ele>
        <time>2009-07-25T13:02:01Z</time>
      </trkpt>
      <trkpt lat="45.5111" lon="6.73159">
        <ele>2034.0024414</ele>
        <time>2009-07-25T13:02:08Z</time>
      </trkpt>
      <trkpt lat="45.51117" lon="6.73156">
        <ele>2034.5441895</ele>
        <time>2009-07-25T13:02:14Z</time>
      </trkpt>
      <trkpt lat="45.51125" lon="6.73154">
        <ele>2034.4909668</ele>
        <time>2009-07-25T13:02:20Z</time>
      </trkpt>
      <trkpt lat="45.51135" lon="6.73149">
        <ele>2034.8302002</ele>
        <time>2009-07-25T13:02:28Z</time>
      </trkpt>
      <trkpt lat="45.51144" lon="6.73147">
        <ele>2033.8151855</ele>
        <time>2009-07-25T13:02:35Z</time>
      </trkpt>
      <trkpt lat="45.51151" lon="6.73142">
        <ele>2033.0773926</ele>
        <time>2009-07-25T13:02:39Z</time>
      </trkpt>
      <trkpt lat="45.5116" lon="6.73139">
        <ele>2031.805542</ele>
        <time>2009-07-25T13:02:45Z</time>
      </trkpt>
      <trkpt lat="45.51169" lon="6.73135">
        <ele>2031.5441895</ele>
        <time>2009-07-25T13:02:52Z</time>
      </trkpt>
      <trkpt lat="45.51171" lon="6.73132">
        <ele>2032.3592529</ele>
        <time>2009-07-25T13:02:55Z</time>
      </trkpt>
      <trkpt lat="45.51179" lon="6.73136">
        <ele>2029.4929199</ele>
        <time>2009-07-25T13:03:02Z</time>
      </trkpt>
      <trkpt lat="45.51181" lon="6.73136">
        <ele>2028.9805908</ele>
        <time>2009-07-25T13:03:04Z</time>
      </trkpt>
      <trkpt lat="45.51193" lon="6.73134">
        <ele>2027.6784668</ele>
        <time>2009-07-25T13:03:13Z</time>
      </trkpt>
      <trkpt lat="45.51197" lon="6.73134">
        <ele>2027.1306152</ele>
        <time>2009-07-25T13:03:16Z</time>
      </trkpt>
      <trkpt lat="45.51207" lon="6.73126">
        <ele>2027.8172607</ele>
        <time>2009-07-25T13:03:24Z</time>
      </trkpt>
      <trkpt lat="45.5121" lon="6.73122">
        <ele>2028.6000977</ele>
        <time>2009-07-25T13:03:27Z</time>
      </trkpt>
      <trkpt lat="45.51219" lon="6.73115">
        <ele>2029.3415527</ele>
        <time>2009-07-25T13:03:34Z</time>
      </trkpt>
      <trkpt lat="45.51224" lon="6.73113">
        <ele>2029.1271973</ele>
        <time>2009-07-25T13:03:38Z</time>
      </trkpt>
      <trkpt lat="45.51228" lon="6.73111">
        <ele>2028.8840332</ele>
        <time>2009-07-25T13:03:41Z</time>
      </trkpt>
      <trkpt lat="45.51236" lon="6.73109">
        <ele>2028.5211182</ele>
        <time>2009-07-25T13:03:46Z</time>
      </trkpt>
      <trkpt lat="45.51244" lon="6.73108">
        <ele>2027.2369385</ele>
        <time>2009-07-25T13:03:52Z</time>
      </trkpt>
      <trkpt lat="45.51251" lon="6.73109">
        <ele>2025.5946045</ele>
        <time>2009-07-25T13:03:57Z</time>
      </trkpt>
      <trkpt lat="45.51255" lon="6.73105">
        <ele>2026.5107422</ele>
        <time>2009-07-25T13:04:00Z</time>
      </trkpt>
      <trkpt lat="45.5126" lon="6.73105">
        <ele>2025.6807861</ele>
        <time>2009-07-25T13:04:04Z</time>
      </trkpt>
      <trkpt lat="45.51273" lon="6.73096">
        <ele>2026.6529541</ele>
        <time>2009-07-25T13:04:14Z</time>
      </trkpt>
      <trkpt lat="45.51283" lon="6.73089">
        <ele>2026.7618408</ele>
        <time>2009-07-25T13:04:22Z</time>
      </trkpt>
      <trkpt lat="45.51291" lon="6.73082">
        <ele>2027.3842773</ele>
        <time>2009-07-25T13:04:29Z</time>
      </trkpt>
      <trkpt lat="45.51299" lon="6.73083">
        <ele>2025.409668</ele>
        <time>2009-07-25T13:04:36Z</time>
      </trkpt>
      <trkpt lat="45.51305" lon="6.73082">
        <ele>2024.6594238</ele>
        <time>2009-07-25T13:04:42Z</time>
      </trkpt>
      <trkpt lat="45.51318" lon="6.73083">
        <ele>2023.9780273</ele>
        <time>2009-07-25T13:04:51Z</time>
      </trkpt>
      <trkpt lat="45.51327" lon="6.73075">
        <ele>2029.8018799</ele>
        <time>2009-07-25T13:04:58Z</time>
      </trkpt>
      <trkpt lat="45.51334" lon="6.7307">
        <ele>2032.2799072</ele>
        <time>2009-07-25T13:05:05Z</time>
      </trkpt>
      <trkpt lat="45.51335" lon="6.73071">
        <ele>2031.7602539</ele>
        <time>2009-07-25T13:05:07Z</time>
      </trkpt>
      <trkpt lat="45.51339" lon="6.73074">
        <ele>2029.2537842</ele>
        <time>2009-07-25T13:05:13Z</time>
      </trkpt>
      <trkpt lat="45.51342" lon="6.73082">
        <ele>2024.6594238</ele>
        <time>2009-07-25T13:05:20Z</time>
      </trkpt>
      <trkpt lat="45.51343" lon="6.7308">
        <ele>2025.8768311</ele>
        <time>2009-07-25T13:05:25Z</time>
      </trkpt>
      <trkpt lat="45.51347" lon="6.7308">
        <ele>2025.7252197</ele>
        <time>2009-07-25T13:05:31Z</time>
      </trkpt>
      <trkpt lat="45.51352" lon="6.7308">
        <ele>2025.3532715</ele>
        <time>2009-07-25T13:05:37Z</time>
      </trkpt>
      <trkpt lat="45.51355" lon="6.73083">
        <ele>2024.2867432</ele>
        <time>2009-07-25T13:05:42Z</time>
      </trkpt>
      <trkpt lat="45.5136" lon="6.73088">
        <ele>2022.5413818</ele>
        <time>2009-07-25T13:05:50Z</time>
      </trkpt>
      <trkpt lat="45.51364" lon="6.73093">
        <ele>2021.758667</ele>
        <time>2009-07-25T13:05:56Z</time>
      </trkpt>
      <trkpt lat="45.51371" lon="6.73095">
        <ele>2022.4658203</ele>
        <time>2009-07-25T13:06:03Z</time>
      </trkpt>
      <trkpt lat="45.51372" lon="6.73096">
        <ele>2022.5688477</ele>
        <time>2009-07-25T13:06:04Z</time>
      </trkpt>
      <trkpt lat="45.51379" lon="6.73099">
        <ele>2023.5610352</ele>
        <time>2009-07-25T13:06:12Z</time>
      </trkpt>
      <trkpt lat="45.51382" lon="6.73103">
        <ele>2023.0202637</ele>
        <time>2009-07-25T13:06:18Z</time>
      </trkpt>
      <trkpt lat="45.51386" lon="6.73105">
        <ele>2023.0975342</ele>
        <time>2009-07-25T13:06:26Z</time>
      </trkpt>
      <trkpt lat="45.51389" lon="6.73109">
        <ele>2022.758667</ele>
        <time>2009-07-25T13:06:33Z</time>
      </trkpt>
      <trkpt lat="45.51391" lon="6.73111">
        <ele>2022.9790039</ele>
        <time>2009-07-25T13:06:38Z</time>
      </trkpt>
      <trkpt lat="45.51396" lon="6.73111">
        <ele>2024.7764893</ele>
        <time>2009-07-25T13:06:48Z</time>
      </trkpt>
      <trkpt lat="45.51398" lon="6.73105">
        <ele>2027.0839844</ele>
        <time>2009-07-25T13:06:55Z</time>
      </trkpt>
      <trkpt lat="45.51401" lon="6.73101">
        <ele>2029.5118408</ele>
        <time>2009-07-25T13:07:02Z</time>
      </trkpt>
      <trkpt lat="45.51402" lon="6.73096">
        <ele>2031.6049805</ele>
        <time>2009-07-25T13:07:09Z</time>
      </trkpt>
      <trkpt lat="45.51405" lon="6.73094">
        <ele>2032.8303223</ele>
        <time>2009-07-25T13:07:14Z</time>
      </trkpt>
      <trkpt lat="45.51408" lon="6.73094">
        <ele>2034.0064697</ele>
        <time>2009-07-25T13:07:22Z</time>
      </trkpt>
      <trkpt lat="45.51413" lon="6.73094">
        <ele>2035.6112061</ele>
        <time>2009-07-25T13:07:32Z</time>
      </trkpt>
      <trkpt lat="45.51415" lon="6.73093">
        <ele>2036.8273926</ele>
        <time>2009-07-25T13:07:39Z</time>
      </trkpt>
      <trkpt lat="45.51419" lon="6.73092">
        <ele>2038.1090088</ele>
        <time>2009-07-25T13:07:47Z</time>
      </trkpt>
      <trkpt lat="45.51424" lon="6.73092">
        <ele>2039.5147705</ele>
        <time>2009-07-25T13:07:55Z</time>
      </trkpt>
      <trkpt lat="45.51429" lon="6.7309">
        <ele>2041.1271973</ele>
        <time>2009-07-25T13:08:01Z</time>
      </trkpt>
      <trkpt lat="45.51435" lon="6.73088">
        <ele>2043.0748291</ele>
        <time>2009-07-25T13:08:09Z</time>
      </trkpt>
      <trkpt lat="45.5144" lon="6.73088">
        <ele>2044.6290283</ele>
        <time>2009-07-25T13:08:17Z</time>
      </trkpt>
      <trkpt lat="45.51444" lon="6.73087">
        <ele>2045.6618652</ele>
        <time>2009-07-25T13:08:24Z</time>
      </trkpt>
      <trkpt lat="45.51451" lon="6.73089">
        <ele>2047.503418</ele>
        <time>2009-07-25T13:08:33Z</time>
      </trkpt>
      <trkpt lat="45.51456" lon="6.7309">
        <ele>2048.7338867</ele>
        <time>2009-07-25T13:08:40Z</time>
      </trkpt>
      <trkpt lat="45.51463" lon="6.73093">
        <ele>2050.2092285</ele>
        <time>2009-07-25T13:08:48Z</time>
      </trkpt>
      <trkpt lat="45.51474" lon="6.73097">
        <ele>2052.1357422</ele>
        <time>2009-07-25T13:08:57Z</time>
      </trkpt>
      <trkpt lat="45.51482" lon="6.73099">
        <ele>2053.2075195</ele>
        <time>2009-07-25T13:09:04Z</time>
      </trkpt>
      <trkpt lat="45.51491" lon="6.73102">
        <ele>2054.255127</ele>
        <time>2009-07-25T13:09:12Z</time>
      </trkpt>
      <trkpt lat="45.51493" lon="6.73102">
        <ele>2054.8088379</ele>
        <time>2009-07-25T13:09:13Z</time>
      </trkpt>
      <trkpt lat="45.51503" lon="6.73108">
        <ele>2055.1899414</ele>
        <time>2009-07-25T13:09:21Z</time>
      </trkpt>
      <trkpt lat="45.51512" lon="6.73115">
        <ele>2053.5043945</ele>
        <time>2009-07-25T13:09:29Z</time>
      </trkpt>
      <trkpt lat="45.51522" lon="6.73117">
        <ele>2054.0771484</ele>
        <time>2009-07-25T13:09:36Z</time>
      </trkpt>
      <trkpt lat="45.51535" lon="6.73116">
        <ele>2055.217041</ele>
        <time>2009-07-25T13:09:45Z</time>
      </trkpt>
      <trkpt lat="45.51542" lon="6.73112">
        <ele>2056.918457</ele>
        <time>2009-07-25T13:09:51Z</time>
      </trkpt>
      <trkpt lat="45.51549" lon="6.7311">
        <ele>2058.0732422</ele>
        <time>2009-07-25T13:09:56Z</time>
      </trkpt>
      <trkpt lat="45.51556" lon="6.73109">
        <ele>2058.4992676</ele>
        <time>2009-07-25T13:10:02Z</time>
      </trkpt>
      <trkpt lat="45.51559" lon="6.73108">
        <ele>2058.5957031</ele>
        <time>2009-07-25T13:10:04Z</time>
      </trkpt>
      <trkpt lat="45.51566" lon="6.7311">
        <ele>2057.0488281</ele>
        <time>2009-07-25T13:10:11Z</time>
      </trkpt>
      <trkpt lat="45.51577" lon="6.73112">
        <ele>2055.2780762</ele>
        <time>2009-07-25T13:10:20Z</time>
      </trkpt>
      <trkpt lat="45.51579" lon="6.73115">
        <ele>2053.6503906</ele>
        <time>2009-07-25T13:10:24Z</time>
      </trkpt>
      <trkpt lat="45.51585" lon="6.73121">
        <ele>2051.5053711</ele>
        <time>2009-07-25T13:10:31Z</time>
      </trkpt>
      <trkpt lat="45.5159" lon="6.73124">
        <ele>2051.685791</ele>
        <time>2009-07-25T13:10:35Z</time>
      </trkpt>
      <trkpt lat="45.51597" lon="6.73131">
        <ele>2051.6225586</ele>
        <time>2009-07-25T13:10:41Z</time>
      </trkpt>
      <trkpt lat="45.51606" lon="6.73136">
        <ele>2053.237793</ele>
        <time>2009-07-25T13:10:49Z</time>
      </trkpt>
      <trkpt lat="45.51619" lon="6.7314">
        <ele>2054.5405273</ele>
        <time>2009-07-25T13:10:57Z</time>
      </trkpt>
      <trkpt lat="45.51633" lon="6.73145">
        <ele>2052.8994141</ele>
        <time>2009-07-25T13:11:05Z</time>
      </trkpt>
      <trkpt lat="45.51641" lon="6.73149">
        <ele>2051.2675781</ele>
        <time>2009-07-25T13:11:11Z</time>
      </trkpt>
      <trkpt lat="45.51649" lon="6.73156">
        <ele>2049.1469727</ele>
        <time>2009-07-25T13:11:18Z</time>
      </trkpt>
      <trkpt lat="45.51659" lon="6.73168">
        <ele>2046.5740967</ele>
        <time>2009-07-25T13:11:27Z</time>
      </trkpt>
      <trkpt lat="45.51671" lon="6.73176">
        <ele>2047.9143066</ele>
        <time>2009-07-25T13:11:36Z</time>
      </trkpt>
      <trkpt lat="45.51673" lon="6.73177">
        <ele>2048.0656738</ele>
        <time>2009-07-25T13:11:38Z</time>
      </trkpt>
      <trkpt lat="45.5168" lon="6.73183">
        <ele>2048.0373535</ele>
        <time>2009-07-25T13:11:45Z</time>
      </trkpt>
      <trkpt lat="45.51682" lon="6.73184">
        <ele>2048.3049316</ele>
        <time>2009-07-25T13:11:46Z</time>
      </trkpt>
      <trkpt lat="45.51698" lon="6.73182">
        <ele>2051.001709</ele>
        <time>2009-07-25T13:11:57Z</time>
      </trkpt>
      <trkpt lat="45.51707" lon="6.73179">
        <ele>2049.9072266</ele>
        <time>2009-07-25T13:12:02Z</time>
      </trkpt>
      <trkpt lat="45.51717" lon="6.73172">
        <ele>2049.2590332</ele>
        <time>2009-07-25T13:12:08Z</time>
      </trkpt>
      <trkpt lat="45.51721" lon="6.73168">
        <ele>2048.9438477</ele>
        <time>2009-07-25T13:12:12Z</time>
      </trkpt>
      <trkpt lat="45.51728" lon="6.73165">
        <ele>2047.6849365</ele>
        <time>2009-07-25T13:12:17Z</time>
      </trkpt>
      <trkpt lat="45.51735" lon="6.73161">
        <ele>2046.2562256</ele>
        <time>2009-07-25T13:12:22Z</time>
      </trkpt>
      <trkpt lat="45.51743" lon="6.73159">
        <ele>2044.244751</ele>
        <time>2009-07-25T13:12:28Z</time>
      </trkpt>
      <trkpt lat="45.51748" lon="6.73159">
        <ele>2042.8900146</ele>
        <time>2009-07-25T13:12:32Z</time>
      </trkpt>
      <trkpt lat="45.51756" lon="6.73157">
        <ele>2042.1265869</ele>
        <time>2009-07-25T13:12:39Z</time>
      </trkpt>
      <trkpt lat="45.51767" lon="6.73155">
        <ele>2041.5545654</ele>
        <time>2009-07-25T13:12:47Z</time>
      </trkpt>
      <trkpt lat="45.51774" lon="6.73155">
        <ele>2040.722168</ele>
        <time>2009-07-25T13:12:52Z</time>
      </trkpt>
      <trkpt lat="45.51781" lon="6.73155">
        <ele>2040.4786377</ele>
        <time>2009-07-25T13:12:58Z</time>
      </trkpt>
      <trkpt lat="45.51789" lon="6.73155">
        <ele>2040.8535156</ele>
        <time>2009-07-25T13:13:04Z</time>
      </trkpt>
      <trkpt lat="45.51797" lon="6.73153">
        <ele>2042.4725342</ele>
        <time>2009-07-25T13:13:09Z</time>
      </trkpt>
      <trkpt lat="45.51804" lon="6.73155">
        <ele>2042.2023926</ele>
        <time>2009-07-25T13:13:15Z</time>
      </trkpt>
      <trkpt lat="45.51808" lon="6.73152">
        <ele>2043.0721436</ele>
        <time>2009-07-25T13:13:18Z</time>
      </trkpt>
      <trkpt lat="45.51818" lon="6.73148">
        <ele>2043.5183105</ele>
        <time>2009-07-25T13:13:24Z</time>
      </trkpt>
      <trkpt lat="45.51828" lon="6.7314">
        <ele>2045.8900146</ele>
        <time>2009-07-25T13:13:30Z</time>
      </trkpt>
      <trkpt lat="45.5183" lon="6.7314">
        <ele>2045.8848877</ele>
        <time>2009-07-25T13:13:31Z</time>
      </trkpt>
      <trkpt lat="45.51838" lon="6.73143">
        <ele>2043.8417969</ele>
        <time>2009-07-25T13:13:39Z</time>
      </trkpt>
      <trkpt lat="45.51846" lon="6.73145">
        <ele>2042.0712891</ele>
        <time>2009-07-25T13:13:45Z</time>
      </trkpt>
      <trkpt lat="45.51854" lon="6.73141">
        <ele>2042.3739014</ele>
        <time>2009-07-25T13:13:51Z</time>
      </trkpt>
      <trkpt lat="45.51863" lon="6.73142">
        <ele>2040.9503174</ele>
        <time>2009-07-25T13:13:57Z</time>
      </trkpt>
      <trkpt lat="45.51869" lon="6.73143">
        <ele>2040.7263184</ele>
        <time>2009-07-25T13:14:02Z</time>
      </trkpt>
      <trkpt lat="45.5188" lon="6.73145">
        <ele>2040.3033447</ele>
        <time>2009-07-25T13:14:09Z</time>
      </trkpt>
      <trkpt lat="45.51889" lon="6.73143">
        <ele>2041.2506104</ele>
        <time>2009-07-25T13:14:16Z</time>
      </trkpt>
      <trkpt lat="45.51891" lon="6.73141">
        <ele>2042.0291748</ele>
        <time>2009-07-25T13:14:18Z</time>
      </trkpt>
      <trkpt lat="45.51899" lon="6.73136">
        <ele>2044.9929199</ele>
        <time>2009-07-25T13:14:27Z</time>
      </trkpt>
      <trkpt lat="45.51908" lon="6.73137">
        <ele>2045.5252686</ele>
        <time>2009-07-25T13:14:35Z</time>
      </trkpt>
      <trkpt lat="45.51915" lon="6.73139">
        <ele>2045.0135498</ele>
        <time>2009-07-25T13:14:42Z</time>
      </trkpt>
      <trkpt lat="45.51922" lon="6.73134">
        <ele>2046.7387695</ele>
        <time>2009-07-25T13:14:48Z</time>
      </trkpt>
      <trkpt lat="45.51926" lon="6.73134">
        <ele>2045.782959</ele>
        <time>2009-07-25T13:14:52Z</time>
      </trkpt>
      <trkpt lat="45.51933" lon="6.7313">
        <ele>2046.5249023</ele>
        <time>2009-07-25T13:14:57Z</time>
      </trkpt>
      <trkpt lat="45.51939" lon="6.73124">
        <ele>2048.7568359</ele>
        <time>2009-07-25T13:15:02Z</time>
      </trkpt>
      <trkpt lat="45.51947" lon="6.73125">
        <ele>2047.1599121</ele>
        <time>2009-07-25T13:15:09Z</time>
      </trkpt>
      <trkpt lat="45.51958" lon="6.73124">
        <ele>2046.4648438</ele>
        <time>2009-07-25T13:15:18Z</time>
      </trkpt>
      <trkpt lat="45.51965" lon="6.73126">
        <ele>2044.4840088</ele>
        <time>2009-07-25T13:15:24Z</time>
      </trkpt>
      <trkpt lat="45.51976" lon="6.73122">
        <ele>2044.6029053</ele>
        <time>2009-07-25T13:15:32Z</time>
      </trkpt>
      <trkpt lat="45.51986" lon="6.7312">
        <ele>2043.6005859</ele>
        <time>2009-07-25T13:15:39Z</time>
      </trkpt>
      <trkpt lat="45.51994" lon="6.73115">
        <ele>2044.2563477</ele>
        <time>2009-07-25T13:15:45Z</time>
      </trkpt>
      <trkpt lat="45.52003" lon="6.73112">
        <ele>2044.0960693</ele>
        <time>2009-07-25T13:15:50Z</time>
      </trkpt>
      <trkpt lat="45.5201" lon="6.73111">
        <ele>2042.4327393</ele>
        <time>2009-07-25T13:15:54Z</time>
      </trkpt>
      <trkpt lat="45.52015" lon="6.73115">
        <ele>2039.3391113</ele>
        <time>2009-07-25T13:15:59Z</time>
      </trkpt>
      <trkpt lat="45.52021" lon="6.73118">
        <ele>2036.9179688</ele>
        <time>2009-07-25T13:16:05Z</time>
      </trkpt>
      <trkpt lat="45.52024" lon="6.73118">
        <ele>2036.4862061</ele>
        <time>2009-07-25T13:16:07Z</time>
      </trkpt>
      <trkpt lat="45.52031" lon="6.7312">
        <ele>2035.418457</ele>
        <time>2009-07-25T13:16:13Z</time>
      </trkpt>
      <trkpt lat="45.52034" lon="6.73119">
        <ele>2036.0769043</ele>
        <time>2009-07-25T13:16:16Z</time>
      </trkpt>
      <trkpt lat="45.52041" lon="6.73112">
        <ele>2039.1470947</ele>
        <time>2009-07-25T13:16:24Z</time>
      </trkpt>
      <trkpt lat="45.52043" lon="6.73104">
        <ele>2041.1824951</ele>
        <time>2009-07-25T13:16:29Z</time>
      </trkpt>
      <trkpt lat="45.52044" lon="6.73096">
        <ele>2042.8343506</ele>
        <time>2009-07-25T13:16:36Z</time>
      </trkpt>
      <trkpt lat="45.52044" lon="6.73085">
        <ele>2044.8746338</ele>
        <time>2009-07-25T13:16:42Z</time>
      </trkpt>
      <trkpt lat="45.52043" lon="6.73078">
        <ele>2046.3486328</ele>
        <time>2009-07-25T13:16:48Z</time>
      </trkpt>
      <trkpt lat="45.52043" lon="6.73078">
        <ele>2046.5075684</ele>
        <time>2009-07-25T13:16:54Z</time>
      </trkpt>
      <trkpt lat="45.52042" lon="6.73077">
        <ele>2046.9197998</ele>
        <time>2009-07-25T13:17:02Z</time>
      </trkpt>
      <trkpt lat="45.52042" lon="6.73075">
        <ele>2047.2294922</ele>
        <time>2009-07-25T13:17:08Z</time>
      </trkpt>
      <trkpt lat="45.52042" lon="6.73075">
        <ele>2047.348877</ele>
        <time>2009-07-25T13:17:23Z</time>
      </trkpt>
      <trkpt lat="45.5204" lon="6.73074">
        <ele>2047.7315674</ele>
        <time>2009-07-25T13:17:35Z</time>
      </trkpt>
      <trkpt lat="45.5204" lon="6.73072">
        <ele>2048.1748047</ele>
        <time>2009-07-25T13:17:43Z</time>
      </trkpt>
      <trkpt lat="45.52042" lon="6.73063">
        <ele>2049.7392578</ele>
        <time>2009-07-25T13:17:49Z</time>
      </trkpt>
      <trkpt lat="45.52049" lon="6.73053">
        <ele>2049.9882813</ele>
        <time>2009-07-25T13:17:57Z</time>
      </trkpt>
      <trkpt lat="45.52052" lon="6.73041">
        <ele>2049.9074707</ele>
        <time>2009-07-25T13:18:05Z</time>
      </trkpt>
      <trkpt lat="45.52053" lon="6.73037">
        <ele>2049.9941406</ele>
        <time>2009-07-25T13:18:08Z</time>
      </trkpt>
      <trkpt lat="45.52053" lon="6.73031">
        <ele>2050.2099609</ele>
        <time>2009-07-25T13:18:15Z</time>
      </trkpt>
      <trkpt lat="45.52056" lon="6.73029">
        <ele>2048.9448242</ele>
        <time>2009-07-25T13:18:20Z</time>
      </trkpt>
      <trkpt lat="45.52061" lon="6.73025">
        <ele>2049.6003418</ele>
        <time>2009-07-25T13:18:29Z</time>
      </trkpt>
      <trkpt lat="45.52064" lon="6.73021">
        <ele>2050.9055176</ele>
        <time>2009-07-25T13:18:38Z</time>
      </trkpt>
      <trkpt lat="45.52065" lon="6.73016">
        <ele>2052.1821289</ele>
        <time>2009-07-25T13:18:44Z</time>
      </trkpt>
      <trkpt lat="45.52069" lon="6.73013">
        <ele>2053.3874512</ele>
        <time>2009-07-25T13:18:52Z</time>
      </trkpt>
      <trkpt lat="45.52068" lon="6.73009">
        <ele>2054.605957</ele>
        <time>2009-07-25T13:18:59Z</time>
      </trkpt>
      <trkpt lat="45.52068" lon="6.73002">
        <ele>2056.6149902</ele>
        <time>2009-07-25T13:19:08Z</time>
      </trkpt>
      <trkpt lat="45.52073" lon="6.72999">
        <ele>2058.2023926</ele>
        <time>2009-07-25T13:19:17Z</time>
      </trkpt>
      <trkpt lat="45.52071" lon="6.72993">
        <ele>2059.5002441</ele>
        <time>2009-07-25T13:19:24Z</time>
      </trkpt>
      <trkpt lat="45.52073" lon="6.72984">
        <ele>2061.7612305</ele>
        <time>2009-07-25T13:19:33Z</time>
      </trkpt>
      <trkpt lat="45.52076" lon="6.72978">
        <ele>2063.2558594</ele>
        <time>2009-07-25T13:19:40Z</time>
      </trkpt>
      <trkpt lat="45.52081" lon="6.72969">
        <ele>2065.3842773</ele>
        <time>2009-07-25T13:19:52Z</time>
      </trkpt>
      <trkpt lat="45.52084" lon="6.72963">
        <ele>2066.4460449</ele>
        <time>2009-07-25T13:20:00Z</time>
      </trkpt>
      <trkpt lat="45.5209" lon="6.72958">
        <ele>2066.8864746</ele>
        <time>2009-07-25T13:20:08Z</time>
      </trkpt>
      <trkpt lat="45.52095" lon="6.72949">
        <ele>2068.3835449</ele>
        <time>2009-07-25T13:20:16Z</time>
      </trkpt>
      <trkpt lat="45.521" lon="6.72943">
        <ele>2069.8828125</ele>
        <time>2009-07-25T13:20:24Z</time>
      </trkpt>
      <trkpt lat="45.52106" lon="6.72941">
        <ele>2070.5083008</ele>
        <time>2009-07-25T13:20:31Z</time>
      </trkpt>
      <trkpt lat="45.52113" lon="6.72944">
        <ele>2069.560791</ele>
        <time>2009-07-25T13:20:39Z</time>
      </trkpt>
      <trkpt lat="45.52119" lon="6.72943">
        <ele>2070.7880859</ele>
        <time>2009-07-25T13:20:46Z</time>
      </trkpt>
      <trkpt lat="45.52124" lon="6.7294">
        <ele>2072.5168457</ele>
        <time>2009-07-25T13:20:54Z</time>
      </trkpt>
      <trkpt lat="45.52128" lon="6.72936">
        <ele>2074.5300293</ele>
        <time>2009-07-25T13:21:01Z</time>
      </trkpt>
      <trkpt lat="45.52133" lon="6.72929">
        <ele>2077.354248</ele>
        <time>2009-07-25T13:21:09Z</time>
      </trkpt>
      <trkpt lat="45.52137" lon="6.72917">
        <ele>2081.8374023</ele>
        <time>2009-07-25T13:21:17Z</time>
      </trkpt>
      <trkpt lat="45.5214" lon="6.72907">
        <ele>2083.0646973</ele>
        <time>2009-07-25T13:21:24Z</time>
      </trkpt>
      <trkpt lat="45.52144" lon="6.72901">
        <ele>2083.5300293</ele>
        <time>2009-07-25T13:21:30Z</time>
      </trkpt>
      <trkpt lat="45.5215" lon="6.72897">
        <ele>2083.3566895</ele>
        <time>2009-07-25T13:21:37Z</time>
      </trkpt>
      <trkpt lat="45.52154" lon="6.72896">
        <ele>2082.8068848</ele>
        <time>2009-07-25T13:21:42Z</time>
      </trkpt>
      <trkpt lat="45.5216" lon="6.72894">
        <ele>2082.5471191</ele>
        <time>2009-07-25T13:21:48Z</time>
      </trkpt>
      <trkpt lat="45.52166" lon="6.72888">
        <ele>2083.244873</ele>
        <time>2009-07-25T13:21:56Z</time>
      </trkpt>
      <trkpt lat="45.5217" lon="6.7288">
        <ele>2084.8737793</ele>
        <time>2009-07-25T13:22:05Z</time>
      </trkpt>
      <trkpt lat="45.52172" lon="6.72873">
        <ele>2086.5229492</ele>
        <time>2009-07-25T13:22:13Z</time>
      </trkpt>
      <trkpt lat="45.52173" lon="6.72869">
        <ele>2087.6779785</ele>
        <time>2009-07-25T13:22:20Z</time>
      </trkpt>
      <trkpt lat="45.52178" lon="6.72868">
        <ele>2088.104248</ele>
        <time>2009-07-25T13:22:27Z</time>
      </trkpt>
      <trkpt lat="45.5218" lon="6.72864">
        <ele>2089.5341797</ele>
        <time>2009-07-25T13:22:34Z</time>
      </trkpt>
      <trkpt lat="45.52179" lon="6.7286">
        <ele>2090.6137695</ele>
        <time>2009-07-25T13:22:40Z</time>
      </trkpt>
      <trkpt lat="45.52178" lon="6.72855">
        <ele>2091.7717285</ele>
        <time>2009-07-25T13:22:47Z</time>
      </trkpt>
      <trkpt lat="45.52177" lon="6.72849">
        <ele>2093.1704102</ele>
        <time>2009-07-25T13:22:55Z</time>
      </trkpt>
      <trkpt lat="45.52174" lon="6.72841">
        <ele>2094.4223633</ele>
        <time>2009-07-25T13:23:03Z</time>
      </trkpt>
      <trkpt lat="45.52173" lon="6.72834">
        <ele>2095.9331055</ele>
        <time>2009-07-25T13:23:10Z</time>
      </trkpt>
      <trkpt lat="45.52173" lon="6.72825">
        <ele>2097.5163574</ele>
        <time>2009-07-25T13:23:18Z</time>
      </trkpt>
      <trkpt lat="45.52176" lon="6.72817">
        <ele>2099.1755371</ele>
        <time>2009-07-25T13:23:26Z</time>
      </trkpt>
      <trkpt lat="45.5218" lon="6.72809">
        <ele>2100.9291992</ele>
        <time>2009-07-25T13:23:35Z</time>
      </trkpt>
      <trkpt lat="45.52187" lon="6.728">
        <ele>2102.925293</ele>
        <time>2009-07-25T13:23:43Z</time>
      </trkpt>
      <trkpt lat="45.52193" lon="6.72792">
        <ele>2104.3278809</ele>
        <time>2009-07-25T13:23:50Z</time>
      </trkpt>
      <trkpt lat="45.52198" lon="6.72789">
        <ele>2104.6586914</ele>
        <time>2009-07-25T13:23:55Z</time>
      </trkpt>
      <trkpt lat="45.52203" lon="6.72783">
        <ele>2105.0930176</ele>
        <time>2009-07-25T13:24:02Z</time>
      </trkpt>
      <trkpt lat="45.52209" lon="6.72776">
        <ele>2105.6630859</ele>
        <time>2009-07-25T13:24:10Z</time>
      </trkpt>
      <trkpt lat="45.52217" lon="6.72772">
        <ele>2105.8261719</ele>
        <time>2009-07-25T13:24:18Z</time>
      </trkpt>
      <trkpt lat="45.52225" lon="6.7277">
        <ele>2106.0686035</ele>
        <time>2009-07-25T13:24:27Z</time>
      </trkpt>
      <trkpt lat="45.52232" lon="6.72769">
        <ele>2106.7646484</ele>
        <time>2009-07-25T13:24:35Z</time>
      </trkpt>
      <trkpt lat="45.52238" lon="6.72763">
        <ele>2108.0092773</ele>
        <time>2009-07-25T13:24:42Z</time>
      </trkpt>
      <trkpt lat="45.52239" lon="6.72762">
        <ele>2108.1960449</ele>
        <time>2009-07-25T13:24:43Z</time>
      </trkpt>
      <trkpt lat="45.52246" lon="6.72751">
        <ele>2110.4736328</ele>
        <time>2009-07-25T13:24:53Z</time>
      </trkpt>
      <trkpt lat="45.52252" lon="6.72743">
        <ele>2112.4506836</ele>
        <time>2009-07-25T13:25:01Z</time>
      </trkpt>
      <trkpt lat="45.52258" lon="6.72738">
        <ele>2113.7797852</ele>
        <time>2009-07-25T13:25:09Z</time>
      </trkpt>
      <trkpt lat="45.52264" lon="6.72737">
        <ele>2114.427002</ele>
        <time>2009-07-25T13:25:16Z</time>
      </trkpt>
      <trkpt lat="45.52271" lon="6.72734">
        <ele>2115.3149414</ele>
        <time>2009-07-25T13:25:24Z</time>
      </trkpt>
      <trkpt lat="45.5228" lon="6.72729">
        <ele>2116.2702637</ele>
        <time>2009-07-25T13:25:34Z</time>
      </trkpt>
      <trkpt lat="45.5229" lon="6.72727">
        <ele>2116.8930664</ele>
        <time>2009-07-25T13:25:44Z</time>
      </trkpt>
      <trkpt lat="45.52297" lon="6.72723">
        <ele>2117.6203613</ele>
        <time>2009-07-25T13:25:52Z</time>
      </trkpt>
      <trkpt lat="45.52304" lon="6.72717">
        <ele>2119.1787109</ele>
        <time>2009-07-25T13:26:01Z</time>
      </trkpt>
      <trkpt lat="45.52311" lon="6.72712">
        <ele>2120.8408203</ele>
        <time>2009-07-25T13:26:10Z</time>
      </trkpt>
      <trkpt lat="45.52317" lon="6.72708">
        <ele>2122.7287598</ele>
        <time>2009-07-25T13:26:19Z</time>
      </trkpt>
      <trkpt lat="45.52321" lon="6.72706">
        <ele>2123.7067871</ele>
        <time>2009-07-25T13:26:27Z</time>
      </trkpt>
      <trkpt lat="45.52329" lon="6.727">
        <ele>2126.2988281</ele>
        <time>2009-07-25T13:26:38Z</time>
      </trkpt>
      <trkpt lat="45.52334" lon="6.72696">
        <ele>2128.3720703</ele>
        <time>2009-07-25T13:26:46Z</time>
      </trkpt>
      <trkpt lat="45.52339" lon="6.72691">
        <ele>2130.6384277</ele>
        <time>2009-07-25T13:26:55Z</time>
      </trkpt>
      <trkpt lat="45.52345" lon="6.72685">
        <ele>2133.0808105</ele>
        <time>2009-07-25T13:27:05Z</time>
      </trkpt>
      <trkpt lat="45.52353" lon="6.72681">
        <ele>2134.8781738</ele>
        <time>2009-07-25T13:27:15Z</time>
      </trkpt>
      <trkpt lat="45.52359" lon="6.72678">
        <ele>2136.0324707</ele>
        <time>2009-07-25T13:27:23Z</time>
      </trkpt>
      <trkpt lat="45.52369" lon="6.72672">
        <ele>2137.9299316</ele>
        <time>2009-07-25T13:27:36Z</time>
      </trkpt>
      <trkpt lat="45.52374" lon="6.72665">
        <ele>2139.8256836</ele>
        <time>2009-07-25T13:27:45Z</time>
      </trkpt>
      <trkpt lat="45.52377" lon="6.72656">
        <ele>2141.7355957</ele>
        <time>2009-07-25T13:27:54Z</time>
      </trkpt>
      <trkpt lat="45.52378" lon="6.72647">
        <ele>2143.3842773</ele>
        <time>2009-07-25T13:28:02Z</time>
      </trkpt>
      <trkpt lat="45.52379" lon="6.72639">
        <ele>2144.9807129</ele>
        <time>2009-07-25T13:28:10Z</time>
      </trkpt>
      <trkpt lat="45.52378" lon="6.72629">
        <ele>2146.7932129</ele>
        <time>2009-07-25T13:28:18Z</time>
      </trkpt>
      <trkpt lat="45.52379" lon="6.72616">
        <ele>2149.1621094</ele>
        <time>2009-07-25T13:28:28Z</time>
      </trkpt>
      <trkpt lat="45.5238" lon="6.72606">
        <ele>2150.6508789</ele>
        <time>2009-07-25T13:28:36Z</time>
      </trkpt>
      <trkpt lat="45.5238" lon="6.72597">
        <ele>2151.8459473</ele>
        <time>2009-07-25T13:28:44Z</time>
      </trkpt>
      <trkpt lat="45.5238" lon="6.72585">
        <ele>2153.4089355</ele>
        <time>2009-07-25T13:28:53Z</time>
      </trkpt>
      <trkpt lat="45.5238" lon="6.72575">
        <ele>2155.0061035</ele>
        <time>2009-07-25T13:29:01Z</time>
      </trkpt>
      <trkpt lat="45.52379" lon="6.72563">
        <ele>2156.9189453</ele>
        <time>2009-07-25T13:29:10Z</time>
      </trkpt>
      <trkpt lat="45.52378" lon="6.7255">
        <ele>2159.1674805</ele>
        <time>2009-07-25T13:29:19Z</time>
      </trkpt>
      <trkpt lat="45.52377" lon="6.72542">
        <ele>2160.8361816</ele>
        <time>2009-07-25T13:29:26Z</time>
      </trkpt>
      <trkpt lat="45.52377" lon="6.72534">
        <ele>2162.4716797</ele>
        <time>2009-07-25T13:29:35Z</time>
      </trkpt>
      <trkpt lat="45.52377" lon="6.72527">
        <ele>2163.7102051</ele>
        <time>2009-07-25T13:29:44Z</time>
      </trkpt>
      <trkpt lat="45.52375" lon="6.7252">
        <ele>2165.1520996</ele>
        <time>2009-07-25T13:29:52Z</time>
      </trkpt>
      <trkpt lat="45.52373" lon="6.7251">
        <ele>2166.9990234</ele>
        <time>2009-07-25T13:30:02Z</time>
      </trkpt>
      <trkpt lat="45.52371" lon="6.725">
        <ele>2168.8417969</ele>
        <time>2009-07-25T13:30:11Z</time>
      </trkpt>
      <trkpt lat="45.5237" lon="6.72487">
        <ele>2169.8806152</ele>
        <time>2009-07-25T13:30:20Z</time>
      </trkpt>
      <trkpt lat="45.5237" lon="6.72483">
        <ele>2170.1362305</ele>
        <time>2009-07-25T13:30:23Z</time>
      </trkpt>
      <trkpt lat="45.52372" lon="6.72469">
        <ele>2170.6293945</ele>
        <time>2009-07-25T13:30:32Z</time>
      </trkpt>
      <trkpt lat="45.52378" lon="6.72461">
        <ele>2170.3635254</ele>
        <time>2009-07-25T13:30:39Z</time>
      </trkpt>
      <trkpt lat="45.52388" lon="6.72461">
        <ele>2169.3508301</ele>
        <time>2009-07-25T13:30:47Z</time>
      </trkpt>
      <trkpt lat="45.52394" lon="6.7246">
        <ele>2169.6340332</ele>
        <time>2009-07-25T13:30:54Z</time>
      </trkpt>
      <trkpt lat="45.52402" lon="6.72456">
        <ele>2170.5507813</ele>
        <time>2009-07-25T13:31:01Z</time>
      </trkpt>
      <trkpt lat="45.52407" lon="6.72451">
        <ele>2171.451416</ele>
        <time>2009-07-25T13:31:07Z</time>
      </trkpt>
      <trkpt lat="45.52412" lon="6.72444">
        <ele>2172.6977539</ele>
        <time>2009-07-25T13:31:16Z</time>
      </trkpt>
      <trkpt lat="45.52416" lon="6.72436">
        <ele>2173.8601074</ele>
        <time>2009-07-25T13:31:24Z</time>
      </trkpt>
      <trkpt lat="45.52419" lon="6.72432">
        <ele>2174.7634277</ele>
        <time>2009-07-25T13:31:30Z</time>
      </trkpt>
      <trkpt lat="45.52422" lon="6.72428">
        <ele>2175.6755371</ele>
        <time>2009-07-25T13:31:37Z</time>
      </trkpt>
      <trkpt lat="45.52424" lon="6.72421">
        <ele>2176.8608398</ele>
        <time>2009-07-25T13:31:44Z</time>
      </trkpt>
      <trkpt lat="45.52427" lon="6.72411">
        <ele>2178.345459</ele>
        <time>2009-07-25T13:31:52Z</time>
      </trkpt>
      <trkpt lat="45.52429" lon="6.724">
        <ele>2179.7941895</ele>
        <time>2009-07-25T13:32:00Z</time>
      </trkpt>
      <trkpt lat="45.52432" lon="6.72392">
        <ele>2180.9387207</ele>
        <time>2009-07-25T13:32:07Z</time>
      </trkpt>
      <trkpt lat="45.52436" lon="6.72389">
        <ele>2181.7346191</ele>
        <time>2009-07-25T13:32:13Z</time>
      </trkpt>
      <trkpt lat="45.5244" lon="6.72384">
        <ele>2182.6879883</ele>
        <time>2009-07-25T13:32:21Z</time>
      </trkpt>
      <trkpt lat="45.52444" lon="6.7238">
        <ele>2183.5498047</ele>
        <time>2009-07-25T13:32:28Z</time>
      </trkpt>
      <trkpt lat="45.5245" lon="6.72374">
        <ele>2184.782959</ele>
        <time>2009-07-25T13:32:37Z</time>
      </trkpt>
      <trkpt lat="45.52456" lon="6.72368">
        <ele>2186.0246582</ele>
        <time>2009-07-25T13:32:45Z</time>
      </trkpt>
      <trkpt lat="45.5246" lon="6.7236">
        <ele>2187.3046875</ele>
        <time>2009-07-25T13:32:53Z</time>
      </trkpt>
      <trkpt lat="45.52463" lon="6.72357">
        <ele>2187.8859863</ele>
        <time>2009-07-25T13:32:58Z</time>
      </trkpt>
      <trkpt lat="45.52467" lon="6.72353">
        <ele>2188.6298828</ele>
        <time>2009-07-25T13:33:04Z</time>
      </trkpt>
      <trkpt lat="45.52473" lon="6.72349">
        <ele>2189.5522461</ele>
        <time>2009-07-25T13:33:12Z</time>
      </trkpt>
      <trkpt lat="45.52479" lon="6.72344">
        <ele>2191.3820801</ele>
        <time>2009-07-25T13:33:22Z</time>
      </trkpt>
      <trkpt lat="45.52486" lon="6.72338">
        <ele>2193.2084961</ele>
        <time>2009-07-25T13:33:30Z</time>
      </trkpt>
      <trkpt lat="45.52494" lon="6.72335">
        <ele>2195.53125</ele>
        <time>2009-07-25T13:33:38Z</time>
      </trkpt>
      <trkpt lat="45.52501" lon="6.72333">
        <ele>2197.1403809</ele>
        <time>2009-07-25T13:33:46Z</time>
      </trkpt>
      <trkpt lat="45.52509" lon="6.72332">
        <ele>2198.0415039</ele>
        <time>2009-07-25T13:33:55Z</time>
      </trkpt>
      <trkpt lat="45.52518" lon="6.72331">
        <ele>2199.0722656</ele>
        <time>2009-07-25T13:34:05Z</time>
      </trkpt>
      <trkpt lat="45.52523" lon="6.72329">
        <ele>2199.963623</ele>
        <time>2009-07-25T13:34:12Z</time>
      </trkpt>
      <trkpt lat="45.52529" lon="6.72327">
        <ele>2201.0566406</ele>
        <time>2009-07-25T13:34:19Z</time>
      </trkpt>
      <trkpt lat="45.52534" lon="6.72325">
        <ele>2202.9909668</ele>
        <time>2009-07-25T13:34:27Z</time>
      </trkpt>
      <trkpt lat="45.52539" lon="6.72323">
        <ele>2205.1296387</ele>
        <time>2009-07-25T13:34:35Z</time>
      </trkpt>
      <trkpt lat="45.52544" lon="6.72321">
        <ele>2206.9047852</ele>
        <time>2009-07-25T13:34:43Z</time>
      </trkpt>
      <trkpt lat="45.52548" lon="6.72318">
        <ele>2208.6369629</ele>
        <time>2009-07-25T13:34:50Z</time>
      </trkpt>
      <trkpt lat="45.52552" lon="6.72316">
        <ele>2210.0458984</ele>
        <time>2009-07-25T13:34:56Z</time>
      </trkpt>
      <trkpt lat="45.52554" lon="6.72313">
        <ele>2211.0258789</ele>
        <time>2009-07-25T13:35:04Z</time>
      </trkpt>
      <trkpt lat="45.52556" lon="6.7231">
        <ele>2212.0175781</ele>
        <time>2009-07-25T13:35:10Z</time>
      </trkpt>
      <trkpt lat="45.52559" lon="6.72306">
        <ele>2213.3359375</ele>
        <time>2009-07-25T13:35:18Z</time>
      </trkpt>
      <trkpt lat="45.5256" lon="6.72304">
        <ele>2214.4101563</ele>
        <time>2009-07-25T13:35:23Z</time>
      </trkpt>
      <trkpt lat="45.52563" lon="6.723">
        <ele>2217.0141602</ele>
        <time>2009-07-25T13:35:29Z</time>
      </trkpt>
      <trkpt lat="45.52565" lon="6.72297">
        <ele>2218.4606934</ele>
        <time>2009-07-25T13:35:37Z</time>
      </trkpt>
      <trkpt lat="45.52567" lon="6.72296">
        <ele>2219.7663574</ele>
        <time>2009-07-25T13:35:43Z</time>
      </trkpt>
      <trkpt lat="45.52569" lon="6.72292">
        <ele>2221.4355469</ele>
        <time>2009-07-25T13:35:51Z</time>
      </trkpt>
      <trkpt lat="45.52571" lon="6.72289">
        <ele>2223.2067871</ele>
        <time>2009-07-25T13:35:58Z</time>
      </trkpt>
      <trkpt lat="45.52571" lon="6.72285">
        <ele>2223.8896484</ele>
        <time>2009-07-25T13:36:05Z</time>
      </trkpt>
      <trkpt lat="45.52572" lon="6.7228">
        <ele>2225.7932129</ele>
        <time>2009-07-25T13:36:13Z</time>
      </trkpt>
      <trkpt lat="45.52569" lon="6.72274">
        <ele>2225.887207</ele>
        <time>2009-07-25T13:36:21Z</time>
      </trkpt>
      <trkpt lat="45.52565" lon="6.72267">
        <ele>2226.7180176</ele>
        <time>2009-07-25T13:36:30Z</time>
      </trkpt>
      <trkpt lat="45.52562" lon="6.7226">
        <ele>2227.8037109</ele>
        <time>2009-07-25T13:36:38Z</time>
      </trkpt>
      <trkpt lat="45.5256" lon="6.72255">
        <ele>2229.1564941</ele>
        <time>2009-07-25T13:36:45Z</time>
      </trkpt>
      <trkpt lat="45.52559" lon="6.7225">
        <ele>2230.7375488</ele>
        <time>2009-07-25T13:36:51Z</time>
      </trkpt>
      <trkpt lat="45.52555" lon="6.72241">
        <ele>2232.3193359</ele>
        <time>2009-07-25T13:37:01Z</time>
      </trkpt>
      <trkpt lat="45.52553" lon="6.72236">
        <ele>2232.4240723</ele>
        <time>2009-07-25T13:37:08Z</time>
      </trkpt>
      <trkpt lat="45.52553" lon="6.7223">
        <ele>2234.1833496</ele>
        <time>2009-07-25T13:37:14Z</time>
      </trkpt>
      <trkpt lat="45.52552" lon="6.72223">
        <ele>2235.6557617</ele>
        <time>2009-07-25T13:37:21Z</time>
      </trkpt>
      <trkpt lat="45.5255" lon="6.72217">
        <ele>2236.4482422</ele>
        <time>2009-07-25T13:37:29Z</time>
      </trkpt>
      <trkpt lat="45.52547" lon="6.72209">
        <ele>2237.1899414</ele>
        <time>2009-07-25T13:37:38Z</time>
      </trkpt>
      <trkpt lat="45.52546" lon="6.72201">
        <ele>2238.5632324</ele>
        <time>2009-07-25T13:37:46Z</time>
      </trkpt>
      <trkpt lat="45.52544" lon="6.72196">
        <ele>2238.9477539</ele>
        <time>2009-07-25T13:37:52Z</time>
      </trkpt>
      <trkpt lat="45.52542" lon="6.7219">
        <ele>2239.7585449</ele>
        <time>2009-07-25T13:37:58Z</time>
      </trkpt>
      <trkpt lat="45.52541" lon="6.72185">
        <ele>2241.1242676</ele>
        <time>2009-07-25T13:38:03Z</time>
      </trkpt>
      <trkpt lat="45.52538" lon="6.72179">
        <ele>2242.5878906</ele>
        <time>2009-07-25T13:38:09Z</time>
      </trkpt>
      <trkpt lat="45.52536" lon="6.72171">
        <ele>2245.090332</ele>
        <time>2009-07-25T13:38:17Z</time>
      </trkpt>
      <trkpt lat="45.52533" lon="6.72163">
        <ele>2246.9621582</ele>
        <time>2009-07-25T13:38:25Z</time>
      </trkpt>
      <trkpt lat="45.52529" lon="6.72156">
        <ele>2248.2414551</ele>
        <time>2009-07-25T13:38:33Z</time>
      </trkpt>
      <trkpt lat="45.52527" lon="6.7215">
        <ele>2249.4396973</ele>
        <time>2009-07-25T13:38:39Z</time>
      </trkpt>
      <trkpt lat="45.52523" lon="6.72145">
        <ele>2249.8725586</ele>
        <time>2009-07-25T13:38:45Z</time>
      </trkpt>
      <trkpt lat="45.52519" lon="6.72137">
        <ele>2250.857666</ele>
        <time>2009-07-25T13:38:54Z</time>
      </trkpt>
      <trkpt lat="45.52515" lon="6.72131">
        <ele>2251.0290527</ele>
        <time>2009-07-25T13:39:01Z</time>
      </trkpt>
      <trkpt lat="45.52511" lon="6.72124">
        <ele>2251.8837891</ele>
        <time>2009-07-25T13:39:08Z</time>
      </trkpt>
      <trkpt lat="45.52507" lon="6.72118">
        <ele>2251.9755859</ele>
        <time>2009-07-25T13:39:14Z</time>
      </trkpt>
      <trkpt lat="45.52506" lon="6.72117">
        <ele>2251.973877</ele>
        <time>2009-07-25T13:39:15Z</time>
      </trkpt>
      <trkpt lat="45.52494" lon="6.72106">
        <ele>2250.4309082</ele>
        <time>2009-07-25T13:39:26Z</time>
      </trkpt>
      <trkpt lat="45.52492" lon="6.72098">
        <ele>2252.8874512</ele>
        <time>2009-07-25T13:39:32Z</time>
      </trkpt>
      <trkpt lat="45.52488" lon="6.7209">
        <ele>2253.8046875</ele>
        <time>2009-07-25T13:39:39Z</time>
      </trkpt>
      <trkpt lat="45.52482" lon="6.72079">
        <ele>2255.682373</ele>
        <time>2009-07-25T13:39:47Z</time>
      </trkpt>
      <trkpt lat="45.52481" lon="6.72077">
        <ele>2256.0805664</ele>
        <time>2009-07-25T13:39:49Z</time>
      </trkpt>
      <trkpt lat="45.5247" lon="6.72066">
        <ele>2256.1176758</ele>
        <time>2009-07-25T13:39:59Z</time>
      </trkpt>
      <trkpt lat="45.52464" lon="6.72057">
        <ele>2258.8762207</ele>
        <time>2009-07-25T13:40:07Z</time>
      </trkpt>
      <trkpt lat="45.52456" lon="6.7205">
        <ele>2260.3867188</ele>
        <time>2009-07-25T13:40:15Z</time>
      </trkpt>
      <trkpt lat="45.52449" lon="6.72044">
        <ele>2261.3979492</ele>
        <time>2009-07-25T13:40:24Z</time>
      </trkpt>
      <trkpt lat="45.52447" lon="6.72039">
        <ele>2262.782959</ele>
        <time>2009-07-25T13:40:31Z</time>
      </trkpt>
      <trkpt lat="45.52443" lon="6.72038">
        <ele>2262.0141602</ele>
        <time>2009-07-25T13:40:37Z</time>
      </trkpt>
      <trkpt lat="45.52439" lon="6.72033">
        <ele>2263.8222656</ele>
        <time>2009-07-25T13:40:44Z</time>
      </trkpt>
      <trkpt lat="45.52437" lon="6.72027">
        <ele>2266.4956055</ele>
        <time>2009-07-25T13:40:51Z</time>
      </trkpt>
      <trkpt lat="45.52431" lon="6.72022">
        <ele>2267.5666504</ele>
        <time>2009-07-25T13:40:59Z</time>
      </trkpt>
      <trkpt lat="45.52426" lon="6.72019">
        <ele>2268.1040039</ele>
        <time>2009-07-25T13:41:07Z</time>
      </trkpt>
      <trkpt lat="45.52424" lon="6.72012">
        <ele>2270.328125</ele>
        <time>2009-07-25T13:41:15Z</time>
      </trkpt>
      <trkpt lat="45.52424" lon="6.72005">
        <ele>2272.7861328</ele>
        <time>2009-07-25T13:41:22Z</time>
      </trkpt>
      <trkpt lat="45.52422" lon="6.71998">
        <ele>2274.7839355</ele>
        <time>2009-07-25T13:41:29Z</time>
      </trkpt>
      <trkpt lat="45.5242" lon="6.71991">
        <ele>2276.1843262</ele>
        <time>2009-07-25T13:41:36Z</time>
      </trkpt>
      <trkpt lat="45.52415" lon="6.71985">
        <ele>2276.9689941</ele>
        <time>2009-07-25T13:41:42Z</time>
      </trkpt>
      <trkpt lat="45.52414" lon="6.71983">
        <ele>2277.2224121</ele>
        <time>2009-07-25T13:41:44Z</time>
      </trkpt>
      <trkpt lat="45.52411" lon="6.71975">
        <ele>2278.4509277</ele>
        <time>2009-07-25T13:41:52Z</time>
      </trkpt>
      <trkpt lat="45.52407" lon="6.71969">
        <ele>2279.152832</ele>
        <time>2009-07-25T13:42:00Z</time>
      </trkpt>
      <trkpt lat="45.52406" lon="6.71964">
        <ele>2279.652832</ele>
        <time>2009-07-25T13:42:06Z</time>
      </trkpt>
      <trkpt lat="45.52403" lon="6.71957">
        <ele>2280.5119629</ele>
        <time>2009-07-25T13:42:15Z</time>
      </trkpt>
      <trkpt lat="45.52397" lon="6.71951">
        <ele>2281.0939941</ele>
        <time>2009-07-25T13:42:23Z</time>
      </trkpt>
      <trkpt lat="45.52391" lon="6.71944">
        <ele>2282.265625</ele>
        <time>2009-07-25T13:42:30Z</time>
      </trkpt>
      <trkpt lat="45.52385" lon="6.71934">
        <ele>2284.5776367</ele>
        <time>2009-07-25T13:42:39Z</time>
      </trkpt>
      <trkpt lat="45.52381" lon="6.71929">
        <ele>2285.9770508</ele>
        <time>2009-07-25T13:42:45Z</time>
      </trkpt>
      <trkpt lat="45.52376" lon="6.71925">
        <ele>2287.4846191</ele>
        <time>2009-07-25T13:42:52Z</time>
      </trkpt>
      <trkpt lat="45.52376" lon="6.7192">
        <ele>2288.8857422</ele>
        <time>2009-07-25T13:42:58Z</time>
      </trkpt>
      <trkpt lat="45.52374" lon="6.71915">
        <ele>2290.704834</ele>
        <time>2009-07-25T13:43:06Z</time>
      </trkpt>
      <trkpt lat="45.52372" lon="6.7191">
        <ele>2292.7087402</ele>
        <time>2009-07-25T13:43:14Z</time>
      </trkpt>
      <trkpt lat="45.52368" lon="6.71905">
        <ele>2294.9575195</ele>
        <time>2009-07-25T13:43:23Z</time>
      </trkpt>
      <trkpt lat="45.52368" lon="6.719">
        <ele>2296.9592285</ele>
        <time>2009-07-25T13:43:32Z</time>
      </trkpt>
      <trkpt lat="45.52367" lon="6.71897">
        <ele>2298.5136719</ele>
        <time>2009-07-25T13:43:40Z</time>
      </trkpt>
      <trkpt lat="45.52369" lon="6.71894">
        <ele>2299.4291992</ele>
        <time>2009-07-25T13:43:47Z</time>
      </trkpt>
      <trkpt lat="45.5237" lon="6.71891">
        <ele>2300.2373047</ele>
        <time>2009-07-25T13:43:56Z</time>
      </trkpt>
      <trkpt lat="45.5237" lon="6.71885">
        <ele>2302.0881348</ele>
        <time>2009-07-25T13:44:05Z</time>
      </trkpt>
      <trkpt lat="45.5237" lon="6.71879">
        <ele>2303.7150879</ele>
        <time>2009-07-25T13:44:12Z</time>
      </trkpt>
      <trkpt lat="45.52369" lon="6.71868">
        <ele>2306.8688965</ele>
        <time>2009-07-25T13:44:20Z</time>
      </trkpt>
      <trkpt lat="45.52369" lon="6.7186">
        <ele>2309.1186523</ele>
        <time>2009-07-25T13:44:26Z</time>
      </trkpt>
      <trkpt lat="45.52367" lon="6.71849">
        <ele>2311.5366211</ele>
        <time>2009-07-25T13:44:35Z</time>
      </trkpt>
      <trkpt lat="45.52365" lon="6.71838">
        <ele>2314.1103516</ele>
        <time>2009-07-25T13:44:44Z</time>
      </trkpt>
      <trkpt lat="45.52363" lon="6.71825">
        <ele>2316.6594238</ele>
        <time>2009-07-25T13:44:54Z</time>
      </trkpt>
      <trkpt lat="45.52362" lon="6.71815">
        <ele>2318.4814453</ele>
        <time>2009-07-25T13:45:02Z</time>
      </trkpt>
      <trkpt lat="45.5236" lon="6.71803">
        <ele>2320.486084</ele>
        <time>2009-07-25T13:45:12Z</time>
      </trkpt>
      <trkpt lat="45.52357" lon="6.71791">
        <ele>2321.5187988</ele>
        <time>2009-07-25T13:45:22Z</time>
      </trkpt>
      <trkpt lat="45.52355" lon="6.71783">
        <ele>2322.3054199</ele>
        <time>2009-07-25T13:45:29Z</time>
      </trkpt>
      <trkpt lat="45.52351" lon="6.71776">
        <ele>2323.8068848</ele>
        <time>2009-07-25T13:45:37Z</time>
      </trkpt>
      <trkpt lat="45.52347" lon="6.71767">
        <ele>2325.315918</ele>
        <time>2009-07-25T13:45:47Z</time>
      </trkpt>
      <trkpt lat="45.52345" lon="6.71757">
        <ele>2326.2702637</ele>
        <time>2009-07-25T13:45:56Z</time>
      </trkpt>
      <trkpt lat="45.52341" lon="6.71749">
        <ele>2327.6318359</ele>
        <time>2009-07-25T13:46:04Z</time>
      </trkpt>
      <trkpt lat="45.52339" lon="6.71742">
        <ele>2328.4780273</ele>
        <time>2009-07-25T13:46:10Z</time>
      </trkpt>
      <trkpt lat="45.52336" lon="6.71734">
        <ele>2329.3244629</ele>
        <time>2009-07-25T13:46:19Z</time>
      </trkpt>
      <trkpt lat="45.52334" lon="6.71727">
        <ele>2329.9909668</ele>
        <time>2009-07-25T13:46:27Z</time>
      </trkpt>
      <trkpt lat="45.52331" lon="6.71724">
        <ele>2331.0930176</ele>
        <time>2009-07-25T13:46:33Z</time>
      </trkpt>
      <trkpt lat="45.52328" lon="6.71719">
        <ele>2332.916748</ele>
        <time>2009-07-25T13:46:41Z</time>
      </trkpt>
      <trkpt lat="45.52324" lon="6.71712">
        <ele>2334.8364258</ele>
        <time>2009-07-25T13:46:50Z</time>
      </trkpt>
      <trkpt lat="45.5232" lon="6.71707">
        <ele>2336.6286621</ele>
        <time>2009-07-25T13:46:59Z</time>
      </trkpt>
      <trkpt lat="45.52316" lon="6.71701">
        <ele>2338.3916016</ele>
        <time>2009-07-25T13:47:08Z</time>
      </trkpt>
      <trkpt lat="45.52312" lon="6.71696">
        <ele>2339.8876953</ele>
        <time>2009-07-25T13:47:16Z</time>
      </trkpt>
      <trkpt lat="45.52307" lon="6.71695">
        <ele>2341.4975586</ele>
        <time>2009-07-25T13:47:24Z</time>
      </trkpt>
      <trkpt lat="45.52302" lon="6.71695">
        <ele>2342.4233398</ele>
        <time>2009-07-25T13:47:31Z</time>
      </trkpt>
      <trkpt lat="45.52298" lon="6.71691">
        <ele>2342.6018066</ele>
        <time>2009-07-25T13:47:38Z</time>
      </trkpt>
      <trkpt lat="45.52294" lon="6.71687">
        <ele>2342.7006836</ele>
        <time>2009-07-25T13:47:46Z</time>
      </trkpt>
      <trkpt lat="45.52288" lon="6.71682">
        <ele>2342.5878906</ele>
        <time>2009-07-25T13:47:54Z</time>
      </trkpt>
      <trkpt lat="45.52281" lon="6.71677">
        <ele>2342.3718262</ele>
        <time>2009-07-25T13:48:01Z</time>
      </trkpt>
      <trkpt lat="45.52275" lon="6.71674">
        <ele>2342.048584</ele>
        <time>2009-07-25T13:48:09Z</time>
      </trkpt>
      <trkpt lat="45.52272" lon="6.71676">
        <ele>2342.2683105</ele>
        <time>2009-07-25T13:48:13Z</time>
      </trkpt>
      <trkpt lat="45.52269" lon="6.71679">
        <ele>2342.5935059</ele>
        <time>2009-07-25T13:48:16Z</time>
      </trkpt>
      <trkpt lat="45.52266" lon="6.71684">
        <ele>2343.1865234</ele>
        <time>2009-07-25T13:48:21Z</time>
      </trkpt>
      <trkpt lat="45.52259" lon="6.7169">
        <ele>2343.7866211</ele>
        <time>2009-07-25T13:48:29Z</time>
      </trkpt>
      <trkpt lat="45.52249" lon="6.7169">
        <ele>2343.2980957</ele>
        <time>2009-07-25T13:48:36Z</time>
      </trkpt>
      <trkpt lat="45.52243" lon="6.71686">
        <ele>2341.3947754</ele>
        <time>2009-07-25T13:48:41Z</time>
      </trkpt>
      <trkpt lat="45.52236" lon="6.71677">
        <ele>2338.972168</ele>
        <time>2009-07-25T13:48:48Z</time>
      </trkpt>
      <trkpt lat="45.52226" lon="6.71665">
        <ele>2335.6166992</ele>
        <time>2009-07-25T13:48:58Z</time>
      </trkpt>
      <trkpt lat="45.52216" lon="6.71652">
        <ele>2333.953125</ele>
        <time>2009-07-25T13:49:06Z</time>
      </trkpt>
      <trkpt lat="45.52206" lon="6.71639">
        <ele>2332.9882813</ele>
        <time>2009-07-25T13:49:13Z</time>
      </trkpt>
      <trkpt lat="45.52193" lon="6.71629">
        <ele>2331.8811035</ele>
        <time>2009-07-25T13:49:21Z</time>
      </trkpt>
      <trkpt lat="45.52182" lon="6.71619">
        <ele>2328.7980957</ele>
        <time>2009-07-25T13:49:29Z</time>
      </trkpt>
      <trkpt lat="45.52171" lon="6.71612">
        <ele>2326.0549316</ele>
        <time>2009-07-25T13:49:35Z</time>
      </trkpt>
      <trkpt lat="45.52161" lon="6.71604">
        <ele>2323.2385254</ele>
        <time>2009-07-25T13:49:42Z</time>
      </trkpt>
      <trkpt lat="45.52155" lon="6.71601">
        <ele>2322.1328125</ele>
        <time>2009-07-25T13:49:46Z</time>
      </trkpt>
      <trkpt lat="45.52146" lon="6.71593">
        <ele>2320.3933105</ele>
        <time>2009-07-25T13:49:51Z</time>
      </trkpt>
      <trkpt lat="45.52135" lon="6.71581">
        <ele>2318.3203125</ele>
        <time>2009-07-25T13:49:58Z</time>
      </trkpt>
      <trkpt lat="45.52126" lon="6.71572">
        <ele>2316.4338379</ele>
        <time>2009-07-25T13:50:04Z</time>
      </trkpt>
      <trkpt lat="45.52115" lon="6.71562">
        <ele>2314.7058105</ele>
        <time>2009-07-25T13:50:11Z</time>
      </trkpt>
      <trkpt lat="45.52107" lon="6.71553">
        <ele>2313.4609375</ele>
        <time>2009-07-25T13:50:17Z</time>
      </trkpt>
      <trkpt lat="45.52098" lon="6.71544">
        <ele>2312.3625488</ele>
        <time>2009-07-25T13:50:23Z</time>
      </trkpt>
      <trkpt lat="45.52089" lon="6.71533">
        <ele>2311.4694824</ele>
        <time>2009-07-25T13:50:29Z</time>
      </trkpt>
      <trkpt lat="45.52078" lon="6.7152">
        <ele>2310.1293945</ele>
        <time>2009-07-25T13:50:36Z</time>
      </trkpt>
      <trkpt lat="45.52066" lon="6.71511">
        <ele>2308.2062988</ele>
        <time>2009-07-25T13:50:43Z</time>
      </trkpt>
      <trkpt lat="45.52055" lon="6.71501">
        <ele>2305.9440918</ele>
        <time>2009-07-25T13:50:50Z</time>
      </trkpt>
      <trkpt lat="45.52044" lon="6.71488">
        <ele>2302.9228516</ele>
        <time>2009-07-25T13:50:57Z</time>
      </trkpt>
      <trkpt lat="45.52032" lon="6.71479">
        <ele>2300.6921387</ele>
        <time>2009-07-25T13:51:03Z</time>
      </trkpt>
      <trkpt lat="45.52021" lon="6.71467">
        <ele>2299.4863281</ele>
        <time>2009-07-25T13:51:10Z</time>
      </trkpt>
      <trkpt lat="45.52011" lon="6.71458">
        <ele>2298.7724609</ele>
        <time>2009-07-25T13:51:16Z</time>
      </trkpt>
      <trkpt lat="45.52001" lon="6.71447">
        <ele>2298.0856934</ele>
        <time>2009-07-25T13:51:22Z</time>
      </trkpt>
      <trkpt lat="45.51993" lon="6.71436">
        <ele>2297.222168</ele>
        <time>2009-07-25T13:51:28Z</time>
      </trkpt>
      <trkpt lat="45.51982" lon="6.71422">
        <ele>2296.0686035</ele>
        <time>2009-07-25T13:51:35Z</time>
      </trkpt>
      <trkpt lat="45.51975" lon="6.71413">
        <ele>2294.979248</ele>
        <time>2009-07-25T13:51:40Z</time>
      </trkpt>
      <trkpt lat="45.51967" lon="6.71402">
        <ele>2293.5390625</ele>
        <time>2009-07-25T13:51:46Z</time>
      </trkpt>
      <trkpt lat="45.51958" lon="6.7139">
        <ele>2292.079834</ele>
        <time>2009-07-25T13:51:53Z</time>
      </trkpt>
      <trkpt lat="45.51953" lon="6.71381">
        <ele>2290.6342773</ele>
        <time>2009-07-25T13:51:59Z</time>
      </trkpt>
      <trkpt lat="45.51947" lon="6.71372">
        <ele>2288.7875977</ele>
        <time>2009-07-25T13:52:05Z</time>
      </trkpt>
      <trkpt lat="45.51939" lon="6.71359">
        <ele>2286.1572266</ele>
        <time>2009-07-25T13:52:13Z</time>
      </trkpt>
      <trkpt lat="45.51929" lon="6.71345">
        <ele>2282.8535156</ele>
        <time>2009-07-25T13:52:21Z</time>
      </trkpt>
      <trkpt lat="45.5192" lon="6.71336">
        <ele>2280.0100098</ele>
        <time>2009-07-25T13:52:27Z</time>
      </trkpt>
      <trkpt lat="45.51908" lon="6.71335">
        <ele>2278.1884766</ele>
        <time>2009-07-25T13:52:33Z</time>
      </trkpt>
      <trkpt lat="45.51901" lon="6.71329">
        <ele>2276.3737793</ele>
        <time>2009-07-25T13:52:38Z</time>
      </trkpt>
      <trkpt lat="45.51893" lon="6.7132">
        <ele>2274.2617188</ele>
        <time>2009-07-25T13:52:44Z</time>
      </trkpt>
      <trkpt lat="45.51883" lon="6.71316">
        <ele>2271.956543</ele>
        <time>2009-07-25T13:52:50Z</time>
      </trkpt>
      <trkpt lat="45.51871" lon="6.71309">
        <ele>2269.0302734</ele>
        <time>2009-07-25T13:52:57Z</time>
      </trkpt>
      <trkpt lat="45.51862" lon="6.71304">
        <ele>2267.1831055</ele>
        <time>2009-07-25T13:53:03Z</time>
      </trkpt>
      <trkpt lat="45.5185" lon="6.71298">
        <ele>2264.9143066</ele>
        <time>2009-07-25T13:53:10Z</time>
      </trkpt>
      <trkpt lat="45.51838" lon="6.71293">
        <ele>2262.5058594</ele>
        <time>2009-07-25T13:53:16Z</time>
      </trkpt>
      <trkpt lat="45.51824" lon="6.71291">
        <ele>2259.5632324</ele>
        <time>2009-07-25T13:53:24Z</time>
      </trkpt>
      <trkpt lat="45.51808" lon="6.71287">
        <ele>2256.1621094</ele>
        <time>2009-07-25T13:53:33Z</time>
      </trkpt>
      <trkpt lat="45.51798" lon="6.71283">
        <ele>2253.4780273</ele>
        <time>2009-07-25T13:53:39Z</time>
      </trkpt>
      <trkpt lat="45.51788" lon="6.7128">
        <ele>2250.364502</ele>
        <time>2009-07-25T13:53:45Z</time>
      </trkpt>
      <trkpt lat="45.51778" lon="6.71276">
        <ele>2246.9248047</ele>
        <time>2009-07-25T13:53:51Z</time>
      </trkpt>
      <trkpt lat="45.51764" lon="6.71272">
        <ele>2243.6137695</ele>
        <time>2009-07-25T13:53:58Z</time>
      </trkpt>
      <trkpt lat="45.51749" lon="6.71271">
        <ele>2240.1677246</ele>
        <time>2009-07-25T13:54:05Z</time>
      </trkpt>
      <trkpt lat="45.51738" lon="6.71264">
        <ele>2237.4606934</ele>
        <time>2009-07-25T13:54:11Z</time>
      </trkpt>
      <trkpt lat="45.51732" lon="6.71255">
        <ele>2235.2531738</ele>
        <time>2009-07-25T13:54:16Z</time>
      </trkpt>
      <trkpt lat="45.51726" lon="6.71242">
        <ele>2232.8154297</ele>
        <time>2009-07-25T13:54:22Z</time>
      </trkpt>
      <trkpt lat="45.5172" lon="6.71232">
        <ele>2230.7897949</ele>
        <time>2009-07-25T13:54:27Z</time>
      </trkpt>
      <trkpt lat="45.51713" lon="6.71224">
        <ele>2228.8850098</ele>
        <time>2009-07-25T13:54:32Z</time>
      </trkpt>
      <trkpt lat="45.51709" lon="6.7121">
        <ele>2226.3479004</ele>
        <time>2009-07-25T13:54:38Z</time>
      </trkpt>
      <trkpt lat="45.51702" lon="6.71195">
        <ele>2223.2099609</ele>
        <time>2009-07-25T13:54:45Z</time>
      </trkpt>
      <trkpt lat="45.51699" lon="6.71186">
        <ele>2221.7614746</ele>
        <time>2009-07-25T13:54:50Z</time>
      </trkpt>
      <trkpt lat="45.51698" lon="6.71184">
        <ele>2221.4311523</ele>
        <time>2009-07-25T13:54:51Z</time>
      </trkpt>
      <trkpt lat="45.51686" lon="6.71165">
        <ele>2217.4631348</ele>
        <time>2009-07-25T13:54:59Z</time>
      </trkpt>
      <trkpt lat="45.51681" lon="6.71154">
        <ele>2215.3757324</ele>
        <time>2009-07-25T13:55:04Z</time>
      </trkpt>
      <trkpt lat="45.51672" lon="6.71136">
        <ele>2211.857666</ele>
        <time>2009-07-25T13:55:11Z</time>
      </trkpt>
      <trkpt lat="45.51665" lon="6.71123">
        <ele>2209.2272949</ele>
        <time>2009-07-25T13:55:16Z</time>
      </trkpt>
      <trkpt lat="45.51658" lon="6.71111">
        <ele>2206.5830078</ele>
        <time>2009-07-25T13:55:21Z</time>
      </trkpt>
      <trkpt lat="45.5165" lon="6.711">
        <ele>2203.442627</ele>
        <time>2009-07-25T13:55:27Z</time>
      </trkpt>
      <trkpt lat="45.51641" lon="6.71093">
        <ele>2200.8623047</ele>
        <time>2009-07-25T13:55:32Z</time>
      </trkpt>
      <trkpt lat="45.51629" lon="6.71084">
        <ele>2196.401123</ele>
        <time>2009-07-25T13:55:39Z</time>
      </trkpt>
      <trkpt lat="45.51621" lon="6.71079">
        <ele>2193.2263184</ele>
        <time>2009-07-25T13:55:44Z</time>
      </trkpt>
      <trkpt lat="45.51606" lon="6.71068">
        <ele>2187.6171875</ele>
        <time>2009-07-25T13:55:53Z</time>
      </trkpt>
      <trkpt lat="45.51595" lon="6.71061">
        <ele>2183.3840332</ele>
        <time>2009-07-25T13:56:00Z</time>
      </trkpt>
      <trkpt lat="45.51588" lon="6.71056">
        <ele>2180.7319336</ele>
        <time>2009-07-25T13:56:05Z</time>
      </trkpt>
      <trkpt lat="45.51575" lon="6.71047">
        <ele>2176.4521484</ele>
        <time>2009-07-25T13:56:13Z</time>
      </trkpt>
      <trkpt lat="45.51565" lon="6.71042">
        <ele>2172.9916992</ele>
        <time>2009-07-25T13:56:19Z</time>
      </trkpt>
      <trkpt lat="45.51554" lon="6.71034">
        <ele>2169.8129883</ele>
        <time>2009-07-25T13:56:26Z</time>
      </trkpt>
      <trkpt lat="45.51545" lon="6.71025">
        <ele>2168.4904785</ele>
        <time>2009-07-25T13:56:32Z</time>
      </trkpt>
      <trkpt lat="45.51535" lon="6.71018">
        <ele>2166.840332</ele>
        <time>2009-07-25T13:56:38Z</time>
      </trkpt>
      <trkpt lat="45.51522" lon="6.71009">
        <ele>2164.7661133</ele>
        <time>2009-07-25T13:56:45Z</time>
      </trkpt>
      <trkpt lat="45.51509" lon="6.71001">
        <ele>2163.0107422</ele>
        <time>2009-07-25T13:56:52Z</time>
      </trkpt>
      <trkpt lat="45.51495" lon="6.70993">
        <ele>2160.9921875</ele>
        <time>2009-07-25T13:56:59Z</time>
      </trkpt>
      <trkpt lat="45.51483" lon="6.70986">
        <ele>2159.4726563</ele>
        <time>2009-07-25T13:57:05Z</time>
      </trkpt>
      <trkpt lat="45.51471" lon="6.70979">
        <ele>2158.1936035</ele>
        <time>2009-07-25T13:57:12Z</time>
      </trkpt>
      <trkpt lat="45.5146" lon="6.70974">
        <ele>2157.2265625</ele>
        <time>2009-07-25T13:57:19Z</time>
      </trkpt>
      <trkpt lat="45.51452" lon="6.70968">
        <ele>2156.078125</ele>
        <time>2009-07-25T13:57:25Z</time>
      </trkpt>
      <trkpt lat="45.51437" lon="6.70958">
        <ele>2153.9958496</ele>
        <time>2009-07-25T13:57:33Z</time>
      </trkpt>
      <trkpt lat="45.51424" lon="6.70951">
        <ele>2152.2226563</ele>
        <time>2009-07-25T13:57:40Z</time>
      </trkpt>
      <trkpt lat="45.51416" lon="6.70937">
        <ele>2150.4892578</ele>
        <time>2009-07-25T13:57:46Z</time>
      </trkpt>
      <trkpt lat="45.51406" lon="6.70924">
        <ele>2149.5996094</ele>
        <time>2009-07-25T13:57:52Z</time>
      </trkpt>
      <trkpt lat="45.51396" lon="6.70915">
        <ele>2148.8959961</ele>
        <time>2009-07-25T13:57:58Z</time>
      </trkpt>
      <trkpt lat="45.51384" lon="6.70918">
        <ele>2149.7111816</ele>
        <time>2009-07-25T13:58:04Z</time>
      </trkpt>
      <trkpt lat="45.51372" lon="6.70924">
        <ele>2152.0273438</ele>
        <time>2009-07-25T13:58:13Z</time>
      </trkpt>
      <trkpt lat="45.51362" lon="6.70925">
        <ele>2153.6525879</ele>
        <time>2009-07-25T13:58:21Z</time>
      </trkpt>
      <trkpt lat="45.51354" lon="6.70918">
        <ele>2153.9538574</ele>
        <time>2009-07-25T13:58:28Z</time>
      </trkpt>
      <trkpt lat="45.51348" lon="6.70902">
        <ele>2152.0524902</ele>
        <time>2009-07-25T13:58:35Z</time>
      </trkpt>
      <trkpt lat="45.51342" lon="6.70884">
        <ele>2149.5710449</ele>
        <time>2009-07-25T13:58:42Z</time>
      </trkpt>
      <trkpt lat="45.51335" lon="6.70868">
        <ele>2147.8979492</ele>
        <time>2009-07-25T13:58:48Z</time>
      </trkpt>
      <trkpt lat="45.51328" lon="6.70853">
        <ele>2147.3430176</ele>
        <time>2009-07-25T13:58:54Z</time>
      </trkpt>
      <trkpt lat="45.51315" lon="6.70841">
        <ele>2148.5800781</ele>
        <time>2009-07-25T13:59:02Z</time>
      </trkpt>
      <trkpt lat="45.51305" lon="6.70829">
        <ele>2148.2976074</ele>
        <time>2009-07-25T13:59:08Z</time>
      </trkpt>
      <trkpt lat="45.51296" lon="6.70817">
        <ele>2144.4287109</ele>
        <time>2009-07-25T13:59:14Z</time>
      </trkpt>
      <trkpt lat="45.51283" lon="6.70805">
        <ele>2138.3974609</ele>
        <time>2009-07-25T13:59:22Z</time>
      </trkpt>
      <trkpt lat="45.51271" lon="6.70792">
        <ele>2132.078125</ele>
        <time>2009-07-25T13:59:30Z</time>
      </trkpt>
      <trkpt lat="45.51258" lon="6.70787">
        <ele>2127.5351563</ele>
        <time>2009-07-25T13:59:36Z</time>
      </trkpt>
      <trkpt lat="45.51245" lon="6.70785">
        <ele>2125.0805664</ele>
        <time>2009-07-25T13:59:42Z</time>
      </trkpt>
      <trkpt lat="45.51231" lon="6.70785">
        <ele>2125.6806641</ele>
        <time>2009-07-25T13:59:48Z</time>
      </trkpt>
      <trkpt lat="45.51227" lon="6.70785">
        <ele>2125.7080078</ele>
        <time>2009-07-25T13:59:50Z</time>
      </trkpt>
      <trkpt lat="45.51216" lon="6.70785">
        <ele>2127.7248535</ele>
        <time>2009-07-25T13:59:55Z</time>
      </trkpt>
      <trkpt lat="45.51203" lon="6.70784">
        <ele>2129.9621582</ele>
        <time>2009-07-25T14:00:01Z</time>
      </trkpt>
      <trkpt lat="45.51189" lon="6.70782">
        <ele>2130.4846191</ele>
        <time>2009-07-25T14:00:08Z</time>
      </trkpt>
      <trkpt lat="45.51176" lon="6.70781">
        <ele>2128.2294922</ele>
        <time>2009-07-25T14:00:14Z</time>
      </trkpt>
      <trkpt lat="45.51164" lon="6.70779">
        <ele>2126.1328125</ele>
        <time>2009-07-25T14:00:20Z</time>
      </trkpt>
      <trkpt lat="45.51149" lon="6.70779">
        <ele>2124.34375</ele>
        <time>2009-07-25T14:00:28Z</time>
      </trkpt>
      <trkpt lat="45.51137" lon="6.70779">
        <ele>2122.838623</ele>
        <time>2009-07-25T14:00:36Z</time>
      </trkpt>
      <trkpt lat="45.51134" lon="6.70779">
        <ele>2122.3166504</ele>
        <time>2009-07-25T14:00:40Z</time>
      </trkpt>
      <trkpt lat="45.51127" lon="6.70781">
        <ele>2121.2729492</ele>
        <time>2009-07-25T14:00:45Z</time>
      </trkpt>
      <trkpt lat="45.51115" lon="6.70781">
        <ele>2118.9108887</ele>
        <time>2009-07-25T14:00:51Z</time>
      </trkpt>
      <trkpt lat="45.51105" lon="6.70782">
        <ele>2115.7644043</ele>
        <time>2009-07-25T14:00:56Z</time>
      </trkpt>
      <trkpt lat="45.511" lon="6.70782">
        <ele>2114.315918</ele>
        <time>2009-07-25T14:00:58Z</time>
      </trkpt>
      <trkpt lat="45.51089" lon="6.70784">
        <ele>2110.6589355</ele>
        <time>2009-07-25T14:01:03Z</time>
      </trkpt>
      <trkpt lat="45.51078" lon="6.70795">
        <ele>2111.1843262</ele>
        <time>2009-07-25T14:01:09Z</time>
      </trkpt>
      <trkpt lat="45.51065" lon="6.70813">
        <ele>2115.7487793</ele>
        <time>2009-07-25T14:01:16Z</time>
      </trkpt>
      <trkpt lat="45.51063" lon="6.70816">
        <ele>2116.5778809</ele>
        <time>2009-07-25T14:01:17Z</time>
      </trkpt>
      <trkpt lat="45.51051" lon="6.70821">
        <ele>2117.5361328</ele>
        <time>2009-07-25T14:01:23Z</time>
      </trkpt>
      <trkpt lat="45.51038" lon="6.70821">
        <ele>2116.8618164</ele>
        <time>2009-07-25T14:01:29Z</time>
      </trkpt>
      <trkpt lat="45.51025" lon="6.70819">
        <ele>2115.2111816</ele>
        <time>2009-07-25T14:01:36Z</time>
      </trkpt>
      <trkpt lat="45.51014" lon="6.70819">
        <ele>2114.3076172</ele>
        <time>2009-07-25T14:01:41Z</time>
      </trkpt>
      <trkpt lat="45.51001" lon="6.70817">
        <ele>2113.0505371</ele>
        <time>2009-07-25T14:01:47Z</time>
      </trkpt>
      <trkpt lat="45.50993" lon="6.70816">
        <ele>2111.5383301</ele>
        <time>2009-07-25T14:01:51Z</time>
      </trkpt>
      <trkpt lat="45.50984" lon="6.70811">
        <ele>2108.7790527</ele>
        <time>2009-07-25T14:01:57Z</time>
      </trkpt>
      <trkpt lat="45.50975" lon="6.70811">
        <ele>2107.2910156</ele>
        <time>2009-07-25T14:02:04Z</time>
      </trkpt>
      <trkpt lat="45.50967" lon="6.70812">
        <ele>2106.3459473</ele>
        <time>2009-07-25T14:02:10Z</time>
      </trkpt>
      <trkpt lat="45.50954" lon="6.70814">
        <ele>2105.0258789</ele>
        <time>2009-07-25T14:02:18Z</time>
      </trkpt>
      <trkpt lat="45.50949" lon="6.70813">
        <ele>2104.09375</ele>
        <time>2009-07-25T14:02:22Z</time>
      </trkpt>
      <trkpt lat="45.50943" lon="6.70813">
        <ele>2102.9140625</ele>
        <time>2009-07-25T14:02:27Z</time>
      </trkpt>
      <trkpt lat="45.5093" lon="6.70811">
        <ele>2100.277832</ele>
        <time>2009-07-25T14:02:37Z</time>
      </trkpt>
      <trkpt lat="45.5092" lon="6.70816">
        <ele>2099.1044922</ele>
        <time>2009-07-25T14:02:44Z</time>
      </trkpt>
      <trkpt lat="45.50905" lon="6.70821">
        <ele>2098.1853027</ele>
        <time>2009-07-25T14:02:52Z</time>
      </trkpt>
      <trkpt lat="45.50893" lon="6.70825">
        <ele>2097.5664063</ele>
        <time>2009-07-25T14:02:57Z</time>
      </trkpt>
      <trkpt lat="45.50879" lon="6.70832">
        <ele>2097.8500977</ele>
        <time>2009-07-25T14:03:04Z</time>
      </trkpt>
      <trkpt lat="45.50867" lon="6.70839">
        <ele>2099.3156738</ele>
        <time>2009-07-25T14:03:11Z</time>
      </trkpt>
      <trkpt lat="45.50856" lon="6.70846">
        <ele>2099.8950195</ele>
        <time>2009-07-25T14:03:18Z</time>
      </trkpt>
      <trkpt lat="45.50845" lon="6.70851">
        <ele>2098.9887695</ele>
        <time>2009-07-25T14:03:23Z</time>
      </trkpt>
      <trkpt lat="45.50836" lon="6.70855">
        <ele>2098.2023926</ele>
        <time>2009-07-25T14:03:27Z</time>
      </trkpt>
      <trkpt lat="45.50825" lon="6.7086">
        <ele>2096.3776855</ele>
        <time>2009-07-25T14:03:32Z</time>
      </trkpt>
      <trkpt lat="45.50811" lon="6.70866">
        <ele>2093.5268555</ele>
        <time>2009-07-25T14:03:38Z</time>
      </trkpt>
      <trkpt lat="45.50801" lon="6.70866">
        <ele>2090.9233398</ele>
        <time>2009-07-25T14:03:43Z</time>
      </trkpt>
      <trkpt lat="45.50788" lon="6.70858">
        <ele>2087.3269043</ele>
        <time>2009-07-25T14:03:49Z</time>
      </trkpt>
      <trkpt lat="45.50775" lon="6.70853">
        <ele>2084.6555176</ele>
        <time>2009-07-25T14:03:55Z</time>
      </trkpt>
      <trkpt lat="45.5076" lon="6.70852">
        <ele>2083.378418</ele>
        <time>2009-07-25T14:04:01Z</time>
      </trkpt>
      <trkpt lat="45.50747" lon="6.70854">
        <ele>2082.1374512</ele>
        <time>2009-07-25T14:04:07Z</time>
      </trkpt>
      <trkpt lat="45.50738" lon="6.70854">
        <ele>2079.3991699</ele>
        <time>2009-07-25T14:04:11Z</time>
      </trkpt>
      <trkpt lat="45.50729" lon="6.70857">
        <ele>2077.092041</ele>
        <time>2009-07-25T14:04:16Z</time>
      </trkpt>
      <trkpt lat="45.50718" lon="6.70862">
        <ele>2076.015625</ele>
        <time>2009-07-25T14:04:21Z</time>
      </trkpt>
      <trkpt lat="45.50711" lon="6.70868">
        <ele>2076.5246582</ele>
        <time>2009-07-25T14:04:25Z</time>
      </trkpt>
      <trkpt lat="45.50698" lon="6.70881">
        <ele>2077.3212891</ele>
        <time>2009-07-25T14:04:32Z</time>
      </trkpt>
      <trkpt lat="45.50689" lon="6.70887">
        <ele>2077.6003418</ele>
        <time>2009-07-25T14:04:36Z</time>
      </trkpt>
      <trkpt lat="45.50682" lon="6.7088">
        <ele>2076.6286621</ele>
        <time>2009-07-25T14:04:40Z</time>
      </trkpt>
      <trkpt lat="45.5068" lon="6.70872">
        <ele>2075.6176758</ele>
        <time>2009-07-25T14:04:43Z</time>
      </trkpt>
      <trkpt lat="45.50678" lon="6.70866">
        <ele>2074.96875</ele>
        <time>2009-07-25T14:04:45Z</time>
      </trkpt>
      <trkpt lat="45.50676" lon="6.70853">
        <ele>2073.6787109</ele>
        <time>2009-07-25T14:04:49Z</time>
      </trkpt>
      <trkpt lat="45.50675" lon="6.7085">
        <ele>2073.3874512</ele>
        <time>2009-07-25T14:04:50Z</time>
      </trkpt>
      <trkpt lat="45.50677" lon="6.70828">
        <ele>2071.5856934</ele>
        <time>2009-07-25T14:04:57Z</time>
      </trkpt>
      <trkpt lat="45.50677" lon="6.70808">
        <ele>2070.1987305</ele>
        <time>2009-07-25T14:05:03Z</time>
      </trkpt>
      <trkpt lat="45.5067" lon="6.70794">
        <ele>2068.6728516</ele>
        <time>2009-07-25T14:05:08Z</time>
      </trkpt>
      <trkpt lat="45.50666" lon="6.70775">
        <ele>2066.8825684</ele>
        <time>2009-07-25T14:05:14Z</time>
      </trkpt>
      <trkpt lat="45.50661" lon="6.70751">
        <ele>2065.5073242</ele>
        <time>2009-07-25T14:05:21Z</time>
      </trkpt>
      <trkpt lat="45.50655" lon="6.70736">
        <ele>2064.2480469</ele>
        <time>2009-07-25T14:05:26Z</time>
      </trkpt>
      <trkpt lat="45.50651" lon="6.70718">
        <ele>2062.6652832</ele>
        <time>2009-07-25T14:05:32Z</time>
      </trkpt>
      <trkpt lat="45.50649" lon="6.707">
        <ele>2060.8422852</ele>
        <time>2009-07-25T14:05:38Z</time>
      </trkpt>
      <trkpt lat="45.50651" lon="6.70681">
        <ele>2058.722168</ele>
        <time>2009-07-25T14:05:44Z</time>
      </trkpt>
      <trkpt lat="45.50654" lon="6.70666">
        <ele>2056.753418</ele>
        <time>2009-07-25T14:05:49Z</time>
      </trkpt>
      <trkpt lat="45.50657" lon="6.7065">
        <ele>2054.5532227</ele>
        <time>2009-07-25T14:05:54Z</time>
      </trkpt>
      <trkpt lat="45.50658" lon="6.70647">
        <ele>2054.0783691</ele>
        <time>2009-07-25T14:05:55Z</time>
      </trkpt>
      <trkpt lat="45.50663" lon="6.70621">
        <ele>2050.4711914</ele>
        <time>2009-07-25T14:06:03Z</time>
      </trkpt>
      <trkpt lat="45.50669" lon="6.70601">
        <ele>2047.5512695</ele>
        <time>2009-07-25T14:06:10Z</time>
      </trkpt>
      <trkpt lat="45.50676" lon="6.70591">
        <ele>2045.8826904</ele>
        <time>2009-07-25T14:06:14Z</time>
      </trkpt>
      <trkpt lat="45.50687" lon="6.70577">
        <ele>2043.045166</ele>
        <time>2009-07-25T14:06:21Z</time>
      </trkpt>
      <trkpt lat="45.50697" lon="6.70566">
        <ele>2041.0189209</ele>
        <time>2009-07-25T14:06:27Z</time>
      </trkpt>
      <trkpt lat="45.50704" lon="6.7055">
        <ele>2039.4709473</ele>
        <time>2009-07-25T14:06:33Z</time>
      </trkpt>
      <trkpt lat="45.5071" lon="6.70529">
        <ele>2038.3543701</ele>
        <time>2009-07-25T14:06:40Z</time>
      </trkpt>
      <trkpt lat="45.50718" lon="6.70515">
        <ele>2036.7919922</ele>
        <time>2009-07-25T14:06:45Z</time>
      </trkpt>
      <trkpt lat="45.5072" lon="6.70511">
        <ele>2036.1456299</ele>
        <time>2009-07-25T14:06:47Z</time>
      </trkpt>
      <trkpt lat="45.50727" lon="6.70507">
        <ele>2035.19104</ele>
        <time>2009-07-25T14:06:51Z</time>
      </trkpt>
      <trkpt lat="45.50736" lon="6.70505">
        <ele>2034.4468994</ele>
        <time>2009-07-25T14:06:56Z</time>
      </trkpt>
      <trkpt lat="45.50745" lon="6.70502">
        <ele>2033.5460205</ele>
        <time>2009-07-25T14:07:01Z</time>
      </trkpt>
      <trkpt lat="45.5075" lon="6.70501">
        <ele>2033.1785889</ele>
        <time>2009-07-25T14:07:04Z</time>
      </trkpt>
      <trkpt lat="45.50761" lon="6.70502">
        <ele>2031.6226807</ele>
        <time>2009-07-25T14:07:10Z</time>
      </trkpt>
      <trkpt lat="45.5077" lon="6.70503">
        <ele>2030.3262939</ele>
        <time>2009-07-25T14:07:14Z</time>
      </trkpt>
      <trkpt lat="45.50777" lon="6.70501">
        <ele>2029.100708</ele>
        <time>2009-07-25T14:07:18Z</time>
      </trkpt>
      <trkpt lat="45.5078" lon="6.70497">
        <ele>2027.6307373</ele>
        <time>2009-07-25T14:07:20Z</time>
      </trkpt>
      <trkpt lat="45.50793" lon="6.70489">
        <ele>2021.706665</ele>
        <time>2009-07-25T14:07:27Z</time>
      </trkpt>
      <trkpt lat="45.50803" lon="6.70485">
        <ele>2017.90271</ele>
        <time>2009-07-25T14:07:32Z</time>
      </trkpt>
      <trkpt lat="45.50809" lon="6.70483">
        <ele>2016.6141357</ele>
        <time>2009-07-25T14:07:35Z</time>
      </trkpt>
      <trkpt lat="45.50815" lon="6.70479">
        <ele>2015.5218506</ele>
        <time>2009-07-25T14:07:38Z</time>
      </trkpt>
      <trkpt lat="45.50824" lon="6.70472">
        <ele>2013.1107178</ele>
        <time>2009-07-25T14:07:43Z</time>
      </trkpt>
      <trkpt lat="45.50839" lon="6.7046">
        <ele>2008.8057861</ele>
        <time>2009-07-25T14:07:51Z</time>
      </trkpt>
      <trkpt lat="45.50846" lon="6.70452">
        <ele>2006.2672119</ele>
        <time>2009-07-25T14:07:55Z</time>
      </trkpt>
      <trkpt lat="45.50854" lon="6.70445">
        <ele>2003.3480225</ele>
        <time>2009-07-25T14:08:00Z</time>
      </trkpt>
      <trkpt lat="45.50864" lon="6.70428">
        <ele>1997.1845703</ele>
        <time>2009-07-25T14:08:07Z</time>
      </trkpt>
      <trkpt lat="45.5087" lon="6.70417">
        <ele>1993.8657227</ele>
        <time>2009-07-25T14:08:12Z</time>
      </trkpt>
      <trkpt lat="45.50875" lon="6.70409">
        <ele>1992.9223633</ele>
        <time>2009-07-25T14:08:16Z</time>
      </trkpt>
      <trkpt lat="45.50876" lon="6.70407">
        <ele>1992.6813965</ele>
        <time>2009-07-25T14:08:17Z</time>
      </trkpt>
      <trkpt lat="45.50882" lon="6.70399">
        <ele>1991.6818848</ele>
        <time>2009-07-25T14:08:21Z</time>
      </trkpt>
      <trkpt lat="45.50888" lon="6.70391">
        <ele>1990.298584</ele>
        <time>2009-07-25T14:08:26Z</time>
      </trkpt>
      <trkpt lat="45.50896" lon="6.70378">
        <ele>1989.0172119</ele>
        <time>2009-07-25T14:08:32Z</time>
      </trkpt>
      <trkpt lat="45.50903" lon="6.70366">
        <ele>1987.4854736</ele>
        <time>2009-07-25T14:08:37Z</time>
      </trkpt>
      <trkpt lat="45.50912" lon="6.70354">
        <ele>1985.8651123</ele>
        <time>2009-07-25T14:08:42Z</time>
      </trkpt>
      <trkpt lat="45.5092" lon="6.7034">
        <ele>1982.8104248</ele>
        <time>2009-07-25T14:08:47Z</time>
      </trkpt>
      <trkpt lat="45.5093" lon="6.70326">
        <ele>1981.8322754</ele>
        <time>2009-07-25T14:08:52Z</time>
      </trkpt>
      <trkpt lat="45.50943" lon="6.70307">
        <ele>1978.5388184</ele>
        <time>2009-07-25T14:08:59Z</time>
      </trkpt>
      <trkpt lat="45.50955" lon="6.70293">
        <ele>1978.1157227</ele>
        <time>2009-07-25T14:09:05Z</time>
      </trkpt>
      <trkpt lat="45.50964" lon="6.70278">
        <ele>1977.5725098</ele>
        <time>2009-07-25T14:09:11Z</time>
      </trkpt>
      <trkpt lat="45.50973" lon="6.70265">
        <ele>1976.4871826</ele>
        <time>2009-07-25T14:09:16Z</time>
      </trkpt>
      <trkpt lat="45.50975" lon="6.70263">
        <ele>1976.1531982</ele>
        <time>2009-07-25T14:09:17Z</time>
      </trkpt>
      <trkpt lat="45.50983" lon="6.70248">
        <ele>1974.0264893</ele>
        <time>2009-07-25T14:09:23Z</time>
      </trkpt>
      <trkpt lat="45.5099" lon="6.70238">
        <ele>1972.6185303</ele>
        <time>2009-07-25T14:09:27Z</time>
      </trkpt>
      <trkpt lat="45.51" lon="6.70224">
        <ele>1970.1032715</ele>
        <time>2009-07-25T14:09:33Z</time>
      </trkpt>
      <trkpt lat="45.51011" lon="6.7021">
        <ele>1969.6342773</ele>
        <time>2009-07-25T14:09:39Z</time>
      </trkpt>
      <trkpt lat="45.51019" lon="6.70199">
        <ele>1968.7198486</ele>
        <time>2009-07-25T14:09:44Z</time>
      </trkpt>
      <trkpt lat="45.51025" lon="6.7019">
        <ele>1967.8222656</ele>
        <time>2009-07-25T14:09:48Z</time>
      </trkpt>
      <trkpt lat="45.51036" lon="6.70172">
        <ele>1965.6279297</ele>
        <time>2009-07-25T14:09:55Z</time>
      </trkpt>
      <trkpt lat="45.51045" lon="6.70157">
        <ele>1963.1268311</ele>
        <time>2009-07-25T14:10:01Z</time>
      </trkpt>
      <trkpt lat="45.5105" lon="6.7015">
        <ele>1961.5505371</ele>
        <time>2009-07-25T14:10:04Z</time>
      </trkpt>
      <trkpt lat="45.5106" lon="6.70137">
        <ele>1959.0777588</ele>
        <time>2009-07-25T14:10:10Z</time>
      </trkpt>
      <trkpt lat="45.51069" lon="6.70124">
        <ele>1959.0710449</ele>
        <time>2009-07-25T14:10:15Z</time>
      </trkpt>
      <trkpt lat="45.5108" lon="6.70107">
        <ele>1957.3416748</ele>
        <time>2009-07-25T14:10:22Z</time>
      </trkpt>
      <trkpt lat="45.51089" lon="6.70088">
        <ele>1955.6276855</ele>
        <time>2009-07-25T14:10:29Z</time>
      </trkpt>
      <trkpt lat="45.51095" lon="6.70075">
        <ele>1954.0013428</ele>
        <time>2009-07-25T14:10:34Z</time>
      </trkpt>
      <trkpt lat="45.51101" lon="6.70063">
        <ele>1952.1793213</ele>
        <time>2009-07-25T14:10:39Z</time>
      </trkpt>
      <trkpt lat="45.51108" lon="6.7005">
        <ele>1950.3841553</ele>
        <time>2009-07-25T14:10:44Z</time>
      </trkpt>
      <trkpt lat="45.51117" lon="6.70031">
        <ele>1949.8704834</ele>
        <time>2009-07-25T14:10:51Z</time>
      </trkpt>
      <trkpt lat="45.51128" lon="6.70009">
        <ele>1948.3354492</ele>
        <time>2009-07-25T14:10:59Z</time>
      </trkpt>
      <trkpt lat="45.51136" lon="6.69994">
        <ele>1946.8400879</ele>
        <time>2009-07-25T14:11:05Z</time>
      </trkpt>
      <trkpt lat="45.51147" lon="6.69976">
        <ele>1944.9802246</ele>
        <time>2009-07-25T14:11:12Z</time>
      </trkpt>
      <trkpt lat="45.51154" lon="6.69959">
        <ele>1943.7261963</ele>
        <time>2009-07-25T14:11:18Z</time>
      </trkpt>
      <trkpt lat="45.5116" lon="6.69947">
        <ele>1942.6889648</ele>
        <time>2009-07-25T14:11:22Z</time>
      </trkpt>
      <trkpt lat="45.51167" lon="6.69934">
        <ele>1940.871582</ele>
        <time>2009-07-25T14:11:27Z</time>
      </trkpt>
      <trkpt lat="45.51175" lon="6.69923">
        <ele>1940.4814453</ele>
        <time>2009-07-25T14:11:32Z</time>
      </trkpt>
      <trkpt lat="45.51176" lon="6.69921">
        <ele>1940.4233398</ele>
        <time>2009-07-25T14:11:33Z</time>
      </trkpt>
      <trkpt lat="45.5118" lon="6.69903">
        <ele>1939.7011719</ele>
        <time>2009-07-25T14:11:39Z</time>
      </trkpt>
      <trkpt lat="45.51182" lon="6.69898">
        <ele>1939.5789795</ele>
        <time>2009-07-25T14:11:41Z</time>
      </trkpt>
      <trkpt lat="45.51188" lon="6.6988">
        <ele>1938.5302734</ele>
        <time>2009-07-25T14:11:47Z</time>
      </trkpt>
      <trkpt lat="45.51189" lon="6.69878">
        <ele>1938.2137451</ele>
        <time>2009-07-25T14:11:48Z</time>
      </trkpt>
      <trkpt lat="45.51195" lon="6.69859">
        <ele>1935.708374</ele>
        <time>2009-07-25T14:11:54Z</time>
      </trkpt>
      <trkpt lat="45.51201" lon="6.69844">
        <ele>1933.8105469</ele>
        <time>2009-07-25T14:12:00Z</time>
      </trkpt>
      <trkpt lat="45.5121" lon="6.69829">
        <ele>1931.9731445</ele>
        <time>2009-07-25T14:12:06Z</time>
      </trkpt>
      <trkpt lat="45.51219" lon="6.69818">
        <ele>1930.7196045</ele>
        <time>2009-07-25T14:12:11Z</time>
      </trkpt>
      <trkpt lat="45.51226" lon="6.69812">
        <ele>1929.7032471</ele>
        <time>2009-07-25T14:12:15Z</time>
      </trkpt>
      <trkpt lat="45.51237" lon="6.69806">
        <ele>1928.4768066</ele>
        <time>2009-07-25T14:12:20Z</time>
      </trkpt>
      <trkpt lat="45.51245" lon="6.69799">
        <ele>1927.9515381</ele>
        <time>2009-07-25T14:12:24Z</time>
      </trkpt>
      <trkpt lat="45.51249" lon="6.69796">
        <ele>1927.7060547</ele>
        <time>2009-07-25T14:12:26Z</time>
      </trkpt>
      <trkpt lat="45.51257" lon="6.69789">
        <ele>1926.4381104</ele>
        <time>2009-07-25T14:12:32Z</time>
      </trkpt>
      <trkpt lat="45.51266" lon="6.69778">
        <ele>1924.105835</ele>
        <time>2009-07-25T14:12:40Z</time>
      </trkpt>
      <trkpt lat="45.51271" lon="6.69772">
        <ele>1922.9912109</ele>
        <time>2009-07-25T14:12:45Z</time>
      </trkpt>
      <trkpt lat="45.51276" lon="6.69765">
        <ele>1921.8764648</ele>
        <time>2009-07-25T14:12:50Z</time>
      </trkpt>
      <trkpt lat="45.51283" lon="6.69753">
        <ele>1920.7756348</ele>
        <time>2009-07-25T14:12:59Z</time>
      </trkpt>
      <trkpt lat="45.51287" lon="6.6975">
        <ele>1920.4085693</ele>
        <time>2009-07-25T14:13:07Z</time>
      </trkpt>
      <trkpt lat="45.51288" lon="6.69748">
        <ele>1920.5214844</ele>
        <time>2009-07-25T14:13:13Z</time>
      </trkpt>
      <trkpt lat="45.51287" lon="6.69748">
        <ele>1920.5799561</ele>
        <time>2009-07-25T14:13:19Z</time>
      </trkpt>
      <trkpt lat="45.51288" lon="6.69749">
        <ele>1920.3902588</ele>
        <time>2009-07-25T14:13:23Z</time>
      </trkpt>
      <trkpt lat="45.51288" lon="6.69746">
        <ele>1920.871582</ele>
        <time>2009-07-25T14:13:28Z</time>
      </trkpt>
      <trkpt lat="45.51288" lon="6.69746">
        <ele>1920.907959</ele>
        <time>2009-07-25T14:13:34Z</time>
      </trkpt>
      <trkpt lat="45.5129" lon="6.69747">
        <ele>1920.6081543</ele>
        <time>2009-07-25T14:13:45Z</time>
      </trkpt>
      <trkpt lat="45.5129" lon="6.69747">
        <ele>1920.6176758</ele>
        <time>2009-07-25T14:13:53Z</time>
      </trkpt>
      <trkpt lat="45.5129" lon="6.69747">
        <ele>1920.5750732</ele>
        <time>2009-07-25T14:14:03Z</time>
      </trkpt>
      <trkpt lat="45.51292" lon="6.69748">
        <ele>1920.2541504</ele>
        <time>2009-07-25T14:14:44Z</time>
      </trkpt>
      <trkpt lat="45.51291" lon="6.69749">
        <ele>1920.2681885</ele>
        <time>2009-07-25T14:15:11Z</time>
      </trkpt>
      <trkpt lat="45.51293" lon="6.69747">
        <ele>1920.3051758</ele>
        <time>2009-07-25T14:15:19Z</time>
      </trkpt>
      <trkpt lat="45.51292" lon="6.69747">
        <ele>1920.4473877</ele>
        <time>2009-07-25T14:15:23Z</time>
      </trkpt>
      <trkpt lat="45.51303" lon="6.6975">
        <ele>1919.1849365</ele>
        <time>2009-07-25T14:15:34Z</time>
      </trkpt>
      <trkpt lat="45.51316" lon="6.69754">
        <ele>1919.2497559</ele>
        <time>2009-07-25T14:15:45Z</time>
      </trkpt>
      <trkpt lat="45.51323" lon="6.69761">
        <ele>1919.5610352</ele>
        <time>2009-07-25T14:15:54Z</time>
      </trkpt>
      <trkpt lat="45.51326" lon="6.69766">
        <ele>1919.7346191</ele>
        <time>2009-07-25T14:16:00Z</time>
      </trkpt>
      <trkpt lat="45.51329" lon="6.69768">
        <ele>1919.7679443</ele>
        <time>2009-07-25T14:16:03Z</time>
      </trkpt>
      <trkpt lat="45.51333" lon="6.69772">
        <ele>1919.7949219</ele>
        <time>2009-07-25T14:16:07Z</time>
      </trkpt>
      <trkpt lat="45.51334" lon="6.69776">
        <ele>1919.9564209</ele>
        <time>2009-07-25T14:16:11Z</time>
      </trkpt>
      <trkpt lat="45.5134" lon="6.69779">
        <ele>1920.4116211</ele>
        <time>2009-07-25T14:16:17Z</time>
      </trkpt>
      <trkpt lat="45.5136" lon="6.69785">
        <ele>1921.6973877</ele>
        <time>2009-07-25T14:16:27Z</time>
      </trkpt>
      <trkpt lat="45.5137" lon="6.69784">
        <ele>1922.696167</ele>
        <time>2009-07-25T14:16:34Z</time>
      </trkpt>
      <trkpt lat="45.51378" lon="6.6978">
        <ele>1923.010376</ele>
        <time>2009-07-25T14:16:42Z</time>
      </trkpt>
      <trkpt lat="45.51389" lon="6.69777">
        <ele>1923.932251</ele>
        <time>2009-07-25T14:16:50Z</time>
      </trkpt>
      <trkpt lat="45.514" lon="6.69774">
        <ele>1924.7719727</ele>
        <time>2009-07-25T14:16:56Z</time>
      </trkpt>
      <trkpt lat="45.51408" lon="6.69773">
        <ele>1925.703125</ele>
        <time>2009-07-25T14:17:01Z</time>
      </trkpt>
      <trkpt lat="45.51416" lon="6.69771">
        <ele>1926.463501</ele>
        <time>2009-07-25T14:17:06Z</time>
      </trkpt>
      <trkpt lat="45.51421" lon="6.69766">
        <ele>1925.9794922</ele>
        <time>2009-07-25T14:17:09Z</time>
      </trkpt>
      <trkpt lat="45.51432" lon="6.69758">
        <ele>1925.0319824</ele>
        <time>2009-07-25T14:17:18Z</time>
      </trkpt>
      <trkpt lat="45.51442" lon="6.69761">
        <ele>1924.8876953</ele>
        <time>2009-07-25T14:17:26Z</time>
      </trkpt>
      <trkpt lat="45.51452" lon="6.69764">
        <ele>1924.3127441</ele>
        <time>2009-07-25T14:17:33Z</time>
      </trkpt>
      <trkpt lat="45.51459" lon="6.69767">
        <ele>1924.1586914</ele>
        <time>2009-07-25T14:17:38Z</time>
      </trkpt>
      <trkpt lat="45.51463" lon="6.6977">
        <ele>1924.1811523</ele>
        <time>2009-07-25T14:17:41Z</time>
      </trkpt>
      <trkpt lat="45.51473" lon="6.69771">
        <ele>1923.7487793</ele>
        <time>2009-07-25T14:17:49Z</time>
      </trkpt>
      <trkpt lat="45.51479" lon="6.69772">
        <ele>1924.4520264</ele>
        <time>2009-07-25T14:17:54Z</time>
      </trkpt>
      <trkpt lat="45.51493" lon="6.69769">
        <ele>1924.432251</ele>
        <time>2009-07-25T14:18:03Z</time>
      </trkpt>
      <trkpt lat="45.515" lon="6.69764">
        <ele>1923.4232178</ele>
        <time>2009-07-25T14:18:08Z</time>
      </trkpt>
      <trkpt lat="45.51505" lon="6.6976">
        <ele>1922.6052246</ele>
        <time>2009-07-25T14:18:12Z</time>
      </trkpt>
      <trkpt lat="45.51515" lon="6.69752">
        <ele>1920.5238037</ele>
        <time>2009-07-25T14:18:20Z</time>
      </trkpt>
      <trkpt lat="45.51522" lon="6.69741">
        <ele>1916.901123</ele>
        <time>2009-07-25T14:18:27Z</time>
      </trkpt>
      <trkpt lat="45.51528" lon="6.6973">
        <ele>1912.6812744</ele>
        <time>2009-07-25T14:18:34Z</time>
      </trkpt>
      <trkpt lat="45.51532" lon="6.6972">
        <ele>1911.0355225</ele>
        <time>2009-07-25T14:18:39Z</time>
      </trkpt>
      <trkpt lat="45.51535" lon="6.69706">
        <ele>1910.118042</ele>
        <time>2009-07-25T14:18:46Z</time>
      </trkpt>
      <trkpt lat="45.51538" lon="6.69695">
        <ele>1909.3741455</ele>
        <time>2009-07-25T14:18:52Z</time>
      </trkpt>
      <trkpt lat="45.51542" lon="6.6968">
        <ele>1908.227417</ele>
        <time>2009-07-25T14:19:00Z</time>
      </trkpt>
      <trkpt lat="45.51545" lon="6.69664">
        <ele>1906.6835938</ele>
        <time>2009-07-25T14:19:08Z</time>
      </trkpt>
      <trkpt lat="45.51549" lon="6.69648">
        <ele>1905.0333252</ele>
        <time>2009-07-25T14:19:16Z</time>
      </trkpt>
      <trkpt lat="45.51552" lon="6.69631">
        <ele>1903.1402588</ele>
        <time>2009-07-25T14:19:25Z</time>
      </trkpt>
      <trkpt lat="45.51556" lon="6.69617">
        <ele>1901.8564453</ele>
        <time>2009-07-25T14:19:33Z</time>
      </trkpt>
      <trkpt lat="45.51558" lon="6.69608">
        <ele>1901.916748</ele>
        <time>2009-07-25T14:19:38Z</time>
      </trkpt>
      <trkpt lat="45.5156" lon="6.69597">
        <ele>1902.2889404</ele>
        <time>2009-07-25T14:19:44Z</time>
      </trkpt>
      <trkpt lat="45.51564" lon="6.69581">
        <ele>1902.4642334</ele>
        <time>2009-07-25T14:19:52Z</time>
      </trkpt>
      <trkpt lat="45.51567" lon="6.69567">
        <ele>1902.3814697</ele>
        <time>2009-07-25T14:19:59Z</time>
      </trkpt>
      <trkpt lat="45.51569" lon="6.69553">
        <ele>1902.3233643</ele>
        <time>2009-07-25T14:20:06Z</time>
      </trkpt>
      <trkpt lat="45.51572" lon="6.69539">
        <ele>1902.4299316</ele>
        <time>2009-07-25T14:20:13Z</time>
      </trkpt>
      <trkpt lat="45.51574" lon="6.69521">
        <ele>1902.0772705</ele>
        <time>2009-07-25T14:20:21Z</time>
      </trkpt>
      <trkpt lat="45.51575" lon="6.69505">
        <ele>1901.3068848</ele>
        <time>2009-07-25T14:20:29Z</time>
      </trkpt>
      <trkpt lat="45.51575" lon="6.69494">
        <ele>1900.0982666</ele>
        <time>2009-07-25T14:20:34Z</time>
      </trkpt>
      <trkpt lat="45.51573" lon="6.69489">
        <ele>1898.7456055</ele>
        <time>2009-07-25T14:20:38Z</time>
      </trkpt>
      <trkpt lat="45.51571" lon="6.69486">
        <ele>1897.5560303</ele>
        <time>2009-07-25T14:20:45Z</time>
      </trkpt>
      <trkpt lat="45.51568" lon="6.69473">
        <ele>1895.1339111</ele>
        <time>2009-07-25T14:20:52Z</time>
      </trkpt>
      <trkpt lat="45.51562" lon="6.6946">
        <ele>1891.6990967</ele>
        <time>2009-07-25T14:21:00Z</time>
      </trkpt>
      <trkpt lat="45.51556" lon="6.69452">
        <ele>1888.7053223</ele>
        <time>2009-07-25T14:21:06Z</time>
      </trkpt>
      <trkpt lat="45.51546" lon="6.69446">
        <ele>1887.7536621</ele>
        <time>2009-07-25T14:21:13Z</time>
      </trkpt>
      <trkpt lat="45.51542" lon="6.69443">
        <ele>1887.3100586</ele>
        <time>2009-07-25T14:21:17Z</time>
      </trkpt>
      <trkpt lat="45.51535" lon="6.69442">
        <ele>1886.8098145</ele>
        <time>2009-07-25T14:21:22Z</time>
      </trkpt>
      <trkpt lat="45.51526" lon="6.69441">
        <ele>1886.2358398</ele>
        <time>2009-07-25T14:21:29Z</time>
      </trkpt>
      <trkpt lat="45.51515" lon="6.69443">
        <ele>1884.5784912</ele>
        <time>2009-07-25T14:21:36Z</time>
      </trkpt>
      <trkpt lat="45.51508" lon="6.69449">
        <ele>1884.0922852</ele>
        <time>2009-07-25T14:21:44Z</time>
      </trkpt>
      <trkpt lat="45.51503" lon="6.69456">
        <ele>1884.4311523</ele>
        <time>2009-07-25T14:21:50Z</time>
      </trkpt>
      <trkpt lat="45.51501" lon="6.6945">
        <ele>1883.2006836</ele>
        <time>2009-07-25T14:21:54Z</time>
      </trkpt>
      <trkpt lat="45.51508" lon="6.6944">
        <ele>1882.7286377</ele>
        <time>2009-07-25T14:22:00Z</time>
      </trkpt>
      <trkpt lat="45.51512" lon="6.69434">
        <ele>1882.4713135</ele>
        <time>2009-07-25T14:22:03Z</time>
      </trkpt>
      <trkpt lat="45.51523" lon="6.69424">
        <ele>1883.0996094</ele>
        <time>2009-07-25T14:22:10Z</time>
      </trkpt>
      <trkpt lat="45.51532" lon="6.69417">
        <ele>1882.9136963</ele>
        <time>2009-07-25T14:22:15Z</time>
      </trkpt>
      <trkpt lat="45.51541" lon="6.69413">
        <ele>1881.6591797</ele>
        <time>2009-07-25T14:22:20Z</time>
      </trkpt>
      <trkpt lat="45.51551" lon="6.69408">
        <ele>1880.1573486</ele>
        <time>2009-07-25T14:22:26Z</time>
      </trkpt>
      <trkpt lat="45.51561" lon="6.69405">
        <ele>1879.3375244</ele>
        <time>2009-07-25T14:22:31Z</time>
      </trkpt>
      <trkpt lat="45.51572" lon="6.69398">
        <ele>1877.2770996</ele>
        <time>2009-07-25T14:22:37Z</time>
      </trkpt>
      <trkpt lat="45.51581" lon="6.69395">
        <ele>1875.7133789</ele>
        <time>2009-07-25T14:22:43Z</time>
      </trkpt>
      <trkpt lat="45.51589" lon="6.69391">
        <ele>1873.0405273</ele>
        <time>2009-07-25T14:22:47Z</time>
      </trkpt>
      <trkpt lat="45.51597" lon="6.69385">
        <ele>1869.7167969</ele>
        <time>2009-07-25T14:22:51Z</time>
      </trkpt>
      <trkpt lat="45.51611" lon="6.69378">
        <ele>1866.1368408</ele>
        <time>2009-07-25T14:22:58Z</time>
      </trkpt>
      <trkpt lat="45.51622" lon="6.69369">
        <ele>1863.6416016</ele>
        <time>2009-07-25T14:23:04Z</time>
      </trkpt>
      <trkpt lat="45.5163" lon="6.69358">
        <ele>1860.2977295</ele>
        <time>2009-07-25T14:23:08Z</time>
      </trkpt>
      <trkpt lat="45.51632" lon="6.69357">
        <ele>1860.0797119</ele>
        <time>2009-07-25T14:23:09Z</time>
      </trkpt>
      <trkpt lat="45.51641" lon="6.69355">
        <ele>1860.894165</ele>
        <time>2009-07-25T14:23:14Z</time>
      </trkpt>
      <trkpt lat="45.51643" lon="6.69355">
        <ele>1860.9855957</ele>
        <time>2009-07-25T14:23:15Z</time>
      </trkpt>
      <trkpt lat="45.51655" lon="6.69351">
        <ele>1860.5963135</ele>
        <time>2009-07-25T14:23:21Z</time>
      </trkpt>
      <trkpt lat="45.51662" lon="6.6935">
        <ele>1860.8917236</ele>
        <time>2009-07-25T14:23:24Z</time>
      </trkpt>
      <trkpt lat="45.51672" lon="6.69348">
        <ele>1860.8209229</ele>
        <time>2009-07-25T14:23:29Z</time>
      </trkpt>
      <trkpt lat="45.5168" lon="6.69346">
        <ele>1860.0383301</ele>
        <time>2009-07-25T14:23:33Z</time>
      </trkpt>
      <trkpt lat="45.51693" lon="6.6934">
        <ele>1858.5841064</ele>
        <time>2009-07-25T14:23:40Z</time>
      </trkpt>
      <trkpt lat="45.51704" lon="6.69335">
        <ele>1858.1104736</ele>
        <time>2009-07-25T14:23:45Z</time>
      </trkpt>
      <trkpt lat="45.51715" lon="6.69326">
        <ele>1854.9493408</ele>
        <time>2009-07-25T14:23:50Z</time>
      </trkpt>
      <trkpt lat="45.5172" lon="6.6932">
        <ele>1852.7495117</ele>
        <time>2009-07-25T14:23:53Z</time>
      </trkpt>
      <trkpt lat="45.51728" lon="6.69321">
        <ele>1854.0946045</ele>
        <time>2009-07-25T14:23:57Z</time>
      </trkpt>
      <trkpt lat="45.51735" lon="6.69317">
        <ele>1852.7666016</ele>
        <time>2009-07-25T14:24:01Z</time>
      </trkpt>
      <trkpt lat="45.51748" lon="6.69309">
        <ele>1851.6672363</ele>
        <time>2009-07-25T14:24:07Z</time>
      </trkpt>
      <trkpt lat="45.51757" lon="6.69308">
        <ele>1852.4802246</ele>
        <time>2009-07-25T14:24:12Z</time>
      </trkpt>
      <trkpt lat="45.51765" lon="6.69302">
        <ele>1850.010498</ele>
        <time>2009-07-25T14:24:16Z</time>
      </trkpt>
      <trkpt lat="45.51776" lon="6.69294">
        <ele>1847.5400391</ele>
        <time>2009-07-25T14:24:22Z</time>
      </trkpt>
      <trkpt lat="45.51786" lon="6.6929">
        <ele>1847.3040771</ele>
        <time>2009-07-25T14:24:28Z</time>
      </trkpt>
      <trkpt lat="45.51789" lon="6.69289">
        <ele>1847.6584473</ele>
        <time>2009-07-25T14:24:30Z</time>
      </trkpt>
      <trkpt lat="45.51801" lon="6.69282">
        <ele>1846.4207764</ele>
        <time>2009-07-25T14:24:36Z</time>
      </trkpt>
      <trkpt lat="45.51811" lon="6.69276">
        <ele>1845.4318848</ele>
        <time>2009-07-25T14:24:41Z</time>
      </trkpt>
      <trkpt lat="45.51812" lon="6.69275">
        <ele>1845.401001</ele>
        <time>2009-07-25T14:24:42Z</time>
      </trkpt>
      <trkpt lat="45.5182" lon="6.69272">
        <ele>1845.6536865</ele>
        <time>2009-07-25T14:24:47Z</time>
      </trkpt>
      <trkpt lat="45.51823" lon="6.69271">
        <ele>1846.1014404</ele>
        <time>2009-07-25T14:24:50Z</time>
      </trkpt>
      <trkpt lat="45.5183" lon="6.6928">
        <ele>1852.2705078</ele>
        <time>2009-07-25T14:25:01Z</time>
      </trkpt>
      <trkpt lat="45.51839" lon="6.69284">
        <ele>1856.2435303</ele>
        <time>2009-07-25T14:25:19Z</time>
      </trkpt>
      <trkpt lat="45.51842" lon="6.69284">
        <ele>1857.0621338</ele>
        <time>2009-07-25T14:25:25Z</time>
      </trkpt>
      <trkpt lat="45.51842" lon="6.69271">
        <ele>1851.0026855</ele>
        <time>2009-07-25T14:25:31Z</time>
      </trkpt>
      <trkpt lat="45.51847" lon="6.69262">
        <ele>1848.5738525</ele>
        <time>2009-07-25T14:25:37Z</time>
      </trkpt>
      <trkpt lat="45.51852" lon="6.69253">
        <ele>1847.2822266</ele>
        <time>2009-07-25T14:25:44Z</time>
      </trkpt>
      <trkpt lat="45.51859" lon="6.69237">
        <ele>1844.1621094</ele>
        <time>2009-07-25T14:25:52Z</time>
      </trkpt>
      <trkpt lat="45.51871" lon="6.6922">
        <ele>1842.4083252</ele>
        <time>2009-07-25T14:26:04Z</time>
      </trkpt>
      <trkpt lat="45.5188" lon="6.69208">
        <ele>1842.6618652</ele>
        <time>2009-07-25T14:26:13Z</time>
      </trkpt>
      <trkpt lat="45.51886" lon="6.69201">
        <ele>1843.852417</ele>
        <time>2009-07-25T14:26:20Z</time>
      </trkpt>
      <trkpt lat="45.51897" lon="6.69196">
        <ele>1846.7022705</ele>
        <time>2009-07-25T14:26:29Z</time>
      </trkpt>
      <trkpt lat="45.51904" lon="6.69192">
        <ele>1848.3074951</ele>
        <time>2009-07-25T14:26:35Z</time>
      </trkpt>
      <trkpt lat="45.51912" lon="6.69188">
        <ele>1850.0843506</ele>
        <time>2009-07-25T14:26:42Z</time>
      </trkpt>
      <trkpt lat="45.51921" lon="6.69182">
        <ele>1852.0919189</ele>
        <time>2009-07-25T14:26:51Z</time>
      </trkpt>
      <trkpt lat="45.51927" lon="6.6918">
        <ele>1853.5339355</ele>
        <time>2009-07-25T14:26:57Z</time>
      </trkpt>
      <trkpt lat="45.51936" lon="6.69171">
        <ele>1854.1105957</ele>
        <time>2009-07-25T14:27:07Z</time>
      </trkpt>
      <trkpt lat="45.51941" lon="6.69164">
        <ele>1853.973877</ele>
        <time>2009-07-25T14:27:14Z</time>
      </trkpt>
      <trkpt lat="45.51948" lon="6.69158">
        <ele>1853.9075928</ele>
        <time>2009-07-25T14:27:22Z</time>
      </trkpt>
      <trkpt lat="45.51954" lon="6.69154">
        <ele>1854.0568848</ele>
        <time>2009-07-25T14:27:30Z</time>
      </trkpt>
      <trkpt lat="45.51959" lon="6.6915">
        <ele>1853.6552734</ele>
        <time>2009-07-25T14:27:35Z</time>
      </trkpt>
      <trkpt lat="45.51963" lon="6.69146">
        <ele>1853.3359375</ele>
        <time>2009-07-25T14:27:41Z</time>
      </trkpt>
      <trkpt lat="45.51969" lon="6.69144">
        <ele>1853.8200684</ele>
        <time>2009-07-25T14:27:46Z</time>
      </trkpt>
      <trkpt lat="45.51973" lon="6.69137">
        <ele>1853.2911377</ele>
        <time>2009-07-25T14:27:52Z</time>
      </trkpt>
      <trkpt lat="45.51974" lon="6.69135">
        <ele>1853.5142822</ele>
        <time>2009-07-25T14:27:54Z</time>
      </trkpt>
      <trkpt lat="45.51978" lon="6.69127">
        <ele>1853.7374268</ele>
        <time>2009-07-25T14:28:00Z</time>
      </trkpt>
      <trkpt lat="45.5198" lon="6.69123">
        <ele>1854.2524414</ele>
        <time>2009-07-25T14:28:03Z</time>
      </trkpt>
      <trkpt lat="45.51987" lon="6.69111">
        <ele>1855.7871094</ele>
        <time>2009-07-25T14:28:12Z</time>
      </trkpt>
      <trkpt lat="45.5199" lon="6.69107">
        <ele>1857.0093994</ele>
        <time>2009-07-25T14:28:16Z</time>
      </trkpt>
      <trkpt lat="45.51999" lon="6.69097">
        <ele>1860.1816406</ele>
        <time>2009-07-25T14:28:24Z</time>
      </trkpt>
      <trkpt lat="45.52007" lon="6.69088">
        <ele>1861.847168</ele>
        <time>2009-07-25T14:28:32Z</time>
      </trkpt>
      <trkpt lat="45.52012" lon="6.6908">
        <ele>1862.4290771</ele>
        <time>2009-07-25T14:28:37Z</time>
      </trkpt>
      <trkpt lat="45.52017" lon="6.69075">
        <ele>1863.3182373</ele>
        <time>2009-07-25T14:28:41Z</time>
      </trkpt>
      <trkpt lat="45.52024" lon="6.69065">
        <ele>1864.6453857</ele>
        <time>2009-07-25T14:28:48Z</time>
      </trkpt>
      <trkpt lat="45.52029" lon="6.69059">
        <ele>1865.6541748</ele>
        <time>2009-07-25T14:28:53Z</time>
      </trkpt>
      <trkpt lat="45.52034" lon="6.69049">
        <ele>1865.3574219</ele>
        <time>2009-07-25T14:28:59Z</time>
      </trkpt>
      <trkpt lat="45.5204" lon="6.69038">
        <ele>1865.3505859</ele>
        <time>2009-07-25T14:29:06Z</time>
      </trkpt>
      <trkpt lat="45.52046" lon="6.6903">
        <ele>1865.6029053</ele>
        <time>2009-07-25T14:29:11Z</time>
      </trkpt>
      <trkpt lat="45.52054" lon="6.69019">
        <ele>1865.5550537</ele>
        <time>2009-07-25T14:29:19Z</time>
      </trkpt>
      <trkpt lat="45.52062" lon="6.6901">
        <ele>1865.5266113</ele>
        <time>2009-07-25T14:29:26Z</time>
      </trkpt>
      <trkpt lat="45.52068" lon="6.69005">
        <ele>1866.034668</ele>
        <time>2009-07-25T14:29:31Z</time>
      </trkpt>
      <trkpt lat="45.52071" lon="6.69001">
        <ele>1865.9935303</ele>
        <time>2009-07-25T14:29:33Z</time>
      </trkpt>
      <trkpt lat="45.5208" lon="6.68997">
        <ele>1866.9611816</ele>
        <time>2009-07-25T14:29:39Z</time>
      </trkpt>
      <trkpt lat="45.52084" lon="6.68995">
        <ele>1867.357666</ele>
        <time>2009-07-25T14:29:42Z</time>
      </trkpt>
      <trkpt lat="45.52088" lon="6.68992">
        <ele>1867.5910645</ele>
        <time>2009-07-25T14:29:46Z</time>
      </trkpt>
      <trkpt lat="45.52097" lon="6.68987">
        <ele>1868.0581055</ele>
        <time>2009-07-25T14:29:53Z</time>
      </trkpt>
      <trkpt lat="45.52102" lon="6.6898">
        <ele>1867.9138184</ele>
        <time>2009-07-25T14:29:59Z</time>
      </trkpt>
      <trkpt lat="45.52108" lon="6.68967">
        <ele>1866.8879395</ele>
        <time>2009-07-25T14:30:06Z</time>
      </trkpt>
      <trkpt lat="45.52108" lon="6.68966">
        <ele>1866.8295898</ele>
        <time>2009-07-25T14:30:07Z</time>
      </trkpt>
      <trkpt lat="45.52111" lon="6.68952">
        <ele>1866.0124512</ele>
        <time>2009-07-25T14:30:14Z</time>
      </trkpt>
      <trkpt lat="45.52115" lon="6.68936">
        <ele>1866.0515137</ele>
        <time>2009-07-25T14:30:23Z</time>
      </trkpt>
      <trkpt lat="45.52118" lon="6.6893">
        <ele>1866.3319092</ele>
        <time>2009-07-25T14:30:27Z</time>
      </trkpt>
      <trkpt lat="45.52127" lon="6.68923">
        <ele>1869.1574707</ele>
        <time>2009-07-25T14:30:35Z</time>
      </trkpt>
      <trkpt lat="45.5213" lon="6.68921">
        <ele>1870.2203369</ele>
        <time>2009-07-25T14:30:37Z</time>
      </trkpt>
      <trkpt lat="45.52135" lon="6.68919">
        <ele>1871.8929443</ele>
        <time>2009-07-25T14:30:41Z</time>
      </trkpt>
      <trkpt lat="45.52143" lon="6.68909">
        <ele>1873.2821045</ele>
        <time>2009-07-25T14:30:49Z</time>
      </trkpt>
      <trkpt lat="45.52148" lon="6.68902">
        <ele>1874.4249268</ele>
        <time>2009-07-25T14:30:55Z</time>
      </trkpt>
      <trkpt lat="45.52154" lon="6.68889">
        <ele>1875.1641846</ele>
        <time>2009-07-25T14:31:03Z</time>
      </trkpt>
      <trkpt lat="45.52159" lon="6.68877">
        <ele>1875.3759766</ele>
        <time>2009-07-25T14:31:10Z</time>
      </trkpt>
      <trkpt lat="45.52161" lon="6.68865">
        <ele>1875.1802979</ele>
        <time>2009-07-25T14:31:16Z</time>
      </trkpt>
      <trkpt lat="45.52164" lon="6.6885">
        <ele>1874.4534912</ele>
        <time>2009-07-25T14:31:24Z</time>
      </trkpt>
      <trkpt lat="45.5217" lon="6.68842">
        <ele>1876.2799072</ele>
        <time>2009-07-25T14:31:32Z</time>
      </trkpt>
      <trkpt lat="45.52175" lon="6.68838">
        <ele>1877.7324219</ele>
        <time>2009-07-25T14:31:37Z</time>
      </trkpt>
      <trkpt lat="45.52184" lon="6.68836">
        <ele>1880.9667969</ele>
        <time>2009-07-25T14:31:44Z</time>
      </trkpt>
      <trkpt lat="45.52189" lon="6.68836">
        <ele>1883.2740479</ele>
        <time>2009-07-25T14:31:49Z</time>
      </trkpt>
      <trkpt lat="45.52198" lon="6.68839">
        <ele>1886.7983398</ele>
        <time>2009-07-25T14:31:56Z</time>
      </trkpt>
      <trkpt lat="45.52206" lon="6.68837">
        <ele>1886.3294678</ele>
        <time>2009-07-25T14:32:01Z</time>
      </trkpt>
      <trkpt lat="45.52211" lon="6.68836">
        <ele>1885.5831299</ele>
        <time>2009-07-25T14:32:06Z</time>
      </trkpt>
      <trkpt lat="45.52217" lon="6.68831">
        <ele>1883.3137207</ele>
        <time>2009-07-25T14:32:11Z</time>
      </trkpt>
      <trkpt lat="45.52218" lon="6.68829">
        <ele>1882.4533691</ele>
        <time>2009-07-25T14:32:12Z</time>
      </trkpt>
      <trkpt lat="45.52227" lon="6.68823">
        <ele>1881.0303955</ele>
        <time>2009-07-25T14:32:19Z</time>
      </trkpt>
      <trkpt lat="45.52237" lon="6.68816">
        <ele>1880.9967041</ele>
        <time>2009-07-25T14:32:26Z</time>
      </trkpt>
      <trkpt lat="45.52246" lon="6.68812">
        <ele>1882.3634033</ele>
        <time>2009-07-25T14:32:33Z</time>
      </trkpt>
      <trkpt lat="45.52252" lon="6.68812">
        <ele>1884.2249756</ele>
        <time>2009-07-25T14:32:37Z</time>
      </trkpt>
      <trkpt lat="45.52262" lon="6.68808">
        <ele>1885.0195313</ele>
        <time>2009-07-25T14:32:44Z</time>
      </trkpt>
      <trkpt lat="45.52269" lon="6.68805">
        <ele>1885.2025146</ele>
        <time>2009-07-25T14:32:49Z</time>
      </trkpt>
      <trkpt lat="45.52273" lon="6.68798">
        <ele>1884.5043945</ele>
        <time>2009-07-25T14:32:54Z</time>
      </trkpt>
      <trkpt lat="45.52277" lon="6.68788">
        <ele>1883.5922852</ele>
        <time>2009-07-25T14:32:59Z</time>
      </trkpt>
      <trkpt lat="45.52282" lon="6.68773">
        <ele>1882.651001</ele>
        <time>2009-07-25T14:33:06Z</time>
      </trkpt>
      <trkpt lat="45.52286" lon="6.68765">
        <ele>1882.4437256</ele>
        <time>2009-07-25T14:33:11Z</time>
      </trkpt>
      <trkpt lat="45.52289" lon="6.68757">
        <ele>1881.6687012</ele>
        <time>2009-07-25T14:33:15Z</time>
      </trkpt>
      <trkpt lat="45.52295" lon="6.68742">
        <ele>1880.8933105</ele>
        <time>2009-07-25T14:33:23Z</time>
      </trkpt>
      <trkpt lat="45.52296" lon="6.68739">
        <ele>1881.0501709</ele>
        <time>2009-07-25T14:33:25Z</time>
      </trkpt>
      <trkpt lat="45.523" lon="6.6873">
        <ele>1880.5257568</ele>
        <time>2009-07-25T14:33:30Z</time>
      </trkpt>
      <trkpt lat="45.52306" lon="6.68727">
        <ele>1883.4189453</ele>
        <time>2009-07-25T14:33:34Z</time>
      </trkpt>
      <trkpt lat="45.52315" lon="6.68724">
        <ele>1885.8144531</ele>
        <time>2009-07-25T14:33:40Z</time>
      </trkpt>
      <trkpt lat="45.52321" lon="6.6872">
        <ele>1886.9697266</ele>
        <time>2009-07-25T14:33:44Z</time>
      </trkpt>
      <trkpt lat="45.52324" lon="6.68717">
        <ele>1887.4327393</ele>
        <time>2009-07-25T14:33:46Z</time>
      </trkpt>
      <trkpt lat="45.5233" lon="6.687">
        <ele>1886.161377</ele>
        <time>2009-07-25T14:33:53Z</time>
      </trkpt>
      <trkpt lat="45.5233" lon="6.68696">
        <ele>1885.4310303</ele>
        <time>2009-07-25T14:33:55Z</time>
      </trkpt>
      <trkpt lat="45.52331" lon="6.68687">
        <ele>1884.1884766</ele>
        <time>2009-07-25T14:33:59Z</time>
      </trkpt>
      <trkpt lat="45.5233" lon="6.68678">
        <ele>1882.3571777</ele>
        <time>2009-07-25T14:34:03Z</time>
      </trkpt>
      <trkpt lat="45.52337" lon="6.68663">
        <ele>1882.3449707</ele>
        <time>2009-07-25T14:34:12Z</time>
      </trkpt>
      <trkpt lat="45.52343" lon="6.68651">
        <ele>1882.2720947</ele>
        <time>2009-07-25T14:34:19Z</time>
      </trkpt>
      <trkpt lat="45.52351" lon="6.68641">
        <ele>1882.7375488</ele>
        <time>2009-07-25T14:34:26Z</time>
      </trkpt>
      <trkpt lat="45.52357" lon="6.68636">
        <ele>1883.2935791</ele>
        <time>2009-07-25T14:34:31Z</time>
      </trkpt>
      <trkpt lat="45.52369" lon="6.68629">
        <ele>1885.1187744</ele>
        <time>2009-07-25T14:34:39Z</time>
      </trkpt>
      <trkpt lat="45.52375" lon="6.68619">
        <ele>1884.7731934</ele>
        <time>2009-07-25T14:34:46Z</time>
      </trkpt>
      <trkpt lat="45.52383" lon="6.68609">
        <ele>1884.3830566</ele>
        <time>2009-07-25T14:34:52Z</time>
      </trkpt>
      <trkpt lat="45.52388" lon="6.68604">
        <ele>1884.5643311</ele>
        <time>2009-07-25T14:34:56Z</time>
      </trkpt>
      <trkpt lat="45.52396" lon="6.68599">
        <ele>1885.6571045</ele>
        <time>2009-07-25T14:35:02Z</time>
      </trkpt>
      <trkpt lat="45.52402" lon="6.68589">
        <ele>1884.9466553</ele>
        <time>2009-07-25T14:35:09Z</time>
      </trkpt>
      <trkpt lat="45.52404" lon="6.68585">
        <ele>1884.605957</ele>
        <time>2009-07-25T14:35:11Z</time>
      </trkpt>
      <trkpt lat="45.52408" lon="6.68576">
        <ele>1883.0357666</ele>
        <time>2009-07-25T14:35:16Z</time>
      </trkpt>
      <trkpt lat="45.52415" lon="6.68564">
        <ele>1881.760376</ele>
        <time>2009-07-25T14:35:23Z</time>
      </trkpt>
      <trkpt lat="45.52422" lon="6.68556">
        <ele>1881.6534424</ele>
        <time>2009-07-25T14:35:29Z</time>
      </trkpt>
      <trkpt lat="45.52432" lon="6.68548">
        <ele>1882.2955322</ele>
        <time>2009-07-25T14:35:35Z</time>
      </trkpt>
      <trkpt lat="45.5244" lon="6.68542">
        <ele>1882.6147461</ele>
        <time>2009-07-25T14:35:41Z</time>
      </trkpt>
      <trkpt lat="45.52449" lon="6.68537">
        <ele>1883.0976563</ele>
        <time>2009-07-25T14:35:48Z</time>
      </trkpt>
      <trkpt lat="45.52451" lon="6.68534">
        <ele>1882.6083984</ele>
        <time>2009-07-25T14:35:51Z</time>
      </trkpt>
      <trkpt lat="45.52456" lon="6.68529">
        <ele>1882.2513428</ele>
        <time>2009-07-25T14:35:55Z</time>
      </trkpt>
      <trkpt lat="45.52464" lon="6.68521">
        <ele>1882.2189941</ele>
        <time>2009-07-25T14:36:01Z</time>
      </trkpt>
      <trkpt lat="45.52473" lon="6.68511">
        <ele>1881.9569092</ele>
        <time>2009-07-25T14:36:08Z</time>
      </trkpt>
      <trkpt lat="45.5248" lon="6.68503">
        <ele>1881.5927734</ele>
        <time>2009-07-25T14:36:14Z</time>
      </trkpt>
      <trkpt lat="45.52481" lon="6.68499">
        <ele>1880.6071777</ele>
        <time>2009-07-25T14:36:16Z</time>
      </trkpt>
      <trkpt lat="45.52486" lon="6.68495">
        <ele>1880.3532715</ele>
        <time>2009-07-25T14:36:19Z</time>
      </trkpt>
      <trkpt lat="45.52492" lon="6.68489">
        <ele>1879.2205811</ele>
        <time>2009-07-25T14:36:24Z</time>
      </trkpt>
      <trkpt lat="45.52501" lon="6.68486">
        <ele>1880.2298584</ele>
        <time>2009-07-25T14:36:30Z</time>
      </trkpt>
      <trkpt lat="45.52505" lon="6.68485">
        <ele>1880.6466064</ele>
        <time>2009-07-25T14:36:32Z</time>
      </trkpt>
      <trkpt lat="45.5251" lon="6.68484">
        <ele>1881.7487793</ele>
        <time>2009-07-25T14:36:37Z</time>
      </trkpt>
      <trkpt lat="45.52518" lon="6.68485">
        <ele>1884.2711182</ele>
        <time>2009-07-25T14:36:43Z</time>
      </trkpt>
      <trkpt lat="45.5253" lon="6.68484">
        <ele>1886.4744873</ele>
        <time>2009-07-25T14:36:49Z</time>
      </trkpt>
      <trkpt lat="45.52538" lon="6.68483">
        <ele>1886.6890869</ele>
        <time>2009-07-25T14:36:54Z</time>
      </trkpt>
      <trkpt lat="45.52545" lon="6.68481">
        <ele>1885.8977051</ele>
        <time>2009-07-25T14:36:59Z</time>
      </trkpt>
      <trkpt lat="45.52551" lon="6.68478">
        <ele>1884.7664795</ele>
        <time>2009-07-25T14:37:03Z</time>
      </trkpt>
      <trkpt lat="45.52562" lon="6.68471">
        <ele>1884.0517578</ele>
        <time>2009-07-25T14:37:10Z</time>
      </trkpt>
      <trkpt lat="45.52567" lon="6.68461">
        <ele>1882.7589111</ele>
        <time>2009-07-25T14:37:16Z</time>
      </trkpt>
      <trkpt lat="45.52573" lon="6.68451">
        <ele>1882.2045898</ele>
        <time>2009-07-25T14:37:22Z</time>
      </trkpt>
      <trkpt lat="45.52574" lon="6.68449">
        <ele>1881.9592285</ele>
        <time>2009-07-25T14:37:23Z</time>
      </trkpt>
      <trkpt lat="45.52579" lon="6.68442">
        <ele>1882.6865234</ele>
        <time>2009-07-25T14:37:28Z</time>
      </trkpt>
      <trkpt lat="45.52586" lon="6.68434">
        <ele>1883.5825195</ele>
        <time>2009-07-25T14:37:34Z</time>
      </trkpt>
      <trkpt lat="45.52591" lon="6.68433">
        <ele>1883.8621826</ele>
        <time>2009-07-25T14:37:38Z</time>
      </trkpt>
      <trkpt lat="45.52601" lon="6.68431">
        <ele>1884.734375</ele>
        <time>2009-07-25T14:37:45Z</time>
      </trkpt>
      <trkpt lat="45.52613" lon="6.68427">
        <ele>1884.7692871</ele>
        <time>2009-07-25T14:37:53Z</time>
      </trkpt>
      <trkpt lat="45.5262" lon="6.68425">
        <ele>1884.1252441</ele>
        <time>2009-07-25T14:37:58Z</time>
      </trkpt>
      <trkpt lat="45.52627" lon="6.68424">
        <ele>1884.0126953</ele>
        <time>2009-07-25T14:38:04Z</time>
      </trkpt>
      <trkpt lat="45.52637" lon="6.68423">
        <ele>1884.0959473</ele>
        <time>2009-07-25T14:38:11Z</time>
      </trkpt>
      <trkpt lat="45.52642" lon="6.68425">
        <ele>1884.274292</ele>
        <time>2009-07-25T14:38:15Z</time>
      </trkpt>
      <trkpt lat="45.5265" lon="6.68429">
        <ele>1884.2634277</ele>
        <time>2009-07-25T14:38:22Z</time>
      </trkpt>
      <trkpt lat="45.52657" lon="6.68435">
        <ele>1885.027832</ele>
        <time>2009-07-25T14:38:28Z</time>
      </trkpt>
      <trkpt lat="45.5266" lon="6.68438">
        <ele>1885.3161621</ele>
        <time>2009-07-25T14:38:31Z</time>
      </trkpt>
      <trkpt lat="45.52667" lon="6.68444">
        <ele>1885.8150635</ele>
        <time>2009-07-25T14:38:37Z</time>
      </trkpt>
      <trkpt lat="45.52677" lon="6.68458">
        <ele>1884.7442627</ele>
        <time>2009-07-25T14:38:44Z</time>
      </trkpt>
      <trkpt lat="45.52683" lon="6.68467">
        <ele>1883.7116699</ele>
        <time>2009-07-25T14:38:50Z</time>
      </trkpt>
      <trkpt lat="45.5269" lon="6.68476">
        <ele>1881.0507813</ele>
        <time>2009-07-25T14:38:56Z</time>
      </trkpt>
      <trkpt lat="45.52693" lon="6.68484">
        <ele>1878.8366699</ele>
        <time>2009-07-25T14:39:00Z</time>
      </trkpt>
      <trkpt lat="45.52694" lon="6.68496">
        <ele>1877.3730469</ele>
        <time>2009-07-25T14:39:05Z</time>
      </trkpt>
      <trkpt lat="45.52694" lon="6.68498">
        <ele>1877.4822998</ele>
        <time>2009-07-25T14:39:06Z</time>
      </trkpt>
      <trkpt lat="45.52688" lon="6.68513">
        <ele>1881.4122314</ele>
        <time>2009-07-25T14:39:14Z</time>
      </trkpt>
      <trkpt lat="45.52686" lon="6.6852">
        <ele>1882.8823242</ele>
        <time>2009-07-25T14:39:17Z</time>
      </trkpt>
      <trkpt lat="45.52683" lon="6.68534">
        <ele>1884.1082764</ele>
        <time>2009-07-25T14:39:24Z</time>
      </trkpt>
      <trkpt lat="45.52683" lon="6.68549">
        <ele>1882.782959</ele>
        <time>2009-07-25T14:39:31Z</time>
      </trkpt>
      <trkpt lat="45.52682" lon="6.68556">
        <ele>1882.4342041</ele>
        <time>2009-07-25T14:39:35Z</time>
      </trkpt>
      <trkpt lat="45.52684" lon="6.68564">
        <ele>1880.9987793</ele>
        <time>2009-07-25T14:39:40Z</time>
      </trkpt>
      <trkpt lat="45.52694" lon="6.68575">
        <ele>1878.0800781</ele>
        <time>2009-07-25T14:39:47Z</time>
      </trkpt>
      <trkpt lat="45.527" lon="6.68583">
        <ele>1876.4888916</ele>
        <time>2009-07-25T14:39:52Z</time>
      </trkpt>
      <trkpt lat="45.52704" lon="6.68596">
        <ele>1876.4119873</ele>
        <time>2009-07-25T14:39:58Z</time>
      </trkpt>
      <trkpt lat="45.52707" lon="6.68603">
        <ele>1876.307251</ele>
        <time>2009-07-25T14:40:01Z</time>
      </trkpt>
      <trkpt lat="45.52707" lon="6.68616">
        <ele>1876.9821777</ele>
        <time>2009-07-25T14:40:07Z</time>
      </trkpt>
      <trkpt lat="45.52709" lon="6.68624">
        <ele>1877.1236572</ele>
        <time>2009-07-25T14:40:11Z</time>
      </trkpt>
      <trkpt lat="45.52713" lon="6.68636">
        <ele>1877.4719238</ele>
        <time>2009-07-25T14:40:18Z</time>
      </trkpt>
      <trkpt lat="45.52718" lon="6.68645">
        <ele>1877.9523926</ele>
        <time>2009-07-25T14:40:24Z</time>
      </trkpt>
      <trkpt lat="45.52723" lon="6.68652">
        <ele>1878.2401123</ele>
        <time>2009-07-25T14:40:30Z</time>
      </trkpt>
      <trkpt lat="45.52728" lon="6.68657">
        <ele>1877.6956787</ele>
        <time>2009-07-25T14:40:35Z</time>
      </trkpt>
      <trkpt lat="45.52733" lon="6.68663">
        <ele>1877.2293701</ele>
        <time>2009-07-25T14:40:41Z</time>
      </trkpt>
      <trkpt lat="45.52739" lon="6.68669">
        <ele>1876.7589111</ele>
        <time>2009-07-25T14:40:46Z</time>
      </trkpt>
      <trkpt lat="45.52746" lon="6.68678">
        <ele>1876.8682861</ele>
        <time>2009-07-25T14:40:53Z</time>
      </trkpt>
      <trkpt lat="45.5275" lon="6.68683">
        <ele>1876.9873047</ele>
        <time>2009-07-25T14:40:56Z</time>
      </trkpt>
      <trkpt lat="45.52756" lon="6.68691">
        <ele>1877.0882568</ele>
        <time>2009-07-25T14:41:02Z</time>
      </trkpt>
      <trkpt lat="45.52764" lon="6.687">
        <ele>1876.6848145</ele>
        <time>2009-07-25T14:41:09Z</time>
      </trkpt>
      <trkpt lat="45.52774" lon="6.6871">
        <ele>1876.0178223</ele>
        <time>2009-07-25T14:41:16Z</time>
      </trkpt>
      <trkpt lat="45.52776" lon="6.68712">
        <ele>1875.8465576</ele>
        <time>2009-07-25T14:41:18Z</time>
      </trkpt>
      <trkpt lat="45.52781" lon="6.68715">
        <ele>1875.3344727</ele>
        <time>2009-07-25T14:41:22Z</time>
      </trkpt>
      <trkpt lat="45.52787" lon="6.68719">
        <ele>1874.1739502</ele>
        <time>2009-07-25T14:41:27Z</time>
      </trkpt>
      <trkpt lat="45.52795" lon="6.68728">
        <ele>1873.1060791</ele>
        <time>2009-07-25T14:41:34Z</time>
      </trkpt>
      <trkpt lat="45.528" lon="6.68736">
        <ele>1872.223877</ele>
        <time>2009-07-25T14:41:39Z</time>
      </trkpt>
      <trkpt lat="45.52802" lon="6.6875">
        <ele>1872.0581055</ele>
        <time>2009-07-25T14:41:45Z</time>
      </trkpt>
      <trkpt lat="45.52803" lon="6.68752">
        <ele>1871.8312988</ele>
        <time>2009-07-25T14:41:46Z</time>
      </trkpt>
      <trkpt lat="45.52806" lon="6.68767">
        <ele>1870.9487305</ele>
        <time>2009-07-25T14:41:52Z</time>
      </trkpt>
      <trkpt lat="45.52808" lon="6.68778">
        <ele>1870.2570801</ele>
        <time>2009-07-25T14:41:56Z</time>
      </trkpt>
      <trkpt lat="45.52809" lon="6.68789">
        <ele>1869.3179932</ele>
        <time>2009-07-25T14:42:00Z</time>
      </trkpt>
      <trkpt lat="45.5281" lon="6.68803">
        <ele>1868.5335693</ele>
        <time>2009-07-25T14:42:05Z</time>
      </trkpt>
      <trkpt lat="45.52809" lon="6.6882">
        <ele>1868.578125</ele>
        <time>2009-07-25T14:42:11Z</time>
      </trkpt>
      <trkpt lat="45.52806" lon="6.68836">
        <ele>1869.4377441</ele>
        <time>2009-07-25T14:42:17Z</time>
      </trkpt>
      <trkpt lat="45.52802" lon="6.68848">
        <ele>1870.8338623</ele>
        <time>2009-07-25T14:42:22Z</time>
      </trkpt>
      <trkpt lat="45.52797" lon="6.68867">
        <ele>1872.6152344</ele>
        <time>2009-07-25T14:42:29Z</time>
      </trkpt>
      <trkpt lat="45.52793" lon="6.68883">
        <ele>1872.6790771</ele>
        <time>2009-07-25T14:42:35Z</time>
      </trkpt>
      <trkpt lat="45.52794" lon="6.68895">
        <ele>1871.2143555</ele>
        <time>2009-07-25T14:42:40Z</time>
      </trkpt>
      <trkpt lat="45.52795" lon="6.6891">
        <ele>1869.4024658</ele>
        <time>2009-07-25T14:42:47Z</time>
      </trkpt>
      <trkpt lat="45.52795" lon="6.68912">
        <ele>1868.9702148</ele>
        <time>2009-07-25T14:42:48Z</time>
      </trkpt>
      <trkpt lat="45.52795" lon="6.68921">
        <ele>1868.6810303</ele>
        <time>2009-07-25T14:42:52Z</time>
      </trkpt>
      <trkpt lat="45.52798" lon="6.68936">
        <ele>1865.8621826</ele>
        <time>2009-07-25T14:42:59Z</time>
      </trkpt>
      <trkpt lat="45.52799" lon="6.68947">
        <ele>1864.6976318</ele>
        <time>2009-07-25T14:43:04Z</time>
      </trkpt>
      <trkpt lat="45.52799" lon="6.68957">
        <ele>1865.0410156</ele>
        <time>2009-07-25T14:43:09Z</time>
      </trkpt>
      <trkpt lat="45.52798" lon="6.68964">
        <ele>1866.0709229</ele>
        <time>2009-07-25T14:43:13Z</time>
      </trkpt>
      <trkpt lat="45.52797" lon="6.68982">
        <ele>1867.4367676</ele>
        <time>2009-07-25T14:43:22Z</time>
      </trkpt>
      <trkpt lat="45.52796" lon="6.68986">
        <ele>1867.9277344</ele>
        <time>2009-07-25T14:43:24Z</time>
      </trkpt>
      <trkpt lat="45.52795" lon="6.69002">
        <ele>1869.9219971</ele>
        <time>2009-07-25T14:43:32Z</time>
      </trkpt>
      <trkpt lat="45.52794" lon="6.69007">
        <ele>1871.152832</ele>
        <time>2009-07-25T14:43:35Z</time>
      </trkpt>
      <trkpt lat="45.52793" lon="6.69019">
        <ele>1871.9515381</ele>
        <time>2009-07-25T14:43:42Z</time>
      </trkpt>
      <trkpt lat="45.52792" lon="6.6903">
        <ele>1873.4256592</ele>
        <time>2009-07-25T14:43:49Z</time>
      </trkpt>
      <trkpt lat="45.52791" lon="6.6904">
        <ele>1875.0218506</ele>
        <time>2009-07-25T14:43:55Z</time>
      </trkpt>
      <trkpt lat="45.52789" lon="6.69046">
        <ele>1876.652832</ele>
        <time>2009-07-25T14:43:59Z</time>
      </trkpt>
      <trkpt lat="45.52785" lon="6.69055">
        <ele>1880.144165</ele>
        <time>2009-07-25T14:44:05Z</time>
      </trkpt>
      <trkpt lat="45.52786" lon="6.69069">
        <ele>1880.6379395</ele>
        <time>2009-07-25T14:44:14Z</time>
      </trkpt>
      <trkpt lat="45.52786" lon="6.6907">
        <ele>1880.7166748</ele>
        <time>2009-07-25T14:44:15Z</time>
      </trkpt>
      <trkpt lat="45.52787" lon="6.69077">
        <ele>1880.5963135</ele>
        <time>2009-07-25T14:44:20Z</time>
      </trkpt>
      <trkpt lat="45.52794" lon="6.69088">
        <ele>1876.456665</ele>
        <time>2009-07-25T14:44:27Z</time>
      </trkpt>
      <trkpt lat="45.52798" lon="6.69091">
        <ele>1874.47229</ele>
        <time>2009-07-25T14:44:30Z</time>
      </trkpt>
      <trkpt lat="45.52803" lon="6.69098">
        <ele>1872.7938232</ele>
        <time>2009-07-25T14:44:37Z</time>
      </trkpt>
      <trkpt lat="45.52809" lon="6.69105">
        <ele>1871.8608398</ele>
        <time>2009-07-25T14:44:45Z</time>
      </trkpt>
      <trkpt lat="45.52816" lon="6.69119">
        <ele>1872.8494873</ele>
        <time>2009-07-25T14:44:54Z</time>
      </trkpt>
      <trkpt lat="45.52819" lon="6.69129">
        <ele>1874.1618652</ele>
        <time>2009-07-25T14:45:00Z</time>
      </trkpt>
      <trkpt lat="45.52824" lon="6.69136">
        <ele>1874.6599121</ele>
        <time>2009-07-25T14:45:05Z</time>
      </trkpt>
      <trkpt lat="45.52831" lon="6.6915">
        <ele>1876.2059326</ele>
        <time>2009-07-25T14:45:14Z</time>
      </trkpt>
      <trkpt lat="45.52839" lon="6.69164">
        <ele>1877.6204834</ele>
        <time>2009-07-25T14:45:23Z</time>
      </trkpt>
      <trkpt lat="45.52847" lon="6.69174">
        <ele>1876.9616699</ele>
        <time>2009-07-25T14:45:31Z</time>
      </trkpt>
      <trkpt lat="45.52855" lon="6.69183">
        <ele>1875.6124268</ele>
        <time>2009-07-25T14:45:38Z</time>
      </trkpt>
      <trkpt lat="45.52855" lon="6.69184">
        <ele>1875.6262207</ele>
        <time>2009-07-25T14:45:39Z</time>
      </trkpt>
      <trkpt lat="45.52863" lon="6.69193">
        <ele>1874.6107178</ele>
        <time>2009-07-25T14:45:46Z</time>
      </trkpt>
      <trkpt lat="45.52875" lon="6.69204">
        <ele>1875.0540771</ele>
        <time>2009-07-25T14:45:53Z</time>
      </trkpt>
      <trkpt lat="45.52885" lon="6.69216">
        <ele>1875.6361084</ele>
        <time>2009-07-25T14:45:58Z</time>
      </trkpt>
      <trkpt lat="45.52892" lon="6.69223">
        <ele>1875.3688965</ele>
        <time>2009-07-25T14:46:03Z</time>
      </trkpt>
      <trkpt lat="45.52901" lon="6.69228">
        <ele>1873.2220459</ele>
        <time>2009-07-25T14:46:08Z</time>
      </trkpt>
      <trkpt lat="45.52908" lon="6.69233">
        <ele>1871.8946533</ele>
        <time>2009-07-25T14:46:12Z</time>
      </trkpt>
      <trkpt lat="45.52916" lon="6.69242">
        <ele>1870.4425049</ele>
        <time>2009-07-25T14:46:18Z</time>
      </trkpt>
      <trkpt lat="45.52918" lon="6.69243">
        <ele>1869.9327393</ele>
        <time>2009-07-25T14:46:19Z</time>
      </trkpt>
      <trkpt lat="45.52932" lon="6.69253">
        <ele>1867.5007324</ele>
        <time>2009-07-25T14:46:27Z</time>
      </trkpt>
      <trkpt lat="45.5294" lon="6.69262">
        <ele>1866.7385254</ele>
        <time>2009-07-25T14:46:32Z</time>
      </trkpt>
      <trkpt lat="45.5295" lon="6.69268">
        <ele>1864.203125</ele>
        <time>2009-07-25T14:46:37Z</time>
      </trkpt>
      <trkpt lat="45.52961" lon="6.69278">
        <ele>1861.9456787</ele>
        <time>2009-07-25T14:46:44Z</time>
      </trkpt>
      <trkpt lat="45.52971" lon="6.69286">
        <ele>1861.8500977</ele>
        <time>2009-07-25T14:46:49Z</time>
      </trkpt>
      <trkpt lat="45.5298" lon="6.69294">
        <ele>1862.5010986</ele>
        <time>2009-07-25T14:46:54Z</time>
      </trkpt>
      <trkpt lat="45.52987" lon="6.69301">
        <ele>1862.4940186</ele>
        <time>2009-07-25T14:46:58Z</time>
      </trkpt>
      <trkpt lat="45.52997" lon="6.69308">
        <ele>1861.4344482</ele>
        <time>2009-07-25T14:47:03Z</time>
      </trkpt>
      <trkpt lat="45.53" lon="6.69311">
        <ele>1860.831665</ele>
        <time>2009-07-25T14:47:05Z</time>
      </trkpt>
      <trkpt lat="45.53004" lon="6.69313">
        <ele>1859.7762451</ele>
        <time>2009-07-25T14:47:07Z</time>
      </trkpt>
      <trkpt lat="45.53013" lon="6.69318">
        <ele>1856.4838867</ele>
        <time>2009-07-25T14:47:13Z</time>
      </trkpt>
      <trkpt lat="45.53022" lon="6.69328">
        <ele>1853.6428223</ele>
        <time>2009-07-25T14:47:18Z</time>
      </trkpt>
      <trkpt lat="45.53032" lon="6.69332">
        <ele>1850.84375</ele>
        <time>2009-07-25T14:47:23Z</time>
      </trkpt>
      <trkpt lat="45.53043" lon="6.69334">
        <ele>1848.4019775</ele>
        <time>2009-07-25T14:47:29Z</time>
      </trkpt>
      <trkpt lat="45.53056" lon="6.69343">
        <ele>1845.71875</ele>
        <time>2009-07-25T14:47:36Z</time>
      </trkpt>
      <trkpt lat="45.53062" lon="6.69351">
        <ele>1844.5721436</ele>
        <time>2009-07-25T14:47:42Z</time>
      </trkpt>
      <trkpt lat="45.53069" lon="6.69365">
        <ele>1844.2402344</ele>
        <time>2009-07-25T14:47:50Z</time>
      </trkpt>
      <trkpt lat="45.53072" lon="6.6937">
        <ele>1844.0076904</ele>
        <time>2009-07-25T14:47:53Z</time>
      </trkpt>
      <trkpt lat="45.53076" lon="6.69383">
        <ele>1844.0802002</ele>
        <time>2009-07-25T14:48:00Z</time>
      </trkpt>
      <trkpt lat="45.53078" lon="6.6939">
        <ele>1844.1512451</ele>
        <time>2009-07-25T14:48:04Z</time>
      </trkpt>
      <trkpt lat="45.5308" lon="6.69406">
        <ele>1845.8913574</ele>
        <time>2009-07-25T14:48:12Z</time>
      </trkpt>
      <trkpt lat="45.5308" lon="6.69411">
        <ele>1846.1804199</ele>
        <time>2009-07-25T14:48:15Z</time>
      </trkpt>
      <trkpt lat="45.53082" lon="6.69424">
        <ele>1846.6883545</ele>
        <time>2009-07-25T14:48:22Z</time>
      </trkpt>
      <trkpt lat="45.53084" lon="6.69436">
        <ele>1846.9279785</ele>
        <time>2009-07-25T14:48:29Z</time>
      </trkpt>
      <trkpt lat="45.5309" lon="6.69442">
        <ele>1846.6943359</ele>
        <time>2009-07-25T14:48:35Z</time>
      </trkpt>
      <trkpt lat="45.53104" lon="6.6945">
        <ele>1846.086792</ele>
        <time>2009-07-25T14:48:46Z</time>
      </trkpt>
      <trkpt lat="45.53106" lon="6.69452">
        <ele>1846.0211182</ele>
        <time>2009-07-25T14:48:48Z</time>
      </trkpt>
      <trkpt lat="45.53116" lon="6.69462">
        <ele>1846.1334229</ele>
        <time>2009-07-25T14:48:57Z</time>
      </trkpt>
      <trkpt lat="45.53124" lon="6.69467">
        <ele>1845.2857666</ele>
        <time>2009-07-25T14:49:04Z</time>
      </trkpt>
      <trkpt lat="45.53128" lon="6.69472">
        <ele>1845.2576904</ele>
        <time>2009-07-25T14:49:09Z</time>
      </trkpt>
      <trkpt lat="45.53134" lon="6.69476">
        <ele>1844.946167</ele>
        <time>2009-07-25T14:49:14Z</time>
      </trkpt>
      <trkpt lat="45.5314" lon="6.69481">
        <ele>1844.8116455</ele>
        <time>2009-07-25T14:49:20Z</time>
      </trkpt>
      <trkpt lat="45.53142" lon="6.69482">
        <ele>1844.6700439</ele>
        <time>2009-07-25T14:49:21Z</time>
      </trkpt>
      <trkpt lat="45.53152" lon="6.69489">
        <ele>1843.7990723</ele>
        <time>2009-07-25T14:49:29Z</time>
      </trkpt>
      <trkpt lat="45.53164" lon="6.69497">
        <ele>1842.1369629</ele>
        <time>2009-07-25T14:49:37Z</time>
      </trkpt>
      <trkpt lat="45.53176" lon="6.69505">
        <ele>1841.5863037</ele>
        <time>2009-07-25T14:49:45Z</time>
      </trkpt>
      <trkpt lat="45.53187" lon="6.69516">
        <ele>1841.2902832</ele>
        <time>2009-07-25T14:49:54Z</time>
      </trkpt>
      <trkpt lat="45.53197" lon="6.69527">
        <ele>1840.5303955</ele>
        <time>2009-07-25T14:50:01Z</time>
      </trkpt>
      <trkpt lat="45.53211" lon="6.69547">
        <ele>1842.2304688</ele>
        <time>2009-07-25T14:50:09Z</time>
      </trkpt>
      <trkpt lat="45.53225" lon="6.69558">
        <ele>1840.1072998</ele>
        <time>2009-07-25T14:50:16Z</time>
      </trkpt>
      <trkpt lat="45.53239" lon="6.69565">
        <ele>1839.1984863</ele>
        <time>2009-07-25T14:50:23Z</time>
      </trkpt>
      <trkpt lat="45.53249" lon="6.69574">
        <ele>1838.2178955</ele>
        <time>2009-07-25T14:50:29Z</time>
      </trkpt>
      <trkpt lat="45.53257" lon="6.69582">
        <ele>1838.0378418</ele>
        <time>2009-07-25T14:50:34Z</time>
      </trkpt>
      <trkpt lat="45.5327" lon="6.69591">
        <ele>1837.7633057</ele>
        <time>2009-07-25T14:50:41Z</time>
      </trkpt>
      <trkpt lat="45.53275" lon="6.69595">
        <ele>1837.3387451</ele>
        <time>2009-07-25T14:50:44Z</time>
      </trkpt>
      <trkpt lat="45.5328" lon="6.69596">
        <ele>1836.3638916</ele>
        <time>2009-07-25T14:50:47Z</time>
      </trkpt>
      <trkpt lat="45.53292" lon="6.69596">
        <ele>1833.5162354</ele>
        <time>2009-07-25T14:50:53Z</time>
      </trkpt>
      <trkpt lat="45.53299" lon="6.69596">
        <ele>1832.0568848</ele>
        <time>2009-07-25T14:50:56Z</time>
      </trkpt>
      <trkpt lat="45.53308" lon="6.69606">
        <ele>1830.7961426</ele>
        <time>2009-07-25T14:51:02Z</time>
      </trkpt>
      <trkpt lat="45.53313" lon="6.69611">
        <ele>1830.3883057</ele>
        <time>2009-07-25T14:51:05Z</time>
      </trkpt>
      <trkpt lat="45.53326" lon="6.69626">
        <ele>1828.8632813</ele>
        <time>2009-07-25T14:51:12Z</time>
      </trkpt>
      <trkpt lat="45.53331" lon="6.69631">
        <ele>1828.1190186</ele>
        <time>2009-07-25T14:51:15Z</time>
      </trkpt>
      <trkpt lat="45.53337" lon="6.69641">
        <ele>1826.9356689</ele>
        <time>2009-07-25T14:51:20Z</time>
      </trkpt>
      <trkpt lat="45.53345" lon="6.69656">
        <ele>1824.8378906</ele>
        <time>2009-07-25T14:51:26Z</time>
      </trkpt>
      <trkpt lat="45.53349" lon="6.69668">
        <ele>1824.5843506</ele>
        <time>2009-07-25T14:51:31Z</time>
      </trkpt>
      <trkpt lat="45.53354" lon="6.6967">
        <ele>1823.0209961</ele>
        <time>2009-07-25T14:51:34Z</time>
      </trkpt>
      <trkpt lat="45.53357" lon="6.69671">
        <ele>1822.2022705</ele>
        <time>2009-07-25T14:51:36Z</time>
      </trkpt>
      <trkpt lat="45.53366" lon="6.69673">
        <ele>1819.4162598</ele>
        <time>2009-07-25T14:51:41Z</time>
      </trkpt>
      <trkpt lat="45.5337" lon="6.69673">
        <ele>1818.0354004</ele>
        <time>2009-07-25T14:51:44Z</time>
      </trkpt>
      <trkpt lat="45.53378" lon="6.69678">
        <ele>1816.545166</ele>
        <time>2009-07-25T14:51:49Z</time>
      </trkpt>
      <trkpt lat="45.53383" lon="6.69682">
        <ele>1816.1279297</ele>
        <time>2009-07-25T14:51:52Z</time>
      </trkpt>
      <trkpt lat="45.53397" lon="6.69685">
        <ele>1813.1419678</ele>
        <time>2009-07-25T14:51:58Z</time>
      </trkpt>
      <trkpt lat="45.53404" lon="6.6969">
        <ele>1812.0393066</ele>
        <time>2009-07-25T14:52:02Z</time>
      </trkpt>
      <trkpt lat="45.53413" lon="6.697">
        <ele>1810.9710693</ele>
        <time>2009-07-25T14:52:08Z</time>
      </trkpt>
      <trkpt lat="45.53416" lon="6.69705">
        <ele>1811.1151123</ele>
        <time>2009-07-25T14:52:11Z</time>
      </trkpt>
      <trkpt lat="45.53426" lon="6.69714">
        <ele>1809.1329346</ele>
        <time>2009-07-25T14:52:17Z</time>
      </trkpt>
      <trkpt lat="45.53429" lon="6.69721">
        <ele>1808.9527588</ele>
        <time>2009-07-25T14:52:20Z</time>
      </trkpt>
      <trkpt lat="45.5344" lon="6.69727">
        <ele>1805.1638184</ele>
        <time>2009-07-25T14:52:26Z</time>
      </trkpt>
      <trkpt lat="45.53447" lon="6.69734">
        <ele>1803.1063232</ele>
        <time>2009-07-25T14:52:31Z</time>
      </trkpt>
      <trkpt lat="45.53453" lon="6.69738">
        <ele>1801.5682373</ele>
        <time>2009-07-25T14:52:37Z</time>
      </trkpt>
      <trkpt lat="45.53457" lon="6.69745">
        <ele>1801.1390381</ele>
        <time>2009-07-25T14:52:40Z</time>
      </trkpt>
      <trkpt lat="45.53467" lon="6.69752">
        <ele>1798.5778809</ele>
        <time>2009-07-25T14:52:46Z</time>
      </trkpt>
      <trkpt lat="45.53469" lon="6.69753">
        <ele>1798.0079346</ele>
        <time>2009-07-25T14:52:47Z</time>
      </trkpt>
      <trkpt lat="45.53483" lon="6.69755">
        <ele>1793.4169922</ele>
        <time>2009-07-25T14:52:52Z</time>
      </trkpt>
      <trkpt lat="45.53495" lon="6.69754">
        <ele>1789.1838379</ele>
        <time>2009-07-25T14:52:56Z</time>
      </trkpt>
      <trkpt lat="45.535" lon="6.69756">
        <ele>1787.4122314</ele>
        <time>2009-07-25T14:53:01Z</time>
      </trkpt>
      <trkpt lat="45.53511" lon="6.69765">
        <ele>1787.0806885</ele>
        <time>2009-07-25T14:53:07Z</time>
      </trkpt>
      <trkpt lat="45.53516" lon="6.69768">
        <ele>1786.9848633</ele>
        <time>2009-07-25T14:53:10Z</time>
      </trkpt>
      <trkpt lat="45.53525" lon="6.69781">
        <ele>1787.6680908</ele>
        <time>2009-07-25T14:53:16Z</time>
      </trkpt>
      <trkpt lat="45.53526" lon="6.6979">
        <ele>1788.9282227</ele>
        <time>2009-07-25T14:53:20Z</time>
      </trkpt>
      <trkpt lat="45.53527" lon="6.69796">
        <ele>1789.737793</ele>
        <time>2009-07-25T14:53:23Z</time>
      </trkpt>
      <trkpt lat="45.53535" lon="6.69798">
        <ele>1788.3886719</ele>
        <time>2009-07-25T14:53:28Z</time>
      </trkpt>
      <trkpt lat="45.53541" lon="6.69802">
        <ele>1787.5234375</ele>
        <time>2009-07-25T14:53:32Z</time>
      </trkpt>
      <trkpt lat="45.53545" lon="6.69808">
        <ele>1787.6159668</ele>
        <time>2009-07-25T14:53:36Z</time>
      </trkpt>
      <trkpt lat="45.53552" lon="6.69813">
        <ele>1786.6566162</ele>
        <time>2009-07-25T14:53:40Z</time>
      </trkpt>
      <trkpt lat="45.53562" lon="6.69821">
        <ele>1783.3966064</ele>
        <time>2009-07-25T14:53:46Z</time>
      </trkpt>
      <trkpt lat="45.53564" lon="6.69822">
        <ele>1782.7640381</ele>
        <time>2009-07-25T14:53:47Z</time>
      </trkpt>
      <trkpt lat="45.53571" lon="6.69825">
        <ele>1779.4217529</ele>
        <time>2009-07-25T14:53:52Z</time>
      </trkpt>
      <trkpt lat="45.53574" lon="6.69825">
        <ele>1778.3175049</ele>
        <time>2009-07-25T14:53:53Z</time>
      </trkpt>
      <trkpt lat="45.5358" lon="6.69829">
        <ele>1776.034668</ele>
        <time>2009-07-25T14:53:57Z</time>
      </trkpt>
      <trkpt lat="45.53584" lon="6.69837">
        <ele>1775.1849365</ele>
        <time>2009-07-25T14:54:03Z</time>
      </trkpt>
      <trkpt lat="45.53588" lon="6.69846">
        <ele>1774.3222656</ele>
        <time>2009-07-25T14:54:07Z</time>
      </trkpt>
      <trkpt lat="45.5359" lon="6.69848">
        <ele>1773.7974854</ele>
        <time>2009-07-25T14:54:08Z</time>
      </trkpt>
      <trkpt lat="45.53597" lon="6.69859">
        <ele>1771.6192627</ele>
        <time>2009-07-25T14:54:14Z</time>
      </trkpt>
      <trkpt lat="45.53602" lon="6.69867">
        <ele>1769.1933594</ele>
        <time>2009-07-25T14:54:19Z</time>
      </trkpt>
      <trkpt lat="45.53609" lon="6.69874">
        <ele>1765.3682861</ele>
        <time>2009-07-25T14:54:24Z</time>
      </trkpt>
      <trkpt lat="45.53613" lon="6.69877">
        <ele>1764.1635742</ele>
        <time>2009-07-25T14:54:26Z</time>
      </trkpt>
      <trkpt lat="45.53623" lon="6.69881">
        <ele>1760.9707031</ele>
        <time>2009-07-25T14:54:32Z</time>
      </trkpt>
      <trkpt lat="45.53629" lon="6.69884">
        <ele>1759.1837158</ele>
        <time>2009-07-25T14:54:35Z</time>
      </trkpt>
      <trkpt lat="45.53637" lon="6.69896">
        <ele>1756.8475342</ele>
        <time>2009-07-25T14:54:41Z</time>
      </trkpt>
      <trkpt lat="45.53644" lon="6.69908">
        <ele>1754.6743164</ele>
        <time>2009-07-25T14:54:47Z</time>
      </trkpt>
      <trkpt lat="45.53651" lon="6.69916">
        <ele>1752.3248291</ele>
        <time>2009-07-25T14:54:51Z</time>
      </trkpt>
      <trkpt lat="45.53651" lon="6.69926">
        <ele>1752.7321777</ele>
        <time>2009-07-25T14:54:56Z</time>
      </trkpt>
      <trkpt lat="45.53653" lon="6.69934">
        <ele>1752.6772461</ele>
        <time>2009-07-25T14:55:00Z</time>
      </trkpt>
      <trkpt lat="45.53656" lon="6.69937">
        <ele>1751.7193604</ele>
        <time>2009-07-25T14:55:02Z</time>
      </trkpt>
      <trkpt lat="45.53662" lon="6.69953">
        <ele>1750.7037354</ele>
        <time>2009-07-25T14:55:11Z</time>
      </trkpt>
      <trkpt lat="45.53668" lon="6.69965">
        <ele>1749.4180908</ele>
        <time>2009-07-25T14:55:18Z</time>
      </trkpt>
      <trkpt lat="45.5367" lon="6.69971">
        <ele>1749.3331299</ele>
        <time>2009-07-25T14:55:22Z</time>
      </trkpt>
      <trkpt lat="45.53677" lon="6.69983">
        <ele>1746.605957</ele>
        <time>2009-07-25T14:55:28Z</time>
      </trkpt>
      <trkpt lat="45.53681" lon="6.69999">
        <ele>1745.0892334</ele>
        <time>2009-07-25T14:55:34Z</time>
      </trkpt>
      <trkpt lat="45.53682" lon="6.70012">
        <ele>1745.2301025</ele>
        <time>2009-07-25T14:55:41Z</time>
      </trkpt>
      <trkpt lat="45.53682" lon="6.70021">
        <ele>1745.7628174</ele>
        <time>2009-07-25T14:55:46Z</time>
      </trkpt>
      <trkpt lat="45.53682" lon="6.70025">
        <ele>1745.9083252</ele>
        <time>2009-07-25T14:55:48Z</time>
      </trkpt>
      <trkpt lat="45.53685" lon="6.70038">
        <ele>1743.9517822</ele>
        <time>2009-07-25T14:55:54Z</time>
      </trkpt>
      <trkpt lat="45.53685" lon="6.70054">
        <ele>1742.9810791</ele>
        <time>2009-07-25T14:56:00Z</time>
      </trkpt>
      <trkpt lat="45.53688" lon="6.70063">
        <ele>1742.2213135</ele>
        <time>2009-07-25T14:56:04Z</time>
      </trkpt>
      <trkpt lat="45.5369" lon="6.70067">
        <ele>1741.9556885</ele>
        <time>2009-07-25T14:56:06Z</time>
      </trkpt>
      <trkpt lat="45.53693" lon="6.70071">
        <ele>1741.1029053</ele>
        <time>2009-07-25T14:56:09Z</time>
      </trkpt>
      <trkpt lat="45.53697" lon="6.70082">
        <ele>1741.2113037</ele>
        <time>2009-07-25T14:56:16Z</time>
      </trkpt>
      <trkpt lat="45.53702" lon="6.70086">
        <ele>1740.3824463</ele>
        <time>2009-07-25T14:56:21Z</time>
      </trkpt>
      <trkpt lat="45.53706" lon="6.7009">
        <ele>1739.682373</ele>
        <time>2009-07-25T14:56:25Z</time>
      </trkpt>
      <trkpt lat="45.53709" lon="6.70094">
        <ele>1739.4737549</ele>
        <time>2009-07-25T14:56:27Z</time>
      </trkpt>
      <trkpt lat="45.5372" lon="6.70103">
        <ele>1737.6018066</ele>
        <time>2009-07-25T14:56:34Z</time>
      </trkpt>
      <trkpt lat="45.53729" lon="6.70106">
        <ele>1735.598877</ele>
        <time>2009-07-25T14:56:38Z</time>
      </trkpt>
      <trkpt lat="45.5373" lon="6.70103">
        <ele>1735.0466309</ele>
        <time>2009-07-25T14:56:41Z</time>
      </trkpt>
      <trkpt lat="45.53737" lon="6.70099">
        <ele>1732.7298584</ele>
        <time>2009-07-25T14:56:46Z</time>
      </trkpt>
      <trkpt lat="45.53743" lon="6.70101">
        <ele>1731.6098633</ele>
        <time>2009-07-25T14:56:52Z</time>
      </trkpt>
      <trkpt lat="45.53751" lon="6.701">
        <ele>1729.6218262</ele>
        <time>2009-07-25T14:56:56Z</time>
      </trkpt>
      <trkpt lat="45.53767" lon="6.70096">
        <ele>1726.4450684</ele>
        <time>2009-07-25T14:57:03Z</time>
      </trkpt>
      <trkpt lat="45.53779" lon="6.70105">
        <ele>1726.3718262</ele>
        <time>2009-07-25T14:57:09Z</time>
      </trkpt>
      <trkpt lat="45.5379" lon="6.70114">
        <ele>1725.7618408</ele>
        <time>2009-07-25T14:57:15Z</time>
      </trkpt>
      <trkpt lat="45.53798" lon="6.70119">
        <ele>1724.8348389</ele>
        <time>2009-07-25T14:57:20Z</time>
      </trkpt>
      <trkpt lat="45.53806" lon="6.70124">
        <ele>1723.9147949</ele>
        <time>2009-07-25T14:57:25Z</time>
      </trkpt>
      <trkpt lat="45.53807" lon="6.70126">
        <ele>1723.3922119</ele>
        <time>2009-07-25T14:57:26Z</time>
      </trkpt>
      <trkpt lat="45.53815" lon="6.70134">
        <ele>1721.8342285</ele>
        <time>2009-07-25T14:57:32Z</time>
      </trkpt>
      <trkpt lat="45.53823" lon="6.7014">
        <ele>1719.0717773</ele>
        <time>2009-07-25T14:57:38Z</time>
      </trkpt>
      <trkpt lat="45.53828" lon="6.70136">
        <ele>1716.6745605</ele>
        <time>2009-07-25T14:57:42Z</time>
      </trkpt>
      <trkpt lat="45.53838" lon="6.70126">
        <ele>1712.9190674</ele>
        <time>2009-07-25T14:57:48Z</time>
      </trkpt>
      <trkpt lat="45.53841" lon="6.70119">
        <ele>1711.6467285</ele>
        <time>2009-07-25T14:57:53Z</time>
      </trkpt>
      <trkpt lat="45.5385" lon="6.70123">
        <ele>1709.4500732</ele>
        <time>2009-07-25T14:58:00Z</time>
      </trkpt>
      <trkpt lat="45.53854" lon="6.70129">
        <ele>1708.5981445</ele>
        <time>2009-07-25T14:58:03Z</time>
      </trkpt>
      <trkpt lat="45.53859" lon="6.70137">
        <ele>1707.6446533</ele>
        <time>2009-07-25T14:58:07Z</time>
      </trkpt>
      <trkpt lat="45.53867" lon="6.70145">
        <ele>1705.7891846</ele>
        <time>2009-07-25T14:58:12Z</time>
      </trkpt>
      <trkpt lat="45.53875" lon="6.70156">
        <ele>1703.9281006</ele>
        <time>2009-07-25T14:58:18Z</time>
      </trkpt>
      <trkpt lat="45.53878" lon="6.70174">
        <ele>1702.3737793</ele>
        <time>2009-07-25T14:58:25Z</time>
      </trkpt>
      <trkpt lat="45.53882" lon="6.70183">
        <ele>1700.722168</ele>
        <time>2009-07-25T14:58:30Z</time>
      </trkpt>
      <trkpt lat="45.53881" lon="6.70191">
        <ele>1700.2719727</ele>
        <time>2009-07-25T14:58:35Z</time>
      </trkpt>
      <trkpt lat="45.53881" lon="6.70207">
        <ele>1698.5216064</ele>
        <time>2009-07-25T14:58:41Z</time>
      </trkpt>
      <trkpt lat="45.5388" lon="6.70222">
        <ele>1696.9418945</ele>
        <time>2009-07-25T14:58:46Z</time>
      </trkpt>
      <trkpt lat="45.53878" lon="6.70236">
        <ele>1696.1807861</ele>
        <time>2009-07-25T14:58:51Z</time>
      </trkpt>
      <trkpt lat="45.53876" lon="6.70243">
        <ele>1696.0263672</ele>
        <time>2009-07-25T14:58:54Z</time>
      </trkpt>
      <trkpt lat="45.53873" lon="6.70257">
        <ele>1694.4931641</ele>
        <time>2009-07-25T14:59:00Z</time>
      </trkpt>
      <trkpt lat="45.5387" lon="6.70278">
        <ele>1690.9494629</ele>
        <time>2009-07-25T14:59:07Z</time>
      </trkpt>
      <trkpt lat="45.5387" lon="6.7028">
        <ele>1690.4962158</ele>
        <time>2009-07-25T14:59:08Z</time>
      </trkpt>
      <trkpt lat="45.53867" lon="6.70289">
        <ele>1688.8757324</ele>
        <time>2009-07-25T14:59:12Z</time>
      </trkpt>
      <trkpt lat="45.53858" lon="6.70302">
        <ele>1688.0914307</ele>
        <time>2009-07-25T14:59:19Z</time>
      </trkpt>
      <trkpt lat="45.53854" lon="6.70312">
        <ele>1686.5783691</ele>
        <time>2009-07-25T14:59:24Z</time>
      </trkpt>
      <trkpt lat="45.53851" lon="6.70322">
        <ele>1684.7404785</ele>
        <time>2009-07-25T14:59:28Z</time>
      </trkpt>
      <trkpt lat="45.53845" lon="6.70336">
        <ele>1683.1220703</ele>
        <time>2009-07-25T14:59:34Z</time>
      </trkpt>
      <trkpt lat="45.53844" lon="6.70338">
        <ele>1683.065918</ele>
        <time>2009-07-25T14:59:35Z</time>
      </trkpt>
      <trkpt lat="45.53836" lon="6.70354">
        <ele>1681.3956299</ele>
        <time>2009-07-25T14:59:41Z</time>
      </trkpt>
      <trkpt lat="45.5383" lon="6.70364">
        <ele>1680.7009277</ele>
        <time>2009-07-25T14:59:46Z</time>
      </trkpt>
      <trkpt lat="45.53825" lon="6.70376">
        <ele>1680.3988037</ele>
        <time>2009-07-25T14:59:51Z</time>
      </trkpt>
      <trkpt lat="45.53823" lon="6.7039">
        <ele>1679.0787354</ele>
        <time>2009-07-25T14:59:57Z</time>
      </trkpt>
      <trkpt lat="45.53823" lon="6.70392">
        <ele>1678.6152344</ele>
        <time>2009-07-25T14:59:58Z</time>
      </trkpt>
      <trkpt lat="45.53822" lon="6.70403">
        <ele>1676.8007813</ele>
        <time>2009-07-25T15:00:03Z</time>
      </trkpt>
      <trkpt lat="45.53819" lon="6.70411">
        <ele>1676.9038086</ele>
        <time>2009-07-25T15:00:08Z</time>
      </trkpt>
      <trkpt lat="45.53817" lon="6.70421">
        <ele>1675.6199951</ele>
        <time>2009-07-25T15:00:13Z</time>
      </trkpt>
      <trkpt lat="45.53815" lon="6.70432">
        <ele>1673.4608154</ele>
        <time>2009-07-25T15:00:20Z</time>
      </trkpt>
      <trkpt lat="45.53816" lon="6.70438">
        <ele>1672.1099854</ele>
        <time>2009-07-25T15:00:23Z</time>
      </trkpt>
      <trkpt lat="45.53815" lon="6.70447">
        <ele>1670.1766357</ele>
        <time>2009-07-25T15:00:28Z</time>
      </trkpt>
      <trkpt lat="45.53813" lon="6.70459">
        <ele>1666.5441895</ele>
        <time>2009-07-25T15:00:34Z</time>
      </trkpt>
      <trkpt lat="45.53809" lon="6.70465">
        <ele>1666.2626953</ele>
        <time>2009-07-25T15:00:38Z</time>
      </trkpt>
      <trkpt lat="45.53807" lon="6.70468">
        <ele>1666.2043457</ele>
        <time>2009-07-25T15:00:40Z</time>
      </trkpt>
      <trkpt lat="45.53799" lon="6.70474">
        <ele>1667.5864258</ele>
        <time>2009-07-25T15:00:45Z</time>
      </trkpt>
      <trkpt lat="45.53797" lon="6.70476">
        <ele>1668.0925293</ele>
        <time>2009-07-25T15:00:46Z</time>
      </trkpt>
      <trkpt lat="45.53789" lon="6.70485">
        <ele>1668.7452393</ele>
        <time>2009-07-25T15:00:52Z</time>
      </trkpt>
      <trkpt lat="45.5378" lon="6.70496">
        <ele>1668.9127197</ele>
        <time>2009-07-25T15:00:58Z</time>
      </trkpt>
      <trkpt lat="45.53776" lon="6.70499">
        <ele>1669.5301514</ele>
        <time>2009-07-25T15:01:00Z</time>
      </trkpt>
      <trkpt lat="45.53772" lon="6.70505">
        <ele>1671.72229</ele>
        <time>2009-07-25T15:01:05Z</time>
      </trkpt>
      <trkpt lat="45.53773" lon="6.70506">
        <ele>1670.7943115</ele>
        <time>2009-07-25T15:01:08Z</time>
      </trkpt>
      <trkpt lat="45.53769" lon="6.70504">
        <ele>1673.3519287</ele>
        <time>2009-07-25T15:01:12Z</time>
      </trkpt>
      <trkpt lat="45.53768" lon="6.70506">
        <ele>1673.706543</ele>
        <time>2009-07-25T15:01:19Z</time>
      </trkpt>
      <trkpt lat="45.53767" lon="6.70505">
        <ele>1674.0528564</ele>
        <time>2009-07-25T15:01:23Z</time>
      </trkpt>
      <trkpt lat="45.53774" lon="6.70505">
        <ele>1670.6303711</ele>
        <time>2009-07-25T15:01:28Z</time>
      </trkpt>
      <trkpt lat="45.53786" lon="6.70508">
        <ele>1665.2926025</ele>
        <time>2009-07-25T15:01:33Z</time>
      </trkpt>
      <trkpt lat="45.53807" lon="6.70512">
        <ele>1659.7313232</ele>
        <time>2009-07-25T15:01:39Z</time>
      </trkpt>
      <trkpt lat="45.53832" lon="6.70514">
        <ele>1655.600708</ele>
        <time>2009-07-25T15:01:46Z</time>
      </trkpt>
      <trkpt lat="45.53838" lon="6.70513">
        <ele>1653.979248</ele>
        <time>2009-07-25T15:01:49Z</time>
      </trkpt>
      <trkpt lat="45.53846" lon="6.70513">
        <ele>1653.1427002</ele>
        <time>2009-07-25T15:01:54Z</time>
      </trkpt>
      <trkpt lat="45.53858" lon="6.70517">
        <ele>1655.2449951</ele>
        <time>2009-07-25T15:02:02Z</time>
      </trkpt>
      <trkpt lat="45.53867" lon="6.7052">
        <ele>1656.1751709</ele>
        <time>2009-07-25T15:02:08Z</time>
      </trkpt>
      <trkpt lat="45.53869" lon="6.70521">
        <ele>1656.2177734</ele>
        <time>2009-07-25T15:02:10Z</time>
      </trkpt>
      <trkpt lat="45.53875" lon="6.7052">
        <ele>1654.0157471</ele>
        <time>2009-07-25T15:02:14Z</time>
      </trkpt>
      <trkpt lat="45.53883" lon="6.70523">
        <ele>1653.9197998</ele>
        <time>2009-07-25T15:02:19Z</time>
      </trkpt>
      <trkpt lat="45.53893" lon="6.70526">
        <ele>1652.3146973</ele>
        <time>2009-07-25T15:02:26Z</time>
      </trkpt>
      <trkpt lat="45.53902" lon="6.7053">
        <ele>1652.2189941</ele>
        <time>2009-07-25T15:02:32Z</time>
      </trkpt>
      <trkpt lat="45.53912" lon="6.70534">
        <ele>1652.8179932</ele>
        <time>2009-07-25T15:02:40Z</time>
      </trkpt>
      <trkpt lat="45.53921" lon="6.70537">
        <ele>1652.4958496</ele>
        <time>2009-07-25T15:02:46Z</time>
      </trkpt>
      <trkpt lat="45.53932" lon="6.70541">
        <ele>1651.7407227</ele>
        <time>2009-07-25T15:02:53Z</time>
      </trkpt>
      <trkpt lat="45.5394" lon="6.70543">
        <ele>1650.1789551</ele>
        <time>2009-07-25T15:02:59Z</time>
      </trkpt>
      <trkpt lat="45.53952" lon="6.70547">
        <ele>1648.3116455</ele>
        <time>2009-07-25T15:03:07Z</time>
      </trkpt>
      <trkpt lat="45.53962" lon="6.70548">
        <ele>1645.1081543</ele>
        <time>2009-07-25T15:03:14Z</time>
      </trkpt>
      <trkpt lat="45.53972" lon="6.70553">
        <ele>1643.8122559</ele>
        <time>2009-07-25T15:03:21Z</time>
      </trkpt>
      <trkpt lat="45.53979" lon="6.7056">
        <ele>1644.1309814</ele>
        <time>2009-07-25T15:03:27Z</time>
      </trkpt>
      <trkpt lat="45.53981" lon="6.7056">
        <ele>1643.8942871</ele>
        <time>2009-07-25T15:03:28Z</time>
      </trkpt>
      <trkpt lat="45.53991" lon="6.70567">
        <ele>1642.7495117</ele>
        <time>2009-07-25T15:03:36Z</time>
      </trkpt>
      <trkpt lat="45.54" lon="6.70571">
        <ele>1640.7672119</ele>
        <time>2009-07-25T15:03:44Z</time>
      </trkpt>
      <trkpt lat="45.54008" lon="6.70575">
        <ele>1639.3841553</ele>
        <time>2009-07-25T15:03:50Z</time>
      </trkpt>
      <trkpt lat="45.54009" lon="6.70577">
        <ele>1639.7537842</ele>
        <time>2009-07-25T15:03:51Z</time>
      </trkpt>
      <trkpt lat="45.54014" lon="6.70582">
        <ele>1639.8192139</ele>
        <time>2009-07-25T15:03:56Z</time>
      </trkpt>
      <trkpt lat="45.54018" lon="6.7059">
        <ele>1641.5183105</ele>
        <time>2009-07-25T15:04:01Z</time>
      </trkpt>
      <trkpt lat="45.5403" lon="6.70597">
        <ele>1639.6064453</ele>
        <time>2009-07-25T15:04:07Z</time>
      </trkpt>
      <trkpt lat="45.54034" lon="6.70601">
        <ele>1639.3505859</ele>
        <time>2009-07-25T15:04:09Z</time>
      </trkpt>
      <trkpt lat="45.54036" lon="6.70605">
        <ele>1639.4416504</ele>
        <time>2009-07-25T15:04:11Z</time>
      </trkpt>
      <trkpt lat="45.5404" lon="6.70608">
        <ele>1638.8082275</ele>
        <time>2009-07-25T15:04:14Z</time>
      </trkpt>
      <trkpt lat="45.54044" lon="6.70612">
        <ele>1638.5913086</ele>
        <time>2009-07-25T15:04:21Z</time>
      </trkpt>
      <trkpt lat="45.54047" lon="6.70613">
        <ele>1637.8703613</ele>
        <time>2009-07-25T15:04:24Z</time>
      </trkpt>
      <trkpt lat="45.54051" lon="6.70612">
        <ele>1635.5426025</ele>
        <time>2009-07-25T15:04:28Z</time>
      </trkpt>
      <trkpt lat="45.54057" lon="6.70611">
        <ele>1632.6505127</ele>
        <time>2009-07-25T15:04:35Z</time>
      </trkpt>
      <trkpt lat="45.5406" lon="6.70611">
        <ele>1631.5162354</ele>
        <time>2009-07-25T15:04:37Z</time>
      </trkpt>
      <trkpt lat="45.54067" lon="6.7061">
        <ele>1629.2506104</ele>
        <time>2009-07-25T15:04:41Z</time>
      </trkpt>
      <trkpt lat="45.5407" lon="6.70609">
        <ele>1628.0888672</ele>
        <time>2009-07-25T15:04:43Z</time>
      </trkpt>
      <trkpt lat="45.54075" lon="6.70606">
        <ele>1625.71875</ele>
        <time>2009-07-25T15:04:48Z</time>
      </trkpt>
      <trkpt lat="45.54078" lon="6.70607">
        <ele>1625.1732178</ele>
        <time>2009-07-25T15:04:50Z</time>
      </trkpt>
      <trkpt lat="45.54088" lon="6.70623">
        <ele>1628.2312012</ele>
        <time>2009-07-25T15:04:58Z</time>
      </trkpt>
      <trkpt lat="45.54089" lon="6.70625">
        <ele>1628.5848389</ele>
        <time>2009-07-25T15:04:59Z</time>
      </trkpt>
      <trkpt lat="45.54095" lon="6.7063">
        <ele>1628.7647705</ele>
        <time>2009-07-25T15:05:03Z</time>
      </trkpt>
      <trkpt lat="45.541" lon="6.70638">
        <ele>1629.3719482</ele>
        <time>2009-07-25T15:05:08Z</time>
      </trkpt>
      <trkpt lat="45.54105" lon="6.70647">
        <ele>1630.3746338</ele>
        <time>2009-07-25T15:05:13Z</time>
      </trkpt>
      <trkpt lat="45.54106" lon="6.7065">
        <ele>1630.5648193</ele>
        <time>2009-07-25T15:05:15Z</time>
      </trkpt>
      <trkpt lat="45.54118" lon="6.70656">
        <ele>1627.2941895</ele>
        <time>2009-07-25T15:05:21Z</time>
      </trkpt>
      <trkpt lat="45.54124" lon="6.70661">
        <ele>1625.8635254</ele>
        <time>2009-07-25T15:05:24Z</time>
      </trkpt>
      <trkpt lat="45.54128" lon="6.70665">
        <ele>1624.9929199</ele>
        <time>2009-07-25T15:05:26Z</time>
      </trkpt>
      <trkpt lat="45.54137" lon="6.70672">
        <ele>1622.7352295</ele>
        <time>2009-07-25T15:05:32Z</time>
      </trkpt>
      <trkpt lat="45.54142" lon="6.70682">
        <ele>1621.8554688</ele>
        <time>2009-07-25T15:05:38Z</time>
      </trkpt>
      <trkpt lat="45.54149" lon="6.70689">
        <ele>1620.2387695</ele>
        <time>2009-07-25T15:05:43Z</time>
      </trkpt>
      <trkpt lat="45.54153" lon="6.70692">
        <ele>1619.2625732</ele>
        <time>2009-07-25T15:05:45Z</time>
      </trkpt>
      <trkpt lat="45.54159" lon="6.707">
        <ele>1617.5611572</ele>
        <time>2009-07-25T15:05:49Z</time>
      </trkpt>
      <trkpt lat="45.54162" lon="6.70703">
        <ele>1616.581665</ele>
        <time>2009-07-25T15:05:51Z</time>
      </trkpt>
      <trkpt lat="45.54173" lon="6.70699">
        <ele>1611.9893799</ele>
        <time>2009-07-25T15:05:56Z</time>
      </trkpt>
      <trkpt lat="45.54173" lon="6.70691">
        <ele>1611.0205078</ele>
        <time>2009-07-25T15:06:00Z</time>
      </trkpt>
      <trkpt lat="45.54173" lon="6.7069">
        <ele>1611.1383057</ele>
        <time>2009-07-25T15:06:01Z</time>
      </trkpt>
      <trkpt lat="45.54166" lon="6.70678">
        <ele>1612.435791</ele>
        <time>2009-07-25T15:06:07Z</time>
      </trkpt>
      <trkpt lat="45.5416" lon="6.70667">
        <ele>1613.3253174</ele>
        <time>2009-07-25T15:06:11Z</time>
      </trkpt>
      <trkpt lat="45.54158" lon="6.70658">
        <ele>1612.4613037</ele>
        <time>2009-07-25T15:06:14Z</time>
      </trkpt>
      <trkpt lat="45.54151" lon="6.70647">
        <ele>1613.0964355</ele>
        <time>2009-07-25T15:06:20Z</time>
      </trkpt>
      <trkpt lat="45.54152" lon="6.70641">
        <ele>1611.5858154</ele>
        <time>2009-07-25T15:06:23Z</time>
      </trkpt>
      <trkpt lat="45.54158" lon="6.70641">
        <ele>1609.5773926</ele>
        <time>2009-07-25T15:06:27Z</time>
      </trkpt>
      <trkpt lat="45.54167" lon="6.70643">
        <ele>1606.6734619</ele>
        <time>2009-07-25T15:06:32Z</time>
      </trkpt>
      <trkpt lat="45.54176" lon="6.7065">
        <ele>1603.2626953</ele>
        <time>2009-07-25T15:06:39Z</time>
      </trkpt>
      <trkpt lat="45.54186" lon="6.70651">
        <ele>1597.9816895</ele>
        <time>2009-07-25T15:06:44Z</time>
      </trkpt>
      <trkpt lat="45.54187" lon="6.70651">
        <ele>1597.1540527</ele>
        <time>2009-07-25T15:06:45Z</time>
      </trkpt>
      <trkpt lat="45.54195" lon="6.70652">
        <ele>1593.4562988</ele>
        <time>2009-07-25T15:06:49Z</time>
      </trkpt>
      <trkpt lat="45.5421" lon="6.70654">
        <ele>1588.6629639</ele>
        <time>2009-07-25T15:06:55Z</time>
      </trkpt>
      <trkpt lat="45.54219" lon="6.70661">
        <ele>1586.2703857</ele>
        <time>2009-07-25T15:07:01Z</time>
      </trkpt>
      <trkpt lat="45.54221" lon="6.70663">
        <ele>1586.100708</ele>
        <time>2009-07-25T15:07:02Z</time>
      </trkpt>
      <trkpt lat="45.54222" lon="6.70673">
        <ele>1586.9849854</ele>
        <time>2009-07-25T15:07:07Z</time>
      </trkpt>
      <trkpt lat="45.54223" lon="6.70679">
        <ele>1587.4080811</ele>
        <time>2009-07-25T15:07:10Z</time>
      </trkpt>
      <trkpt lat="45.54223" lon="6.70694">
        <ele>1589.2064209</ele>
        <time>2009-07-25T15:07:16Z</time>
      </trkpt>
      <trkpt lat="45.54224" lon="6.7071">
        <ele>1588.984375</ele>
        <time>2009-07-25T15:07:22Z</time>
      </trkpt>
      <trkpt lat="45.54225" lon="6.70719">
        <ele>1588.1604004</ele>
        <time>2009-07-25T15:07:25Z</time>
      </trkpt>
      <trkpt lat="45.54224" lon="6.70736">
        <ele>1588.0899658</ele>
        <time>2009-07-25T15:07:31Z</time>
      </trkpt>
      <trkpt lat="45.54224" lon="6.70749">
        <ele>1588.5462646</ele>
        <time>2009-07-25T15:07:36Z</time>
      </trkpt>
      <trkpt lat="45.54222" lon="6.70753">
        <ele>1589.6112061</ele>
        <time>2009-07-25T15:07:38Z</time>
      </trkpt>
      <trkpt lat="45.54222" lon="6.70765">
        <ele>1589.5106201</ele>
        <time>2009-07-25T15:07:43Z</time>
      </trkpt>
      <trkpt lat="45.54227" lon="6.70775">
        <ele>1583.4577637</ele>
        <time>2009-07-25T15:07:48Z</time>
      </trkpt>
      <trkpt lat="45.54228" lon="6.70789">
        <ele>1581.9812012</ele>
        <time>2009-07-25T15:07:54Z</time>
      </trkpt>
      <trkpt lat="45.54231" lon="6.70803">
        <ele>1578.2958984</ele>
        <time>2009-07-25T15:08:01Z</time>
      </trkpt>
      <trkpt lat="45.54233" lon="6.7081">
        <ele>1576.170166</ele>
        <time>2009-07-25T15:08:05Z</time>
      </trkpt>
      <trkpt lat="45.54234" lon="6.70813">
        <ele>1574.9388428</ele>
        <time>2009-07-25T15:08:07Z</time>
      </trkpt>
      <trkpt lat="45.54237" lon="6.70826">
        <ele>1571.9484863</ele>
        <time>2009-07-25T15:08:15Z</time>
      </trkpt>
      <trkpt lat="45.5424" lon="6.70834">
        <ele>1568.5864258</ele>
        <time>2009-07-25T15:08:21Z</time>
      </trkpt>
      <trkpt lat="45.54241" lon="6.70846">
        <ele>1567.5151367</ele>
        <time>2009-07-25T15:08:26Z</time>
      </trkpt>
      <trkpt lat="45.54237" lon="6.70854">
        <ele>1570.9050293</ele>
        <time>2009-07-25T15:08:30Z</time>
      </trkpt>
      <trkpt lat="45.54231" lon="6.70865">
        <ele>1575.7858887</ele>
        <time>2009-07-25T15:08:36Z</time>
      </trkpt>
      <trkpt lat="45.54224" lon="6.70873">
        <ele>1581.6835938</ele>
        <time>2009-07-25T15:08:41Z</time>
      </trkpt>
      <trkpt lat="45.54218" lon="6.7088">
        <ele>1586.043335</ele>
        <time>2009-07-25T15:08:46Z</time>
      </trkpt>
      <trkpt lat="45.54217" lon="6.70886">
        <ele>1586.671875</ele>
        <time>2009-07-25T15:08:49Z</time>
      </trkpt>
      <trkpt lat="45.54216" lon="6.70889">
        <ele>1586.6342773</ele>
        <time>2009-07-25T15:08:52Z</time>
      </trkpt>
      <trkpt lat="45.54219" lon="6.70892">
        <ele>1583.4432373</ele>
        <time>2009-07-25T15:08:57Z</time>
      </trkpt>
      <trkpt lat="45.54227" lon="6.70891">
        <ele>1575.7181396</ele>
        <time>2009-07-25T15:09:06Z</time>
      </trkpt>
      <trkpt lat="45.54231" lon="6.70888">
        <ele>1572.203125</ele>
        <time>2009-07-25T15:09:10Z</time>
      </trkpt>
      <trkpt lat="45.54234" lon="6.70885">
        <ele>1568.6462402</ele>
        <time>2009-07-25T15:09:13Z</time>
      </trkpt>
      <trkpt lat="45.54237" lon="6.7089">
        <ele>1564.1148682</ele>
        <time>2009-07-25T15:09:18Z</time>
      </trkpt>
      <trkpt lat="45.54235" lon="6.70889">
        <ele>1566.5582275</ele>
        <time>2009-07-25T15:09:20Z</time>
      </trkpt>
      <trkpt lat="45.54234" lon="6.70886">
        <ele>1569.3594971</ele>
        <time>2009-07-25T15:09:25Z</time>
      </trkpt>
      <trkpt lat="45.54239" lon="6.70883">
        <ele>1563.545166</ele>
        <time>2009-07-25T15:09:31Z</time>
      </trkpt>
      <trkpt lat="45.54242" lon="6.70881">
        <ele>1560.6572266</ele>
        <time>2009-07-25T15:09:36Z</time>
      </trkpt>
      <trkpt lat="45.5425" lon="6.70881">
        <ele>1552.7557373</ele>
        <time>2009-07-25T15:09:41Z</time>
      </trkpt>
      <trkpt lat="45.54264" lon="6.70888">
        <ele>1538.3166504</ele>
        <time>2009-07-25T15:09:49Z</time>
      </trkpt>
      <trkpt lat="45.54277" lon="6.70891">
        <ele>1527.1719971</ele>
        <time>2009-07-25T15:09:55Z</time>
      </trkpt>
      <trkpt lat="45.54284" lon="6.70892">
        <ele>1524.7773438</ele>
        <time>2009-07-25T15:09:59Z</time>
      </trkpt>
      <trkpt lat="45.5429" lon="6.70894">
        <ele>1523.7387695</ele>
        <time>2009-07-25T15:10:06Z</time>
      </trkpt>
      <trkpt lat="45.54293" lon="6.70893">
        <ele>1522.7648926</ele>
        <time>2009-07-25T15:10:13Z</time>
      </trkpt>
      <trkpt lat="45.54293" lon="6.70892">
        <ele>1522.3918457</ele>
        <time>2009-07-25T15:10:17Z</time>
      </trkpt>
      <trkpt lat="45.54298" lon="6.70891">
        <ele>1520.7897949</ele>
        <time>2009-07-25T15:10:22Z</time>
      </trkpt>
      <trkpt lat="45.54305" lon="6.70892">
        <ele>1519.2813721</ele>
        <time>2009-07-25T15:10:29Z</time>
      </trkpt>
      <trkpt lat="45.54312" lon="6.70894">
        <ele>1519.9006348</ele>
        <time>2009-07-25T15:10:36Z</time>
      </trkpt>
      <trkpt lat="45.54318" lon="6.70896">
        <ele>1520.2845459</ele>
        <time>2009-07-25T15:10:42Z</time>
      </trkpt>
      <trkpt lat="45.5433" lon="6.70892">
        <ele>1518.9742432</ele>
        <time>2009-07-25T15:10:48Z</time>
      </trkpt>
      <trkpt lat="45.54335" lon="6.70895">
        <ele>1520.1564941</ele>
        <time>2009-07-25T15:10:57Z</time>
      </trkpt>
      <trkpt lat="45.54341" lon="6.70899">
        <ele>1521.4355469</ele>
        <time>2009-07-25T15:11:03Z</time>
      </trkpt>
      <trkpt lat="45.54342" lon="6.709">
        <ele>1521.7502441</ele>
        <time>2009-07-25T15:11:04Z</time>
      </trkpt>
      <trkpt lat="45.54348" lon="6.70905">
        <ele>1523.4353027</ele>
        <time>2009-07-25T15:11:10Z</time>
      </trkpt>
      <trkpt lat="45.54352" lon="6.7091">
        <ele>1524.7081299</ele>
        <time>2009-07-25T15:11:14Z</time>
      </trkpt>
      <trkpt lat="45.5436" lon="6.70921">
        <ele>1527.1655273</ele>
        <time>2009-07-25T15:11:21Z</time>
      </trkpt>
      <trkpt lat="45.54363" lon="6.70928">
        <ele>1528.6824951</ele>
        <time>2009-07-25T15:11:26Z</time>
      </trkpt>
      <trkpt lat="45.54365" lon="6.70935">
        <ele>1529.8406982</ele>
        <time>2009-07-25T15:11:29Z</time>
      </trkpt>
      <trkpt lat="45.54367" lon="6.70943">
        <ele>1531.4210205</ele>
        <time>2009-07-25T15:11:33Z</time>
      </trkpt>
      <trkpt lat="45.54371" lon="6.70957">
        <ele>1534.1235352</ele>
        <time>2009-07-25T15:11:41Z</time>
      </trkpt>
      <trkpt lat="45.54373" lon="6.70959">
        <ele>1534.1314697</ele>
        <time>2009-07-25T15:11:43Z</time>
      </trkpt>
      <trkpt lat="45.54382" lon="6.70968">
        <ele>1534.1424561</ele>
        <time>2009-07-25T15:11:50Z</time>
      </trkpt>
      <trkpt lat="45.5439" lon="6.70972">
        <ele>1532.8845215</ele>
        <time>2009-07-25T15:11:56Z</time>
      </trkpt>
      <trkpt lat="45.54393" lon="6.70971">
        <ele>1531.8859863</ele>
        <time>2009-07-25T15:12:01Z</time>
      </trkpt>
      <trkpt lat="45.54396" lon="6.7097">
        <ele>1531.2821045</ele>
        <time>2009-07-25T15:12:03Z</time>
      </trkpt>
      <trkpt lat="45.54404" lon="6.70965">
        <ele>1528.8415527</ele>
        <time>2009-07-25T15:12:12Z</time>
      </trkpt>
      <trkpt lat="45.54409" lon="6.70962">
        <ele>1527.3973389</ele>
        <time>2009-07-25T15:12:18Z</time>
      </trkpt>
      <trkpt lat="45.54417" lon="6.7096">
        <ele>1525.7839355</ele>
        <time>2009-07-25T15:12:24Z</time>
      </trkpt>
      <trkpt lat="45.54423" lon="6.70958">
        <ele>1525.6851807</ele>
        <time>2009-07-25T15:12:29Z</time>
      </trkpt>
      <trkpt lat="45.54432" lon="6.70955">
        <ele>1525.3988037</ele>
        <time>2009-07-25T15:12:36Z</time>
      </trkpt>
      <trkpt lat="45.5444" lon="6.70954">
        <ele>1525.3028564</ele>
        <time>2009-07-25T15:12:43Z</time>
      </trkpt>
      <trkpt lat="45.54452" lon="6.70954">
        <ele>1526.003418</ele>
        <time>2009-07-25T15:12:51Z</time>
      </trkpt>
      <trkpt lat="45.54459" lon="6.70956">
        <ele>1527.0213623</ele>
        <time>2009-07-25T15:12:56Z</time>
      </trkpt>
      <trkpt lat="45.54467" lon="6.70959">
        <ele>1528.1835938</ele>
        <time>2009-07-25T15:13:02Z</time>
      </trkpt>
      <trkpt lat="45.54475" lon="6.70962">
        <ele>1529.2414551</ele>
        <time>2009-07-25T15:13:08Z</time>
      </trkpt>
      <trkpt lat="45.54483" lon="6.70964">
        <ele>1529.4904785</ele>
        <time>2009-07-25T15:13:15Z</time>
      </trkpt>
      <trkpt lat="45.54495" lon="6.70967">
        <ele>1529.5148926</ele>
        <time>2009-07-25T15:13:23Z</time>
      </trkpt>
      <trkpt lat="45.54502" lon="6.70969">
        <ele>1529.4215088</ele>
        <time>2009-07-25T15:13:28Z</time>
      </trkpt>
      <trkpt lat="45.54505" lon="6.70971">
        <ele>1529.5214844</ele>
        <time>2009-07-25T15:13:30Z</time>
      </trkpt>
      <trkpt lat="45.54516" lon="6.70982">
        <ele>1530.7901611</ele>
        <time>2009-07-25T15:13:38Z</time>
      </trkpt>
      <trkpt lat="45.54525" lon="6.70994">
        <ele>1531.5863037</ele>
        <time>2009-07-25T15:13:46Z</time>
      </trkpt>
      <trkpt lat="45.54532" lon="6.70998">
        <ele>1531.1962891</ele>
        <time>2009-07-25T15:13:51Z</time>
      </trkpt>
      <trkpt lat="45.54537" lon="6.70999">
        <ele>1530.5808105</ele>
        <time>2009-07-25T15:13:55Z</time>
      </trkpt>
      <trkpt lat="45.54544" lon="6.70995">
        <ele>1529.1888428</ele>
        <time>2009-07-25T15:14:01Z</time>
      </trkpt>
      <trkpt lat="45.54546" lon="6.70994">
        <ele>1528.7935791</ele>
        <time>2009-07-25T15:14:04Z</time>
      </trkpt>
      <trkpt lat="45.54549" lon="6.70989">
        <ele>1528.0222168</ele>
        <time>2009-07-25T15:14:10Z</time>
      </trkpt>
      <trkpt lat="45.54549" lon="6.7099">
        <ele>1527.9841309</ele>
        <time>2009-07-25T15:14:18Z</time>
      </trkpt>
      <trkpt lat="45.5455" lon="6.7099">
        <ele>1527.9682617</ele>
        <time>2009-07-25T15:14:26Z</time>
      </trkpt>
      <trkpt lat="45.5455" lon="6.70988">
        <ele>1527.8190918</ele>
        <time>2009-07-25T15:14:34Z</time>
      </trkpt>
      <trkpt lat="45.54552" lon="6.70981">
        <ele>1526.9958496</ele>
        <time>2009-07-25T15:14:40Z</time>
      </trkpt>
      <trkpt lat="45.54552" lon="6.70972">
        <ele>1526.2565918</ele>
        <time>2009-07-25T15:14:45Z</time>
      </trkpt>
      <trkpt lat="45.54552" lon="6.70963">
        <ele>1525.2132568</ele>
        <time>2009-07-25T15:14:50Z</time>
      </trkpt>
      <trkpt lat="45.54557" lon="6.70949">
        <ele>1523.3249512</ele>
        <time>2009-07-25T15:14:58Z</time>
      </trkpt>
      <trkpt lat="45.54565" lon="6.70941">
        <ele>1521.6099854</ele>
        <time>2009-07-25T15:15:06Z</time>
      </trkpt>
      <trkpt lat="45.5458" lon="6.70941">
        <ele>1519.9980469</ele>
        <time>2009-07-25T15:15:17Z</time>
      </trkpt>
      <trkpt lat="45.54589" lon="6.70944">
        <ele>1519.4995117</ele>
        <time>2009-07-25T15:15:24Z</time>
      </trkpt>
      <trkpt lat="45.546" lon="6.70947">
        <ele>1519.0452881</ele>
        <time>2009-07-25T15:15:32Z</time>
      </trkpt>
      <trkpt lat="45.5461" lon="6.7095">
        <ele>1518.5015869</ele>
        <time>2009-07-25T15:15:39Z</time>
      </trkpt>
      <trkpt lat="45.54619" lon="6.70953">
        <ele>1517.1560059</ele>
        <time>2009-07-25T15:15:46Z</time>
      </trkpt>
      <trkpt lat="45.54632" lon="6.70959">
        <ele>1515.3570557</ele>
        <time>2009-07-25T15:15:56Z</time>
      </trkpt>
      <trkpt lat="45.54639" lon="6.70967">
        <ele>1514.5537109</ele>
        <time>2009-07-25T15:16:03Z</time>
      </trkpt>
      <trkpt lat="45.54647" lon="6.70977">
        <ele>1513.5793457</ele>
        <time>2009-07-25T15:16:10Z</time>
      </trkpt>
      <trkpt lat="45.54651" lon="6.70989">
        <ele>1513.1174316</ele>
        <time>2009-07-25T15:16:17Z</time>
      </trkpt>
      <trkpt lat="45.54653" lon="6.70995">
        <ele>1512.8306885</ele>
        <time>2009-07-25T15:16:20Z</time>
      </trkpt>
      <trkpt lat="45.54651" lon="6.71009">
        <ele>1512.022583</ele>
        <time>2009-07-25T15:16:27Z</time>
      </trkpt>
      <trkpt lat="45.5465" lon="6.71012">
        <ele>1511.9265137</ele>
        <time>2009-07-25T15:16:29Z</time>
      </trkpt>
      <trkpt lat="45.54644" lon="6.7102">
        <ele>1511.9538574</ele>
        <time>2009-07-25T15:16:35Z</time>
      </trkpt>
      <trkpt lat="45.54641" lon="6.71029">
        <ele>1511.2487793</ele>
        <time>2009-07-25T15:16:40Z</time>
      </trkpt>
      <trkpt lat="45.54636" lon="6.71036">
        <ele>1511.9182129</ele>
        <time>2009-07-25T15:16:46Z</time>
      </trkpt>
      <trkpt lat="45.54634" lon="6.71039">
        <ele>1512.1322021</ele>
        <time>2009-07-25T15:16:48Z</time>
      </trkpt>
      <trkpt lat="45.54633" lon="6.71048">
        <ele>1511.2142334</ele>
        <time>2009-07-25T15:16:54Z</time>
      </trkpt>
      <trkpt lat="45.54639" lon="6.71061">
        <ele>1508.9970703</ele>
        <time>2009-07-25T15:17:02Z</time>
      </trkpt>
      <trkpt lat="45.54646" lon="6.71067">
        <ele>1508.3138428</ele>
        <time>2009-07-25T15:17:11Z</time>
      </trkpt>
      <trkpt lat="45.54656" lon="6.7107">
        <ele>1506.1818848</ele>
        <time>2009-07-25T15:17:20Z</time>
      </trkpt>
      <trkpt lat="45.54659" lon="6.7107">
        <ele>1505.4814453</ele>
        <time>2009-07-25T15:17:23Z</time>
      </trkpt>
      <trkpt lat="45.5467" lon="6.71067">
        <ele>1502.1231689</ele>
        <time>2009-07-25T15:17:31Z</time>
      </trkpt>
      <trkpt lat="45.54678" lon="6.71063">
        <ele>1498.7227783</ele>
        <time>2009-07-25T15:17:36Z</time>
      </trkpt>
      <trkpt lat="45.54686" lon="6.71063">
        <ele>1496.3112793</ele>
        <time>2009-07-25T15:17:41Z</time>
      </trkpt>
      <trkpt lat="45.54693" lon="6.7107">
        <ele>1495.4735107</ele>
        <time>2009-07-25T15:17:47Z</time>
      </trkpt>
      <trkpt lat="45.54697" lon="6.71075">
        <ele>1495.7661133</ele>
        <time>2009-07-25T15:17:50Z</time>
      </trkpt>
      <trkpt lat="45.54702" lon="6.71084">
        <ele>1496.2768555</ele>
        <time>2009-07-25T15:17:55Z</time>
      </trkpt>
      <trkpt lat="45.54707" lon="6.71092">
        <ele>1496.3939209</ele>
        <time>2009-07-25T15:18:00Z</time>
      </trkpt>
      <trkpt lat="45.54708" lon="6.71108">
        <ele>1498.494751</ele>
        <time>2009-07-25T15:18:08Z</time>
      </trkpt>
      <trkpt lat="45.54707" lon="6.71126">
        <ele>1500.5758057</ele>
        <time>2009-07-25T15:18:18Z</time>
      </trkpt>
      <trkpt lat="45.54708" lon="6.71143">
        <ele>1501.4395752</ele>
        <time>2009-07-25T15:18:27Z</time>
      </trkpt>
      <trkpt lat="45.54709" lon="6.71147">
        <ele>1501.0429688</ele>
        <time>2009-07-25T15:18:29Z</time>
      </trkpt>
      <trkpt lat="45.5471" lon="6.71157">
        <ele>1500.3049316</ele>
        <time>2009-07-25T15:18:34Z</time>
      </trkpt>
      <trkpt lat="45.54713" lon="6.71173">
        <ele>1498.9442139</ele>
        <time>2009-07-25T15:18:42Z</time>
      </trkpt>
      <trkpt lat="45.54717" lon="6.71185">
        <ele>1497.4772949</ele>
        <time>2009-07-25T15:18:49Z</time>
      </trkpt>
      <trkpt lat="45.54721" lon="6.71196">
        <ele>1496.0129395</ele>
        <time>2009-07-25T15:18:55Z</time>
      </trkpt>
      <trkpt lat="45.54724" lon="6.71203">
        <ele>1493.9278564</ele>
        <time>2009-07-25T15:18:59Z</time>
      </trkpt>
      <trkpt lat="45.54717" lon="6.71218">
        <ele>1494.2683105</ele>
        <time>2009-07-25T15:19:06Z</time>
      </trkpt>
      <trkpt lat="45.54712" lon="6.71226">
        <ele>1494.5960693</ele>
        <time>2009-07-25T15:19:11Z</time>
      </trkpt>
      <trkpt lat="45.54711" lon="6.7123">
        <ele>1494.6306152</ele>
        <time>2009-07-25T15:19:13Z</time>
      </trkpt>
      <trkpt lat="45.54705" lon="6.71242">
        <ele>1495.7150879</ele>
        <time>2009-07-25T15:19:19Z</time>
      </trkpt>
      <trkpt lat="45.547" lon="6.7125">
        <ele>1497.3494873</ele>
        <time>2009-07-25T15:19:25Z</time>
      </trkpt>
      <trkpt lat="45.54699" lon="6.71253">
        <ele>1498.0544434</ele>
        <time>2009-07-25T15:19:27Z</time>
      </trkpt>
      <trkpt lat="45.54701" lon="6.71266">
        <ele>1497.1147461</ele>
        <time>2009-07-25T15:19:33Z</time>
      </trkpt>
      <trkpt lat="45.54705" lon="6.71273">
        <ele>1494.4172363</ele>
        <time>2009-07-25T15:19:38Z</time>
      </trkpt>
      <trkpt lat="45.5471" lon="6.71282">
        <ele>1491.6608887</ele>
        <time>2009-07-25T15:19:44Z</time>
      </trkpt>
      <trkpt lat="45.54712" lon="6.71287">
        <ele>1491.652832</ele>
        <time>2009-07-25T15:19:48Z</time>
      </trkpt>
      <trkpt lat="45.54718" lon="6.71294">
        <ele>1490.2401123</ele>
        <time>2009-07-25T15:19:56Z</time>
      </trkpt>
      <trkpt lat="45.54728" lon="6.71298">
        <ele>1487.095459</ele>
        <time>2009-07-25T15:20:03Z</time>
      </trkpt>
      <trkpt lat="45.54739" lon="6.71302">
        <ele>1484.7094727</ele>
        <time>2009-07-25T15:20:12Z</time>
      </trkpt>
      <trkpt lat="45.54741" lon="6.71303">
        <ele>1484.4691162</ele>
        <time>2009-07-25T15:20:14Z</time>
      </trkpt>
      <trkpt lat="45.54748" lon="6.7131">
        <ele>1484.503418</ele>
        <time>2009-07-25T15:20:22Z</time>
      </trkpt>
      <trkpt lat="45.54751" lon="6.71317">
        <ele>1485.8027344</ele>
        <time>2009-07-25T15:20:28Z</time>
      </trkpt>
      <trkpt lat="45.54756" lon="6.71326">
        <ele>1487.0727539</ele>
        <time>2009-07-25T15:20:34Z</time>
      </trkpt>
      <trkpt lat="45.54762" lon="6.71337">
        <ele>1489.449585</ele>
        <time>2009-07-25T15:20:41Z</time>
      </trkpt>
      <trkpt lat="45.54768" lon="6.71346">
        <ele>1490.4406738</ele>
        <time>2009-07-25T15:20:47Z</time>
      </trkpt>
      <trkpt lat="45.54781" lon="6.71359">
        <ele>1491.0563965</ele>
        <time>2009-07-25T15:20:56Z</time>
      </trkpt>
      <trkpt lat="45.54791" lon="6.71367">
        <ele>1490.6297607</ele>
        <time>2009-07-25T15:21:03Z</time>
      </trkpt>
      <trkpt lat="45.54793" lon="6.71371">
        <ele>1491.0423584</ele>
        <time>2009-07-25T15:21:06Z</time>
      </trkpt>
      <trkpt lat="45.54794" lon="6.71373">
        <ele>1491.4080811</ele>
        <time>2009-07-25T15:21:08Z</time>
      </trkpt>
      <trkpt lat="45.548" lon="6.71383">
        <ele>1492.4686279</ele>
        <time>2009-07-25T15:21:16Z</time>
      </trkpt>
      <trkpt lat="45.54802" lon="6.71388">
        <ele>1492.7667236</ele>
        <time>2009-07-25T15:21:19Z</time>
      </trkpt>
      <trkpt lat="45.54807" lon="6.71394">
        <ele>1493.1672363</ele>
        <time>2009-07-25T15:21:25Z</time>
      </trkpt>
      <trkpt lat="45.54814" lon="6.71399">
        <ele>1491.9492188</ele>
        <time>2009-07-25T15:21:31Z</time>
      </trkpt>
      <trkpt lat="45.54821" lon="6.71407">
        <ele>1491.9996338</ele>
        <time>2009-07-25T15:21:39Z</time>
      </trkpt>
      <trkpt lat="45.54824" lon="6.71419">
        <ele>1494.0941162</ele>
        <time>2009-07-25T15:21:45Z</time>
      </trkpt>
      <trkpt lat="45.54824" lon="6.71429">
        <ele>1495.2618408</ele>
        <time>2009-07-25T15:21:50Z</time>
      </trkpt>
      <trkpt lat="45.54823" lon="6.71437">
        <ele>1497.4464111</ele>
        <time>2009-07-25T15:21:55Z</time>
      </trkpt>
      <trkpt lat="45.54823" lon="6.7145">
        <ele>1498.121582</ele>
        <time>2009-07-25T15:22:01Z</time>
      </trkpt>
      <trkpt lat="45.54822" lon="6.7146">
        <ele>1498.9042969</ele>
        <time>2009-07-25T15:22:06Z</time>
      </trkpt>
      <trkpt lat="45.54821" lon="6.71463">
        <ele>1499.1652832</ele>
        <time>2009-07-25T15:22:07Z</time>
      </trkpt>
      <trkpt lat="45.54823" lon="6.7147">
        <ele>1497.8605957</ele>
        <time>2009-07-25T15:22:10Z</time>
      </trkpt>
      <trkpt lat="45.54824" lon="6.71472">
        <ele>1497.3498535</ele>
        <time>2009-07-25T15:22:13Z</time>
      </trkpt>
      <trkpt lat="45.54828" lon="6.7148">
        <ele>1495.1785889</ele>
        <time>2009-07-25T15:22:19Z</time>
      </trkpt>
      <trkpt lat="45.54829" lon="6.71481">
        <ele>1494.8128662</ele>
        <time>2009-07-25T15:22:20Z</time>
      </trkpt>
      <trkpt lat="45.54837" lon="6.71488">
        <ele>1491.2785645</ele>
        <time>2009-07-25T15:22:28Z</time>
      </trkpt>
      <trkpt lat="45.5484" lon="6.71491">
        <ele>1490.2467041</ele>
        <time>2009-07-25T15:22:31Z</time>
      </trkpt>
      <trkpt lat="45.5484" lon="6.71496">
        <ele>1490.670166</ele>
        <time>2009-07-25T15:22:34Z</time>
      </trkpt>
      <trkpt lat="45.54844" lon="6.71506">
        <ele>1491.2224121</ele>
        <time>2009-07-25T15:22:41Z</time>
      </trkpt>
      <trkpt lat="45.54848" lon="6.71521">
        <ele>1494.0313721</ele>
        <time>2009-07-25T15:22:50Z</time>
      </trkpt>
      <trkpt lat="45.54848" lon="6.71522">
        <ele>1494.0976563</ele>
        <time>2009-07-25T15:22:51Z</time>
      </trkpt>
      <trkpt lat="45.54853" lon="6.71527">
        <ele>1493.6052246</ele>
        <time>2009-07-25T15:22:55Z</time>
      </trkpt>
      <trkpt lat="45.54855" lon="6.71528">
        <ele>1493.0009766</ele>
        <time>2009-07-25T15:22:57Z</time>
      </trkpt>
      <trkpt lat="45.54861" lon="6.71533">
        <ele>1491.664917</ele>
        <time>2009-07-25T15:23:01Z</time>
      </trkpt>
      <trkpt lat="45.54869" lon="6.71541">
        <ele>1490.9229736</ele>
        <time>2009-07-25T15:23:07Z</time>
      </trkpt>
      <trkpt lat="45.54882" lon="6.71551">
        <ele>1488.326416</ele>
        <time>2009-07-25T15:23:14Z</time>
      </trkpt>
      <trkpt lat="45.54887" lon="6.71556">
        <ele>1486.9398193</ele>
        <time>2009-07-25T15:23:21Z</time>
      </trkpt>
      <trkpt lat="45.54897" lon="6.71561">
        <ele>1486.3843994</ele>
        <time>2009-07-25T15:23:28Z</time>
      </trkpt>
      <trkpt lat="45.54903" lon="6.71563">
        <ele>1486.2608643</ele>
        <time>2009-07-25T15:23:33Z</time>
      </trkpt>
      <trkpt lat="45.54908" lon="6.71565">
        <ele>1486.3071289</ele>
        <time>2009-07-25T15:23:37Z</time>
      </trkpt>
      <trkpt lat="45.54912" lon="6.71569">
        <ele>1486.8685303</ele>
        <time>2009-07-25T15:23:41Z</time>
      </trkpt>
      <trkpt lat="45.54926" lon="6.71576">
        <ele>1487.4110107</ele>
        <time>2009-07-25T15:23:52Z</time>
      </trkpt>
      <trkpt lat="45.54935" lon="6.71582">
        <ele>1488.2469482</ele>
        <time>2009-07-25T15:24:00Z</time>
      </trkpt>
      <trkpt lat="45.54945" lon="6.7159">
        <ele>1490.2998047</ele>
        <time>2009-07-25T15:24:08Z</time>
      </trkpt>
      <trkpt lat="45.54951" lon="6.71601">
        <ele>1492.9172363</ele>
        <time>2009-07-25T15:24:16Z</time>
      </trkpt>
      <trkpt lat="45.54953" lon="6.71617">
        <ele>1496.2966309</ele>
        <time>2009-07-25T15:24:26Z</time>
      </trkpt>
      <trkpt lat="45.54954" lon="6.71632">
        <ele>1498.008667</ele>
        <time>2009-07-25T15:24:34Z</time>
      </trkpt>
      <trkpt lat="45.54955" lon="6.71644">
        <ele>1499.4000244</ele>
        <time>2009-07-25T15:24:41Z</time>
      </trkpt>
      <trkpt lat="45.54956" lon="6.71654">
        <ele>1500.2003174</ele>
        <time>2009-07-25T15:24:46Z</time>
      </trkpt>
      <trkpt lat="45.54958" lon="6.71667">
        <ele>1501.1317139</ele>
        <time>2009-07-25T15:24:53Z</time>
      </trkpt>
      <trkpt lat="45.54963" lon="6.71676">
        <ele>1500.0351563</ele>
        <time>2009-07-25T15:24:58Z</time>
      </trkpt>
      <trkpt lat="45.5497" lon="6.71686">
        <ele>1497.6956787</ele>
        <time>2009-07-25T15:25:04Z</time>
      </trkpt>
      <trkpt lat="45.54972" lon="6.71689">
        <ele>1497.0506592</ele>
        <time>2009-07-25T15:25:06Z</time>
      </trkpt>
      <trkpt lat="45.5498" lon="6.71702">
        <ele>1495.9997559</ele>
        <time>2009-07-25T15:25:14Z</time>
      </trkpt>
      <trkpt lat="45.54987" lon="6.71715">
        <ele>1495.822876</ele>
        <time>2009-07-25T15:25:23Z</time>
      </trkpt>
      <trkpt lat="45.54993" lon="6.71723">
        <ele>1495.873291</ele>
        <time>2009-07-25T15:25:29Z</time>
      </trkpt>
      <trkpt lat="45.54994" lon="6.71733">
        <ele>1496.3848877</ele>
        <time>2009-07-25T15:25:37Z</time>
      </trkpt>
      <trkpt lat="45.54996" lon="6.71744">
        <ele>1497.0097656</ele>
        <time>2009-07-25T15:25:46Z</time>
      </trkpt>
      <trkpt lat="45.54994" lon="6.71756">
        <ele>1498.24646</ele>
        <time>2009-07-25T15:25:55Z</time>
      </trkpt>
      <trkpt lat="45.54994" lon="6.71763">
        <ele>1499.1013184</ele>
        <time>2009-07-25T15:26:00Z</time>
      </trkpt>
      <trkpt lat="45.54996" lon="6.71779">
        <ele>1500.5844727</ele>
        <time>2009-07-25T15:26:09Z</time>
      </trkpt>
      <trkpt lat="45.54998" lon="6.71787">
        <ele>1501.2333984</ele>
        <time>2009-07-25T15:26:13Z</time>
      </trkpt>
      <trkpt lat="45.55" lon="6.71794">
        <ele>1501.8461914</ele>
        <time>2009-07-25T15:26:17Z</time>
      </trkpt>
      <trkpt lat="45.55002" lon="6.71803">
        <ele>1502.4024658</ele>
        <time>2009-07-25T15:26:22Z</time>
      </trkpt>
      <trkpt lat="45.55008" lon="6.71817">
        <ele>1503.0566406</ele>
        <time>2009-07-25T15:26:31Z</time>
      </trkpt>
      <trkpt lat="45.55014" lon="6.71831">
        <ele>1503.1651611</ele>
        <time>2009-07-25T15:26:40Z</time>
      </trkpt>
      <trkpt lat="45.5502" lon="6.71844">
        <ele>1503.1257324</ele>
        <time>2009-07-25T15:26:47Z</time>
      </trkpt>
      <trkpt lat="45.55024" lon="6.71858">
        <ele>1503.3833008</ele>
        <time>2009-07-25T15:26:54Z</time>
      </trkpt>
      <trkpt lat="45.55025" lon="6.7187">
        <ele>1503.8806152</ele>
        <time>2009-07-25T15:27:00Z</time>
      </trkpt>
      <trkpt lat="45.55022" lon="6.71887">
        <ele>1504.8917236</ele>
        <time>2009-07-25T15:27:08Z</time>
      </trkpt>
      <trkpt lat="45.5502" lon="6.71902">
        <ele>1506.270874</ele>
        <time>2009-07-25T15:27:16Z</time>
      </trkpt>
      <trkpt lat="45.55021" lon="6.71915">
        <ele>1506.8850098</ele>
        <time>2009-07-25T15:27:22Z</time>
      </trkpt>
      <trkpt lat="45.55022" lon="6.71928">
        <ele>1507.5443115</ele>
        <time>2009-07-25T15:27:28Z</time>
      </trkpt>
      <trkpt lat="45.55022" lon="6.7193">
        <ele>1507.6611328</ele>
        <time>2009-07-25T15:27:29Z</time>
      </trkpt>
      <trkpt lat="45.55023" lon="6.71944">
        <ele>1508.1235352</ele>
        <time>2009-07-25T15:27:35Z</time>
      </trkpt>
      <trkpt lat="45.55022" lon="6.71955">
        <ele>1508.6885986</ele>
        <time>2009-07-25T15:27:40Z</time>
      </trkpt>
      <trkpt lat="45.5502" lon="6.71964">
        <ele>1509.6412354</ele>
        <time>2009-07-25T15:27:44Z</time>
      </trkpt>
      <trkpt lat="45.55017" lon="6.71976">
        <ele>1510.2858887</ele>
        <time>2009-07-25T15:27:50Z</time>
      </trkpt>
      <trkpt lat="45.55013" lon="6.7199">
        <ele>1510.3491211</ele>
        <time>2009-07-25T15:27:57Z</time>
      </trkpt>
      <trkpt lat="45.55017" lon="6.71999">
        <ele>1507.3466797</ele>
        <time>2009-07-25T15:28:02Z</time>
      </trkpt>
      <trkpt lat="45.5502" lon="6.72001">
        <ele>1505.8555908</ele>
        <time>2009-07-25T15:28:04Z</time>
      </trkpt>
      <trkpt lat="45.55027" lon="6.72007">
        <ele>1503.7486572</ele>
        <time>2009-07-25T15:28:11Z</time>
      </trkpt>
      <trkpt lat="45.55035" lon="6.72016">
        <ele>1502.2578125</ele>
        <time>2009-07-25T15:28:19Z</time>
      </trkpt>
      <trkpt lat="45.55042" lon="6.72028">
        <ele>1501.8355713</ele>
        <time>2009-07-25T15:28:25Z</time>
      </trkpt>
      <trkpt lat="45.55045" lon="6.72035">
        <ele>1502.0158691</ele>
        <time>2009-07-25T15:28:28Z</time>
      </trkpt>
      <trkpt lat="45.55051" lon="6.72051">
        <ele>1502.6166992</ele>
        <time>2009-07-25T15:28:34Z</time>
      </trkpt>
      <trkpt lat="45.55054" lon="6.72063">
        <ele>1503.3222656</ele>
        <time>2009-07-25T15:28:39Z</time>
      </trkpt>
      <trkpt lat="45.5506" lon="6.72076">
        <ele>1502.1837158</ele>
        <time>2009-07-25T15:28:45Z</time>
      </trkpt>
      <trkpt lat="45.55061" lon="6.72081">
        <ele>1501.989502</ele>
        <time>2009-07-25T15:28:47Z</time>
      </trkpt>
      <trkpt lat="45.55064" lon="6.72086">
        <ele>1501.4143066</ele>
        <time>2009-07-25T15:28:50Z</time>
      </trkpt>
      <trkpt lat="45.55066" lon="6.72087">
        <ele>1500.8647461</ele>
        <time>2009-07-25T15:28:52Z</time>
      </trkpt>
      <trkpt lat="45.55067" lon="6.7208">
        <ele>1499.2510986</ele>
        <time>2009-07-25T15:28:56Z</time>
      </trkpt>
      <trkpt lat="45.55067" lon="6.72074">
        <ele>1498.6254883</ele>
        <time>2009-07-25T15:28:59Z</time>
      </trkpt>
      <trkpt lat="45.55064" lon="6.72056">
        <ele>1497.9335938</ele>
        <time>2009-07-25T15:29:06Z</time>
      </trkpt>
      <trkpt lat="45.55062" lon="6.72051">
        <ele>1497.9729004</ele>
        <time>2009-07-25T15:29:08Z</time>
      </trkpt>
      <trkpt lat="45.55062" lon="6.72048">
        <ele>1497.2364502</ele>
        <time>2009-07-25T15:29:10Z</time>
      </trkpt>
      <trkpt lat="45.5507" lon="6.72045">
        <ele>1493.1868896</ele>
        <time>2009-07-25T15:29:15Z</time>
      </trkpt>
      <trkpt lat="45.55079" lon="6.72055">
        <ele>1490.401001</ele>
        <time>2009-07-25T15:29:21Z</time>
      </trkpt>
      <trkpt lat="45.5508" lon="6.72057">
        <ele>1490.0782471</ele>
        <time>2009-07-25T15:29:22Z</time>
      </trkpt>
      <trkpt lat="45.55083" lon="6.7206">
        <ele>1489.024292</ele>
        <time>2009-07-25T15:29:24Z</time>
      </trkpt>
      <trkpt lat="45.5509" lon="6.72069">
        <ele>1487.078125</ele>
        <time>2009-07-25T15:29:29Z</time>
      </trkpt>
      <trkpt lat="45.55095" lon="6.72081">
        <ele>1486.7218018</ele>
        <time>2009-07-25T15:29:34Z</time>
      </trkpt>
      <trkpt lat="45.55098" lon="6.7209">
        <ele>1486.385498</ele>
        <time>2009-07-25T15:29:38Z</time>
      </trkpt>
      <trkpt lat="45.55101" lon="6.721">
        <ele>1486.3546143</ele>
        <time>2009-07-25T15:29:41Z</time>
      </trkpt>
      <trkpt lat="45.55104" lon="6.72118">
        <ele>1486.3702393</ele>
        <time>2009-07-25T15:29:47Z</time>
      </trkpt>
      <trkpt lat="45.55105" lon="6.7213">
        <ele>1486.1418457</ele>
        <time>2009-07-25T15:29:51Z</time>
      </trkpt>
      <trkpt lat="45.55106" lon="6.72132">
        <ele>1486.0494385</ele>
        <time>2009-07-25T15:29:52Z</time>
      </trkpt>
      <trkpt lat="45.55107" lon="6.72148">
        <ele>1486.0527344</ele>
        <time>2009-07-25T15:29:57Z</time>
      </trkpt>
      <trkpt lat="45.5511" lon="6.72158">
        <ele>1485.133667</ele>
        <time>2009-07-25T15:30:00Z</time>
      </trkpt>
      <trkpt lat="45.55118" lon="6.72166">
        <ele>1482.3325195</ele>
        <time>2009-07-25T15:30:04Z</time>
      </trkpt>
      <trkpt lat="45.55124" lon="6.72175">
        <ele>1480.68396</ele>
        <time>2009-07-25T15:30:08Z</time>
      </trkpt>
      <trkpt lat="45.55122" lon="6.72181">
        <ele>1481.9356689</ele>
        <time>2009-07-25T15:30:11Z</time>
      </trkpt>
      <trkpt lat="45.55128" lon="6.72191">
        <ele>1480.7357178</ele>
        <time>2009-07-25T15:30:18Z</time>
      </trkpt>
      <trkpt lat="45.55128" lon="6.72193">
        <ele>1480.5751953</ele>
        <time>2009-07-25T15:30:19Z</time>
      </trkpt>
      <trkpt lat="45.5513" lon="6.72198">
        <ele>1480.4377441</ele>
        <time>2009-07-25T15:30:23Z</time>
      </trkpt>
      <trkpt lat="45.55133" lon="6.72205">
        <ele>1480.005127</ele>
        <time>2009-07-25T15:30:28Z</time>
      </trkpt>
      <trkpt lat="45.55138" lon="6.72214">
        <ele>1478.6937256</ele>
        <time>2009-07-25T15:30:34Z</time>
      </trkpt>
      <trkpt lat="45.55142" lon="6.72223">
        <ele>1477.9714355</ele>
        <time>2009-07-25T15:30:39Z</time>
      </trkpt>
      <trkpt lat="45.55146" lon="6.72236">
        <ele>1478.663208</ele>
        <time>2009-07-25T15:30:45Z</time>
      </trkpt>
      <trkpt lat="45.55146" lon="6.72239">
        <ele>1478.7929688</ele>
        <time>2009-07-25T15:30:46Z</time>
      </trkpt>
      <trkpt lat="45.55151" lon="6.72254">
        <ele>1479.6948242</ele>
        <time>2009-07-25T15:30:52Z</time>
      </trkpt>
      <trkpt lat="45.55152" lon="6.72262">
        <ele>1480.833252</ele>
        <time>2009-07-25T15:30:55Z</time>
      </trkpt>
      <trkpt lat="45.55154" lon="6.72279">
        <ele>1483.2698975</ele>
        <time>2009-07-25T15:31:01Z</time>
      </trkpt>
      <trkpt lat="45.55161" lon="6.72291">
        <ele>1480.9971924</ele>
        <time>2009-07-25T15:31:06Z</time>
      </trkpt>
      <trkpt lat="45.55167" lon="6.72307">
        <ele>1480.1251221</ele>
        <time>2009-07-25T15:31:12Z</time>
      </trkpt>
      <trkpt lat="45.55172" lon="6.72324">
        <ele>1480.0079346</ele>
        <time>2009-07-25T15:31:19Z</time>
      </trkpt>
      <trkpt lat="45.55177" lon="6.72343">
        <ele>1478.8782959</ele>
        <time>2009-07-25T15:31:26Z</time>
      </trkpt>
      <trkpt lat="45.55183" lon="6.72362">
        <ele>1477.6785889</ele>
        <time>2009-07-25T15:31:33Z</time>
      </trkpt>
      <trkpt lat="45.55189" lon="6.72379">
        <ele>1475.4984131</ele>
        <time>2009-07-25T15:31:39Z</time>
      </trkpt>
      <trkpt lat="45.55194" lon="6.72397">
        <ele>1474.6075439</ele>
        <time>2009-07-25T15:31:46Z</time>
      </trkpt>
      <trkpt lat="45.55199" lon="6.72411">
        <ele>1473.7938232</ele>
        <time>2009-07-25T15:31:51Z</time>
      </trkpt>
      <trkpt lat="45.55204" lon="6.72425">
        <ele>1471.65271</ele>
        <time>2009-07-25T15:31:56Z</time>
      </trkpt>
      <trkpt lat="45.55207" lon="6.72439">
        <ele>1469.1883545</ele>
        <time>2009-07-25T15:32:01Z</time>
      </trkpt>
      <trkpt lat="45.55209" lon="6.72445">
        <ele>1468.1618652</ele>
        <time>2009-07-25T15:32:03Z</time>
      </trkpt>
      <trkpt lat="45.55209" lon="6.72468">
        <ele>1465.6693115</ele>
        <time>2009-07-25T15:32:11Z</time>
      </trkpt>
      <trkpt lat="45.55209" lon="6.72485">
        <ele>1464.2929688</ele>
        <time>2009-07-25T15:32:17Z</time>
      </trkpt>
      <trkpt lat="45.55211" lon="6.72501">
        <ele>1462.4350586</ele>
        <time>2009-07-25T15:32:23Z</time>
      </trkpt>
      <trkpt lat="45.55217" lon="6.72516">
        <ele>1461.6386719</ele>
        <time>2009-07-25T15:32:29Z</time>
      </trkpt>
      <trkpt lat="45.5522" lon="6.72524">
        <ele>1461.463501</ele>
        <time>2009-07-25T15:32:32Z</time>
      </trkpt>
      <trkpt lat="45.55225" lon="6.72544">
        <ele>1460.8846436</ele>
        <time>2009-07-25T15:32:39Z</time>
      </trkpt>
      <trkpt lat="45.55231" lon="6.72559">
        <ele>1460.2598877</ele>
        <time>2009-07-25T15:32:45Z</time>
      </trkpt>
      <trkpt lat="45.55236" lon="6.72572">
        <ele>1459.3956299</ele>
        <time>2009-07-25T15:32:52Z</time>
      </trkpt>
      <trkpt lat="45.55239" lon="6.72581">
        <ele>1458.6169434</ele>
        <time>2009-07-25T15:32:58Z</time>
      </trkpt>
      <trkpt lat="45.5524" lon="6.72583">
        <ele>1458.543335</ele>
        <time>2009-07-25T15:32:59Z</time>
      </trkpt>
      <trkpt lat="45.55239" lon="6.726">
        <ele>1458.7321777</ele>
        <time>2009-07-25T15:33:06Z</time>
      </trkpt>
      <trkpt lat="45.5524" lon="6.72605">
        <ele>1458.6263428</ele>
        <time>2009-07-25T15:33:08Z</time>
      </trkpt>
      <trkpt lat="45.55245" lon="6.72603">
        <ele>1456.996582</ele>
        <time>2009-07-25T15:33:13Z</time>
      </trkpt>
      <trkpt lat="45.55246" lon="6.72601">
        <ele>1456.5432129</ele>
        <time>2009-07-25T15:33:14Z</time>
      </trkpt>
      <trkpt lat="45.55257" lon="6.72587">
        <ele>1453.4776611</ele>
        <time>2009-07-25T15:33:21Z</time>
      </trkpt>
      <trkpt lat="45.55269" lon="6.72585">
        <ele>1449.1621094</ele>
        <time>2009-07-25T15:33:28Z</time>
      </trkpt>
      <trkpt lat="45.55274" lon="6.72591">
        <ele>1447.0059814</ele>
        <time>2009-07-25T15:33:32Z</time>
      </trkpt>
      <trkpt lat="45.55289" lon="6.72601">
        <ele>1442.2269287</ele>
        <time>2009-07-25T15:33:41Z</time>
      </trkpt>
      <trkpt lat="45.55302" lon="6.72608">
        <ele>1437.9954834</ele>
        <time>2009-07-25T15:33:49Z</time>
      </trkpt>
      <trkpt lat="45.55309" lon="6.7261">
        <ele>1435.9613037</ele>
        <time>2009-07-25T15:33:53Z</time>
      </trkpt>
      <trkpt lat="45.55315" lon="6.72613">
        <ele>1434.2509766</ele>
        <time>2009-07-25T15:33:57Z</time>
      </trkpt>
      <trkpt lat="45.55325" lon="6.72616">
        <ele>1431.4813232</ele>
        <time>2009-07-25T15:34:03Z</time>
      </trkpt>
      <trkpt lat="45.55334" lon="6.72621">
        <ele>1429.25</ele>
        <time>2009-07-25T15:34:09Z</time>
      </trkpt>
      <trkpt lat="45.55342" lon="6.72625">
        <ele>1426.5349121</ele>
        <time>2009-07-25T15:34:15Z</time>
      </trkpt>
      <trkpt lat="45.55347" lon="6.72632">
        <ele>1425.0552979</ele>
        <time>2009-07-25T15:34:20Z</time>
      </trkpt>
      <trkpt lat="45.5535" lon="6.72647">
        <ele>1423.8602295</ele>
        <time>2009-07-25T15:34:28Z</time>
      </trkpt>
      <trkpt lat="45.5535" lon="6.72659">
        <ele>1423.5142822</ele>
        <time>2009-07-25T15:34:33Z</time>
      </trkpt>
      <trkpt lat="45.55352" lon="6.72672">
        <ele>1422.0910645</ele>
        <time>2009-07-25T15:34:39Z</time>
      </trkpt>
      <trkpt lat="45.5536" lon="6.7268">
        <ele>1419.3822021</ele>
        <time>2009-07-25T15:34:44Z</time>
      </trkpt>
      <trkpt lat="45.55365" lon="6.72682">
        <ele>1417.748291</ele>
        <time>2009-07-25T15:34:47Z</time>
      </trkpt>
      <trkpt lat="45.55368" lon="6.72691">
        <ele>1416.1206055</ele>
        <time>2009-07-25T15:34:52Z</time>
      </trkpt>
      <trkpt lat="45.55369" lon="6.72693">
        <ele>1415.8758545</ele>
        <time>2009-07-25T15:34:53Z</time>
      </trkpt>
      <trkpt lat="45.55373" lon="6.72707">
        <ele>1413.980957</ele>
        <time>2009-07-25T15:35:00Z</time>
      </trkpt>
      <trkpt lat="45.55375" lon="6.7271">
        <ele>1413.546875</ele>
        <time>2009-07-25T15:35:02Z</time>
      </trkpt>
      <trkpt lat="45.55381" lon="6.72722">
        <ele>1411.779541</ele>
        <time>2009-07-25T15:35:09Z</time>
      </trkpt>
      <trkpt lat="45.55387" lon="6.72727">
        <ele>1410.0192871</ele>
        <time>2009-07-25T15:35:14Z</time>
      </trkpt>
      <trkpt lat="45.5539" lon="6.7273">
        <ele>1408.8525391</ele>
        <time>2009-07-25T15:35:17Z</time>
      </trkpt>
      <trkpt lat="45.55391" lon="6.72734">
        <ele>1408.1025391</ele>
        <time>2009-07-25T15:35:19Z</time>
      </trkpt>
      <trkpt lat="45.55394" lon="6.7274">
        <ele>1406.3925781</ele>
        <time>2009-07-25T15:35:23Z</time>
      </trkpt>
      <trkpt lat="45.55396" lon="6.72743">
        <ele>1405.2962646</ele>
        <time>2009-07-25T15:35:25Z</time>
      </trkpt>
      <trkpt lat="45.554" lon="6.72753">
        <ele>1402.7053223</ele>
        <time>2009-07-25T15:35:30Z</time>
      </trkpt>
      <trkpt lat="45.55398" lon="6.72775">
        <ele>1401.84021</ele>
        <time>2009-07-25T15:35:38Z</time>
      </trkpt>
      <trkpt lat="45.55397" lon="6.72792">
        <ele>1401.5129395</ele>
        <time>2009-07-25T15:35:44Z</time>
      </trkpt>
      <trkpt lat="45.55397" lon="6.72808">
        <ele>1401.1500244</ele>
        <time>2009-07-25T15:35:50Z</time>
      </trkpt>
      <trkpt lat="45.55401" lon="6.72828">
        <ele>1399.1351318</ele>
        <time>2009-07-25T15:35:57Z</time>
      </trkpt>
      <trkpt lat="45.55405" lon="6.72851">
        <ele>1395.8193359</ele>
        <time>2009-07-25T15:36:05Z</time>
      </trkpt>
      <trkpt lat="45.55408" lon="6.72868">
        <ele>1393.3547363</ele>
        <time>2009-07-25T15:36:11Z</time>
      </trkpt>
      <trkpt lat="45.5541" lon="6.72887">
        <ele>1391.8537598</ele>
        <time>2009-07-25T15:36:18Z</time>
      </trkpt>
      <trkpt lat="45.5541" lon="6.72893">
        <ele>1391.6385498</ele>
        <time>2009-07-25T15:36:20Z</time>
      </trkpt>
      <trkpt lat="45.55419" lon="6.72903">
        <ele>1388.3713379</ele>
        <time>2009-07-25T15:36:28Z</time>
      </trkpt>
      <trkpt lat="45.55428" lon="6.72908">
        <ele>1386.3968506</ele>
        <time>2009-07-25T15:36:34Z</time>
      </trkpt>
      <trkpt lat="45.55435" lon="6.72917">
        <ele>1385.0070801</ele>
        <time>2009-07-25T15:36:41Z</time>
      </trkpt>
      <trkpt lat="45.55442" lon="6.72931">
        <ele>1384.0654297</ele>
        <time>2009-07-25T15:36:49Z</time>
      </trkpt>
      <trkpt lat="45.55448" lon="6.72942">
        <ele>1383.1207275</ele>
        <time>2009-07-25T15:36:56Z</time>
      </trkpt>
      <trkpt lat="45.55449" lon="6.72944">
        <ele>1383.0125732</ele>
        <time>2009-07-25T15:36:57Z</time>
      </trkpt>
      <trkpt lat="45.55454" lon="6.72952">
        <ele>1382.4171143</ele>
        <time>2009-07-25T15:37:02Z</time>
      </trkpt>
      <trkpt lat="45.55462" lon="6.72962">
        <ele>1381.0814209</ele>
        <time>2009-07-25T15:37:09Z</time>
      </trkpt>
      <trkpt lat="45.55473" lon="6.72967">
        <ele>1378.6544189</ele>
        <time>2009-07-25T15:37:16Z</time>
      </trkpt>
      <trkpt lat="45.55486" lon="6.72969">
        <ele>1376.8707275</ele>
        <time>2009-07-25T15:37:22Z</time>
      </trkpt>
      <trkpt lat="45.55495" lon="6.72972">
        <ele>1375.6599121</ele>
        <time>2009-07-25T15:37:27Z</time>
      </trkpt>
      <trkpt lat="45.55508" lon="6.72977">
        <ele>1373.5592041</ele>
        <time>2009-07-25T15:37:33Z</time>
      </trkpt>
      <trkpt lat="45.55519" lon="6.72981">
        <ele>1371.2980957</ele>
        <time>2009-07-25T15:37:39Z</time>
      </trkpt>
      <trkpt lat="45.55531" lon="6.72986">
        <ele>1369.2302246</ele>
        <time>2009-07-25T15:37:45Z</time>
      </trkpt>
      <trkpt lat="45.55543" lon="6.72989">
        <ele>1367.0200195</ele>
        <time>2009-07-25T15:37:51Z</time>
      </trkpt>
      <trkpt lat="45.55558" lon="6.72992">
        <ele>1364.5450439</ele>
        <time>2009-07-25T15:37:58Z</time>
      </trkpt>
      <trkpt lat="45.55568" lon="6.72993">
        <ele>1363.2149658</ele>
        <time>2009-07-25T15:38:05Z</time>
      </trkpt>
      <trkpt lat="45.55575" lon="6.72988">
        <ele>1361.7664795</ele>
        <time>2009-07-25T15:38:10Z</time>
      </trkpt>
      <trkpt lat="45.55579" lon="6.7299">
        <ele>1361.5806885</ele>
        <time>2009-07-25T15:38:14Z</time>
      </trkpt>
      <trkpt lat="45.55585" lon="6.72993">
        <ele>1361.0303955</ele>
        <time>2009-07-25T15:38:19Z</time>
      </trkpt>
      <trkpt lat="45.55588" lon="6.72994">
        <ele>1360.94104</ele>
        <time>2009-07-25T15:38:21Z</time>
      </trkpt>
      <trkpt lat="45.55598" lon="6.73003">
        <ele>1361.3232422</ele>
        <time>2009-07-25T15:38:28Z</time>
      </trkpt>
      <trkpt lat="45.55603" lon="6.73015">
        <ele>1362.0050049</ele>
        <time>2009-07-25T15:38:35Z</time>
      </trkpt>
      <trkpt lat="45.55608" lon="6.73026">
        <ele>1362.355957</ele>
        <time>2009-07-25T15:38:41Z</time>
      </trkpt>
      <trkpt lat="45.55611" lon="6.73039">
        <ele>1361.9401855</ele>
        <time>2009-07-25T15:38:48Z</time>
      </trkpt>
      <trkpt lat="45.55611" lon="6.73041">
        <ele>1362.0141602</ele>
        <time>2009-07-25T15:38:49Z</time>
      </trkpt>
      <trkpt lat="45.55613" lon="6.7305">
        <ele>1361.538208</ele>
        <time>2009-07-25T15:38:54Z</time>
      </trkpt>
      <trkpt lat="45.55614" lon="6.73066">
        <ele>1361.3320313</ele>
        <time>2009-07-25T15:39:01Z</time>
      </trkpt>
      <trkpt lat="45.5561" lon="6.73085">
        <ele>1362.4005127</ele>
        <time>2009-07-25T15:39:08Z</time>
      </trkpt>
      <trkpt lat="45.55605" lon="6.73105">
        <ele>1364.5012207</ele>
        <time>2009-07-25T15:39:15Z</time>
      </trkpt>
      <trkpt lat="45.55602" lon="6.73124">
        <ele>1365.6616211</ele>
        <time>2009-07-25T15:39:21Z</time>
      </trkpt>
      <trkpt lat="45.55601" lon="6.73139">
        <ele>1365.8529053</ele>
        <time>2009-07-25T15:39:27Z</time>
      </trkpt>
      <trkpt lat="45.556" lon="6.73156">
        <ele>1366.0921631</ele>
        <time>2009-07-25T15:39:32Z</time>
      </trkpt>
      <trkpt lat="45.55602" lon="6.73169">
        <ele>1365.2530518</ele>
        <time>2009-07-25T15:39:37Z</time>
      </trkpt>
      <trkpt lat="45.55603" lon="6.73188">
        <ele>1364.8106689</ele>
        <time>2009-07-25T15:39:44Z</time>
      </trkpt>
      <trkpt lat="45.55602" lon="6.73204">
        <ele>1365.8657227</ele>
        <time>2009-07-25T15:39:50Z</time>
      </trkpt>
      <trkpt lat="45.55602" lon="6.73216">
        <ele>1365.8977051</ele>
        <time>2009-07-25T15:39:55Z</time>
      </trkpt>
      <trkpt lat="45.55602" lon="6.73221">
        <ele>1366.0223389</ele>
        <time>2009-07-25T15:39:57Z</time>
      </trkpt>
      <trkpt lat="45.55603" lon="6.73238">
        <ele>1368.0782471</ele>
        <time>2009-07-25T15:40:03Z</time>
      </trkpt>
      <trkpt lat="45.55607" lon="6.73246">
        <ele>1367.4256592</ele>
        <time>2009-07-25T15:40:06Z</time>
      </trkpt>
      <trkpt lat="45.5561" lon="6.73266">
        <ele>1367.1922607</ele>
        <time>2009-07-25T15:40:13Z</time>
      </trkpt>
      <trkpt lat="45.55612" lon="6.73272">
        <ele>1366.0667725</ele>
        <time>2009-07-25T15:40:15Z</time>
      </trkpt>
      <trkpt lat="45.55618" lon="6.73286">
        <ele>1362.0466309</ele>
        <time>2009-07-25T15:40:20Z</time>
      </trkpt>
      <trkpt lat="45.5562" lon="6.73297">
        <ele>1360.3505859</ele>
        <time>2009-07-25T15:40:24Z</time>
      </trkpt>
      <trkpt lat="45.55619" lon="6.73317">
        <ele>1360.7587891</ele>
        <time>2009-07-25T15:40:31Z</time>
      </trkpt>
      <trkpt lat="45.55618" lon="6.73331">
        <ele>1360.8886719</ele>
        <time>2009-07-25T15:40:35Z</time>
      </trkpt>
      <trkpt lat="45.55619" lon="6.73334">
        <ele>1360.4110107</ele>
        <time>2009-07-25T15:40:36Z</time>
      </trkpt>
      <trkpt lat="45.5563" lon="6.7335">
        <ele>1353.8933105</ele>
        <time>2009-07-25T15:40:42Z</time>
      </trkpt>
      <trkpt lat="45.55637" lon="6.7337">
        <ele>1351.3450928</ele>
        <time>2009-07-25T15:40:49Z</time>
      </trkpt>
      <trkpt lat="45.55636" lon="6.73384">
        <ele>1352.0671387</ele>
        <time>2009-07-25T15:40:54Z</time>
      </trkpt>
      <trkpt lat="45.55636" lon="6.734">
        <ele>1351.6459961</ele>
        <time>2009-07-25T15:41:00Z</time>
      </trkpt>
      <trkpt lat="45.55637" lon="6.73422">
        <ele>1350.5517578</ele>
        <time>2009-07-25T15:41:07Z</time>
      </trkpt>
      <trkpt lat="45.5564" lon="6.7344">
        <ele>1348.2962646</ele>
        <time>2009-07-25T15:41:13Z</time>
      </trkpt>
      <trkpt lat="45.55643" lon="6.73453">
        <ele>1345.3469238</ele>
        <time>2009-07-25T15:41:17Z</time>
      </trkpt>
      <trkpt lat="45.55648" lon="6.7347">
        <ele>1340.6192627</ele>
        <time>2009-07-25T15:41:22Z</time>
      </trkpt>
      <trkpt lat="45.5565" lon="6.73483">
        <ele>1337.6289063</ele>
        <time>2009-07-25T15:41:26Z</time>
      </trkpt>
      <trkpt lat="45.55645" lon="6.73501">
        <ele>1338.0761719</ele>
        <time>2009-07-25T15:41:33Z</time>
      </trkpt>
      <trkpt lat="45.55641" lon="6.73512">
        <ele>1338.243042</ele>
        <time>2009-07-25T15:41:38Z</time>
      </trkpt>
      <trkpt lat="45.55638" lon="6.73528">
        <ele>1337.3395996</ele>
        <time>2009-07-25T15:41:44Z</time>
      </trkpt>
      <trkpt lat="45.55635" lon="6.73544">
        <ele>1336.4250488</ele>
        <time>2009-07-25T15:41:50Z</time>
      </trkpt>
      <trkpt lat="45.55631" lon="6.73561">
        <ele>1335.6783447</ele>
        <time>2009-07-25T15:41:56Z</time>
      </trkpt>
      <trkpt lat="45.55628" lon="6.73577">
        <ele>1335.4775391</ele>
        <time>2009-07-25T15:42:02Z</time>
      </trkpt>
      <trkpt lat="45.55624" lon="6.73596">
        <ele>1335.2200928</ele>
        <time>2009-07-25T15:42:09Z</time>
      </trkpt>
      <trkpt lat="45.55619" lon="6.73611">
        <ele>1335.6707764</ele>
        <time>2009-07-25T15:42:15Z</time>
      </trkpt>
      <trkpt lat="45.55615" lon="6.73628">
        <ele>1333.4306641</ele>
        <time>2009-07-25T15:42:21Z</time>
      </trkpt>
      <trkpt lat="45.55611" lon="6.73643">
        <ele>1331.2192383</ele>
        <time>2009-07-25T15:42:27Z</time>
      </trkpt>
      <trkpt lat="45.55618" lon="6.73641">
        <ele>1329.2368164</ele>
        <time>2009-07-25T15:42:32Z</time>
      </trkpt>
      <trkpt lat="45.55626" lon="6.73638">
        <ele>1327.4898682</ele>
        <time>2009-07-25T15:42:37Z</time>
      </trkpt>
      <trkpt lat="45.55636" lon="6.73631">
        <ele>1325.0842285</ele>
        <time>2009-07-25T15:42:45Z</time>
      </trkpt>
      <trkpt lat="45.55644" lon="6.73625">
        <ele>1323.3817139</ele>
        <time>2009-07-25T15:42:51Z</time>
      </trkpt>
      <trkpt lat="45.55655" lon="6.73617">
        <ele>1320.9647217</ele>
        <time>2009-07-25T15:42:58Z</time>
      </trkpt>
      <trkpt lat="45.55668" lon="6.73606">
        <ele>1318.0250244</ele>
        <time>2009-07-25T15:43:07Z</time>
      </trkpt>
      <trkpt lat="45.55679" lon="6.73599">
        <ele>1314.3392334</ele>
        <time>2009-07-25T15:43:14Z</time>
      </trkpt>
      <trkpt lat="45.55687" lon="6.73594">
        <ele>1311.503418</ele>
        <time>2009-07-25T15:43:20Z</time>
      </trkpt>
      <trkpt lat="45.55693" lon="6.73589">
        <ele>1309.8525391</ele>
        <time>2009-07-25T15:43:25Z</time>
      </trkpt>
      <trkpt lat="45.557" lon="6.73584">
        <ele>1307.5599365</ele>
        <time>2009-07-25T15:43:30Z</time>
      </trkpt>
      <trkpt lat="45.55708" lon="6.73578">
        <ele>1305.420166</ele>
        <time>2009-07-25T15:43:36Z</time>
      </trkpt>
      <trkpt lat="45.55713" lon="6.73572">
        <ele>1304.036377</ele>
        <time>2009-07-25T15:43:41Z</time>
      </trkpt>
      <trkpt lat="45.55718" lon="6.73567">
        <ele>1302.800415</ele>
        <time>2009-07-25T15:43:45Z</time>
      </trkpt>
      <trkpt lat="45.55727" lon="6.73559">
        <ele>1300.5761719</ele>
        <time>2009-07-25T15:43:52Z</time>
      </trkpt>
      <trkpt lat="45.55728" lon="6.73558">
        <ele>1300.2640381</ele>
        <time>2009-07-25T15:43:53Z</time>
      </trkpt>
      <trkpt lat="45.55737" lon="6.73549">
        <ele>1297.527832</ele>
        <time>2009-07-25T15:43:59Z</time>
      </trkpt>
      <trkpt lat="45.55747" lon="6.73542">
        <ele>1294.5616455</ele>
        <time>2009-07-25T15:44:05Z</time>
      </trkpt>
      <trkpt lat="45.55754" lon="6.73533">
        <ele>1292.6721191</ele>
        <time>2009-07-25T15:44:10Z</time>
      </trkpt>
      <trkpt lat="45.55761" lon="6.73523">
        <ele>1290.7060547</ele>
        <time>2009-07-25T15:44:16Z</time>
      </trkpt>
      <trkpt lat="45.55768" lon="6.73513">
        <ele>1289.0335693</ele>
        <time>2009-07-25T15:44:24Z</time>
      </trkpt>
      <trkpt lat="45.55769" lon="6.73513">
        <ele>1288.5482178</ele>
        <time>2009-07-25T15:44:25Z</time>
      </trkpt>
      <trkpt lat="45.55774" lon="6.73505">
        <ele>1287.1953125</ele>
        <time>2009-07-25T15:44:31Z</time>
      </trkpt>
      <trkpt lat="45.55777" lon="6.73502">
        <ele>1286.3054199</ele>
        <time>2009-07-25T15:44:34Z</time>
      </trkpt>
      <trkpt lat="45.55781" lon="6.73499">
        <ele>1284.1695557</ele>
        <time>2009-07-25T15:44:37Z</time>
      </trkpt>
      <trkpt lat="45.55791" lon="6.73494">
        <ele>1279.6429443</ele>
        <time>2009-07-25T15:44:44Z</time>
      </trkpt>
      <trkpt lat="45.55797" lon="6.73491">
        <ele>1277.5494385</ele>
        <time>2009-07-25T15:44:49Z</time>
      </trkpt>
      <trkpt lat="45.55805" lon="6.73485">
        <ele>1274.7963867</ele>
        <time>2009-07-25T15:44:55Z</time>
      </trkpt>
      <trkpt lat="45.55809" lon="6.73478">
        <ele>1274.927002</ele>
        <time>2009-07-25T15:44:59Z</time>
      </trkpt>
      <trkpt lat="45.55815" lon="6.73482">
        <ele>1271.9833984</ele>
        <time>2009-07-25T15:45:04Z</time>
      </trkpt>
      <trkpt lat="45.55821" lon="6.73482">
        <ele>1269.7565918</ele>
        <time>2009-07-25T15:45:09Z</time>
      </trkpt>
      <trkpt lat="45.55825" lon="6.73481">
        <ele>1268.5749512</ele>
        <time>2009-07-25T15:45:12Z</time>
      </trkpt>
      <trkpt lat="45.55832" lon="6.73482">
        <ele>1266.1538086</ele>
        <time>2009-07-25T15:45:18Z</time>
      </trkpt>
      <trkpt lat="45.55833" lon="6.73481">
        <ele>1265.7701416</ele>
        <time>2009-07-25T15:45:19Z</time>
      </trkpt>
      <trkpt lat="45.55837" lon="6.73477">
        <ele>1264.6678467</ele>
        <time>2009-07-25T15:45:24Z</time>
      </trkpt>
      <trkpt lat="45.55842" lon="6.73479">
        <ele>1262.8706055</ele>
        <time>2009-07-25T15:45:32Z</time>
      </trkpt>
      <trkpt lat="45.55848" lon="6.73482">
        <ele>1261.0389404</ele>
        <time>2009-07-25T15:45:39Z</time>
      </trkpt>
      <trkpt lat="45.55854" lon="6.73484">
        <ele>1258.7541504</ele>
        <time>2009-07-25T15:45:47Z</time>
      </trkpt>
      <trkpt lat="45.55856" lon="6.73479">
        <ele>1258.5533447</ele>
        <time>2009-07-25T15:45:50Z</time>
      </trkpt>
      <trkpt lat="45.55855" lon="6.73468">
        <ele>1259.3389893</ele>
        <time>2009-07-25T15:45:56Z</time>
      </trkpt>
      <trkpt lat="45.55856" lon="6.73465">
        <ele>1259.5561523</ele>
        <time>2009-07-25T15:45:59Z</time>
      </trkpt>
      <trkpt lat="45.55863" lon="6.73465">
        <ele>1256.7733154</ele>
        <time>2009-07-25T15:46:07Z</time>
      </trkpt>
      <trkpt lat="45.55864" lon="6.73468">
        <ele>1256.0563965</ele>
        <time>2009-07-25T15:46:09Z</time>
      </trkpt>
      <trkpt lat="45.5587" lon="6.73475">
        <ele>1253.0158691</ele>
        <time>2009-07-25T15:46:16Z</time>
      </trkpt>
      <trkpt lat="45.55873" lon="6.73482">
        <ele>1251.1616211</ele>
        <time>2009-07-25T15:46:21Z</time>
      </trkpt>
      <trkpt lat="45.55878" lon="6.73489">
        <ele>1248.5070801</ele>
        <time>2009-07-25T15:46:27Z</time>
      </trkpt>
      <trkpt lat="45.55883" lon="6.73496">
        <ele>1246.2017822</ele>
        <time>2009-07-25T15:46:32Z</time>
      </trkpt>
      <trkpt lat="45.55887" lon="6.73501">
        <ele>1243.7418213</ele>
        <time>2009-07-25T15:46:36Z</time>
      </trkpt>
      <trkpt lat="45.5589" lon="6.73506">
        <ele>1242.2172852</ele>
        <time>2009-07-25T15:46:39Z</time>
      </trkpt>
      <trkpt lat="45.55896" lon="6.73512">
        <ele>1239.8729248</ele>
        <time>2009-07-25T15:46:43Z</time>
      </trkpt>
      <trkpt lat="45.55897" lon="6.73513">
        <ele>1239.2399902</ele>
        <time>2009-07-25T15:46:44Z</time>
      </trkpt>
      <trkpt lat="45.55907" lon="6.73521">
        <ele>1235.381958</ele>
        <time>2009-07-25T15:46:51Z</time>
      </trkpt>
      <trkpt lat="45.5591" lon="6.73524">
        <ele>1234.4381104</ele>
        <time>2009-07-25T15:46:55Z</time>
      </trkpt>
      <trkpt lat="45.55914" lon="6.73527">
        <ele>1232.8321533</ele>
        <time>2009-07-25T15:47:00Z</time>
      </trkpt>
      <trkpt lat="45.55918" lon="6.73529">
        <ele>1231.6567383</ele>
        <time>2009-07-25T15:47:07Z</time>
      </trkpt>
      <trkpt lat="45.55923" lon="6.73535">
        <ele>1229.9406738</ele>
        <time>2009-07-25T15:47:13Z</time>
      </trkpt>
      <trkpt lat="45.55932" lon="6.73544">
        <ele>1227.3592529</ele>
        <time>2009-07-25T15:47:20Z</time>
      </trkpt>
      <trkpt lat="45.55941" lon="6.73552">
        <ele>1224.9786377</ele>
        <time>2009-07-25T15:47:26Z</time>
      </trkpt>
      <trkpt lat="45.55951" lon="6.73556">
        <ele>1222.6264648</ele>
        <time>2009-07-25T15:47:32Z</time>
      </trkpt>
      <trkpt lat="45.55962" lon="6.73562">
        <ele>1219.8626709</ele>
        <time>2009-07-25T15:47:39Z</time>
      </trkpt>
      <trkpt lat="45.55968" lon="6.73566">
        <ele>1218.0910645</ele>
        <time>2009-07-25T15:47:44Z</time>
      </trkpt>
      <trkpt lat="45.55975" lon="6.73572">
        <ele>1216.3735352</ele>
        <time>2009-07-25T15:47:47Z</time>
      </trkpt>
      <trkpt lat="45.55977" lon="6.73582">
        <ele>1215.1890869</ele>
        <time>2009-07-25T15:47:52Z</time>
      </trkpt>
      <trkpt lat="45.55982" lon="6.73587">
        <ele>1214.0761719</ele>
        <time>2009-07-25T15:47:56Z</time>
      </trkpt>
      <trkpt lat="45.5599" lon="6.73592">
        <ele>1212.4244385</ele>
        <time>2009-07-25T15:48:01Z</time>
      </trkpt>
      <trkpt lat="45.55995" lon="6.73599">
        <ele>1211.1917725</ele>
        <time>2009-07-25T15:48:05Z</time>
      </trkpt>
      <trkpt lat="45.55996" lon="6.73602">
        <ele>1210.9718018</ele>
        <time>2009-07-25T15:48:06Z</time>
      </trkpt>
      <trkpt lat="45.56001" lon="6.73612">
        <ele>1209.838623</ele>
        <time>2009-07-25T15:48:10Z</time>
      </trkpt>
      <trkpt lat="45.56008" lon="6.73613">
        <ele>1208.7695313</ele>
        <time>2009-07-25T15:48:14Z</time>
      </trkpt>
      <trkpt lat="45.56011" lon="6.73614">
        <ele>1208.375</ele>
        <time>2009-07-25T15:48:16Z</time>
      </trkpt>
      <trkpt lat="45.56015" lon="6.73618">
        <ele>1207.6781006</ele>
        <time>2009-07-25T15:48:20Z</time>
      </trkpt>
      <trkpt lat="45.56023" lon="6.73617">
        <ele>1206.6484375</ele>
        <time>2009-07-25T15:48:25Z</time>
      </trkpt>
      <trkpt lat="45.56028" lon="6.73616">
        <ele>1205.9702148</ele>
        <time>2009-07-25T15:48:27Z</time>
      </trkpt>
      <trkpt lat="45.56032" lon="6.73612">
        <ele>1205.3659668</ele>
        <time>2009-07-25T15:48:31Z</time>
      </trkpt>
      <trkpt lat="45.56032" lon="6.73601">
        <ele>1205.3699951</ele>
        <time>2009-07-25T15:48:36Z</time>
      </trkpt>
      <trkpt lat="45.56031" lon="6.73597">
        <ele>1205.4691162</ele>
        <time>2009-07-25T15:48:42Z</time>
      </trkpt>
      <trkpt lat="45.5603" lon="6.73594">
        <ele>1205.7110596</ele>
        <time>2009-07-25T15:48:44Z</time>
      </trkpt>
      <trkpt lat="45.56026" lon="6.73589">
        <ele>1206.3605957</ele>
        <time>2009-07-25T15:48:49Z</time>
      </trkpt>
      <trkpt lat="45.56024" lon="6.73584">
        <ele>1206.7127686</ele>
        <time>2009-07-25T15:48:52Z</time>
      </trkpt>
      <trkpt lat="45.56017" lon="6.73581">
        <ele>1208.081543</ele>
        <time>2009-07-25T15:48:59Z</time>
      </trkpt>
      <trkpt lat="45.56014" lon="6.73579">
        <ele>1208.6759033</ele>
        <time>2009-07-25T15:49:05Z</time>
      </trkpt>
      <trkpt lat="45.56014" lon="6.73579">
        <ele>1208.5823975</ele>
        <time>2009-07-25T15:49:12Z</time>
      </trkpt>
      <trkpt lat="45.56012" lon="6.7358">
        <ele>1208.904541</ele>
        <time>2009-07-25T15:49:25Z</time>
      </trkpt>
      <trkpt lat="45.56013" lon="6.73578">
        <ele>1208.9072266</ele>
        <time>2009-07-25T15:49:37Z</time>
      </trkpt>
      <trkpt lat="45.56012" lon="6.73579">
        <ele>1208.9522705</ele>
        <time>2009-07-25T15:49:44Z</time>
      </trkpt>
      <trkpt lat="45.56013" lon="6.73578">
        <ele>1208.7703857</ele>
        <time>2009-07-25T15:49:55Z</time>
      </trkpt>
      <trkpt lat="45.56015" lon="6.73578">
        <ele>1208.4777832</ele>
        <time>2009-07-25T15:50:01Z</time>
      </trkpt>
      <trkpt lat="45.56014" lon="6.7358">
        <ele>1208.6293945</ele>
        <time>2009-07-25T15:50:12Z</time>
      </trkpt>
      <trkpt lat="45.56015" lon="6.7358">
        <ele>1208.3455811</ele>
        <time>2009-07-25T15:50:18Z</time>
      </trkpt>
      <trkpt lat="45.56016" lon="6.73578">
        <ele>1208.3266602</ele>
        <time>2009-07-25T15:50:25Z</time>
      </trkpt>
      <trkpt lat="45.56015" lon="6.73575">
        <ele>1208.5787354</ele>
        <time>2009-07-25T15:50:30Z</time>
      </trkpt>
      <trkpt lat="45.56014" lon="6.73565">
        <ele>1209.1623535</ele>
        <time>2009-07-25T15:50:36Z</time>
      </trkpt>
      <trkpt lat="45.56012" lon="6.73553">
        <ele>1209.9259033</ele>
        <time>2009-07-25T15:50:43Z</time>
      </trkpt>
      <trkpt lat="45.56011" lon="6.7355">
        <ele>1210.0528564</ele>
        <time>2009-07-25T15:50:45Z</time>
      </trkpt>
      <trkpt lat="45.56009" lon="6.73536">
        <ele>1210.2672119</ele>
        <time>2009-07-25T15:50:53Z</time>
      </trkpt>
      <trkpt lat="45.56009" lon="6.73524">
        <ele>1209.927124</ele>
        <time>2009-07-25T15:50:59Z</time>
      </trkpt>
      <trkpt lat="45.56009" lon="6.7352">
        <ele>1209.7056885</ele>
        <time>2009-07-25T15:51:01Z</time>
      </trkpt>
      <trkpt lat="45.56012" lon="6.73506">
        <ele>1208.5657959</ele>
        <time>2009-07-25T15:51:08Z</time>
      </trkpt>
      <trkpt lat="45.56014" lon="6.73492">
        <ele>1207.4755859</ele>
        <time>2009-07-25T15:51:14Z</time>
      </trkpt>
      <trkpt lat="45.56017" lon="6.73479">
        <ele>1206.1246338</ele>
        <time>2009-07-25T15:51:19Z</time>
      </trkpt>
      <trkpt lat="45.56018" lon="6.73465">
        <ele>1205.1801758</ele>
        <time>2009-07-25T15:51:24Z</time>
      </trkpt>
      <trkpt lat="45.56019" lon="6.73452">
        <ele>1204.1994629</ele>
        <time>2009-07-25T15:51:28Z</time>
      </trkpt>
      <trkpt lat="45.56022" lon="6.73423">
        <ele>1203.1851807</ele>
        <time>2009-07-25T15:51:38Z</time>
      </trkpt>
      <trkpt lat="45.56022" lon="6.73421">
        <ele>1203.0977783</ele>
        <time>2009-07-25T15:51:39Z</time>
      </trkpt>
      <trkpt lat="45.56023" lon="6.73408">
        <ele>1202.5699463</ele>
        <time>2009-07-25T15:51:45Z</time>
      </trkpt>
      <trkpt lat="45.5602" lon="6.73397">
        <ele>1202.4266357</ele>
        <time>2009-07-25T15:51:52Z</time>
      </trkpt>
      <trkpt lat="45.56018" lon="6.73386">
        <ele>1202.239502</ele>
        <time>2009-07-25T15:51:58Z</time>
      </trkpt>
      <trkpt lat="45.56016" lon="6.73379">
        <ele>1202.3717041</ele>
        <time>2009-07-25T15:52:02Z</time>
      </trkpt>
      <trkpt lat="45.56015" lon="6.73371">
        <ele>1202.1296387</ele>
        <time>2009-07-25T15:52:06Z</time>
      </trkpt>
      <trkpt lat="45.56017" lon="6.73356">
        <ele>1201.324585</ele>
        <time>2009-07-25T15:52:14Z</time>
      </trkpt>
      <trkpt lat="45.56015" lon="6.73341">
        <ele>1201.0705566</ele>
        <time>2009-07-25T15:52:23Z</time>
      </trkpt>
      <trkpt lat="45.56013" lon="6.7333">
        <ele>1200.9488525</ele>
        <time>2009-07-25T15:52:30Z</time>
      </trkpt>
      <trkpt lat="45.5601" lon="6.7332">
        <ele>1200.65979</ele>
        <time>2009-07-25T15:52:36Z</time>
      </trkpt>
      <trkpt lat="45.56008" lon="6.73312">
        <ele>1200.6351318</ele>
        <time>2009-07-25T15:52:41Z</time>
      </trkpt>
      <trkpt lat="45.56004" lon="6.73293">
        <ele>1200.5467529</ele>
        <time>2009-07-25T15:52:52Z</time>
      </trkpt>
      <trkpt lat="45.56004" lon="6.73281">
        <ele>1199.9245605</ele>
        <time>2009-07-25T15:52:58Z</time>
      </trkpt>
      <trkpt lat="45.56002" lon="6.73259">
        <ele>1199.6246338</ele>
        <time>2009-07-25T15:53:07Z</time>
      </trkpt>
      <trkpt lat="45.55999" lon="6.73242">
        <ele>1199.5339355</ele>
        <time>2009-07-25T15:53:14Z</time>
      </trkpt>
      <trkpt lat="45.55996" lon="6.73227">
        <ele>1198.9559326</ele>
        <time>2009-07-25T15:53:21Z</time>
      </trkpt>
      <trkpt lat="45.55994" lon="6.73209">
        <ele>1198.2780762</ele>
        <time>2009-07-25T15:53:28Z</time>
      </trkpt>
      <trkpt lat="45.55989" lon="6.73192">
        <ele>1198.1130371</ele>
        <time>2009-07-25T15:53:34Z</time>
      </trkpt>
      <trkpt lat="45.55985" lon="6.73174">
        <ele>1197.9750977</ele>
        <time>2009-07-25T15:53:41Z</time>
      </trkpt>
      <trkpt lat="45.55981" lon="6.73158">
        <ele>1197.7113037</ele>
        <time>2009-07-25T15:53:47Z</time>
      </trkpt>
      <trkpt lat="45.55978" lon="6.73144">
        <ele>1197.7971191</ele>
        <time>2009-07-25T15:53:52Z</time>
      </trkpt>
      <trkpt lat="45.55973" lon="6.73129">
        <ele>1198.0476074</ele>
        <time>2009-07-25T15:53:58Z</time>
      </trkpt>
      <trkpt lat="45.55968" lon="6.73121">
        <ele>1199.2214355</ele>
        <time>2009-07-25T15:54:03Z</time>
      </trkpt>
      <trkpt lat="45.55963" lon="6.73109">
        <ele>1200.4145508</ele>
        <time>2009-07-25T15:54:10Z</time>
      </trkpt>
      <trkpt lat="45.55961" lon="6.73102">
        <ele>1200.6817627</ele>
        <time>2009-07-25T15:54:14Z</time>
      </trkpt>
      <trkpt lat="45.55959" lon="6.73093">
        <ele>1200.5931396</ele>
        <time>2009-07-25T15:54:19Z</time>
      </trkpt>
      <trkpt lat="45.55957" lon="6.7308">
        <ele>1200.3442383</ele>
        <time>2009-07-25T15:54:25Z</time>
      </trkpt>
      <trkpt lat="45.55957" lon="6.73076">
        <ele>1200.1828613</ele>
        <time>2009-07-25T15:54:27Z</time>
      </trkpt>
      <trkpt lat="45.55956" lon="6.73071">
        <ele>1200.0076904</ele>
        <time>2009-07-25T15:54:30Z</time>
      </trkpt>
      <trkpt lat="45.55954" lon="6.7306">
        <ele>1200.381958</ele>
        <time>2009-07-25T15:54:36Z</time>
      </trkpt>
      <trkpt lat="45.55953" lon="6.73051">
        <ele>1199.8934326</ele>
        <time>2009-07-25T15:54:41Z</time>
      </trkpt>
      <trkpt lat="45.55953" lon="6.73036">
        <ele>1198.293457</ele>
        <time>2009-07-25T15:54:48Z</time>
      </trkpt>
      <trkpt lat="45.55953" lon="6.73018">
        <ele>1197.0531006</ele>
        <time>2009-07-25T15:54:57Z</time>
      </trkpt>
      <trkpt lat="45.55955" lon="6.72994">
        <ele>1194.7039795</ele>
        <time>2009-07-25T15:55:06Z</time>
      </trkpt>
      <trkpt lat="45.55958" lon="6.72979">
        <ele>1191.4481201</ele>
        <time>2009-07-25T15:55:11Z</time>
      </trkpt>
      <trkpt lat="45.5596" lon="6.72974">
        <ele>1190.2211914</ele>
        <time>2009-07-25T15:55:13Z</time>
      </trkpt>
      <trkpt lat="45.5596" lon="6.72954">
        <ele>1187.2249756</ele>
        <time>2009-07-25T15:55:22Z</time>
      </trkpt>
      <trkpt lat="45.55959" lon="6.7294">
        <ele>1186.0457764</ele>
        <time>2009-07-25T15:55:29Z</time>
      </trkpt>
      <trkpt lat="45.55955" lon="6.72926">
        <ele>1185.9805908</ele>
        <time>2009-07-25T15:55:36Z</time>
      </trkpt>
      <trkpt lat="45.5595" lon="6.7291">
        <ele>1186.2845459</ele>
        <time>2009-07-25T15:55:44Z</time>
      </trkpt>
      <trkpt lat="45.55946" lon="6.72898">
        <ele>1186.8018799</ele>
        <time>2009-07-25T15:55:51Z</time>
      </trkpt>
      <trkpt lat="45.55942" lon="6.72883">
        <ele>1188.1643066</ele>
        <time>2009-07-25T15:56:00Z</time>
      </trkpt>
      <trkpt lat="45.55939" lon="6.72869">
        <ele>1189.2089844</ele>
        <time>2009-07-25T15:56:07Z</time>
      </trkpt>
      <trkpt lat="45.55939" lon="6.72857">
        <ele>1188.9973145</ele>
        <time>2009-07-25T15:56:11Z</time>
      </trkpt>
      <trkpt lat="45.55938" lon="6.72841">
        <ele>1188.5063477</ele>
        <time>2009-07-25T15:56:17Z</time>
      </trkpt>
      <trkpt lat="45.55937" lon="6.72819">
        <ele>1187.5249023</ele>
        <time>2009-07-25T15:56:25Z</time>
      </trkpt>
      <trkpt lat="45.55936" lon="6.72803">
        <ele>1187.5910645</ele>
        <time>2009-07-25T15:56:31Z</time>
      </trkpt>
      <trkpt lat="45.55933" lon="6.72788">
        <ele>1187.557373</ele>
        <time>2009-07-25T15:56:37Z</time>
      </trkpt>
      <trkpt lat="45.55931" lon="6.72774">
        <ele>1187.2127686</ele>
        <time>2009-07-25T15:56:44Z</time>
      </trkpt>
      <trkpt lat="45.5593" lon="6.72761">
        <ele>1186.5422363</ele>
        <time>2009-07-25T15:56:51Z</time>
      </trkpt>
      <trkpt lat="45.55927" lon="6.72746">
        <ele>1185.80896</ele>
        <time>2009-07-25T15:57:00Z</time>
      </trkpt>
      <trkpt lat="45.55925" lon="6.72731">
        <ele>1184.2158203</ele>
        <time>2009-07-25T15:57:08Z</time>
      </trkpt>
      <trkpt lat="45.55919" lon="6.72716">
        <ele>1183.2941895</ele>
        <time>2009-07-25T15:57:17Z</time>
      </trkpt>
      <trkpt lat="45.55912" lon="6.72704">
        <ele>1184.6777344</ele>
        <time>2009-07-25T15:57:25Z</time>
      </trkpt>
      <trkpt lat="45.55904" lon="6.72692">
        <ele>1188.4172363</ele>
        <time>2009-07-25T15:57:33Z</time>
      </trkpt>
      <trkpt lat="45.55898" lon="6.72678">
        <ele>1191.1037598</ele>
        <time>2009-07-25T15:57:41Z</time>
      </trkpt>
      <trkpt lat="45.55894" lon="6.72665">
        <ele>1191.9122314</ele>
        <time>2009-07-25T15:57:48Z</time>
      </trkpt>
      <trkpt lat="45.55892" lon="6.72654">
        <ele>1192.0749512</ele>
        <time>2009-07-25T15:57:54Z</time>
      </trkpt>
      <trkpt lat="45.55889" lon="6.72643">
        <ele>1192.4672852</ele>
        <time>2009-07-25T15:57:59Z</time>
      </trkpt>
      <trkpt lat="45.55886" lon="6.72632">
        <ele>1192.4942627</ele>
        <time>2009-07-25T15:58:05Z</time>
      </trkpt>
      <trkpt lat="45.55882" lon="6.72621">
        <ele>1192.8609619</ele>
        <time>2009-07-25T15:58:11Z</time>
      </trkpt>
      <trkpt lat="45.55879" lon="6.72613">
        <ele>1193.2860107</ele>
        <time>2009-07-25T15:58:16Z</time>
      </trkpt>
      <trkpt lat="45.55877" lon="6.72605">
        <ele>1193.2276611</ele>
        <time>2009-07-25T15:58:21Z</time>
      </trkpt>
      <trkpt lat="45.55876" lon="6.72603">
        <ele>1193.2397461</ele>
        <time>2009-07-25T15:58:22Z</time>
      </trkpt>
      <trkpt lat="45.55872" lon="6.72585">
        <ele>1193.4748535</ele>
        <time>2009-07-25T15:58:31Z</time>
      </trkpt>
      <trkpt lat="45.55867" lon="6.72573">
        <ele>1193.1330566</ele>
        <time>2009-07-25T15:58:38Z</time>
      </trkpt>
      <trkpt lat="45.55865" lon="6.7256">
        <ele>1190.9483643</ele>
        <time>2009-07-25T15:58:45Z</time>
      </trkpt>
      <trkpt lat="45.55863" lon="6.72542">
        <ele>1187.3774414</ele>
        <time>2009-07-25T15:58:52Z</time>
      </trkpt>
      <trkpt lat="45.55861" lon="6.72534">
        <ele>1186.3525391</ele>
        <time>2009-07-25T15:58:56Z</time>
      </trkpt>
      <trkpt lat="45.55859" lon="6.72522">
        <ele>1184.9141846</ele>
        <time>2009-07-25T15:59:03Z</time>
      </trkpt>
      <trkpt lat="45.55858" lon="6.72516">
        <ele>1184.1258545</ele>
        <time>2009-07-25T15:59:06Z</time>
      </trkpt>
      <trkpt lat="45.55852" lon="6.72506">
        <ele>1184.9625244</ele>
        <time>2009-07-25T15:59:12Z</time>
      </trkpt>
      <trkpt lat="45.5585" lon="6.72502">
        <ele>1184.9782715</ele>
        <time>2009-07-25T15:59:14Z</time>
      </trkpt>
      <trkpt lat="45.55846" lon="6.72489">
        <ele>1184.5078125</ele>
        <time>2009-07-25T15:59:21Z</time>
      </trkpt>
      <trkpt lat="45.55845" lon="6.72486">
        <ele>1184.270874</ele>
        <time>2009-07-25T15:59:23Z</time>
      </trkpt>
      <trkpt lat="45.55841" lon="6.7247">
        <ele>1182.6774902</ele>
        <time>2009-07-25T15:59:31Z</time>
      </trkpt>
      <trkpt lat="45.55838" lon="6.72458">
        <ele>1181.3118896</ele>
        <time>2009-07-25T15:59:37Z</time>
      </trkpt>
      <trkpt lat="45.55833" lon="6.72438">
        <ele>1179.6413574</ele>
        <time>2009-07-25T15:59:47Z</time>
      </trkpt>
      <trkpt lat="45.5583" lon="6.72427">
        <ele>1179.9700928</ele>
        <time>2009-07-25T15:59:53Z</time>
      </trkpt>
      <trkpt lat="45.55827" lon="6.72416">
        <ele>1179.9311523</ele>
        <time>2009-07-25T15:59:59Z</time>
      </trkpt>
      <trkpt lat="45.55823" lon="6.72403">
        <ele>1179.2642822</ele>
        <time>2009-07-25T16:00:06Z</time>
      </trkpt>
      <trkpt lat="45.5582" lon="6.72394">
        <ele>1179.0106201</ele>
        <time>2009-07-25T16:00:11Z</time>
      </trkpt>
      <trkpt lat="45.55814" lon="6.72383">
        <ele>1179.633667</ele>
        <time>2009-07-25T16:00:17Z</time>
      </trkpt>
      <trkpt lat="45.5581" lon="6.72374">
        <ele>1180.0456543</ele>
        <time>2009-07-25T16:00:22Z</time>
      </trkpt>
      <trkpt lat="45.55809" lon="6.7237">
        <ele>1180.1280518</ele>
        <time>2009-07-25T16:00:24Z</time>
      </trkpt>
      <trkpt lat="45.55806" lon="6.72359">
        <ele>1179.3453369</ele>
        <time>2009-07-25T16:00:31Z</time>
      </trkpt>
      <trkpt lat="45.55805" lon="6.72358">
        <ele>1179.6751709</ele>
        <time>2009-07-25T16:00:32Z</time>
      </trkpt>
      <trkpt lat="45.55799" lon="6.72351">
        <ele>1181.3652344</ele>
        <time>2009-07-25T16:00:39Z</time>
      </trkpt>
      <trkpt lat="45.55796" lon="6.72345">
        <ele>1181.9720459</ele>
        <time>2009-07-25T16:00:44Z</time>
      </trkpt>
      <trkpt lat="45.5579" lon="6.72338">
        <ele>1183.427002</ele>
        <time>2009-07-25T16:00:52Z</time>
      </trkpt>
      <trkpt lat="45.55787" lon="6.72334">
        <ele>1184.0982666</ele>
        <time>2009-07-25T16:00:57Z</time>
      </trkpt>
      <trkpt lat="45.55783" lon="6.72328">
        <ele>1184.5626221</ele>
        <time>2009-07-25T16:01:02Z</time>
      </trkpt>
      <trkpt lat="45.55778" lon="6.72323">
        <ele>1185.5026855</ele>
        <time>2009-07-25T16:01:07Z</time>
      </trkpt>
      <trkpt lat="45.55776" lon="6.72319">
        <ele>1185.0306396</ele>
        <time>2009-07-25T16:01:10Z</time>
      </trkpt>
      <trkpt lat="45.55769" lon="6.72312">
        <ele>1185.6760254</ele>
        <time>2009-07-25T16:01:18Z</time>
      </trkpt>
      <trkpt lat="45.55765" lon="6.72309">
        <ele>1186.3094482</ele>
        <time>2009-07-25T16:01:23Z</time>
      </trkpt>
      <trkpt lat="45.55759" lon="6.72301">
        <ele>1187.0180664</ele>
        <time>2009-07-25T16:01:31Z</time>
      </trkpt>
      <trkpt lat="45.55753" lon="6.72299">
        <ele>1188.8205566</ele>
        <time>2009-07-25T16:01:36Z</time>
      </trkpt>
      <trkpt lat="45.55745" lon="6.72293">
        <ele>1190.454834</ele>
        <time>2009-07-25T16:01:43Z</time>
      </trkpt>
      <trkpt lat="45.5574" lon="6.72288">
        <ele>1191.8804932</ele>
        <time>2009-07-25T16:01:49Z</time>
      </trkpt>
      <trkpt lat="45.55735" lon="6.72282">
        <ele>1192.9383545</ele>
        <time>2009-07-25T16:01:56Z</time>
      </trkpt>
      <trkpt lat="45.55732" lon="6.72277">
        <ele>1193.5911865</ele>
        <time>2009-07-25T16:02:01Z</time>
      </trkpt>
      <trkpt lat="45.55731" lon="6.72272">
        <ele>1193.538208</ele>
        <time>2009-07-25T16:02:06Z</time>
      </trkpt>
      <trkpt lat="45.55727" lon="6.72265">
        <ele>1194.6674805</ele>
        <time>2009-07-25T16:02:12Z</time>
      </trkpt>
      <trkpt lat="45.55727" lon="6.72259">
        <ele>1194.0704346</ele>
        <time>2009-07-25T16:02:16Z</time>
      </trkpt>
      <trkpt lat="45.55724" lon="6.72253">
        <ele>1194.7476807</ele>
        <time>2009-07-25T16:02:22Z</time>
      </trkpt>
      <trkpt lat="45.55718" lon="6.7224">
        <ele>1196.7062988</ele>
        <time>2009-07-25T16:02:31Z</time>
      </trkpt>
      <trkpt lat="45.55714" lon="6.72236">
        <ele>1198.3632813</ele>
        <time>2009-07-25T16:02:34Z</time>
      </trkpt>
      <trkpt lat="45.5571" lon="6.72229">
        <ele>1200.0372314</ele>
        <time>2009-07-25T16:02:40Z</time>
      </trkpt>
      <trkpt lat="45.55704" lon="6.72219">
        <ele>1202.3081055</ele>
        <time>2009-07-25T16:02:48Z</time>
      </trkpt>
      <trkpt lat="45.55697" lon="6.72211">
        <ele>1205.1071777</ele>
        <time>2009-07-25T16:02:55Z</time>
      </trkpt>
      <trkpt lat="45.55696" lon="6.7221">
        <ele>1205.3795166</ele>
        <time>2009-07-25T16:02:56Z</time>
      </trkpt>
      <trkpt lat="45.55695" lon="6.72206">
        <ele>1205.3643799</ele>
        <time>2009-07-25T16:02:58Z</time>
      </trkpt>
      <trkpt lat="45.55696" lon="6.72195">
        <ele>1203.2286377</ele>
        <time>2009-07-25T16:03:03Z</time>
      </trkpt>
      <trkpt lat="45.55691" lon="6.72183">
        <ele>1203.2365723</ele>
        <time>2009-07-25T16:03:11Z</time>
      </trkpt>
      <trkpt lat="45.55686" lon="6.72172">
        <ele>1202.3944092</ele>
        <time>2009-07-25T16:03:19Z</time>
      </trkpt>
      <trkpt lat="45.55684" lon="6.72165">
        <ele>1201.3387451</ele>
        <time>2009-07-25T16:03:23Z</time>
      </trkpt>
      <trkpt lat="45.55682" lon="6.7216">
        <ele>1200.229126</ele>
        <time>2009-07-25T16:03:26Z</time>
      </trkpt>
      <trkpt lat="45.55679" lon="6.72147">
        <ele>1197.1173096</ele>
        <time>2009-07-25T16:03:33Z</time>
      </trkpt>
      <trkpt lat="45.55673" lon="6.72134">
        <ele>1193.442749</ele>
        <time>2009-07-25T16:03:42Z</time>
      </trkpt>
      <trkpt lat="45.55668" lon="6.72126">
        <ele>1191.0140381</ele>
        <time>2009-07-25T16:03:49Z</time>
      </trkpt>
      <trkpt lat="45.55659" lon="6.72131">
        <ele>1194.7005615</ele>
        <time>2009-07-25T16:03:54Z</time>
      </trkpt>
      <trkpt lat="45.55655" lon="6.72132">
        <ele>1195.7406006</ele>
        <time>2009-07-25T16:03:57Z</time>
      </trkpt>
      <trkpt lat="45.55648" lon="6.72136">
        <ele>1198.4580078</ele>
        <time>2009-07-25T16:04:04Z</time>
      </trkpt>
      <trkpt lat="45.5564" lon="6.72141">
        <ele>1201.7188721</ele>
        <time>2009-07-25T16:04:11Z</time>
      </trkpt>
      <trkpt lat="45.55633" lon="6.72138">
        <ele>1204.7806396</ele>
        <time>2009-07-25T16:04:16Z</time>
      </trkpt>
      <trkpt lat="45.55629" lon="6.7214">
        <ele>1208.2698975</ele>
        <time>2009-07-25T16:04:19Z</time>
      </trkpt>
      <trkpt lat="45.55618" lon="6.72143">
        <ele>1215.3083496</ele>
        <time>2009-07-25T16:04:26Z</time>
      </trkpt>
      <trkpt lat="45.55611" lon="6.72142">
        <ele>1219.3095703</ele>
        <time>2009-07-25T16:04:32Z</time>
      </trkpt>
      <trkpt lat="45.55607" lon="6.72138">
        <ele>1223.6934814</ele>
        <time>2009-07-25T16:04:37Z</time>
      </trkpt>
      <trkpt lat="45.55607" lon="6.7213">
        <ele>1224.1680908</ele>
        <time>2009-07-25T16:04:42Z</time>
      </trkpt>
      <trkpt lat="45.55609" lon="6.72122">
        <ele>1222.9547119</ele>
        <time>2009-07-25T16:04:46Z</time>
      </trkpt>
      <trkpt lat="45.55608" lon="6.72107">
        <ele>1224.8515625</ele>
        <time>2009-07-25T16:04:53Z</time>
      </trkpt>
      <trkpt lat="45.55608" lon="6.72097">
        <ele>1225.7202148</ele>
        <time>2009-07-25T16:04:59Z</time>
      </trkpt>
      <trkpt lat="45.55609" lon="6.72083">
        <ele>1225.4714355</ele>
        <time>2009-07-25T16:05:06Z</time>
      </trkpt>
      <trkpt lat="45.55608" lon="6.7207">
        <ele>1227.1885986</ele>
        <time>2009-07-25T16:05:13Z</time>
      </trkpt>
      <trkpt lat="45.55608" lon="6.72055">
        <ele>1228.4433594</ele>
        <time>2009-07-25T16:05:20Z</time>
      </trkpt>
      <trkpt lat="45.55609" lon="6.72052">
        <ele>1228.0407715</ele>
        <time>2009-07-25T16:05:21Z</time>
      </trkpt>
      <trkpt lat="45.55607" lon="6.72045">
        <ele>1228.2855225</ele>
        <time>2009-07-25T16:05:25Z</time>
      </trkpt>
      <trkpt lat="45.55608" lon="6.72036">
        <ele>1227.3985596</ele>
        <time>2009-07-25T16:05:30Z</time>
      </trkpt>
      <trkpt lat="45.55609" lon="6.72028">
        <ele>1226.2225342</ele>
        <time>2009-07-25T16:05:34Z</time>
      </trkpt>
      <trkpt lat="45.55611" lon="6.72023">
        <ele>1224.2550049</ele>
        <time>2009-07-25T16:05:37Z</time>
      </trkpt>
      <trkpt lat="45.5561" lon="6.72016">
        <ele>1223.4914551</ele>
        <time>2009-07-25T16:05:41Z</time>
      </trkpt>
      <trkpt lat="45.55608" lon="6.72001">
        <ele>1221.736084</ele>
        <time>2009-07-25T16:05:48Z</time>
      </trkpt>
      <trkpt lat="45.55605" lon="6.71994">
        <ele>1221.5152588</ele>
        <time>2009-07-25T16:05:52Z</time>
      </trkpt>
      <trkpt lat="45.55606" lon="6.71991">
        <ele>1220.8320313</ele>
        <time>2009-07-25T16:05:54Z</time>
      </trkpt>
      <trkpt lat="45.55604" lon="6.71982">
        <ele>1219.953125</ele>
        <time>2009-07-25T16:05:59Z</time>
      </trkpt>
      <trkpt lat="45.55602" lon="6.71973">
        <ele>1219.0288086</ele>
        <time>2009-07-25T16:06:05Z</time>
      </trkpt>
      <trkpt lat="45.55602" lon="6.7197">
        <ele>1218.5101318</ele>
        <time>2009-07-25T16:06:08Z</time>
      </trkpt>
      <trkpt lat="45.55606" lon="6.7197">
        <ele>1217.2827148</ele>
        <time>2009-07-25T16:06:13Z</time>
      </trkpt>
      <trkpt lat="45.55609" lon="6.71975">
        <ele>1217.0546875</ele>
        <time>2009-07-25T16:06:19Z</time>
      </trkpt>
      <trkpt lat="45.55611" lon="6.71968">
        <ele>1215.0709229</ele>
        <time>2009-07-25T16:06:24Z</time>
      </trkpt>
      <trkpt lat="45.55611" lon="6.71957">
        <ele>1213.1612549</ele>
        <time>2009-07-25T16:06:30Z</time>
      </trkpt>
      <trkpt lat="45.55611" lon="6.71955">
        <ele>1212.7453613</ele>
        <time>2009-07-25T16:06:31Z</time>
      </trkpt>
      <trkpt lat="45.55615" lon="6.71945">
        <ele>1209.3947754</ele>
        <time>2009-07-25T16:06:35Z</time>
      </trkpt>
      <trkpt lat="45.55615" lon="6.71937">
        <ele>1207.5700684</ele>
        <time>2009-07-25T16:06:38Z</time>
      </trkpt>
      <trkpt lat="45.55611" lon="6.71921">
        <ele>1205.8453369</ele>
        <time>2009-07-25T16:06:44Z</time>
      </trkpt>
      <trkpt lat="45.55611" lon="6.71907">
        <ele>1202.1188965</ele>
        <time>2009-07-25T16:06:50Z</time>
      </trkpt>
      <trkpt lat="45.55612" lon="6.71902">
        <ele>1200.5993652</ele>
        <time>2009-07-25T16:06:52Z</time>
      </trkpt>
      <trkpt lat="45.55603" lon="6.71892">
        <ele>1203.7838135</ele>
        <time>2009-07-25T16:06:59Z</time>
      </trkpt>
      <trkpt lat="45.55601" lon="6.71882">
        <ele>1205.416748</ele>
        <time>2009-07-25T16:07:04Z</time>
      </trkpt>
      <trkpt lat="45.55606" lon="6.71871">
        <ele>1203.0539551</ele>
        <time>2009-07-25T16:07:09Z</time>
      </trkpt>
      <trkpt lat="45.55613" lon="6.71861">
        <ele>1200.3948975</ele>
        <time>2009-07-25T16:07:14Z</time>
      </trkpt>
      <trkpt lat="45.55616" lon="6.71852">
        <ele>1201.2711182</ele>
        <time>2009-07-25T16:07:20Z</time>
      </trkpt>
      <trkpt lat="45.55616" lon="6.7185">
        <ele>1201.4228516</ele>
        <time>2009-07-25T16:07:21Z</time>
      </trkpt>
      <trkpt lat="45.55617" lon="6.71843">
        <ele>1203.2095947</ele>
        <time>2009-07-25T16:07:24Z</time>
      </trkpt>
      <trkpt lat="45.5562" lon="6.71826">
        <ele>1204.6885986</ele>
        <time>2009-07-25T16:07:30Z</time>
      </trkpt>
      <trkpt lat="45.55622" lon="6.71821">
        <ele>1203.8323975</ele>
        <time>2009-07-25T16:07:32Z</time>
      </trkpt>
      <trkpt lat="45.55625" lon="6.71811">
        <ele>1202.4093018</ele>
        <time>2009-07-25T16:07:37Z</time>
      </trkpt>
      <trkpt lat="45.55628" lon="6.71797">
        <ele>1201.6865234</ele>
        <time>2009-07-25T16:07:43Z</time>
      </trkpt>
      <trkpt lat="45.55631" lon="6.71783">
        <ele>1201.0653076</ele>
        <time>2009-07-25T16:07:49Z</time>
      </trkpt>
      <trkpt lat="45.5563" lon="6.71778">
        <ele>1201.623291</ele>
        <time>2009-07-25T16:07:51Z</time>
      </trkpt>
      <trkpt lat="45.55631" lon="6.71774">
        <ele>1201.1928711</ele>
        <time>2009-07-25T16:07:53Z</time>
      </trkpt>
      <trkpt lat="45.55632" lon="6.71773">
        <ele>1200.4844971</ele>
        <time>2009-07-25T16:07:56Z</time>
      </trkpt>
      <trkpt lat="45.55631" lon="6.71782">
        <ele>1201.151001</ele>
        <time>2009-07-25T16:07:59Z</time>
      </trkpt>
      <trkpt lat="45.55635" lon="6.7179">
        <ele>1198.4926758</ele>
        <time>2009-07-25T16:08:03Z</time>
      </trkpt>
      <trkpt lat="45.55642" lon="6.71802">
        <ele>1192.3449707</ele>
        <time>2009-07-25T16:08:09Z</time>
      </trkpt>
      <trkpt lat="45.55643" lon="6.718">
        <ele>1191.8848877</ele>
        <time>2009-07-25T16:08:11Z</time>
      </trkpt>
      <trkpt lat="45.55642" lon="6.71796">
        <ele>1193.1689453</ele>
        <time>2009-07-25T16:08:13Z</time>
      </trkpt>
      <trkpt lat="45.5564" lon="6.71784">
        <ele>1196.5472412</ele>
        <time>2009-07-25T16:08:19Z</time>
      </trkpt>
      <trkpt lat="45.55641" lon="6.71779">
        <ele>1196.5609131</ele>
        <time>2009-07-25T16:08:22Z</time>
      </trkpt>
      <trkpt lat="45.5564" lon="6.71767">
        <ele>1196.6303711</ele>
        <time>2009-07-25T16:08:28Z</time>
      </trkpt>
      <trkpt lat="45.55639" lon="6.71755">
        <ele>1196.9387207</ele>
        <time>2009-07-25T16:08:34Z</time>
      </trkpt>
      <trkpt lat="45.55642" lon="6.71739">
        <ele>1192.7947998</ele>
        <time>2009-07-25T16:08:40Z</time>
      </trkpt>
      <trkpt lat="45.55642" lon="6.71726">
        <ele>1189.1876221</ele>
        <time>2009-07-25T16:08:44Z</time>
      </trkpt>
      <trkpt lat="45.55643" lon="6.71717">
        <ele>1187.8023682</ele>
        <time>2009-07-25T16:08:47Z</time>
      </trkpt>
      <trkpt lat="45.55644" lon="6.71701">
        <ele>1185.8601074</ele>
        <time>2009-07-25T16:08:54Z</time>
      </trkpt>
      <trkpt lat="45.55645" lon="6.7169">
        <ele>1184.7427979</ele>
        <time>2009-07-25T16:09:00Z</time>
      </trkpt>
      <trkpt lat="45.55651" lon="6.71679">
        <ele>1182.4306641</ele>
        <time>2009-07-25T16:09:07Z</time>
      </trkpt>
      <trkpt lat="45.55653" lon="6.71676">
        <ele>1181.7486572</ele>
        <time>2009-07-25T16:09:09Z</time>
      </trkpt>
      <trkpt lat="45.55658" lon="6.71667">
        <ele>1180.038208</ele>
        <time>2009-07-25T16:09:13Z</time>
      </trkpt>
      <trkpt lat="45.55662" lon="6.71662">
        <ele>1177.7785645</ele>
        <time>2009-07-25T16:09:16Z</time>
      </trkpt>
      <trkpt lat="45.55666" lon="6.71659">
        <ele>1175.9246826</ele>
        <time>2009-07-25T16:09:19Z</time>
      </trkpt>
      <trkpt lat="45.55672" lon="6.71655">
        <ele>1172.9086914</ele>
        <time>2009-07-25T16:09:25Z</time>
      </trkpt>
      <trkpt lat="45.55673" lon="6.71655">
        <ele>1172.2485352</ele>
        <time>2009-07-25T16:09:27Z</time>
      </trkpt>
      <trkpt lat="45.55682" lon="6.71657">
        <ele>1168.1724854</ele>
        <time>2009-07-25T16:09:36Z</time>
      </trkpt>
      <trkpt lat="45.55695" lon="6.71651">
        <ele>1162.7922363</ele>
        <time>2009-07-25T16:09:43Z</time>
      </trkpt>
      <trkpt lat="45.55705" lon="6.71643">
        <ele>1160.1346436</ele>
        <time>2009-07-25T16:09:49Z</time>
      </trkpt>
      <trkpt lat="45.55706" lon="6.71628">
        <ele>1160.9356689</ele>
        <time>2009-07-25T16:09:55Z</time>
      </trkpt>
      <trkpt lat="45.55706" lon="6.71623">
        <ele>1161.3775635</ele>
        <time>2009-07-25T16:09:57Z</time>
      </trkpt>
      <trkpt lat="45.557" lon="6.71613">
        <ele>1163.4405518</ele>
        <time>2009-07-25T16:10:03Z</time>
      </trkpt>
      <trkpt lat="45.55699" lon="6.71612">
        <ele>1163.8878174</ele>
        <time>2009-07-25T16:10:04Z</time>
      </trkpt>
      <trkpt lat="45.55696" lon="6.71611">
        <ele>1164.626709</ele>
        <time>2009-07-25T16:10:06Z</time>
      </trkpt>
      <trkpt lat="45.55696" lon="6.71599">
        <ele>1165.3637695</ele>
        <time>2009-07-25T16:10:12Z</time>
      </trkpt>
      <trkpt lat="45.55697" lon="6.71593">
        <ele>1165.7177734</ele>
        <time>2009-07-25T16:10:16Z</time>
      </trkpt>
      <trkpt lat="45.55701" lon="6.71583">
        <ele>1165.6867676</ele>
        <time>2009-07-25T16:10:23Z</time>
      </trkpt>
      <trkpt lat="45.55702" lon="6.71583">
        <ele>1165.3200684</ele>
        <time>2009-07-25T16:10:25Z</time>
      </trkpt>
      <trkpt lat="45.55706" lon="6.7158">
        <ele>1164.9906006</ele>
        <time>2009-07-25T16:10:29Z</time>
      </trkpt>
      <trkpt lat="45.55708" lon="6.71573">
        <ele>1165.4428711</ele>
        <time>2009-07-25T16:10:33Z</time>
      </trkpt>
      <trkpt lat="45.55709" lon="6.71564">
        <ele>1166.1225586</ele>
        <time>2009-07-25T16:10:38Z</time>
      </trkpt>
      <trkpt lat="45.55714" lon="6.71553">
        <ele>1166.3621826</ele>
        <time>2009-07-25T16:10:45Z</time>
      </trkpt>
      <trkpt lat="45.55715" lon="6.71552">
        <ele>1166.3353271</ele>
        <time>2009-07-25T16:10:46Z</time>
      </trkpt>
      <trkpt lat="45.55722" lon="6.71542">
        <ele>1165.9959717</ele>
        <time>2009-07-25T16:10:52Z</time>
      </trkpt>
      <trkpt lat="45.55726" lon="6.71535">
        <ele>1165.5892334</ele>
        <time>2009-07-25T16:10:55Z</time>
      </trkpt>
      <trkpt lat="45.5573" lon="6.71529">
        <ele>1165.3236084</ele>
        <time>2009-07-25T16:10:58Z</time>
      </trkpt>
      <trkpt lat="45.55738" lon="6.7151">
        <ele>1162.0625</ele>
        <time>2009-07-25T16:11:05Z</time>
      </trkpt>
      <trkpt lat="45.55738" lon="6.71508">
        <ele>1161.7236328</ele>
        <time>2009-07-25T16:11:06Z</time>
      </trkpt>
      <trkpt lat="45.55743" lon="6.71494">
        <ele>1159.1452637</ele>
        <time>2009-07-25T16:11:12Z</time>
      </trkpt>
      <trkpt lat="45.55742" lon="6.71487">
        <ele>1158.4449463</ele>
        <time>2009-07-25T16:11:15Z</time>
      </trkpt>
      <trkpt lat="45.55742" lon="6.7148">
        <ele>1157.6278076</ele>
        <time>2009-07-25T16:11:18Z</time>
      </trkpt>
      <trkpt lat="45.5574" lon="6.71468">
        <ele>1156.1569824</ele>
        <time>2009-07-25T16:11:23Z</time>
      </trkpt>
      <trkpt lat="45.5574" lon="6.71463">
        <ele>1155.5012207</ele>
        <time>2009-07-25T16:11:25Z</time>
      </trkpt>
      <trkpt lat="45.55737" lon="6.71455">
        <ele>1155.0881348</ele>
        <time>2009-07-25T16:11:29Z</time>
      </trkpt>
      <trkpt lat="45.55732" lon="6.71448">
        <ele>1155.1229248</ele>
        <time>2009-07-25T16:11:33Z</time>
      </trkpt>
      <trkpt lat="45.55736" lon="6.71444">
        <ele>1153.4356689</ele>
        <time>2009-07-25T16:11:37Z</time>
      </trkpt>
      <trkpt lat="45.55743" lon="6.71451">
        <ele>1152.7115479</ele>
        <time>2009-07-25T16:11:42Z</time>
      </trkpt>
      <trkpt lat="45.5575" lon="6.71463">
        <ele>1152.6689453</ele>
        <time>2009-07-25T16:11:48Z</time>
      </trkpt>
      <trkpt lat="45.55751" lon="6.71467">
        <ele>1152.9085693</ele>
        <time>2009-07-25T16:11:50Z</time>
      </trkpt>
      <trkpt lat="45.55757" lon="6.71479">
        <ele>1151.0837402</ele>
        <time>2009-07-25T16:11:56Z</time>
      </trkpt>
      <trkpt lat="45.55762" lon="6.71493">
        <ele>1149.6254883</ele>
        <time>2009-07-25T16:12:02Z</time>
      </trkpt>
      <trkpt lat="45.55767" lon="6.71515">
        <ele>1144.8946533</ele>
        <time>2009-07-25T16:12:10Z</time>
      </trkpt>
      <trkpt lat="45.55767" lon="6.71524">
        <ele>1143.1741943</ele>
        <time>2009-07-25T16:12:14Z</time>
      </trkpt>
      <trkpt lat="45.55763" lon="6.71538">
        <ele>1144.8966064</ele>
        <time>2009-07-25T16:12:20Z</time>
      </trkpt>
      <trkpt lat="45.55764" lon="6.71545">
        <ele>1142.6868896</ele>
        <time>2009-07-25T16:12:23Z</time>
      </trkpt>
      <trkpt lat="45.55766" lon="6.71553">
        <ele>1140.0319824</ele>
        <time>2009-07-25T16:12:26Z</time>
      </trkpt>
      <trkpt lat="45.55769" lon="6.71549">
        <ele>1138.2900391</ele>
        <time>2009-07-25T16:12:31Z</time>
      </trkpt>
      <trkpt lat="45.55769" lon="6.71547">
        <ele>1137.8924561</ele>
        <time>2009-07-25T16:12:32Z</time>
      </trkpt>
      <trkpt lat="45.55772" lon="6.7153">
        <ele>1138.4595947</ele>
        <time>2009-07-25T16:12:39Z</time>
      </trkpt>
      <trkpt lat="45.55775" lon="6.71517">
        <ele>1137.5267334</ele>
        <time>2009-07-25T16:12:44Z</time>
      </trkpt>
      <trkpt lat="45.55781" lon="6.71505">
        <ele>1137.0010986</ele>
        <time>2009-07-25T16:12:50Z</time>
      </trkpt>
      <trkpt lat="45.55781" lon="6.71502">
        <ele>1137.3133545</ele>
        <time>2009-07-25T16:12:51Z</time>
      </trkpt>
      <trkpt lat="45.55782" lon="6.71493">
        <ele>1137.0970459</ele>
        <time>2009-07-25T16:12:55Z</time>
      </trkpt>
      <trkpt lat="45.55781" lon="6.71483">
        <ele>1138.1137695</ele>
        <time>2009-07-25T16:12:59Z</time>
      </trkpt>
      <trkpt lat="45.55779" lon="6.71466">
        <ele>1138.1484375</ele>
        <time>2009-07-25T16:13:05Z</time>
      </trkpt>
      <trkpt lat="45.55779" lon="6.71454">
        <ele>1136.2047119</ele>
        <time>2009-07-25T16:13:09Z</time>
      </trkpt>
      <trkpt lat="45.5578" lon="6.71443">
        <ele>1133.4404297</ele>
        <time>2009-07-25T16:13:14Z</time>
      </trkpt>
      <trkpt lat="45.55775" lon="6.71426">
        <ele>1132.6600342</ele>
        <time>2009-07-25T16:13:20Z</time>
      </trkpt>
      <trkpt lat="45.55772" lon="6.71416">
        <ele>1131.7585449</ele>
        <time>2009-07-25T16:13:24Z</time>
      </trkpt>
      <trkpt lat="45.55769" lon="6.71413">
        <ele>1131.3774414</ele>
        <time>2009-07-25T16:13:26Z</time>
      </trkpt>
      <trkpt lat="45.55764" lon="6.71398">
        <ele>1127.9393311</ele>
        <time>2009-07-25T16:13:32Z</time>
      </trkpt>
      <trkpt lat="45.55762" lon="6.71395">
        <ele>1127.6008301</ele>
        <time>2009-07-25T16:13:33Z</time>
      </trkpt>
      <trkpt lat="45.55755" lon="6.71377">
        <ele>1125.5457764</ele>
        <time>2009-07-25T16:13:40Z</time>
      </trkpt>
      <trkpt lat="45.55748" lon="6.71369">
        <ele>1126.7404785</ele>
        <time>2009-07-25T16:13:45Z</time>
      </trkpt>
      <trkpt lat="45.55742" lon="6.71361">
        <ele>1127.1313477</ele>
        <time>2009-07-25T16:13:49Z</time>
      </trkpt>
      <trkpt lat="45.55735" lon="6.7135">
        <ele>1126.6866455</ele>
        <time>2009-07-25T16:13:54Z</time>
      </trkpt>
      <trkpt lat="45.55735" lon="6.71347">
        <ele>1126.2719727</ele>
        <time>2009-07-25T16:13:55Z</time>
      </trkpt>
      <trkpt lat="45.55727" lon="6.71334">
        <ele>1126.5837402</ele>
        <time>2009-07-25T16:14:01Z</time>
      </trkpt>
      <trkpt lat="45.55723" lon="6.71328">
        <ele>1126.8858643</ele>
        <time>2009-07-25T16:14:05Z</time>
      </trkpt>
      <trkpt lat="45.55722" lon="6.71319">
        <ele>1124.3604736</ele>
        <time>2009-07-25T16:14:09Z</time>
      </trkpt>
      <trkpt lat="45.55727" lon="6.7132">
        <ele>1122.2685547</ele>
        <time>2009-07-25T16:14:13Z</time>
      </trkpt>
      <trkpt lat="45.55737" lon="6.71327">
        <ele>1119.2454834</ele>
        <time>2009-07-25T16:14:20Z</time>
      </trkpt>
      <trkpt lat="45.5574" lon="6.71329">
        <ele>1118.3453369</ele>
        <time>2009-07-25T16:14:22Z</time>
      </trkpt>
      <trkpt lat="45.55744" lon="6.71334">
        <ele>1118.2955322</ele>
        <time>2009-07-25T16:14:27Z</time>
      </trkpt>
      <trkpt lat="45.55755" lon="6.71337">
        <ele>1113.3640137</ele>
        <time>2009-07-25T16:14:33Z</time>
      </trkpt>
      <trkpt lat="45.55763" lon="6.71342">
        <ele>1110.4552002</ele>
        <time>2009-07-25T16:14:38Z</time>
      </trkpt>
      <trkpt lat="45.55767" lon="6.7135">
        <ele>1111.3304443</ele>
        <time>2009-07-25T16:14:42Z</time>
      </trkpt>
      <trkpt lat="45.55771" lon="6.71362">
        <ele>1113.5996094</ele>
        <time>2009-07-25T16:14:48Z</time>
      </trkpt>
      <trkpt lat="45.55785" lon="6.7137">
        <ele>1108.0456543</ele>
        <time>2009-07-25T16:14:57Z</time>
      </trkpt>
      <trkpt lat="45.55793" lon="6.71374">
        <ele>1104.2553711</ele>
        <time>2009-07-25T16:15:03Z</time>
      </trkpt>
      <trkpt lat="45.55795" lon="6.71378">
        <ele>1104.3652344</ele>
        <time>2009-07-25T16:15:07Z</time>
      </trkpt>
      <trkpt lat="45.55802" lon="6.71385">
        <ele>1102.2366943</ele>
        <time>2009-07-25T16:15:12Z</time>
      </trkpt>
      <trkpt lat="45.55808" lon="6.71397">
        <ele>1103.7874756</ele>
        <time>2009-07-25T16:15:18Z</time>
      </trkpt>
      <trkpt lat="45.55814" lon="6.71412">
        <ele>1107.3079834</ele>
        <time>2009-07-25T16:15:25Z</time>
      </trkpt>
      <trkpt lat="45.55819" lon="6.71421">
        <ele>1107.6043701</ele>
        <time>2009-07-25T16:15:30Z</time>
      </trkpt>
      <trkpt lat="45.55828" lon="6.7143">
        <ele>1103.9396973</ele>
        <time>2009-07-25T16:15:37Z</time>
      </trkpt>
      <trkpt lat="45.55832" lon="6.71436">
        <ele>1102.5911865</ele>
        <time>2009-07-25T16:15:42Z</time>
      </trkpt>
      <trkpt lat="45.55837" lon="6.71443">
        <ele>1099.9908447</ele>
        <time>2009-07-25T16:15:48Z</time>
      </trkpt>
      <trkpt lat="45.55843" lon="6.71451">
        <ele>1097.3337402</ele>
        <time>2009-07-25T16:15:55Z</time>
      </trkpt>
      <trkpt lat="45.55845" lon="6.7146">
        <ele>1096.7957764</ele>
        <time>2009-07-25T16:15:59Z</time>
      </trkpt>
      <trkpt lat="45.55847" lon="6.71467">
        <ele>1096.385498</ele>
        <time>2009-07-25T16:16:03Z</time>
      </trkpt>
      <trkpt lat="45.55848" lon="6.71476">
        <ele>1096.7714844</ele>
        <time>2009-07-25T16:16:07Z</time>
      </trkpt>
      <trkpt lat="45.55848" lon="6.71485">
        <ele>1096.6072998</ele>
        <time>2009-07-25T16:16:12Z</time>
      </trkpt>
      <trkpt lat="45.55848" lon="6.71493">
        <ele>1096.4764404</ele>
        <time>2009-07-25T16:16:16Z</time>
      </trkpt>
      <trkpt lat="45.55849" lon="6.71498">
        <ele>1095.4805908</ele>
        <time>2009-07-25T16:16:19Z</time>
      </trkpt>
      <trkpt lat="45.5585" lon="6.71507">
        <ele>1094.338623</ele>
        <time>2009-07-25T16:16:23Z</time>
      </trkpt>
      <trkpt lat="45.55851" lon="6.71517">
        <ele>1092.1877441</ele>
        <time>2009-07-25T16:16:28Z</time>
      </trkpt>
      <trkpt lat="45.55854" lon="6.71525">
        <ele>1089.3572998</ele>
        <time>2009-07-25T16:16:32Z</time>
      </trkpt>
      <trkpt lat="45.55853" lon="6.71531">
        <ele>1089.5561523</ele>
        <time>2009-07-25T16:16:36Z</time>
      </trkpt>
      <trkpt lat="45.5585" lon="6.71541">
        <ele>1089.5841064</ele>
        <time>2009-07-25T16:16:42Z</time>
      </trkpt>
      <trkpt lat="45.55849" lon="6.71555">
        <ele>1088.7709961</ele>
        <time>2009-07-25T16:16:48Z</time>
      </trkpt>
      <trkpt lat="45.55852" lon="6.71573">
        <ele>1082.9776611</ele>
        <time>2009-07-25T16:16:55Z</time>
      </trkpt>
      <trkpt lat="45.55857" lon="6.71588">
        <ele>1075.328125</ele>
        <time>2009-07-25T16:17:01Z</time>
      </trkpt>
      <trkpt lat="45.55859" lon="6.71597">
        <ele>1070.3444824</ele>
        <time>2009-07-25T16:17:06Z</time>
      </trkpt>
      <trkpt lat="45.55862" lon="6.71596">
        <ele>1069.1209717</ele>
        <time>2009-07-25T16:17:09Z</time>
      </trkpt>
      <trkpt lat="45.5586" lon="6.71587">
        <ele>1073.4396973</ele>
        <time>2009-07-25T16:17:15Z</time>
      </trkpt>
      <trkpt lat="45.55861" lon="6.71583">
        <ele>1074.2237549</ele>
        <time>2009-07-25T16:17:18Z</time>
      </trkpt>
      <trkpt lat="45.5586" lon="6.71573">
        <ele>1077.2236328</ele>
        <time>2009-07-25T16:17:24Z</time>
      </trkpt>
      <trkpt lat="45.55862" lon="6.71561">
        <ele>1078.1417236</ele>
        <time>2009-07-25T16:17:29Z</time>
      </trkpt>
      <trkpt lat="45.55863" lon="6.71557">
        <ele>1078.7280273</ele>
        <time>2009-07-25T16:17:31Z</time>
      </trkpt>
      <trkpt lat="45.55866" lon="6.71549">
        <ele>1078.3564453</ele>
        <time>2009-07-25T16:17:36Z</time>
      </trkpt>
      <trkpt lat="45.5587" lon="6.71538">
        <ele>1078.1956787</ele>
        <time>2009-07-25T16:17:42Z</time>
      </trkpt>
      <trkpt lat="45.5587" lon="6.71536">
        <ele>1078.0604248</ele>
        <time>2009-07-25T16:17:43Z</time>
      </trkpt>
      <trkpt lat="45.5587" lon="6.71531">
        <ele>1078.9589844</ele>
        <time>2009-07-25T16:17:45Z</time>
      </trkpt>
      <trkpt lat="45.55871" lon="6.71521">
        <ele>1079.9555664</ele>
        <time>2009-07-25T16:17:51Z</time>
      </trkpt>
      <trkpt lat="45.55872" lon="6.71511">
        <ele>1080.6400146</ele>
        <time>2009-07-25T16:17:57Z</time>
      </trkpt>
      <trkpt lat="45.55872" lon="6.7151">
        <ele>1080.6159668</ele>
        <time>2009-07-25T16:17:58Z</time>
      </trkpt>
      <trkpt lat="45.55873" lon="6.71502">
        <ele>1080.8907471</ele>
        <time>2009-07-25T16:18:02Z</time>
      </trkpt>
      <trkpt lat="45.55875" lon="6.71493">
        <ele>1080.1369629</ele>
        <time>2009-07-25T16:18:07Z</time>
      </trkpt>
      <trkpt lat="45.55876" lon="6.71483">
        <ele>1079.1181641</ele>
        <time>2009-07-25T16:18:12Z</time>
      </trkpt>
      <trkpt lat="45.55878" lon="6.71472">
        <ele>1077.4705811</ele>
        <time>2009-07-25T16:18:18Z</time>
      </trkpt>
      <trkpt lat="45.55878" lon="6.71462">
        <ele>1075.4902344</ele>
        <time>2009-07-25T16:18:24Z</time>
      </trkpt>
      <trkpt lat="45.55879" lon="6.71455">
        <ele>1073.4206543</ele>
        <time>2009-07-25T16:18:28Z</time>
      </trkpt>
      <trkpt lat="45.55881" lon="6.71446">
        <ele>1070.807251</ele>
        <time>2009-07-25T16:18:33Z</time>
      </trkpt>
      <trkpt lat="45.55879" lon="6.71432">
        <ele>1069.4986572</ele>
        <time>2009-07-25T16:18:40Z</time>
      </trkpt>
      <trkpt lat="45.55879" lon="6.71429">
        <ele>1069.3358154</ele>
        <time>2009-07-25T16:18:41Z</time>
      </trkpt>
      <trkpt lat="45.55877" lon="6.71423">
        <ele>1069.8518066</ele>
        <time>2009-07-25T16:18:45Z</time>
      </trkpt>
      <trkpt lat="45.55872" lon="6.71413">
        <ele>1070.7406006</ele>
        <time>2009-07-25T16:18:50Z</time>
      </trkpt>
      <trkpt lat="45.55866" lon="6.71399">
        <ele>1070.2246094</ele>
        <time>2009-07-25T16:18:58Z</time>
      </trkpt>
      <trkpt lat="45.55864" lon="6.7139">
        <ele>1068.4326172</ele>
        <time>2009-07-25T16:19:02Z</time>
      </trkpt>
      <trkpt lat="45.55862" lon="6.71377">
        <ele>1064.7359619</ele>
        <time>2009-07-25T16:19:08Z</time>
      </trkpt>
      <trkpt lat="45.55861" lon="6.71374">
        <ele>1064.4335938</ele>
        <time>2009-07-25T16:19:10Z</time>
      </trkpt>
      <trkpt lat="45.55859" lon="6.71362">
        <ele>1062.0889893</ele>
        <time>2009-07-25T16:19:17Z</time>
      </trkpt>
      <trkpt lat="45.55858" lon="6.71355">
        <ele>1060.0699463</ele>
        <time>2009-07-25T16:19:20Z</time>
      </trkpt>
      <trkpt lat="45.55857" lon="6.71348">
        <ele>1058.1446533</ele>
        <time>2009-07-25T16:19:24Z</time>
      </trkpt>
      <trkpt lat="45.55854" lon="6.71342">
        <ele>1058.036377</ele>
        <time>2009-07-25T16:19:28Z</time>
      </trkpt>
      <trkpt lat="45.55853" lon="6.71332">
        <ele>1056.1429443</ele>
        <time>2009-07-25T16:19:35Z</time>
      </trkpt>
      <trkpt lat="45.55852" lon="6.71325">
        <ele>1055.362915</ele>
        <time>2009-07-25T16:19:39Z</time>
      </trkpt>
      <trkpt lat="45.55849" lon="6.71318">
        <ele>1055.8125</ele>
        <time>2009-07-25T16:19:45Z</time>
      </trkpt>
      <trkpt lat="45.55848" lon="6.71307">
        <ele>1053.7330322</ele>
        <time>2009-07-25T16:19:50Z</time>
      </trkpt>
      <trkpt lat="45.55851" lon="6.71292">
        <ele>1048.3674316</ele>
        <time>2009-07-25T16:19:56Z</time>
      </trkpt>
      <trkpt lat="45.55852" lon="6.71283">
        <ele>1045.2471924</ele>
        <time>2009-07-25T16:20:01Z</time>
      </trkpt>
      <trkpt lat="45.55853" lon="6.71278">
        <ele>1043.8065186</ele>
        <time>2009-07-25T16:20:05Z</time>
      </trkpt>
      <trkpt lat="45.55852" lon="6.71273">
        <ele>1043.1364746</ele>
        <time>2009-07-25T16:20:09Z</time>
      </trkpt>
      <trkpt lat="45.55853" lon="6.71265">
        <ele>1041.3155518</ele>
        <time>2009-07-25T16:20:14Z</time>
      </trkpt>
      <trkpt lat="45.55852" lon="6.71255">
        <ele>1040.2637939</ele>
        <time>2009-07-25T16:20:19Z</time>
      </trkpt>
      <trkpt lat="45.5585" lon="6.71248">
        <ele>1039.5303955</ele>
        <time>2009-07-25T16:20:23Z</time>
      </trkpt>
      <trkpt lat="45.55847" lon="6.71238">
        <ele>1039.0812988</ele>
        <time>2009-07-25T16:20:29Z</time>
      </trkpt>
      <trkpt lat="45.55848" lon="6.71236">
        <ele>1038.5646973</ele>
        <time>2009-07-25T16:20:30Z</time>
      </trkpt>
      <trkpt lat="45.55848" lon="6.7123">
        <ele>1037.3929443</ele>
        <time>2009-07-25T16:20:33Z</time>
      </trkpt>
      <trkpt lat="45.55847" lon="6.71221">
        <ele>1036.3168945</ele>
        <time>2009-07-25T16:20:38Z</time>
      </trkpt>
      <trkpt lat="45.55845" lon="6.71216">
        <ele>1036.2119141</ele>
        <time>2009-07-25T16:20:43Z</time>
      </trkpt>
      <trkpt lat="45.55843" lon="6.71213">
        <ele>1036.1490479</ele>
        <time>2009-07-25T16:20:46Z</time>
      </trkpt>
      <trkpt lat="45.55849" lon="6.71213">
        <ele>1033.8863525</ele>
        <time>2009-07-25T16:20:51Z</time>
      </trkpt>
      <trkpt lat="45.55853" lon="6.7122">
        <ele>1034.2694092</ele>
        <time>2009-07-25T16:20:56Z</time>
      </trkpt>
      <trkpt lat="45.55855" lon="6.71225">
        <ele>1034.4647217</ele>
        <time>2009-07-25T16:20:59Z</time>
      </trkpt>
      <trkpt lat="45.55857" lon="6.71231">
        <ele>1034.7393799</ele>
        <time>2009-07-25T16:21:03Z</time>
      </trkpt>
      <trkpt lat="45.55862" lon="6.71238">
        <ele>1034.1118164</ele>
        <time>2009-07-25T16:21:08Z</time>
      </trkpt>
      <trkpt lat="45.55864" lon="6.71244">
        <ele>1033.9438477</ele>
        <time>2009-07-25T16:21:12Z</time>
      </trkpt>
      <trkpt lat="45.55867" lon="6.71253">
        <ele>1034.1750488</ele>
        <time>2009-07-25T16:21:18Z</time>
      </trkpt>
      <trkpt lat="45.55874" lon="6.71263">
        <ele>1033.1245117</ele>
        <time>2009-07-25T16:21:24Z</time>
      </trkpt>
      <trkpt lat="45.55876" lon="6.7127">
        <ele>1033.6120605</ele>
        <time>2009-07-25T16:21:28Z</time>
      </trkpt>
      <trkpt lat="45.55881" lon="6.71279">
        <ele>1033.0592041</ele>
        <time>2009-07-25T16:21:33Z</time>
      </trkpt>
      <trkpt lat="45.55884" lon="6.71286">
        <ele>1032.9344482</ele>
        <time>2009-07-25T16:21:36Z</time>
      </trkpt>
      <trkpt lat="45.55887" lon="6.71293">
        <ele>1032.8765869</ele>
        <time>2009-07-25T16:21:41Z</time>
      </trkpt>
      <trkpt lat="45.55889" lon="6.71303">
        <ele>1033.5361328</ele>
        <time>2009-07-25T16:21:46Z</time>
      </trkpt>
      <trkpt lat="45.55894" lon="6.7131">
        <ele>1031.9306641</ele>
        <time>2009-07-25T16:21:52Z</time>
      </trkpt>
      <trkpt lat="45.55904" lon="6.71319">
        <ele>1028.5187988</ele>
        <time>2009-07-25T16:21:58Z</time>
      </trkpt>
      <trkpt lat="45.5591" lon="6.71327">
        <ele>1026.944458</ele>
        <time>2009-07-25T16:22:03Z</time>
      </trkpt>
      <trkpt lat="45.55918" lon="6.71335">
        <ele>1024.6914063</ele>
        <time>2009-07-25T16:22:09Z</time>
      </trkpt>
      <trkpt lat="45.55925" lon="6.71341">
        <ele>1021.6273193</ele>
        <time>2009-07-25T16:22:14Z</time>
      </trkpt>
      <trkpt lat="45.55929" lon="6.71347">
        <ele>1020.8376465</ele>
        <time>2009-07-25T16:22:18Z</time>
      </trkpt>
      <trkpt lat="45.55931" lon="6.71353">
        <ele>1021.0350952</ele>
        <time>2009-07-25T16:22:22Z</time>
      </trkpt>
      <trkpt lat="45.55933" lon="6.7136">
        <ele>1021.2067261</ele>
        <time>2009-07-25T16:22:26Z</time>
      </trkpt>
      <trkpt lat="45.55933" lon="6.71364">
        <ele>1021.6530762</ele>
        <time>2009-07-25T16:22:28Z</time>
      </trkpt>
      <trkpt lat="45.55935" lon="6.71372">
        <ele>1021.9534912</ele>
        <time>2009-07-25T16:22:33Z</time>
      </trkpt>
      <trkpt lat="45.55938" lon="6.71381">
        <ele>1022.3397217</ele>
        <time>2009-07-25T16:22:38Z</time>
      </trkpt>
      <trkpt lat="45.55939" lon="6.71395">
        <ele>1023.045166</ele>
        <time>2009-07-25T16:22:46Z</time>
      </trkpt>
      <trkpt lat="45.5594" lon="6.714">
        <ele>1022.9320068</ele>
        <time>2009-07-25T16:22:49Z</time>
      </trkpt>
      <trkpt lat="45.55943" lon="6.71411">
        <ele>1021.7808838</ele>
        <time>2009-07-25T16:22:55Z</time>
      </trkpt>
      <trkpt lat="45.55944" lon="6.71412">
        <ele>1021.3494873</ele>
        <time>2009-07-25T16:22:56Z</time>
      </trkpt>
      <trkpt lat="45.55946" lon="6.71417">
        <ele>1019.8973389</ele>
        <time>2009-07-25T16:22:58Z</time>
      </trkpt>
      <trkpt lat="45.5595" lon="6.71429">
        <ele>1017.5123901</ele>
        <time>2009-07-25T16:23:03Z</time>
      </trkpt>
      <trkpt lat="45.5595" lon="6.71436">
        <ele>1018.1307983</ele>
        <time>2009-07-25T16:23:05Z</time>
      </trkpt>
      <trkpt lat="45.55949" lon="6.71443">
        <ele>1019.1552734</ele>
        <time>2009-07-25T16:23:08Z</time>
      </trkpt>
      <trkpt lat="45.55949" lon="6.71455">
        <ele>1019.5142212</ele>
        <time>2009-07-25T16:23:13Z</time>
      </trkpt>
      <trkpt lat="45.55949" lon="6.71459">
        <ele>1019.6547241</ele>
        <time>2009-07-25T16:23:16Z</time>
      </trkpt>
      <trkpt lat="45.55951" lon="6.71465">
        <ele>1017.8760986</ele>
        <time>2009-07-25T16:23:22Z</time>
      </trkpt>
      <trkpt lat="45.55954" lon="6.71466">
        <ele>1015.9484253</ele>
        <time>2009-07-25T16:23:23Z</time>
      </trkpt>
      <trkpt lat="45.55957" lon="6.71474">
        <ele>1013.383728</ele>
        <time>2009-07-25T16:23:27Z</time>
      </trkpt>
      <trkpt lat="45.55957" lon="6.71485">
        <ele>1014.3240356</ele>
        <time>2009-07-25T16:23:32Z</time>
      </trkpt>
      <trkpt lat="45.55962" lon="6.71493">
        <ele>1012.1062622</ele>
        <time>2009-07-25T16:23:39Z</time>
      </trkpt>
      <trkpt lat="45.55964" lon="6.71498">
        <ele>1010.7441406</ele>
        <time>2009-07-25T16:23:44Z</time>
      </trkpt>
      <trkpt lat="45.55968" lon="6.715">
        <ele>1008.0687866</ele>
        <time>2009-07-25T16:23:47Z</time>
      </trkpt>
      <trkpt lat="45.55981" lon="6.71507">
        <ele>999.6066895</ele>
        <time>2009-07-25T16:23:54Z</time>
      </trkpt>
      <trkpt lat="45.55986" lon="6.71513">
        <ele>997.3150024</ele>
        <time>2009-07-25T16:23:59Z</time>
      </trkpt>
      <trkpt lat="45.5599" lon="6.71521">
        <ele>995.8644409</ele>
        <time>2009-07-25T16:24:05Z</time>
      </trkpt>
      <trkpt lat="45.55994" lon="6.71528">
        <ele>994.2680054</ele>
        <time>2009-07-25T16:24:11Z</time>
      </trkpt>
      <trkpt lat="45.56003" lon="6.71535">
        <ele>990.7107544</ele>
        <time>2009-07-25T16:24:19Z</time>
      </trkpt>
      <trkpt lat="45.56006" lon="6.71537">
        <ele>989.5477905</ele>
        <time>2009-07-25T16:24:22Z</time>
      </trkpt>
      <trkpt lat="45.56013" lon="6.71544">
        <ele>987.8623657</ele>
        <time>2009-07-25T16:24:28Z</time>
      </trkpt>
      <trkpt lat="45.56018" lon="6.71548">
        <ele>986.5317993</ele>
        <time>2009-07-25T16:24:32Z</time>
      </trkpt>
      <trkpt lat="45.56017" lon="6.7156">
        <ele>988.8623657</ele>
        <time>2009-07-25T16:24:37Z</time>
      </trkpt>
      <trkpt lat="45.56016" lon="6.71562">
        <ele>989.6276855</ele>
        <time>2009-07-25T16:24:38Z</time>
      </trkpt>
      <trkpt lat="45.56015" lon="6.71576">
        <ele>991.1835938</ele>
        <time>2009-07-25T16:24:44Z</time>
      </trkpt>
      <trkpt lat="45.56012" lon="6.71588">
        <ele>991.2279663</ele>
        <time>2009-07-25T16:24:50Z</time>
      </trkpt>
      <trkpt lat="45.56012" lon="6.71592">
        <ele>989.9921265</ele>
        <time>2009-07-25T16:24:53Z</time>
      </trkpt>
      <trkpt lat="45.56011" lon="6.71598">
        <ele>988.2889404</ele>
        <time>2009-07-25T16:24:56Z</time>
      </trkpt>
      <trkpt lat="45.56007" lon="6.71613">
        <ele>984.2567749</ele>
        <time>2009-07-25T16:25:03Z</time>
      </trkpt>
      <trkpt lat="45.56005" lon="6.71621">
        <ele>981.8569946</ele>
        <time>2009-07-25T16:25:08Z</time>
      </trkpt>
      <trkpt lat="45.55998" lon="6.71628">
        <ele>982.0806274</ele>
        <time>2009-07-25T16:25:13Z</time>
      </trkpt>
      <trkpt lat="45.5599" lon="6.71635">
        <ele>982.9164429</ele>
        <time>2009-07-25T16:25:19Z</time>
      </trkpt>
      <trkpt lat="45.55982" lon="6.71642">
        <ele>982.6828613</ele>
        <time>2009-07-25T16:25:24Z</time>
      </trkpt>
      <trkpt lat="45.55975" lon="6.71649">
        <ele>981.8771362</ele>
        <time>2009-07-25T16:25:30Z</time>
      </trkpt>
      <trkpt lat="45.55965" lon="6.71658">
        <ele>982.6951904</ele>
        <time>2009-07-25T16:25:36Z</time>
      </trkpt>
      <trkpt lat="45.55956" lon="6.71668">
        <ele>982.1845703</ele>
        <time>2009-07-25T16:25:42Z</time>
      </trkpt>
      <trkpt lat="45.55954" lon="6.71671">
        <ele>981.3684082</ele>
        <time>2009-07-25T16:25:46Z</time>
      </trkpt>
      <trkpt lat="45.55951" lon="6.71677">
        <ele>979.7247314</ele>
        <time>2009-07-25T16:25:50Z</time>
      </trkpt>
      <trkpt lat="45.55951" lon="6.71681">
        <ele>977.4436035</ele>
        <time>2009-07-25T16:25:54Z</time>
      </trkpt>
      <trkpt lat="45.55947" lon="6.71685">
        <ele>976.9276123</ele>
        <time>2009-07-25T16:25:59Z</time>
      </trkpt>
      <trkpt lat="45.55945" lon="6.71686">
        <ele>976.8679199</ele>
        <time>2009-07-25T16:26:03Z</time>
      </trkpt>
      <trkpt lat="45.55942" lon="6.71693">
        <ele>975.0827637</ele>
        <time>2009-07-25T16:26:08Z</time>
      </trkpt>
      <trkpt lat="45.55942" lon="6.71695">
        <ele>974.2085571</ele>
        <time>2009-07-25T16:26:11Z</time>
      </trkpt>
      <trkpt lat="45.55944" lon="6.71695">
        <ele>972.0366211</ele>
        <time>2009-07-25T16:26:13Z</time>
      </trkpt>
      <trkpt lat="45.55949" lon="6.71697">
        <ele>970.1755981</ele>
        <time>2009-07-25T16:26:19Z</time>
      </trkpt>
      <trkpt lat="45.55957" lon="6.71702">
        <ele>967.133728</ele>
        <time>2009-07-25T16:26:25Z</time>
      </trkpt>
      <trkpt lat="45.55962" lon="6.71704">
        <ele>965.8276978</ele>
        <time>2009-07-25T16:26:28Z</time>
      </trkpt>
      <trkpt lat="45.55968" lon="6.7171">
        <ele>964.1847534</ele>
        <time>2009-07-25T16:26:33Z</time>
      </trkpt>
      <trkpt lat="45.55971" lon="6.71713">
        <ele>963.824585</ele>
        <time>2009-07-25T16:26:35Z</time>
      </trkpt>
      <trkpt lat="45.55982" lon="6.71725">
        <ele>961.9370117</ele>
        <time>2009-07-25T16:26:43Z</time>
      </trkpt>
      <trkpt lat="45.55986" lon="6.71732">
        <ele>961.6452026</ele>
        <time>2009-07-25T16:26:47Z</time>
      </trkpt>
      <trkpt lat="45.55993" lon="6.71746">
        <ele>961.7911377</ele>
        <time>2009-07-25T16:26:54Z</time>
      </trkpt>
      <trkpt lat="45.55999" lon="6.71758">
        <ele>961.6712646</ele>
        <time>2009-07-25T16:27:00Z</time>
      </trkpt>
      <trkpt lat="45.56001" lon="6.71762">
        <ele>961.0266724</ele>
        <time>2009-07-25T16:27:02Z</time>
      </trkpt>
      <trkpt lat="45.56005" lon="6.7177">
        <ele>959.9249878</ele>
        <time>2009-07-25T16:27:06Z</time>
      </trkpt>
      <trkpt lat="45.56016" lon="6.71782">
        <ele>956.6004639</ele>
        <time>2009-07-25T16:27:14Z</time>
      </trkpt>
      <trkpt lat="45.5602" lon="6.71787">
        <ele>956.4017334</ele>
        <time>2009-07-25T16:27:17Z</time>
      </trkpt>
      <trkpt lat="45.56028" lon="6.71796">
        <ele>955.5821533</ele>
        <time>2009-07-25T16:27:23Z</time>
      </trkpt>
      <trkpt lat="45.56029" lon="6.71797">
        <ele>955.362915</ele>
        <time>2009-07-25T16:27:24Z</time>
      </trkpt>
      <trkpt lat="45.56038" lon="6.71797">
        <ele>950.7592773</ele>
        <time>2009-07-25T16:27:28Z</time>
      </trkpt>
      <trkpt lat="45.56054" lon="6.71795">
        <ele>941.7216797</ele>
        <time>2009-07-25T16:27:35Z</time>
      </trkpt>
      <trkpt lat="45.56066" lon="6.71795">
        <ele>938.7953491</ele>
        <time>2009-07-25T16:27:40Z</time>
      </trkpt>
      <trkpt lat="45.56078" lon="6.71799">
        <ele>937.3259277</ele>
        <time>2009-07-25T16:27:46Z</time>
      </trkpt>
      <trkpt lat="45.56086" lon="6.71804">
        <ele>937.1503906</ele>
        <time>2009-07-25T16:27:51Z</time>
      </trkpt>
      <trkpt lat="45.56093" lon="6.71813">
        <ele>938.6867065</ele>
        <time>2009-07-25T16:27:57Z</time>
      </trkpt>
      <trkpt lat="45.56097" lon="6.71817">
        <ele>939.2840576</ele>
        <time>2009-07-25T16:28:00Z</time>
      </trkpt>
      <trkpt lat="45.56102" lon="6.7181">
        <ele>935.5761719</ele>
        <time>2009-07-25T16:28:06Z</time>
      </trkpt>
      <trkpt lat="45.56099" lon="6.71804">
        <ele>934.2210083</ele>
        <time>2009-07-25T16:28:10Z</time>
      </trkpt>
      <trkpt lat="45.56092" lon="6.71799">
        <ele>934.0914307</ele>
        <time>2009-07-25T16:28:14Z</time>
      </trkpt>
      <trkpt lat="45.56084" lon="6.71796">
        <ele>934.8244629</ele>
        <time>2009-07-25T16:28:18Z</time>
      </trkpt>
      <trkpt lat="45.56077" lon="6.71791">
        <ele>935.0599976</ele>
        <time>2009-07-25T16:28:23Z</time>
      </trkpt>
      <trkpt lat="45.56072" lon="6.71785">
        <ele>934.5793457</ele>
        <time>2009-07-25T16:28:27Z</time>
      </trkpt>
      <trkpt lat="45.56069" lon="6.71779">
        <ele>933.46698</ele>
        <time>2009-07-25T16:28:30Z</time>
      </trkpt>
      <trkpt lat="45.56064" lon="6.7177">
        <ele>932.0145264</ele>
        <time>2009-07-25T16:28:34Z</time>
      </trkpt>
      <trkpt lat="45.56061" lon="6.71755">
        <ele>928.6352539</ele>
        <time>2009-07-25T16:28:40Z</time>
      </trkpt>
      <trkpt lat="45.56062" lon="6.71744">
        <ele>926.4155884</ele>
        <time>2009-07-25T16:28:44Z</time>
      </trkpt>
      <trkpt lat="45.5606" lon="6.71736">
        <ele>926.9503784</ele>
        <time>2009-07-25T16:28:48Z</time>
      </trkpt>
      <trkpt lat="45.56053" lon="6.71729">
        <ele>929.7334595</ele>
        <time>2009-07-25T16:28:52Z</time>
      </trkpt>
      <trkpt lat="45.56049" lon="6.71716">
        <ele>930.821106</ele>
        <time>2009-07-25T16:28:58Z</time>
      </trkpt>
      <trkpt lat="45.56048" lon="6.71704">
        <ele>930.71875</ele>
        <time>2009-07-25T16:29:03Z</time>
      </trkpt>
      <trkpt lat="45.56046" lon="6.71694">
        <ele>931.5883179</ele>
        <time>2009-07-25T16:29:07Z</time>
      </trkpt>
      <trkpt lat="45.56051" lon="6.71682">
        <ele>934.8484497</ele>
        <time>2009-07-25T16:29:13Z</time>
      </trkpt>
      <trkpt lat="45.56059" lon="6.71681">
        <ele>931.9535522</ele>
        <time>2009-07-25T16:29:17Z</time>
      </trkpt>
      <trkpt lat="45.56067" lon="6.71678">
        <ele>928.9459229</ele>
        <time>2009-07-25T16:29:22Z</time>
      </trkpt>
      <trkpt lat="45.56072" lon="6.71672">
        <ele>928.8447266</ele>
        <time>2009-07-25T16:29:26Z</time>
      </trkpt>
      <trkpt lat="45.56079" lon="6.71662">
        <ele>928.9796753</ele>
        <time>2009-07-25T16:29:32Z</time>
      </trkpt>
      <trkpt lat="45.56088" lon="6.7165">
        <ele>928.9168701</ele>
        <time>2009-07-25T16:29:38Z</time>
      </trkpt>
      <trkpt lat="45.56094" lon="6.71638">
        <ele>930.1834717</ele>
        <time>2009-07-25T16:29:43Z</time>
      </trkpt>
      <trkpt lat="45.56094" lon="6.71629">
        <ele>932.1149292</ele>
        <time>2009-07-25T16:29:46Z</time>
      </trkpt>
      <trkpt lat="45.56094" lon="6.7162">
        <ele>935.0161743</ele>
        <time>2009-07-25T16:29:51Z</time>
      </trkpt>
      <trkpt lat="45.56097" lon="6.71613">
        <ele>935.0189819</ele>
        <time>2009-07-25T16:29:57Z</time>
      </trkpt>
      <trkpt lat="45.561" lon="6.71607">
        <ele>933.7949829</ele>
        <time>2009-07-25T16:30:01Z</time>
      </trkpt>
      <trkpt lat="45.56108" lon="6.71595">
        <ele>932.0852051</ele>
        <time>2009-07-25T16:30:09Z</time>
      </trkpt>
      <trkpt lat="45.56109" lon="6.71594">
        <ele>931.6638184</ele>
        <time>2009-07-25T16:30:10Z</time>
      </trkpt>
      <trkpt lat="45.56112" lon="6.71588">
        <ele>930.897644</ele>
        <time>2009-07-25T16:30:14Z</time>
      </trkpt>
      <trkpt lat="45.56116" lon="6.71582">
        <ele>929.885437</ele>
        <time>2009-07-25T16:30:18Z</time>
      </trkpt>
      <trkpt lat="45.56116" lon="6.7158">
        <ele>929.7226563</ele>
        <time>2009-07-25T16:30:19Z</time>
      </trkpt>
      <trkpt lat="45.56124" lon="6.7157">
        <ele>926.1213989</ele>
        <time>2009-07-25T16:30:25Z</time>
      </trkpt>
      <trkpt lat="45.56131" lon="6.71561">
        <ele>921.6247559</ele>
        <time>2009-07-25T16:30:31Z</time>
      </trkpt>
      <trkpt lat="45.56135" lon="6.71557">
        <ele>919.0159302</ele>
        <time>2009-07-25T16:30:34Z</time>
      </trkpt>
      <trkpt lat="45.56137" lon="6.71552">
        <ele>917.8881836</ele>
        <time>2009-07-25T16:30:37Z</time>
      </trkpt>
      <trkpt lat="45.56138" lon="6.71548">
        <ele>916.5698242</ele>
        <time>2009-07-25T16:30:40Z</time>
      </trkpt>
      <trkpt lat="45.56136" lon="6.71536">
        <ele>918.5473633</ele>
        <time>2009-07-25T16:30:46Z</time>
      </trkpt>
      <trkpt lat="45.56135" lon="6.71529">
        <ele>919.5361328</ele>
        <time>2009-07-25T16:30:49Z</time>
      </trkpt>
      <trkpt lat="45.56133" lon="6.71523">
        <ele>920.9644165</ele>
        <time>2009-07-25T16:30:52Z</time>
      </trkpt>
      <trkpt lat="45.5613" lon="6.7151">
        <ele>922.9577026</ele>
        <time>2009-07-25T16:30:59Z</time>
      </trkpt>
      <trkpt lat="45.56129" lon="6.71502">
        <ele>923.2296143</ele>
        <time>2009-07-25T16:31:04Z</time>
      </trkpt>
      <trkpt lat="45.56129" lon="6.71496">
        <ele>922.8079224</ele>
        <time>2009-07-25T16:31:08Z</time>
      </trkpt>
      <trkpt lat="45.56129" lon="6.71487">
        <ele>923.3955078</ele>
        <time>2009-07-25T16:31:13Z</time>
      </trkpt>
      <trkpt lat="45.56127" lon="6.71476">
        <ele>924.4768677</ele>
        <time>2009-07-25T16:31:20Z</time>
      </trkpt>
      <trkpt lat="45.56125" lon="6.71464">
        <ele>925.3757324</ele>
        <time>2009-07-25T16:31:27Z</time>
      </trkpt>
      <trkpt lat="45.56125" lon="6.71453">
        <ele>924.7718506</ele>
        <time>2009-07-25T16:31:35Z</time>
      </trkpt>
      <trkpt lat="45.56125" lon="6.71438">
        <ele>924.239624</ele>
        <time>2009-07-25T16:31:44Z</time>
      </trkpt>
      <trkpt lat="45.56126" lon="6.71424">
        <ele>923.8241577</ele>
        <time>2009-07-25T16:31:53Z</time>
      </trkpt>
      <trkpt lat="45.56127" lon="6.71412">
        <ele>923.1143188</ele>
        <time>2009-07-25T16:32:01Z</time>
      </trkpt>
      <trkpt lat="45.56128" lon="6.71409">
        <ele>922.8444824</ele>
        <time>2009-07-25T16:32:03Z</time>
      </trkpt>
      <trkpt lat="45.56129" lon="6.71402">
        <ele>922.6786499</ele>
        <time>2009-07-25T16:32:08Z</time>
      </trkpt>
      <trkpt lat="45.56129" lon="6.71397">
        <ele>922.7891235</ele>
        <time>2009-07-25T16:32:12Z</time>
      </trkpt>
      <trkpt lat="45.56128" lon="6.71384">
        <ele>922.8795166</ele>
        <time>2009-07-25T16:32:19Z</time>
      </trkpt>
      <trkpt lat="45.56125" lon="6.71377">
        <ele>922.8242798</ele>
        <time>2009-07-25T16:32:23Z</time>
      </trkpt>
      <trkpt lat="45.56122" lon="6.71362">
        <ele>922.3448486</ele>
        <time>2009-07-25T16:32:31Z</time>
      </trkpt>
      <trkpt lat="45.56116" lon="6.71349">
        <ele>922.3739014</ele>
        <time>2009-07-25T16:32:39Z</time>
      </trkpt>
      <trkpt lat="45.56113" lon="6.71335">
        <ele>921.868103</ele>
        <time>2009-07-25T16:32:46Z</time>
      </trkpt>
      <trkpt lat="45.56112" lon="6.71331">
        <ele>921.6650391</ele>
        <time>2009-07-25T16:32:48Z</time>
      </trkpt>
      <trkpt lat="45.56111" lon="6.71315">
        <ele>920.7960205</ele>
        <time>2009-07-25T16:32:56Z</time>
      </trkpt>
      <trkpt lat="45.56111" lon="6.71304">
        <ele>920.0475464</ele>
        <time>2009-07-25T16:33:01Z</time>
      </trkpt>
      <trkpt lat="45.5611" lon="6.71302">
        <ele>920.0784302</ele>
        <time>2009-07-25T16:33:02Z</time>
      </trkpt>
      <trkpt lat="45.56106" lon="6.71287">
        <ele>920.7650757</ele>
        <time>2009-07-25T16:33:10Z</time>
      </trkpt>
      <trkpt lat="45.56102" lon="6.71271">
        <ele>921.3914795</ele>
        <time>2009-07-25T16:33:18Z</time>
      </trkpt>
      <trkpt lat="45.56099" lon="6.71257">
        <ele>921.6038208</ele>
        <time>2009-07-25T16:33:26Z</time>
      </trkpt>
      <trkpt lat="45.56094" lon="6.71245">
        <ele>921.7246704</ele>
        <time>2009-07-25T16:33:33Z</time>
      </trkpt>
      <trkpt lat="45.56088" lon="6.71235">
        <ele>921.87146</ele>
        <time>2009-07-25T16:33:40Z</time>
      </trkpt>
      <trkpt lat="45.56086" lon="6.71228">
        <ele>920.8272705</ele>
        <time>2009-07-25T16:33:44Z</time>
      </trkpt>
      <trkpt lat="45.56089" lon="6.71218">
        <ele>918.4683838</ele>
        <time>2009-07-25T16:33:49Z</time>
      </trkpt>
      <trkpt lat="45.5609" lon="6.71213">
        <ele>917.9786987</ele>
        <time>2009-07-25T16:33:51Z</time>
      </trkpt>
      <trkpt lat="45.56092" lon="6.71205">
        <ele>917.0717773</ele>
        <time>2009-07-25T16:33:55Z</time>
      </trkpt>
      <trkpt lat="45.56091" lon="6.71186">
        <ele>916.3259277</ele>
        <time>2009-07-25T16:34:03Z</time>
      </trkpt>
      <trkpt lat="45.5609" lon="6.71178">
        <ele>916.2997437</ele>
        <time>2009-07-25T16:34:07Z</time>
      </trkpt>
      <trkpt lat="45.56088" lon="6.71169">
        <ele>916.491333</ele>
        <time>2009-07-25T16:34:12Z</time>
      </trkpt>
      <trkpt lat="45.56088" lon="6.71165">
        <ele>916.6148071</ele>
        <time>2009-07-25T16:34:14Z</time>
      </trkpt>
      <trkpt lat="45.56086" lon="6.71153">
        <ele>918.1185303</ele>
        <time>2009-07-25T16:34:21Z</time>
      </trkpt>
      <trkpt lat="45.56089" lon="6.71143">
        <ele>918.005249</ele>
        <time>2009-07-25T16:34:27Z</time>
      </trkpt>
      <trkpt lat="45.5609" lon="6.71137">
        <ele>917.6172485</ele>
        <time>2009-07-25T16:34:30Z</time>
      </trkpt>
      <trkpt lat="45.56085" lon="6.71124">
        <ele>919.2613525</ele>
        <time>2009-07-25T16:34:36Z</time>
      </trkpt>
      <trkpt lat="45.56078" lon="6.71115">
        <ele>920.9090576</ele>
        <time>2009-07-25T16:34:41Z</time>
      </trkpt>
      <trkpt lat="45.56076" lon="6.71113">
        <ele>921.1690063</ele>
        <time>2009-07-25T16:34:42Z</time>
      </trkpt>
      <trkpt lat="45.56068" lon="6.71107">
        <ele>919.9929199</ele>
        <time>2009-07-25T16:34:46Z</time>
      </trkpt>
      <trkpt lat="45.5606" lon="6.711">
        <ele>917.3023071</ele>
        <time>2009-07-25T16:34:52Z</time>
      </trkpt>
      <trkpt lat="45.56055" lon="6.71097">
        <ele>916.774231</ele>
        <time>2009-07-25T16:34:54Z</time>
      </trkpt>
      <trkpt lat="45.56046" lon="6.71087">
        <ele>914.9234009</ele>
        <time>2009-07-25T16:35:00Z</time>
      </trkpt>
      <trkpt lat="45.5604" lon="6.71074">
        <ele>911.9841309</ele>
        <time>2009-07-25T16:35:07Z</time>
      </trkpt>
      <trkpt lat="45.56035" lon="6.71068">
        <ele>911.1721191</ele>
        <time>2009-07-25T16:35:11Z</time>
      </trkpt>
      <trkpt lat="45.56031" lon="6.71067">
        <ele>911.7307739</ele>
        <time>2009-07-25T16:35:14Z</time>
      </trkpt>
      <trkpt lat="45.56025" lon="6.7106">
        <ele>910.9317627</ele>
        <time>2009-07-25T16:35:19Z</time>
      </trkpt>
      <trkpt lat="45.56015" lon="6.71055">
        <ele>913.2404175</ele>
        <time>2009-07-25T16:35:24Z</time>
      </trkpt>
      <trkpt lat="45.5601" lon="6.71053">
        <ele>915.1650391</ele>
        <time>2009-07-25T16:35:30Z</time>
      </trkpt>
      <trkpt lat="45.56005" lon="6.7105">
        <ele>915.8607788</ele>
        <time>2009-07-25T16:35:34Z</time>
      </trkpt>
      <trkpt lat="45.55999" lon="6.71043">
        <ele>916.5213623</ele>
        <time>2009-07-25T16:35:38Z</time>
      </trkpt>
      <trkpt lat="45.55995" lon="6.71034">
        <ele>916.2120361</ele>
        <time>2009-07-25T16:35:42Z</time>
      </trkpt>
      <trkpt lat="45.55997" lon="6.71005">
        <ele>912.7333374</ele>
        <time>2009-07-25T16:35:50Z</time>
      </trkpt>
      <trkpt lat="45.56001" lon="6.71003">
        <ele>910.9939575</ele>
        <time>2009-07-25T16:35:55Z</time>
      </trkpt>
      <trkpt lat="45.56006" lon="6.71005">
        <ele>910.7449341</ele>
        <time>2009-07-25T16:35:59Z</time>
      </trkpt>
      <trkpt lat="45.56007" lon="6.71005">
        <ele>910.7333374</ele>
        <time>2009-07-25T16:36:01Z</time>
      </trkpt>
      <trkpt lat="45.56018" lon="6.71004">
        <ele>910.5932007</ele>
        <time>2009-07-25T16:36:07Z</time>
      </trkpt>
      <trkpt lat="45.56025" lon="6.71004">
        <ele>910.6193237</ele>
        <time>2009-07-25T16:36:10Z</time>
      </trkpt>
      <trkpt lat="45.56033" lon="6.70999">
        <ele>910.7467041</ele>
        <time>2009-07-25T16:36:15Z</time>
      </trkpt>
      <trkpt lat="45.56038" lon="6.70998">
        <ele>909.967041</ele>
        <time>2009-07-25T16:36:18Z</time>
      </trkpt>
      <trkpt lat="45.56044" lon="6.70996">
        <ele>908.9776001</ele>
        <time>2009-07-25T16:36:21Z</time>
      </trkpt>
      <trkpt lat="45.56046" lon="6.70994">
        <ele>909.4606934</ele>
        <time>2009-07-25T16:36:23Z</time>
      </trkpt>
      <trkpt lat="45.56054" lon="6.70988">
        <ele>909.3800659</ele>
        <time>2009-07-25T16:36:29Z</time>
      </trkpt>
      <trkpt lat="45.56057" lon="6.70985">
        <ele>908.9593506</ele>
        <time>2009-07-25T16:36:32Z</time>
      </trkpt>
      <trkpt lat="45.56067" lon="6.70977">
        <ele>907.7228394</ele>
        <time>2009-07-25T16:36:38Z</time>
      </trkpt>
      <trkpt lat="45.56068" lon="6.70976">
        <ele>907.6358643</ele>
        <time>2009-07-25T16:36:39Z</time>
      </trkpt>
      <trkpt lat="45.56079" lon="6.70974">
        <ele>903.1173706</ele>
        <time>2009-07-25T16:36:44Z</time>
      </trkpt>
      <trkpt lat="45.56093" lon="6.70969">
        <ele>899.5048828</ele>
        <time>2009-07-25T16:36:51Z</time>
      </trkpt>
      <trkpt lat="45.56107" lon="6.70966">
        <ele>895.3712769</ele>
        <time>2009-07-25T16:36:57Z</time>
      </trkpt>
      <trkpt lat="45.56107" lon="6.7096">
        <ele>897.0054932</ele>
        <time>2009-07-25T16:37:01Z</time>
      </trkpt>
      <trkpt lat="45.561" lon="6.70946">
        <ele>903.7758179</ele>
        <time>2009-07-25T16:37:07Z</time>
      </trkpt>
      <trkpt lat="45.56092" lon="6.70934">
        <ele>905.5230713</ele>
        <time>2009-07-25T16:37:13Z</time>
      </trkpt>
      <trkpt lat="45.56087" lon="6.70921">
        <ele>907.5002441</ele>
        <time>2009-07-25T16:37:19Z</time>
      </trkpt>
      <trkpt lat="45.5608" lon="6.70911">
        <ele>909.1039429</ele>
        <time>2009-07-25T16:37:24Z</time>
      </trkpt>
      <trkpt lat="45.56079" lon="6.70905">
        <ele>907.6968384</ele>
        <time>2009-07-25T16:37:26Z</time>
      </trkpt>
      <trkpt lat="45.56076" lon="6.70902">
        <ele>908.5015869</ele>
        <time>2009-07-25T16:37:28Z</time>
      </trkpt>
      <trkpt lat="45.5607" lon="6.70896">
        <ele>910.4587402</ele>
        <time>2009-07-25T16:37:32Z</time>
      </trkpt>
      <trkpt lat="45.56064" lon="6.70888">
        <ele>912.7261963</ele>
        <time>2009-07-25T16:37:37Z</time>
      </trkpt>
      <trkpt lat="45.56062" lon="6.70887">
        <ele>913.6126709</ele>
        <time>2009-07-25T16:37:38Z</time>
      </trkpt>
      <trkpt lat="45.5606" lon="6.70883">
        <ele>914.1889648</ele>
        <time>2009-07-25T16:37:40Z</time>
      </trkpt>
      <trkpt lat="45.5606" lon="6.70866">
        <ele>907.2457275</ele>
        <time>2009-07-25T16:37:46Z</time>
      </trkpt>
      <trkpt lat="45.56065" lon="6.70862">
        <ele>902.6168823</ele>
        <time>2009-07-25T16:37:49Z</time>
      </trkpt>
      <trkpt lat="45.56077" lon="6.7086">
        <ele>894.0169678</ele>
        <time>2009-07-25T16:37:54Z</time>
      </trkpt>
      <trkpt lat="45.56084" lon="6.70861">
        <ele>889.1847534</ele>
        <time>2009-07-25T16:37:57Z</time>
      </trkpt>
      <trkpt lat="45.56096" lon="6.70858">
        <ele>889.6786499</ele>
        <time>2009-07-25T16:38:03Z</time>
      </trkpt>
      <trkpt lat="45.561" lon="6.70855">
        <ele>890.4643555</ele>
        <time>2009-07-25T16:38:06Z</time>
      </trkpt>
      <trkpt lat="45.56114" lon="6.70847">
        <ele>893.0838013</ele>
        <time>2009-07-25T16:38:15Z</time>
      </trkpt>
      <trkpt lat="45.56117" lon="6.70844">
        <ele>894.2365112</ele>
        <time>2009-07-25T16:38:17Z</time>
      </trkpt>
      <trkpt lat="45.56119" lon="6.70823">
        <ele>900.7358398</ele>
        <time>2009-07-25T16:38:25Z</time>
      </trkpt>
      <trkpt lat="45.56121" lon="6.70807">
        <ele>903.1766968</ele>
        <time>2009-07-25T16:38:31Z</time>
      </trkpt>
      <trkpt lat="45.56123" lon="6.70794">
        <ele>902.0065918</ele>
        <time>2009-07-25T16:38:36Z</time>
      </trkpt>
      <trkpt lat="45.5613" lon="6.70772">
        <ele>896.2581177</ele>
        <time>2009-07-25T16:38:46Z</time>
      </trkpt>
      <trkpt lat="45.56133" lon="6.70759">
        <ele>894.6398315</ele>
        <time>2009-07-25T16:38:51Z</time>
      </trkpt>
      <trkpt lat="45.56134" lon="6.70748">
        <ele>893.6251221</ele>
        <time>2009-07-25T16:38:57Z</time>
      </trkpt>
      <trkpt lat="45.56133" lon="6.70742">
        <ele>895.819397</ele>
        <time>2009-07-25T16:39:01Z</time>
      </trkpt>
      <trkpt lat="45.56131" lon="6.70738">
        <ele>897.4588623</ele>
        <time>2009-07-25T16:39:04Z</time>
      </trkpt>
      <trkpt lat="45.56129" lon="6.70728">
        <ele>899.425293</ele>
        <time>2009-07-25T16:39:10Z</time>
      </trkpt>
      <trkpt lat="45.56131" lon="6.7072">
        <ele>899.572937</ele>
        <time>2009-07-25T16:39:15Z</time>
      </trkpt>
      <trkpt lat="45.56127" lon="6.70712">
        <ele>901.8535767</ele>
        <time>2009-07-25T16:39:20Z</time>
      </trkpt>
      <trkpt lat="45.56127" lon="6.70701">
        <ele>902.4223022</ele>
        <time>2009-07-25T16:39:25Z</time>
      </trkpt>
      <trkpt lat="45.56131" lon="6.70683">
        <ele>901.9119263</ele>
        <time>2009-07-25T16:39:34Z</time>
      </trkpt>
      <trkpt lat="45.56134" lon="6.70673">
        <ele>901.0463867</ele>
        <time>2009-07-25T16:39:40Z</time>
      </trkpt>
      <trkpt lat="45.56136" lon="6.70663">
        <ele>899.9525146</ele>
        <time>2009-07-25T16:39:45Z</time>
      </trkpt>
      <trkpt lat="45.56135" lon="6.70648">
        <ele>900.894104</ele>
        <time>2009-07-25T16:39:52Z</time>
      </trkpt>
      <trkpt lat="45.56137" lon="6.70639">
        <ele>899.4281616</ele>
        <time>2009-07-25T16:39:58Z</time>
      </trkpt>
      <trkpt lat="45.5614" lon="6.7062">
        <ele>896.9724731</ele>
        <time>2009-07-25T16:40:09Z</time>
      </trkpt>
      <trkpt lat="45.56139" lon="6.7061">
        <ele>896.9398804</ele>
        <time>2009-07-25T16:40:14Z</time>
      </trkpt>
      <trkpt lat="45.5614" lon="6.70607">
        <ele>896.5570679</ele>
        <time>2009-07-25T16:40:16Z</time>
      </trkpt>
      <trkpt lat="45.56137" lon="6.70593">
        <ele>897.7252808</ele>
        <time>2009-07-25T16:40:25Z</time>
      </trkpt>
      <trkpt lat="45.56135" lon="6.70581">
        <ele>897.9788818</ele>
        <time>2009-07-25T16:40:33Z</time>
      </trkpt>
      <trkpt lat="45.56132" lon="6.70569">
        <ele>898.6054077</ele>
        <time>2009-07-25T16:40:40Z</time>
      </trkpt>
      <trkpt lat="45.56127" lon="6.70561">
        <ele>900.708252</ele>
        <time>2009-07-25T16:40:45Z</time>
      </trkpt>
      <trkpt lat="45.56123" lon="6.70549">
        <ele>902.027771</ele>
        <time>2009-07-25T16:40:51Z</time>
      </trkpt>
      <trkpt lat="45.56123" lon="6.70548">
        <ele>902.0861206</ele>
        <time>2009-07-25T16:40:52Z</time>
      </trkpt>
      <trkpt lat="45.56118" lon="6.70534">
        <ele>902.8213501</ele>
        <time>2009-07-25T16:41:00Z</time>
      </trkpt>
      <trkpt lat="45.56116" lon="6.70526">
        <ele>903.3399048</ele>
        <time>2009-07-25T16:41:04Z</time>
      </trkpt>
      <trkpt lat="45.56111" lon="6.70523">
        <ele>905.6324463</ele>
        <time>2009-07-25T16:41:08Z</time>
      </trkpt>
      <trkpt lat="45.56105" lon="6.70518">
        <ele>908.3133545</ele>
        <time>2009-07-25T16:41:14Z</time>
      </trkpt>
      <trkpt lat="45.561" lon="6.70514">
        <ele>911.0223389</ele>
        <time>2009-07-25T16:41:20Z</time>
      </trkpt>
      <trkpt lat="45.56098" lon="6.70507">
        <ele>911.8203125</ele>
        <time>2009-07-25T16:41:24Z</time>
      </trkpt>
      <trkpt lat="45.56096" lon="6.70503">
        <ele>912.3247681</ele>
        <time>2009-07-25T16:41:27Z</time>
      </trkpt>
      <trkpt lat="45.56092" lon="6.7049">
        <ele>913.7930908</ele>
        <time>2009-07-25T16:41:33Z</time>
      </trkpt>
      <trkpt lat="45.56092" lon="6.70479">
        <ele>912.3803101</ele>
        <time>2009-07-25T16:41:39Z</time>
      </trkpt>
      <trkpt lat="45.56081" lon="6.70467">
        <ele>917.8001099</ele>
        <time>2009-07-25T16:41:53Z</time>
      </trkpt>
      <trkpt lat="45.56079" lon="6.70461">
        <ele>918.4386597</ele>
        <time>2009-07-25T16:41:57Z</time>
      </trkpt>
      <trkpt lat="45.56078" lon="6.70452">
        <ele>918.1760254</ele>
        <time>2009-07-25T16:42:03Z</time>
      </trkpt>
      <trkpt lat="45.56071" lon="6.70442">
        <ele>920.4744873</ele>
        <time>2009-07-25T16:42:08Z</time>
      </trkpt>
      <trkpt lat="45.56075" lon="6.70433">
        <ele>917.4051514</ele>
        <time>2009-07-25T16:42:13Z</time>
      </trkpt>
      <trkpt lat="45.56069" lon="6.70412">
        <ele>916.9634399</ele>
        <time>2009-07-25T16:42:31Z</time>
      </trkpt>
      <trkpt lat="45.56068" lon="6.70407">
        <ele>916.4786987</ele>
        <time>2009-07-25T16:42:34Z</time>
      </trkpt>
      <trkpt lat="45.56065" lon="6.70393">
        <ele>915.3301392</ele>
        <time>2009-07-25T16:42:40Z</time>
      </trkpt>
      <trkpt lat="45.56062" lon="6.70388">
        <ele>915.6818848</ele>
        <time>2009-07-25T16:42:42Z</time>
      </trkpt>
      <trkpt lat="45.5606" lon="6.7038">
        <ele>914.3668823</ele>
        <time>2009-07-25T16:42:47Z</time>
      </trkpt>
      <trkpt lat="45.56061" lon="6.7037">
        <ele>911.0768433</ele>
        <time>2009-07-25T16:42:51Z</time>
      </trkpt>
      <trkpt lat="45.56063" lon="6.70363">
        <ele>907.8619995</ele>
        <time>2009-07-25T16:42:57Z</time>
      </trkpt>
      <trkpt lat="45.5606" lon="6.70354">
        <ele>905.9691772</ele>
        <time>2009-07-25T16:43:03Z</time>
      </trkpt>
      <trkpt lat="45.56058" lon="6.70354">
        <ele>906.7600708</ele>
        <time>2009-07-25T16:43:04Z</time>
      </trkpt>
      <trkpt lat="45.56058" lon="6.70345">
        <ele>903.2059326</ele>
        <time>2009-07-25T16:43:08Z</time>
      </trkpt>
      <trkpt lat="45.56059" lon="6.70343">
        <ele>901.3956909</ele>
        <time>2009-07-25T16:43:09Z</time>
      </trkpt>
      <trkpt lat="45.5607" lon="6.7033">
        <ele>892.1191406</ele>
        <time>2009-07-25T16:43:15Z</time>
      </trkpt>
      <trkpt lat="45.56073" lon="6.70328">
        <ele>890.1203613</ele>
        <time>2009-07-25T16:43:16Z</time>
      </trkpt>
      <trkpt lat="45.56074" lon="6.70318">
        <ele>886.2758179</ele>
        <time>2009-07-25T16:43:21Z</time>
      </trkpt>
      <trkpt lat="45.56068" lon="6.70307">
        <ele>885.8424683</ele>
        <time>2009-07-25T16:43:26Z</time>
      </trkpt>
      <trkpt lat="45.56055" lon="6.70298">
        <ele>889.0598755</ele>
        <time>2009-07-25T16:43:32Z</time>
      </trkpt>
      <trkpt lat="45.56046" lon="6.70291">
        <ele>890.852356</ele>
        <time>2009-07-25T16:43:37Z</time>
      </trkpt>
      <trkpt lat="45.56039" lon="6.70287">
        <ele>892.7172241</ele>
        <time>2009-07-25T16:43:41Z</time>
      </trkpt>
      <trkpt lat="45.56035" lon="6.70279">
        <ele>891.8078613</ele>
        <time>2009-07-25T16:43:45Z</time>
      </trkpt>
      <trkpt lat="45.5603" lon="6.70269">
        <ele>889.6341553</ele>
        <time>2009-07-25T16:43:49Z</time>
      </trkpt>
      <trkpt lat="45.56028" lon="6.70262">
        <ele>887.875061</ele>
        <time>2009-07-25T16:43:54Z</time>
      </trkpt>
      <trkpt lat="45.56024" lon="6.70255">
        <ele>887.3430786</ele>
        <time>2009-07-25T16:43:59Z</time>
      </trkpt>
      <trkpt lat="45.56026" lon="6.7025">
        <ele>883.5916138</ele>
        <time>2009-07-25T16:44:03Z</time>
      </trkpt>
      <trkpt lat="45.56026" lon="6.70244">
        <ele>886.8386841</ele>
        <time>2009-07-25T16:44:05Z</time>
      </trkpt>
      <trkpt lat="45.56026" lon="6.70233">
        <ele>893.0142212</ele>
        <time>2009-07-25T16:44:10Z</time>
      </trkpt>
      <trkpt lat="45.56034" lon="6.70228">
        <ele>889.8471069</ele>
        <time>2009-07-25T16:44:16Z</time>
      </trkpt>
      <trkpt lat="45.56037" lon="6.70229">
        <ele>887.1362915</ele>
        <time>2009-07-25T16:44:18Z</time>
      </trkpt>
      <trkpt lat="45.56043" lon="6.70224">
        <ele>884.9248047</ele>
        <time>2009-07-25T16:44:21Z</time>
      </trkpt>
      <trkpt lat="45.56043" lon="6.70219">
        <ele>886.1133423</ele>
        <time>2009-07-25T16:44:26Z</time>
      </trkpt>
      <trkpt lat="45.56038" lon="6.70211">
        <ele>892.9750366</ele>
        <time>2009-07-25T16:44:32Z</time>
      </trkpt>
      <trkpt lat="45.5604" lon="6.70205">
        <ele>893.0294189</ele>
        <time>2009-07-25T16:44:38Z</time>
      </trkpt>
      <trkpt lat="45.5604" lon="6.70177">
        <ele>900.8638306</ele>
        <time>2009-07-25T16:45:05Z</time>
      </trkpt>
      <trkpt lat="45.56041" lon="6.70176">
        <ele>900.8025513</ele>
        <time>2009-07-25T16:45:06Z</time>
      </trkpt>
      <trkpt lat="45.56039" lon="6.70169">
        <ele>903.6650391</ele>
        <time>2009-07-25T16:45:09Z</time>
      </trkpt>
      <trkpt lat="45.56038" lon="6.70156">
        <ele>906.7637329</ele>
        <time>2009-07-25T16:45:15Z</time>
      </trkpt>
      <trkpt lat="45.56038" lon="6.70151">
        <ele>907.5775146</ele>
        <time>2009-07-25T16:45:18Z</time>
      </trkpt>
      <trkpt lat="45.56044" lon="6.70144">
        <ele>904.5974731</ele>
        <time>2009-07-25T16:45:22Z</time>
      </trkpt>
      <trkpt lat="45.56047" lon="6.70127">
        <ele>900.6518555</ele>
        <time>2009-07-25T16:45:28Z</time>
      </trkpt>
      <trkpt lat="45.56046" lon="6.70122">
        <ele>899.5179443</ele>
        <time>2009-07-25T16:45:31Z</time>
      </trkpt>
      <trkpt lat="45.56044" lon="6.7011">
        <ele>898.1665649</ele>
        <time>2009-07-25T16:45:36Z</time>
      </trkpt>
      <trkpt lat="45.56045" lon="6.70108">
        <ele>897.078064</ele>
        <time>2009-07-25T16:45:37Z</time>
      </trkpt>
      <trkpt lat="45.56038" lon="6.70095">
        <ele>898.5267944</ele>
        <time>2009-07-25T16:45:42Z</time>
      </trkpt>
      <trkpt lat="45.56037" lon="6.70093">
        <ele>898.1629028</ele>
        <time>2009-07-25T16:45:43Z</time>
      </trkpt>
      <trkpt lat="45.56039" lon="6.70081">
        <ele>893.0428467</ele>
        <time>2009-07-25T16:45:48Z</time>
      </trkpt>
      <trkpt lat="45.56048" lon="6.70072">
        <ele>886.5769653</ele>
        <time>2009-07-25T16:45:53Z</time>
      </trkpt>
      <trkpt lat="45.56049" lon="6.70064">
        <ele>884.6147461</ele>
        <time>2009-07-25T16:45:58Z</time>
      </trkpt>
      <trkpt lat="45.56053" lon="6.70054">
        <ele>881.4950562</ele>
        <time>2009-07-25T16:46:02Z</time>
      </trkpt>
      <trkpt lat="45.56053" lon="6.70041">
        <ele>882.7987061</ele>
        <time>2009-07-25T16:46:08Z</time>
      </trkpt>
      <trkpt lat="45.56055" lon="6.70034">
        <ele>882.5258789</ele>
        <time>2009-07-25T16:46:12Z</time>
      </trkpt>
      <trkpt lat="45.56052" lon="6.70024">
        <ele>884.197876</ele>
        <time>2009-07-25T16:46:17Z</time>
      </trkpt>
      <trkpt lat="45.56053" lon="6.70017">
        <ele>882.9029541</ele>
        <time>2009-07-25T16:46:21Z</time>
      </trkpt>
      <trkpt lat="45.56052" lon="6.7001">
        <ele>882.6484375</ele>
        <time>2009-07-25T16:46:25Z</time>
      </trkpt>
      <trkpt lat="45.56044" lon="6.70004">
        <ele>884.6315918</ele>
        <time>2009-07-25T16:46:30Z</time>
      </trkpt>
      <trkpt lat="45.56045" lon="6.70003">
        <ele>884.2435303</ele>
        <time>2009-07-25T16:46:31Z</time>
      </trkpt>
      <trkpt lat="45.5604" lon="6.69992">
        <ele>885.1480713</ele>
        <time>2009-07-25T16:46:36Z</time>
      </trkpt>
      <trkpt lat="45.5604" lon="6.69967">
        <ele>884.2523804</ele>
        <time>2009-07-25T16:46:55Z</time>
      </trkpt>
      <trkpt lat="45.56041" lon="6.69959">
        <ele>884.8480225</ele>
        <time>2009-07-25T16:47:00Z</time>
      </trkpt>
      <trkpt lat="45.56038" lon="6.69935">
        <ele>888.7403564</ele>
        <time>2009-07-25T16:47:14Z</time>
      </trkpt>
      <trkpt lat="45.56038" lon="6.69925">
        <ele>889.367981</ele>
        <time>2009-07-25T16:47:19Z</time>
      </trkpt>
      <trkpt lat="45.56043" lon="6.6992">
        <ele>886.9543457</ele>
        <time>2009-07-25T16:47:24Z</time>
      </trkpt>
      <trkpt lat="45.56038" lon="6.69909">
        <ele>889.5285034</ele>
        <time>2009-07-25T16:47:32Z</time>
      </trkpt>
      <trkpt lat="45.5604" lon="6.69898">
        <ele>887.7811279</ele>
        <time>2009-07-25T16:47:40Z</time>
      </trkpt>
      <trkpt lat="45.5604" lon="6.69895">
        <ele>887.824646</ele>
        <time>2009-07-25T16:47:42Z</time>
      </trkpt>
      <trkpt lat="45.56042" lon="6.6988">
        <ele>884.8175049</ele>
        <time>2009-07-25T16:47:50Z</time>
      </trkpt>
      <trkpt lat="45.56039" lon="6.69874">
        <ele>885.6269531</ele>
        <time>2009-07-25T16:47:53Z</time>
      </trkpt>
      <trkpt lat="45.56032" lon="6.69859">
        <ele>886.52771</ele>
        <time>2009-07-25T16:47:59Z</time>
      </trkpt>
      <trkpt lat="45.56031" lon="6.69856">
        <ele>886.9974976</ele>
        <time>2009-07-25T16:48:00Z</time>
      </trkpt>
      <trkpt lat="45.56031" lon="6.69846">
        <ele>885.8201294</ele>
        <time>2009-07-25T16:48:05Z</time>
      </trkpt>
      <trkpt lat="45.56024" lon="6.69833">
        <ele>887.5015259</ele>
        <time>2009-07-25T16:48:12Z</time>
      </trkpt>
      <trkpt lat="45.5602" lon="6.69818">
        <ele>888.3178101</ele>
        <time>2009-07-25T16:48:17Z</time>
      </trkpt>
      <trkpt lat="45.56015" lon="6.69801">
        <ele>890.5615845</ele>
        <time>2009-07-25T16:48:22Z</time>
      </trkpt>
      <trkpt lat="45.5601" lon="6.69791">
        <ele>893.5439453</ele>
        <time>2009-07-25T16:48:28Z</time>
      </trkpt>
      <trkpt lat="45.56009" lon="6.69777">
        <ele>893.2678223</ele>
        <time>2009-07-25T16:48:39Z</time>
      </trkpt>
      <trkpt lat="45.56013" lon="6.69768">
        <ele>889.2319946</ele>
        <time>2009-07-25T16:48:45Z</time>
      </trkpt>
      <trkpt lat="45.56016" lon="6.69739">
        <ele>882.8235474</ele>
        <time>2009-07-25T16:49:03Z</time>
      </trkpt>
      <trkpt lat="45.56015" lon="6.69729">
        <ele>881.4788208</ele>
        <time>2009-07-25T16:49:11Z</time>
      </trkpt>
      <trkpt lat="45.56008" lon="6.69724">
        <ele>885.0566406</ele>
        <time>2009-07-25T16:49:16Z</time>
      </trkpt>
      <trkpt lat="45.56009" lon="6.69714">
        <ele>883.6484985</ele>
        <time>2009-07-25T16:49:21Z</time>
      </trkpt>
      <trkpt lat="45.56007" lon="6.69712">
        <ele>884.3085327</ele>
        <time>2009-07-25T16:49:22Z</time>
      </trkpt>
      <trkpt lat="45.56002" lon="6.69702">
        <ele>887.1928101</ele>
        <time>2009-07-25T16:49:27Z</time>
      </trkpt>
      <trkpt lat="45.56001" lon="6.69693">
        <ele>887.5126953</ele>
        <time>2009-07-25T16:49:30Z</time>
      </trkpt>
      <trkpt lat="45.56003" lon="6.69684">
        <ele>886.6242065</ele>
        <time>2009-07-25T16:49:34Z</time>
      </trkpt>
      <trkpt lat="45.56015" lon="6.69674">
        <ele>879.6264648</ele>
        <time>2009-07-25T16:49:41Z</time>
      </trkpt>
      <trkpt lat="45.56018" lon="6.69669">
        <ele>877.5450439</ele>
        <time>2009-07-25T16:49:46Z</time>
      </trkpt>
      <trkpt lat="45.56021" lon="6.69665">
        <ele>876.3688354</ele>
        <time>2009-07-25T16:49:50Z</time>
      </trkpt>
      <trkpt lat="45.56023" lon="6.69662">
        <ele>875.6866455</ele>
        <time>2009-07-25T16:49:55Z</time>
      </trkpt>
      <trkpt lat="45.56023" lon="6.69657">
        <ele>877.1920776</ele>
        <time>2009-07-25T16:50:00Z</time>
      </trkpt>
      <trkpt lat="45.56028" lon="6.6965">
        <ele>875.319397</ele>
        <time>2009-07-25T16:50:06Z</time>
      </trkpt>
      <trkpt lat="45.56026" lon="6.69643">
        <ele>877.8809814</ele>
        <time>2009-07-25T16:50:11Z</time>
      </trkpt>
      <trkpt lat="45.56028" lon="6.69641">
        <ele>877.3825684</ele>
        <time>2009-07-25T16:50:13Z</time>
      </trkpt>
      <trkpt lat="45.56031" lon="6.69635">
        <ele>877.4262695</ele>
        <time>2009-07-25T16:50:17Z</time>
      </trkpt>
      <trkpt lat="45.5604" lon="6.69623">
        <ele>876.4718628</ele>
        <time>2009-07-25T16:50:23Z</time>
      </trkpt>
      <trkpt lat="45.56046" lon="6.69618">
        <ele>874.4874268</ele>
        <time>2009-07-25T16:50:28Z</time>
      </trkpt>
      <trkpt lat="45.56044" lon="6.69607">
        <ele>879.53302</ele>
        <time>2009-07-25T16:50:34Z</time>
      </trkpt>
      <trkpt lat="45.56041" lon="6.69595">
        <ele>882.1704712</ele>
        <time>2009-07-25T16:50:40Z</time>
      </trkpt>
      <trkpt lat="45.56038" lon="6.69588">
        <ele>885.8087769</ele>
        <time>2009-07-25T16:50:45Z</time>
      </trkpt>
      <trkpt lat="45.56038" lon="6.69582">
        <ele>885.6035767</ele>
        <time>2009-07-25T16:50:49Z</time>
      </trkpt>
      <trkpt lat="45.56037" lon="6.69579">
        <ele>886.3979492</ele>
        <time>2009-07-25T16:50:50Z</time>
      </trkpt>
      <trkpt lat="45.5604" lon="6.6957">
        <ele>883.944397</ele>
        <time>2009-07-25T16:50:55Z</time>
      </trkpt>
      <trkpt lat="45.56039" lon="6.69569">
        <ele>884.4415283</ele>
        <time>2009-07-25T16:50:56Z</time>
      </trkpt>
      <trkpt lat="45.56038" lon="6.69564">
        <ele>885.381958</ele>
        <time>2009-07-25T16:50:58Z</time>
      </trkpt>
      <trkpt lat="45.56043" lon="6.69554">
        <ele>880.6262817</ele>
        <time>2009-07-25T16:51:02Z</time>
      </trkpt>
      <trkpt lat="45.56042" lon="6.69542">
        <ele>879.7580566</ele>
        <time>2009-07-25T16:51:06Z</time>
      </trkpt>
      <trkpt lat="45.56043" lon="6.69531">
        <ele>877.8826294</ele>
        <time>2009-07-25T16:51:12Z</time>
      </trkpt>
      <trkpt lat="45.56039" lon="6.6952">
        <ele>878.3757324</ele>
        <time>2009-07-25T16:51:16Z</time>
      </trkpt>
      <trkpt lat="45.56038" lon="6.69514">
        <ele>877.2324219</ele>
        <time>2009-07-25T16:51:19Z</time>
      </trkpt>
      <trkpt lat="45.56038" lon="6.6951">
        <ele>876.0977783</ele>
        <time>2009-07-25T16:51:21Z</time>
      </trkpt>
      <trkpt lat="45.56035" lon="6.69498">
        <ele>875.3295288</ele>
        <time>2009-07-25T16:51:26Z</time>
      </trkpt>
      <trkpt lat="45.56041" lon="6.69491">
        <ele>869.9269409</ele>
        <time>2009-07-25T16:51:31Z</time>
      </trkpt>
      <trkpt lat="45.56046" lon="6.69481">
        <ele>864.9993896</ele>
        <time>2009-07-25T16:51:37Z</time>
      </trkpt>
      <trkpt lat="45.56042" lon="6.69472">
        <ele>865.7688599</ele>
        <time>2009-07-25T16:51:41Z</time>
      </trkpt>
      <trkpt lat="45.56042" lon="6.69461">
        <ele>863.7192993</ele>
        <time>2009-07-25T16:51:49Z</time>
      </trkpt>
      <trkpt lat="45.56041" lon="6.69453">
        <ele>863.543335</ele>
        <time>2009-07-25T16:51:55Z</time>
      </trkpt>
      <trkpt lat="45.56042" lon="6.69448">
        <ele>861.5551147</ele>
        <time>2009-07-25T16:52:00Z</time>
      </trkpt>
      <trkpt lat="45.56035" lon="6.69437">
        <ele>864.7025146</ele>
        <time>2009-07-25T16:52:06Z</time>
      </trkpt>
      <trkpt lat="45.56035" lon="6.69428">
        <ele>864.5657349</ele>
        <time>2009-07-25T16:52:12Z</time>
      </trkpt>
      <trkpt lat="45.56036" lon="6.69419">
        <ele>863.2393188</ele>
        <time>2009-07-25T16:52:16Z</time>
      </trkpt>
      <trkpt lat="45.56039" lon="6.69413">
        <ele>861.1697998</ele>
        <time>2009-07-25T16:52:20Z</time>
      </trkpt>
      <trkpt lat="45.56039" lon="6.69406">
        <ele>861.6916504</ele>
        <time>2009-07-25T16:52:25Z</time>
      </trkpt>
      <trkpt lat="45.5605" lon="6.6939">
        <ele>854.9573975</ele>
        <time>2009-07-25T16:52:38Z</time>
      </trkpt>
      <trkpt lat="45.56038" lon="6.69379">
        <ele>863.6902466</ele>
        <time>2009-07-25T16:52:42Z</time>
      </trkpt>
      <trkpt lat="45.56037" lon="6.69371">
        <ele>864.6609497</ele>
        <time>2009-07-25T16:52:47Z</time>
      </trkpt>
      <trkpt lat="45.56035" lon="6.6936">
        <ele>866.0836792</ele>
        <time>2009-07-25T16:52:54Z</time>
      </trkpt>
      <trkpt lat="45.56034" lon="6.69354">
        <ele>864.2603149</ele>
        <time>2009-07-25T16:52:58Z</time>
      </trkpt>
      <trkpt lat="45.56033" lon="6.6935">
        <ele>863.642334</ele>
        <time>2009-07-25T16:53:01Z</time>
      </trkpt>
      <trkpt lat="45.56029" lon="6.69344">
        <ele>863.3659668</ele>
        <time>2009-07-25T16:53:06Z</time>
      </trkpt>
      <trkpt lat="45.5603" lon="6.69339">
        <ele>860.5829468</ele>
        <time>2009-07-25T16:53:10Z</time>
      </trkpt>
      <trkpt lat="45.56031" lon="6.69334">
        <ele>858.2329712</ele>
        <time>2009-07-25T16:53:12Z</time>
      </trkpt>
      <trkpt lat="45.56033" lon="6.69321">
        <ele>855.3847046</ele>
        <time>2009-07-25T16:53:17Z</time>
      </trkpt>
      <trkpt lat="45.5603" lon="6.69307">
        <ele>854.8207397</ele>
        <time>2009-07-25T16:53:23Z</time>
      </trkpt>
      <trkpt lat="45.56035" lon="6.693">
        <ele>850.6923828</ele>
        <time>2009-07-25T16:53:28Z</time>
      </trkpt>
      <trkpt lat="45.56037" lon="6.69291">
        <ele>848.4257202</ele>
        <time>2009-07-25T16:53:34Z</time>
      </trkpt>
      <trkpt lat="45.56034" lon="6.69283">
        <ele>848.7657471</ele>
        <time>2009-07-25T16:53:40Z</time>
      </trkpt>
      <trkpt lat="45.56024" lon="6.69269">
        <ele>853.3103027</ele>
        <time>2009-07-25T16:53:48Z</time>
      </trkpt>
      <trkpt lat="45.56025" lon="6.69264">
        <ele>852.2738037</ele>
        <time>2009-07-25T16:53:51Z</time>
      </trkpt>
      <trkpt lat="45.56025" lon="6.69255">
        <ele>851.0552979</ele>
        <time>2009-07-25T16:53:56Z</time>
      </trkpt>
      <trkpt lat="45.56025" lon="6.69246">
        <ele>849.3341675</ele>
        <time>2009-07-25T16:54:01Z</time>
      </trkpt>
      <trkpt lat="45.56026" lon="6.69237">
        <ele>847.1708374</ele>
        <time>2009-07-25T16:54:05Z</time>
      </trkpt>
      <trkpt lat="45.56026" lon="6.69221">
        <ele>844.3590698</ele>
        <time>2009-07-25T16:54:12Z</time>
      </trkpt>
      <trkpt lat="45.5602" lon="6.69214">
        <ele>844.7573242</ele>
        <time>2009-07-25T16:54:17Z</time>
      </trkpt>
      <trkpt lat="45.56016" lon="6.69209">
        <ele>845.260437</ele>
        <time>2009-07-25T16:54:20Z</time>
      </trkpt>
      <trkpt lat="45.56015" lon="6.69206">
        <ele>845.0341797</ele>
        <time>2009-07-25T16:54:22Z</time>
      </trkpt>
      <trkpt lat="45.5601" lon="6.69196">
        <ele>844.430481</ele>
        <time>2009-07-25T16:54:28Z</time>
      </trkpt>
      <trkpt lat="45.56004" lon="6.69187">
        <ele>844.9238281</ele>
        <time>2009-07-25T16:54:33Z</time>
      </trkpt>
      <trkpt lat="45.56003" lon="6.69185">
        <ele>844.829834</ele>
        <time>2009-07-25T16:54:34Z</time>
      </trkpt>
      <trkpt lat="45.55998" lon="6.69176">
        <ele>845.2526855</ele>
        <time>2009-07-25T16:54:40Z</time>
      </trkpt>
      <trkpt lat="45.55999" lon="6.69174">
        <ele>844.6799316</ele>
        <time>2009-07-25T16:54:41Z</time>
      </trkpt>
      <trkpt lat="45.56001" lon="6.69171">
        <ele>843.4328613</ele>
        <time>2009-07-25T16:54:43Z</time>
      </trkpt>
      <trkpt lat="45.55999" lon="6.69162">
        <ele>842.5299072</ele>
        <time>2009-07-25T16:54:47Z</time>
      </trkpt>
      <trkpt lat="45.55997" lon="6.69153">
        <ele>841.7929688</ele>
        <time>2009-07-25T16:54:52Z</time>
      </trkpt>
      <trkpt lat="45.55997" lon="6.69151">
        <ele>841.7706299</ele>
        <time>2009-07-25T16:54:53Z</time>
      </trkpt>
      <trkpt lat="45.55996" lon="6.69146">
        <ele>841.2041626</ele>
        <time>2009-07-25T16:54:55Z</time>
      </trkpt>
      <trkpt lat="45.55991" lon="6.69141">
        <ele>842.0876465</ele>
        <time>2009-07-25T16:54:58Z</time>
      </trkpt>
      <trkpt lat="45.55988" lon="6.69132">
        <ele>841.5646362</ele>
        <time>2009-07-25T16:55:03Z</time>
      </trkpt>
      <trkpt lat="45.55991" lon="6.69123">
        <ele>839.5515137</ele>
        <time>2009-07-25T16:55:08Z</time>
      </trkpt>
      <trkpt lat="45.55995" lon="6.6912">
        <ele>838.3723755</ele>
        <time>2009-07-25T16:55:10Z</time>
      </trkpt>
      <trkpt lat="45.56003" lon="6.69106">
        <ele>834.8847656</ele>
        <time>2009-07-25T16:55:18Z</time>
      </trkpt>
      <trkpt lat="45.56001" lon="6.69098">
        <ele>834.8814697</ele>
        <time>2009-07-25T16:55:23Z</time>
      </trkpt>
      <trkpt lat="45.55989" lon="6.69089">
        <ele>836.8754272</ele>
        <time>2009-07-25T16:55:27Z</time>
      </trkpt>
      <trkpt lat="45.5598" lon="6.69076">
        <ele>838.4197998</ele>
        <time>2009-07-25T16:55:33Z</time>
      </trkpt>
      <trkpt lat="45.55978" lon="6.69064">
        <ele>838.6669922</ele>
        <time>2009-07-25T16:55:39Z</time>
      </trkpt>
      <trkpt lat="45.5598" lon="6.69062">
        <ele>838.4197998</ele>
        <time>2009-07-25T16:55:41Z</time>
      </trkpt>
      <trkpt lat="45.55991" lon="6.69055">
        <ele>836.0319824</ele>
        <time>2009-07-25T16:55:48Z</time>
      </trkpt>
      <trkpt lat="45.55994" lon="6.69048">
        <ele>835.2625122</ele>
        <time>2009-07-25T16:55:53Z</time>
      </trkpt>
      <trkpt lat="45.55996" lon="6.69038">
        <ele>834.9667358</ele>
        <time>2009-07-25T16:55:59Z</time>
      </trkpt>
      <trkpt lat="45.55993" lon="6.69026">
        <ele>835.4686279</ele>
        <time>2009-07-25T16:56:06Z</time>
      </trkpt>
      <trkpt lat="45.55986" lon="6.69017">
        <ele>836.4507446</ele>
        <time>2009-07-25T16:56:10Z</time>
      </trkpt>
      <trkpt lat="45.55981" lon="6.6901">
        <ele>837.4202271</ele>
        <time>2009-07-25T16:56:13Z</time>
      </trkpt>
      <trkpt lat="45.55976" lon="6.69002">
        <ele>838.7268677</ele>
        <time>2009-07-25T16:56:16Z</time>
      </trkpt>
      <trkpt lat="45.5597" lon="6.68992">
        <ele>840.1168213</ele>
        <time>2009-07-25T16:56:21Z</time>
      </trkpt>
      <trkpt lat="45.55967" lon="6.68985">
        <ele>840.8977661</ele>
        <time>2009-07-25T16:56:27Z</time>
      </trkpt>
      <trkpt lat="45.55966" lon="6.6898">
        <ele>841.3184204</ele>
        <time>2009-07-25T16:56:31Z</time>
      </trkpt>
      <trkpt lat="45.55965" lon="6.68974">
        <ele>841.6086426</ele>
        <time>2009-07-25T16:56:35Z</time>
      </trkpt>
      <trkpt lat="45.55963" lon="6.68967">
        <ele>841.1714478</ele>
        <time>2009-07-25T16:56:40Z</time>
      </trkpt>
      <trkpt lat="45.55962" lon="6.68959">
        <ele>840.4956665</ele>
        <time>2009-07-25T16:56:44Z</time>
      </trkpt>
      <trkpt lat="45.55959" lon="6.68954">
        <ele>841.3812866</ele>
        <time>2009-07-25T16:56:48Z</time>
      </trkpt>
      <trkpt lat="45.55961" lon="6.68946">
        <ele>838.5187378</ele>
        <time>2009-07-25T16:56:52Z</time>
      </trkpt>
      <trkpt lat="45.55957" lon="6.68936">
        <ele>838.7398682</ele>
        <time>2009-07-25T16:56:59Z</time>
      </trkpt>
      <trkpt lat="45.55951" lon="6.68932">
        <ele>841.6122437</ele>
        <time>2009-07-25T16:57:02Z</time>
      </trkpt>
      <trkpt lat="45.55946" lon="6.68921">
        <ele>843.1130981</ele>
        <time>2009-07-25T16:57:09Z</time>
      </trkpt>
      <trkpt lat="45.5594" lon="6.68911">
        <ele>842.8832397</ele>
        <time>2009-07-25T16:57:13Z</time>
      </trkpt>
      <trkpt lat="45.55939" lon="6.68905">
        <ele>841.3696289</ele>
        <time>2009-07-25T16:57:16Z</time>
      </trkpt>
      <trkpt lat="45.55933" lon="6.68895">
        <ele>841.3347778</ele>
        <time>2009-07-25T16:57:21Z</time>
      </trkpt>
      <trkpt lat="45.55929" lon="6.68887">
        <ele>841.4876099</ele>
        <time>2009-07-25T16:57:27Z</time>
      </trkpt>
      <trkpt lat="45.55927" lon="6.68884">
        <ele>841.4075928</ele>
        <time>2009-07-25T16:57:30Z</time>
      </trkpt>
      <trkpt lat="45.55919" lon="6.68876">
        <ele>844.1895752</ele>
        <time>2009-07-25T16:57:37Z</time>
      </trkpt>
      <trkpt lat="45.55912" lon="6.68869">
        <ele>844.4666748</ele>
        <time>2009-07-25T16:57:44Z</time>
      </trkpt>
      <trkpt lat="45.55909" lon="6.68858">
        <ele>842.4398193</ele>
        <time>2009-07-25T16:57:51Z</time>
      </trkpt>
      <trkpt lat="45.55906" lon="6.68851">
        <ele>841.5528564</ele>
        <time>2009-07-25T16:57:54Z</time>
      </trkpt>
      <trkpt lat="45.55904" lon="6.68847">
        <ele>841.1325684</ele>
        <time>2009-07-25T16:57:56Z</time>
      </trkpt>
      <trkpt lat="45.55898" lon="6.68841">
        <ele>842.819397</ele>
        <time>2009-07-25T16:58:02Z</time>
      </trkpt>
      <trkpt lat="45.55894" lon="6.68839">
        <ele>843.8999023</ele>
        <time>2009-07-25T16:58:05Z</time>
      </trkpt>
      <trkpt lat="45.55897" lon="6.68824">
        <ele>835.5784912</ele>
        <time>2009-07-25T16:58:12Z</time>
      </trkpt>
      <trkpt lat="45.55893" lon="6.68822">
        <ele>836.7138062</ele>
        <time>2009-07-25T16:58:15Z</time>
      </trkpt>
      <trkpt lat="45.55888" lon="6.68815">
        <ele>835.7225952</ele>
        <time>2009-07-25T16:58:20Z</time>
      </trkpt>
      <trkpt lat="45.55883" lon="6.6881">
        <ele>835.885437</ele>
        <time>2009-07-25T16:58:25Z</time>
      </trkpt>
      <trkpt lat="45.55874" lon="6.688">
        <ele>837.3687134</ele>
        <time>2009-07-25T16:58:33Z</time>
      </trkpt>
      <trkpt lat="45.55872" lon="6.68794">
        <ele>836.5587769</ele>
        <time>2009-07-25T16:58:37Z</time>
      </trkpt>
      <trkpt lat="45.5587" lon="6.68789">
        <ele>835.4194946</ele>
        <time>2009-07-25T16:58:40Z</time>
      </trkpt>
      <trkpt lat="45.55868" lon="6.68783">
        <ele>834.8004761</ele>
        <time>2009-07-25T16:58:44Z</time>
      </trkpt>
      <trkpt lat="45.55865" lon="6.68772">
        <ele>831.7137451</ele>
        <time>2009-07-25T16:58:50Z</time>
      </trkpt>
      <trkpt lat="45.55862" lon="6.68764">
        <ele>830.050354</ele>
        <time>2009-07-25T16:58:55Z</time>
      </trkpt>
      <trkpt lat="45.55857" lon="6.68754">
        <ele>827.5151978</ele>
        <time>2009-07-25T16:59:01Z</time>
      </trkpt>
      <trkpt lat="45.55857" lon="6.68752">
        <ele>826.697876</ele>
        <time>2009-07-25T16:59:02Z</time>
      </trkpt>
      <trkpt lat="45.55856" lon="6.68746">
        <ele>825.4142456</ele>
        <time>2009-07-25T16:59:05Z</time>
      </trkpt>
      <trkpt lat="45.5585" lon="6.68737">
        <ele>825.1177979</ele>
        <time>2009-07-25T16:59:10Z</time>
      </trkpt>
      <trkpt lat="45.55841" lon="6.68724">
        <ele>826.6737671</ele>
        <time>2009-07-25T16:59:17Z</time>
      </trkpt>
      <trkpt lat="45.55836" lon="6.68714">
        <ele>825.666626</ele>
        <time>2009-07-25T16:59:23Z</time>
      </trkpt>
      <trkpt lat="45.55834" lon="6.68708">
        <ele>823.7736816</ele>
        <time>2009-07-25T16:59:28Z</time>
      </trkpt>
      <trkpt lat="45.55827" lon="6.68699">
        <ele>823.272644</ele>
        <time>2009-07-25T16:59:35Z</time>
      </trkpt>
      <trkpt lat="45.55818" lon="6.6868">
        <ele>821.151001</ele>
        <time>2009-07-25T16:59:48Z</time>
      </trkpt>
      <trkpt lat="45.55815" lon="6.68673">
        <ele>819.7576904</ele>
        <time>2009-07-25T16:59:53Z</time>
      </trkpt>
      <trkpt lat="45.55814" lon="6.68664">
        <ele>817.47229</ele>
        <time>2009-07-25T17:00:00Z</time>
      </trkpt>
      <trkpt lat="45.55809" lon="6.68655">
        <ele>817.3799438</ele>
        <time>2009-07-25T17:00:06Z</time>
      </trkpt>
      <trkpt lat="45.55804" lon="6.68648">
        <ele>817.3480835</ele>
        <time>2009-07-25T17:00:10Z</time>
      </trkpt>
      <trkpt lat="45.55803" lon="6.68645">
        <ele>817.5928955</ele>
        <time>2009-07-25T17:00:12Z</time>
      </trkpt>
      <trkpt lat="45.55801" lon="6.6864">
        <ele>816.680603</ele>
        <time>2009-07-25T17:00:14Z</time>
      </trkpt>
      <trkpt lat="45.55792" lon="6.68628">
        <ele>819.0423584</ele>
        <time>2009-07-25T17:00:19Z</time>
      </trkpt>
      <trkpt lat="45.55791" lon="6.68624">
        <ele>818.5599365</ele>
        <time>2009-07-25T17:00:21Z</time>
      </trkpt>
      <trkpt lat="45.55789" lon="6.68619">
        <ele>818.5410767</ele>
        <time>2009-07-25T17:00:24Z</time>
      </trkpt>
      <trkpt lat="45.55784" lon="6.68606">
        <ele>817.8826904</ele>
        <time>2009-07-25T17:00:30Z</time>
      </trkpt>
      <trkpt lat="45.55778" lon="6.68592">
        <ele>816.8287354</ele>
        <time>2009-07-25T17:00:38Z</time>
      </trkpt>
      <trkpt lat="45.55771" lon="6.68582">
        <ele>816.2539673</ele>
        <time>2009-07-25T17:00:45Z</time>
      </trkpt>
      <trkpt lat="45.55767" lon="6.68575">
        <ele>815.6982422</ele>
        <time>2009-07-25T17:00:49Z</time>
      </trkpt>
      <trkpt lat="45.55763" lon="6.68569">
        <ele>815.4852905</ele>
        <time>2009-07-25T17:00:54Z</time>
      </trkpt>
      <trkpt lat="45.55759" lon="6.68555">
        <ele>813.3432617</ele>
        <time>2009-07-25T17:01:01Z</time>
      </trkpt>
      <trkpt lat="45.55758" lon="6.68551">
        <ele>812.7513428</ele>
        <time>2009-07-25T17:01:03Z</time>
      </trkpt>
      <trkpt lat="45.55758" lon="6.68545">
        <ele>811.6120605</ele>
        <time>2009-07-25T17:01:08Z</time>
      </trkpt>
      <trkpt lat="45.55758" lon="6.68539">
        <ele>810.4282227</ele>
        <time>2009-07-25T17:01:13Z</time>
      </trkpt>
      <trkpt lat="45.55761" lon="6.68535">
        <ele>809.0971069</ele>
        <time>2009-07-25T17:01:16Z</time>
      </trkpt>
      <trkpt lat="45.55763" lon="6.6853">
        <ele>808.0075684</ele>
        <time>2009-07-25T17:01:20Z</time>
      </trkpt>
      <trkpt lat="45.55762" lon="6.68521">
        <ele>807.1896362</ele>
        <time>2009-07-25T17:01:26Z</time>
      </trkpt>
      <trkpt lat="45.55761" lon="6.68516">
        <ele>806.9424438</ele>
        <time>2009-07-25T17:01:29Z</time>
      </trkpt>
      <trkpt lat="45.5576" lon="6.68509">
        <ele>806.5853882</ele>
        <time>2009-07-25T17:01:34Z</time>
      </trkpt>
      <trkpt lat="45.55756" lon="6.68493">
        <ele>805.8575439</ele>
        <time>2009-07-25T17:01:43Z</time>
      </trkpt>
      <trkpt lat="45.55753" lon="6.68482">
        <ele>805.394043</ele>
        <time>2009-07-25T17:01:50Z</time>
      </trkpt>
      <trkpt lat="45.55745" lon="6.68468">
        <ele>805.6728516</ele>
        <time>2009-07-25T17:01:58Z</time>
      </trkpt>
      <trkpt lat="45.55738" lon="6.68457">
        <ele>806.3612061</ele>
        <time>2009-07-25T17:02:05Z</time>
      </trkpt>
      <trkpt lat="45.55733" lon="6.68444">
        <ele>806.2012329</ele>
        <time>2009-07-25T17:02:13Z</time>
      </trkpt>
      <trkpt lat="45.5573" lon="6.68435">
        <ele>805.828186</ele>
        <time>2009-07-25T17:02:19Z</time>
      </trkpt>
      <trkpt lat="45.55729" lon="6.68431">
        <ele>805.5986328</ele>
        <time>2009-07-25T17:02:22Z</time>
      </trkpt>
      <trkpt lat="45.55729" lon="6.68429">
        <ele>805.3751831</ele>
        <time>2009-07-25T17:02:24Z</time>
      </trkpt>
      <trkpt lat="45.55727" lon="6.68426">
        <ele>805.2694092</ele>
        <time>2009-07-25T17:02:30Z</time>
      </trkpt>
      <trkpt lat="45.55726" lon="6.68426">
        <ele>805.4707642</ele>
        <time>2009-07-25T17:02:38Z</time>
      </trkpt>
      <trkpt lat="45.55725" lon="6.68426">
        <ele>805.7808228</ele>
        <time>2009-07-25T17:02:49Z</time>
      </trkpt>
      <trkpt lat="45.55729" lon="6.68426">
        <ele>805.1091919</ele>
        <time>2009-07-25T17:02:56Z</time>
      </trkpt>
      <trkpt lat="45.55728" lon="6.68426">
        <ele>805.1016235</ele>
        <time>2009-07-25T17:03:12Z</time>
      </trkpt>
      <trkpt lat="45.5573" lon="6.68427">
        <ele>804.7410889</ele>
        <time>2009-07-25T17:03:22Z</time>
      </trkpt>
      <trkpt lat="45.55733" lon="6.68426">
        <ele>804.0200806</ele>
        <time>2009-07-25T17:03:28Z</time>
      </trkpt>
      <trkpt lat="45.55735" lon="6.68426">
        <ele>803.8456421</ele>
        <time>2009-07-25T17:03:29Z</time>
      </trkpt>
      <trkpt lat="45.5574" lon="6.68426">
        <ele>802.7553711</ele>
        <time>2009-07-25T17:03:35Z</time>
      </trkpt>
      <trkpt lat="45.55746" lon="6.68424">
        <ele>801.3190308</ele>
        <time>2009-07-25T17:03:41Z</time>
      </trkpt>
      <trkpt lat="45.55755" lon="6.68428">
        <ele>799.6061401</ele>
        <time>2009-07-25T17:03:47Z</time>
      </trkpt>
      <trkpt lat="45.55764" lon="6.68433">
        <ele>798.6959839</ele>
        <time>2009-07-25T17:03:52Z</time>
      </trkpt>
      <trkpt lat="45.55773" lon="6.68437">
        <ele>798.246582</ele>
        <time>2009-07-25T17:03:57Z</time>
      </trkpt>
      <trkpt lat="45.55778" lon="6.68441">
        <ele>798.9372559</ele>
        <time>2009-07-25T17:04:01Z</time>
      </trkpt>
      <trkpt lat="45.55787" lon="6.68444">
        <ele>796.9970703</ele>
        <time>2009-07-25T17:04:07Z</time>
      </trkpt>
      <trkpt lat="45.55789" lon="6.68446">
        <ele>796.5753174</ele>
        <time>2009-07-25T17:04:09Z</time>
      </trkpt>
      <trkpt lat="45.55795" lon="6.68453">
        <ele>795.0406494</ele>
        <time>2009-07-25T17:04:15Z</time>
      </trkpt>
      <trkpt lat="45.55804" lon="6.68459">
        <ele>792.6854248</ele>
        <time>2009-07-25T17:04:22Z</time>
      </trkpt>
      <trkpt lat="45.55812" lon="6.68464">
        <ele>791.9032593</ele>
        <time>2009-07-25T17:04:29Z</time>
      </trkpt>
      <trkpt lat="45.5582" lon="6.68467">
        <ele>791.5438843</ele>
        <time>2009-07-25T17:04:36Z</time>
      </trkpt>
      <trkpt lat="45.55825" lon="6.68468">
        <ele>791.1676025</ele>
        <time>2009-07-25T17:04:42Z</time>
      </trkpt>
      <trkpt lat="45.55832" lon="6.68461">
        <ele>789.9783936</ele>
        <time>2009-07-25T17:04:48Z</time>
      </trkpt>
      <trkpt lat="45.55836" lon="6.68454">
        <ele>788.3439941</ele>
        <time>2009-07-25T17:04:55Z</time>
      </trkpt>
      <trkpt lat="45.5584" lon="6.68445">
        <ele>786.2996216</ele>
        <time>2009-07-25T17:05:01Z</time>
      </trkpt>
      <trkpt lat="45.55844" lon="6.68438">
        <ele>784.1438599</ele>
        <time>2009-07-25T17:05:06Z</time>
      </trkpt>
      <trkpt lat="45.55851" lon="6.6843">
        <ele>781.814209</ele>
        <time>2009-07-25T17:05:13Z</time>
      </trkpt>
      <trkpt lat="45.55862" lon="6.68426">
        <ele>780.2729492</ele>
        <time>2009-07-25T17:05:20Z</time>
      </trkpt>
      <trkpt lat="45.55869" lon="6.68423">
        <ele>779.1914063</ele>
        <time>2009-07-25T17:05:26Z</time>
      </trkpt>
      <trkpt lat="45.55881" lon="6.68419">
        <ele>777.4120483</ele>
        <time>2009-07-25T17:05:32Z</time>
      </trkpt>
      <trkpt lat="45.55888" lon="6.68415">
        <ele>775.9679565</ele>
        <time>2009-07-25T17:05:39Z</time>
      </trkpt>
      <trkpt lat="45.55896" lon="6.68412">
        <ele>774.031311</ele>
        <time>2009-07-25T17:05:44Z</time>
      </trkpt>
      <trkpt lat="45.55902" lon="6.6841">
        <ele>772.5626831</ele>
        <time>2009-07-25T17:05:48Z</time>
      </trkpt>
      <trkpt lat="45.55906" lon="6.68406">
        <ele>771.6296387</ele>
        <time>2009-07-25T17:05:52Z</time>
      </trkpt>
      <trkpt lat="45.55911" lon="6.68402">
        <ele>770.4378052</ele>
        <time>2009-07-25T17:05:58Z</time>
      </trkpt>
      <trkpt lat="45.55914" lon="6.684">
        <ele>769.8239136</ele>
        <time>2009-07-25T17:06:02Z</time>
      </trkpt>
      <trkpt lat="45.55917" lon="6.684">
        <ele>769.4138184</ele>
        <time>2009-07-25T17:06:05Z</time>
      </trkpt>
      <trkpt lat="45.55929" lon="6.68402">
        <ele>769.4876099</ele>
        <time>2009-07-25T17:06:14Z</time>
      </trkpt>
      <trkpt lat="45.55931" lon="6.68403">
        <ele>769.5116577</ele>
        <time>2009-07-25T17:06:15Z</time>
      </trkpt>
      <trkpt lat="45.5594" lon="6.68404">
        <ele>769.5356445</ele>
        <time>2009-07-25T17:06:22Z</time>
      </trkpt>
      <trkpt lat="45.55947" lon="6.68405">
        <ele>769.2182617</ele>
        <time>2009-07-25T17:06:27Z</time>
      </trkpt>
      <trkpt lat="45.55957" lon="6.6841">
        <ele>767.8395386</ele>
        <time>2009-07-25T17:06:35Z</time>
      </trkpt>
      <trkpt lat="45.55963" lon="6.68413">
        <ele>767.065979</ele>
        <time>2009-07-25T17:06:39Z</time>
      </trkpt>
      <trkpt lat="45.55969" lon="6.68412">
        <ele>766.1226807</ele>
        <time>2009-07-25T17:06:44Z</time>
      </trkpt>
      <trkpt lat="45.55978" lon="6.68414">
        <ele>764.7748413</ele>
        <time>2009-07-25T17:06:49Z</time>
      </trkpt>
      <trkpt lat="45.55981" lon="6.68414">
        <ele>764.2982178</ele>
        <time>2009-07-25T17:06:50Z</time>
      </trkpt>
      <trkpt lat="45.55986" lon="6.68413">
        <ele>763.3442993</ele>
        <time>2009-07-25T17:06:53Z</time>
      </trkpt>
      <trkpt lat="45.55994" lon="6.68417">
        <ele>762.0739136</ele>
        <time>2009-07-25T17:07:00Z</time>
      </trkpt>
      <trkpt lat="45.56003" lon="6.68418">
        <ele>760.201355</ele>
        <time>2009-07-25T17:07:05Z</time>
      </trkpt>
      <trkpt lat="45.56009" lon="6.68418">
        <ele>758.8639526</ele>
        <time>2009-07-25T17:07:11Z</time>
      </trkpt>
      <trkpt lat="45.56018" lon="6.68415">
        <ele>756.4633179</ele>
        <time>2009-07-25T17:07:19Z</time>
      </trkpt>
      <trkpt lat="45.56026" lon="6.68409">
        <ele>753.9210205</ele>
        <time>2009-07-25T17:07:26Z</time>
      </trkpt>
      <trkpt lat="45.5603" lon="6.68405">
        <ele>752.940918</ele>
        <time>2009-07-25T17:07:30Z</time>
      </trkpt>
      <trkpt lat="45.56034" lon="6.68395">
        <ele>751.8493042</ele>
        <time>2009-07-25T17:07:36Z</time>
      </trkpt>
      <trkpt lat="45.56036" lon="6.68392">
        <ele>751.5413818</ele>
        <time>2009-07-25T17:07:38Z</time>
      </trkpt>
      <trkpt lat="45.56035" lon="6.68378">
        <ele>751.1782227</ele>
        <time>2009-07-25T17:07:45Z</time>
      </trkpt>
      <trkpt lat="45.56034" lon="6.68362">
        <ele>750.8049316</ele>
        <time>2009-07-25T17:07:53Z</time>
      </trkpt>
      <trkpt lat="45.56036" lon="6.68351">
        <ele>750.22052</ele>
        <time>2009-07-25T17:07:59Z</time>
      </trkpt>
      <trkpt lat="45.56035" lon="6.68342">
        <ele>749.8829956</ele>
        <time>2009-07-25T17:08:03Z</time>
      </trkpt>
      <trkpt lat="45.56039" lon="6.68334">
        <ele>749.2009888</ele>
        <time>2009-07-25T17:08:08Z</time>
      </trkpt>
      <trkpt lat="45.56044" lon="6.68318">
        <ele>748.3167725</ele>
        <time>2009-07-25T17:08:18Z</time>
      </trkpt>
      <trkpt lat="45.56054" lon="6.68311">
        <ele>747.2902832</ele>
        <time>2009-07-25T17:08:26Z</time>
      </trkpt>
      <trkpt lat="45.56058" lon="6.68302">
        <ele>746.496521</ele>
        <time>2009-07-25T17:08:32Z</time>
      </trkpt>
      <trkpt lat="45.56059" lon="6.68299">
        <ele>746.1102905</ele>
        <time>2009-07-25T17:08:36Z</time>
      </trkpt>
      <trkpt lat="45.56059" lon="6.68298">
        <ele>746.0518799</ele>
        <time>2009-07-25T17:08:38Z</time>
      </trkpt>
      <trkpt lat="45.56058" lon="6.68285">
        <ele>745.8596191</ele>
        <time>2009-07-25T17:08:44Z</time>
      </trkpt>
      <trkpt lat="45.5606" lon="6.68275">
        <ele>745.0720825</ele>
        <time>2009-07-25T17:08:49Z</time>
      </trkpt>
      <trkpt lat="45.56065" lon="6.68264">
        <ele>743.4104004</ele>
        <time>2009-07-25T17:08:56Z</time>
      </trkpt>
      <trkpt lat="45.56068" lon="6.68254">
        <ele>742.0645752</ele>
        <time>2009-07-25T17:09:02Z</time>
      </trkpt>
      <trkpt lat="45.56072" lon="6.68245">
        <ele>740.8788452</ele>
        <time>2009-07-25T17:09:08Z</time>
      </trkpt>
      <trkpt lat="45.56073" lon="6.68242">
        <ele>740.6281738</ele>
        <time>2009-07-25T17:09:10Z</time>
      </trkpt>
      <trkpt lat="45.56076" lon="6.68234">
        <ele>739.7990723</ele>
        <time>2009-07-25T17:09:14Z</time>
      </trkpt>
      <trkpt lat="45.56079" lon="6.68228">
        <ele>738.9733887</ele>
        <time>2009-07-25T17:09:19Z</time>
      </trkpt>
      <trkpt lat="45.56086" lon="6.68222">
        <ele>737.5477905</ele>
        <time>2009-07-25T17:09:25Z</time>
      </trkpt>
      <trkpt lat="45.56094" lon="6.68217">
        <ele>736.288208</ele>
        <time>2009-07-25T17:09:31Z</time>
      </trkpt>
      <trkpt lat="45.561" lon="6.68211">
        <ele>735.4761353</ele>
        <time>2009-07-25T17:09:36Z</time>
      </trkpt>
      <trkpt lat="45.56103" lon="6.68207">
        <ele>734.9925537</ele>
        <time>2009-07-25T17:09:40Z</time>
      </trkpt>
      <trkpt lat="45.56108" lon="6.682">
        <ele>734.3054199</ele>
        <time>2009-07-25T17:09:44Z</time>
      </trkpt>
      <trkpt lat="45.56115" lon="6.68189">
        <ele>733.2695923</ele>
        <time>2009-07-25T17:09:51Z</time>
      </trkpt>
      <trkpt lat="45.56116" lon="6.68181">
        <ele>732.8340454</ele>
        <time>2009-07-25T17:09:55Z</time>
      </trkpt>
      <trkpt lat="45.56116" lon="6.68167">
        <ele>732.5053711</ele>
        <time>2009-07-25T17:10:01Z</time>
      </trkpt>
      <trkpt lat="45.56119" lon="6.68155">
        <ele>732.1311646</ele>
        <time>2009-07-25T17:10:07Z</time>
      </trkpt>
      <trkpt lat="45.56122" lon="6.68149">
        <ele>731.8427734</ele>
        <time>2009-07-25T17:10:10Z</time>
      </trkpt>
      <trkpt lat="45.56126" lon="6.68145">
        <ele>731.3483887</ele>
        <time>2009-07-25T17:10:14Z</time>
      </trkpt>
      <trkpt lat="45.56134" lon="6.68138">
        <ele>730.3702393</ele>
        <time>2009-07-25T17:10:20Z</time>
      </trkpt>
      <trkpt lat="45.56139" lon="6.68134">
        <ele>728.9760132</ele>
        <time>2009-07-25T17:10:24Z</time>
      </trkpt>
      <trkpt lat="45.56147" lon="6.68124">
        <ele>725.0393677</ele>
        <time>2009-07-25T17:10:32Z</time>
      </trkpt>
      <trkpt lat="45.56153" lon="6.68116">
        <ele>722.5919189</ele>
        <time>2009-07-25T17:10:38Z</time>
      </trkpt>
      <trkpt lat="45.56157" lon="6.68111">
        <ele>721.0861816</ele>
        <time>2009-07-25T17:10:42Z</time>
      </trkpt>
      <trkpt lat="45.5616" lon="6.68107">
        <ele>720.0447998</ele>
        <time>2009-07-25T17:10:45Z</time>
      </trkpt>
      <trkpt lat="45.56163" lon="6.68103">
        <ele>719.1848755</ele>
        <time>2009-07-25T17:10:49Z</time>
      </trkpt>
      <trkpt lat="45.5617" lon="6.68094">
        <ele>717.8136597</ele>
        <time>2009-07-25T17:10:56Z</time>
      </trkpt>
      <trkpt lat="45.56175" lon="6.68087">
        <ele>716.7178955</ele>
        <time>2009-07-25T17:11:00Z</time>
      </trkpt>
      <trkpt lat="45.56176" lon="6.68086">
        <ele>716.5222778</ele>
        <time>2009-07-25T17:11:01Z</time>
      </trkpt>
      <trkpt lat="45.5618" lon="6.68077">
        <ele>715.1276855</ele>
        <time>2009-07-25T17:11:06Z</time>
      </trkpt>
      <trkpt lat="45.56184" lon="6.68068">
        <ele>713.4393311</ele>
        <time>2009-07-25T17:11:11Z</time>
      </trkpt>
      <trkpt lat="45.56184" lon="6.68062">
        <ele>712.9417114</ele>
        <time>2009-07-25T17:11:15Z</time>
      </trkpt>
      <trkpt lat="45.56182" lon="6.68054">
        <ele>712.9244995</ele>
        <time>2009-07-25T17:11:19Z</time>
      </trkpt>
      <trkpt lat="45.56182" lon="6.68039">
        <ele>713.6624146</ele>
        <time>2009-07-25T17:11:26Z</time>
      </trkpt>
      <trkpt lat="45.56182" lon="6.68036">
        <ele>713.7850952</ele>
        <time>2009-07-25T17:11:28Z</time>
      </trkpt>
      <trkpt lat="45.56184" lon="6.68031">
        <ele>712.890564</ele>
        <time>2009-07-25T17:11:32Z</time>
      </trkpt>
      <trkpt lat="45.56186" lon="6.68023">
        <ele>712.52948</ele>
        <time>2009-07-25T17:11:37Z</time>
      </trkpt>
      <trkpt lat="45.56187" lon="6.68009">
        <ele>711.7741699</ele>
        <time>2009-07-25T17:11:44Z</time>
      </trkpt>
      <trkpt lat="45.56189" lon="6.68">
        <ele>711.0188599</ele>
        <time>2009-07-25T17:11:49Z</time>
      </trkpt>
      <trkpt lat="45.56189" lon="6.67985">
        <ele>711.4622803</ele>
        <time>2009-07-25T17:11:56Z</time>
      </trkpt>
      <trkpt lat="45.5619" lon="6.67984">
        <ele>711.2156372</ele>
        <time>2009-07-25T17:11:57Z</time>
      </trkpt>
      <trkpt lat="45.56195" lon="6.67971">
        <ele>709.864624</ele>
        <time>2009-07-25T17:12:04Z</time>
      </trkpt>
      <trkpt lat="45.56196" lon="6.67964">
        <ele>709.5999146</ele>
        <time>2009-07-25T17:12:08Z</time>
      </trkpt>
      <trkpt lat="45.56199" lon="6.6796">
        <ele>708.8820801</ele>
        <time>2009-07-25T17:12:12Z</time>
      </trkpt>
      <trkpt lat="45.56201" lon="6.67954">
        <ele>708.4776001</ele>
        <time>2009-07-25T17:12:16Z</time>
      </trkpt>
      <trkpt lat="45.56205" lon="6.67944">
        <ele>707.223938</ele>
        <time>2009-07-25T17:12:22Z</time>
      </trkpt>
      <trkpt lat="45.56211" lon="6.67937">
        <ele>705.6033936</ele>
        <time>2009-07-25T17:12:27Z</time>
      </trkpt>
      <trkpt lat="45.56217" lon="6.67933">
        <ele>703.6963501</ele>
        <time>2009-07-25T17:12:32Z</time>
      </trkpt>
      <trkpt lat="45.56219" lon="6.67927">
        <ele>702.5600586</ele>
        <time>2009-07-25T17:12:36Z</time>
      </trkpt>
      <trkpt lat="45.56226" lon="6.67924">
        <ele>700.911377</ele>
        <time>2009-07-25T17:12:40Z</time>
      </trkpt>
      <trkpt lat="45.56231" lon="6.67915">
        <ele>699.642334</ele>
        <time>2009-07-25T17:12:47Z</time>
      </trkpt>
      <trkpt lat="45.5623" lon="6.67907">
        <ele>699.5530396</ele>
        <time>2009-07-25T17:12:53Z</time>
      </trkpt>
      <trkpt lat="45.56227" lon="6.67899">
        <ele>699.6989746</ele>
        <time>2009-07-25T17:12:58Z</time>
      </trkpt>
      <trkpt lat="45.56226" lon="6.67895">
        <ele>699.6801147</ele>
        <time>2009-07-25T17:13:00Z</time>
      </trkpt>
      <trkpt lat="45.5622" lon="6.67882">
        <ele>701.0270996</ele>
        <time>2009-07-25T17:13:04Z</time>
      </trkpt>
      <trkpt lat="45.56226" lon="6.67872">
        <ele>699.9660034</ele>
        <time>2009-07-25T17:13:10Z</time>
      </trkpt>
      <trkpt lat="45.56232" lon="6.67866">
        <ele>698.8947754</ele>
        <time>2009-07-25T17:13:14Z</time>
      </trkpt>
      <trkpt lat="45.56234" lon="6.67865">
        <ele>698.3587646</ele>
        <time>2009-07-25T17:13:15Z</time>
      </trkpt>
      <trkpt lat="45.56236" lon="6.67861">
        <ele>698.0425415</ele>
        <time>2009-07-25T17:13:18Z</time>
      </trkpt>
      <trkpt lat="45.56235" lon="6.67848">
        <ele>697.7723999</ele>
        <time>2009-07-25T17:13:24Z</time>
      </trkpt>
      <trkpt lat="45.56236" lon="6.67844">
        <ele>697.5407104</ele>
        <time>2009-07-25T17:13:26Z</time>
      </trkpt>
      <trkpt lat="45.56239" lon="6.6784">
        <ele>696.3675537</ele>
        <time>2009-07-25T17:13:29Z</time>
      </trkpt>
      <trkpt lat="45.56242" lon="6.67834">
        <ele>695.3190918</ele>
        <time>2009-07-25T17:13:33Z</time>
      </trkpt>
      <trkpt lat="45.56245" lon="6.67824">
        <ele>693.2301025</ele>
        <time>2009-07-25T17:13:39Z</time>
      </trkpt>
      <trkpt lat="45.56246" lon="6.67817">
        <ele>691.7771606</ele>
        <time>2009-07-25T17:13:43Z</time>
      </trkpt>
      <trkpt lat="45.56244" lon="6.67802">
        <ele>690.5991821</ele>
        <time>2009-07-25T17:13:49Z</time>
      </trkpt>
      <trkpt lat="45.56245" lon="6.67792">
        <ele>689.1522217</ele>
        <time>2009-07-25T17:13:55Z</time>
      </trkpt>
      <trkpt lat="45.56245" lon="6.6778">
        <ele>688.1751099</ele>
        <time>2009-07-25T17:14:01Z</time>
      </trkpt>
      <trkpt lat="45.56248" lon="6.67774">
        <ele>686.8688354</ele>
        <time>2009-07-25T17:14:06Z</time>
      </trkpt>
      <trkpt lat="45.56251" lon="6.67769">
        <ele>685.8187256</ele>
        <time>2009-07-25T17:14:11Z</time>
      </trkpt>
      <trkpt lat="45.56252" lon="6.67758">
        <ele>684.4743652</ele>
        <time>2009-07-25T17:14:18Z</time>
      </trkpt>
      <trkpt lat="45.56252" lon="6.67753">
        <ele>683.9685059</ele>
        <time>2009-07-25T17:14:21Z</time>
      </trkpt>
      <trkpt lat="45.56249" lon="6.67745">
        <ele>683.5633545</ele>
        <time>2009-07-25T17:14:27Z</time>
      </trkpt>
      <trkpt lat="45.56245" lon="6.67736">
        <ele>682.7195435</ele>
        <time>2009-07-25T17:14:33Z</time>
      </trkpt>
      <trkpt lat="45.56242" lon="6.67729">
        <ele>681.9257813</ele>
        <time>2009-07-25T17:14:37Z</time>
      </trkpt>
      <trkpt lat="45.56236" lon="6.67716">
        <ele>680.7683716</ele>
        <time>2009-07-25T17:14:44Z</time>
      </trkpt>
      <trkpt lat="45.56234" lon="6.67713">
        <ele>680.6516113</ele>
        <time>2009-07-25T17:14:46Z</time>
      </trkpt>
      <trkpt lat="45.56232" lon="6.67704">
        <ele>680.3323364</ele>
        <time>2009-07-25T17:14:52Z</time>
      </trkpt>
      <trkpt lat="45.56226" lon="6.67693">
        <ele>680</ele>
        <time>2009-07-25T17:14:59Z</time>
      </trkpt>
      <trkpt lat="45.5622" lon="6.67686">
        <ele>680.3930054</ele>
        <time>2009-07-25T17:15:04Z</time>
      </trkpt>
      <trkpt lat="45.56215" lon="6.67678">
        <ele>680.8759766</ele>
        <time>2009-07-25T17:15:10Z</time>
      </trkpt>
      <trkpt lat="45.56207" lon="6.67666">
        <ele>680</ele>
        <time>2009-07-25T17:15:20Z</time>
      </trkpt>
      <trkpt lat="45.56203" lon="6.67662">
        <ele>680</ele>
        <time>2009-07-25T17:15:25Z</time>
      </trkpt>
      <trkpt lat="45.56199" lon="6.67658">
        <ele>680</ele>
        <time>2009-07-25T17:15:30Z</time>
      </trkpt>
      <trkpt lat="45.56192" lon="6.6765">
        <ele>681.0136719</ele>
        <time>2009-07-25T17:15:37Z</time>
      </trkpt>
      <trkpt lat="45.56186" lon="6.67641">
        <ele>683.1528931</ele>
        <time>2009-07-25T17:15:45Z</time>
      </trkpt>
      <trkpt lat="45.56181" lon="6.67635">
        <ele>684.0929565</ele>
        <time>2009-07-25T17:15:51Z</time>
      </trkpt>
      <trkpt lat="45.56176" lon="6.67629">
        <ele>684.3922119</ele>
        <time>2009-07-25T17:15:57Z</time>
      </trkpt>
      <trkpt lat="45.56166" lon="6.67619">
        <ele>683.0548706</ele>
        <time>2009-07-25T17:16:05Z</time>
      </trkpt>
      <trkpt lat="45.5616" lon="6.67613">
        <ele>683.7537231</ele>
        <time>2009-07-25T17:16:11Z</time>
      </trkpt>
      <trkpt lat="45.56155" lon="6.67607">
        <ele>684.4899292</ele>
        <time>2009-07-25T17:16:16Z</time>
      </trkpt>
      <trkpt lat="45.5615" lon="6.676">
        <ele>685.5394897</ele>
        <time>2009-07-25T17:16:22Z</time>
      </trkpt>
      <trkpt lat="45.56145" lon="6.67594">
        <ele>685.9385986</ele>
        <time>2009-07-25T17:16:27Z</time>
      </trkpt>
      <trkpt lat="45.56136" lon="6.67583">
        <ele>685.7030029</ele>
        <time>2009-07-25T17:16:35Z</time>
      </trkpt>
      <trkpt lat="45.56127" lon="6.67569">
        <ele>685.7819214</ele>
        <time>2009-07-25T17:16:44Z</time>
      </trkpt>
      <trkpt lat="45.56123" lon="6.67562">
        <ele>685.8145752</ele>
        <time>2009-07-25T17:16:48Z</time>
      </trkpt>
      <trkpt lat="45.5612" lon="6.67555">
        <ele>685.4734497</ele>
        <time>2009-07-25T17:16:54Z</time>
      </trkpt>
      <trkpt lat="45.56116" lon="6.67549">
        <ele>685.4851685</ele>
        <time>2009-07-25T17:16:59Z</time>
      </trkpt>
      <trkpt lat="45.56115" lon="6.67542">
        <ele>684.8605957</ele>
        <time>2009-07-25T17:17:03Z</time>
      </trkpt>
      <trkpt lat="45.56113" lon="6.67537">
        <ele>684.3776855</ele>
        <time>2009-07-25T17:17:07Z</time>
      </trkpt>
      <trkpt lat="45.56102" lon="6.67524">
        <ele>685.446228</ele>
        <time>2009-07-25T17:17:14Z</time>
      </trkpt>
      <trkpt lat="45.56099" lon="6.67515">
        <ele>684.9998779</ele>
        <time>2009-07-25T17:17:19Z</time>
      </trkpt>
      <trkpt lat="45.56098" lon="6.67507">
        <ele>684.2857666</ele>
        <time>2009-07-25T17:17:24Z</time>
      </trkpt>
      <trkpt lat="45.56098" lon="6.675">
        <ele>683.3793945</ele>
        <time>2009-07-25T17:17:28Z</time>
      </trkpt>
      <trkpt lat="45.56097" lon="6.67492">
        <ele>682.9133911</ele>
        <time>2009-07-25T17:17:33Z</time>
      </trkpt>
      <trkpt lat="45.56096" lon="6.67485">
        <ele>682.4302979</ele>
        <time>2009-07-25T17:17:37Z</time>
      </trkpt>
      <trkpt lat="45.56091" lon="6.67476">
        <ele>682.9118042</ele>
        <time>2009-07-25T17:17:42Z</time>
      </trkpt>
      <trkpt lat="45.56088" lon="6.67471">
        <ele>682.9492188</ele>
        <time>2009-07-25T17:17:45Z</time>
      </trkpt>
      <trkpt lat="45.56083" lon="6.67461">
        <ele>682.5992432</ele>
        <time>2009-07-25T17:17:50Z</time>
      </trkpt>
      <trkpt lat="45.56081" lon="6.67455">
        <ele>682.4000854</ele>
        <time>2009-07-25T17:17:54Z</time>
      </trkpt>
      <trkpt lat="45.56076" lon="6.67444">
        <ele>682.7009888</ele>
        <time>2009-07-25T17:18:00Z</time>
      </trkpt>
      <trkpt lat="45.56074" lon="6.67435">
        <ele>682.8880615</ele>
        <time>2009-07-25T17:18:05Z</time>
      </trkpt>
      <trkpt lat="45.56071" lon="6.67425">
        <ele>682.9592285</ele>
        <time>2009-07-25T17:18:11Z</time>
      </trkpt>
      <trkpt lat="45.56067" lon="6.67417">
        <ele>683.3078613</ele>
        <time>2009-07-25T17:18:15Z</time>
      </trkpt>
      <trkpt lat="45.56065" lon="6.67407">
        <ele>682.6499023</ele>
        <time>2009-07-25T17:18:21Z</time>
      </trkpt>
      <trkpt lat="45.56065" lon="6.67404">
        <ele>682.3397217</ele>
        <time>2009-07-25T17:18:23Z</time>
      </trkpt>
      <trkpt lat="45.56063" lon="6.674">
        <ele>682.1936646</ele>
        <time>2009-07-25T17:18:25Z</time>
      </trkpt>
      <trkpt lat="45.56059" lon="6.67387">
        <ele>681.802063</ele>
        <time>2009-07-25T17:18:32Z</time>
      </trkpt>
      <trkpt lat="45.56056" lon="6.67376">
        <ele>681.5836792</ele>
        <time>2009-07-25T17:18:37Z</time>
      </trkpt>
      <trkpt lat="45.56055" lon="6.6737">
        <ele>681.3172607</ele>
        <time>2009-07-25T17:18:41Z</time>
      </trkpt>
      <trkpt lat="45.56051" lon="6.67358">
        <ele>681.277771</ele>
        <time>2009-07-25T17:18:48Z</time>
      </trkpt>
      <trkpt lat="45.5605" lon="6.67344">
        <ele>679.9349976</ele>
        <time>2009-07-25T17:18:55Z</time>
      </trkpt>
      <trkpt lat="45.56047" lon="6.67335">
        <ele>679.8782959</ele>
        <time>2009-07-25T17:19:00Z</time>
      </trkpt>
      <trkpt lat="45.56046" lon="6.67322">
        <ele>679.425293</ele>
        <time>2009-07-25T17:19:07Z</time>
      </trkpt>
      <trkpt lat="45.56044" lon="6.6731">
        <ele>679.1379395</ele>
        <time>2009-07-25T17:19:14Z</time>
      </trkpt>
      <trkpt lat="45.56042" lon="6.67303">
        <ele>679.7046509</ele>
        <time>2009-07-25T17:19:18Z</time>
      </trkpt>
      <trkpt lat="45.56039" lon="6.67298">
        <ele>680.5098877</ele>
        <time>2009-07-25T17:19:20Z</time>
      </trkpt>
      <trkpt lat="45.56037" lon="6.67292">
        <ele>681.3538208</ele>
        <time>2009-07-25T17:19:23Z</time>
      </trkpt>
      <trkpt lat="45.56036" lon="6.67288">
        <ele>681.432373</ele>
        <time>2009-07-25T17:19:25Z</time>
      </trkpt>
      <trkpt lat="45.56034" lon="6.67281">
        <ele>681.8590088</ele>
        <time>2009-07-25T17:19:29Z</time>
      </trkpt>
      <trkpt lat="45.5603" lon="6.67265">
        <ele>682.9979248</ele>
        <time>2009-07-25T17:19:37Z</time>
      </trkpt>
      <trkpt lat="45.56028" lon="6.67256">
        <ele>683.1591187</ele>
        <time>2009-07-25T17:19:42Z</time>
      </trkpt>
      <trkpt lat="45.56027" lon="6.67248">
        <ele>682.9688721</ele>
        <time>2009-07-25T17:19:46Z</time>
      </trkpt>
      <trkpt lat="45.56024" lon="6.67236">
        <ele>682.6098022</ele>
        <time>2009-07-25T17:19:52Z</time>
      </trkpt>
      <trkpt lat="45.56023" lon="6.67232">
        <ele>682.4124756</ele>
        <time>2009-07-25T17:19:54Z</time>
      </trkpt>
      <trkpt lat="45.56023" lon="6.67223">
        <ele>681.9702759</ele>
        <time>2009-07-25T17:19:58Z</time>
      </trkpt>
      <trkpt lat="45.56023" lon="6.67212">
        <ele>681.1303711</ele>
        <time>2009-07-25T17:20:04Z</time>
      </trkpt>
      <trkpt lat="45.56023" lon="6.67208">
        <ele>680.7802124</ele>
        <time>2009-07-25T17:20:06Z</time>
      </trkpt>
      <trkpt lat="45.56024" lon="6.67196">
        <ele>679.8463745</ele>
        <time>2009-07-25T17:20:12Z</time>
      </trkpt>
      <trkpt lat="45.5602" lon="6.6718">
        <ele>679.2764282</ele>
        <time>2009-07-25T17:20:19Z</time>
      </trkpt>
      <trkpt lat="45.5602" lon="6.67177">
        <ele>679.2352295</ele>
        <time>2009-07-25T17:20:20Z</time>
      </trkpt>
      <trkpt lat="45.56023" lon="6.67165">
        <ele>677.779541</ele>
        <time>2009-07-25T17:20:26Z</time>
      </trkpt>
      <trkpt lat="45.56023" lon="6.67162">
        <ele>677.484314</ele>
        <time>2009-07-25T17:20:27Z</time>
      </trkpt>
      <trkpt lat="45.56028" lon="6.67156">
        <ele>676.2929688</ele>
        <time>2009-07-25T17:20:31Z</time>
      </trkpt>
      <trkpt lat="45.56037" lon="6.6715">
        <ele>673.9049072</ele>
        <time>2009-07-25T17:20:37Z</time>
      </trkpt>
      <trkpt lat="45.56039" lon="6.67137">
        <ele>672.972229</ele>
        <time>2009-07-25T17:20:44Z</time>
      </trkpt>
      <trkpt lat="45.56038" lon="6.67134">
        <ele>672.8963013</ele>
        <time>2009-07-25T17:20:46Z</time>
      </trkpt>
      <trkpt lat="45.56039" lon="6.67124">
        <ele>672.3256226</ele>
        <time>2009-07-25T17:20:53Z</time>
      </trkpt>
      <trkpt lat="45.56034" lon="6.67112">
        <ele>672.3059082</ele>
        <time>2009-07-25T17:21:00Z</time>
      </trkpt>
      <trkpt lat="45.56027" lon="6.67097">
        <ele>672.0805664</ele>
        <time>2009-07-25T17:21:08Z</time>
      </trkpt>
      <trkpt lat="45.56019" lon="6.67082">
        <ele>672.2035522</ele>
        <time>2009-07-25T17:21:16Z</time>
      </trkpt>
      <trkpt lat="45.56014" lon="6.67067">
        <ele>672.1384888</ele>
        <time>2009-07-25T17:21:26Z</time>
      </trkpt>
      <trkpt lat="45.56011" lon="6.67054">
        <ele>671.75</ele>
        <time>2009-07-25T17:21:36Z</time>
      </trkpt>
      <trkpt lat="45.56006" lon="6.67042">
        <ele>671.578186</ele>
        <time>2009-07-25T17:21:44Z</time>
      </trkpt>
      <trkpt lat="45.56003" lon="6.67033">
        <ele>671.2335205</ele>
        <time>2009-07-25T17:21:50Z</time>
      </trkpt>
      <trkpt lat="45.55999" lon="6.67027">
        <ele>671.1078491</ele>
        <time>2009-07-25T17:21:55Z</time>
      </trkpt>
      <trkpt lat="45.55997" lon="6.67018">
        <ele>670.9692383</ele>
        <time>2009-07-25T17:22:00Z</time>
      </trkpt>
      <trkpt lat="45.55994" lon="6.67002">
        <ele>670.5585938</ele>
        <time>2009-07-25T17:22:10Z</time>
      </trkpt>
      <trkpt lat="45.55991" lon="6.66988">
        <ele>670.3795166</ele>
        <time>2009-07-25T17:22:19Z</time>
      </trkpt>
      <trkpt lat="45.55983" lon="6.66975">
        <ele>670.1002197</ele>
        <time>2009-07-25T17:22:29Z</time>
      </trkpt>
      <trkpt lat="45.55978" lon="6.66961">
        <ele>670</ele>
        <time>2009-07-25T17:22:38Z</time>
      </trkpt>
      <trkpt lat="45.55971" lon="6.66947">
        <ele>670.017395</ele>
        <time>2009-07-25T17:22:48Z</time>
      </trkpt>
      <trkpt lat="45.55967" lon="6.66939">
        <ele>670</ele>
        <time>2009-07-25T17:22:54Z</time>
      </trkpt>
      <trkpt lat="45.55964" lon="6.66924">
        <ele>670</ele>
        <time>2009-07-25T17:23:02Z</time>
      </trkpt>
      <trkpt lat="45.55956" lon="6.66906">
        <ele>670</ele>
        <time>2009-07-25T17:23:13Z</time>
      </trkpt>
      <trkpt lat="45.55948" lon="6.66892">
        <ele>670</ele>
        <time>2009-07-25T17:23:23Z</time>
      </trkpt>
      <trkpt lat="45.55947" lon="6.66889">
        <ele>670</ele>
        <time>2009-07-25T17:23:25Z</time>
      </trkpt>
      <trkpt lat="45.55942" lon="6.66877">
        <ele>669.4889526</ele>
        <time>2009-07-25T17:23:33Z</time>
      </trkpt>
      <trkpt lat="45.55938" lon="6.66869">
        <ele>669.0718384</ele>
        <time>2009-07-25T17:23:40Z</time>
      </trkpt>
      <trkpt lat="45.55934" lon="6.66857">
        <ele>668.5559082</ele>
        <time>2009-07-25T17:23:46Z</time>
      </trkpt>
      <trkpt lat="45.55933" lon="6.66848">
        <ele>668.4197388</ele>
        <time>2009-07-25T17:23:51Z</time>
      </trkpt>
      <trkpt lat="45.55928" lon="6.66838">
        <ele>667.8820801</ele>
        <time>2009-07-25T17:23:57Z</time>
      </trkpt>
      <trkpt lat="45.55918" lon="6.66823">
        <ele>666.762146</ele>
        <time>2009-07-25T17:24:03Z</time>
      </trkpt>
      <trkpt lat="45.55919" lon="6.66812">
        <ele>666.4098511</ele>
        <time>2009-07-25T17:24:09Z</time>
      </trkpt>
      <trkpt lat="45.55917" lon="6.66798">
        <ele>665.765625</ele>
        <time>2009-07-25T17:24:16Z</time>
      </trkpt>
      <trkpt lat="45.55915" lon="6.66785">
        <ele>665.3535156</ele>
        <time>2009-07-25T17:24:23Z</time>
      </trkpt>
      <trkpt lat="45.55914" lon="6.6677">
        <ele>664.84375</ele>
        <time>2009-07-25T17:24:31Z</time>
      </trkpt>
      <trkpt lat="45.55912" lon="6.66754">
        <ele>664.3356323</ele>
        <time>2009-07-25T17:24:39Z</time>
      </trkpt>
      <trkpt lat="45.55909" lon="6.66735">
        <ele>663.7125244</ele>
        <time>2009-07-25T17:24:49Z</time>
      </trkpt>
      <trkpt lat="45.55909" lon="6.66733">
        <ele>663.6541748</ele>
        <time>2009-07-25T17:24:50Z</time>
      </trkpt>
      <trkpt lat="45.55907" lon="6.66722">
        <ele>663.2826538</ele>
        <time>2009-07-25T17:24:56Z</time>
      </trkpt>
      <trkpt lat="45.55905" lon="6.66707">
        <ele>662.3488159</ele>
        <time>2009-07-25T17:25:03Z</time>
      </trkpt>
      <trkpt lat="45.55902" lon="6.66698">
        <ele>661.7583008</ele>
        <time>2009-07-25T17:25:09Z</time>
      </trkpt>
      <trkpt lat="45.55899" lon="6.66687">
        <ele>661.3838501</ele>
        <time>2009-07-25T17:25:15Z</time>
      </trkpt>
      <trkpt lat="45.55896" lon="6.66681">
        <ele>661.2379761</ele>
        <time>2009-07-25T17:25:19Z</time>
      </trkpt>
      <trkpt lat="45.55892" lon="6.66671">
        <ele>661.0405273</ele>
        <time>2009-07-25T17:25:26Z</time>
      </trkpt>
      <trkpt lat="45.55884" lon="6.66661">
        <ele>660.9650269</ele>
        <time>2009-07-25T17:25:34Z</time>
      </trkpt>
      <trkpt lat="45.5588" lon="6.66656">
        <ele>660.934082</ele>
        <time>2009-07-25T17:25:38Z</time>
      </trkpt>
      <trkpt lat="45.55876" lon="6.66651">
        <ele>660.9221191</ele>
        <time>2009-07-25T17:25:42Z</time>
      </trkpt>
      <trkpt lat="45.55868" lon="6.66643">
        <ele>660.9066162</ele>
        <time>2009-07-25T17:25:49Z</time>
      </trkpt>
      <trkpt lat="45.55861" lon="6.66638">
        <ele>661.0028076</ele>
        <time>2009-07-25T17:25:54Z</time>
      </trkpt>
      <trkpt lat="45.55854" lon="6.6663">
        <ele>660.9306641</ele>
        <time>2009-07-25T17:26:00Z</time>
      </trkpt>
      <trkpt lat="45.55848" lon="6.66623">
        <ele>660.8791504</ele>
        <time>2009-07-25T17:26:06Z</time>
      </trkpt>
      <trkpt lat="45.55845" lon="6.66617">
        <ele>660.7727661</ele>
        <time>2009-07-25T17:26:10Z</time>
      </trkpt>
      <trkpt lat="45.55835" lon="6.66609">
        <ele>660.8842163</ele>
        <time>2009-07-25T17:26:17Z</time>
      </trkpt>
      <trkpt lat="45.55828" lon="6.66601">
        <ele>660.8087769</ele>
        <time>2009-07-25T17:26:24Z</time>
      </trkpt>
      <trkpt lat="45.55822" lon="6.66593">
        <ele>660.7675781</ele>
        <time>2009-07-25T17:26:31Z</time>
      </trkpt>
      <trkpt lat="45.55819" lon="6.66589">
        <ele>660.7058105</ele>
        <time>2009-07-25T17:26:35Z</time>
      </trkpt>
      <trkpt lat="45.55815" lon="6.66582">
        <ele>660.6344604</ele>
        <time>2009-07-25T17:26:40Z</time>
      </trkpt>
      <trkpt lat="45.55807" lon="6.66574">
        <ele>660.6203003</ele>
        <time>2009-07-25T17:26:47Z</time>
      </trkpt>
      <trkpt lat="45.55799" lon="6.66564">
        <ele>660.7698975</ele>
        <time>2009-07-25T17:26:54Z</time>
      </trkpt>
      <trkpt lat="45.55794" lon="6.66555">
        <ele>660.8430786</ele>
        <time>2009-07-25T17:27:00Z</time>
      </trkpt>
      <trkpt lat="45.55787" lon="6.66543">
        <ele>660.7596436</ele>
        <time>2009-07-25T17:27:09Z</time>
      </trkpt>
      <trkpt lat="45.55781" lon="6.66533">
        <ele>660.3439331</ele>
        <time>2009-07-25T17:27:16Z</time>
      </trkpt>
      <trkpt lat="45.55775" lon="6.66523">
        <ele>660.1847534</ele>
        <time>2009-07-25T17:27:23Z</time>
      </trkpt>
      <trkpt lat="45.55767" lon="6.66512">
        <ele>660.3538208</ele>
        <time>2009-07-25T17:27:30Z</time>
      </trkpt>
      <trkpt lat="45.55761" lon="6.66505">
        <ele>660.1994019</ele>
        <time>2009-07-25T17:27:35Z</time>
      </trkpt>
      <trkpt lat="45.55753" lon="6.66493">
        <ele>660</ele>
        <time>2009-07-25T17:27:42Z</time>
      </trkpt>
      <trkpt lat="45.5575" lon="6.66486">
        <ele>660.0039063</ele>
        <time>2009-07-25T17:27:48Z</time>
      </trkpt>
      <trkpt lat="45.55747" lon="6.66479">
        <ele>660.046814</ele>
        <time>2009-07-25T17:27:54Z</time>
      </trkpt>
      <trkpt lat="45.55744" lon="6.66474">
        <ele>660.0341797</ele>
        <time>2009-07-25T17:27:57Z</time>
      </trkpt>
      <trkpt lat="45.55733" lon="6.66459">
        <ele>660</ele>
        <time>2009-07-25T17:28:06Z</time>
      </trkpt>
      <trkpt lat="45.55729" lon="6.6645">
        <ele>660</ele>
        <time>2009-07-25T17:28:12Z</time>
      </trkpt>
      <trkpt lat="45.5572" lon="6.66438">
        <ele>660.0574951</ele>
        <time>2009-07-25T17:28:20Z</time>
      </trkpt>
      <trkpt lat="45.55715" lon="6.6643">
        <ele>660.1296387</ele>
        <time>2009-07-25T17:28:25Z</time>
      </trkpt>
      <trkpt lat="45.55713" lon="6.66423">
        <ele>660.0735474</ele>
        <time>2009-07-25T17:28:29Z</time>
      </trkpt>
      <trkpt lat="45.5571" lon="6.66409">
        <ele>660</ele>
        <time>2009-07-25T17:28:36Z</time>
      </trkpt>
      <trkpt lat="45.55708" lon="6.66398">
        <ele>660</ele>
        <time>2009-07-25T17:28:42Z</time>
      </trkpt>
      <trkpt lat="45.55709" lon="6.66395">
        <ele>660</ele>
        <time>2009-07-25T17:28:44Z</time>
      </trkpt>
      <trkpt lat="45.55718" lon="6.66389">
        <ele>660</ele>
        <time>2009-07-25T17:28:51Z</time>
      </trkpt>
      <trkpt lat="45.55727" lon="6.66383">
        <ele>660</ele>
        <time>2009-07-25T17:28:58Z</time>
      </trkpt>
      <trkpt lat="45.55731" lon="6.66382">
        <ele>660</ele>
        <time>2009-07-25T17:29:01Z</time>
      </trkpt>
      <trkpt lat="45.55737" lon="6.66376">
        <ele>660</ele>
        <time>2009-07-25T17:29:07Z</time>
      </trkpt>
      <trkpt lat="45.55738" lon="6.6637">
        <ele>660</ele>
        <time>2009-07-25T17:29:11Z</time>
      </trkpt>
      <trkpt lat="45.55734" lon="6.66359">
        <ele>660</ele>
        <time>2009-07-25T17:29:18Z</time>
      </trkpt>
      <trkpt lat="45.55732" lon="6.6635">
        <ele>660</ele>
        <time>2009-07-25T17:29:23Z</time>
      </trkpt>
      <trkpt lat="45.55728" lon="6.66344">
        <ele>660</ele>
        <time>2009-07-25T17:29:27Z</time>
      </trkpt>
      <trkpt lat="45.55727" lon="6.66341">
        <ele>660</ele>
        <time>2009-07-25T17:29:29Z</time>
      </trkpt>
      <trkpt lat="45.55725" lon="6.66334">
        <ele>660</ele>
        <time>2009-07-25T17:29:33Z</time>
      </trkpt>
      <trkpt lat="45.55723" lon="6.66327">
        <ele>660</ele>
        <time>2009-07-25T17:29:37Z</time>
      </trkpt>
      <trkpt lat="45.55719" lon="6.66315">
        <ele>660</ele>
        <time>2009-07-25T17:29:44Z</time>
      </trkpt>
      <trkpt lat="45.55716" lon="6.66297">
        <ele>660</ele>
        <time>2009-07-25T17:29:54Z</time>
      </trkpt>
      <trkpt lat="45.55714" lon="6.66287">
        <ele>660</ele>
        <time>2009-07-25T17:30:00Z</time>
      </trkpt>
      <trkpt lat="45.5571" lon="6.66276">
        <ele>660</ele>
        <time>2009-07-25T17:30:06Z</time>
      </trkpt>
      <trkpt lat="45.55706" lon="6.66265">
        <ele>660</ele>
        <time>2009-07-25T17:30:12Z</time>
      </trkpt>
      <trkpt lat="45.55705" lon="6.66259">
        <ele>660</ele>
        <time>2009-07-25T17:30:16Z</time>
      </trkpt>
      <trkpt lat="45.55704" lon="6.66252">
        <ele>660</ele>
        <time>2009-07-25T17:30:20Z</time>
      </trkpt>
      <trkpt lat="45.55701" lon="6.66241">
        <ele>660</ele>
        <time>2009-07-25T17:30:27Z</time>
      </trkpt>
      <trkpt lat="45.55698" lon="6.66227">
        <ele>660</ele>
        <time>2009-07-25T17:30:35Z</time>
      </trkpt>
      <trkpt lat="45.55696" lon="6.66218">
        <ele>660</ele>
        <time>2009-07-25T17:30:41Z</time>
      </trkpt>
      <trkpt lat="45.55696" lon="6.66212">
        <ele>660</ele>
        <time>2009-07-25T17:30:44Z</time>
      </trkpt>
      <trkpt lat="45.55696" lon="6.66196">
        <ele>660</ele>
        <time>2009-07-25T17:30:52Z</time>
      </trkpt>
      <trkpt lat="45.55692" lon="6.6618">
        <ele>659.6500244</ele>
        <time>2009-07-25T17:31:01Z</time>
      </trkpt>
      <trkpt lat="45.55689" lon="6.66167">
        <ele>658.9976807</ele>
        <time>2009-07-25T17:31:09Z</time>
      </trkpt>
      <trkpt lat="45.55685" lon="6.66155">
        <ele>658.2391357</ele>
        <time>2009-07-25T17:31:17Z</time>
      </trkpt>
      <trkpt lat="45.55681" lon="6.66145">
        <ele>657.6211548</ele>
        <time>2009-07-25T17:31:23Z</time>
      </trkpt>
      <trkpt lat="45.55679" lon="6.66132">
        <ele>656.9902954</ele>
        <time>2009-07-25T17:31:31Z</time>
      </trkpt>
      <trkpt lat="45.55676" lon="6.66117">
        <ele>656.0493164</ele>
        <time>2009-07-25T17:31:40Z</time>
      </trkpt>
      <trkpt lat="45.55674" lon="6.66111">
        <ele>655.4974365</ele>
        <time>2009-07-25T17:31:44Z</time>
      </trkpt>
      <trkpt lat="45.5567" lon="6.66098">
        <ele>654.7558594</ele>
        <time>2009-07-25T17:31:52Z</time>
      </trkpt>
      <trkpt lat="45.55667" lon="6.66084">
        <ele>654.0966797</ele>
        <time>2009-07-25T17:32:00Z</time>
      </trkpt>
      <trkpt lat="45.55664" lon="6.66067">
        <ele>653.2684326</ele>
        <time>2009-07-25T17:32:09Z</time>
      </trkpt>
      <trkpt lat="45.55662" lon="6.66048">
        <ele>652.3998413</ele>
        <time>2009-07-25T17:32:20Z</time>
      </trkpt>
      <trkpt lat="45.5566" lon="6.6604">
        <ele>651.9603882</ele>
        <time>2009-07-25T17:32:25Z</time>
      </trkpt>
      <trkpt lat="45.55658" lon="6.66023">
        <ele>651.3730469</ele>
        <time>2009-07-25T17:32:35Z</time>
      </trkpt>
      <trkpt lat="45.55657" lon="6.66009">
        <ele>651.2906494</ele>
        <time>2009-07-25T17:32:44Z</time>
      </trkpt>
      <trkpt lat="45.55656" lon="6.66002">
        <ele>651.2631836</ele>
        <time>2009-07-25T17:32:48Z</time>
      </trkpt>
      <trkpt lat="45.55658" lon="6.6599">
        <ele>651.1536865</ele>
        <time>2009-07-25T17:32:57Z</time>
      </trkpt>
      <trkpt lat="45.55658" lon="6.65982">
        <ele>650.9318848</ele>
        <time>2009-07-25T17:33:05Z</time>
      </trkpt>
      <trkpt lat="45.55658" lon="6.65965">
        <ele>650.8606567</ele>
        <time>2009-07-25T17:33:12Z</time>
      </trkpt>
      <trkpt lat="45.55662" lon="6.65948">
        <ele>651.559021</ele>
        <time>2009-07-25T17:33:19Z</time>
      </trkpt>
      <trkpt lat="45.55666" lon="6.65943">
        <ele>652.0643921</ele>
        <time>2009-07-25T17:33:23Z</time>
      </trkpt>
      <trkpt lat="45.55671" lon="6.65935">
        <ele>655.25177</ele>
        <time>2009-07-25T17:33:27Z</time>
      </trkpt>
      <trkpt lat="45.55675" lon="6.65928">
        <ele>658.6051636</ele>
        <time>2009-07-25T17:33:34Z</time>
      </trkpt>
      <trkpt lat="45.55673" lon="6.65923">
        <ele>657.6884155</ele>
        <time>2009-07-25T17:33:39Z</time>
      </trkpt>
      <trkpt lat="45.55668" lon="6.65913">
        <ele>654.9355469</ele>
        <time>2009-07-25T17:33:45Z</time>
      </trkpt>
      <trkpt lat="45.55661" lon="6.65902">
        <ele>654.3707886</ele>
        <time>2009-07-25T17:33:51Z</time>
      </trkpt>
      <trkpt lat="45.55661" lon="6.65887">
        <ele>655.7229614</ele>
        <time>2009-07-25T17:34:00Z</time>
      </trkpt>
      <trkpt lat="45.55662" lon="6.65871">
        <ele>657.4553833</ele>
        <time>2009-07-25T17:34:09Z</time>
      </trkpt>
      <trkpt lat="45.55663" lon="6.6586">
        <ele>658.5479126</ele>
        <time>2009-07-25T17:34:16Z</time>
      </trkpt>
      <trkpt lat="45.55663" lon="6.65846">
        <ele>659.1256714</ele>
        <time>2009-07-25T17:34:24Z</time>
      </trkpt>
      <trkpt lat="45.55662" lon="6.6584">
        <ele>659.2490845</ele>
        <time>2009-07-25T17:34:28Z</time>
      </trkpt>
      <trkpt lat="45.55663" lon="6.65826">
        <ele>660.3134766</ele>
        <time>2009-07-25T17:34:37Z</time>
      </trkpt>
      <trkpt lat="45.55663" lon="6.65814">
        <ele>661.3512573</ele>
        <time>2009-07-25T17:34:45Z</time>
      </trkpt>
      <trkpt lat="45.55664" lon="6.65804">
        <ele>662.0228271</ele>
        <time>2009-07-25T17:34:52Z</time>
      </trkpt>
      <trkpt lat="45.55665" lon="6.65793">
        <ele>661.3279419</ele>
        <time>2009-07-25T17:35:00Z</time>
      </trkpt>
      <trkpt lat="45.55666" lon="6.65783">
        <ele>660.5288086</ele>
        <time>2009-07-25T17:35:06Z</time>
      </trkpt>
      <trkpt lat="45.55668" lon="6.65768">
        <ele>660.6104736</ele>
        <time>2009-07-25T17:35:15Z</time>
      </trkpt>
      <trkpt lat="45.55669" lon="6.65762">
        <ele>660.8845215</ele>
        <time>2009-07-25T17:35:19Z</time>
      </trkpt>
      <trkpt lat="45.55669" lon="6.65755">
        <ele>660.7241821</ele>
        <time>2009-07-25T17:35:24Z</time>
      </trkpt>
      <trkpt lat="45.55671" lon="6.65746">
        <ele>661.6687622</ele>
        <time>2009-07-25T17:35:30Z</time>
      </trkpt>
      <trkpt lat="45.55674" lon="6.65734">
        <ele>662.9278564</ele>
        <time>2009-07-25T17:35:37Z</time>
      </trkpt>
      <trkpt lat="45.55677" lon="6.65725">
        <ele>664.3013916</ele>
        <time>2009-07-25T17:35:44Z</time>
      </trkpt>
      <trkpt lat="45.55679" lon="6.65715">
        <ele>665.0007324</ele>
        <time>2009-07-25T17:35:52Z</time>
      </trkpt>
      <trkpt lat="45.5568" lon="6.65706">
        <ele>665.1831055</ele>
        <time>2009-07-25T17:35:58Z</time>
      </trkpt>
      <trkpt lat="45.55682" lon="6.65694">
        <ele>665.4032593</ele>
        <time>2009-07-25T17:36:06Z</time>
      </trkpt>
      <trkpt lat="45.55686" lon="6.65684">
        <ele>666.3244019</ele>
        <time>2009-07-25T17:36:12Z</time>
      </trkpt>
      <trkpt lat="45.55688" lon="6.65673">
        <ele>666.8071899</ele>
        <time>2009-07-25T17:36:20Z</time>
      </trkpt>
      <trkpt lat="45.5569" lon="6.65668">
        <ele>667.2637939</ele>
        <time>2009-07-25T17:36:23Z</time>
      </trkpt>
      <trkpt lat="45.55691" lon="6.65661">
        <ele>667.6326904</ele>
        <time>2009-07-25T17:36:26Z</time>
      </trkpt>
      <trkpt lat="45.55693" lon="6.65636">
        <ele>668.7998047</ele>
        <time>2009-07-25T17:36:31Z</time>
      </trkpt>
      <trkpt lat="45.55686" lon="6.65633">
        <ele>667.8110352</ele>
        <time>2009-07-25T17:36:34Z</time>
      </trkpt>
      <trkpt lat="45.55686" lon="6.65631">
        <ele>667.7561035</ele>
        <time>2009-07-25T17:36:39Z</time>
      </trkpt>
      <trkpt lat="45.5569" lon="6.65624">
        <ele>668.3054199</ele>
        <time>2009-07-25T17:36:45Z</time>
      </trkpt>
      <trkpt lat="45.55695" lon="6.65612">
        <ele>669.0146484</ele>
        <time>2009-07-25T17:36:53Z</time>
      </trkpt>
      <trkpt lat="45.55697" lon="6.65598">
        <ele>669.3030396</ele>
        <time>2009-07-25T17:37:02Z</time>
      </trkpt>
      <trkpt lat="45.55698" lon="6.65585">
        <ele>669.3442383</ele>
        <time>2009-07-25T17:37:10Z</time>
      </trkpt>
      <trkpt lat="45.55699" lon="6.65571">
        <ele>669.4000854</ele>
        <time>2009-07-25T17:37:18Z</time>
      </trkpt>
      <trkpt lat="45.55702" lon="6.65561">
        <ele>669.6101074</ele>
        <time>2009-07-25T17:37:25Z</time>
      </trkpt>
      <trkpt lat="45.55707" lon="6.65549">
        <ele>669.8118286</ele>
        <time>2009-07-25T17:37:33Z</time>
      </trkpt>
      <trkpt lat="45.55706" lon="6.65537">
        <ele>669.5414429</ele>
        <time>2009-07-25T17:37:40Z</time>
      </trkpt>
      <trkpt lat="45.55711" lon="6.65526">
        <ele>669.5614624</ele>
        <time>2009-07-25T17:37:47Z</time>
      </trkpt>
      <trkpt lat="45.55712" lon="6.65516">
        <ele>669.477478</ele>
        <time>2009-07-25T17:37:53Z</time>
      </trkpt>
      <trkpt lat="45.55712" lon="6.65514">
        <ele>669.4298706</ele>
        <time>2009-07-25T17:37:54Z</time>
      </trkpt>
      <trkpt lat="45.55713" lon="6.65502">
        <ele>669.3497314</ele>
        <time>2009-07-25T17:38:01Z</time>
      </trkpt>
      <trkpt lat="45.55711" lon="6.65493">
        <ele>669.4740601</ele>
        <time>2009-07-25T17:38:05Z</time>
      </trkpt>
      <trkpt lat="45.5571" lon="6.65488">
        <ele>669.6107788</ele>
        <time>2009-07-25T17:38:08Z</time>
      </trkpt>
      <trkpt lat="45.55712" lon="6.65477">
        <ele>670.3060303</ele>
        <time>2009-07-25T17:38:15Z</time>
      </trkpt>
      <trkpt lat="45.55715" lon="6.65469">
        <ele>670.9858398</ele>
        <time>2009-07-25T17:38:21Z</time>
      </trkpt>
      <trkpt lat="45.55718" lon="6.65463">
        <ele>671.3703613</ele>
        <time>2009-07-25T17:38:25Z</time>
      </trkpt>
      <trkpt lat="45.55719" lon="6.65461">
        <ele>671.5900879</ele>
        <time>2009-07-25T17:38:27Z</time>
      </trkpt>
      <trkpt lat="45.55725" lon="6.65449">
        <ele>672.3753662</ele>
        <time>2009-07-25T17:38:36Z</time>
      </trkpt>
      <trkpt lat="45.55727" lon="6.65442">
        <ele>672.4810791</ele>
        <time>2009-07-25T17:38:42Z</time>
      </trkpt>
      <trkpt lat="45.55727" lon="6.65434">
        <ele>671.9215088</ele>
        <time>2009-07-25T17:38:49Z</time>
      </trkpt>
      <trkpt lat="45.55729" lon="6.65423">
        <ele>671.4407959</ele>
        <time>2009-07-25T17:38:57Z</time>
      </trkpt>
      <trkpt lat="45.55728" lon="6.65417">
        <ele>670.8743286</ele>
        <time>2009-07-25T17:39:02Z</time>
      </trkpt>
      <trkpt lat="45.55728" lon="6.65411">
        <ele>671.5336914</ele>
        <time>2009-07-25T17:39:07Z</time>
      </trkpt>
      <trkpt lat="45.55727" lon="6.65403">
        <ele>672.2860718</ele>
        <time>2009-07-25T17:39:12Z</time>
      </trkpt>
      <trkpt lat="45.55725" lon="6.65391">
        <ele>673.7598877</ele>
        <time>2009-07-25T17:39:20Z</time>
      </trkpt>
      <trkpt lat="45.55722" lon="6.6538">
        <ele>676.0117188</ele>
        <time>2009-07-25T17:39:27Z</time>
      </trkpt>
      <trkpt lat="45.55717" lon="6.65366">
        <ele>678.9890747</ele>
        <time>2009-07-25T17:39:36Z</time>
      </trkpt>
      <trkpt lat="45.55713" lon="6.65358">
        <ele>680.0836182</ele>
        <time>2009-07-25T17:39:43Z</time>
      </trkpt>
      <trkpt lat="45.55709" lon="6.65353">
        <ele>680.1599121</ele>
        <time>2009-07-25T17:39:46Z</time>
      </trkpt>
      <trkpt lat="45.55706" lon="6.65348">
        <ele>680.2068481</ele>
        <time>2009-07-25T17:39:49Z</time>
      </trkpt>
      <trkpt lat="45.55704" lon="6.65335">
        <ele>680.3322754</ele>
        <time>2009-07-25T17:39:56Z</time>
      </trkpt>
      <trkpt lat="45.55704" lon="6.6532">
        <ele>680.8156738</ele>
        <time>2009-07-25T17:40:04Z</time>
      </trkpt>
      <trkpt lat="45.55706" lon="6.65311">
        <ele>681.239624</ele>
        <time>2009-07-25T17:40:10Z</time>
      </trkpt>
      <trkpt lat="45.55707" lon="6.65308">
        <ele>681.3769531</ele>
        <time>2009-07-25T17:40:12Z</time>
      </trkpt>
      <trkpt lat="45.55711" lon="6.65298">
        <ele>681.6281128</ele>
        <time>2009-07-25T17:40:17Z</time>
      </trkpt>
      <trkpt lat="45.55713" lon="6.65285">
        <ele>681.946228</ele>
        <time>2009-07-25T17:40:23Z</time>
      </trkpt>
      <trkpt lat="45.55718" lon="6.65272">
        <ele>682.7873535</ele>
        <time>2009-07-25T17:40:29Z</time>
      </trkpt>
      <trkpt lat="45.55717" lon="6.65256">
        <ele>683.1907959</ele>
        <time>2009-07-25T17:40:34Z</time>
      </trkpt>
      <trkpt lat="45.55713" lon="6.65235">
        <ele>683.473999</ele>
        <time>2009-07-25T17:40:41Z</time>
      </trkpt>
      <trkpt lat="45.55712" lon="6.65221">
        <ele>683.9151611</ele>
        <time>2009-07-25T17:40:47Z</time>
      </trkpt>
      <trkpt lat="45.55703" lon="6.65207">
        <ele>683.482605</ele>
        <time>2009-07-25T17:40:52Z</time>
      </trkpt>
      <trkpt lat="45.55694" lon="6.65204">
        <ele>682.5745239</ele>
        <time>2009-07-25T17:40:57Z</time>
      </trkpt>
      <trkpt lat="45.55683" lon="6.65204">
        <ele>681.4260864</ele>
        <time>2009-07-25T17:41:03Z</time>
      </trkpt>
      <trkpt lat="45.55676" lon="6.65207">
        <ele>680.583252</ele>
        <time>2009-07-25T17:41:07Z</time>
      </trkpt>
      <trkpt lat="45.55666" lon="6.65201">
        <ele>679.7293701</ele>
        <time>2009-07-25T17:41:13Z</time>
      </trkpt>
      <trkpt lat="45.55657" lon="6.65198">
        <ele>678.8435669</ele>
        <time>2009-07-25T17:41:19Z</time>
      </trkpt>
      <trkpt lat="45.55648" lon="6.65197">
        <ele>677.9609985</ele>
        <time>2009-07-25T17:41:24Z</time>
      </trkpt>
      <trkpt lat="45.55638" lon="6.65196">
        <ele>676.8760376</ele>
        <time>2009-07-25T17:41:30Z</time>
      </trkpt>
      <trkpt lat="45.55627" lon="6.65196">
        <ele>675.7224731</ele>
        <time>2009-07-25T17:41:36Z</time>
      </trkpt>
      <trkpt lat="45.5562" lon="6.65194">
        <ele>674.9942627</ele>
        <time>2009-07-25T17:41:40Z</time>
      </trkpt>
      <trkpt lat="45.55611" lon="6.65188">
        <ele>674.2047119</ele>
        <time>2009-07-25T17:41:46Z</time>
      </trkpt>
      <trkpt lat="45.55599" lon="6.65174">
        <ele>673.5658569</ele>
        <time>2009-07-25T17:41:54Z</time>
      </trkpt>
      <trkpt lat="45.55592" lon="6.65167">
        <ele>672.8874512</ele>
        <time>2009-07-25T17:42:00Z</time>
      </trkpt>
    </trkseg>
  </trk>
</gpx>